<?xml version="1.0" encoding="UTF-8" standalone="no" ?>
<gpx xmlns="http://www.topografix.com/GPX/1/1" xmlns:xsi="http://www.w3.org/2001/XMLSchema-instance" xsi:schemaLocation="http://www.topografix.com/GPX/1/1 http://www.topografix.com/GPX/1/1/gpx.xsd" version="1.1" creator="VisuGPX - https://www.visugpx.com">
  <metadata>
    <name>La Bocagère </name>
  </metadata>
  <trk>
    <name><![CDATA[La Bocagère _1]]></name>
    <trkseg>
      <trkpt lat="46.73153" lon="-0.71655">
        <ele>206.5</ele>
        <time>2020-11-15T08:13:33Z</time>
      </trkpt>
      <trkpt lat="46.7315" lon="-0.71668">
        <ele>206.2</ele>
        <time>2020-11-15T08:13:35Z</time>
      </trkpt>
      <trkpt lat="46.73145" lon="-0.71678">
        <ele>205.9</ele>
        <time>2020-11-15T08:13:37Z</time>
      </trkpt>
      <trkpt lat="46.73143" lon="-0.7169">
        <ele>205.6</ele>
        <time>2020-11-15T08:13:39Z</time>
      </trkpt>
      <trkpt lat="46.73143" lon="-0.71697">
        <ele>205.5</ele>
        <time>2020-11-15T08:13:40Z</time>
      </trkpt>
      <trkpt lat="46.73142" lon="-0.71703">
        <ele>205.4</ele>
        <time>2020-11-15T08:13:41Z</time>
      </trkpt>
      <trkpt lat="46.73141" lon="-0.71708">
        <ele>205.2</ele>
        <time>2020-11-15T08:13:42Z</time>
      </trkpt>
      <trkpt lat="46.73139" lon="-0.71714">
        <ele>205.1</ele>
        <time>2020-11-15T08:13:43Z</time>
      </trkpt>
      <trkpt lat="46.73138" lon="-0.7172">
        <ele>205</ele>
        <time>2020-11-15T08:13:44Z</time>
      </trkpt>
      <trkpt lat="46.73138" lon="-0.71725">
        <ele>204.9</ele>
        <time>2020-11-15T08:13:45Z</time>
      </trkpt>
      <trkpt lat="46.73139" lon="-0.71737">
        <ele>204.7</ele>
        <time>2020-11-15T08:13:47Z</time>
      </trkpt>
      <trkpt lat="46.7314" lon="-0.71749">
        <ele>204.4</ele>
        <time>2020-11-15T08:13:49Z</time>
      </trkpt>
      <trkpt lat="46.73141" lon="-0.71756">
        <ele>204.3</ele>
        <time>2020-11-15T08:13:50Z</time>
      </trkpt>
      <trkpt lat="46.73141" lon="-0.71763">
        <ele>204.2</ele>
        <time>2020-11-15T08:13:51Z</time>
      </trkpt>
      <trkpt lat="46.73141" lon="-0.71777">
        <ele>203.9</ele>
        <time>2020-11-15T08:13:53Z</time>
      </trkpt>
      <trkpt lat="46.73142" lon="-0.71792">
        <ele>203.4</ele>
        <time>2020-11-15T08:13:55Z</time>
      </trkpt>
      <trkpt lat="46.73142" lon="-0.71799">
        <ele>203.2</ele>
        <time>2020-11-15T08:13:56Z</time>
      </trkpt>
      <trkpt lat="46.73142" lon="-0.71807">
        <ele>203</ele>
        <time>2020-11-15T08:13:57Z</time>
      </trkpt>
      <trkpt lat="46.73142" lon="-0.71822">
        <ele>202.7</ele>
        <time>2020-11-15T08:13:59Z</time>
      </trkpt>
      <trkpt lat="46.73143" lon="-0.71836">
        <ele>202.4</ele>
        <time>2020-11-15T08:14:01Z</time>
      </trkpt>
      <trkpt lat="46.73143" lon="-0.7185">
        <ele>202.1</ele>
        <time>2020-11-15T08:14:03Z</time>
      </trkpt>
      <trkpt lat="46.73144" lon="-0.71858">
        <ele>202</ele>
        <time>2020-11-15T08:14:04Z</time>
      </trkpt>
      <trkpt lat="46.73144" lon="-0.71865">
        <ele>201.9</ele>
        <time>2020-11-15T08:14:05Z</time>
      </trkpt>
      <trkpt lat="46.73146" lon="-0.7188">
        <ele>201.6</ele>
        <time>2020-11-15T08:14:07Z</time>
      </trkpt>
      <trkpt lat="46.73148" lon="-0.71894">
        <ele>201.4</ele>
        <time>2020-11-15T08:14:09Z</time>
      </trkpt>
      <trkpt lat="46.73149" lon="-0.719">
        <ele>201.3</ele>
        <time>2020-11-15T08:14:10Z</time>
      </trkpt>
      <trkpt lat="46.73149" lon="-0.71907">
        <ele>201.3</ele>
        <time>2020-11-15T08:14:11Z</time>
      </trkpt>
      <trkpt lat="46.73151" lon="-0.71919">
        <ele>201.1</ele>
        <time>2020-11-15T08:14:13Z</time>
      </trkpt>
      <trkpt lat="46.73152" lon="-0.71925">
        <ele>201.1</ele>
        <time>2020-11-15T08:14:14Z</time>
      </trkpt>
      <trkpt lat="46.73154" lon="-0.71932">
        <ele>201</ele>
        <time>2020-11-15T08:14:15Z</time>
      </trkpt>
      <trkpt lat="46.73155" lon="-0.71938">
        <ele>200.9</ele>
        <time>2020-11-15T08:14:16Z</time>
      </trkpt>
      <trkpt lat="46.73156" lon="-0.71944">
        <ele>200.9</ele>
        <time>2020-11-15T08:14:17Z</time>
      </trkpt>
      <trkpt lat="46.73158" lon="-0.71957">
        <ele>200.7</ele>
        <time>2020-11-15T08:14:19Z</time>
      </trkpt>
      <trkpt lat="46.7316" lon="-0.71963">
        <ele>200.7</ele>
        <time>2020-11-15T08:14:20Z</time>
      </trkpt>
      <trkpt lat="46.73161" lon="-0.71969">
        <ele>200.6</ele>
        <time>2020-11-15T08:14:21Z</time>
      </trkpt>
      <trkpt lat="46.73162" lon="-0.71983">
        <ele>200.5</ele>
        <time>2020-11-15T08:14:23Z</time>
      </trkpt>
      <trkpt lat="46.73164" lon="-0.71996">
        <ele>200.5</ele>
        <time>2020-11-15T08:14:25Z</time>
      </trkpt>
      <trkpt lat="46.73164" lon="-0.72002">
        <ele>200.4</ele>
        <time>2020-11-15T08:14:26Z</time>
      </trkpt>
      <trkpt lat="46.73165" lon="-0.72009">
        <ele>200.4</ele>
        <time>2020-11-15T08:14:27Z</time>
      </trkpt>
      <trkpt lat="46.73166" lon="-0.72022">
        <ele>200.3</ele>
        <time>2020-11-15T08:14:29Z</time>
      </trkpt>
      <trkpt lat="46.73166" lon="-0.72033">
        <ele>200.3</ele>
        <time>2020-11-15T08:14:31Z</time>
      </trkpt>
      <trkpt lat="46.73167" lon="-0.72045">
        <ele>200.3</ele>
        <time>2020-11-15T08:14:33Z</time>
      </trkpt>
      <trkpt lat="46.73167" lon="-0.72057">
        <ele>200.3</ele>
        <time>2020-11-15T08:14:35Z</time>
      </trkpt>
      <trkpt lat="46.73168" lon="-0.72069">
        <ele>200.2</ele>
        <time>2020-11-15T08:14:37Z</time>
      </trkpt>
      <trkpt lat="46.73168" lon="-0.72082">
        <ele>200.2</ele>
        <time>2020-11-15T08:14:39Z</time>
      </trkpt>
      <trkpt lat="46.73168" lon="-0.72094">
        <ele>200.2</ele>
        <time>2020-11-15T08:14:41Z</time>
      </trkpt>
      <trkpt lat="46.73168" lon="-0.72106">
        <ele>200.2</ele>
        <time>2020-11-15T08:14:43Z</time>
      </trkpt>
      <trkpt lat="46.73168" lon="-0.72119">
        <ele>200.2</ele>
        <time>2020-11-15T08:14:45Z</time>
      </trkpt>
      <trkpt lat="46.73168" lon="-0.7213">
        <ele>200.3</ele>
        <time>2020-11-15T08:14:47Z</time>
      </trkpt>
      <trkpt lat="46.73169" lon="-0.72143">
        <ele>200.3</ele>
        <time>2020-11-15T08:14:49Z</time>
      </trkpt>
      <trkpt lat="46.73169" lon="-0.72155">
        <ele>200.4</ele>
        <time>2020-11-15T08:14:51Z</time>
      </trkpt>
      <trkpt lat="46.73169" lon="-0.72161">
        <ele>200.4</ele>
        <time>2020-11-15T08:14:52Z</time>
      </trkpt>
      <trkpt lat="46.73169" lon="-0.72166">
        <ele>200.4</ele>
        <time>2020-11-15T08:14:53Z</time>
      </trkpt>
      <trkpt lat="46.7317" lon="-0.72177">
        <ele>200.5</ele>
        <time>2020-11-15T08:14:55Z</time>
      </trkpt>
      <trkpt lat="46.73171" lon="-0.72187">
        <ele>200.5</ele>
        <time>2020-11-15T08:14:57Z</time>
      </trkpt>
      <trkpt lat="46.73171" lon="-0.72191">
        <ele>200.6</ele>
        <time>2020-11-15T08:14:58Z</time>
      </trkpt>
      <trkpt lat="46.73169" lon="-0.72195">
        <ele>200.4</ele>
        <time>2020-11-15T08:14:59Z</time>
      </trkpt>
      <trkpt lat="46.73166" lon="-0.72196">
        <ele>200.3</ele>
        <time>2020-11-15T08:15:00Z</time>
      </trkpt>
      <trkpt lat="46.73162" lon="-0.72197">
        <ele>200.3</ele>
        <time>2020-11-15T08:15:01Z</time>
      </trkpt>
      <trkpt lat="46.73155" lon="-0.72197">
        <ele>200.1</ele>
        <time>2020-11-15T08:15:03Z</time>
      </trkpt>
      <trkpt lat="46.73146" lon="-0.72198">
        <ele>200</ele>
        <time>2020-11-15T08:15:05Z</time>
      </trkpt>
      <trkpt lat="46.73142" lon="-0.72199">
        <ele>199.9</ele>
        <time>2020-11-15T08:15:06Z</time>
      </trkpt>
      <trkpt lat="46.73138" lon="-0.722">
        <ele>199.8</ele>
        <time>2020-11-15T08:15:07Z</time>
      </trkpt>
      <trkpt lat="46.73131" lon="-0.72204">
        <ele>199.6</ele>
        <time>2020-11-15T08:15:09Z</time>
      </trkpt>
      <trkpt lat="46.73124" lon="-0.72211">
        <ele>199.5</ele>
        <time>2020-11-15T08:15:11Z</time>
      </trkpt>
      <trkpt lat="46.73118" lon="-0.7222">
        <ele>199.3</ele>
        <time>2020-11-15T08:15:13Z</time>
      </trkpt>
      <trkpt lat="46.73114" lon="-0.72225">
        <ele>199.2</ele>
        <time>2020-11-15T08:15:14Z</time>
      </trkpt>
      <trkpt lat="46.73111" lon="-0.7223">
        <ele>199.1</ele>
        <time>2020-11-15T08:15:15Z</time>
      </trkpt>
      <trkpt lat="46.73106" lon="-0.72241">
        <ele>199</ele>
        <time>2020-11-15T08:15:17Z</time>
      </trkpt>
      <trkpt lat="46.73102" lon="-0.72253">
        <ele>198.8</ele>
        <time>2020-11-15T08:15:19Z</time>
      </trkpt>
      <trkpt lat="46.731" lon="-0.72259">
        <ele>198.7</ele>
        <time>2020-11-15T08:15:20Z</time>
      </trkpt>
      <trkpt lat="46.73099" lon="-0.72265">
        <ele>198.6</ele>
        <time>2020-11-15T08:15:21Z</time>
      </trkpt>
      <trkpt lat="46.73097" lon="-0.72278">
        <ele>198.4</ele>
        <time>2020-11-15T08:15:23Z</time>
      </trkpt>
      <trkpt lat="46.73096" lon="-0.72284">
        <ele>198.3</ele>
        <time>2020-11-15T08:15:24Z</time>
      </trkpt>
      <trkpt lat="46.73095" lon="-0.72291">
        <ele>198.3</ele>
        <time>2020-11-15T08:15:25Z</time>
      </trkpt>
      <trkpt lat="46.73095" lon="-0.72297">
        <ele>198.2</ele>
        <time>2020-11-15T08:15:26Z</time>
      </trkpt>
      <trkpt lat="46.73096" lon="-0.72304">
        <ele>198.1</ele>
        <time>2020-11-15T08:15:27Z</time>
      </trkpt>
      <trkpt lat="46.73098" lon="-0.7231">
        <ele>198</ele>
        <time>2020-11-15T08:15:28Z</time>
      </trkpt>
      <trkpt lat="46.731" lon="-0.72316">
        <ele>197.9</ele>
        <time>2020-11-15T08:15:29Z</time>
      </trkpt>
      <trkpt lat="46.73104" lon="-0.72327">
        <ele>197.8</ele>
        <time>2020-11-15T08:15:31Z</time>
      </trkpt>
      <trkpt lat="46.73109" lon="-0.72337">
        <ele>197.6</ele>
        <time>2020-11-15T08:15:33Z</time>
      </trkpt>
      <trkpt lat="46.73111" lon="-0.72343">
        <ele>197.5</ele>
        <time>2020-11-15T08:15:34Z</time>
      </trkpt>
      <trkpt lat="46.73112" lon="-0.72349">
        <ele>197.4</ele>
        <time>2020-11-15T08:15:35Z</time>
      </trkpt>
      <trkpt lat="46.7311" lon="-0.72361">
        <ele>197.3</ele>
        <time>2020-11-15T08:15:37Z</time>
      </trkpt>
      <trkpt lat="46.73102" lon="-0.72371">
        <ele>197.1</ele>
        <time>2020-11-15T08:15:39Z</time>
      </trkpt>
      <trkpt lat="46.73095" lon="-0.72379">
        <ele>196.9</ele>
        <time>2020-11-15T08:15:41Z</time>
      </trkpt>
      <trkpt lat="46.73087" lon="-0.72386">
        <ele>196.7</ele>
        <time>2020-11-15T08:15:43Z</time>
      </trkpt>
      <trkpt lat="46.73079" lon="-0.72394">
        <ele>196.5</ele>
        <time>2020-11-15T08:15:45Z</time>
      </trkpt>
      <trkpt lat="46.73072" lon="-0.72401">
        <ele>196.4</ele>
        <time>2020-11-15T08:15:47Z</time>
      </trkpt>
      <trkpt lat="46.73064" lon="-0.72409">
        <ele>196.2</ele>
        <time>2020-11-15T08:15:49Z</time>
      </trkpt>
      <trkpt lat="46.73057" lon="-0.72415">
        <ele>196</ele>
        <time>2020-11-15T08:15:51Z</time>
      </trkpt>
      <trkpt lat="46.7305" lon="-0.72422">
        <ele>195.8</ele>
        <time>2020-11-15T08:15:53Z</time>
      </trkpt>
      <trkpt lat="46.73047" lon="-0.72426">
        <ele>195.8</ele>
        <time>2020-11-15T08:15:54Z</time>
      </trkpt>
      <trkpt lat="46.73043" lon="-0.72429">
        <ele>195.7</ele>
        <time>2020-11-15T08:15:55Z</time>
      </trkpt>
      <trkpt lat="46.73036" lon="-0.72436">
        <ele>195.5</ele>
        <time>2020-11-15T08:15:57Z</time>
      </trkpt>
      <trkpt lat="46.73029" lon="-0.72443">
        <ele>195.4</ele>
        <time>2020-11-15T08:15:59Z</time>
      </trkpt>
      <trkpt lat="46.73023" lon="-0.72447">
        <ele>195.2</ele>
        <time>2020-11-15T08:16:01Z</time>
      </trkpt>
      <trkpt lat="46.7302" lon="-0.72449">
        <ele>195.1</ele>
        <time>2020-11-15T08:16:02Z</time>
      </trkpt>
      <trkpt lat="46.73017" lon="-0.72451">
        <ele>195</ele>
        <time>2020-11-15T08:16:03Z</time>
      </trkpt>
      <trkpt lat="46.73011" lon="-0.72455">
        <ele>194.9</ele>
        <time>2020-11-15T08:16:05Z</time>
      </trkpt>
      <trkpt lat="46.73005" lon="-0.72459">
        <ele>194.7</ele>
        <time>2020-11-15T08:16:07Z</time>
      </trkpt>
      <trkpt lat="46.73001" lon="-0.72461">
        <ele>194.6</ele>
        <time>2020-11-15T08:16:08Z</time>
      </trkpt>
      <trkpt lat="46.72997" lon="-0.72462">
        <ele>194.5</ele>
        <time>2020-11-15T08:16:09Z</time>
      </trkpt>
      <trkpt lat="46.72991" lon="-0.72466">
        <ele>194.3</ele>
        <time>2020-11-15T08:16:11Z</time>
      </trkpt>
      <trkpt lat="46.72983" lon="-0.72467">
        <ele>194.1</ele>
        <time>2020-11-15T08:16:13Z</time>
      </trkpt>
      <trkpt lat="46.72978" lon="-0.7246">
        <ele>194</ele>
        <time>2020-11-15T08:16:15Z</time>
      </trkpt>
      <trkpt lat="46.72977" lon="-0.72456">
        <ele>193.9</ele>
        <time>2020-11-15T08:16:16Z</time>
      </trkpt>
      <trkpt lat="46.72976" lon="-0.72452">
        <ele>194</ele>
        <time>2020-11-15T08:16:17Z</time>
      </trkpt>
      <trkpt lat="46.72973" lon="-0.72443">
        <ele>194</ele>
        <time>2020-11-15T08:16:19Z</time>
      </trkpt>
      <trkpt lat="46.7297" lon="-0.72433">
        <ele>194</ele>
        <time>2020-11-15T08:16:21Z</time>
      </trkpt>
      <trkpt lat="46.72968" lon="-0.72423">
        <ele>194.1</ele>
        <time>2020-11-15T08:16:23Z</time>
      </trkpt>
      <trkpt lat="46.72966" lon="-0.72413">
        <ele>194.3</ele>
        <time>2020-11-15T08:16:25Z</time>
      </trkpt>
      <trkpt lat="46.72965" lon="-0.72408">
        <ele>194.3</ele>
        <time>2020-11-15T08:16:26Z</time>
      </trkpt>
      <trkpt lat="46.72964" lon="-0.72402">
        <ele>194.4</ele>
        <time>2020-11-15T08:16:27Z</time>
      </trkpt>
      <trkpt lat="46.72963" lon="-0.7239">
        <ele>194.6</ele>
        <time>2020-11-15T08:16:29Z</time>
      </trkpt>
      <trkpt lat="46.72962" lon="-0.72378">
        <ele>194.8</ele>
        <time>2020-11-15T08:16:31Z</time>
      </trkpt>
      <trkpt lat="46.72962" lon="-0.72372">
        <ele>194.9</ele>
        <time>2020-11-15T08:16:32Z</time>
      </trkpt>
      <trkpt lat="46.72961" lon="-0.72367">
        <ele>195</ele>
        <time>2020-11-15T08:16:33Z</time>
      </trkpt>
      <trkpt lat="46.7296" lon="-0.72356">
        <ele>195.2</ele>
        <time>2020-11-15T08:16:35Z</time>
      </trkpt>
      <trkpt lat="46.72959" lon="-0.72344">
        <ele>195.3</ele>
        <time>2020-11-15T08:16:37Z</time>
      </trkpt>
      <trkpt lat="46.72959" lon="-0.72339">
        <ele>195.3</ele>
        <time>2020-11-15T08:16:38Z</time>
      </trkpt>
      <trkpt lat="46.72958" lon="-0.72334">
        <ele>195.4</ele>
        <time>2020-11-15T08:16:39Z</time>
      </trkpt>
      <trkpt lat="46.72956" lon="-0.72323">
        <ele>195.3</ele>
        <time>2020-11-15T08:16:41Z</time>
      </trkpt>
      <trkpt lat="46.72955" lon="-0.72313">
        <ele>195.3</ele>
        <time>2020-11-15T08:16:43Z</time>
      </trkpt>
      <trkpt lat="46.72953" lon="-0.72304">
        <ele>195.1</ele>
        <time>2020-11-15T08:16:45Z</time>
      </trkpt>
      <trkpt lat="46.72952" lon="-0.72294">
        <ele>195</ele>
        <time>2020-11-15T08:16:47Z</time>
      </trkpt>
      <trkpt lat="46.72949" lon="-0.72283">
        <ele>194.8</ele>
        <time>2020-11-15T08:16:49Z</time>
      </trkpt>
      <trkpt lat="46.72946" lon="-0.72273">
        <ele>194.4</ele>
        <time>2020-11-15T08:16:51Z</time>
      </trkpt>
      <trkpt lat="46.72943" lon="-0.72262">
        <ele>194.2</ele>
        <time>2020-11-15T08:16:53Z</time>
      </trkpt>
      <trkpt lat="46.72939" lon="-0.72254">
        <ele>194.1</ele>
        <time>2020-11-15T08:16:55Z</time>
      </trkpt>
      <trkpt lat="46.72936" lon="-0.72252">
        <ele>194</ele>
        <time>2020-11-15T08:16:56Z</time>
      </trkpt>
      <trkpt lat="46.72932" lon="-0.72251">
        <ele>193.9</ele>
        <time>2020-11-15T08:16:57Z</time>
      </trkpt>
      <trkpt lat="46.72928" lon="-0.7225">
        <ele>193.9</ele>
        <time>2020-11-15T08:16:58Z</time>
      </trkpt>
      <trkpt lat="46.72924" lon="-0.7225">
        <ele>193.8</ele>
        <time>2020-11-15T08:16:59Z</time>
      </trkpt>
      <trkpt lat="46.72915" lon="-0.72249">
        <ele>193.7</ele>
        <time>2020-11-15T08:17:01Z</time>
      </trkpt>
      <trkpt lat="46.72906" lon="-0.72248">
        <ele>193.6</ele>
        <time>2020-11-15T08:17:03Z</time>
      </trkpt>
      <trkpt lat="46.72896" lon="-0.72248">
        <ele>193.5</ele>
        <time>2020-11-15T08:17:05Z</time>
      </trkpt>
      <trkpt lat="46.72886" lon="-0.72248">
        <ele>193.4</ele>
        <time>2020-11-15T08:17:07Z</time>
      </trkpt>
      <trkpt lat="46.72877" lon="-0.72247">
        <ele>193.4</ele>
        <time>2020-11-15T08:17:09Z</time>
      </trkpt>
      <trkpt lat="46.72868" lon="-0.72246">
        <ele>193.3</ele>
        <time>2020-11-15T08:17:11Z</time>
      </trkpt>
      <trkpt lat="46.72859" lon="-0.72245">
        <ele>193.3</ele>
        <time>2020-11-15T08:17:13Z</time>
      </trkpt>
      <trkpt lat="46.7285" lon="-0.72244">
        <ele>193.2</ele>
        <time>2020-11-15T08:17:15Z</time>
      </trkpt>
      <trkpt lat="46.72842" lon="-0.72243">
        <ele>193.3</ele>
        <time>2020-11-15T08:17:17Z</time>
      </trkpt>
      <trkpt lat="46.72834" lon="-0.72243">
        <ele>193.2</ele>
        <time>2020-11-15T08:17:19Z</time>
      </trkpt>
      <trkpt lat="46.72825" lon="-0.72243">
        <ele>193.2</ele>
        <time>2020-11-15T08:17:21Z</time>
      </trkpt>
      <trkpt lat="46.72817" lon="-0.72242">
        <ele>193.2</ele>
        <time>2020-11-15T08:17:23Z</time>
      </trkpt>
      <trkpt lat="46.72814" lon="-0.72241">
        <ele>193.2</ele>
        <time>2020-11-15T08:17:24Z</time>
      </trkpt>
      <trkpt lat="46.72811" lon="-0.7224">
        <ele>193.2</ele>
        <time>2020-11-15T08:17:25Z</time>
      </trkpt>
      <trkpt lat="46.72808" lon="-0.72241">
        <ele>193.2</ele>
        <time>2020-11-15T08:17:26Z</time>
      </trkpt>
      <trkpt lat="46.72805" lon="-0.72242">
        <ele>193.2</ele>
        <time>2020-11-15T08:17:27Z</time>
      </trkpt>
      <trkpt lat="46.72803" lon="-0.72245">
        <ele>193.1</ele>
        <time>2020-11-15T08:17:28Z</time>
      </trkpt>
      <trkpt lat="46.72804" lon="-0.72248">
        <ele>193</ele>
        <time>2020-11-15T08:17:29Z</time>
      </trkpt>
      <trkpt lat="46.72807" lon="-0.72256">
        <ele>192.9</ele>
        <time>2020-11-15T08:17:31Z</time>
      </trkpt>
      <trkpt lat="46.72811" lon="-0.72265">
        <ele>192.7</ele>
        <time>2020-11-15T08:17:33Z</time>
      </trkpt>
      <trkpt lat="46.72816" lon="-0.72274">
        <ele>192.5</ele>
        <time>2020-11-15T08:17:35Z</time>
      </trkpt>
      <trkpt lat="46.72819" lon="-0.72283">
        <ele>192.3</ele>
        <time>2020-11-15T08:17:37Z</time>
      </trkpt>
      <trkpt lat="46.72821" lon="-0.72288">
        <ele>192.2</ele>
        <time>2020-11-15T08:17:38Z</time>
      </trkpt>
      <trkpt lat="46.72822" lon="-0.72292">
        <ele>192.2</ele>
        <time>2020-11-15T08:17:39Z</time>
      </trkpt>
      <trkpt lat="46.72824" lon="-0.72303">
        <ele>192</ele>
        <time>2020-11-15T08:17:41Z</time>
      </trkpt>
      <trkpt lat="46.72824" lon="-0.72314">
        <ele>191.7</ele>
        <time>2020-11-15T08:17:43Z</time>
      </trkpt>
      <trkpt lat="46.72823" lon="-0.72324">
        <ele>191.6</ele>
        <time>2020-11-15T08:17:45Z</time>
      </trkpt>
      <trkpt lat="46.72823" lon="-0.72333">
        <ele>191.5</ele>
        <time>2020-11-15T08:17:47Z</time>
      </trkpt>
      <trkpt lat="46.72823" lon="-0.72342">
        <ele>191.3</ele>
        <time>2020-11-15T08:17:49Z</time>
      </trkpt>
      <trkpt lat="46.72822" lon="-0.72351">
        <ele>191.2</ele>
        <time>2020-11-15T08:17:51Z</time>
      </trkpt>
      <trkpt lat="46.7282" lon="-0.7236">
        <ele>190.9</ele>
        <time>2020-11-15T08:17:53Z</time>
      </trkpt>
      <trkpt lat="46.72819" lon="-0.72365">
        <ele>190.9</ele>
        <time>2020-11-15T08:17:54Z</time>
      </trkpt>
      <trkpt lat="46.72819" lon="-0.72369">
        <ele>190.8</ele>
        <time>2020-11-15T08:17:55Z</time>
      </trkpt>
      <trkpt lat="46.72817" lon="-0.72379">
        <ele>190.7</ele>
        <time>2020-11-15T08:17:57Z</time>
      </trkpt>
      <trkpt lat="46.72815" lon="-0.72389">
        <ele>190.6</ele>
        <time>2020-11-15T08:17:59Z</time>
      </trkpt>
      <trkpt lat="46.72815" lon="-0.72398">
        <ele>190.4</ele>
        <time>2020-11-15T08:18:01Z</time>
      </trkpt>
      <trkpt lat="46.72816" lon="-0.72409">
        <ele>190.3</ele>
        <time>2020-11-15T08:18:03Z</time>
      </trkpt>
      <trkpt lat="46.72816" lon="-0.72421">
        <ele>190.1</ele>
        <time>2020-11-15T08:18:05Z</time>
      </trkpt>
      <trkpt lat="46.72816" lon="-0.7243">
        <ele>190</ele>
        <time>2020-11-15T08:18:07Z</time>
      </trkpt>
      <trkpt lat="46.72816" lon="-0.72435">
        <ele>190</ele>
        <time>2020-11-15T08:18:08Z</time>
      </trkpt>
      <trkpt lat="46.72816" lon="-0.7244">
        <ele>189.9</ele>
        <time>2020-11-15T08:18:09Z</time>
      </trkpt>
      <trkpt lat="46.72816" lon="-0.7245">
        <ele>189.8</ele>
        <time>2020-11-15T08:18:11Z</time>
      </trkpt>
      <trkpt lat="46.72815" lon="-0.72455">
        <ele>189.7</ele>
        <time>2020-11-15T08:18:12Z</time>
      </trkpt>
      <trkpt lat="46.72814" lon="-0.72459">
        <ele>189.6</ele>
        <time>2020-11-15T08:18:13Z</time>
      </trkpt>
      <trkpt lat="46.72813" lon="-0.72467">
        <ele>189.6</ele>
        <time>2020-11-15T08:18:15Z</time>
      </trkpt>
      <trkpt lat="46.72812" lon="-0.72476">
        <ele>189.5</ele>
        <time>2020-11-15T08:18:17Z</time>
      </trkpt>
      <trkpt lat="46.72812" lon="-0.7248">
        <ele>189.4</ele>
        <time>2020-11-15T08:18:18Z</time>
      </trkpt>
      <trkpt lat="46.72811" lon="-0.72486">
        <ele>189.4</ele>
        <time>2020-11-15T08:18:19Z</time>
      </trkpt>
      <trkpt lat="46.72809" lon="-0.72497">
        <ele>189.3</ele>
        <time>2020-11-15T08:18:21Z</time>
      </trkpt>
      <trkpt lat="46.72809" lon="-0.7251">
        <ele>189.3</ele>
        <time>2020-11-15T08:18:23Z</time>
      </trkpt>
      <trkpt lat="46.72808" lon="-0.72515">
        <ele>189.3</ele>
        <time>2020-11-15T08:18:24Z</time>
      </trkpt>
      <trkpt lat="46.72807" lon="-0.7252">
        <ele>189.3</ele>
        <time>2020-11-15T08:18:25Z</time>
      </trkpt>
      <trkpt lat="46.72807" lon="-0.72529">
        <ele>189.3</ele>
        <time>2020-11-15T08:18:27Z</time>
      </trkpt>
      <trkpt lat="46.72806" lon="-0.72537">
        <ele>189.3</ele>
        <time>2020-11-15T08:18:29Z</time>
      </trkpt>
      <trkpt lat="46.72805" lon="-0.72545">
        <ele>189.3</ele>
        <time>2020-11-15T08:18:31Z</time>
      </trkpt>
      <trkpt lat="46.72805" lon="-0.7255">
        <ele>189.3</ele>
        <time>2020-11-15T08:18:33Z</time>
      </trkpt>
      <trkpt lat="46.72805" lon="-0.72552">
        <ele>189.3</ele>
        <time>2020-11-15T08:18:34Z</time>
      </trkpt>
      <trkpt lat="46.72805" lon="-0.72553">
        <ele>189.3</ele>
        <time>2020-11-15T08:18:35Z</time>
      </trkpt>
      <trkpt lat="46.72805" lon="-0.72554">
        <ele>189.3</ele>
        <time>2020-11-15T08:18:37Z</time>
      </trkpt>
      <trkpt lat="46.72806" lon="-0.72559">
        <ele>189.3</ele>
        <time>2020-11-15T08:18:41Z</time>
      </trkpt>
      <trkpt lat="46.72805" lon="-0.72564">
        <ele>189.3</ele>
        <time>2020-11-15T08:18:43Z</time>
      </trkpt>
      <trkpt lat="46.72803" lon="-0.72569">
        <ele>189.3</ele>
        <time>2020-11-15T08:18:45Z</time>
      </trkpt>
      <trkpt lat="46.72802" lon="-0.72572">
        <ele>189.3</ele>
        <time>2020-11-15T08:18:46Z</time>
      </trkpt>
      <trkpt lat="46.728" lon="-0.72576">
        <ele>189.3</ele>
        <time>2020-11-15T08:18:47Z</time>
      </trkpt>
      <trkpt lat="46.72797" lon="-0.72582">
        <ele>189.3</ele>
        <time>2020-11-15T08:18:49Z</time>
      </trkpt>
      <trkpt lat="46.72793" lon="-0.72589">
        <ele>189.2</ele>
        <time>2020-11-15T08:18:51Z</time>
      </trkpt>
      <trkpt lat="46.72791" lon="-0.72594">
        <ele>189.2</ele>
        <time>2020-11-15T08:18:53Z</time>
      </trkpt>
      <trkpt lat="46.72787" lon="-0.72598">
        <ele>189.2</ele>
        <time>2020-11-15T08:18:55Z</time>
      </trkpt>
      <trkpt lat="46.72786" lon="-0.72601">
        <ele>189.2</ele>
        <time>2020-11-15T08:18:56Z</time>
      </trkpt>
      <trkpt lat="46.72785" lon="-0.72604">
        <ele>189.1</ele>
        <time>2020-11-15T08:18:57Z</time>
      </trkpt>
      <trkpt lat="46.72783" lon="-0.72607">
        <ele>189.1</ele>
        <time>2020-11-15T08:18:58Z</time>
      </trkpt>
      <trkpt lat="46.72782" lon="-0.7261">
        <ele>189.1</ele>
        <time>2020-11-15T08:18:59Z</time>
      </trkpt>
      <trkpt lat="46.72779" lon="-0.72615">
        <ele>189</ele>
        <time>2020-11-15T08:19:01Z</time>
      </trkpt>
      <trkpt lat="46.72778" lon="-0.72618">
        <ele>189</ele>
        <time>2020-11-15T08:19:02Z</time>
      </trkpt>
      <trkpt lat="46.72776" lon="-0.72622">
        <ele>189</ele>
        <time>2020-11-15T08:19:03Z</time>
      </trkpt>
      <trkpt lat="46.72773" lon="-0.72629">
        <ele>188.9</ele>
        <time>2020-11-15T08:19:05Z</time>
      </trkpt>
      <trkpt lat="46.7277" lon="-0.72636">
        <ele>188.8</ele>
        <time>2020-11-15T08:19:07Z</time>
      </trkpt>
      <trkpt lat="46.72768" lon="-0.72643">
        <ele>188.7</ele>
        <time>2020-11-15T08:19:09Z</time>
      </trkpt>
      <trkpt lat="46.72765" lon="-0.7265">
        <ele>188.6</ele>
        <time>2020-11-15T08:19:11Z</time>
      </trkpt>
      <trkpt lat="46.72762" lon="-0.72658">
        <ele>188.5</ele>
        <time>2020-11-15T08:19:13Z</time>
      </trkpt>
      <trkpt lat="46.72761" lon="-0.72667">
        <ele>188.4</ele>
        <time>2020-11-15T08:19:15Z</time>
      </trkpt>
      <trkpt lat="46.72758" lon="-0.72676">
        <ele>188.2</ele>
        <time>2020-11-15T08:19:17Z</time>
      </trkpt>
      <trkpt lat="46.72756" lon="-0.72685">
        <ele>188.1</ele>
        <time>2020-11-15T08:19:19Z</time>
      </trkpt>
      <trkpt lat="46.72753" lon="-0.72695">
        <ele>187.8</ele>
        <time>2020-11-15T08:19:21Z</time>
      </trkpt>
      <trkpt lat="46.72752" lon="-0.727">
        <ele>187.7</ele>
        <time>2020-11-15T08:19:22Z</time>
      </trkpt>
      <trkpt lat="46.7275" lon="-0.72705">
        <ele>187.6</ele>
        <time>2020-11-15T08:19:23Z</time>
      </trkpt>
      <trkpt lat="46.72747" lon="-0.72714">
        <ele>187.4</ele>
        <time>2020-11-15T08:19:25Z</time>
      </trkpt>
      <trkpt lat="46.72743" lon="-0.72723">
        <ele>187.3</ele>
        <time>2020-11-15T08:19:27Z</time>
      </trkpt>
      <trkpt lat="46.72741" lon="-0.72728">
        <ele>187.2</ele>
        <time>2020-11-15T08:19:28Z</time>
      </trkpt>
      <trkpt lat="46.72739" lon="-0.72733">
        <ele>187.1</ele>
        <time>2020-11-15T08:19:29Z</time>
      </trkpt>
      <trkpt lat="46.72735" lon="-0.72742">
        <ele>187</ele>
        <time>2020-11-15T08:19:31Z</time>
      </trkpt>
      <trkpt lat="46.72731" lon="-0.72751">
        <ele>186.9</ele>
        <time>2020-11-15T08:19:33Z</time>
      </trkpt>
      <trkpt lat="46.72728" lon="-0.7276">
        <ele>186.9</ele>
        <time>2020-11-15T08:19:35Z</time>
      </trkpt>
      <trkpt lat="46.72721" lon="-0.72769">
        <ele>186.9</ele>
        <time>2020-11-15T08:19:37Z</time>
      </trkpt>
      <trkpt lat="46.72715" lon="-0.72776">
        <ele>186.9</ele>
        <time>2020-11-15T08:19:39Z</time>
      </trkpt>
      <trkpt lat="46.72708" lon="-0.72783">
        <ele>186.9</ele>
        <time>2020-11-15T08:19:41Z</time>
      </trkpt>
      <trkpt lat="46.72702" lon="-0.72789">
        <ele>186.9</ele>
        <time>2020-11-15T08:19:43Z</time>
      </trkpt>
      <trkpt lat="46.72695" lon="-0.72793">
        <ele>186.9</ele>
        <time>2020-11-15T08:19:45Z</time>
      </trkpt>
      <trkpt lat="46.72691" lon="-0.72796">
        <ele>186.9</ele>
        <time>2020-11-15T08:19:46Z</time>
      </trkpt>
      <trkpt lat="46.72687" lon="-0.72799">
        <ele>186.9</ele>
        <time>2020-11-15T08:19:47Z</time>
      </trkpt>
      <trkpt lat="46.7268" lon="-0.72804">
        <ele>186.8</ele>
        <time>2020-11-15T08:19:49Z</time>
      </trkpt>
      <trkpt lat="46.72672" lon="-0.72808">
        <ele>186.8</ele>
        <time>2020-11-15T08:19:51Z</time>
      </trkpt>
      <trkpt lat="46.72663" lon="-0.72811">
        <ele>186.7</ele>
        <time>2020-11-15T08:19:53Z</time>
      </trkpt>
      <trkpt lat="46.72656" lon="-0.72815">
        <ele>186.6</ele>
        <time>2020-11-15T08:19:55Z</time>
      </trkpt>
      <trkpt lat="46.72649" lon="-0.7282">
        <ele>186.6</ele>
        <time>2020-11-15T08:19:57Z</time>
      </trkpt>
      <trkpt lat="46.72642" lon="-0.72826">
        <ele>186.6</ele>
        <time>2020-11-15T08:19:59Z</time>
      </trkpt>
      <trkpt lat="46.72639" lon="-0.72829">
        <ele>186.6</ele>
        <time>2020-11-15T08:20:00Z</time>
      </trkpt>
      <trkpt lat="46.72636" lon="-0.72832">
        <ele>186.6</ele>
        <time>2020-11-15T08:20:01Z</time>
      </trkpt>
      <trkpt lat="46.7263" lon="-0.72839">
        <ele>186.5</ele>
        <time>2020-11-15T08:20:03Z</time>
      </trkpt>
      <trkpt lat="46.72624" lon="-0.72843">
        <ele>186.5</ele>
        <time>2020-11-15T08:20:05Z</time>
      </trkpt>
      <trkpt lat="46.72616" lon="-0.72845">
        <ele>186.5</ele>
        <time>2020-11-15T08:20:07Z</time>
      </trkpt>
      <trkpt lat="46.72608" lon="-0.72842">
        <ele>186.6</ele>
        <time>2020-11-15T08:20:09Z</time>
      </trkpt>
      <trkpt lat="46.72602" lon="-0.72833">
        <ele>186.8</ele>
        <time>2020-11-15T08:20:11Z</time>
      </trkpt>
      <trkpt lat="46.72597" lon="-0.72822">
        <ele>187.2</ele>
        <time>2020-11-15T08:20:13Z</time>
      </trkpt>
      <trkpt lat="46.72595" lon="-0.72816">
        <ele>187.5</ele>
        <time>2020-11-15T08:20:14Z</time>
      </trkpt>
      <trkpt lat="46.72592" lon="-0.7281">
        <ele>187.7</ele>
        <time>2020-11-15T08:20:15Z</time>
      </trkpt>
      <trkpt lat="46.72586" lon="-0.72799">
        <ele>188.1</ele>
        <time>2020-11-15T08:20:17Z</time>
      </trkpt>
      <trkpt lat="46.72581" lon="-0.72788">
        <ele>188.5</ele>
        <time>2020-11-15T08:20:19Z</time>
      </trkpt>
      <trkpt lat="46.72578" lon="-0.72783">
        <ele>188.7</ele>
        <time>2020-11-15T08:20:20Z</time>
      </trkpt>
      <trkpt lat="46.72576" lon="-0.72778">
        <ele>188.9</ele>
        <time>2020-11-15T08:20:21Z</time>
      </trkpt>
      <trkpt lat="46.7257" lon="-0.72769">
        <ele>189.2</ele>
        <time>2020-11-15T08:20:23Z</time>
      </trkpt>
      <trkpt lat="46.72565" lon="-0.72761">
        <ele>189.4</ele>
        <time>2020-11-15T08:20:25Z</time>
      </trkpt>
      <trkpt lat="46.72558" lon="-0.72754">
        <ele>189.6</ele>
        <time>2020-11-15T08:20:27Z</time>
      </trkpt>
      <trkpt lat="46.72551" lon="-0.72746">
        <ele>189.8</ele>
        <time>2020-11-15T08:20:29Z</time>
      </trkpt>
      <trkpt lat="46.72543" lon="-0.72739">
        <ele>189.8</ele>
        <time>2020-11-15T08:20:31Z</time>
      </trkpt>
      <trkpt lat="46.72535" lon="-0.72731">
        <ele>189.8</ele>
        <time>2020-11-15T08:20:33Z</time>
      </trkpt>
      <trkpt lat="46.72527" lon="-0.72723">
        <ele>189.8</ele>
        <time>2020-11-15T08:20:35Z</time>
      </trkpt>
      <trkpt lat="46.72523" lon="-0.7272">
        <ele>189.8</ele>
        <time>2020-11-15T08:20:36Z</time>
      </trkpt>
      <trkpt lat="46.7252" lon="-0.72715">
        <ele>189.8</ele>
        <time>2020-11-15T08:20:37Z</time>
      </trkpt>
      <trkpt lat="46.72513" lon="-0.72706">
        <ele>189.8</ele>
        <time>2020-11-15T08:20:39Z</time>
      </trkpt>
      <trkpt lat="46.72507" lon="-0.72696">
        <ele>189.8</ele>
        <time>2020-11-15T08:20:41Z</time>
      </trkpt>
      <trkpt lat="46.72501" lon="-0.72686">
        <ele>189.8</ele>
        <time>2020-11-15T08:20:43Z</time>
      </trkpt>
      <trkpt lat="46.72498" lon="-0.7268">
        <ele>189.8</ele>
        <time>2020-11-15T08:20:44Z</time>
      </trkpt>
      <trkpt lat="46.72496" lon="-0.72675">
        <ele>189.9</ele>
        <time>2020-11-15T08:20:45Z</time>
      </trkpt>
      <trkpt lat="46.72491" lon="-0.72663">
        <ele>190</ele>
        <time>2020-11-15T08:20:47Z</time>
      </trkpt>
      <trkpt lat="46.72487" lon="-0.72652">
        <ele>190.1</ele>
        <time>2020-11-15T08:20:49Z</time>
      </trkpt>
      <trkpt lat="46.72482" lon="-0.72641">
        <ele>190.2</ele>
        <time>2020-11-15T08:20:51Z</time>
      </trkpt>
      <trkpt lat="46.72477" lon="-0.7263">
        <ele>190.3</ele>
        <time>2020-11-15T08:20:53Z</time>
      </trkpt>
      <trkpt lat="46.72472" lon="-0.72617">
        <ele>190.4</ele>
        <time>2020-11-15T08:20:55Z</time>
      </trkpt>
      <trkpt lat="46.72468" lon="-0.72605">
        <ele>190.6</ele>
        <time>2020-11-15T08:20:57Z</time>
      </trkpt>
      <trkpt lat="46.72466" lon="-0.726">
        <ele>190.7</ele>
        <time>2020-11-15T08:20:58Z</time>
      </trkpt>
      <trkpt lat="46.72463" lon="-0.72594">
        <ele>190.9</ele>
        <time>2020-11-15T08:20:59Z</time>
      </trkpt>
      <trkpt lat="46.72458" lon="-0.72584">
        <ele>191.1</ele>
        <time>2020-11-15T08:21:01Z</time>
      </trkpt>
      <trkpt lat="46.72453" lon="-0.72574">
        <ele>191.4</ele>
        <time>2020-11-15T08:21:03Z</time>
      </trkpt>
      <trkpt lat="46.72449" lon="-0.72563">
        <ele>191.6</ele>
        <time>2020-11-15T08:21:05Z</time>
      </trkpt>
      <trkpt lat="46.72446" lon="-0.72558">
        <ele>191.8</ele>
        <time>2020-11-15T08:21:06Z</time>
      </trkpt>
      <trkpt lat="46.72443" lon="-0.72553">
        <ele>191.9</ele>
        <time>2020-11-15T08:21:07Z</time>
      </trkpt>
      <trkpt lat="46.72438" lon="-0.72544">
        <ele>192.2</ele>
        <time>2020-11-15T08:21:09Z</time>
      </trkpt>
      <trkpt lat="46.72432" lon="-0.72536">
        <ele>192.5</ele>
        <time>2020-11-15T08:21:11Z</time>
      </trkpt>
      <trkpt lat="46.72429" lon="-0.72532">
        <ele>192.6</ele>
        <time>2020-11-15T08:21:12Z</time>
      </trkpt>
      <trkpt lat="46.72427" lon="-0.72528">
        <ele>192.8</ele>
        <time>2020-11-15T08:21:13Z</time>
      </trkpt>
      <trkpt lat="46.72421" lon="-0.7252">
        <ele>193.1</ele>
        <time>2020-11-15T08:21:15Z</time>
      </trkpt>
      <trkpt lat="46.72417" lon="-0.72511">
        <ele>193.4</ele>
        <time>2020-11-15T08:21:17Z</time>
      </trkpt>
      <trkpt lat="46.72413" lon="-0.72501">
        <ele>193.8</ele>
        <time>2020-11-15T08:21:19Z</time>
      </trkpt>
      <trkpt lat="46.72411" lon="-0.72491">
        <ele>194.1</ele>
        <time>2020-11-15T08:21:21Z</time>
      </trkpt>
      <trkpt lat="46.72409" lon="-0.72481">
        <ele>194.4</ele>
        <time>2020-11-15T08:21:23Z</time>
      </trkpt>
      <trkpt lat="46.72408" lon="-0.72478">
        <ele>194.5</ele>
        <time>2020-11-15T08:21:24Z</time>
      </trkpt>
      <trkpt lat="46.72406" lon="-0.72477">
        <ele>194.5</ele>
        <time>2020-11-15T08:21:25Z</time>
      </trkpt>
      <trkpt lat="46.72401" lon="-0.7248">
        <ele>194.5</ele>
        <time>2020-11-15T08:21:27Z</time>
      </trkpt>
      <trkpt lat="46.72395" lon="-0.72484">
        <ele>194.3</ele>
        <time>2020-11-15T08:21:29Z</time>
      </trkpt>
      <trkpt lat="46.72389" lon="-0.72486">
        <ele>194.2</ele>
        <time>2020-11-15T08:21:31Z</time>
      </trkpt>
      <trkpt lat="46.72383" lon="-0.72489">
        <ele>194.1</ele>
        <time>2020-11-15T08:21:33Z</time>
      </trkpt>
      <trkpt lat="46.72376" lon="-0.72494">
        <ele>194.1</ele>
        <time>2020-11-15T08:21:35Z</time>
      </trkpt>
      <trkpt lat="46.72373" lon="-0.72495">
        <ele>194.1</ele>
        <time>2020-11-15T08:21:36Z</time>
      </trkpt>
      <trkpt lat="46.7237" lon="-0.72497">
        <ele>194.2</ele>
        <time>2020-11-15T08:21:37Z</time>
      </trkpt>
      <trkpt lat="46.72365" lon="-0.725">
        <ele>194.1</ele>
        <time>2020-11-15T08:21:39Z</time>
      </trkpt>
      <trkpt lat="46.72357" lon="-0.72503">
        <ele>194</ele>
        <time>2020-11-15T08:21:41Z</time>
      </trkpt>
      <trkpt lat="46.72352" lon="-0.72507">
        <ele>194</ele>
        <time>2020-11-15T08:21:43Z</time>
      </trkpt>
      <trkpt lat="46.72349" lon="-0.72509">
        <ele>194</ele>
        <time>2020-11-15T08:21:44Z</time>
      </trkpt>
      <trkpt lat="46.72346" lon="-0.72511">
        <ele>193.8</ele>
        <time>2020-11-15T08:21:45Z</time>
      </trkpt>
      <trkpt lat="46.72339" lon="-0.72513">
        <ele>193.9</ele>
        <time>2020-11-15T08:21:47Z</time>
      </trkpt>
      <trkpt lat="46.72335" lon="-0.72515">
        <ele>193.8</ele>
        <time>2020-11-15T08:21:48Z</time>
      </trkpt>
      <trkpt lat="46.72331" lon="-0.72517">
        <ele>193.8</ele>
        <time>2020-11-15T08:21:49Z</time>
      </trkpt>
      <trkpt lat="46.72325" lon="-0.7252">
        <ele>193.7</ele>
        <time>2020-11-15T08:21:51Z</time>
      </trkpt>
      <trkpt lat="46.7232" lon="-0.72524">
        <ele>193.5</ele>
        <time>2020-11-15T08:21:53Z</time>
      </trkpt>
      <trkpt lat="46.72312" lon="-0.72528">
        <ele>193.3</ele>
        <time>2020-11-15T08:21:55Z</time>
      </trkpt>
      <trkpt lat="46.72305" lon="-0.72532">
        <ele>193.1</ele>
        <time>2020-11-15T08:21:57Z</time>
      </trkpt>
      <trkpt lat="46.72298" lon="-0.72535">
        <ele>192.9</ele>
        <time>2020-11-15T08:21:59Z</time>
      </trkpt>
      <trkpt lat="46.72291" lon="-0.72537">
        <ele>192.7</ele>
        <time>2020-11-15T08:22:01Z</time>
      </trkpt>
      <trkpt lat="46.72283" lon="-0.72541">
        <ele>192.4</ele>
        <time>2020-11-15T08:22:03Z</time>
      </trkpt>
      <trkpt lat="46.72278" lon="-0.72543">
        <ele>192.4</ele>
        <time>2020-11-15T08:22:04Z</time>
      </trkpt>
      <trkpt lat="46.72273" lon="-0.72546">
        <ele>192.1</ele>
        <time>2020-11-15T08:22:05Z</time>
      </trkpt>
      <trkpt lat="46.72264" lon="-0.72551">
        <ele>191.8</ele>
        <time>2020-11-15T08:22:07Z</time>
      </trkpt>
      <trkpt lat="46.72255" lon="-0.72557">
        <ele>191.4</ele>
        <time>2020-11-15T08:22:09Z</time>
      </trkpt>
      <trkpt lat="46.72249" lon="-0.7256">
        <ele>190.9</ele>
        <time>2020-11-15T08:22:10Z</time>
      </trkpt>
      <trkpt lat="46.72244" lon="-0.72564">
        <ele>190.5</ele>
        <time>2020-11-15T08:22:11Z</time>
      </trkpt>
      <trkpt lat="46.72232" lon="-0.72571">
        <ele>189.4</ele>
        <time>2020-11-15T08:22:13Z</time>
      </trkpt>
      <trkpt lat="46.72222" lon="-0.72578">
        <ele>188.8</ele>
        <time>2020-11-15T08:22:15Z</time>
      </trkpt>
      <trkpt lat="46.72211" lon="-0.72585">
        <ele>188</ele>
        <time>2020-11-15T08:22:17Z</time>
      </trkpt>
      <trkpt lat="46.722" lon="-0.72593">
        <ele>187.4</ele>
        <time>2020-11-15T08:22:19Z</time>
      </trkpt>
      <trkpt lat="46.7219" lon="-0.726">
        <ele>187</ele>
        <time>2020-11-15T08:22:21Z</time>
      </trkpt>
      <trkpt lat="46.72181" lon="-0.72606">
        <ele>186.6</ele>
        <time>2020-11-15T08:22:23Z</time>
      </trkpt>
      <trkpt lat="46.72172" lon="-0.72611">
        <ele>186.4</ele>
        <time>2020-11-15T08:22:25Z</time>
      </trkpt>
      <trkpt lat="46.72162" lon="-0.72616">
        <ele>186.1</ele>
        <time>2020-11-15T08:22:27Z</time>
      </trkpt>
      <trkpt lat="46.72153" lon="-0.72621">
        <ele>185.8</ele>
        <time>2020-11-15T08:22:29Z</time>
      </trkpt>
      <trkpt lat="46.72144" lon="-0.72627">
        <ele>185.3</ele>
        <time>2020-11-15T08:22:31Z</time>
      </trkpt>
      <trkpt lat="46.72135" lon="-0.72632">
        <ele>185.1</ele>
        <time>2020-11-15T08:22:33Z</time>
      </trkpt>
      <trkpt lat="46.72131" lon="-0.72635">
        <ele>184.9</ele>
        <time>2020-11-15T08:22:34Z</time>
      </trkpt>
      <trkpt lat="46.72127" lon="-0.72637">
        <ele>184.9</ele>
        <time>2020-11-15T08:22:35Z</time>
      </trkpt>
      <trkpt lat="46.72118" lon="-0.72641">
        <ele>184.7</ele>
        <time>2020-11-15T08:22:37Z</time>
      </trkpt>
      <trkpt lat="46.7211" lon="-0.72646">
        <ele>184.6</ele>
        <time>2020-11-15T08:22:39Z</time>
      </trkpt>
      <trkpt lat="46.72101" lon="-0.72651">
        <ele>184.5</ele>
        <time>2020-11-15T08:22:41Z</time>
      </trkpt>
      <trkpt lat="46.72097" lon="-0.72654">
        <ele>184.5</ele>
        <time>2020-11-15T08:22:42Z</time>
      </trkpt>
      <trkpt lat="46.72093" lon="-0.72657">
        <ele>184.5</ele>
        <time>2020-11-15T08:22:43Z</time>
      </trkpt>
      <trkpt lat="46.72085" lon="-0.72663">
        <ele>184.5</ele>
        <time>2020-11-15T08:22:45Z</time>
      </trkpt>
      <trkpt lat="46.72079" lon="-0.72669">
        <ele>184.4</ele>
        <time>2020-11-15T08:22:47Z</time>
      </trkpt>
      <trkpt lat="46.72074" lon="-0.72676">
        <ele>184.3</ele>
        <time>2020-11-15T08:22:49Z</time>
      </trkpt>
      <trkpt lat="46.72073" lon="-0.72681">
        <ele>184.3</ele>
        <time>2020-11-15T08:22:50Z</time>
      </trkpt>
      <trkpt lat="46.72073" lon="-0.72685">
        <ele>184.2</ele>
        <time>2020-11-15T08:22:51Z</time>
      </trkpt>
      <trkpt lat="46.72074" lon="-0.72692">
        <ele>184.2</ele>
        <time>2020-11-15T08:22:53Z</time>
      </trkpt>
      <trkpt lat="46.72077" lon="-0.727">
        <ele>184.1</ele>
        <time>2020-11-15T08:22:55Z</time>
      </trkpt>
      <trkpt lat="46.72078" lon="-0.72704">
        <ele>184</ele>
        <time>2020-11-15T08:22:56Z</time>
      </trkpt>
      <trkpt lat="46.7208" lon="-0.72708">
        <ele>184</ele>
        <time>2020-11-15T08:22:57Z</time>
      </trkpt>
      <trkpt lat="46.72082" lon="-0.72717">
        <ele>184</ele>
        <time>2020-11-15T08:22:59Z</time>
      </trkpt>
      <trkpt lat="46.72084" lon="-0.72726">
        <ele>183.9</ele>
        <time>2020-11-15T08:23:01Z</time>
      </trkpt>
      <trkpt lat="46.72084" lon="-0.7273">
        <ele>183.9</ele>
        <time>2020-11-15T08:23:02Z</time>
      </trkpt>
      <trkpt lat="46.72085" lon="-0.72735">
        <ele>183.9</ele>
        <time>2020-11-15T08:23:03Z</time>
      </trkpt>
      <trkpt lat="46.72088" lon="-0.72742">
        <ele>183.9</ele>
        <time>2020-11-15T08:23:05Z</time>
      </trkpt>
      <trkpt lat="46.7209" lon="-0.72749">
        <ele>183.9</ele>
        <time>2020-11-15T08:23:07Z</time>
      </trkpt>
      <trkpt lat="46.72092" lon="-0.72753">
        <ele>184</ele>
        <time>2020-11-15T08:23:08Z</time>
      </trkpt>
      <trkpt lat="46.72093" lon="-0.72757">
        <ele>184</ele>
        <time>2020-11-15T08:23:09Z</time>
      </trkpt>
      <trkpt lat="46.72095" lon="-0.72765">
        <ele>184</ele>
        <time>2020-11-15T08:23:11Z</time>
      </trkpt>
      <trkpt lat="46.72098" lon="-0.72775">
        <ele>184</ele>
        <time>2020-11-15T08:23:13Z</time>
      </trkpt>
      <trkpt lat="46.721" lon="-0.72779">
        <ele>184.1</ele>
        <time>2020-11-15T08:23:14Z</time>
      </trkpt>
      <trkpt lat="46.72101" lon="-0.72784">
        <ele>184.2</ele>
        <time>2020-11-15T08:23:15Z</time>
      </trkpt>
      <trkpt lat="46.72102" lon="-0.72797">
        <ele>184.2</ele>
        <time>2020-11-15T08:23:17Z</time>
      </trkpt>
      <trkpt lat="46.72105" lon="-0.7281">
        <ele>184.2</ele>
        <time>2020-11-15T08:23:19Z</time>
      </trkpt>
      <trkpt lat="46.72108" lon="-0.72825">
        <ele>184.1</ele>
        <time>2020-11-15T08:23:21Z</time>
      </trkpt>
      <trkpt lat="46.72108" lon="-0.72834">
        <ele>184</ele>
        <time>2020-11-15T08:23:22Z</time>
      </trkpt>
      <trkpt lat="46.72107" lon="-0.72841">
        <ele>183.9</ele>
        <time>2020-11-15T08:23:23Z</time>
      </trkpt>
      <trkpt lat="46.72105" lon="-0.72854">
        <ele>183.9</ele>
        <time>2020-11-15T08:23:25Z</time>
      </trkpt>
      <trkpt lat="46.72104" lon="-0.72868">
        <ele>184</ele>
        <time>2020-11-15T08:23:27Z</time>
      </trkpt>
      <trkpt lat="46.72104" lon="-0.72875">
        <ele>184</ele>
        <time>2020-11-15T08:23:28Z</time>
      </trkpt>
      <trkpt lat="46.72103" lon="-0.72881">
        <ele>184</ele>
        <time>2020-11-15T08:23:29Z</time>
      </trkpt>
      <trkpt lat="46.72101" lon="-0.72888">
        <ele>184.1</ele>
        <time>2020-11-15T08:23:30Z</time>
      </trkpt>
      <trkpt lat="46.72099" lon="-0.72894">
        <ele>184.1</ele>
        <time>2020-11-15T08:23:31Z</time>
      </trkpt>
      <trkpt lat="46.72097" lon="-0.729">
        <ele>184.1</ele>
        <time>2020-11-15T08:23:32Z</time>
      </trkpt>
      <trkpt lat="46.72096" lon="-0.72906">
        <ele>184.1</ele>
        <time>2020-11-15T08:23:33Z</time>
      </trkpt>
      <trkpt lat="46.72096" lon="-0.72913">
        <ele>184.2</ele>
        <time>2020-11-15T08:23:34Z</time>
      </trkpt>
      <trkpt lat="46.72097" lon="-0.72919">
        <ele>184.2</ele>
        <time>2020-11-15T08:23:35Z</time>
      </trkpt>
      <trkpt lat="46.72098" lon="-0.72925">
        <ele>184.2</ele>
        <time>2020-11-15T08:23:36Z</time>
      </trkpt>
      <trkpt lat="46.72099" lon="-0.72932">
        <ele>184.2</ele>
        <time>2020-11-15T08:23:37Z</time>
      </trkpt>
      <trkpt lat="46.72099" lon="-0.72939">
        <ele>184.3</ele>
        <time>2020-11-15T08:23:38Z</time>
      </trkpt>
      <trkpt lat="46.721" lon="-0.72947">
        <ele>184.3</ele>
        <time>2020-11-15T08:23:39Z</time>
      </trkpt>
      <trkpt lat="46.72102" lon="-0.72962">
        <ele>184.4</ele>
        <time>2020-11-15T08:23:41Z</time>
      </trkpt>
      <trkpt lat="46.72103" lon="-0.7297">
        <ele>184.4</ele>
        <time>2020-11-15T08:23:42Z</time>
      </trkpt>
      <trkpt lat="46.72104" lon="-0.72978">
        <ele>184.4</ele>
        <time>2020-11-15T08:23:43Z</time>
      </trkpt>
      <trkpt lat="46.72107" lon="-0.72997">
        <ele>184.5</ele>
        <time>2020-11-15T08:23:45Z</time>
      </trkpt>
      <trkpt lat="46.72111" lon="-0.73017">
        <ele>184.6</ele>
        <time>2020-11-15T08:23:47Z</time>
      </trkpt>
      <trkpt lat="46.72115" lon="-0.73038">
        <ele>184.7</ele>
        <time>2020-11-15T08:23:49Z</time>
      </trkpt>
      <trkpt lat="46.72119" lon="-0.73061">
        <ele>184.8</ele>
        <time>2020-11-15T08:23:51Z</time>
      </trkpt>
      <trkpt lat="46.72124" lon="-0.73084">
        <ele>184.9</ele>
        <time>2020-11-15T08:23:53Z</time>
      </trkpt>
      <trkpt lat="46.72127" lon="-0.73096">
        <ele>184.9</ele>
        <time>2020-11-15T08:23:54Z</time>
      </trkpt>
      <trkpt lat="46.72129" lon="-0.73108">
        <ele>185</ele>
        <time>2020-11-15T08:23:55Z</time>
      </trkpt>
      <trkpt lat="46.72135" lon="-0.7313">
        <ele>185.1</ele>
        <time>2020-11-15T08:23:57Z</time>
      </trkpt>
      <trkpt lat="46.72141" lon="-0.7315">
        <ele>185.2</ele>
        <time>2020-11-15T08:23:59Z</time>
      </trkpt>
      <trkpt lat="46.72144" lon="-0.7316">
        <ele>185.2</ele>
        <time>2020-11-15T08:24:00Z</time>
      </trkpt>
      <trkpt lat="46.72147" lon="-0.7317">
        <ele>185.3</ele>
        <time>2020-11-15T08:24:01Z</time>
      </trkpt>
      <trkpt lat="46.72152" lon="-0.73189">
        <ele>185.3</ele>
        <time>2020-11-15T08:24:03Z</time>
      </trkpt>
      <trkpt lat="46.72156" lon="-0.73198">
        <ele>185.4</ele>
        <time>2020-11-15T08:24:04Z</time>
      </trkpt>
      <trkpt lat="46.72158" lon="-0.73208">
        <ele>185.4</ele>
        <time>2020-11-15T08:24:05Z</time>
      </trkpt>
      <trkpt lat="46.72164" lon="-0.73227">
        <ele>185.5</ele>
        <time>2020-11-15T08:24:07Z</time>
      </trkpt>
      <trkpt lat="46.72168" lon="-0.73246">
        <ele>185.6</ele>
        <time>2020-11-15T08:24:09Z</time>
      </trkpt>
      <trkpt lat="46.7217" lon="-0.73254">
        <ele>185.6</ele>
        <time>2020-11-15T08:24:10Z</time>
      </trkpt>
      <trkpt lat="46.72173" lon="-0.73262">
        <ele>185.7</ele>
        <time>2020-11-15T08:24:11Z</time>
      </trkpt>
      <trkpt lat="46.72177" lon="-0.73277">
        <ele>185.7</ele>
        <time>2020-11-15T08:24:13Z</time>
      </trkpt>
      <trkpt lat="46.72181" lon="-0.73288">
        <ele>185.8</ele>
        <time>2020-11-15T08:24:15Z</time>
      </trkpt>
      <trkpt lat="46.72183" lon="-0.73297">
        <ele>185.8</ele>
        <time>2020-11-15T08:24:17Z</time>
      </trkpt>
      <trkpt lat="46.72187" lon="-0.73303">
        <ele>185.8</ele>
        <time>2020-11-15T08:24:19Z</time>
      </trkpt>
      <trkpt lat="46.72192" lon="-0.73308">
        <ele>185.9</ele>
        <time>2020-11-15T08:24:21Z</time>
      </trkpt>
      <trkpt lat="46.72198" lon="-0.73311">
        <ele>185.9</ele>
        <time>2020-11-15T08:24:23Z</time>
      </trkpt>
      <trkpt lat="46.72202" lon="-0.73312">
        <ele>185.9</ele>
        <time>2020-11-15T08:24:24Z</time>
      </trkpt>
      <trkpt lat="46.72206" lon="-0.73313">
        <ele>186</ele>
        <time>2020-11-15T08:24:25Z</time>
      </trkpt>
      <trkpt lat="46.72214" lon="-0.73313">
        <ele>186</ele>
        <time>2020-11-15T08:24:27Z</time>
      </trkpt>
      <trkpt lat="46.72218" lon="-0.73313">
        <ele>186</ele>
        <time>2020-11-15T08:24:28Z</time>
      </trkpt>
      <trkpt lat="46.72222" lon="-0.73313">
        <ele>186.1</ele>
        <time>2020-11-15T08:24:29Z</time>
      </trkpt>
      <trkpt lat="46.72231" lon="-0.73312">
        <ele>186.1</ele>
        <time>2020-11-15T08:24:31Z</time>
      </trkpt>
      <trkpt lat="46.7224" lon="-0.7331">
        <ele>186.2</ele>
        <time>2020-11-15T08:24:33Z</time>
      </trkpt>
      <trkpt lat="46.72249" lon="-0.73307">
        <ele>186.2</ele>
        <time>2020-11-15T08:24:35Z</time>
      </trkpt>
      <trkpt lat="46.72258" lon="-0.73304">
        <ele>186.3</ele>
        <time>2020-11-15T08:24:37Z</time>
      </trkpt>
      <trkpt lat="46.72267" lon="-0.73301">
        <ele>186.3</ele>
        <time>2020-11-15T08:24:39Z</time>
      </trkpt>
      <trkpt lat="46.72272" lon="-0.73299">
        <ele>186.4</ele>
        <time>2020-11-15T08:24:40Z</time>
      </trkpt>
      <trkpt lat="46.72277" lon="-0.73297">
        <ele>186.4</ele>
        <time>2020-11-15T08:24:41Z</time>
      </trkpt>
      <trkpt lat="46.72288" lon="-0.73293">
        <ele>186.5</ele>
        <time>2020-11-15T08:24:43Z</time>
      </trkpt>
      <trkpt lat="46.72299" lon="-0.73288">
        <ele>186.5</ele>
        <time>2020-11-15T08:24:45Z</time>
      </trkpt>
      <trkpt lat="46.72305" lon="-0.73285">
        <ele>186.6</ele>
        <time>2020-11-15T08:24:46Z</time>
      </trkpt>
      <trkpt lat="46.7231" lon="-0.73281">
        <ele>186.6</ele>
        <time>2020-11-15T08:24:47Z</time>
      </trkpt>
      <trkpt lat="46.72322" lon="-0.73272">
        <ele>186.7</ele>
        <time>2020-11-15T08:24:49Z</time>
      </trkpt>
      <trkpt lat="46.72334" lon="-0.73265">
        <ele>186.8</ele>
        <time>2020-11-15T08:24:51Z</time>
      </trkpt>
      <trkpt lat="46.72347" lon="-0.73266">
        <ele>186.8</ele>
        <time>2020-11-15T08:24:53Z</time>
      </trkpt>
      <trkpt lat="46.72353" lon="-0.73271">
        <ele>186.9</ele>
        <time>2020-11-15T08:24:54Z</time>
      </trkpt>
      <trkpt lat="46.72358" lon="-0.73277">
        <ele>186.9</ele>
        <time>2020-11-15T08:24:55Z</time>
      </trkpt>
      <trkpt lat="46.72366" lon="-0.73288">
        <ele>187</ele>
        <time>2020-11-15T08:24:57Z</time>
      </trkpt>
      <trkpt lat="46.7237" lon="-0.73294">
        <ele>187</ele>
        <time>2020-11-15T08:24:58Z</time>
      </trkpt>
      <trkpt lat="46.72373" lon="-0.733">
        <ele>187</ele>
        <time>2020-11-15T08:24:59Z</time>
      </trkpt>
      <trkpt lat="46.72379" lon="-0.73312">
        <ele>187.1</ele>
        <time>2020-11-15T08:25:01Z</time>
      </trkpt>
      <trkpt lat="46.72385" lon="-0.73323">
        <ele>187.2</ele>
        <time>2020-11-15T08:25:03Z</time>
      </trkpt>
      <trkpt lat="46.72392" lon="-0.73332">
        <ele>187.2</ele>
        <time>2020-11-15T08:25:05Z</time>
      </trkpt>
      <trkpt lat="46.72395" lon="-0.73336">
        <ele>187.2</ele>
        <time>2020-11-15T08:25:06Z</time>
      </trkpt>
      <trkpt lat="46.72398" lon="-0.73338">
        <ele>187.3</ele>
        <time>2020-11-15T08:25:07Z</time>
      </trkpt>
      <trkpt lat="46.72406" lon="-0.73343">
        <ele>187.3</ele>
        <time>2020-11-15T08:25:09Z</time>
      </trkpt>
      <trkpt lat="46.72413" lon="-0.73348">
        <ele>187.4</ele>
        <time>2020-11-15T08:25:11Z</time>
      </trkpt>
      <trkpt lat="46.7242" lon="-0.73352">
        <ele>187.4</ele>
        <time>2020-11-15T08:25:13Z</time>
      </trkpt>
      <trkpt lat="46.72423" lon="-0.73354">
        <ele>187.4</ele>
        <time>2020-11-15T08:25:14Z</time>
      </trkpt>
      <trkpt lat="46.72426" lon="-0.73354">
        <ele>187.4</ele>
        <time>2020-11-15T08:25:15Z</time>
      </trkpt>
      <trkpt lat="46.72433" lon="-0.73354">
        <ele>187.5</ele>
        <time>2020-11-15T08:25:17Z</time>
      </trkpt>
      <trkpt lat="46.72439" lon="-0.73355">
        <ele>187.5</ele>
        <time>2020-11-15T08:25:19Z</time>
      </trkpt>
      <trkpt lat="46.72446" lon="-0.73354">
        <ele>187.6</ele>
        <time>2020-11-15T08:25:21Z</time>
      </trkpt>
      <trkpt lat="46.72453" lon="-0.73354">
        <ele>187.6</ele>
        <time>2020-11-15T08:25:23Z</time>
      </trkpt>
      <trkpt lat="46.72461" lon="-0.73354">
        <ele>187.6</ele>
        <time>2020-11-15T08:25:25Z</time>
      </trkpt>
      <trkpt lat="46.72468" lon="-0.73354">
        <ele>187.7</ele>
        <time>2020-11-15T08:25:27Z</time>
      </trkpt>
      <trkpt lat="46.72476" lon="-0.73354">
        <ele>187.7</ele>
        <time>2020-11-15T08:25:29Z</time>
      </trkpt>
      <trkpt lat="46.72483" lon="-0.73354">
        <ele>187.8</ele>
        <time>2020-11-15T08:25:31Z</time>
      </trkpt>
      <trkpt lat="46.7249" lon="-0.73353">
        <ele>187.8</ele>
        <time>2020-11-15T08:25:33Z</time>
      </trkpt>
      <trkpt lat="46.72498" lon="-0.7335">
        <ele>187.9</ele>
        <time>2020-11-15T08:25:35Z</time>
      </trkpt>
      <trkpt lat="46.72505" lon="-0.73347">
        <ele>187.9</ele>
        <time>2020-11-15T08:25:37Z</time>
      </trkpt>
      <trkpt lat="46.72509" lon="-0.73345">
        <ele>187.9</ele>
        <time>2020-11-15T08:25:38Z</time>
      </trkpt>
      <trkpt lat="46.72513" lon="-0.73343">
        <ele>188</ele>
        <time>2020-11-15T08:25:39Z</time>
      </trkpt>
      <trkpt lat="46.7252" lon="-0.73339">
        <ele>188</ele>
        <time>2020-11-15T08:25:41Z</time>
      </trkpt>
      <trkpt lat="46.72527" lon="-0.73335">
        <ele>188.1</ele>
        <time>2020-11-15T08:25:43Z</time>
      </trkpt>
      <trkpt lat="46.72535" lon="-0.73331">
        <ele>188.1</ele>
        <time>2020-11-15T08:25:45Z</time>
      </trkpt>
      <trkpt lat="46.72543" lon="-0.73328">
        <ele>188.2</ele>
        <time>2020-11-15T08:25:47Z</time>
      </trkpt>
      <trkpt lat="46.72551" lon="-0.73326">
        <ele>188.2</ele>
        <time>2020-11-15T08:25:49Z</time>
      </trkpt>
      <trkpt lat="46.72558" lon="-0.73325">
        <ele>188.2</ele>
        <time>2020-11-15T08:25:51Z</time>
      </trkpt>
      <trkpt lat="46.72566" lon="-0.73325">
        <ele>188.3</ele>
        <time>2020-11-15T08:25:53Z</time>
      </trkpt>
      <trkpt lat="46.72574" lon="-0.73327">
        <ele>188.3</ele>
        <time>2020-11-15T08:25:55Z</time>
      </trkpt>
      <trkpt lat="46.72582" lon="-0.7333">
        <ele>188.4</ele>
        <time>2020-11-15T08:25:57Z</time>
      </trkpt>
      <trkpt lat="46.72589" lon="-0.73335">
        <ele>188.4</ele>
        <time>2020-11-15T08:25:59Z</time>
      </trkpt>
      <trkpt lat="46.72595" lon="-0.7334">
        <ele>188.5</ele>
        <time>2020-11-15T08:26:01Z</time>
      </trkpt>
      <trkpt lat="46.726" lon="-0.73346">
        <ele>188.5</ele>
        <time>2020-11-15T08:26:03Z</time>
      </trkpt>
      <trkpt lat="46.72606" lon="-0.73352">
        <ele>188.6</ele>
        <time>2020-11-15T08:26:05Z</time>
      </trkpt>
      <trkpt lat="46.72612" lon="-0.73357">
        <ele>188.6</ele>
        <time>2020-11-15T08:26:07Z</time>
      </trkpt>
      <trkpt lat="46.72614" lon="-0.73359">
        <ele>188.6</ele>
        <time>2020-11-15T08:26:08Z</time>
      </trkpt>
      <trkpt lat="46.72617" lon="-0.73362">
        <ele>188.6</ele>
        <time>2020-11-15T08:26:09Z</time>
      </trkpt>
      <trkpt lat="46.72622" lon="-0.73366">
        <ele>188.7</ele>
        <time>2020-11-15T08:26:11Z</time>
      </trkpt>
      <trkpt lat="46.72625" lon="-0.73369">
        <ele>188.7</ele>
        <time>2020-11-15T08:26:12Z</time>
      </trkpt>
      <trkpt lat="46.72628" lon="-0.73371">
        <ele>188.7</ele>
        <time>2020-11-15T08:26:13Z</time>
      </trkpt>
      <trkpt lat="46.72635" lon="-0.73376">
        <ele>188.8</ele>
        <time>2020-11-15T08:26:15Z</time>
      </trkpt>
      <trkpt lat="46.72642" lon="-0.73379">
        <ele>188.8</ele>
        <time>2020-11-15T08:26:17Z</time>
      </trkpt>
      <trkpt lat="46.72645" lon="-0.7338">
        <ele>188.8</ele>
        <time>2020-11-15T08:26:18Z</time>
      </trkpt>
      <trkpt lat="46.72648" lon="-0.73382">
        <ele>188.8</ele>
        <time>2020-11-15T08:26:19Z</time>
      </trkpt>
      <trkpt lat="46.72653" lon="-0.73383">
        <ele>188.9</ele>
        <time>2020-11-15T08:26:21Z</time>
      </trkpt>
      <trkpt lat="46.72658" lon="-0.73384">
        <ele>188.9</ele>
        <time>2020-11-15T08:26:23Z</time>
      </trkpt>
      <trkpt lat="46.72666" lon="-0.73383">
        <ele>188.9</ele>
        <time>2020-11-15T08:26:25Z</time>
      </trkpt>
      <trkpt lat="46.72673" lon="-0.73382">
        <ele>189</ele>
        <time>2020-11-15T08:26:27Z</time>
      </trkpt>
      <trkpt lat="46.7268" lon="-0.73382">
        <ele>189</ele>
        <time>2020-11-15T08:26:29Z</time>
      </trkpt>
      <trkpt lat="46.72684" lon="-0.73382">
        <ele>189.1</ele>
        <time>2020-11-15T08:26:30Z</time>
      </trkpt>
      <trkpt lat="46.72687" lon="-0.73381">
        <ele>189.2</ele>
        <time>2020-11-15T08:26:31Z</time>
      </trkpt>
      <trkpt lat="46.72694" lon="-0.7338">
        <ele>189.3</ele>
        <time>2020-11-15T08:26:33Z</time>
      </trkpt>
      <trkpt lat="46.727" lon="-0.73379">
        <ele>189.5</ele>
        <time>2020-11-15T08:26:35Z</time>
      </trkpt>
      <trkpt lat="46.72707" lon="-0.73378">
        <ele>189.6</ele>
        <time>2020-11-15T08:26:37Z</time>
      </trkpt>
      <trkpt lat="46.72715" lon="-0.73378">
        <ele>189.8</ele>
        <time>2020-11-15T08:26:39Z</time>
      </trkpt>
      <trkpt lat="46.72722" lon="-0.73377">
        <ele>190</ele>
        <time>2020-11-15T08:26:41Z</time>
      </trkpt>
      <trkpt lat="46.7273" lon="-0.73378">
        <ele>190.2</ele>
        <time>2020-11-15T08:26:43Z</time>
      </trkpt>
      <trkpt lat="46.72737" lon="-0.73379">
        <ele>190.4</ele>
        <time>2020-11-15T08:26:45Z</time>
      </trkpt>
      <trkpt lat="46.72744" lon="-0.73381">
        <ele>190.5</ele>
        <time>2020-11-15T08:26:47Z</time>
      </trkpt>
      <trkpt lat="46.72747" lon="-0.73381">
        <ele>190.6</ele>
        <time>2020-11-15T08:26:48Z</time>
      </trkpt>
      <trkpt lat="46.7275" lon="-0.73383">
        <ele>190.7</ele>
        <time>2020-11-15T08:26:49Z</time>
      </trkpt>
      <trkpt lat="46.72757" lon="-0.73385">
        <ele>190.9</ele>
        <time>2020-11-15T08:26:51Z</time>
      </trkpt>
      <trkpt lat="46.72764" lon="-0.73386">
        <ele>191</ele>
        <time>2020-11-15T08:26:53Z</time>
      </trkpt>
      <trkpt lat="46.72768" lon="-0.73387">
        <ele>191.1</ele>
        <time>2020-11-15T08:26:54Z</time>
      </trkpt>
      <trkpt lat="46.72772" lon="-0.73389">
        <ele>191.2</ele>
        <time>2020-11-15T08:26:55Z</time>
      </trkpt>
      <trkpt lat="46.72779" lon="-0.73391">
        <ele>191.4</ele>
        <time>2020-11-15T08:26:57Z</time>
      </trkpt>
      <trkpt lat="46.72786" lon="-0.73394">
        <ele>191.6</ele>
        <time>2020-11-15T08:26:59Z</time>
      </trkpt>
      <trkpt lat="46.72794" lon="-0.73397">
        <ele>191.8</ele>
        <time>2020-11-15T08:27:01Z</time>
      </trkpt>
      <trkpt lat="46.72801" lon="-0.73399">
        <ele>191.9</ele>
        <time>2020-11-15T08:27:03Z</time>
      </trkpt>
      <trkpt lat="46.72808" lon="-0.734">
        <ele>192.1</ele>
        <time>2020-11-15T08:27:05Z</time>
      </trkpt>
      <trkpt lat="46.72812" lon="-0.73401">
        <ele>192.2</ele>
        <time>2020-11-15T08:27:06Z</time>
      </trkpt>
      <trkpt lat="46.72815" lon="-0.73402">
        <ele>192.3</ele>
        <time>2020-11-15T08:27:07Z</time>
      </trkpt>
      <trkpt lat="46.72822" lon="-0.73405">
        <ele>192.5</ele>
        <time>2020-11-15T08:27:09Z</time>
      </trkpt>
      <trkpt lat="46.72827" lon="-0.73411">
        <ele>192.2</ele>
        <time>2020-11-15T08:27:11Z</time>
      </trkpt>
      <trkpt lat="46.72832" lon="-0.73418">
        <ele>192</ele>
        <time>2020-11-15T08:27:13Z</time>
      </trkpt>
      <trkpt lat="46.72834" lon="-0.73423">
        <ele>191.9</ele>
        <time>2020-11-15T08:27:14Z</time>
      </trkpt>
      <trkpt lat="46.72837" lon="-0.73428">
        <ele>191.8</ele>
        <time>2020-11-15T08:27:15Z</time>
      </trkpt>
      <trkpt lat="46.72839" lon="-0.73434">
        <ele>191.7</ele>
        <time>2020-11-15T08:27:16Z</time>
      </trkpt>
      <trkpt lat="46.72841" lon="-0.73439">
        <ele>191.6</ele>
        <time>2020-11-15T08:27:17Z</time>
      </trkpt>
      <trkpt lat="46.72845" lon="-0.73451">
        <ele>191.3</ele>
        <time>2020-11-15T08:27:19Z</time>
      </trkpt>
      <trkpt lat="46.72849" lon="-0.73461">
        <ele>190.9</ele>
        <time>2020-11-15T08:27:21Z</time>
      </trkpt>
      <trkpt lat="46.72853" lon="-0.7347">
        <ele>190.5</ele>
        <time>2020-11-15T08:27:23Z</time>
      </trkpt>
      <trkpt lat="46.72858" lon="-0.73479">
        <ele>190.1</ele>
        <time>2020-11-15T08:27:25Z</time>
      </trkpt>
      <trkpt lat="46.72864" lon="-0.73487">
        <ele>189.7</ele>
        <time>2020-11-15T08:27:27Z</time>
      </trkpt>
      <trkpt lat="46.72866" lon="-0.73492">
        <ele>189.5</ele>
        <time>2020-11-15T08:27:28Z</time>
      </trkpt>
      <trkpt lat="46.72868" lon="-0.73498">
        <ele>189.3</ele>
        <time>2020-11-15T08:27:29Z</time>
      </trkpt>
      <trkpt lat="46.72869" lon="-0.73504">
        <ele>189.1</ele>
        <time>2020-11-15T08:27:30Z</time>
      </trkpt>
      <trkpt lat="46.72868" lon="-0.7351">
        <ele>188.6</ele>
        <time>2020-11-15T08:27:31Z</time>
      </trkpt>
      <trkpt lat="46.72866" lon="-0.73514">
        <ele>188.5</ele>
        <time>2020-11-15T08:27:32Z</time>
      </trkpt>
      <trkpt lat="46.72863" lon="-0.73517">
        <ele>188.3</ele>
        <time>2020-11-15T08:27:33Z</time>
      </trkpt>
      <trkpt lat="46.72856" lon="-0.73522">
        <ele>188</ele>
        <time>2020-11-15T08:27:35Z</time>
      </trkpt>
      <trkpt lat="46.72852" lon="-0.73524">
        <ele>187.8</ele>
        <time>2020-11-15T08:27:36Z</time>
      </trkpt>
      <trkpt lat="46.72845" lon="-0.7353">
        <ele>187.5</ele>
        <time>2020-11-15T08:27:38Z</time>
      </trkpt>
      <trkpt lat="46.72838" lon="-0.73535">
        <ele>187.1</ele>
        <time>2020-11-15T08:27:40Z</time>
      </trkpt>
      <trkpt lat="46.72831" lon="-0.73541">
        <ele>186.8</ele>
        <time>2020-11-15T08:27:42Z</time>
      </trkpt>
      <trkpt lat="46.72823" lon="-0.73546">
        <ele>186.4</ele>
        <time>2020-11-15T08:27:44Z</time>
      </trkpt>
      <trkpt lat="46.72814" lon="-0.73552">
        <ele>186</ele>
        <time>2020-11-15T08:27:46Z</time>
      </trkpt>
      <trkpt lat="46.72806" lon="-0.73558">
        <ele>185.6</ele>
        <time>2020-11-15T08:27:48Z</time>
      </trkpt>
      <trkpt lat="46.72798" lon="-0.73565">
        <ele>185.2</ele>
        <time>2020-11-15T08:27:50Z</time>
      </trkpt>
      <trkpt lat="46.7279" lon="-0.73571">
        <ele>184.8</ele>
        <time>2020-11-15T08:27:52Z</time>
      </trkpt>
      <trkpt lat="46.72786" lon="-0.73574">
        <ele>184.6</ele>
        <time>2020-11-15T08:27:53Z</time>
      </trkpt>
      <trkpt lat="46.72782" lon="-0.73577">
        <ele>184.4</ele>
        <time>2020-11-15T08:27:54Z</time>
      </trkpt>
      <trkpt lat="46.72773" lon="-0.73583">
        <ele>184</ele>
        <time>2020-11-15T08:27:56Z</time>
      </trkpt>
      <trkpt lat="46.72764" lon="-0.73589">
        <ele>183.6</ele>
        <time>2020-11-15T08:27:58Z</time>
      </trkpt>
      <trkpt lat="46.72755" lon="-0.73597">
        <ele>183.2</ele>
        <time>2020-11-15T08:28:00Z</time>
      </trkpt>
      <trkpt lat="46.72751" lon="-0.736">
        <ele>182.9</ele>
        <time>2020-11-15T08:28:01Z</time>
      </trkpt>
      <trkpt lat="46.72746" lon="-0.73604">
        <ele>182.7</ele>
        <time>2020-11-15T08:28:02Z</time>
      </trkpt>
      <trkpt lat="46.72736" lon="-0.7361">
        <ele>182.2</ele>
        <time>2020-11-15T08:28:04Z</time>
      </trkpt>
      <trkpt lat="46.72726" lon="-0.73618">
        <ele>181.7</ele>
        <time>2020-11-15T08:28:06Z</time>
      </trkpt>
      <trkpt lat="46.72716" lon="-0.73626">
        <ele>181.3</ele>
        <time>2020-11-15T08:28:08Z</time>
      </trkpt>
      <trkpt lat="46.72711" lon="-0.7363">
        <ele>181</ele>
        <time>2020-11-15T08:28:09Z</time>
      </trkpt>
      <trkpt lat="46.72706" lon="-0.73634">
        <ele>180.8</ele>
        <time>2020-11-15T08:28:10Z</time>
      </trkpt>
      <trkpt lat="46.72695" lon="-0.73642">
        <ele>180.3</ele>
        <time>2020-11-15T08:28:12Z</time>
      </trkpt>
      <trkpt lat="46.72684" lon="-0.73649">
        <ele>179.7</ele>
        <time>2020-11-15T08:28:14Z</time>
      </trkpt>
      <trkpt lat="46.72673" lon="-0.73657">
        <ele>179.2</ele>
        <time>2020-11-15T08:28:16Z</time>
      </trkpt>
      <trkpt lat="46.72667" lon="-0.7366">
        <ele>178.9</ele>
        <time>2020-11-15T08:28:17Z</time>
      </trkpt>
      <trkpt lat="46.72661" lon="-0.73664">
        <ele>178.7</ele>
        <time>2020-11-15T08:28:18Z</time>
      </trkpt>
      <trkpt lat="46.72649" lon="-0.73671">
        <ele>178.1</ele>
        <time>2020-11-15T08:28:20Z</time>
      </trkpt>
      <trkpt lat="46.72637" lon="-0.73678">
        <ele>177.6</ele>
        <time>2020-11-15T08:28:22Z</time>
      </trkpt>
      <trkpt lat="46.72625" lon="-0.73684">
        <ele>177</ele>
        <time>2020-11-15T08:28:24Z</time>
      </trkpt>
      <trkpt lat="46.72619" lon="-0.73688">
        <ele>176.7</ele>
        <time>2020-11-15T08:28:25Z</time>
      </trkpt>
      <trkpt lat="46.72612" lon="-0.73691">
        <ele>176.4</ele>
        <time>2020-11-15T08:28:26Z</time>
      </trkpt>
      <trkpt lat="46.72599" lon="-0.73698">
        <ele>175.8</ele>
        <time>2020-11-15T08:28:28Z</time>
      </trkpt>
      <trkpt lat="46.72585" lon="-0.73708">
        <ele>175.2</ele>
        <time>2020-11-15T08:28:30Z</time>
      </trkpt>
      <trkpt lat="46.72578" lon="-0.73713">
        <ele>174.8</ele>
        <time>2020-11-15T08:28:31Z</time>
      </trkpt>
      <trkpt lat="46.7257" lon="-0.73719">
        <ele>174.5</ele>
        <time>2020-11-15T08:28:32Z</time>
      </trkpt>
      <trkpt lat="46.72556" lon="-0.7373">
        <ele>173.7</ele>
        <time>2020-11-15T08:28:34Z</time>
      </trkpt>
      <trkpt lat="46.7254" lon="-0.73743">
        <ele>173</ele>
        <time>2020-11-15T08:28:36Z</time>
      </trkpt>
      <trkpt lat="46.72524" lon="-0.73756">
        <ele>172.2</ele>
        <time>2020-11-15T08:28:38Z</time>
      </trkpt>
      <trkpt lat="46.72507" lon="-0.7377">
        <ele>171.4</ele>
        <time>2020-11-15T08:28:40Z</time>
      </trkpt>
      <trkpt lat="46.72491" lon="-0.73784">
        <ele>170.6</ele>
        <time>2020-11-15T08:28:42Z</time>
      </trkpt>
      <trkpt lat="46.72484" lon="-0.73791">
        <ele>170.2</ele>
        <time>2020-11-15T08:28:43Z</time>
      </trkpt>
      <trkpt lat="46.72476" lon="-0.73798">
        <ele>169.8</ele>
        <time>2020-11-15T08:28:44Z</time>
      </trkpt>
      <trkpt lat="46.7246" lon="-0.73813">
        <ele>169</ele>
        <time>2020-11-15T08:28:46Z</time>
      </trkpt>
      <trkpt lat="46.72444" lon="-0.73828">
        <ele>168.2</ele>
        <time>2020-11-15T08:28:48Z</time>
      </trkpt>
      <trkpt lat="46.72429" lon="-0.73843">
        <ele>167.4</ele>
        <time>2020-11-15T08:28:50Z</time>
      </trkpt>
      <trkpt lat="46.72414" lon="-0.73857">
        <ele>166.7</ele>
        <time>2020-11-15T08:28:52Z</time>
      </trkpt>
      <trkpt lat="46.72407" lon="-0.73865">
        <ele>166.3</ele>
        <time>2020-11-15T08:28:53Z</time>
      </trkpt>
      <trkpt lat="46.724" lon="-0.73872">
        <ele>165.9</ele>
        <time>2020-11-15T08:28:54Z</time>
      </trkpt>
      <trkpt lat="46.72386" lon="-0.73885">
        <ele>165.2</ele>
        <time>2020-11-15T08:28:56Z</time>
      </trkpt>
      <trkpt lat="46.72379" lon="-0.73892">
        <ele>164.8</ele>
        <time>2020-11-15T08:28:57Z</time>
      </trkpt>
      <trkpt lat="46.72372" lon="-0.73898">
        <ele>164.5</ele>
        <time>2020-11-15T08:28:58Z</time>
      </trkpt>
      <trkpt lat="46.72359" lon="-0.73909">
        <ele>163.8</ele>
        <time>2020-11-15T08:29:00Z</time>
      </trkpt>
      <trkpt lat="46.72346" lon="-0.7392">
        <ele>163.2</ele>
        <time>2020-11-15T08:29:02Z</time>
      </trkpt>
      <trkpt lat="46.7234" lon="-0.73926">
        <ele>162.9</ele>
        <time>2020-11-15T08:29:03Z</time>
      </trkpt>
      <trkpt lat="46.72334" lon="-0.73931">
        <ele>162.6</ele>
        <time>2020-11-15T08:29:04Z</time>
      </trkpt>
      <trkpt lat="46.72322" lon="-0.73941">
        <ele>162</ele>
        <time>2020-11-15T08:29:06Z</time>
      </trkpt>
      <trkpt lat="46.7231" lon="-0.73952">
        <ele>161.4</ele>
        <time>2020-11-15T08:29:08Z</time>
      </trkpt>
      <trkpt lat="46.72305" lon="-0.73957">
        <ele>161.1</ele>
        <time>2020-11-15T08:29:09Z</time>
      </trkpt>
      <trkpt lat="46.72299" lon="-0.73963">
        <ele>160.8</ele>
        <time>2020-11-15T08:29:10Z</time>
      </trkpt>
      <trkpt lat="46.72287" lon="-0.73973">
        <ele>160.2</ele>
        <time>2020-11-15T08:29:12Z</time>
      </trkpt>
      <trkpt lat="46.72277" lon="-0.73985">
        <ele>159.7</ele>
        <time>2020-11-15T08:29:14Z</time>
      </trkpt>
      <trkpt lat="46.72268" lon="-0.73997">
        <ele>159.2</ele>
        <time>2020-11-15T08:29:16Z</time>
      </trkpt>
      <trkpt lat="46.72259" lon="-0.74008">
        <ele>158.7</ele>
        <time>2020-11-15T08:29:18Z</time>
      </trkpt>
      <trkpt lat="46.7225" lon="-0.74018">
        <ele>158.3</ele>
        <time>2020-11-15T08:29:20Z</time>
      </trkpt>
      <trkpt lat="46.72245" lon="-0.74024">
        <ele>158.1</ele>
        <time>2020-11-15T08:29:21Z</time>
      </trkpt>
      <trkpt lat="46.72241" lon="-0.74029">
        <ele>157.8</ele>
        <time>2020-11-15T08:29:22Z</time>
      </trkpt>
      <trkpt lat="46.72231" lon="-0.74039">
        <ele>157.4</ele>
        <time>2020-11-15T08:29:24Z</time>
      </trkpt>
      <trkpt lat="46.72222" lon="-0.74048">
        <ele>156.9</ele>
        <time>2020-11-15T08:29:26Z</time>
      </trkpt>
      <trkpt lat="46.72218" lon="-0.74053">
        <ele>156.7</ele>
        <time>2020-11-15T08:29:27Z</time>
      </trkpt>
      <trkpt lat="46.72213" lon="-0.74058">
        <ele>156.5</ele>
        <time>2020-11-15T08:29:28Z</time>
      </trkpt>
      <trkpt lat="46.72204" lon="-0.74067">
        <ele>156.2</ele>
        <time>2020-11-15T08:29:30Z</time>
      </trkpt>
      <trkpt lat="46.72195" lon="-0.74076">
        <ele>156</ele>
        <time>2020-11-15T08:29:32Z</time>
      </trkpt>
      <trkpt lat="46.72186" lon="-0.74084">
        <ele>155.8</ele>
        <time>2020-11-15T08:29:34Z</time>
      </trkpt>
      <trkpt lat="46.72178" lon="-0.74092">
        <ele>155.5</ele>
        <time>2020-11-15T08:29:36Z</time>
      </trkpt>
      <trkpt lat="46.72168" lon="-0.741">
        <ele>155.3</ele>
        <time>2020-11-15T08:29:38Z</time>
      </trkpt>
      <trkpt lat="46.72164" lon="-0.74104">
        <ele>155.2</ele>
        <time>2020-11-15T08:29:39Z</time>
      </trkpt>
      <trkpt lat="46.72159" lon="-0.74108">
        <ele>155.1</ele>
        <time>2020-11-15T08:29:40Z</time>
      </trkpt>
      <trkpt lat="46.7215" lon="-0.74116">
        <ele>154.8</ele>
        <time>2020-11-15T08:29:42Z</time>
      </trkpt>
      <trkpt lat="46.7214" lon="-0.74123">
        <ele>154.6</ele>
        <time>2020-11-15T08:29:44Z</time>
      </trkpt>
      <trkpt lat="46.72136" lon="-0.74127">
        <ele>154.5</ele>
        <time>2020-11-15T08:29:45Z</time>
      </trkpt>
      <trkpt lat="46.72131" lon="-0.74131">
        <ele>154.4</ele>
        <time>2020-11-15T08:29:46Z</time>
      </trkpt>
      <trkpt lat="46.72122" lon="-0.74138">
        <ele>154.1</ele>
        <time>2020-11-15T08:29:48Z</time>
      </trkpt>
      <trkpt lat="46.72113" lon="-0.74146">
        <ele>153.9</ele>
        <time>2020-11-15T08:29:50Z</time>
      </trkpt>
      <trkpt lat="46.72108" lon="-0.74149">
        <ele>153.8</ele>
        <time>2020-11-15T08:29:51Z</time>
      </trkpt>
      <trkpt lat="46.72104" lon="-0.74153">
        <ele>153.7</ele>
        <time>2020-11-15T08:29:52Z</time>
      </trkpt>
      <trkpt lat="46.72095" lon="-0.7416">
        <ele>153.5</ele>
        <time>2020-11-15T08:29:54Z</time>
      </trkpt>
      <trkpt lat="46.72085" lon="-0.74168">
        <ele>153.2</ele>
        <time>2020-11-15T08:29:56Z</time>
      </trkpt>
      <trkpt lat="46.72081" lon="-0.74172">
        <ele>153.1</ele>
        <time>2020-11-15T08:29:57Z</time>
      </trkpt>
      <trkpt lat="46.72077" lon="-0.74177">
        <ele>153</ele>
        <time>2020-11-15T08:29:58Z</time>
      </trkpt>
      <trkpt lat="46.72074" lon="-0.74182">
        <ele>152.9</ele>
        <time>2020-11-15T08:29:59Z</time>
      </trkpt>
      <trkpt lat="46.72072" lon="-0.74188">
        <ele>152.8</ele>
        <time>2020-11-15T08:30:00Z</time>
      </trkpt>
      <trkpt lat="46.72071" lon="-0.74196">
        <ele>152.7</ele>
        <time>2020-11-15T08:30:01Z</time>
      </trkpt>
      <trkpt lat="46.7207" lon="-0.74203">
        <ele>152.6</ele>
        <time>2020-11-15T08:30:02Z</time>
      </trkpt>
      <trkpt lat="46.72071" lon="-0.7421">
        <ele>152.5</ele>
        <time>2020-11-15T08:30:03Z</time>
      </trkpt>
      <trkpt lat="46.72071" lon="-0.74218">
        <ele>152.4</ele>
        <time>2020-11-15T08:30:04Z</time>
      </trkpt>
      <trkpt lat="46.72072" lon="-0.74225">
        <ele>152.3</ele>
        <time>2020-11-15T08:30:05Z</time>
      </trkpt>
      <trkpt lat="46.72074" lon="-0.74232">
        <ele>152.1</ele>
        <time>2020-11-15T08:30:06Z</time>
      </trkpt>
      <trkpt lat="46.72076" lon="-0.74247">
        <ele>151.9</ele>
        <time>2020-11-15T08:30:08Z</time>
      </trkpt>
      <trkpt lat="46.72078" lon="-0.74261">
        <ele>151.7</ele>
        <time>2020-11-15T08:30:10Z</time>
      </trkpt>
      <trkpt lat="46.72078" lon="-0.74268">
        <ele>151.6</ele>
        <time>2020-11-15T08:30:11Z</time>
      </trkpt>
      <trkpt lat="46.72079" lon="-0.74276">
        <ele>151.5</ele>
        <time>2020-11-15T08:30:12Z</time>
      </trkpt>
      <trkpt lat="46.72082" lon="-0.7429">
        <ele>151.3</ele>
        <time>2020-11-15T08:30:14Z</time>
      </trkpt>
      <trkpt lat="46.72086" lon="-0.74305">
        <ele>151</ele>
        <time>2020-11-15T08:30:16Z</time>
      </trkpt>
      <trkpt lat="46.72089" lon="-0.74321">
        <ele>150.8</ele>
        <time>2020-11-15T08:30:18Z</time>
      </trkpt>
      <trkpt lat="46.72093" lon="-0.74336">
        <ele>150.5</ele>
        <time>2020-11-15T08:30:20Z</time>
      </trkpt>
      <trkpt lat="46.72094" lon="-0.74343">
        <ele>150.4</ele>
        <time>2020-11-15T08:30:21Z</time>
      </trkpt>
      <trkpt lat="46.72095" lon="-0.74352">
        <ele>150.3</ele>
        <time>2020-11-15T08:30:22Z</time>
      </trkpt>
      <trkpt lat="46.72094" lon="-0.74359">
        <ele>150.3</ele>
        <time>2020-11-15T08:30:23Z</time>
      </trkpt>
      <trkpt lat="46.72091" lon="-0.74365">
        <ele>150.3</ele>
        <time>2020-11-15T08:30:24Z</time>
      </trkpt>
      <trkpt lat="46.72087" lon="-0.7437">
        <ele>150.3</ele>
        <time>2020-11-15T08:30:25Z</time>
      </trkpt>
      <trkpt lat="46.72082" lon="-0.74374">
        <ele>150.2</ele>
        <time>2020-11-15T08:30:26Z</time>
      </trkpt>
      <trkpt lat="46.72074" lon="-0.74383">
        <ele>150.2</ele>
        <time>2020-11-15T08:30:28Z</time>
      </trkpt>
      <trkpt lat="46.72069" lon="-0.74393">
        <ele>150.1</ele>
        <time>2020-11-15T08:30:30Z</time>
      </trkpt>
      <trkpt lat="46.72065" lon="-0.74407">
        <ele>150.1</ele>
        <time>2020-11-15T08:30:32Z</time>
      </trkpt>
      <trkpt lat="46.72063" lon="-0.74422">
        <ele>150.1</ele>
        <time>2020-11-15T08:30:34Z</time>
      </trkpt>
      <trkpt lat="46.72061" lon="-0.74437">
        <ele>150</ele>
        <time>2020-11-15T08:30:36Z</time>
      </trkpt>
      <trkpt lat="46.7206" lon="-0.74453">
        <ele>150</ele>
        <time>2020-11-15T08:30:38Z</time>
      </trkpt>
      <trkpt lat="46.72058" lon="-0.74468">
        <ele>149.9</ele>
        <time>2020-11-15T08:30:40Z</time>
      </trkpt>
      <trkpt lat="46.72057" lon="-0.74475">
        <ele>149.9</ele>
        <time>2020-11-15T08:30:41Z</time>
      </trkpt>
      <trkpt lat="46.72057" lon="-0.74481">
        <ele>149.9</ele>
        <time>2020-11-15T08:30:42Z</time>
      </trkpt>
      <trkpt lat="46.72057" lon="-0.74488">
        <ele>149.9</ele>
        <time>2020-11-15T08:30:43Z</time>
      </trkpt>
      <trkpt lat="46.72057" lon="-0.74494">
        <ele>149.8</ele>
        <time>2020-11-15T08:30:44Z</time>
      </trkpt>
      <trkpt lat="46.72056" lon="-0.74507">
        <ele>149.8</ele>
        <time>2020-11-15T08:30:46Z</time>
      </trkpt>
      <trkpt lat="46.72056" lon="-0.74522">
        <ele>149.8</ele>
        <time>2020-11-15T08:30:48Z</time>
      </trkpt>
      <trkpt lat="46.72057" lon="-0.74538">
        <ele>149.7</ele>
        <time>2020-11-15T08:30:50Z</time>
      </trkpt>
      <trkpt lat="46.72057" lon="-0.74555">
        <ele>149.7</ele>
        <time>2020-11-15T08:30:52Z</time>
      </trkpt>
      <trkpt lat="46.72058" lon="-0.7457">
        <ele>149.6</ele>
        <time>2020-11-15T08:30:54Z</time>
      </trkpt>
      <trkpt lat="46.72059" lon="-0.74585">
        <ele>149.6</ele>
        <time>2020-11-15T08:30:56Z</time>
      </trkpt>
      <trkpt lat="46.72059" lon="-0.74601">
        <ele>149.5</ele>
        <time>2020-11-15T08:30:58Z</time>
      </trkpt>
      <trkpt lat="46.72059" lon="-0.74615">
        <ele>149.5</ele>
        <time>2020-11-15T08:31:00Z</time>
      </trkpt>
      <trkpt lat="46.72059" lon="-0.74623">
        <ele>149.4</ele>
        <time>2020-11-15T08:31:01Z</time>
      </trkpt>
      <trkpt lat="46.7206" lon="-0.74631">
        <ele>149.4</ele>
        <time>2020-11-15T08:31:02Z</time>
      </trkpt>
      <trkpt lat="46.72061" lon="-0.74645">
        <ele>149.4</ele>
        <time>2020-11-15T08:31:04Z</time>
      </trkpt>
      <trkpt lat="46.72062" lon="-0.74652">
        <ele>149.4</ele>
        <time>2020-11-15T08:31:05Z</time>
      </trkpt>
      <trkpt lat="46.72064" lon="-0.74658">
        <ele>149.3</ele>
        <time>2020-11-15T08:31:06Z</time>
      </trkpt>
      <trkpt lat="46.72065" lon="-0.74665">
        <ele>149.3</ele>
        <time>2020-11-15T08:31:07Z</time>
      </trkpt>
      <trkpt lat="46.72067" lon="-0.74672">
        <ele>149.3</ele>
        <time>2020-11-15T08:31:08Z</time>
      </trkpt>
      <trkpt lat="46.72069" lon="-0.74685">
        <ele>149.3</ele>
        <time>2020-11-15T08:31:10Z</time>
      </trkpt>
      <trkpt lat="46.7207" lon="-0.74691">
        <ele>149.2</ele>
        <time>2020-11-15T08:31:11Z</time>
      </trkpt>
      <trkpt lat="46.72072" lon="-0.74698">
        <ele>149.2</ele>
        <time>2020-11-15T08:31:12Z</time>
      </trkpt>
      <trkpt lat="46.72074" lon="-0.74711">
        <ele>149.2</ele>
        <time>2020-11-15T08:31:14Z</time>
      </trkpt>
      <trkpt lat="46.72073" lon="-0.74725">
        <ele>149.1</ele>
        <time>2020-11-15T08:31:16Z</time>
      </trkpt>
      <trkpt lat="46.7207" lon="-0.74737">
        <ele>149.1</ele>
        <time>2020-11-15T08:31:18Z</time>
      </trkpt>
      <trkpt lat="46.72066" lon="-0.74741">
        <ele>149.1</ele>
        <time>2020-11-15T08:31:19Z</time>
      </trkpt>
      <trkpt lat="46.72061" lon="-0.74745">
        <ele>149.1</ele>
        <time>2020-11-15T08:31:20Z</time>
      </trkpt>
      <trkpt lat="46.72051" lon="-0.74751">
        <ele>149</ele>
        <time>2020-11-15T08:31:22Z</time>
      </trkpt>
      <trkpt lat="46.72047" lon="-0.74753">
        <ele>149</ele>
        <time>2020-11-15T08:31:23Z</time>
      </trkpt>
      <trkpt lat="46.72043" lon="-0.74754">
        <ele>149</ele>
        <time>2020-11-15T08:31:24Z</time>
      </trkpt>
      <trkpt lat="46.72038" lon="-0.74755">
        <ele>148.9</ele>
        <time>2020-11-15T08:31:25Z</time>
      </trkpt>
      <trkpt lat="46.72033" lon="-0.74757">
        <ele>148.9</ele>
        <time>2020-11-15T08:31:26Z</time>
      </trkpt>
      <trkpt lat="46.72028" lon="-0.7476">
        <ele>148.9</ele>
        <time>2020-11-15T08:31:27Z</time>
      </trkpt>
      <trkpt lat="46.72023" lon="-0.74762">
        <ele>148.9</ele>
        <time>2020-11-15T08:31:28Z</time>
      </trkpt>
      <trkpt lat="46.72019" lon="-0.74765">
        <ele>148.9</ele>
        <time>2020-11-15T08:31:29Z</time>
      </trkpt>
      <trkpt lat="46.72014" lon="-0.74768">
        <ele>148.8</ele>
        <time>2020-11-15T08:31:30Z</time>
      </trkpt>
      <trkpt lat="46.72005" lon="-0.74776">
        <ele>148.8</ele>
        <time>2020-11-15T08:31:32Z</time>
      </trkpt>
      <trkpt lat="46.72" lon="-0.74781">
        <ele>148.8</ele>
        <time>2020-11-15T08:31:33Z</time>
      </trkpt>
      <trkpt lat="46.71996" lon="-0.74786">
        <ele>148.7</ele>
        <time>2020-11-15T08:31:34Z</time>
      </trkpt>
      <trkpt lat="46.71988" lon="-0.74796">
        <ele>148.7</ele>
        <time>2020-11-15T08:31:36Z</time>
      </trkpt>
      <trkpt lat="46.71985" lon="-0.74801">
        <ele>148.7</ele>
        <time>2020-11-15T08:31:37Z</time>
      </trkpt>
      <trkpt lat="46.71981" lon="-0.74805">
        <ele>148.6</ele>
        <time>2020-11-15T08:31:38Z</time>
      </trkpt>
      <trkpt lat="46.71974" lon="-0.74814">
        <ele>148.6</ele>
        <time>2020-11-15T08:31:40Z</time>
      </trkpt>
      <trkpt lat="46.71968" lon="-0.74823">
        <ele>148.6</ele>
        <time>2020-11-15T08:31:42Z</time>
      </trkpt>
      <trkpt lat="46.71965" lon="-0.74828">
        <ele>148.6</ele>
        <time>2020-11-15T08:31:43Z</time>
      </trkpt>
      <trkpt lat="46.71962" lon="-0.74832">
        <ele>148.5</ele>
        <time>2020-11-15T08:31:44Z</time>
      </trkpt>
      <trkpt lat="46.71956" lon="-0.7484">
        <ele>148.5</ele>
        <time>2020-11-15T08:31:46Z</time>
      </trkpt>
      <trkpt lat="46.7195" lon="-0.74848">
        <ele>148.5</ele>
        <time>2020-11-15T08:31:48Z</time>
      </trkpt>
      <trkpt lat="46.71943" lon="-0.74857">
        <ele>148.4</ele>
        <time>2020-11-15T08:31:50Z</time>
      </trkpt>
      <trkpt lat="46.71936" lon="-0.74864">
        <ele>148.4</ele>
        <time>2020-11-15T08:31:52Z</time>
      </trkpt>
      <trkpt lat="46.71928" lon="-0.74873">
        <ele>148.3</ele>
        <time>2020-11-15T08:31:54Z</time>
      </trkpt>
      <trkpt lat="46.71925" lon="-0.74878">
        <ele>148.3</ele>
        <time>2020-11-15T08:31:55Z</time>
      </trkpt>
      <trkpt lat="46.71921" lon="-0.74883">
        <ele>148.3</ele>
        <time>2020-11-15T08:31:56Z</time>
      </trkpt>
      <trkpt lat="46.71918" lon="-0.74887">
        <ele>148.3</ele>
        <time>2020-11-15T08:31:57Z</time>
      </trkpt>
      <trkpt lat="46.71914" lon="-0.74891">
        <ele>148.3</ele>
        <time>2020-11-15T08:31:58Z</time>
      </trkpt>
      <trkpt lat="46.71906" lon="-0.74899">
        <ele>148.2</ele>
        <time>2020-11-15T08:32:00Z</time>
      </trkpt>
      <trkpt lat="46.71902" lon="-0.74903">
        <ele>148.2</ele>
        <time>2020-11-15T08:32:01Z</time>
      </trkpt>
      <trkpt lat="46.71899" lon="-0.74907">
        <ele>148.2</ele>
        <time>2020-11-15T08:32:02Z</time>
      </trkpt>
      <trkpt lat="46.7189" lon="-0.74915">
        <ele>148.1</ele>
        <time>2020-11-15T08:32:04Z</time>
      </trkpt>
      <trkpt lat="46.71882" lon="-0.74921">
        <ele>148.1</ele>
        <time>2020-11-15T08:32:06Z</time>
      </trkpt>
      <trkpt lat="46.71874" lon="-0.74927">
        <ele>148.1</ele>
        <time>2020-11-15T08:32:08Z</time>
      </trkpt>
      <trkpt lat="46.7187" lon="-0.74929">
        <ele>148</ele>
        <time>2020-11-15T08:32:09Z</time>
      </trkpt>
      <trkpt lat="46.71865" lon="-0.74931">
        <ele>148</ele>
        <time>2020-11-15T08:32:10Z</time>
      </trkpt>
      <trkpt lat="46.71857" lon="-0.74934">
        <ele>148</ele>
        <time>2020-11-15T08:32:12Z</time>
      </trkpt>
      <trkpt lat="46.71848" lon="-0.74937">
        <ele>147.9</ele>
        <time>2020-11-15T08:32:14Z</time>
      </trkpt>
      <trkpt lat="46.71839" lon="-0.74938">
        <ele>147.9</ele>
        <time>2020-11-15T08:32:16Z</time>
      </trkpt>
      <trkpt lat="46.7183" lon="-0.74938">
        <ele>147.9</ele>
        <time>2020-11-15T08:32:18Z</time>
      </trkpt>
      <trkpt lat="46.71821" lon="-0.74936">
        <ele>147.8</ele>
        <time>2020-11-15T08:32:20Z</time>
      </trkpt>
      <trkpt lat="46.71811" lon="-0.74932">
        <ele>147.8</ele>
        <time>2020-11-15T08:32:22Z</time>
      </trkpt>
      <trkpt lat="46.718" lon="-0.74927">
        <ele>147.7</ele>
        <time>2020-11-15T08:32:24Z</time>
      </trkpt>
      <trkpt lat="46.71788" lon="-0.74921">
        <ele>147.7</ele>
        <time>2020-11-15T08:32:26Z</time>
      </trkpt>
      <trkpt lat="46.71783" lon="-0.74919">
        <ele>147.6</ele>
        <time>2020-11-15T08:32:27Z</time>
      </trkpt>
      <trkpt lat="46.71777" lon="-0.74917">
        <ele>147.6</ele>
        <time>2020-11-15T08:32:28Z</time>
      </trkpt>
      <trkpt lat="46.71772" lon="-0.74916">
        <ele>147.6</ele>
        <time>2020-11-15T08:32:29Z</time>
      </trkpt>
      <trkpt lat="46.71767" lon="-0.74917">
        <ele>147.6</ele>
        <time>2020-11-15T08:32:30Z</time>
      </trkpt>
      <trkpt lat="46.71763" lon="-0.7492">
        <ele>148.2</ele>
        <time>2020-11-15T08:32:31Z</time>
      </trkpt>
      <trkpt lat="46.7176" lon="-0.74925">
        <ele>148.5</ele>
        <time>2020-11-15T08:32:32Z</time>
      </trkpt>
      <trkpt lat="46.71758" lon="-0.74929">
        <ele>148.6</ele>
        <time>2020-11-15T08:32:33Z</time>
      </trkpt>
      <trkpt lat="46.71757" lon="-0.74934">
        <ele>148.8</ele>
        <time>2020-11-15T08:32:34Z</time>
      </trkpt>
      <trkpt lat="46.71754" lon="-0.74942">
        <ele>149.1</ele>
        <time>2020-11-15T08:32:36Z</time>
      </trkpt>
      <trkpt lat="46.71751" lon="-0.74951">
        <ele>149.3</ele>
        <time>2020-11-15T08:32:38Z</time>
      </trkpt>
      <trkpt lat="46.7175" lon="-0.74959">
        <ele>149.5</ele>
        <time>2020-11-15T08:32:40Z</time>
      </trkpt>
      <trkpt lat="46.71747" lon="-0.74968">
        <ele>149.7</ele>
        <time>2020-11-15T08:32:42Z</time>
      </trkpt>
      <trkpt lat="46.71745" lon="-0.74978">
        <ele>150</ele>
        <time>2020-11-15T08:32:44Z</time>
      </trkpt>
      <trkpt lat="46.71744" lon="-0.74983">
        <ele>150.1</ele>
        <time>2020-11-15T08:32:45Z</time>
      </trkpt>
      <trkpt lat="46.71743" lon="-0.74988">
        <ele>150.2</ele>
        <time>2020-11-15T08:32:46Z</time>
      </trkpt>
      <trkpt lat="46.71742" lon="-0.74997">
        <ele>150.5</ele>
        <time>2020-11-15T08:32:48Z</time>
      </trkpt>
      <trkpt lat="46.7174" lon="-0.75007">
        <ele>150.8</ele>
        <time>2020-11-15T08:32:50Z</time>
      </trkpt>
      <trkpt lat="46.71739" lon="-0.75012">
        <ele>150.9</ele>
        <time>2020-11-15T08:32:51Z</time>
      </trkpt>
      <trkpt lat="46.71738" lon="-0.75016">
        <ele>151</ele>
        <time>2020-11-15T08:32:52Z</time>
      </trkpt>
      <trkpt lat="46.71733" lon="-0.75026">
        <ele>151.2</ele>
        <time>2020-11-15T08:32:54Z</time>
      </trkpt>
      <trkpt lat="46.71731" lon="-0.7503">
        <ele>151.3</ele>
        <time>2020-11-15T08:32:55Z</time>
      </trkpt>
      <trkpt lat="46.71728" lon="-0.75034">
        <ele>151.4</ele>
        <time>2020-11-15T08:32:56Z</time>
      </trkpt>
      <trkpt lat="46.71722" lon="-0.7504">
        <ele>151.6</ele>
        <time>2020-11-15T08:32:58Z</time>
      </trkpt>
      <trkpt lat="46.71716" lon="-0.75046">
        <ele>151.7</ele>
        <time>2020-11-15T08:33:00Z</time>
      </trkpt>
      <trkpt lat="46.71713" lon="-0.75049">
        <ele>151.8</ele>
        <time>2020-11-15T08:33:01Z</time>
      </trkpt>
      <trkpt lat="46.7171" lon="-0.75052">
        <ele>151.9</ele>
        <time>2020-11-15T08:33:02Z</time>
      </trkpt>
      <trkpt lat="46.71704" lon="-0.75059">
        <ele>152.1</ele>
        <time>2020-11-15T08:33:04Z</time>
      </trkpt>
      <trkpt lat="46.717" lon="-0.75066">
        <ele>152.3</ele>
        <time>2020-11-15T08:33:06Z</time>
      </trkpt>
      <trkpt lat="46.71697" lon="-0.75071">
        <ele>152.5</ele>
        <time>2020-11-15T08:33:07Z</time>
      </trkpt>
      <trkpt lat="46.71695" lon="-0.75076">
        <ele>152.6</ele>
        <time>2020-11-15T08:33:08Z</time>
      </trkpt>
      <trkpt lat="46.71691" lon="-0.75086">
        <ele>152.8</ele>
        <time>2020-11-15T08:33:10Z</time>
      </trkpt>
      <trkpt lat="46.71688" lon="-0.75096">
        <ele>153</ele>
        <time>2020-11-15T08:33:12Z</time>
      </trkpt>
      <trkpt lat="46.71685" lon="-0.75105">
        <ele>153.1</ele>
        <time>2020-11-15T08:33:14Z</time>
      </trkpt>
      <trkpt lat="46.71683" lon="-0.75115">
        <ele>153.2</ele>
        <time>2020-11-15T08:33:16Z</time>
      </trkpt>
      <trkpt lat="46.71681" lon="-0.75125">
        <ele>153.2</ele>
        <time>2020-11-15T08:33:18Z</time>
      </trkpt>
      <trkpt lat="46.71681" lon="-0.75134">
        <ele>153.2</ele>
        <time>2020-11-15T08:33:20Z</time>
      </trkpt>
      <trkpt lat="46.71681" lon="-0.75138">
        <ele>153.2</ele>
        <time>2020-11-15T08:33:21Z</time>
      </trkpt>
      <trkpt lat="46.71682" lon="-0.75141">
        <ele>153.2</ele>
        <time>2020-11-15T08:33:22Z</time>
      </trkpt>
      <trkpt lat="46.71684" lon="-0.75144">
        <ele>153.3</ele>
        <time>2020-11-15T08:33:24Z</time>
      </trkpt>
      <trkpt lat="46.71685" lon="-0.75145">
        <ele>153.4</ele>
        <time>2020-11-15T08:33:25Z</time>
      </trkpt>
      <trkpt lat="46.71686" lon="-0.75146">
        <ele>153.4</ele>
        <time>2020-11-15T08:33:26Z</time>
      </trkpt>
      <trkpt lat="46.71687" lon="-0.7515">
        <ele>153.4</ele>
        <time>2020-11-15T08:33:28Z</time>
      </trkpt>
      <trkpt lat="46.71687" lon="-0.75152">
        <ele>153.5</ele>
        <time>2020-11-15T08:33:29Z</time>
      </trkpt>
      <trkpt lat="46.71687" lon="-0.75154">
        <ele>153.5</ele>
        <time>2020-11-15T08:33:30Z</time>
      </trkpt>
      <trkpt lat="46.71687" lon="-0.75157">
        <ele>153.5</ele>
        <time>2020-11-15T08:33:31Z</time>
      </trkpt>
      <trkpt lat="46.71688" lon="-0.75161">
        <ele>153.5</ele>
        <time>2020-11-15T08:33:32Z</time>
      </trkpt>
      <trkpt lat="46.7169" lon="-0.75171">
        <ele>153.6</ele>
        <time>2020-11-15T08:33:34Z</time>
      </trkpt>
      <trkpt lat="46.71691" lon="-0.75181">
        <ele>153.7</ele>
        <time>2020-11-15T08:33:36Z</time>
      </trkpt>
      <trkpt lat="46.71692" lon="-0.75192">
        <ele>153.8</ele>
        <time>2020-11-15T08:33:38Z</time>
      </trkpt>
      <trkpt lat="46.71693" lon="-0.75204">
        <ele>154</ele>
        <time>2020-11-15T08:33:40Z</time>
      </trkpt>
      <trkpt lat="46.71693" lon="-0.75216">
        <ele>154</ele>
        <time>2020-11-15T08:33:42Z</time>
      </trkpt>
      <trkpt lat="46.71693" lon="-0.75223">
        <ele>153.9</ele>
        <time>2020-11-15T08:33:43Z</time>
      </trkpt>
      <trkpt lat="46.71694" lon="-0.75229">
        <ele>153.9</ele>
        <time>2020-11-15T08:33:44Z</time>
      </trkpt>
      <trkpt lat="46.71694" lon="-0.75243">
        <ele>153.8</ele>
        <time>2020-11-15T08:33:46Z</time>
      </trkpt>
      <trkpt lat="46.71695" lon="-0.75258">
        <ele>153.7</ele>
        <time>2020-11-15T08:33:48Z</time>
      </trkpt>
      <trkpt lat="46.71694" lon="-0.75272">
        <ele>153.5</ele>
        <time>2020-11-15T08:33:50Z</time>
      </trkpt>
      <trkpt lat="46.71692" lon="-0.75287">
        <ele>153.3</ele>
        <time>2020-11-15T08:33:52Z</time>
      </trkpt>
      <trkpt lat="46.7169" lon="-0.75301">
        <ele>153.1</ele>
        <time>2020-11-15T08:33:54Z</time>
      </trkpt>
      <trkpt lat="46.71689" lon="-0.75308">
        <ele>153</ele>
        <time>2020-11-15T08:33:55Z</time>
      </trkpt>
      <trkpt lat="46.71687" lon="-0.75315">
        <ele>152.9</ele>
        <time>2020-11-15T08:33:56Z</time>
      </trkpt>
      <trkpt lat="46.71684" lon="-0.7533">
        <ele>152.6</ele>
        <time>2020-11-15T08:33:58Z</time>
      </trkpt>
      <trkpt lat="46.7168" lon="-0.75345">
        <ele>152.5</ele>
        <time>2020-11-15T08:34:00Z</time>
      </trkpt>
      <trkpt lat="46.71675" lon="-0.7536">
        <ele>152.1</ele>
        <time>2020-11-15T08:34:02Z</time>
      </trkpt>
      <trkpt lat="46.71669" lon="-0.75375">
        <ele>151.5</ele>
        <time>2020-11-15T08:34:04Z</time>
      </trkpt>
      <trkpt lat="46.71661" lon="-0.75391">
        <ele>151</ele>
        <time>2020-11-15T08:34:06Z</time>
      </trkpt>
      <trkpt lat="46.71654" lon="-0.75408">
        <ele>150.6</ele>
        <time>2020-11-15T08:34:08Z</time>
      </trkpt>
      <trkpt lat="46.71647" lon="-0.75426">
        <ele>150.3</ele>
        <time>2020-11-15T08:34:10Z</time>
      </trkpt>
      <trkpt lat="46.71641" lon="-0.75445">
        <ele>150.3</ele>
        <time>2020-11-15T08:34:12Z</time>
      </trkpt>
      <trkpt lat="46.71639" lon="-0.75454">
        <ele>150.4</ele>
        <time>2020-11-15T08:34:13Z</time>
      </trkpt>
      <trkpt lat="46.71638" lon="-0.75463">
        <ele>150.4</ele>
        <time>2020-11-15T08:34:14Z</time>
      </trkpt>
      <trkpt lat="46.71635" lon="-0.75481">
        <ele>150.6</ele>
        <time>2020-11-15T08:34:16Z</time>
      </trkpt>
      <trkpt lat="46.71633" lon="-0.75498">
        <ele>150.6</ele>
        <time>2020-11-15T08:34:18Z</time>
      </trkpt>
      <trkpt lat="46.71631" lon="-0.75514">
        <ele>150.7</ele>
        <time>2020-11-15T08:34:20Z</time>
      </trkpt>
      <trkpt lat="46.71631" lon="-0.75531">
        <ele>150.8</ele>
        <time>2020-11-15T08:34:22Z</time>
      </trkpt>
      <trkpt lat="46.71631" lon="-0.75539">
        <ele>150.9</ele>
        <time>2020-11-15T08:34:23Z</time>
      </trkpt>
      <trkpt lat="46.71633" lon="-0.75547">
        <ele>151</ele>
        <time>2020-11-15T08:34:24Z</time>
      </trkpt>
      <trkpt lat="46.71634" lon="-0.75555">
        <ele>151</ele>
        <time>2020-11-15T08:34:25Z</time>
      </trkpt>
      <trkpt lat="46.71636" lon="-0.75562">
        <ele>151.1</ele>
        <time>2020-11-15T08:34:26Z</time>
      </trkpt>
      <trkpt lat="46.71641" lon="-0.75577">
        <ele>151.3</ele>
        <time>2020-11-15T08:34:28Z</time>
      </trkpt>
      <trkpt lat="46.71647" lon="-0.75591">
        <ele>151.6</ele>
        <time>2020-11-15T08:34:30Z</time>
      </trkpt>
      <trkpt lat="46.7165" lon="-0.75597">
        <ele>151.7</ele>
        <time>2020-11-15T08:34:31Z</time>
      </trkpt>
      <trkpt lat="46.71653" lon="-0.75604">
        <ele>151.8</ele>
        <time>2020-11-15T08:34:32Z</time>
      </trkpt>
      <trkpt lat="46.71659" lon="-0.75616">
        <ele>151.9</ele>
        <time>2020-11-15T08:34:34Z</time>
      </trkpt>
      <trkpt lat="46.71665" lon="-0.75629">
        <ele>152.1</ele>
        <time>2020-11-15T08:34:36Z</time>
      </trkpt>
      <trkpt lat="46.71672" lon="-0.7564">
        <ele>152.3</ele>
        <time>2020-11-15T08:34:38Z</time>
      </trkpt>
      <trkpt lat="46.71675" lon="-0.75646">
        <ele>152.3</ele>
        <time>2020-11-15T08:34:39Z</time>
      </trkpt>
      <trkpt lat="46.71678" lon="-0.75653">
        <ele>152.3</ele>
        <time>2020-11-15T08:34:40Z</time>
      </trkpt>
      <trkpt lat="46.71683" lon="-0.75666">
        <ele>152.3</ele>
        <time>2020-11-15T08:34:42Z</time>
      </trkpt>
      <trkpt lat="46.71688" lon="-0.75679">
        <ele>152.3</ele>
        <time>2020-11-15T08:34:44Z</time>
      </trkpt>
      <trkpt lat="46.71693" lon="-0.75693">
        <ele>152.4</ele>
        <time>2020-11-15T08:34:46Z</time>
      </trkpt>
      <trkpt lat="46.71698" lon="-0.75707">
        <ele>152.3</ele>
        <time>2020-11-15T08:34:48Z</time>
      </trkpt>
      <trkpt lat="46.717" lon="-0.75715">
        <ele>152.2</ele>
        <time>2020-11-15T08:34:49Z</time>
      </trkpt>
      <trkpt lat="46.71701" lon="-0.75723">
        <ele>152.1</ele>
        <time>2020-11-15T08:34:50Z</time>
      </trkpt>
      <trkpt lat="46.71703" lon="-0.75731">
        <ele>152</ele>
        <time>2020-11-15T08:34:51Z</time>
      </trkpt>
      <trkpt lat="46.71704" lon="-0.75739">
        <ele>151.9</ele>
        <time>2020-11-15T08:34:52Z</time>
      </trkpt>
      <trkpt lat="46.71704" lon="-0.75757">
        <ele>151.7</ele>
        <time>2020-11-15T08:34:54Z</time>
      </trkpt>
      <trkpt lat="46.71704" lon="-0.75767">
        <ele>151.6</ele>
        <time>2020-11-15T08:34:55Z</time>
      </trkpt>
      <trkpt lat="46.71704" lon="-0.75776">
        <ele>151.5</ele>
        <time>2020-11-15T08:34:56Z</time>
      </trkpt>
      <trkpt lat="46.71705" lon="-0.75794">
        <ele>151.1</ele>
        <time>2020-11-15T08:34:58Z</time>
      </trkpt>
      <trkpt lat="46.71707" lon="-0.75813">
        <ele>150.6</ele>
        <time>2020-11-15T08:35:00Z</time>
      </trkpt>
      <trkpt lat="46.71709" lon="-0.75823">
        <ele>150.6</ele>
        <time>2020-11-15T08:35:01Z</time>
      </trkpt>
      <trkpt lat="46.71712" lon="-0.75832">
        <ele>150.6</ele>
        <time>2020-11-15T08:35:02Z</time>
      </trkpt>
      <trkpt lat="46.71718" lon="-0.7585">
        <ele>151</ele>
        <time>2020-11-15T08:35:04Z</time>
      </trkpt>
      <trkpt lat="46.71724" lon="-0.75864">
        <ele>151.4</ele>
        <time>2020-11-15T08:35:06Z</time>
      </trkpt>
      <trkpt lat="46.71726" lon="-0.75871">
        <ele>151.6</ele>
        <time>2020-11-15T08:35:07Z</time>
      </trkpt>
      <trkpt lat="46.71729" lon="-0.75877">
        <ele>151.9</ele>
        <time>2020-11-15T08:35:08Z</time>
      </trkpt>
      <trkpt lat="46.71734" lon="-0.7589">
        <ele>152.3</ele>
        <time>2020-11-15T08:35:10Z</time>
      </trkpt>
      <trkpt lat="46.71736" lon="-0.75896">
        <ele>152.6</ele>
        <time>2020-11-15T08:35:11Z</time>
      </trkpt>
      <trkpt lat="46.71739" lon="-0.75901">
        <ele>152.8</ele>
        <time>2020-11-15T08:35:12Z</time>
      </trkpt>
      <trkpt lat="46.71743" lon="-0.75913">
        <ele>153.3</ele>
        <time>2020-11-15T08:35:14Z</time>
      </trkpt>
      <trkpt lat="46.71747" lon="-0.75925">
        <ele>153.8</ele>
        <time>2020-11-15T08:35:16Z</time>
      </trkpt>
      <trkpt lat="46.71752" lon="-0.75938">
        <ele>154.3</ele>
        <time>2020-11-15T08:35:18Z</time>
      </trkpt>
      <trkpt lat="46.71754" lon="-0.75944">
        <ele>154.5</ele>
        <time>2020-11-15T08:35:19Z</time>
      </trkpt>
      <trkpt lat="46.71756" lon="-0.75951">
        <ele>154.7</ele>
        <time>2020-11-15T08:35:20Z</time>
      </trkpt>
      <trkpt lat="46.7176" lon="-0.75965">
        <ele>155</ele>
        <time>2020-11-15T08:35:22Z</time>
      </trkpt>
      <trkpt lat="46.71763" lon="-0.75978">
        <ele>155.4</ele>
        <time>2020-11-15T08:35:24Z</time>
      </trkpt>
      <trkpt lat="46.71766" lon="-0.75992">
        <ele>155.6</ele>
        <time>2020-11-15T08:35:26Z</time>
      </trkpt>
      <trkpt lat="46.71768" lon="-0.75999">
        <ele>155.7</ele>
        <time>2020-11-15T08:35:27Z</time>
      </trkpt>
      <trkpt lat="46.71769" lon="-0.76007">
        <ele>155.8</ele>
        <time>2020-11-15T08:35:28Z</time>
      </trkpt>
      <trkpt lat="46.71771" lon="-0.76021">
        <ele>155.9</ele>
        <time>2020-11-15T08:35:30Z</time>
      </trkpt>
      <trkpt lat="46.71774" lon="-0.76035">
        <ele>156</ele>
        <time>2020-11-15T08:35:32Z</time>
      </trkpt>
      <trkpt lat="46.71778" lon="-0.76049">
        <ele>155.9</ele>
        <time>2020-11-15T08:35:34Z</time>
      </trkpt>
      <trkpt lat="46.71782" lon="-0.76063">
        <ele>155.8</ele>
        <time>2020-11-15T08:35:36Z</time>
      </trkpt>
      <trkpt lat="46.71787" lon="-0.76077">
        <ele>155.7</ele>
        <time>2020-11-15T08:35:38Z</time>
      </trkpt>
      <trkpt lat="46.71792" lon="-0.76091">
        <ele>155.6</ele>
        <time>2020-11-15T08:35:40Z</time>
      </trkpt>
      <trkpt lat="46.71797" lon="-0.76106">
        <ele>155.3</ele>
        <time>2020-11-15T08:35:42Z</time>
      </trkpt>
      <trkpt lat="46.718" lon="-0.76113">
        <ele>155.2</ele>
        <time>2020-11-15T08:35:43Z</time>
      </trkpt>
      <trkpt lat="46.71803" lon="-0.76122">
        <ele>154.9</ele>
        <time>2020-11-15T08:35:44Z</time>
      </trkpt>
      <trkpt lat="46.71809" lon="-0.76138">
        <ele>154.5</ele>
        <time>2020-11-15T08:35:46Z</time>
      </trkpt>
      <trkpt lat="46.71815" lon="-0.76154">
        <ele>153.8</ele>
        <time>2020-11-15T08:35:48Z</time>
      </trkpt>
      <trkpt lat="46.71818" lon="-0.76163">
        <ele>153.3</ele>
        <time>2020-11-15T08:35:49Z</time>
      </trkpt>
      <trkpt lat="46.71822" lon="-0.76172">
        <ele>153</ele>
        <time>2020-11-15T08:35:50Z</time>
      </trkpt>
      <trkpt lat="46.71828" lon="-0.7619">
        <ele>152.5</ele>
        <time>2020-11-15T08:35:52Z</time>
      </trkpt>
      <trkpt lat="46.71834" lon="-0.76209">
        <ele>151.9</ele>
        <time>2020-11-15T08:35:54Z</time>
      </trkpt>
      <trkpt lat="46.71839" lon="-0.76229">
        <ele>151.3</ele>
        <time>2020-11-15T08:35:56Z</time>
      </trkpt>
      <trkpt lat="46.71843" lon="-0.76248">
        <ele>150.9</ele>
        <time>2020-11-15T08:35:58Z</time>
      </trkpt>
      <trkpt lat="46.71847" lon="-0.76267">
        <ele>150.3</ele>
        <time>2020-11-15T08:36:00Z</time>
      </trkpt>
      <trkpt lat="46.7185" lon="-0.76276">
        <ele>150.2</ele>
        <time>2020-11-15T08:36:01Z</time>
      </trkpt>
      <trkpt lat="46.71853" lon="-0.76285">
        <ele>150.2</ele>
        <time>2020-11-15T08:36:02Z</time>
      </trkpt>
      <trkpt lat="46.71856" lon="-0.76293">
        <ele>150.3</ele>
        <time>2020-11-15T08:36:03Z</time>
      </trkpt>
      <trkpt lat="46.7186" lon="-0.76301">
        <ele>150.4</ele>
        <time>2020-11-15T08:36:04Z</time>
      </trkpt>
      <trkpt lat="46.71868" lon="-0.76314">
        <ele>150.8</ele>
        <time>2020-11-15T08:36:06Z</time>
      </trkpt>
      <trkpt lat="46.71871" lon="-0.76319">
        <ele>150.9</ele>
        <time>2020-11-15T08:36:07Z</time>
      </trkpt>
      <trkpt lat="46.71876" lon="-0.76323">
        <ele>151.1</ele>
        <time>2020-11-15T08:36:08Z</time>
      </trkpt>
      <trkpt lat="46.71884" lon="-0.76332">
        <ele>151.2</ele>
        <time>2020-11-15T08:36:10Z</time>
      </trkpt>
      <trkpt lat="46.71888" lon="-0.76336">
        <ele>151.2</ele>
        <time>2020-11-15T08:36:11Z</time>
      </trkpt>
      <trkpt lat="46.71892" lon="-0.7634">
        <ele>151.7</ele>
        <time>2020-11-15T08:36:12Z</time>
      </trkpt>
      <trkpt lat="46.71899" lon="-0.76346">
        <ele>152.6</ele>
        <time>2020-11-15T08:36:14Z</time>
      </trkpt>
      <trkpt lat="46.71901" lon="-0.7635">
        <ele>152.9</ele>
        <time>2020-11-15T08:36:15Z</time>
      </trkpt>
      <trkpt lat="46.71904" lon="-0.76354">
        <ele>153.2</ele>
        <time>2020-11-15T08:36:16Z</time>
      </trkpt>
      <trkpt lat="46.7191" lon="-0.76361">
        <ele>153.8</ele>
        <time>2020-11-15T08:36:18Z</time>
      </trkpt>
      <trkpt lat="46.71915" lon="-0.76369">
        <ele>154.3</ele>
        <time>2020-11-15T08:36:20Z</time>
      </trkpt>
      <trkpt lat="46.71917" lon="-0.76374">
        <ele>154.8</ele>
        <time>2020-11-15T08:36:21Z</time>
      </trkpt>
      <trkpt lat="46.71916" lon="-0.76379">
        <ele>154.8</ele>
        <time>2020-11-15T08:36:22Z</time>
      </trkpt>
      <trkpt lat="46.71911" lon="-0.76387">
        <ele>154.6</ele>
        <time>2020-11-15T08:36:24Z</time>
      </trkpt>
      <trkpt lat="46.71904" lon="-0.76393">
        <ele>154.3</ele>
        <time>2020-11-15T08:36:26Z</time>
      </trkpt>
      <trkpt lat="46.71896" lon="-0.76398">
        <ele>154</ele>
        <time>2020-11-15T08:36:28Z</time>
      </trkpt>
      <trkpt lat="46.71888" lon="-0.76404">
        <ele>153.6</ele>
        <time>2020-11-15T08:36:30Z</time>
      </trkpt>
      <trkpt lat="46.71884" lon="-0.76407">
        <ele>153.4</ele>
        <time>2020-11-15T08:36:31Z</time>
      </trkpt>
      <trkpt lat="46.7188" lon="-0.76409">
        <ele>153.1</ele>
        <time>2020-11-15T08:36:32Z</time>
      </trkpt>
      <trkpt lat="46.71871" lon="-0.76416">
        <ele>152.4</ele>
        <time>2020-11-15T08:36:34Z</time>
      </trkpt>
      <trkpt lat="46.71867" lon="-0.7642">
        <ele>151.9</ele>
        <time>2020-11-15T08:36:35Z</time>
      </trkpt>
      <trkpt lat="46.71862" lon="-0.76425">
        <ele>151.4</ele>
        <time>2020-11-15T08:36:36Z</time>
      </trkpt>
      <trkpt lat="46.71857" lon="-0.7643">
        <ele>150.9</ele>
        <time>2020-11-15T08:36:37Z</time>
      </trkpt>
      <trkpt lat="46.71852" lon="-0.76434">
        <ele>150.4</ele>
        <time>2020-11-15T08:36:38Z</time>
      </trkpt>
      <trkpt lat="46.71841" lon="-0.76445">
        <ele>149.6</ele>
        <time>2020-11-15T08:36:40Z</time>
      </trkpt>
      <trkpt lat="46.7183" lon="-0.76456">
        <ele>149.2</ele>
        <time>2020-11-15T08:36:42Z</time>
      </trkpt>
      <trkpt lat="46.71819" lon="-0.76469">
        <ele>148.9</ele>
        <time>2020-11-15T08:36:44Z</time>
      </trkpt>
      <trkpt lat="46.7181" lon="-0.76483">
        <ele>148.7</ele>
        <time>2020-11-15T08:36:46Z</time>
      </trkpt>
      <trkpt lat="46.71803" lon="-0.76491">
        <ele>148.6</ele>
        <time>2020-11-15T08:36:48Z</time>
      </trkpt>
      <trkpt lat="46.718" lon="-0.76492">
        <ele>148.5</ele>
        <time>2020-11-15T08:36:49Z</time>
      </trkpt>
      <trkpt lat="46.71796" lon="-0.76492">
        <ele>148.4</ele>
        <time>2020-11-15T08:36:50Z</time>
      </trkpt>
      <trkpt lat="46.71789" lon="-0.76494">
        <ele>148.2</ele>
        <time>2020-11-15T08:36:52Z</time>
      </trkpt>
      <trkpt lat="46.71786" lon="-0.76495">
        <ele>148.1</ele>
        <time>2020-11-15T08:36:53Z</time>
      </trkpt>
      <trkpt lat="46.71784" lon="-0.76496">
        <ele>148.1</ele>
        <time>2020-11-15T08:36:54Z</time>
      </trkpt>
      <trkpt lat="46.71779" lon="-0.765">
        <ele>147.9</ele>
        <time>2020-11-15T08:36:56Z</time>
      </trkpt>
      <trkpt lat="46.71771" lon="-0.76505">
        <ele>147.5</ele>
        <time>2020-11-15T08:36:58Z</time>
      </trkpt>
      <trkpt lat="46.71763" lon="-0.76512">
        <ele>147</ele>
        <time>2020-11-15T08:37:00Z</time>
      </trkpt>
      <trkpt lat="46.71753" lon="-0.76521">
        <ele>146</ele>
        <time>2020-11-15T08:37:02Z</time>
      </trkpt>
      <trkpt lat="46.71741" lon="-0.76534">
        <ele>144.9</ele>
        <time>2020-11-15T08:37:04Z</time>
      </trkpt>
      <trkpt lat="46.71729" lon="-0.76549">
        <ele>143.9</ele>
        <time>2020-11-15T08:37:06Z</time>
      </trkpt>
      <trkpt lat="46.71716" lon="-0.76563">
        <ele>143.2</ele>
        <time>2020-11-15T08:37:08Z</time>
      </trkpt>
      <trkpt lat="46.71704" lon="-0.76577">
        <ele>142.6</ele>
        <time>2020-11-15T08:37:10Z</time>
      </trkpt>
      <trkpt lat="46.71693" lon="-0.7659">
        <ele>142</ele>
        <time>2020-11-15T08:37:12Z</time>
      </trkpt>
      <trkpt lat="46.7168" lon="-0.76604">
        <ele>141.2</ele>
        <time>2020-11-15T08:37:14Z</time>
      </trkpt>
      <trkpt lat="46.71669" lon="-0.76616">
        <ele>140.7</ele>
        <time>2020-11-15T08:37:16Z</time>
      </trkpt>
      <trkpt lat="46.7166" lon="-0.76627">
        <ele>140.2</ele>
        <time>2020-11-15T08:37:18Z</time>
      </trkpt>
      <trkpt lat="46.71653" lon="-0.76642">
        <ele>139.8</ele>
        <time>2020-11-15T08:37:20Z</time>
      </trkpt>
      <trkpt lat="46.71652" lon="-0.76651">
        <ele>139.7</ele>
        <time>2020-11-15T08:37:21Z</time>
      </trkpt>
      <trkpt lat="46.71653" lon="-0.7666">
        <ele>139.5</ele>
        <time>2020-11-15T08:37:22Z</time>
      </trkpt>
      <trkpt lat="46.71656" lon="-0.76676">
        <ele>139.2</ele>
        <time>2020-11-15T08:37:24Z</time>
      </trkpt>
      <trkpt lat="46.71657" lon="-0.76684">
        <ele>139.1</ele>
        <time>2020-11-15T08:37:25Z</time>
      </trkpt>
      <trkpt lat="46.71659" lon="-0.76691">
        <ele>138.9</ele>
        <time>2020-11-15T08:37:26Z</time>
      </trkpt>
      <trkpt lat="46.71662" lon="-0.76707">
        <ele>138.5</ele>
        <time>2020-11-15T08:37:28Z</time>
      </trkpt>
      <trkpt lat="46.71662" lon="-0.76715">
        <ele>138.3</ele>
        <time>2020-11-15T08:37:29Z</time>
      </trkpt>
      <trkpt lat="46.71661" lon="-0.76721">
        <ele>138.2</ele>
        <time>2020-11-15T08:37:30Z</time>
      </trkpt>
      <trkpt lat="46.71659" lon="-0.7673">
        <ele>138.1</ele>
        <time>2020-11-15T08:37:32Z</time>
      </trkpt>
      <trkpt lat="46.71657" lon="-0.76733">
        <ele>138</ele>
        <time>2020-11-15T08:37:33Z</time>
      </trkpt>
      <trkpt lat="46.71654" lon="-0.76737">
        <ele>138</ele>
        <time>2020-11-15T08:37:34Z</time>
      </trkpt>
      <trkpt lat="46.71648" lon="-0.76743">
        <ele>138</ele>
        <time>2020-11-15T08:37:36Z</time>
      </trkpt>
      <trkpt lat="46.71645" lon="-0.76747">
        <ele>138</ele>
        <time>2020-11-15T08:37:37Z</time>
      </trkpt>
      <trkpt lat="46.71642" lon="-0.76749">
        <ele>138</ele>
        <time>2020-11-15T08:37:38Z</time>
      </trkpt>
      <trkpt lat="46.71639" lon="-0.76753">
        <ele>138</ele>
        <time>2020-11-15T08:37:40Z</time>
      </trkpt>
      <trkpt lat="46.71638" lon="-0.76754">
        <ele>138</ele>
        <time>2020-11-15T08:37:41Z</time>
      </trkpt>
      <trkpt lat="46.71637" lon="-0.76755">
        <ele>138</ele>
        <time>2020-11-15T08:37:42Z</time>
      </trkpt>
      <trkpt lat="46.71635" lon="-0.76757">
        <ele>138</ele>
        <time>2020-11-15T08:37:44Z</time>
      </trkpt>
      <trkpt lat="46.71631" lon="-0.76759">
        <ele>138.1</ele>
        <time>2020-11-15T08:37:46Z</time>
      </trkpt>
      <trkpt lat="46.7163" lon="-0.7676">
        <ele>138.3</ele>
        <time>2020-11-15T08:37:47Z</time>
      </trkpt>
      <trkpt lat="46.71629" lon="-0.76761">
        <ele>138.3</ele>
        <time>2020-11-15T08:37:48Z</time>
      </trkpt>
      <trkpt lat="46.71628" lon="-0.76763">
        <ele>138.3</ele>
        <time>2020-11-15T08:37:50Z</time>
      </trkpt>
      <trkpt lat="46.71629" lon="-0.76793">
        <ele>138.2</ele>
        <time>2020-11-15T08:38:15Z</time>
      </trkpt>
      <trkpt lat="46.7163" lon="-0.76796">
        <ele>138.2</ele>
        <time>2020-11-15T08:38:16Z</time>
      </trkpt>
      <trkpt lat="46.71632" lon="-0.76801">
        <ele>138.2</ele>
        <time>2020-11-15T08:38:18Z</time>
      </trkpt>
      <trkpt lat="46.71637" lon="-0.7681">
        <ele>137.7</ele>
        <time>2020-11-15T08:38:20Z</time>
      </trkpt>
      <trkpt lat="46.7164" lon="-0.76814">
        <ele>137.8</ele>
        <time>2020-11-15T08:38:21Z</time>
      </trkpt>
      <trkpt lat="46.71644" lon="-0.76818">
        <ele>137.6</ele>
        <time>2020-11-15T08:38:22Z</time>
      </trkpt>
      <trkpt lat="46.71647" lon="-0.76822">
        <ele>137.5</ele>
        <time>2020-11-15T08:38:23Z</time>
      </trkpt>
      <trkpt lat="46.71649" lon="-0.76826">
        <ele>137.5</ele>
        <time>2020-11-15T08:38:24Z</time>
      </trkpt>
      <trkpt lat="46.71653" lon="-0.76831">
        <ele>137.7</ele>
        <time>2020-11-15T08:38:26Z</time>
      </trkpt>
      <trkpt lat="46.71654" lon="-0.76835">
        <ele>137.5</ele>
        <time>2020-11-15T08:38:27Z</time>
      </trkpt>
      <trkpt lat="46.71655" lon="-0.76838">
        <ele>137.7</ele>
        <time>2020-11-15T08:38:28Z</time>
      </trkpt>
      <trkpt lat="46.71656" lon="-0.76842">
        <ele>137.8</ele>
        <time>2020-11-15T08:38:29Z</time>
      </trkpt>
      <trkpt lat="46.71659" lon="-0.76846">
        <ele>138</ele>
        <time>2020-11-15T08:38:30Z</time>
      </trkpt>
      <trkpt lat="46.71662" lon="-0.76849">
        <ele>138.1</ele>
        <time>2020-11-15T08:38:31Z</time>
      </trkpt>
      <trkpt lat="46.71664" lon="-0.76851">
        <ele>138</ele>
        <time>2020-11-15T08:38:32Z</time>
      </trkpt>
      <trkpt lat="46.71669" lon="-0.76853">
        <ele>138</ele>
        <time>2020-11-15T08:38:34Z</time>
      </trkpt>
      <trkpt lat="46.71671" lon="-0.76855">
        <ele>138</ele>
        <time>2020-11-15T08:38:35Z</time>
      </trkpt>
      <trkpt lat="46.71672" lon="-0.76858">
        <ele>138.2</ele>
        <time>2020-11-15T08:38:36Z</time>
      </trkpt>
      <trkpt lat="46.71674" lon="-0.76867">
        <ele>138.5</ele>
        <time>2020-11-15T08:38:38Z</time>
      </trkpt>
      <trkpt lat="46.71675" lon="-0.76871">
        <ele>138.6</ele>
        <time>2020-11-15T08:38:39Z</time>
      </trkpt>
      <trkpt lat="46.71674" lon="-0.76876">
        <ele>138.7</ele>
        <time>2020-11-15T08:38:40Z</time>
      </trkpt>
      <trkpt lat="46.71672" lon="-0.76885">
        <ele>139</ele>
        <time>2020-11-15T08:38:42Z</time>
      </trkpt>
      <trkpt lat="46.71671" lon="-0.76893">
        <ele>139.3</ele>
        <time>2020-11-15T08:38:44Z</time>
      </trkpt>
      <trkpt lat="46.71671" lon="-0.769">
        <ele>139.5</ele>
        <time>2020-11-15T08:38:46Z</time>
      </trkpt>
      <trkpt lat="46.71674" lon="-0.76908">
        <ele>139.4</ele>
        <time>2020-11-15T08:38:48Z</time>
      </trkpt>
      <trkpt lat="46.71676" lon="-0.76911">
        <ele>139.4</ele>
        <time>2020-11-15T08:38:49Z</time>
      </trkpt>
      <trkpt lat="46.71676" lon="-0.76915">
        <ele>139.5</ele>
        <time>2020-11-15T08:38:50Z</time>
      </trkpt>
      <trkpt lat="46.71676" lon="-0.7692">
        <ele>139.5</ele>
        <time>2020-11-15T08:38:51Z</time>
      </trkpt>
      <trkpt lat="46.71678" lon="-0.76924">
        <ele>139.4</ele>
        <time>2020-11-15T08:38:52Z</time>
      </trkpt>
      <trkpt lat="46.71679" lon="-0.76927">
        <ele>139.4</ele>
        <time>2020-11-15T08:38:53Z</time>
      </trkpt>
      <trkpt lat="46.71677" lon="-0.7693">
        <ele>139.5</ele>
        <time>2020-11-15T08:38:54Z</time>
      </trkpt>
      <trkpt lat="46.71675" lon="-0.76935">
        <ele>139.6</ele>
        <time>2020-11-15T08:38:55Z</time>
      </trkpt>
      <trkpt lat="46.71672" lon="-0.76939">
        <ele>139.8</ele>
        <time>2020-11-15T08:38:56Z</time>
      </trkpt>
      <trkpt lat="46.71669" lon="-0.76949">
        <ele>139.9</ele>
        <time>2020-11-15T08:38:58Z</time>
      </trkpt>
      <trkpt lat="46.71669" lon="-0.76953">
        <ele>139.8</ele>
        <time>2020-11-15T08:38:59Z</time>
      </trkpt>
      <trkpt lat="46.71669" lon="-0.76957">
        <ele>139.8</ele>
        <time>2020-11-15T08:39:00Z</time>
      </trkpt>
      <trkpt lat="46.71669" lon="-0.76968">
        <ele>139.6</ele>
        <time>2020-11-15T08:39:02Z</time>
      </trkpt>
      <trkpt lat="46.71668" lon="-0.76977">
        <ele>139.3</ele>
        <time>2020-11-15T08:39:04Z</time>
      </trkpt>
      <trkpt lat="46.71667" lon="-0.76988">
        <ele>139</ele>
        <time>2020-11-15T08:39:06Z</time>
      </trkpt>
      <trkpt lat="46.71667" lon="-0.76997">
        <ele>138.8</ele>
        <time>2020-11-15T08:39:08Z</time>
      </trkpt>
      <trkpt lat="46.71667" lon="-0.77006">
        <ele>138.4</ele>
        <time>2020-11-15T08:39:10Z</time>
      </trkpt>
      <trkpt lat="46.71666" lon="-0.77015">
        <ele>138.1</ele>
        <time>2020-11-15T08:39:12Z</time>
      </trkpt>
      <trkpt lat="46.71665" lon="-0.77025">
        <ele>137.5</ele>
        <time>2020-11-15T08:39:14Z</time>
      </trkpt>
      <trkpt lat="46.71665" lon="-0.7703">
        <ele>137.2</ele>
        <time>2020-11-15T08:39:15Z</time>
      </trkpt>
      <trkpt lat="46.71666" lon="-0.77034">
        <ele>137</ele>
        <time>2020-11-15T08:39:16Z</time>
      </trkpt>
      <trkpt lat="46.71668" lon="-0.77044">
        <ele>136.7</ele>
        <time>2020-11-15T08:39:18Z</time>
      </trkpt>
      <trkpt lat="46.71671" lon="-0.77055">
        <ele>136.3</ele>
        <time>2020-11-15T08:39:20Z</time>
      </trkpt>
      <trkpt lat="46.71676" lon="-0.77067">
        <ele>136.1</ele>
        <time>2020-11-15T08:39:22Z</time>
      </trkpt>
      <trkpt lat="46.71682" lon="-0.77078">
        <ele>135.9</ele>
        <time>2020-11-15T08:39:24Z</time>
      </trkpt>
      <trkpt lat="46.71685" lon="-0.77084">
        <ele>135.9</ele>
        <time>2020-11-15T08:39:25Z</time>
      </trkpt>
      <trkpt lat="46.71686" lon="-0.77091">
        <ele>135.8</ele>
        <time>2020-11-15T08:39:26Z</time>
      </trkpt>
      <trkpt lat="46.71686" lon="-0.77097">
        <ele>135.8</ele>
        <time>2020-11-15T08:39:27Z</time>
      </trkpt>
      <trkpt lat="46.71685" lon="-0.77103">
        <ele>135.7</ele>
        <time>2020-11-15T08:39:28Z</time>
      </trkpt>
      <trkpt lat="46.71686" lon="-0.77112">
        <ele>135.7</ele>
        <time>2020-11-15T08:39:30Z</time>
      </trkpt>
      <trkpt lat="46.71687" lon="-0.77116">
        <ele>135.7</ele>
        <time>2020-11-15T08:39:31Z</time>
      </trkpt>
      <trkpt lat="46.71686" lon="-0.7712">
        <ele>135.7</ele>
        <time>2020-11-15T08:39:32Z</time>
      </trkpt>
      <trkpt lat="46.71684" lon="-0.77125">
        <ele>135.6</ele>
        <time>2020-11-15T08:39:34Z</time>
      </trkpt>
      <trkpt lat="46.71679" lon="-0.77128">
        <ele>135.5</ele>
        <time>2020-11-15T08:39:36Z</time>
      </trkpt>
      <trkpt lat="46.71675" lon="-0.7713">
        <ele>135.5</ele>
        <time>2020-11-15T08:39:38Z</time>
      </trkpt>
      <trkpt lat="46.71673" lon="-0.77132">
        <ele>135.6</ele>
        <time>2020-11-15T08:39:39Z</time>
      </trkpt>
      <trkpt lat="46.71672" lon="-0.77133">
        <ele>135.5</ele>
        <time>2020-11-15T08:39:40Z</time>
      </trkpt>
      <trkpt lat="46.71671" lon="-0.77139">
        <ele>135.5</ele>
        <time>2020-11-15T08:39:42Z</time>
      </trkpt>
      <trkpt lat="46.71671" lon="-0.77141">
        <ele>135.5</ele>
        <time>2020-11-15T08:39:43Z</time>
      </trkpt>
      <trkpt lat="46.71672" lon="-0.77144">
        <ele>135.5</ele>
        <time>2020-11-15T08:39:44Z</time>
      </trkpt>
      <trkpt lat="46.71673" lon="-0.77152">
        <ele>135.4</ele>
        <time>2020-11-15T08:39:46Z</time>
      </trkpt>
      <trkpt lat="46.71673" lon="-0.7716">
        <ele>135.5</ele>
        <time>2020-11-15T08:39:48Z</time>
      </trkpt>
      <trkpt lat="46.71674" lon="-0.77168">
        <ele>135.6</ele>
        <time>2020-11-15T08:39:50Z</time>
      </trkpt>
      <trkpt lat="46.71675" lon="-0.77176">
        <ele>135.7</ele>
        <time>2020-11-15T08:39:52Z</time>
      </trkpt>
      <trkpt lat="46.71675" lon="-0.7718">
        <ele>135.7</ele>
        <time>2020-11-15T08:39:53Z</time>
      </trkpt>
      <trkpt lat="46.71676" lon="-0.77184">
        <ele>135.8</ele>
        <time>2020-11-15T08:39:54Z</time>
      </trkpt>
      <trkpt lat="46.71677" lon="-0.7719">
        <ele>135.9</ele>
        <time>2020-11-15T08:39:56Z</time>
      </trkpt>
      <trkpt lat="46.71679" lon="-0.77197">
        <ele>136.1</ele>
        <time>2020-11-15T08:39:58Z</time>
      </trkpt>
      <trkpt lat="46.71679" lon="-0.77201">
        <ele>136.2</ele>
        <time>2020-11-15T08:39:59Z</time>
      </trkpt>
      <trkpt lat="46.71678" lon="-0.77206">
        <ele>136.3</ele>
        <time>2020-11-15T08:40:00Z</time>
      </trkpt>
      <trkpt lat="46.71678" lon="-0.77214">
        <ele>136.5</ele>
        <time>2020-11-15T08:40:02Z</time>
      </trkpt>
      <trkpt lat="46.71678" lon="-0.77221">
        <ele>136.6</ele>
        <time>2020-11-15T08:40:04Z</time>
      </trkpt>
      <trkpt lat="46.71678" lon="-0.77229">
        <ele>136.9</ele>
        <time>2020-11-15T08:40:06Z</time>
      </trkpt>
      <trkpt lat="46.71677" lon="-0.77237">
        <ele>137.1</ele>
        <time>2020-11-15T08:40:08Z</time>
      </trkpt>
      <trkpt lat="46.71675" lon="-0.77244">
        <ele>137.6</ele>
        <time>2020-11-15T08:40:10Z</time>
      </trkpt>
      <trkpt lat="46.71674" lon="-0.77248">
        <ele>137.8</ele>
        <time>2020-11-15T08:40:11Z</time>
      </trkpt>
      <trkpt lat="46.71674" lon="-0.77251">
        <ele>137.9</ele>
        <time>2020-11-15T08:40:12Z</time>
      </trkpt>
      <trkpt lat="46.71674" lon="-0.77256">
        <ele>138.2</ele>
        <time>2020-11-15T08:40:14Z</time>
      </trkpt>
      <trkpt lat="46.71674" lon="-0.77262">
        <ele>138.4</ele>
        <time>2020-11-15T08:40:16Z</time>
      </trkpt>
      <trkpt lat="46.71674" lon="-0.77264">
        <ele>138.4</ele>
        <time>2020-11-15T08:40:17Z</time>
      </trkpt>
      <trkpt lat="46.71674" lon="-0.77267">
        <ele>138.6</ele>
        <time>2020-11-15T08:40:18Z</time>
      </trkpt>
      <trkpt lat="46.71673" lon="-0.77274">
        <ele>139.1</ele>
        <time>2020-11-15T08:40:20Z</time>
      </trkpt>
      <trkpt lat="46.71673" lon="-0.7728">
        <ele>139.3</ele>
        <time>2020-11-15T08:40:22Z</time>
      </trkpt>
      <trkpt lat="46.71675" lon="-0.77286">
        <ele>139.5</ele>
        <time>2020-11-15T08:40:24Z</time>
      </trkpt>
      <trkpt lat="46.71678" lon="-0.77294">
        <ele>139.6</ele>
        <time>2020-11-15T08:40:26Z</time>
      </trkpt>
      <trkpt lat="46.71679" lon="-0.77297">
        <ele>139.8</ele>
        <time>2020-11-15T08:40:27Z</time>
      </trkpt>
      <trkpt lat="46.71681" lon="-0.773">
        <ele>139.9</ele>
        <time>2020-11-15T08:40:28Z</time>
      </trkpt>
      <trkpt lat="46.71683" lon="-0.77306">
        <ele>139.9</ele>
        <time>2020-11-15T08:40:30Z</time>
      </trkpt>
      <trkpt lat="46.71685" lon="-0.77309">
        <ele>140.1</ele>
        <time>2020-11-15T08:40:31Z</time>
      </trkpt>
      <trkpt lat="46.71685" lon="-0.77312">
        <ele>140.2</ele>
        <time>2020-11-15T08:40:32Z</time>
      </trkpt>
      <trkpt lat="46.71683" lon="-0.77319">
        <ele>140.7</ele>
        <time>2020-11-15T08:40:34Z</time>
      </trkpt>
      <trkpt lat="46.71681" lon="-0.77322">
        <ele>140.9</ele>
        <time>2020-11-15T08:40:35Z</time>
      </trkpt>
      <trkpt lat="46.71679" lon="-0.77323">
        <ele>141.1</ele>
        <time>2020-11-15T08:40:36Z</time>
      </trkpt>
      <trkpt lat="46.71675" lon="-0.77327">
        <ele>141.4</ele>
        <time>2020-11-15T08:40:38Z</time>
      </trkpt>
      <trkpt lat="46.71673" lon="-0.77331">
        <ele>141.9</ele>
        <time>2020-11-15T08:40:40Z</time>
      </trkpt>
      <trkpt lat="46.71672" lon="-0.77334">
        <ele>142.2</ele>
        <time>2020-11-15T08:40:41Z</time>
      </trkpt>
      <trkpt lat="46.71673" lon="-0.77338">
        <ele>142.5</ele>
        <time>2020-11-15T08:40:42Z</time>
      </trkpt>
      <trkpt lat="46.71673" lon="-0.77341">
        <ele>142.5</ele>
        <time>2020-11-15T08:40:43Z</time>
      </trkpt>
      <trkpt lat="46.71675" lon="-0.77344">
        <ele>142.6</ele>
        <time>2020-11-15T08:40:44Z</time>
      </trkpt>
      <trkpt lat="46.71678" lon="-0.77347">
        <ele>142.8</ele>
        <time>2020-11-15T08:40:46Z</time>
      </trkpt>
      <trkpt lat="46.7168" lon="-0.77349">
        <ele>142.8</ele>
        <time>2020-11-15T08:40:47Z</time>
      </trkpt>
      <trkpt lat="46.71682" lon="-0.77351">
        <ele>142.9</ele>
        <time>2020-11-15T08:40:48Z</time>
      </trkpt>
      <trkpt lat="46.71686" lon="-0.77353">
        <ele>142.5</ele>
        <time>2020-11-15T08:40:50Z</time>
      </trkpt>
      <trkpt lat="46.71689" lon="-0.77355">
        <ele>142.6</ele>
        <time>2020-11-15T08:40:52Z</time>
      </trkpt>
      <trkpt lat="46.71693" lon="-0.77359">
        <ele>142.4</ele>
        <time>2020-11-15T08:40:54Z</time>
      </trkpt>
      <trkpt lat="46.71698" lon="-0.77363">
        <ele>142.1</ele>
        <time>2020-11-15T08:40:56Z</time>
      </trkpt>
      <trkpt lat="46.71699" lon="-0.77365">
        <ele>142.4</ele>
        <time>2020-11-15T08:40:57Z</time>
      </trkpt>
      <trkpt lat="46.71701" lon="-0.77366">
        <ele>142.1</ele>
        <time>2020-11-15T08:40:58Z</time>
      </trkpt>
      <trkpt lat="46.71704" lon="-0.77366">
        <ele>141.9</ele>
        <time>2020-11-15T08:41:00Z</time>
      </trkpt>
      <trkpt lat="46.71705" lon="-0.77365">
        <ele>141.9</ele>
        <time>2020-11-15T08:41:01Z</time>
      </trkpt>
      <trkpt lat="46.71706" lon="-0.77364">
        <ele>141.6</ele>
        <time>2020-11-15T08:41:02Z</time>
      </trkpt>
      <trkpt lat="46.71709" lon="-0.77361">
        <ele>141.4</ele>
        <time>2020-11-15T08:41:04Z</time>
      </trkpt>
      <trkpt lat="46.71709" lon="-0.7736">
        <ele>141.5</ele>
        <time>2020-11-15T08:41:06Z</time>
      </trkpt>
      <trkpt lat="46.71712" lon="-0.77354">
        <ele>140.8</ele>
        <time>2020-11-15T08:41:09Z</time>
      </trkpt>
      <trkpt lat="46.71713" lon="-0.77351">
        <ele>140.3</ele>
        <time>2020-11-15T08:41:10Z</time>
      </trkpt>
      <trkpt lat="46.71715" lon="-0.77346">
        <ele>140.1</ele>
        <time>2020-11-15T08:41:11Z</time>
      </trkpt>
      <trkpt lat="46.71717" lon="-0.77341">
        <ele>139.6</ele>
        <time>2020-11-15T08:41:12Z</time>
      </trkpt>
      <trkpt lat="46.71722" lon="-0.7733">
        <ele>138.6</ele>
        <time>2020-11-15T08:41:14Z</time>
      </trkpt>
      <trkpt lat="46.71725" lon="-0.77323">
        <ele>138</ele>
        <time>2020-11-15T08:41:15Z</time>
      </trkpt>
      <trkpt lat="46.71728" lon="-0.77317">
        <ele>137.5</ele>
        <time>2020-11-15T08:41:16Z</time>
      </trkpt>
      <trkpt lat="46.71732" lon="-0.77303">
        <ele>137</ele>
        <time>2020-11-15T08:41:18Z</time>
      </trkpt>
      <trkpt lat="46.71737" lon="-0.7729">
        <ele>136.7</ele>
        <time>2020-11-15T08:41:20Z</time>
      </trkpt>
      <trkpt lat="46.71739" lon="-0.77283">
        <ele>136.6</ele>
        <time>2020-11-15T08:41:21Z</time>
      </trkpt>
      <trkpt lat="46.71741" lon="-0.77279">
        <ele>136.6</ele>
        <time>2020-11-15T08:41:22Z</time>
      </trkpt>
      <trkpt lat="46.71744" lon="-0.77277">
        <ele>136.6</ele>
        <time>2020-11-15T08:41:23Z</time>
      </trkpt>
      <trkpt lat="46.71747" lon="-0.77277">
        <ele>136.6</ele>
        <time>2020-11-15T08:41:24Z</time>
      </trkpt>
      <trkpt lat="46.7175" lon="-0.77279">
        <ele>136.6</ele>
        <time>2020-11-15T08:41:25Z</time>
      </trkpt>
      <trkpt lat="46.71753" lon="-0.77284">
        <ele>136.5</ele>
        <time>2020-11-15T08:41:26Z</time>
      </trkpt>
      <trkpt lat="46.71758" lon="-0.77294">
        <ele>136.5</ele>
        <time>2020-11-15T08:41:28Z</time>
      </trkpt>
      <trkpt lat="46.71761" lon="-0.77299">
        <ele>136.5</ele>
        <time>2020-11-15T08:41:29Z</time>
      </trkpt>
      <trkpt lat="46.71765" lon="-0.77303">
        <ele>136.4</ele>
        <time>2020-11-15T08:41:30Z</time>
      </trkpt>
      <trkpt lat="46.71771" lon="-0.77311">
        <ele>136.3</ele>
        <time>2020-11-15T08:41:32Z</time>
      </trkpt>
      <trkpt lat="46.71778" lon="-0.77318">
        <ele>136.2</ele>
        <time>2020-11-15T08:41:34Z</time>
      </trkpt>
      <trkpt lat="46.71784" lon="-0.77327">
        <ele>136</ele>
        <time>2020-11-15T08:41:36Z</time>
      </trkpt>
      <trkpt lat="46.71787" lon="-0.77331">
        <ele>136</ele>
        <time>2020-11-15T08:41:37Z</time>
      </trkpt>
      <trkpt lat="46.7179" lon="-0.77335">
        <ele>136</ele>
        <time>2020-11-15T08:41:38Z</time>
      </trkpt>
      <trkpt lat="46.71795" lon="-0.77346">
        <ele>136.1</ele>
        <time>2020-11-15T08:41:40Z</time>
      </trkpt>
      <trkpt lat="46.71802" lon="-0.77357">
        <ele>136.2</ele>
        <time>2020-11-15T08:41:42Z</time>
      </trkpt>
      <trkpt lat="46.7181" lon="-0.77367">
        <ele>136.5</ele>
        <time>2020-11-15T08:41:44Z</time>
      </trkpt>
      <trkpt lat="46.71816" lon="-0.77378">
        <ele>136.6</ele>
        <time>2020-11-15T08:41:46Z</time>
      </trkpt>
      <trkpt lat="46.71822" lon="-0.77387">
        <ele>136.8</ele>
        <time>2020-11-15T08:41:48Z</time>
      </trkpt>
      <trkpt lat="46.71827" lon="-0.77397">
        <ele>137</ele>
        <time>2020-11-15T08:41:50Z</time>
      </trkpt>
      <trkpt lat="46.71831" lon="-0.77406">
        <ele>137.3</ele>
        <time>2020-11-15T08:41:52Z</time>
      </trkpt>
      <trkpt lat="46.71835" lon="-0.77415">
        <ele>137.6</ele>
        <time>2020-11-15T08:41:54Z</time>
      </trkpt>
      <trkpt lat="46.71839" lon="-0.77423">
        <ele>138</ele>
        <time>2020-11-15T08:41:56Z</time>
      </trkpt>
      <trkpt lat="46.71841" lon="-0.77431">
        <ele>138.3</ele>
        <time>2020-11-15T08:41:58Z</time>
      </trkpt>
      <trkpt lat="46.71841" lon="-0.77433">
        <ele>138.5</ele>
        <time>2020-11-15T08:41:59Z</time>
      </trkpt>
      <trkpt lat="46.71841" lon="-0.77436">
        <ele>138.5</ele>
        <time>2020-11-15T08:42:00Z</time>
      </trkpt>
      <trkpt lat="46.71842" lon="-0.77438">
        <ele>138.6</ele>
        <time>2020-11-15T08:42:01Z</time>
      </trkpt>
      <trkpt lat="46.71844" lon="-0.77442">
        <ele>138.8</ele>
        <time>2020-11-15T08:42:02Z</time>
      </trkpt>
      <trkpt lat="46.71846" lon="-0.77446">
        <ele>138.9</ele>
        <time>2020-11-15T08:42:03Z</time>
      </trkpt>
      <trkpt lat="46.71848" lon="-0.7745">
        <ele>139.1</ele>
        <time>2020-11-15T08:42:04Z</time>
      </trkpt>
      <trkpt lat="46.71851" lon="-0.77462">
        <ele>139.1</ele>
        <time>2020-11-15T08:42:06Z</time>
      </trkpt>
      <trkpt lat="46.71854" lon="-0.77472">
        <ele>139.1</ele>
        <time>2020-11-15T08:42:08Z</time>
      </trkpt>
      <trkpt lat="46.71856" lon="-0.77481">
        <ele>139</ele>
        <time>2020-11-15T08:42:10Z</time>
      </trkpt>
      <trkpt lat="46.71858" lon="-0.77492">
        <ele>138.7</ele>
        <time>2020-11-15T08:42:12Z</time>
      </trkpt>
      <trkpt lat="46.71859" lon="-0.77496">
        <ele>138.4</ele>
        <time>2020-11-15T08:42:13Z</time>
      </trkpt>
      <trkpt lat="46.7186" lon="-0.77501">
        <ele>138.3</ele>
        <time>2020-11-15T08:42:14Z</time>
      </trkpt>
      <trkpt lat="46.71863" lon="-0.77512">
        <ele>137.9</ele>
        <time>2020-11-15T08:42:16Z</time>
      </trkpt>
      <trkpt lat="46.71864" lon="-0.77517">
        <ele>137.9</ele>
        <time>2020-11-15T08:42:17Z</time>
      </trkpt>
      <trkpt lat="46.71866" lon="-0.77522">
        <ele>137.7</ele>
        <time>2020-11-15T08:42:18Z</time>
      </trkpt>
      <trkpt lat="46.71867" lon="-0.77534">
        <ele>137.6</ele>
        <time>2020-11-15T08:42:20Z</time>
      </trkpt>
      <trkpt lat="46.71868" lon="-0.77545">
        <ele>137.7</ele>
        <time>2020-11-15T08:42:22Z</time>
      </trkpt>
      <trkpt lat="46.71869" lon="-0.77558">
        <ele>137.7</ele>
        <time>2020-11-15T08:42:24Z</time>
      </trkpt>
      <trkpt lat="46.71868" lon="-0.77565">
        <ele>138</ele>
        <time>2020-11-15T08:42:25Z</time>
      </trkpt>
      <trkpt lat="46.71868" lon="-0.77572">
        <ele>138</ele>
        <time>2020-11-15T08:42:26Z</time>
      </trkpt>
      <trkpt lat="46.71869" lon="-0.77584">
        <ele>137.8</ele>
        <time>2020-11-15T08:42:28Z</time>
      </trkpt>
      <trkpt lat="46.71869" lon="-0.77589">
        <ele>137.9</ele>
        <time>2020-11-15T08:42:29Z</time>
      </trkpt>
      <trkpt lat="46.7187" lon="-0.77594">
        <ele>137.9</ele>
        <time>2020-11-15T08:42:30Z</time>
      </trkpt>
      <trkpt lat="46.71872" lon="-0.77603">
        <ele>137.8</ele>
        <time>2020-11-15T08:42:32Z</time>
      </trkpt>
      <trkpt lat="46.71873" lon="-0.77614">
        <ele>138</ele>
        <time>2020-11-15T08:42:34Z</time>
      </trkpt>
      <trkpt lat="46.71874" lon="-0.77626">
        <ele>138.3</ele>
        <time>2020-11-15T08:42:36Z</time>
      </trkpt>
      <trkpt lat="46.71875" lon="-0.77637">
        <ele>138.3</ele>
        <time>2020-11-15T08:42:38Z</time>
      </trkpt>
      <trkpt lat="46.71875" lon="-0.77647">
        <ele>138.7</ele>
        <time>2020-11-15T08:42:40Z</time>
      </trkpt>
      <trkpt lat="46.71875" lon="-0.77656">
        <ele>139</ele>
        <time>2020-11-15T08:42:42Z</time>
      </trkpt>
      <trkpt lat="46.71876" lon="-0.77665">
        <ele>139.4</ele>
        <time>2020-11-15T08:42:44Z</time>
      </trkpt>
      <trkpt lat="46.71876" lon="-0.77673">
        <ele>139.7</ele>
        <time>2020-11-15T08:42:46Z</time>
      </trkpt>
      <trkpt lat="46.71877" lon="-0.7768">
        <ele>139.9</ele>
        <time>2020-11-15T08:42:48Z</time>
      </trkpt>
      <trkpt lat="46.71878" lon="-0.77686">
        <ele>140.1</ele>
        <time>2020-11-15T08:42:50Z</time>
      </trkpt>
      <trkpt lat="46.71879" lon="-0.77691">
        <ele>140.3</ele>
        <time>2020-11-15T08:42:52Z</time>
      </trkpt>
      <trkpt lat="46.71881" lon="-0.77694">
        <ele>140.3</ele>
        <time>2020-11-15T08:42:53Z</time>
      </trkpt>
      <trkpt lat="46.71882" lon="-0.77697">
        <ele>140.3</ele>
        <time>2020-11-15T08:42:54Z</time>
      </trkpt>
      <trkpt lat="46.71884" lon="-0.777">
        <ele>140.2</ele>
        <time>2020-11-15T08:42:55Z</time>
      </trkpt>
      <trkpt lat="46.71886" lon="-0.77703">
        <ele>140.2</ele>
        <time>2020-11-15T08:42:56Z</time>
      </trkpt>
      <trkpt lat="46.71888" lon="-0.77707">
        <ele>140.4</ele>
        <time>2020-11-15T08:42:57Z</time>
      </trkpt>
      <trkpt lat="46.71891" lon="-0.77712">
        <ele>140.3</ele>
        <time>2020-11-15T08:42:58Z</time>
      </trkpt>
      <trkpt lat="46.71897" lon="-0.77723">
        <ele>140.1</ele>
        <time>2020-11-15T08:43:00Z</time>
      </trkpt>
      <trkpt lat="46.71904" lon="-0.77735">
        <ele>140</ele>
        <time>2020-11-15T08:43:02Z</time>
      </trkpt>
      <trkpt lat="46.71909" lon="-0.77747">
        <ele>140.2</ele>
        <time>2020-11-15T08:43:04Z</time>
      </trkpt>
      <trkpt lat="46.71915" lon="-0.77758">
        <ele>140</ele>
        <time>2020-11-15T08:43:06Z</time>
      </trkpt>
      <trkpt lat="46.71922" lon="-0.77767">
        <ele>139.5</ele>
        <time>2020-11-15T08:43:08Z</time>
      </trkpt>
      <trkpt lat="46.71929" lon="-0.77778">
        <ele>139.1</ele>
        <time>2020-11-15T08:43:10Z</time>
      </trkpt>
      <trkpt lat="46.71931" lon="-0.77784">
        <ele>138.9</ele>
        <time>2020-11-15T08:43:11Z</time>
      </trkpt>
      <trkpt lat="46.71933" lon="-0.7779">
        <ele>138.9</ele>
        <time>2020-11-15T08:43:12Z</time>
      </trkpt>
      <trkpt lat="46.71935" lon="-0.77802">
        <ele>138.7</ele>
        <time>2020-11-15T08:43:14Z</time>
      </trkpt>
      <trkpt lat="46.71935" lon="-0.77814">
        <ele>138.7</ele>
        <time>2020-11-15T08:43:16Z</time>
      </trkpt>
      <trkpt lat="46.71932" lon="-0.77827">
        <ele>138.9</ele>
        <time>2020-11-15T08:43:18Z</time>
      </trkpt>
      <trkpt lat="46.71929" lon="-0.77837">
        <ele>139.1</ele>
        <time>2020-11-15T08:43:20Z</time>
      </trkpt>
      <trkpt lat="46.71927" lon="-0.77841">
        <ele>139.1</ele>
        <time>2020-11-15T08:43:21Z</time>
      </trkpt>
      <trkpt lat="46.71925" lon="-0.77845">
        <ele>139.3</ele>
        <time>2020-11-15T08:43:22Z</time>
      </trkpt>
      <trkpt lat="46.71922" lon="-0.77852">
        <ele>139.6</ele>
        <time>2020-11-15T08:43:24Z</time>
      </trkpt>
      <trkpt lat="46.71921" lon="-0.77856">
        <ele>139.8</ele>
        <time>2020-11-15T08:43:25Z</time>
      </trkpt>
      <trkpt lat="46.71919" lon="-0.77861">
        <ele>139.8</ele>
        <time>2020-11-15T08:43:26Z</time>
      </trkpt>
      <trkpt lat="46.71916" lon="-0.77868">
        <ele>140.1</ele>
        <time>2020-11-15T08:43:28Z</time>
      </trkpt>
      <trkpt lat="46.71911" lon="-0.77874">
        <ele>140.6</ele>
        <time>2020-11-15T08:43:30Z</time>
      </trkpt>
      <trkpt lat="46.71907" lon="-0.77879">
        <ele>140.9</ele>
        <time>2020-11-15T08:43:32Z</time>
      </trkpt>
      <trkpt lat="46.71902" lon="-0.77884">
        <ele>141.4</ele>
        <time>2020-11-15T08:43:34Z</time>
      </trkpt>
      <trkpt lat="46.719" lon="-0.77886">
        <ele>141.7</ele>
        <time>2020-11-15T08:43:35Z</time>
      </trkpt>
      <trkpt lat="46.71898" lon="-0.77888">
        <ele>142</ele>
        <time>2020-11-15T08:43:36Z</time>
      </trkpt>
      <trkpt lat="46.71893" lon="-0.77891">
        <ele>142.4</ele>
        <time>2020-11-15T08:43:38Z</time>
      </trkpt>
      <trkpt lat="46.71889" lon="-0.77896">
        <ele>142.7</ele>
        <time>2020-11-15T08:43:40Z</time>
      </trkpt>
      <trkpt lat="46.71887" lon="-0.77899">
        <ele>143.1</ele>
        <time>2020-11-15T08:43:41Z</time>
      </trkpt>
      <trkpt lat="46.71885" lon="-0.77902">
        <ele>143.4</ele>
        <time>2020-11-15T08:43:42Z</time>
      </trkpt>
      <trkpt lat="46.71882" lon="-0.7791">
        <ele>143.8</ele>
        <time>2020-11-15T08:43:44Z</time>
      </trkpt>
      <trkpt lat="46.71877" lon="-0.77921">
        <ele>144.4</ele>
        <time>2020-11-15T08:43:46Z</time>
      </trkpt>
      <trkpt lat="46.71873" lon="-0.77933">
        <ele>144.7</ele>
        <time>2020-11-15T08:43:48Z</time>
      </trkpt>
      <trkpt lat="46.71871" lon="-0.77946">
        <ele>145.1</ele>
        <time>2020-11-15T08:43:50Z</time>
      </trkpt>
      <trkpt lat="46.71871" lon="-0.77952">
        <ele>145.2</ele>
        <time>2020-11-15T08:43:51Z</time>
      </trkpt>
      <trkpt lat="46.71871" lon="-0.7796">
        <ele>145.4</ele>
        <time>2020-11-15T08:43:52Z</time>
      </trkpt>
      <trkpt lat="46.71871" lon="-0.77967">
        <ele>145.4</ele>
        <time>2020-11-15T08:43:53Z</time>
      </trkpt>
      <trkpt lat="46.71871" lon="-0.77975">
        <ele>145.7</ele>
        <time>2020-11-15T08:43:54Z</time>
      </trkpt>
      <trkpt lat="46.7187" lon="-0.77983">
        <ele>146.3</ele>
        <time>2020-11-15T08:43:55Z</time>
      </trkpt>
      <trkpt lat="46.71869" lon="-0.77989">
        <ele>146.4</ele>
        <time>2020-11-15T08:43:56Z</time>
      </trkpt>
      <trkpt lat="46.71868" lon="-0.78002">
        <ele>146.6</ele>
        <time>2020-11-15T08:43:58Z</time>
      </trkpt>
      <trkpt lat="46.71868" lon="-0.78011">
        <ele>146.8</ele>
        <time>2020-11-15T08:44:00Z</time>
      </trkpt>
      <trkpt lat="46.71869" lon="-0.78023">
        <ele>146.6</ele>
        <time>2020-11-15T08:44:02Z</time>
      </trkpt>
      <trkpt lat="46.7187" lon="-0.78034">
        <ele>146.6</ele>
        <time>2020-11-15T08:44:04Z</time>
      </trkpt>
      <trkpt lat="46.7187" lon="-0.7804">
        <ele>146.6</ele>
        <time>2020-11-15T08:44:05Z</time>
      </trkpt>
      <trkpt lat="46.7187" lon="-0.78047">
        <ele>146.4</ele>
        <time>2020-11-15T08:44:06Z</time>
      </trkpt>
      <trkpt lat="46.71871" lon="-0.78053">
        <ele>146.4</ele>
        <time>2020-11-15T08:44:07Z</time>
      </trkpt>
      <trkpt lat="46.71871" lon="-0.78058">
        <ele>146</ele>
        <time>2020-11-15T08:44:08Z</time>
      </trkpt>
      <trkpt lat="46.71874" lon="-0.78066">
        <ele>145.5</ele>
        <time>2020-11-15T08:44:10Z</time>
      </trkpt>
      <trkpt lat="46.71877" lon="-0.78073">
        <ele>145.1</ele>
        <time>2020-11-15T08:44:12Z</time>
      </trkpt>
      <trkpt lat="46.71878" lon="-0.78076">
        <ele>145.1</ele>
        <time>2020-11-15T08:44:13Z</time>
      </trkpt>
      <trkpt lat="46.7188" lon="-0.7808">
        <ele>145.1</ele>
        <time>2020-11-15T08:44:14Z</time>
      </trkpt>
      <trkpt lat="46.71884" lon="-0.7809">
        <ele>144.3</ele>
        <time>2020-11-15T08:44:16Z</time>
      </trkpt>
      <trkpt lat="46.71887" lon="-0.78101">
        <ele>143.7</ele>
        <time>2020-11-15T08:44:18Z</time>
      </trkpt>
      <trkpt lat="46.71891" lon="-0.78112">
        <ele>142.9</ele>
        <time>2020-11-15T08:44:20Z</time>
      </trkpt>
      <trkpt lat="46.71893" lon="-0.78117">
        <ele>142.3</ele>
        <time>2020-11-15T08:44:21Z</time>
      </trkpt>
      <trkpt lat="46.71893" lon="-0.78124">
        <ele>142</ele>
        <time>2020-11-15T08:44:22Z</time>
      </trkpt>
      <trkpt lat="46.71895" lon="-0.7813">
        <ele>141.5</ele>
        <time>2020-11-15T08:44:23Z</time>
      </trkpt>
      <trkpt lat="46.71897" lon="-0.78136">
        <ele>141.3</ele>
        <time>2020-11-15T08:44:24Z</time>
      </trkpt>
      <trkpt lat="46.71899" lon="-0.78142">
        <ele>140.9</ele>
        <time>2020-11-15T08:44:25Z</time>
      </trkpt>
      <trkpt lat="46.71899" lon="-0.78148">
        <ele>140.7</ele>
        <time>2020-11-15T08:44:26Z</time>
      </trkpt>
      <trkpt lat="46.71896" lon="-0.78165">
        <ele>140.5</ele>
        <time>2020-11-15T08:44:28Z</time>
      </trkpt>
      <trkpt lat="46.71895" lon="-0.78172">
        <ele>140.6</ele>
        <time>2020-11-15T08:44:29Z</time>
      </trkpt>
      <trkpt lat="46.71894" lon="-0.78179">
        <ele>140.3</ele>
        <time>2020-11-15T08:44:30Z</time>
      </trkpt>
      <trkpt lat="46.71892" lon="-0.78191">
        <ele>140</ele>
        <time>2020-11-15T08:44:32Z</time>
      </trkpt>
      <trkpt lat="46.71893" lon="-0.78203">
        <ele>139.5</ele>
        <time>2020-11-15T08:44:34Z</time>
      </trkpt>
      <trkpt lat="46.71895" lon="-0.78213">
        <ele>139.3</ele>
        <time>2020-11-15T08:44:36Z</time>
      </trkpt>
      <trkpt lat="46.71894" lon="-0.78224">
        <ele>139</ele>
        <time>2020-11-15T08:44:38Z</time>
      </trkpt>
      <trkpt lat="46.71894" lon="-0.78232">
        <ele>138.8</ele>
        <time>2020-11-15T08:44:40Z</time>
      </trkpt>
      <trkpt lat="46.71894" lon="-0.78236">
        <ele>138.8</ele>
        <time>2020-11-15T08:44:41Z</time>
      </trkpt>
      <trkpt lat="46.71896" lon="-0.78241">
        <ele>138.7</ele>
        <time>2020-11-15T08:44:42Z</time>
      </trkpt>
      <trkpt lat="46.71897" lon="-0.78254">
        <ele>138.6</ele>
        <time>2020-11-15T08:44:44Z</time>
      </trkpt>
      <trkpt lat="46.71897" lon="-0.78261">
        <ele>138.7</ele>
        <time>2020-11-15T08:44:45Z</time>
      </trkpt>
      <trkpt lat="46.71898" lon="-0.78265">
        <ele>138.7</ele>
        <time>2020-11-15T08:44:46Z</time>
      </trkpt>
      <trkpt lat="46.719" lon="-0.78274">
        <ele>138.7</ele>
        <time>2020-11-15T08:44:48Z</time>
      </trkpt>
      <trkpt lat="46.719" lon="-0.78284">
        <ele>138.7</ele>
        <time>2020-11-15T08:44:50Z</time>
      </trkpt>
      <trkpt lat="46.71901" lon="-0.78298">
        <ele>138.8</ele>
        <time>2020-11-15T08:44:52Z</time>
      </trkpt>
      <trkpt lat="46.71902" lon="-0.78304">
        <ele>138.8</ele>
        <time>2020-11-15T08:44:53Z</time>
      </trkpt>
      <trkpt lat="46.71904" lon="-0.78309">
        <ele>138.9</ele>
        <time>2020-11-15T08:44:54Z</time>
      </trkpt>
      <trkpt lat="46.71904" lon="-0.78313">
        <ele>138.9</ele>
        <time>2020-11-15T08:44:55Z</time>
      </trkpt>
      <trkpt lat="46.71904" lon="-0.78317">
        <ele>139</ele>
        <time>2020-11-15T08:44:56Z</time>
      </trkpt>
      <trkpt lat="46.71904" lon="-0.7832">
        <ele>139</ele>
        <time>2020-11-15T08:44:57Z</time>
      </trkpt>
      <trkpt lat="46.71903" lon="-0.78327">
        <ele>139</ele>
        <time>2020-11-15T08:44:58Z</time>
      </trkpt>
      <trkpt lat="46.71901" lon="-0.78339">
        <ele>139.2</ele>
        <time>2020-11-15T08:45:00Z</time>
      </trkpt>
      <trkpt lat="46.71898" lon="-0.78346">
        <ele>139.2</ele>
        <time>2020-11-15T08:45:01Z</time>
      </trkpt>
      <trkpt lat="46.71897" lon="-0.78351">
        <ele>139.3</ele>
        <time>2020-11-15T08:45:02Z</time>
      </trkpt>
      <trkpt lat="46.71895" lon="-0.7836">
        <ele>139.3</ele>
        <time>2020-11-15T08:45:04Z</time>
      </trkpt>
      <trkpt lat="46.71893" lon="-0.78369">
        <ele>139.4</ele>
        <time>2020-11-15T08:45:06Z</time>
      </trkpt>
      <trkpt lat="46.71891" lon="-0.78372">
        <ele>139.6</ele>
        <time>2020-11-15T08:45:07Z</time>
      </trkpt>
      <trkpt lat="46.7189" lon="-0.78374">
        <ele>139.6</ele>
        <time>2020-11-15T08:45:08Z</time>
      </trkpt>
      <trkpt lat="46.7189" lon="-0.78374">
        <ele>139.6</ele>
        <time>2020-11-15T08:45:09Z</time>
      </trkpt>
      <trkpt lat="46.71873" lon="-0.78412">
        <ele>140.3</ele>
        <time>2020-11-15T08:45:39Z</time>
      </trkpt>
      <trkpt lat="46.71873" lon="-0.78415">
        <ele>140.2</ele>
        <time>2020-11-15T08:45:40Z</time>
      </trkpt>
      <trkpt lat="46.71872" lon="-0.78421">
        <ele>140.2</ele>
        <time>2020-11-15T08:45:42Z</time>
      </trkpt>
      <trkpt lat="46.71873" lon="-0.78423">
        <ele>140.2</ele>
        <time>2020-11-15T08:45:43Z</time>
      </trkpt>
      <trkpt lat="46.71864" lon="-0.78449">
        <ele>139.8</ele>
        <time>2020-11-15T08:46:04Z</time>
      </trkpt>
      <trkpt lat="46.71862" lon="-0.78452">
        <ele>139.7</ele>
        <time>2020-11-15T08:46:05Z</time>
      </trkpt>
      <trkpt lat="46.71861" lon="-0.78454">
        <ele>139.7</ele>
        <time>2020-11-15T08:46:06Z</time>
      </trkpt>
      <trkpt lat="46.71858" lon="-0.78459">
        <ele>139.6</ele>
        <time>2020-11-15T08:46:08Z</time>
      </trkpt>
      <trkpt lat="46.71855" lon="-0.78462">
        <ele>139.5</ele>
        <time>2020-11-15T08:46:10Z</time>
      </trkpt>
      <trkpt lat="46.71852" lon="-0.78467">
        <ele>139.3</ele>
        <time>2020-11-15T08:46:12Z</time>
      </trkpt>
      <trkpt lat="46.7185" lon="-0.78471">
        <ele>139.2</ele>
        <time>2020-11-15T08:46:13Z</time>
      </trkpt>
      <trkpt lat="46.71849" lon="-0.78474">
        <ele>139.2</ele>
        <time>2020-11-15T08:46:14Z</time>
      </trkpt>
      <trkpt lat="46.71845" lon="-0.78481">
        <ele>139</ele>
        <time>2020-11-15T08:46:16Z</time>
      </trkpt>
      <trkpt lat="46.71842" lon="-0.78488">
        <ele>138.8</ele>
        <time>2020-11-15T08:46:18Z</time>
      </trkpt>
      <trkpt lat="46.71839" lon="-0.78494">
        <ele>138.6</ele>
        <time>2020-11-15T08:46:20Z</time>
      </trkpt>
      <trkpt lat="46.71836" lon="-0.78501">
        <ele>138.4</ele>
        <time>2020-11-15T08:46:22Z</time>
      </trkpt>
      <trkpt lat="46.71835" lon="-0.78505">
        <ele>138.3</ele>
        <time>2020-11-15T08:46:23Z</time>
      </trkpt>
      <trkpt lat="46.71834" lon="-0.78508">
        <ele>138.2</ele>
        <time>2020-11-15T08:46:24Z</time>
      </trkpt>
      <trkpt lat="46.71833" lon="-0.78511">
        <ele>138.1</ele>
        <time>2020-11-15T08:46:25Z</time>
      </trkpt>
      <trkpt lat="46.71833" lon="-0.78514">
        <ele>138</ele>
        <time>2020-11-15T08:46:26Z</time>
      </trkpt>
      <trkpt lat="46.71831" lon="-0.78521">
        <ele>137.8</ele>
        <time>2020-11-15T08:46:28Z</time>
      </trkpt>
      <trkpt lat="46.71829" lon="-0.78528">
        <ele>137.6</ele>
        <time>2020-11-15T08:46:30Z</time>
      </trkpt>
      <trkpt lat="46.71825" lon="-0.78535">
        <ele>137.2</ele>
        <time>2020-11-15T08:46:32Z</time>
      </trkpt>
      <trkpt lat="46.71821" lon="-0.78539">
        <ele>136.8</ele>
        <time>2020-11-15T08:46:34Z</time>
      </trkpt>
      <trkpt lat="46.71817" lon="-0.78543">
        <ele>136.5</ele>
        <time>2020-11-15T08:46:36Z</time>
      </trkpt>
      <trkpt lat="46.71815" lon="-0.78544">
        <ele>136.7</ele>
        <time>2020-11-15T08:46:37Z</time>
      </trkpt>
      <trkpt lat="46.71813" lon="-0.78544">
        <ele>136.9</ele>
        <time>2020-11-15T08:46:38Z</time>
      </trkpt>
      <trkpt lat="46.71812" lon="-0.78538">
        <ele>137.2</ele>
        <time>2020-11-15T08:46:40Z</time>
      </trkpt>
      <trkpt lat="46.71813" lon="-0.78535">
        <ele>137.4</ele>
        <time>2020-11-15T08:46:41Z</time>
      </trkpt>
      <trkpt lat="46.71813" lon="-0.78532">
        <ele>137.5</ele>
        <time>2020-11-15T08:46:42Z</time>
      </trkpt>
      <trkpt lat="46.71814" lon="-0.78526">
        <ele>137.8</ele>
        <time>2020-11-15T08:46:44Z</time>
      </trkpt>
      <trkpt lat="46.71815" lon="-0.78519">
        <ele>138</ele>
        <time>2020-11-15T08:46:46Z</time>
      </trkpt>
      <trkpt lat="46.71816" lon="-0.78511">
        <ele>138.3</ele>
        <time>2020-11-15T08:46:48Z</time>
      </trkpt>
      <trkpt lat="46.71816" lon="-0.78503">
        <ele>138.5</ele>
        <time>2020-11-15T08:46:50Z</time>
      </trkpt>
      <trkpt lat="46.71817" lon="-0.78494">
        <ele>138.7</ele>
        <time>2020-11-15T08:46:52Z</time>
      </trkpt>
      <trkpt lat="46.71818" lon="-0.78485">
        <ele>139</ele>
        <time>2020-11-15T08:46:54Z</time>
      </trkpt>
      <trkpt lat="46.71818" lon="-0.78476">
        <ele>139.2</ele>
        <time>2020-11-15T08:46:56Z</time>
      </trkpt>
      <trkpt lat="46.71819" lon="-0.78466">
        <ele>139.4</ele>
        <time>2020-11-15T08:46:58Z</time>
      </trkpt>
      <trkpt lat="46.7182" lon="-0.78457">
        <ele>139.6</ele>
        <time>2020-11-15T08:47:00Z</time>
      </trkpt>
      <trkpt lat="46.71821" lon="-0.78449">
        <ele>139.8</ele>
        <time>2020-11-15T08:47:02Z</time>
      </trkpt>
      <trkpt lat="46.71821" lon="-0.7844">
        <ele>139.9</ele>
        <time>2020-11-15T08:47:04Z</time>
      </trkpt>
      <trkpt lat="46.71822" lon="-0.78432">
        <ele>140</ele>
        <time>2020-11-15T08:47:06Z</time>
      </trkpt>
      <trkpt lat="46.71823" lon="-0.78428">
        <ele>140.1</ele>
        <time>2020-11-15T08:47:07Z</time>
      </trkpt>
      <trkpt lat="46.71824" lon="-0.78423">
        <ele>140.1</ele>
        <time>2020-11-15T08:47:08Z</time>
      </trkpt>
      <trkpt lat="46.71824" lon="-0.78415">
        <ele>140.1</ele>
        <time>2020-11-15T08:47:10Z</time>
      </trkpt>
      <trkpt lat="46.71824" lon="-0.78406">
        <ele>140.1</ele>
        <time>2020-11-15T08:47:12Z</time>
      </trkpt>
      <trkpt lat="46.71823" lon="-0.78397">
        <ele>140.1</ele>
        <time>2020-11-15T08:47:14Z</time>
      </trkpt>
      <trkpt lat="46.71819" lon="-0.78389">
        <ele>140</ele>
        <time>2020-11-15T08:47:16Z</time>
      </trkpt>
      <trkpt lat="46.71815" lon="-0.7838">
        <ele>140</ele>
        <time>2020-11-15T08:47:18Z</time>
      </trkpt>
      <trkpt lat="46.71809" lon="-0.78372">
        <ele>139.9</ele>
        <time>2020-11-15T08:47:20Z</time>
      </trkpt>
      <trkpt lat="46.71806" lon="-0.78368">
        <ele>140</ele>
        <time>2020-11-15T08:47:21Z</time>
      </trkpt>
      <trkpt lat="46.71803" lon="-0.78364">
        <ele>140</ele>
        <time>2020-11-15T08:47:22Z</time>
      </trkpt>
      <trkpt lat="46.71797" lon="-0.7836">
        <ele>140.1</ele>
        <time>2020-11-15T08:47:24Z</time>
      </trkpt>
      <trkpt lat="46.71794" lon="-0.78359">
        <ele>140.1</ele>
        <time>2020-11-15T08:47:25Z</time>
      </trkpt>
      <trkpt lat="46.71792" lon="-0.78359">
        <ele>140.1</ele>
        <time>2020-11-15T08:47:26Z</time>
      </trkpt>
      <trkpt lat="46.71785" lon="-0.78358">
        <ele>140.2</ele>
        <time>2020-11-15T08:47:28Z</time>
      </trkpt>
      <trkpt lat="46.71782" lon="-0.78358">
        <ele>140.3</ele>
        <time>2020-11-15T08:47:29Z</time>
      </trkpt>
      <trkpt lat="46.71779" lon="-0.78358">
        <ele>140.4</ele>
        <time>2020-11-15T08:47:30Z</time>
      </trkpt>
      <trkpt lat="46.71773" lon="-0.78359">
        <ele>140.6</ele>
        <time>2020-11-15T08:47:32Z</time>
      </trkpt>
      <trkpt lat="46.71771" lon="-0.78359">
        <ele>140.7</ele>
        <time>2020-11-15T08:47:33Z</time>
      </trkpt>
      <trkpt lat="46.71767" lon="-0.78358">
        <ele>140.8</ele>
        <time>2020-11-15T08:47:34Z</time>
      </trkpt>
      <trkpt lat="46.7176" lon="-0.7836">
        <ele>141.1</ele>
        <time>2020-11-15T08:47:36Z</time>
      </trkpt>
      <trkpt lat="46.71753" lon="-0.78361">
        <ele>141.5</ele>
        <time>2020-11-15T08:47:38Z</time>
      </trkpt>
      <trkpt lat="46.71747" lon="-0.78359">
        <ele>141.7</ele>
        <time>2020-11-15T08:47:40Z</time>
      </trkpt>
      <trkpt lat="46.71741" lon="-0.78358">
        <ele>142</ele>
        <time>2020-11-15T08:47:42Z</time>
      </trkpt>
      <trkpt lat="46.71736" lon="-0.78359">
        <ele>142.2</ele>
        <time>2020-11-15T08:47:44Z</time>
      </trkpt>
      <trkpt lat="46.71729" lon="-0.7836">
        <ele>142.6</ele>
        <time>2020-11-15T08:47:46Z</time>
      </trkpt>
      <trkpt lat="46.71723" lon="-0.7836">
        <ele>143</ele>
        <time>2020-11-15T08:47:48Z</time>
      </trkpt>
      <trkpt lat="46.71717" lon="-0.7836">
        <ele>143.4</ele>
        <time>2020-11-15T08:47:50Z</time>
      </trkpt>
      <trkpt lat="46.7171" lon="-0.7836">
        <ele>143.8</ele>
        <time>2020-11-15T08:47:52Z</time>
      </trkpt>
      <trkpt lat="46.71706" lon="-0.7836">
        <ele>144</ele>
        <time>2020-11-15T08:47:53Z</time>
      </trkpt>
      <trkpt lat="46.71703" lon="-0.7836">
        <ele>144.2</ele>
        <time>2020-11-15T08:47:54Z</time>
      </trkpt>
      <trkpt lat="46.71696" lon="-0.78358">
        <ele>144.7</ele>
        <time>2020-11-15T08:47:56Z</time>
      </trkpt>
      <trkpt lat="46.71691" lon="-0.78358">
        <ele>144.4</ele>
        <time>2020-11-15T08:47:58Z</time>
      </trkpt>
      <trkpt lat="46.7169" lon="-0.7836">
        <ele>144.3</ele>
        <time>2020-11-15T08:47:59Z</time>
      </trkpt>
      <trkpt lat="46.71689" lon="-0.78361">
        <ele>144.2</ele>
        <time>2020-11-15T08:48:00Z</time>
      </trkpt>
      <trkpt lat="46.71692" lon="-0.78363">
        <ele>144.1</ele>
        <time>2020-11-15T08:48:02Z</time>
      </trkpt>
      <trkpt lat="46.71693" lon="-0.78363">
        <ele>144</ele>
        <time>2020-11-15T08:48:04Z</time>
      </trkpt>
      <trkpt lat="46.71694" lon="-0.78363">
        <ele>143.9</ele>
        <time>2020-11-15T08:48:05Z</time>
      </trkpt>
      <trkpt lat="46.71696" lon="-0.78363">
        <ele>143.8</ele>
        <time>2020-11-15T08:48:06Z</time>
      </trkpt>
      <trkpt lat="46.717" lon="-0.78363">
        <ele>143.6</ele>
        <time>2020-11-15T08:48:08Z</time>
      </trkpt>
      <trkpt lat="46.71706" lon="-0.78362">
        <ele>143.2</ele>
        <time>2020-11-15T08:48:10Z</time>
      </trkpt>
      <trkpt lat="46.71712" lon="-0.78363">
        <ele>142.9</ele>
        <time>2020-11-15T08:48:12Z</time>
      </trkpt>
      <trkpt lat="46.71716" lon="-0.78363">
        <ele>142.6</ele>
        <time>2020-11-15T08:48:14Z</time>
      </trkpt>
      <trkpt lat="46.71721" lon="-0.78363">
        <ele>142.4</ele>
        <time>2020-11-15T08:48:16Z</time>
      </trkpt>
      <trkpt lat="46.71729" lon="-0.78363">
        <ele>142</ele>
        <time>2020-11-15T08:48:18Z</time>
      </trkpt>
      <trkpt lat="46.71737" lon="-0.78363">
        <ele>141.7</ele>
        <time>2020-11-15T08:48:20Z</time>
      </trkpt>
      <trkpt lat="46.71744" lon="-0.78364">
        <ele>141.4</ele>
        <time>2020-11-15T08:48:22Z</time>
      </trkpt>
      <trkpt lat="46.71748" lon="-0.78364">
        <ele>141.2</ele>
        <time>2020-11-15T08:48:23Z</time>
      </trkpt>
      <trkpt lat="46.71753" lon="-0.78364">
        <ele>141</ele>
        <time>2020-11-15T08:48:24Z</time>
      </trkpt>
      <trkpt lat="46.71761" lon="-0.78363">
        <ele>140.7</ele>
        <time>2020-11-15T08:48:26Z</time>
      </trkpt>
      <trkpt lat="46.71765" lon="-0.78363">
        <ele>140.5</ele>
        <time>2020-11-15T08:48:27Z</time>
      </trkpt>
      <trkpt lat="46.7177" lon="-0.78362">
        <ele>140.4</ele>
        <time>2020-11-15T08:48:28Z</time>
      </trkpt>
      <trkpt lat="46.71779" lon="-0.78362">
        <ele>140.2</ele>
        <time>2020-11-15T08:48:30Z</time>
      </trkpt>
      <trkpt lat="46.71783" lon="-0.78364">
        <ele>140.1</ele>
        <time>2020-11-15T08:48:31Z</time>
      </trkpt>
      <trkpt lat="46.71787" lon="-0.78366">
        <ele>140.1</ele>
        <time>2020-11-15T08:48:32Z</time>
      </trkpt>
      <trkpt lat="46.71793" lon="-0.7837">
        <ele>140</ele>
        <time>2020-11-15T08:48:34Z</time>
      </trkpt>
      <trkpt lat="46.71797" lon="-0.78374">
        <ele>139.6</ele>
        <time>2020-11-15T08:48:36Z</time>
      </trkpt>
      <trkpt lat="46.71798" lon="-0.78377">
        <ele>139.2</ele>
        <time>2020-11-15T08:48:37Z</time>
      </trkpt>
      <trkpt lat="46.71798" lon="-0.78381">
        <ele>139</ele>
        <time>2020-11-15T08:48:38Z</time>
      </trkpt>
      <trkpt lat="46.71798" lon="-0.78385">
        <ele>138.9</ele>
        <time>2020-11-15T08:48:40Z</time>
      </trkpt>
      <trkpt lat="46.71795" lon="-0.78396">
        <ele>139.2</ele>
        <time>2020-11-15T08:48:45Z</time>
      </trkpt>
      <trkpt lat="46.71795" lon="-0.78398">
        <ele>139</ele>
        <time>2020-11-15T08:48:46Z</time>
      </trkpt>
      <trkpt lat="46.71795" lon="-0.784">
        <ele>138.8</ele>
        <time>2020-11-15T08:48:47Z</time>
      </trkpt>
      <trkpt lat="46.71794" lon="-0.78411">
        <ele>138.9</ele>
        <time>2020-11-15T08:48:55Z</time>
      </trkpt>
      <trkpt lat="46.71793" lon="-0.78414">
        <ele>138.7</ele>
        <time>2020-11-15T08:48:56Z</time>
      </trkpt>
      <trkpt lat="46.71792" lon="-0.78419">
        <ele>138.5</ele>
        <time>2020-11-15T08:48:58Z</time>
      </trkpt>
      <trkpt lat="46.71792" lon="-0.78424">
        <ele>138.2</ele>
        <time>2020-11-15T08:49:00Z</time>
      </trkpt>
      <trkpt lat="46.71792" lon="-0.78427">
        <ele>138</ele>
        <time>2020-11-15T08:49:01Z</time>
      </trkpt>
      <trkpt lat="46.71791" lon="-0.7843">
        <ele>138.1</ele>
        <time>2020-11-15T08:49:02Z</time>
      </trkpt>
      <trkpt lat="46.71789" lon="-0.78434">
        <ele>138.2</ele>
        <time>2020-11-15T08:49:04Z</time>
      </trkpt>
      <trkpt lat="46.71788" lon="-0.78437">
        <ele>138</ele>
        <time>2020-11-15T08:49:05Z</time>
      </trkpt>
      <trkpt lat="46.71788" lon="-0.7844">
        <ele>137.8</ele>
        <time>2020-11-15T08:49:06Z</time>
      </trkpt>
      <trkpt lat="46.71787" lon="-0.78448">
        <ele>137.5</ele>
        <time>2020-11-15T08:49:08Z</time>
      </trkpt>
      <trkpt lat="46.71785" lon="-0.78452">
        <ele>137.7</ele>
        <time>2020-11-15T08:49:09Z</time>
      </trkpt>
      <trkpt lat="46.71784" lon="-0.78456">
        <ele>137.4</ele>
        <time>2020-11-15T08:49:10Z</time>
      </trkpt>
      <trkpt lat="46.71783" lon="-0.7846">
        <ele>137.6</ele>
        <time>2020-11-15T08:49:11Z</time>
      </trkpt>
      <trkpt lat="46.71783" lon="-0.78464">
        <ele>137.3</ele>
        <time>2020-11-15T08:49:12Z</time>
      </trkpt>
      <trkpt lat="46.71783" lon="-0.78467">
        <ele>137.1</ele>
        <time>2020-11-15T08:49:13Z</time>
      </trkpt>
      <trkpt lat="46.71784" lon="-0.78471">
        <ele>136.5</ele>
        <time>2020-11-15T08:49:14Z</time>
      </trkpt>
      <trkpt lat="46.71785" lon="-0.78477">
        <ele>136.2</ele>
        <time>2020-11-15T08:49:16Z</time>
      </trkpt>
      <trkpt lat="46.71785" lon="-0.7848">
        <ele>135.9</ele>
        <time>2020-11-15T08:49:17Z</time>
      </trkpt>
      <trkpt lat="46.71785" lon="-0.78484">
        <ele>135.7</ele>
        <time>2020-11-15T08:49:18Z</time>
      </trkpt>
      <trkpt lat="46.71782" lon="-0.78496">
        <ele>135.8</ele>
        <time>2020-11-15T08:49:20Z</time>
      </trkpt>
      <trkpt lat="46.71779" lon="-0.78503">
        <ele>136</ele>
        <time>2020-11-15T08:49:22Z</time>
      </trkpt>
      <trkpt lat="46.71777" lon="-0.78509">
        <ele>136.2</ele>
        <time>2020-11-15T08:49:24Z</time>
      </trkpt>
      <trkpt lat="46.71775" lon="-0.78512">
        <ele>136.1</ele>
        <time>2020-11-15T08:49:25Z</time>
      </trkpt>
      <trkpt lat="46.71774" lon="-0.78515">
        <ele>136.4</ele>
        <time>2020-11-15T08:49:26Z</time>
      </trkpt>
      <trkpt lat="46.71772" lon="-0.78522">
        <ele>136.3</ele>
        <time>2020-11-15T08:49:28Z</time>
      </trkpt>
      <trkpt lat="46.71772" lon="-0.78528">
        <ele>136.3</ele>
        <time>2020-11-15T08:49:30Z</time>
      </trkpt>
      <trkpt lat="46.71772" lon="-0.78535">
        <ele>136.3</ele>
        <time>2020-11-15T08:49:32Z</time>
      </trkpt>
      <trkpt lat="46.71772" lon="-0.78542">
        <ele>136.1</ele>
        <time>2020-11-15T08:49:34Z</time>
      </trkpt>
      <trkpt lat="46.71772" lon="-0.78549">
        <ele>136</ele>
        <time>2020-11-15T08:49:36Z</time>
      </trkpt>
      <trkpt lat="46.7177" lon="-0.78557">
        <ele>136.2</ele>
        <time>2020-11-15T08:49:38Z</time>
      </trkpt>
      <trkpt lat="46.71766" lon="-0.78564">
        <ele>136.4</ele>
        <time>2020-11-15T08:49:40Z</time>
      </trkpt>
      <trkpt lat="46.71765" lon="-0.78568">
        <ele>136.2</ele>
        <time>2020-11-15T08:49:42Z</time>
      </trkpt>
      <trkpt lat="46.71766" lon="-0.78573">
        <ele>136</ele>
        <time>2020-11-15T08:49:44Z</time>
      </trkpt>
      <trkpt lat="46.71766" lon="-0.78573">
        <ele>135.8</ele>
        <time>2020-11-15T08:49:45Z</time>
      </trkpt>
      <trkpt lat="46.71773" lon="-0.78585">
        <ele>135.1</ele>
        <time>2020-11-15T08:49:56Z</time>
      </trkpt>
      <trkpt lat="46.71775" lon="-0.78592">
        <ele>134.8</ele>
        <time>2020-11-15T08:49:58Z</time>
      </trkpt>
      <trkpt lat="46.71776" lon="-0.78598">
        <ele>134.8</ele>
        <time>2020-11-15T08:50:00Z</time>
      </trkpt>
      <trkpt lat="46.71779" lon="-0.78604">
        <ele>134.5</ele>
        <time>2020-11-15T08:50:02Z</time>
      </trkpt>
      <trkpt lat="46.71781" lon="-0.7861">
        <ele>134</ele>
        <time>2020-11-15T08:50:04Z</time>
      </trkpt>
      <trkpt lat="46.71781" lon="-0.78619">
        <ele>134</ele>
        <time>2020-11-15T08:50:06Z</time>
      </trkpt>
      <trkpt lat="46.71782" lon="-0.78627">
        <ele>134.1</ele>
        <time>2020-11-15T08:50:08Z</time>
      </trkpt>
      <trkpt lat="46.71784" lon="-0.78636">
        <ele>133.7</ele>
        <time>2020-11-15T08:50:10Z</time>
      </trkpt>
      <trkpt lat="46.71783" lon="-0.78641">
        <ele>133.7</ele>
        <time>2020-11-15T08:50:11Z</time>
      </trkpt>
      <trkpt lat="46.71783" lon="-0.78646">
        <ele>133.7</ele>
        <time>2020-11-15T08:50:12Z</time>
      </trkpt>
      <trkpt lat="46.71783" lon="-0.78657">
        <ele>134.1</ele>
        <time>2020-11-15T08:50:14Z</time>
      </trkpt>
      <trkpt lat="46.71782" lon="-0.78671">
        <ele>135</ele>
        <time>2020-11-15T08:50:16Z</time>
      </trkpt>
      <trkpt lat="46.71782" lon="-0.78677">
        <ele>135.3</ele>
        <time>2020-11-15T08:50:17Z</time>
      </trkpt>
      <trkpt lat="46.71783" lon="-0.78681">
        <ele>135.1</ele>
        <time>2020-11-15T08:50:18Z</time>
      </trkpt>
      <trkpt lat="46.71785" lon="-0.78687">
        <ele>135.2</ele>
        <time>2020-11-15T08:50:20Z</time>
      </trkpt>
      <trkpt lat="46.71787" lon="-0.78691">
        <ele>134.9</ele>
        <time>2020-11-15T08:50:22Z</time>
      </trkpt>
      <trkpt lat="46.71789" lon="-0.78694">
        <ele>134.5</ele>
        <time>2020-11-15T08:50:24Z</time>
      </trkpt>
      <trkpt lat="46.71803" lon="-0.78713">
        <ele>134</ele>
        <time>2020-11-15T08:50:36Z</time>
      </trkpt>
      <trkpt lat="46.71805" lon="-0.78718">
        <ele>133.8</ele>
        <time>2020-11-15T08:50:38Z</time>
      </trkpt>
      <trkpt lat="46.71806" lon="-0.78719">
        <ele>133.6</ele>
        <time>2020-11-15T08:50:39Z</time>
      </trkpt>
      <trkpt lat="46.71806" lon="-0.78721">
        <ele>133.6</ele>
        <time>2020-11-15T08:50:40Z</time>
      </trkpt>
      <trkpt lat="46.71807" lon="-0.78725">
        <ele>133.8</ele>
        <time>2020-11-15T08:50:42Z</time>
      </trkpt>
      <trkpt lat="46.71808" lon="-0.78727">
        <ele>133.6</ele>
        <time>2020-11-15T08:50:43Z</time>
      </trkpt>
      <trkpt lat="46.71809" lon="-0.78729">
        <ele>133.9</ele>
        <time>2020-11-15T08:50:44Z</time>
      </trkpt>
      <trkpt lat="46.71809" lon="-0.7873">
        <ele>133.7</ele>
        <time>2020-11-15T08:50:46Z</time>
      </trkpt>
      <trkpt lat="46.71812" lon="-0.78735">
        <ele>133.6</ele>
        <time>2020-11-15T08:50:52Z</time>
      </trkpt>
      <trkpt lat="46.71815" lon="-0.7874">
        <ele>133.5</ele>
        <time>2020-11-15T08:50:54Z</time>
      </trkpt>
      <trkpt lat="46.71816" lon="-0.78742">
        <ele>133.3</ele>
        <time>2020-11-15T08:50:55Z</time>
      </trkpt>
      <trkpt lat="46.71818" lon="-0.78744">
        <ele>133.1</ele>
        <time>2020-11-15T08:50:56Z</time>
      </trkpt>
      <trkpt lat="46.71821" lon="-0.78751">
        <ele>133.1</ele>
        <time>2020-11-15T08:50:58Z</time>
      </trkpt>
      <trkpt lat="46.71823" lon="-0.78755">
        <ele>133</ele>
        <time>2020-11-15T08:50:59Z</time>
      </trkpt>
      <trkpt lat="46.71825" lon="-0.78758">
        <ele>133</ele>
        <time>2020-11-15T08:51:00Z</time>
      </trkpt>
      <trkpt lat="46.71828" lon="-0.78767">
        <ele>132.9</ele>
        <time>2020-11-15T08:51:02Z</time>
      </trkpt>
      <trkpt lat="46.71829" lon="-0.78771">
        <ele>132.9</ele>
        <time>2020-11-15T08:51:03Z</time>
      </trkpt>
      <trkpt lat="46.71831" lon="-0.78775">
        <ele>132.9</ele>
        <time>2020-11-15T08:51:04Z</time>
      </trkpt>
      <trkpt lat="46.71836" lon="-0.78782">
        <ele>132.9</ele>
        <time>2020-11-15T08:51:06Z</time>
      </trkpt>
      <trkpt lat="46.7184" lon="-0.78788">
        <ele>132.9</ele>
        <time>2020-11-15T08:51:08Z</time>
      </trkpt>
      <trkpt lat="46.7184" lon="-0.78795">
        <ele>133</ele>
        <time>2020-11-15T08:51:10Z</time>
      </trkpt>
      <trkpt lat="46.71842" lon="-0.78801">
        <ele>133</ele>
        <time>2020-11-15T08:51:12Z</time>
      </trkpt>
      <trkpt lat="46.71845" lon="-0.78806">
        <ele>133</ele>
        <time>2020-11-15T08:51:14Z</time>
      </trkpt>
      <trkpt lat="46.71849" lon="-0.78813">
        <ele>132.9</ele>
        <time>2020-11-15T08:51:16Z</time>
      </trkpt>
      <trkpt lat="46.71854" lon="-0.78819">
        <ele>132.9</ele>
        <time>2020-11-15T08:51:18Z</time>
      </trkpt>
      <trkpt lat="46.71859" lon="-0.78825">
        <ele>132.9</ele>
        <time>2020-11-15T08:51:20Z</time>
      </trkpt>
      <trkpt lat="46.71861" lon="-0.78827">
        <ele>132.9</ele>
        <time>2020-11-15T08:51:21Z</time>
      </trkpt>
      <trkpt lat="46.71864" lon="-0.78831">
        <ele>132.9</ele>
        <time>2020-11-15T08:51:22Z</time>
      </trkpt>
      <trkpt lat="46.71869" lon="-0.78837">
        <ele>132.9</ele>
        <time>2020-11-15T08:51:24Z</time>
      </trkpt>
      <trkpt lat="46.71874" lon="-0.78843">
        <ele>132.9</ele>
        <time>2020-11-15T08:51:26Z</time>
      </trkpt>
      <trkpt lat="46.7188" lon="-0.78847">
        <ele>132.9</ele>
        <time>2020-11-15T08:51:28Z</time>
      </trkpt>
      <trkpt lat="46.71885" lon="-0.78851">
        <ele>132.8</ele>
        <time>2020-11-15T08:51:30Z</time>
      </trkpt>
      <trkpt lat="46.71892" lon="-0.78857">
        <ele>132.7</ele>
        <time>2020-11-15T08:51:32Z</time>
      </trkpt>
      <trkpt lat="46.71898" lon="-0.78863">
        <ele>132.4</ele>
        <time>2020-11-15T08:51:34Z</time>
      </trkpt>
      <trkpt lat="46.71905" lon="-0.78869">
        <ele>132</ele>
        <time>2020-11-15T08:51:36Z</time>
      </trkpt>
      <trkpt lat="46.71908" lon="-0.7887">
        <ele>131.8</ele>
        <time>2020-11-15T08:51:37Z</time>
      </trkpt>
      <trkpt lat="46.71909" lon="-0.78871">
        <ele>131.7</ele>
        <time>2020-11-15T08:51:38Z</time>
      </trkpt>
      <trkpt lat="46.71909" lon="-0.78871">
        <ele>131.7</ele>
        <time>2020-11-15T08:51:39Z</time>
      </trkpt>
      <trkpt lat="46.71908" lon="-0.78867">
        <ele>131.5</ele>
        <time>2020-11-15T08:51:49Z</time>
      </trkpt>
      <trkpt lat="46.71908" lon="-0.78864">
        <ele>131.4</ele>
        <time>2020-11-15T08:51:50Z</time>
      </trkpt>
      <trkpt lat="46.71909" lon="-0.78857">
        <ele>131.1</ele>
        <time>2020-11-15T08:51:52Z</time>
      </trkpt>
      <trkpt lat="46.71914" lon="-0.78855">
        <ele>130.8</ele>
        <time>2020-11-15T08:51:54Z</time>
      </trkpt>
      <trkpt lat="46.71921" lon="-0.78855">
        <ele>130.5</ele>
        <time>2020-11-15T08:51:56Z</time>
      </trkpt>
      <trkpt lat="46.71925" lon="-0.78856">
        <ele>130.3</ele>
        <time>2020-11-15T08:51:58Z</time>
      </trkpt>
      <trkpt lat="46.71928" lon="-0.78861">
        <ele>130.2</ele>
        <time>2020-11-15T08:52:00Z</time>
      </trkpt>
      <trkpt lat="46.71932" lon="-0.78866">
        <ele>130</ele>
        <time>2020-11-15T08:52:02Z</time>
      </trkpt>
      <trkpt lat="46.71934" lon="-0.78868">
        <ele>129.9</ele>
        <time>2020-11-15T08:52:03Z</time>
      </trkpt>
      <trkpt lat="46.71938" lon="-0.78869">
        <ele>129.8</ele>
        <time>2020-11-15T08:52:04Z</time>
      </trkpt>
      <trkpt lat="46.71941" lon="-0.7887">
        <ele>129.8</ele>
        <time>2020-11-15T08:52:05Z</time>
      </trkpt>
      <trkpt lat="46.71943" lon="-0.7887">
        <ele>129.7</ele>
        <time>2020-11-15T08:52:06Z</time>
      </trkpt>
      <trkpt lat="46.71945" lon="-0.78869">
        <ele>129.6</ele>
        <time>2020-11-15T08:52:07Z</time>
      </trkpt>
      <trkpt lat="46.71948" lon="-0.78868">
        <ele>129.6</ele>
        <time>2020-11-15T08:52:08Z</time>
      </trkpt>
      <trkpt lat="46.71951" lon="-0.78863">
        <ele>129.4</ele>
        <time>2020-11-15T08:52:10Z</time>
      </trkpt>
      <trkpt lat="46.71956" lon="-0.78861">
        <ele>129.3</ele>
        <time>2020-11-15T08:52:12Z</time>
      </trkpt>
      <trkpt lat="46.71958" lon="-0.78861">
        <ele>129.2</ele>
        <time>2020-11-15T08:52:13Z</time>
      </trkpt>
      <trkpt lat="46.7196" lon="-0.78861">
        <ele>129.2</ele>
        <time>2020-11-15T08:52:14Z</time>
      </trkpt>
      <trkpt lat="46.71965" lon="-0.7886">
        <ele>129.1</ele>
        <time>2020-11-15T08:52:16Z</time>
      </trkpt>
      <trkpt lat="46.7197" lon="-0.78859">
        <ele>129.1</ele>
        <time>2020-11-15T08:52:18Z</time>
      </trkpt>
      <trkpt lat="46.71973" lon="-0.78858">
        <ele>129.1</ele>
        <time>2020-11-15T08:52:19Z</time>
      </trkpt>
      <trkpt lat="46.71975" lon="-0.78856">
        <ele>129.1</ele>
        <time>2020-11-15T08:52:20Z</time>
      </trkpt>
      <trkpt lat="46.71976" lon="-0.78853">
        <ele>129.1</ele>
        <time>2020-11-15T08:52:22Z</time>
      </trkpt>
      <trkpt lat="46.71977" lon="-0.7885">
        <ele>129.1</ele>
        <time>2020-11-15T08:52:23Z</time>
      </trkpt>
      <trkpt lat="46.71977" lon="-0.78848">
        <ele>129.1</ele>
        <time>2020-11-15T08:52:24Z</time>
      </trkpt>
      <trkpt lat="46.71978" lon="-0.78845">
        <ele>129.1</ele>
        <time>2020-11-15T08:52:25Z</time>
      </trkpt>
      <trkpt lat="46.71979" lon="-0.78844">
        <ele>129.1</ele>
        <time>2020-11-15T08:52:26Z</time>
      </trkpt>
      <trkpt lat="46.71979" lon="-0.78842">
        <ele>129.1</ele>
        <time>2020-11-15T08:52:28Z</time>
      </trkpt>
      <trkpt lat="46.7199" lon="-0.78838">
        <ele>129.1</ele>
        <time>2020-11-15T08:52:45Z</time>
      </trkpt>
      <trkpt lat="46.71993" lon="-0.7884">
        <ele>129.1</ele>
        <time>2020-11-15T08:52:46Z</time>
      </trkpt>
      <trkpt lat="46.71998" lon="-0.78842">
        <ele>129.1</ele>
        <time>2020-11-15T08:52:48Z</time>
      </trkpt>
      <trkpt lat="46.72004" lon="-0.78845">
        <ele>129.1</ele>
        <time>2020-11-15T08:52:50Z</time>
      </trkpt>
      <trkpt lat="46.7201" lon="-0.7885">
        <ele>129.1</ele>
        <time>2020-11-15T08:52:52Z</time>
      </trkpt>
      <trkpt lat="46.72017" lon="-0.78855">
        <ele>129.1</ele>
        <time>2020-11-15T08:52:54Z</time>
      </trkpt>
      <trkpt lat="46.72023" lon="-0.7886">
        <ele>129.1</ele>
        <time>2020-11-15T08:52:56Z</time>
      </trkpt>
      <trkpt lat="46.72026" lon="-0.78862">
        <ele>129.2</ele>
        <time>2020-11-15T08:52:57Z</time>
      </trkpt>
      <trkpt lat="46.72029" lon="-0.78865">
        <ele>129.2</ele>
        <time>2020-11-15T08:52:58Z</time>
      </trkpt>
      <trkpt lat="46.72035" lon="-0.78871">
        <ele>129.3</ele>
        <time>2020-11-15T08:53:00Z</time>
      </trkpt>
      <trkpt lat="46.7204" lon="-0.78878">
        <ele>129.5</ele>
        <time>2020-11-15T08:53:02Z</time>
      </trkpt>
      <trkpt lat="46.72047" lon="-0.78886">
        <ele>129.6</ele>
        <time>2020-11-15T08:53:04Z</time>
      </trkpt>
      <trkpt lat="46.72053" lon="-0.78893">
        <ele>129.8</ele>
        <time>2020-11-15T08:53:06Z</time>
      </trkpt>
      <trkpt lat="46.72055" lon="-0.78896">
        <ele>130</ele>
        <time>2020-11-15T08:53:07Z</time>
      </trkpt>
      <trkpt lat="46.72058" lon="-0.789">
        <ele>130.1</ele>
        <time>2020-11-15T08:53:08Z</time>
      </trkpt>
      <trkpt lat="46.72064" lon="-0.78907">
        <ele>130.4</ele>
        <time>2020-11-15T08:53:10Z</time>
      </trkpt>
      <trkpt lat="46.72069" lon="-0.78915">
        <ele>130.6</ele>
        <time>2020-11-15T08:53:12Z</time>
      </trkpt>
      <trkpt lat="46.72074" lon="-0.78921">
        <ele>130.9</ele>
        <time>2020-11-15T08:53:14Z</time>
      </trkpt>
      <trkpt lat="46.72079" lon="-0.78927">
        <ele>131.1</ele>
        <time>2020-11-15T08:53:16Z</time>
      </trkpt>
      <trkpt lat="46.72081" lon="-0.7893">
        <ele>131.1</ele>
        <time>2020-11-15T08:53:17Z</time>
      </trkpt>
      <trkpt lat="46.72083" lon="-0.78933">
        <ele>131.2</ele>
        <time>2020-11-15T08:53:18Z</time>
      </trkpt>
      <trkpt lat="46.72085" lon="-0.78937">
        <ele>131.3</ele>
        <time>2020-11-15T08:53:19Z</time>
      </trkpt>
      <trkpt lat="46.72088" lon="-0.78942">
        <ele>131.4</ele>
        <time>2020-11-15T08:53:20Z</time>
      </trkpt>
      <trkpt lat="46.72094" lon="-0.78951">
        <ele>131.5</ele>
        <time>2020-11-15T08:53:22Z</time>
      </trkpt>
      <trkpt lat="46.721" lon="-0.78959">
        <ele>131.6</ele>
        <time>2020-11-15T08:53:24Z</time>
      </trkpt>
      <trkpt lat="46.72106" lon="-0.78967">
        <ele>131.6</ele>
        <time>2020-11-15T08:53:26Z</time>
      </trkpt>
      <trkpt lat="46.72111" lon="-0.78975">
        <ele>131.5</ele>
        <time>2020-11-15T08:53:28Z</time>
      </trkpt>
      <trkpt lat="46.72116" lon="-0.78983">
        <ele>131.4</ele>
        <time>2020-11-15T08:53:30Z</time>
      </trkpt>
      <trkpt lat="46.72123" lon="-0.78992">
        <ele>131.2</ele>
        <time>2020-11-15T08:53:32Z</time>
      </trkpt>
      <trkpt lat="46.72129" lon="-0.79001">
        <ele>130.9</ele>
        <time>2020-11-15T08:53:34Z</time>
      </trkpt>
      <trkpt lat="46.72133" lon="-0.79005">
        <ele>130.7</ele>
        <time>2020-11-15T08:53:35Z</time>
      </trkpt>
      <trkpt lat="46.72136" lon="-0.7901">
        <ele>130.6</ele>
        <time>2020-11-15T08:53:36Z</time>
      </trkpt>
      <trkpt lat="46.72141" lon="-0.79018">
        <ele>130.3</ele>
        <time>2020-11-15T08:53:38Z</time>
      </trkpt>
      <trkpt lat="46.72144" lon="-0.79022">
        <ele>130.1</ele>
        <time>2020-11-15T08:53:39Z</time>
      </trkpt>
      <trkpt lat="46.72146" lon="-0.79026">
        <ele>130</ele>
        <time>2020-11-15T08:53:40Z</time>
      </trkpt>
      <trkpt lat="46.7215" lon="-0.79036">
        <ele>129.7</ele>
        <time>2020-11-15T08:53:42Z</time>
      </trkpt>
      <trkpt lat="46.72153" lon="-0.79046">
        <ele>129.4</ele>
        <time>2020-11-15T08:53:44Z</time>
      </trkpt>
      <trkpt lat="46.72152" lon="-0.79057">
        <ele>129.2</ele>
        <time>2020-11-15T08:53:46Z</time>
      </trkpt>
      <trkpt lat="46.7215" lon="-0.79062">
        <ele>129</ele>
        <time>2020-11-15T08:53:47Z</time>
      </trkpt>
      <trkpt lat="46.72148" lon="-0.79067">
        <ele>129.1</ele>
        <time>2020-11-15T08:53:48Z</time>
      </trkpt>
      <trkpt lat="46.72147" lon="-0.79076">
        <ele>129.7</ele>
        <time>2020-11-15T08:53:50Z</time>
      </trkpt>
      <trkpt lat="46.72145" lon="-0.79075">
        <ele>129.5</ele>
        <time>2020-11-15T08:57:19Z</time>
      </trkpt>
      <trkpt lat="46.72141" lon="-0.7907">
        <ele>128.6</ele>
        <time>2020-11-15T08:57:20Z</time>
      </trkpt>
      <trkpt lat="46.72129" lon="-0.79068">
        <ele>127.9</ele>
        <time>2020-11-15T08:57:22Z</time>
      </trkpt>
      <trkpt lat="46.7212" lon="-0.79075">
        <ele>127.3</ele>
        <time>2020-11-15T08:57:24Z</time>
      </trkpt>
      <trkpt lat="46.72116" lon="-0.79083">
        <ele>127</ele>
        <time>2020-11-15T08:57:25Z</time>
      </trkpt>
      <trkpt lat="46.72113" lon="-0.79093">
        <ele>126.7</ele>
        <time>2020-11-15T08:57:26Z</time>
      </trkpt>
      <trkpt lat="46.72113" lon="-0.79114">
        <ele>126.1</ele>
        <time>2020-11-15T08:57:28Z</time>
      </trkpt>
      <trkpt lat="46.72114" lon="-0.79132">
        <ele>125.7</ele>
        <time>2020-11-15T08:57:30Z</time>
      </trkpt>
      <trkpt lat="46.72117" lon="-0.79149">
        <ele>125.5</ele>
        <time>2020-11-15T08:57:32Z</time>
      </trkpt>
      <trkpt lat="46.72118" lon="-0.79157">
        <ele>125.4</ele>
        <time>2020-11-15T08:57:33Z</time>
      </trkpt>
      <trkpt lat="46.72118" lon="-0.79167">
        <ele>125.2</ele>
        <time>2020-11-15T08:57:34Z</time>
      </trkpt>
      <trkpt lat="46.72118" lon="-0.79187">
        <ele>125</ele>
        <time>2020-11-15T08:57:36Z</time>
      </trkpt>
      <trkpt lat="46.72118" lon="-0.79196">
        <ele>124.9</ele>
        <time>2020-11-15T08:57:37Z</time>
      </trkpt>
      <trkpt lat="46.72118" lon="-0.79205">
        <ele>124.8</ele>
        <time>2020-11-15T08:57:38Z</time>
      </trkpt>
      <trkpt lat="46.72118" lon="-0.79224">
        <ele>124.6</ele>
        <time>2020-11-15T08:57:40Z</time>
      </trkpt>
      <trkpt lat="46.72117" lon="-0.79232">
        <ele>124.5</ele>
        <time>2020-11-15T08:57:41Z</time>
      </trkpt>
      <trkpt lat="46.72116" lon="-0.79241">
        <ele>124.5</ele>
        <time>2020-11-15T08:57:42Z</time>
      </trkpt>
      <trkpt lat="46.72116" lon="-0.79259">
        <ele>124.3</ele>
        <time>2020-11-15T08:57:44Z</time>
      </trkpt>
      <trkpt lat="46.72116" lon="-0.79268">
        <ele>124.2</ele>
        <time>2020-11-15T08:57:45Z</time>
      </trkpt>
      <trkpt lat="46.72116" lon="-0.79276">
        <ele>124.1</ele>
        <time>2020-11-15T08:57:46Z</time>
      </trkpt>
      <trkpt lat="46.72115" lon="-0.79294">
        <ele>124</ele>
        <time>2020-11-15T08:57:48Z</time>
      </trkpt>
      <trkpt lat="46.72114" lon="-0.79302">
        <ele>123.9</ele>
        <time>2020-11-15T08:57:49Z</time>
      </trkpt>
      <trkpt lat="46.72114" lon="-0.79311">
        <ele>123.8</ele>
        <time>2020-11-15T08:57:50Z</time>
      </trkpt>
      <trkpt lat="46.72113" lon="-0.7933">
        <ele>123.7</ele>
        <time>2020-11-15T08:57:52Z</time>
      </trkpt>
      <trkpt lat="46.72113" lon="-0.79348">
        <ele>123.5</ele>
        <time>2020-11-15T08:57:54Z</time>
      </trkpt>
      <trkpt lat="46.72112" lon="-0.79357">
        <ele>123.5</ele>
        <time>2020-11-15T08:57:55Z</time>
      </trkpt>
      <trkpt lat="46.7211" lon="-0.79367">
        <ele>123.5</ele>
        <time>2020-11-15T08:57:56Z</time>
      </trkpt>
      <trkpt lat="46.72108" lon="-0.79375">
        <ele>123.5</ele>
        <time>2020-11-15T08:57:57Z</time>
      </trkpt>
      <trkpt lat="46.72105" lon="-0.79383">
        <ele>123.5</ele>
        <time>2020-11-15T08:57:58Z</time>
      </trkpt>
      <trkpt lat="46.721" lon="-0.794">
        <ele>123.5</ele>
        <time>2020-11-15T08:58:00Z</time>
      </trkpt>
      <trkpt lat="46.72097" lon="-0.79409">
        <ele>123.5</ele>
        <time>2020-11-15T08:58:01Z</time>
      </trkpt>
      <trkpt lat="46.72094" lon="-0.79416">
        <ele>123.5</ele>
        <time>2020-11-15T08:58:02Z</time>
      </trkpt>
      <trkpt lat="46.72091" lon="-0.79422">
        <ele>123.5</ele>
        <time>2020-11-15T08:58:03Z</time>
      </trkpt>
      <trkpt lat="46.72089" lon="-0.79428">
        <ele>123.5</ele>
        <time>2020-11-15T08:58:04Z</time>
      </trkpt>
      <trkpt lat="46.72085" lon="-0.79435">
        <ele>123.5</ele>
        <time>2020-11-15T08:58:05Z</time>
      </trkpt>
      <trkpt lat="46.72081" lon="-0.79443">
        <ele>123.5</ele>
        <time>2020-11-15T08:58:06Z</time>
      </trkpt>
      <trkpt lat="46.72075" lon="-0.79458">
        <ele>123.4</ele>
        <time>2020-11-15T08:58:08Z</time>
      </trkpt>
      <trkpt lat="46.72071" lon="-0.79465">
        <ele>123.4</ele>
        <time>2020-11-15T08:58:09Z</time>
      </trkpt>
      <trkpt lat="46.72067" lon="-0.79473">
        <ele>123.4</ele>
        <time>2020-11-15T08:58:10Z</time>
      </trkpt>
      <trkpt lat="46.7206" lon="-0.79489">
        <ele>123.4</ele>
        <time>2020-11-15T08:58:12Z</time>
      </trkpt>
      <trkpt lat="46.72053" lon="-0.79506">
        <ele>123.3</ele>
        <time>2020-11-15T08:58:14Z</time>
      </trkpt>
      <trkpt lat="46.72049" lon="-0.79515">
        <ele>123.3</ele>
        <time>2020-11-15T08:58:15Z</time>
      </trkpt>
      <trkpt lat="46.72046" lon="-0.79524">
        <ele>123.3</ele>
        <time>2020-11-15T08:58:16Z</time>
      </trkpt>
      <trkpt lat="46.72039" lon="-0.79542">
        <ele>123.3</ele>
        <time>2020-11-15T08:58:18Z</time>
      </trkpt>
      <trkpt lat="46.72033" lon="-0.79561">
        <ele>123.4</ele>
        <time>2020-11-15T08:58:20Z</time>
      </trkpt>
      <trkpt lat="46.7203" lon="-0.7957">
        <ele>123.4</ele>
        <time>2020-11-15T08:58:21Z</time>
      </trkpt>
      <trkpt lat="46.72028" lon="-0.7958">
        <ele>123.5</ele>
        <time>2020-11-15T08:58:22Z</time>
      </trkpt>
      <trkpt lat="46.72027" lon="-0.7959">
        <ele>123.5</ele>
        <time>2020-11-15T08:58:23Z</time>
      </trkpt>
      <trkpt lat="46.72027" lon="-0.796">
        <ele>123.5</ele>
        <time>2020-11-15T08:58:24Z</time>
      </trkpt>
      <trkpt lat="46.72029" lon="-0.79611">
        <ele>123.5</ele>
        <time>2020-11-15T08:58:25Z</time>
      </trkpt>
      <trkpt lat="46.72031" lon="-0.7962">
        <ele>123.5</ele>
        <time>2020-11-15T08:58:26Z</time>
      </trkpt>
      <trkpt lat="46.72034" lon="-0.79629">
        <ele>123.5</ele>
        <time>2020-11-15T08:58:27Z</time>
      </trkpt>
      <trkpt lat="46.72038" lon="-0.79638">
        <ele>123.5</ele>
        <time>2020-11-15T08:58:28Z</time>
      </trkpt>
      <trkpt lat="46.72042" lon="-0.79645">
        <ele>123.4</ele>
        <time>2020-11-15T08:58:29Z</time>
      </trkpt>
      <trkpt lat="46.72047" lon="-0.79653">
        <ele>123.3</ele>
        <time>2020-11-15T08:58:30Z</time>
      </trkpt>
      <trkpt lat="46.72058" lon="-0.79667">
        <ele>123.3</ele>
        <time>2020-11-15T08:58:32Z</time>
      </trkpt>
      <trkpt lat="46.72064" lon="-0.79674">
        <ele>123.2</ele>
        <time>2020-11-15T08:58:33Z</time>
      </trkpt>
      <trkpt lat="46.72069" lon="-0.7968">
        <ele>123.2</ele>
        <time>2020-11-15T08:58:34Z</time>
      </trkpt>
      <trkpt lat="46.72082" lon="-0.79691">
        <ele>123.1</ele>
        <time>2020-11-15T08:58:36Z</time>
      </trkpt>
      <trkpt lat="46.72094" lon="-0.79702">
        <ele>123.1</ele>
        <time>2020-11-15T08:58:38Z</time>
      </trkpt>
      <trkpt lat="46.72107" lon="-0.79712">
        <ele>123</ele>
        <time>2020-11-15T08:58:40Z</time>
      </trkpt>
      <trkpt lat="46.72119" lon="-0.79723">
        <ele>122.7</ele>
        <time>2020-11-15T08:58:42Z</time>
      </trkpt>
      <trkpt lat="46.7213" lon="-0.79737">
        <ele>122.4</ele>
        <time>2020-11-15T08:58:44Z</time>
      </trkpt>
      <trkpt lat="46.72141" lon="-0.79751">
        <ele>122</ele>
        <time>2020-11-15T08:58:46Z</time>
      </trkpt>
      <trkpt lat="46.72152" lon="-0.79766">
        <ele>121.7</ele>
        <time>2020-11-15T08:58:48Z</time>
      </trkpt>
      <trkpt lat="46.72161" lon="-0.79782">
        <ele>121.4</ele>
        <time>2020-11-15T08:58:50Z</time>
      </trkpt>
      <trkpt lat="46.72165" lon="-0.7979">
        <ele>121.3</ele>
        <time>2020-11-15T08:58:51Z</time>
      </trkpt>
      <trkpt lat="46.72169" lon="-0.79798">
        <ele>121.2</ele>
        <time>2020-11-15T08:58:52Z</time>
      </trkpt>
      <trkpt lat="46.72172" lon="-0.79807">
        <ele>121.2</ele>
        <time>2020-11-15T08:58:53Z</time>
      </trkpt>
      <trkpt lat="46.72175" lon="-0.79817">
        <ele>121.1</ele>
        <time>2020-11-15T08:58:54Z</time>
      </trkpt>
      <trkpt lat="46.72181" lon="-0.79836">
        <ele>121.1</ele>
        <time>2020-11-15T08:58:56Z</time>
      </trkpt>
      <trkpt lat="46.72186" lon="-0.79855">
        <ele>121.1</ele>
        <time>2020-11-15T08:58:58Z</time>
      </trkpt>
      <trkpt lat="46.72189" lon="-0.79865">
        <ele>121.2</ele>
        <time>2020-11-15T08:58:59Z</time>
      </trkpt>
      <trkpt lat="46.7219" lon="-0.79874">
        <ele>121.3</ele>
        <time>2020-11-15T08:59:00Z</time>
      </trkpt>
      <trkpt lat="46.72194" lon="-0.79891">
        <ele>121.5</ele>
        <time>2020-11-15T08:59:02Z</time>
      </trkpt>
      <trkpt lat="46.722" lon="-0.79902">
        <ele>121.7</ele>
        <time>2020-11-15T08:59:04Z</time>
      </trkpt>
      <trkpt lat="46.72203" lon="-0.79905">
        <ele>122.4</ele>
        <time>2020-11-15T08:59:05Z</time>
      </trkpt>
      <trkpt lat="46.72206" lon="-0.79906">
        <ele>122.8</ele>
        <time>2020-11-15T08:59:06Z</time>
      </trkpt>
      <trkpt lat="46.7221" lon="-0.79906">
        <ele>123.3</ele>
        <time>2020-11-15T08:59:07Z</time>
      </trkpt>
      <trkpt lat="46.72214" lon="-0.79905">
        <ele>123.7</ele>
        <time>2020-11-15T08:59:08Z</time>
      </trkpt>
      <trkpt lat="46.7222" lon="-0.79903">
        <ele>124.7</ele>
        <time>2020-11-15T08:59:10Z</time>
      </trkpt>
      <trkpt lat="46.72226" lon="-0.79901">
        <ele>124.7</ele>
        <time>2020-11-15T08:59:12Z</time>
      </trkpt>
      <trkpt lat="46.72229" lon="-0.79902">
        <ele>124.7</ele>
        <time>2020-11-15T08:59:13Z</time>
      </trkpt>
      <trkpt lat="46.72231" lon="-0.79903">
        <ele>124.7</ele>
        <time>2020-11-15T08:59:14Z</time>
      </trkpt>
      <trkpt lat="46.72234" lon="-0.79908">
        <ele>124.5</ele>
        <time>2020-11-15T08:59:16Z</time>
      </trkpt>
      <trkpt lat="46.72236" lon="-0.79911">
        <ele>124.4</ele>
        <time>2020-11-15T08:59:17Z</time>
      </trkpt>
      <trkpt lat="46.72239" lon="-0.79914">
        <ele>124.2</ele>
        <time>2020-11-15T08:59:18Z</time>
      </trkpt>
      <trkpt lat="46.72246" lon="-0.7992">
        <ele>124.1</ele>
        <time>2020-11-15T08:59:20Z</time>
      </trkpt>
      <trkpt lat="46.72249" lon="-0.79925">
        <ele>124</ele>
        <time>2020-11-15T08:59:21Z</time>
      </trkpt>
      <trkpt lat="46.72252" lon="-0.79931">
        <ele>123.7</ele>
        <time>2020-11-15T08:59:22Z</time>
      </trkpt>
      <trkpt lat="46.72255" lon="-0.79937">
        <ele>123.5</ele>
        <time>2020-11-15T08:59:23Z</time>
      </trkpt>
      <trkpt lat="46.72256" lon="-0.79945">
        <ele>123.2</ele>
        <time>2020-11-15T08:59:24Z</time>
      </trkpt>
      <trkpt lat="46.72257" lon="-0.79953">
        <ele>122.9</ele>
        <time>2020-11-15T08:59:25Z</time>
      </trkpt>
      <trkpt lat="46.72257" lon="-0.79961">
        <ele>122.6</ele>
        <time>2020-11-15T08:59:26Z</time>
      </trkpt>
      <trkpt lat="46.72258" lon="-0.79971">
        <ele>122.3</ele>
        <time>2020-11-15T08:59:28Z</time>
      </trkpt>
      <trkpt lat="46.72259" lon="-0.79974">
        <ele>122.1</ele>
        <time>2020-11-15T08:59:30Z</time>
      </trkpt>
      <trkpt lat="46.72261" lon="-0.79974">
        <ele>122.1</ele>
        <time>2020-11-15T08:59:31Z</time>
      </trkpt>
      <trkpt lat="46.72263" lon="-0.79973">
        <ele>122</ele>
        <time>2020-11-15T08:59:32Z</time>
      </trkpt>
      <trkpt lat="46.72269" lon="-0.79973">
        <ele>122.1</ele>
        <time>2020-11-15T08:59:34Z</time>
      </trkpt>
      <trkpt lat="46.72274" lon="-0.79971">
        <ele>122.1</ele>
        <time>2020-11-15T08:59:36Z</time>
      </trkpt>
      <trkpt lat="46.72281" lon="-0.7997">
        <ele>122</ele>
        <time>2020-11-15T08:59:38Z</time>
      </trkpt>
      <trkpt lat="46.72288" lon="-0.79967">
        <ele>122.1</ele>
        <time>2020-11-15T08:59:40Z</time>
      </trkpt>
      <trkpt lat="46.72295" lon="-0.79965">
        <ele>122</ele>
        <time>2020-11-15T08:59:42Z</time>
      </trkpt>
      <trkpt lat="46.72302" lon="-0.79963">
        <ele>122.1</ele>
        <time>2020-11-15T08:59:44Z</time>
      </trkpt>
      <trkpt lat="46.72308" lon="-0.79961">
        <ele>122</ele>
        <time>2020-11-15T08:59:46Z</time>
      </trkpt>
      <trkpt lat="46.72314" lon="-0.79958">
        <ele>122.1</ele>
        <time>2020-11-15T08:59:48Z</time>
      </trkpt>
      <trkpt lat="46.72318" lon="-0.79956">
        <ele>122.1</ele>
        <time>2020-11-15T08:59:49Z</time>
      </trkpt>
      <trkpt lat="46.72321" lon="-0.79955">
        <ele>122.1</ele>
        <time>2020-11-15T08:59:50Z</time>
      </trkpt>
      <trkpt lat="46.72329" lon="-0.79952">
        <ele>122</ele>
        <time>2020-11-15T08:59:52Z</time>
      </trkpt>
      <trkpt lat="46.72336" lon="-0.79949">
        <ele>122</ele>
        <time>2020-11-15T08:59:54Z</time>
      </trkpt>
      <trkpt lat="46.72343" lon="-0.79946">
        <ele>122.1</ele>
        <time>2020-11-15T08:59:56Z</time>
      </trkpt>
      <trkpt lat="46.72349" lon="-0.79942">
        <ele>122.1</ele>
        <time>2020-11-15T08:59:58Z</time>
      </trkpt>
      <trkpt lat="46.72355" lon="-0.79939">
        <ele>121.9</ele>
        <time>2020-11-15T09:00:00Z</time>
      </trkpt>
      <trkpt lat="46.72361" lon="-0.79938">
        <ele>122</ele>
        <time>2020-11-15T09:00:02Z</time>
      </trkpt>
      <trkpt lat="46.72368" lon="-0.79942">
        <ele>121.8</ele>
        <time>2020-11-15T09:00:04Z</time>
      </trkpt>
      <trkpt lat="46.72375" lon="-0.79947">
        <ele>121.4</ele>
        <time>2020-11-15T09:00:06Z</time>
      </trkpt>
      <trkpt lat="46.72382" lon="-0.79952">
        <ele>121.3</ele>
        <time>2020-11-15T09:00:08Z</time>
      </trkpt>
      <trkpt lat="46.7239" lon="-0.79954">
        <ele>121.4</ele>
        <time>2020-11-15T09:00:10Z</time>
      </trkpt>
      <trkpt lat="46.72398" lon="-0.79955">
        <ele>121.4</ele>
        <time>2020-11-15T09:00:12Z</time>
      </trkpt>
      <trkpt lat="46.72402" lon="-0.79955">
        <ele>121.4</ele>
        <time>2020-11-15T09:00:13Z</time>
      </trkpt>
      <trkpt lat="46.72404" lon="-0.79955">
        <ele>121.5</ele>
        <time>2020-11-15T09:00:14Z</time>
      </trkpt>
      <trkpt lat="46.72406" lon="-0.79955">
        <ele>121.4</ele>
        <time>2020-11-15T09:00:15Z</time>
      </trkpt>
      <trkpt lat="46.72408" lon="-0.79957">
        <ele>121.4</ele>
        <time>2020-11-15T09:00:16Z</time>
      </trkpt>
      <trkpt lat="46.72408" lon="-0.79958">
        <ele>121.3</ele>
        <time>2020-11-15T09:00:17Z</time>
      </trkpt>
      <trkpt lat="46.72408" lon="-0.79961">
        <ele>121.3</ele>
        <time>2020-11-15T09:00:18Z</time>
      </trkpt>
      <trkpt lat="46.72406" lon="-0.79966">
        <ele>121.1</ele>
        <time>2020-11-15T09:00:20Z</time>
      </trkpt>
      <trkpt lat="46.72406" lon="-0.79974">
        <ele>121</ele>
        <time>2020-11-15T09:00:22Z</time>
      </trkpt>
      <trkpt lat="46.72406" lon="-0.79979">
        <ele>120.9</ele>
        <time>2020-11-15T09:00:24Z</time>
      </trkpt>
      <trkpt lat="46.72406" lon="-0.79979">
        <ele>120.9</ele>
        <time>2020-11-15T09:00:25Z</time>
      </trkpt>
      <trkpt lat="46.72407" lon="-0.7998">
        <ele>120.9</ele>
        <time>2020-11-15T09:00:26Z</time>
      </trkpt>
      <trkpt lat="46.72409" lon="-0.79985">
        <ele>120.9</ele>
        <time>2020-11-15T09:00:28Z</time>
      </trkpt>
      <trkpt lat="46.72409" lon="-0.79989">
        <ele>120.8</ele>
        <time>2020-11-15T09:00:29Z</time>
      </trkpt>
      <trkpt lat="46.72409" lon="-0.79994">
        <ele>120.7</ele>
        <time>2020-11-15T09:00:30Z</time>
      </trkpt>
      <trkpt lat="46.72409" lon="-0.79998">
        <ele>120.7</ele>
        <time>2020-11-15T09:00:31Z</time>
      </trkpt>
      <trkpt lat="46.7241" lon="-0.80001">
        <ele>120.7</ele>
        <time>2020-11-15T09:00:32Z</time>
      </trkpt>
      <trkpt lat="46.72411" lon="-0.80006">
        <ele>120.7</ele>
        <time>2020-11-15T09:00:34Z</time>
      </trkpt>
      <trkpt lat="46.72413" lon="-0.8001">
        <ele>120.8</ele>
        <time>2020-11-15T09:00:36Z</time>
      </trkpt>
      <trkpt lat="46.72415" lon="-0.80016">
        <ele>120.7</ele>
        <time>2020-11-15T09:00:38Z</time>
      </trkpt>
      <trkpt lat="46.72416" lon="-0.80019">
        <ele>120.8</ele>
        <time>2020-11-15T09:00:39Z</time>
      </trkpt>
      <trkpt lat="46.72416" lon="-0.80023">
        <ele>120.8</ele>
        <time>2020-11-15T09:00:40Z</time>
      </trkpt>
      <trkpt lat="46.72415" lon="-0.80028">
        <ele>120.7</ele>
        <time>2020-11-15T09:00:41Z</time>
      </trkpt>
      <trkpt lat="46.72414" lon="-0.80032">
        <ele>120.7</ele>
        <time>2020-11-15T09:00:42Z</time>
      </trkpt>
      <trkpt lat="46.72413" lon="-0.80035">
        <ele>120.7</ele>
        <time>2020-11-15T09:00:43Z</time>
      </trkpt>
      <trkpt lat="46.72414" lon="-0.80039">
        <ele>120.7</ele>
        <time>2020-11-15T09:00:44Z</time>
      </trkpt>
      <trkpt lat="46.72415" lon="-0.80045">
        <ele>120.7</ele>
        <time>2020-11-15T09:00:46Z</time>
      </trkpt>
      <trkpt lat="46.72413" lon="-0.80054">
        <ele>120.7</ele>
        <time>2020-11-15T09:00:48Z</time>
      </trkpt>
      <trkpt lat="46.72413" lon="-0.80061">
        <ele>120.7</ele>
        <time>2020-11-15T09:00:50Z</time>
      </trkpt>
      <trkpt lat="46.72415" lon="-0.80066">
        <ele>120.7</ele>
        <time>2020-11-15T09:00:52Z</time>
      </trkpt>
      <trkpt lat="46.72416" lon="-0.80068">
        <ele>120.8</ele>
        <time>2020-11-15T09:00:53Z</time>
      </trkpt>
      <trkpt lat="46.72418" lon="-0.8007">
        <ele>120.8</ele>
        <time>2020-11-15T09:00:54Z</time>
      </trkpt>
      <trkpt lat="46.72419" lon="-0.80075">
        <ele>120.9</ele>
        <time>2020-11-15T09:00:56Z</time>
      </trkpt>
      <trkpt lat="46.72418" lon="-0.80078">
        <ele>120.9</ele>
        <time>2020-11-15T09:00:57Z</time>
      </trkpt>
      <trkpt lat="46.72417" lon="-0.80081">
        <ele>120.8</ele>
        <time>2020-11-15T09:00:58Z</time>
      </trkpt>
      <trkpt lat="46.72416" lon="-0.80083">
        <ele>120.8</ele>
        <time>2020-11-15T09:01:00Z</time>
      </trkpt>
      <trkpt lat="46.72417" lon="-0.80093">
        <ele>120.7</ele>
        <time>2020-11-15T09:01:04Z</time>
      </trkpt>
      <trkpt lat="46.72417" lon="-0.80101">
        <ele>120.7</ele>
        <time>2020-11-15T09:01:06Z</time>
      </trkpt>
      <trkpt lat="46.72418" lon="-0.80108">
        <ele>120.6</ele>
        <time>2020-11-15T09:01:08Z</time>
      </trkpt>
      <trkpt lat="46.7242" lon="-0.80113">
        <ele>120.6</ele>
        <time>2020-11-15T09:01:10Z</time>
      </trkpt>
      <trkpt lat="46.72422" lon="-0.8012">
        <ele>120.7</ele>
        <time>2020-11-15T09:01:12Z</time>
      </trkpt>
      <trkpt lat="46.72424" lon="-0.80125">
        <ele>120.7</ele>
        <time>2020-11-15T09:01:14Z</time>
      </trkpt>
      <trkpt lat="46.72425" lon="-0.80127">
        <ele>120.8</ele>
        <time>2020-11-15T09:01:15Z</time>
      </trkpt>
      <trkpt lat="46.72427" lon="-0.8013">
        <ele>120.8</ele>
        <time>2020-11-15T09:01:16Z</time>
      </trkpt>
      <trkpt lat="46.72431" lon="-0.80136">
        <ele>121</ele>
        <time>2020-11-15T09:01:18Z</time>
      </trkpt>
      <trkpt lat="46.72432" lon="-0.8014">
        <ele>121</ele>
        <time>2020-11-15T09:01:19Z</time>
      </trkpt>
      <trkpt lat="46.72433" lon="-0.80143">
        <ele>121.1</ele>
        <time>2020-11-15T09:01:20Z</time>
      </trkpt>
      <trkpt lat="46.72436" lon="-0.80149">
        <ele>121.3</ele>
        <time>2020-11-15T09:01:22Z</time>
      </trkpt>
      <trkpt lat="46.72438" lon="-0.80155">
        <ele>121.2</ele>
        <time>2020-11-15T09:01:24Z</time>
      </trkpt>
      <trkpt lat="46.72439" lon="-0.80159">
        <ele>121.2</ele>
        <time>2020-11-15T09:01:25Z</time>
      </trkpt>
      <trkpt lat="46.72439" lon="-0.80162">
        <ele>121.2</ele>
        <time>2020-11-15T09:01:26Z</time>
      </trkpt>
      <trkpt lat="46.72439" lon="-0.80173">
        <ele>121</ele>
        <time>2020-11-15T09:01:28Z</time>
      </trkpt>
      <trkpt lat="46.72437" lon="-0.80185">
        <ele>120.9</ele>
        <time>2020-11-15T09:01:30Z</time>
      </trkpt>
      <trkpt lat="46.72436" lon="-0.80194">
        <ele>120.7</ele>
        <time>2020-11-15T09:01:32Z</time>
      </trkpt>
      <trkpt lat="46.72435" lon="-0.80201">
        <ele>120.7</ele>
        <time>2020-11-15T09:01:34Z</time>
      </trkpt>
      <trkpt lat="46.72433" lon="-0.80205">
        <ele>120.6</ele>
        <time>2020-11-15T09:01:35Z</time>
      </trkpt>
      <trkpt lat="46.72431" lon="-0.80208">
        <ele>120.5</ele>
        <time>2020-11-15T09:01:36Z</time>
      </trkpt>
      <trkpt lat="46.7243" lon="-0.80211">
        <ele>120.5</ele>
        <time>2020-11-15T09:01:37Z</time>
      </trkpt>
      <trkpt lat="46.7243" lon="-0.80214">
        <ele>120.4</ele>
        <time>2020-11-15T09:01:38Z</time>
      </trkpt>
      <trkpt lat="46.72431" lon="-0.80217">
        <ele>120.4</ele>
        <time>2020-11-15T09:01:39Z</time>
      </trkpt>
      <trkpt lat="46.72432" lon="-0.80218">
        <ele>120.4</ele>
        <time>2020-11-15T09:01:40Z</time>
      </trkpt>
      <trkpt lat="46.72435" lon="-0.80219">
        <ele>120.4</ele>
        <time>2020-11-15T09:01:42Z</time>
      </trkpt>
      <trkpt lat="46.72438" lon="-0.80221">
        <ele>120.4</ele>
        <time>2020-11-15T09:01:44Z</time>
      </trkpt>
      <trkpt lat="46.7244" lon="-0.80222">
        <ele>120.4</ele>
        <time>2020-11-15T09:01:45Z</time>
      </trkpt>
      <trkpt lat="46.72442" lon="-0.80223">
        <ele>120.4</ele>
        <time>2020-11-15T09:01:46Z</time>
      </trkpt>
      <trkpt lat="46.72445" lon="-0.80226">
        <ele>120.4</ele>
        <time>2020-11-15T09:01:48Z</time>
      </trkpt>
      <trkpt lat="46.72446" lon="-0.80229">
        <ele>120.4</ele>
        <time>2020-11-15T09:01:49Z</time>
      </trkpt>
      <trkpt lat="46.72448" lon="-0.80232">
        <ele>120.5</ele>
        <time>2020-11-15T09:01:50Z</time>
      </trkpt>
      <trkpt lat="46.72451" lon="-0.80239">
        <ele>120.6</ele>
        <time>2020-11-15T09:01:52Z</time>
      </trkpt>
      <trkpt lat="46.72451" lon="-0.80248">
        <ele>120.7</ele>
        <time>2020-11-15T09:01:54Z</time>
      </trkpt>
      <trkpt lat="46.72452" lon="-0.80255">
        <ele>120.7</ele>
        <time>2020-11-15T09:01:56Z</time>
      </trkpt>
      <trkpt lat="46.72453" lon="-0.80259">
        <ele>120.8</ele>
        <time>2020-11-15T09:01:57Z</time>
      </trkpt>
      <trkpt lat="46.72454" lon="-0.80263">
        <ele>120.9</ele>
        <time>2020-11-15T09:01:58Z</time>
      </trkpt>
      <trkpt lat="46.72456" lon="-0.80271">
        <ele>121</ele>
        <time>2020-11-15T09:02:00Z</time>
      </trkpt>
      <trkpt lat="46.72458" lon="-0.80277">
        <ele>121.1</ele>
        <time>2020-11-15T09:02:02Z</time>
      </trkpt>
      <trkpt lat="46.72459" lon="-0.80282">
        <ele>121.2</ele>
        <time>2020-11-15T09:02:04Z</time>
      </trkpt>
      <trkpt lat="46.72461" lon="-0.80288">
        <ele>121.3</ele>
        <time>2020-11-15T09:02:06Z</time>
      </trkpt>
      <trkpt lat="46.72462" lon="-0.80296">
        <ele>121.4</ele>
        <time>2020-11-15T09:02:08Z</time>
      </trkpt>
      <trkpt lat="46.72461" lon="-0.80304">
        <ele>121.5</ele>
        <time>2020-11-15T09:02:10Z</time>
      </trkpt>
      <trkpt lat="46.72461" lon="-0.80312">
        <ele>121.6</ele>
        <time>2020-11-15T09:02:12Z</time>
      </trkpt>
      <trkpt lat="46.72461" lon="-0.80319">
        <ele>121.6</ele>
        <time>2020-11-15T09:02:14Z</time>
      </trkpt>
      <trkpt lat="46.72462" lon="-0.80321">
        <ele>121.6</ele>
        <time>2020-11-15T09:02:15Z</time>
      </trkpt>
      <trkpt lat="46.72463" lon="-0.80322">
        <ele>121.7</ele>
        <time>2020-11-15T09:02:16Z</time>
      </trkpt>
      <trkpt lat="46.72467" lon="-0.80324">
        <ele>121.8</ele>
        <time>2020-11-15T09:02:18Z</time>
      </trkpt>
      <trkpt lat="46.72471" lon="-0.80325">
        <ele>121.8</ele>
        <time>2020-11-15T09:02:20Z</time>
      </trkpt>
      <trkpt lat="46.72472" lon="-0.80325">
        <ele>121.8</ele>
        <time>2020-11-15T09:02:21Z</time>
      </trkpt>
      <trkpt lat="46.72476" lon="-0.80322">
        <ele>121.8</ele>
        <time>2020-11-15T09:02:25Z</time>
      </trkpt>
      <trkpt lat="46.72478" lon="-0.80321">
        <ele>121.8</ele>
        <time>2020-11-15T09:02:26Z</time>
      </trkpt>
      <trkpt lat="46.7248" lon="-0.80319">
        <ele>121.8</ele>
        <time>2020-11-15T09:02:28Z</time>
      </trkpt>
      <trkpt lat="46.72481" lon="-0.80317">
        <ele>121.8</ele>
        <time>2020-11-15T09:02:30Z</time>
      </trkpt>
      <trkpt lat="46.72482" lon="-0.80316">
        <ele>121.9</ele>
        <time>2020-11-15T09:02:32Z</time>
      </trkpt>
      <trkpt lat="46.72483" lon="-0.80315">
        <ele>121.9</ele>
        <time>2020-11-15T09:02:33Z</time>
      </trkpt>
      <trkpt lat="46.72487" lon="-0.80317">
        <ele>121.9</ele>
        <time>2020-11-15T09:03:58Z</time>
      </trkpt>
      <trkpt lat="46.72487" lon="-0.8032">
        <ele>121.9</ele>
        <time>2020-11-15T09:03:59Z</time>
      </trkpt>
      <trkpt lat="46.72488" lon="-0.80323">
        <ele>121.9</ele>
        <time>2020-11-15T09:04:00Z</time>
      </trkpt>
      <trkpt lat="46.7249" lon="-0.80329">
        <ele>122</ele>
        <time>2020-11-15T09:04:02Z</time>
      </trkpt>
      <trkpt lat="46.72492" lon="-0.80336">
        <ele>122.1</ele>
        <time>2020-11-15T09:04:04Z</time>
      </trkpt>
      <trkpt lat="46.72492" lon="-0.8034">
        <ele>122.1</ele>
        <time>2020-11-15T09:04:05Z</time>
      </trkpt>
      <trkpt lat="46.72492" lon="-0.80342">
        <ele>122.1</ele>
        <time>2020-11-15T09:04:06Z</time>
      </trkpt>
      <trkpt lat="46.72492" lon="-0.80348">
        <ele>122.1</ele>
        <time>2020-11-15T09:04:08Z</time>
      </trkpt>
      <trkpt lat="46.72492" lon="-0.80354">
        <ele>122.1</ele>
        <time>2020-11-15T09:04:10Z</time>
      </trkpt>
      <trkpt lat="46.72491" lon="-0.80361">
        <ele>122</ele>
        <time>2020-11-15T09:04:12Z</time>
      </trkpt>
      <trkpt lat="46.7249" lon="-0.8037">
        <ele>122</ele>
        <time>2020-11-15T09:04:14Z</time>
      </trkpt>
      <trkpt lat="46.72489" lon="-0.80382">
        <ele>121.9</ele>
        <time>2020-11-15T09:04:16Z</time>
      </trkpt>
      <trkpt lat="46.72488" lon="-0.80388">
        <ele>121.9</ele>
        <time>2020-11-15T09:04:17Z</time>
      </trkpt>
      <trkpt lat="46.72487" lon="-0.80395">
        <ele>121.8</ele>
        <time>2020-11-15T09:04:18Z</time>
      </trkpt>
      <trkpt lat="46.72485" lon="-0.80407">
        <ele>121.8</ele>
        <time>2020-11-15T09:04:20Z</time>
      </trkpt>
      <trkpt lat="46.72483" lon="-0.80418">
        <ele>121.7</ele>
        <time>2020-11-15T09:04:22Z</time>
      </trkpt>
      <trkpt lat="46.72482" lon="-0.80424">
        <ele>121.7</ele>
        <time>2020-11-15T09:04:23Z</time>
      </trkpt>
      <trkpt lat="46.72481" lon="-0.80429">
        <ele>121.7</ele>
        <time>2020-11-15T09:04:24Z</time>
      </trkpt>
      <trkpt lat="46.7248" lon="-0.8044">
        <ele>121.6</ele>
        <time>2020-11-15T09:04:26Z</time>
      </trkpt>
      <trkpt lat="46.72479" lon="-0.80447">
        <ele>121.6</ele>
        <time>2020-11-15T09:04:28Z</time>
      </trkpt>
      <trkpt lat="46.72479" lon="-0.80447">
        <ele>121.6</ele>
        <time>2020-11-15T09:04:29Z</time>
      </trkpt>
      <trkpt lat="46.72476" lon="-0.80456">
        <ele>121.5</ele>
        <time>2020-11-15T09:05:35Z</time>
      </trkpt>
      <trkpt lat="46.72475" lon="-0.80459">
        <ele>121.5</ele>
        <time>2020-11-15T09:05:36Z</time>
      </trkpt>
      <trkpt lat="46.72473" lon="-0.80466">
        <ele>121.5</ele>
        <time>2020-11-15T09:05:38Z</time>
      </trkpt>
      <trkpt lat="46.72472" lon="-0.8047">
        <ele>121.5</ele>
        <time>2020-11-15T09:05:39Z</time>
      </trkpt>
      <trkpt lat="46.7247" lon="-0.80474">
        <ele>121.4</ele>
        <time>2020-11-15T09:05:40Z</time>
      </trkpt>
      <trkpt lat="46.72468" lon="-0.80482">
        <ele>121.4</ele>
        <time>2020-11-15T09:05:42Z</time>
      </trkpt>
      <trkpt lat="46.72465" lon="-0.8049">
        <ele>121.4</ele>
        <time>2020-11-15T09:05:44Z</time>
      </trkpt>
      <trkpt lat="46.72462" lon="-0.80498">
        <ele>121.3</ele>
        <time>2020-11-15T09:05:46Z</time>
      </trkpt>
      <trkpt lat="46.72458" lon="-0.80506">
        <ele>121.3</ele>
        <time>2020-11-15T09:05:48Z</time>
      </trkpt>
      <trkpt lat="46.72455" lon="-0.80513">
        <ele>121.2</ele>
        <time>2020-11-15T09:05:50Z</time>
      </trkpt>
      <trkpt lat="46.72451" lon="-0.8052">
        <ele>121.2</ele>
        <time>2020-11-15T09:05:52Z</time>
      </trkpt>
      <trkpt lat="46.72448" lon="-0.80527">
        <ele>121.1</ele>
        <time>2020-11-15T09:05:54Z</time>
      </trkpt>
      <trkpt lat="46.72445" lon="-0.80533">
        <ele>121.1</ele>
        <time>2020-11-15T09:05:56Z</time>
      </trkpt>
      <trkpt lat="46.72443" lon="-0.80537">
        <ele>121.1</ele>
        <time>2020-11-15T09:05:57Z</time>
      </trkpt>
      <trkpt lat="46.72442" lon="-0.80542">
        <ele>121</ele>
        <time>2020-11-15T09:05:58Z</time>
      </trkpt>
      <trkpt lat="46.72438" lon="-0.8055">
        <ele>121</ele>
        <time>2020-11-15T09:06:00Z</time>
      </trkpt>
      <trkpt lat="46.72438" lon="-0.80552">
        <ele>121</ele>
        <time>2020-11-15T09:06:01Z</time>
      </trkpt>
      <trkpt lat="46.72438" lon="-0.80553">
        <ele>121</ele>
        <time>2020-11-15T09:06:02Z</time>
      </trkpt>
      <trkpt lat="46.72434" lon="-0.80559">
        <ele>121</ele>
        <time>2020-11-15T09:06:06Z</time>
      </trkpt>
      <trkpt lat="46.72433" lon="-0.80562">
        <ele>120.9</ele>
        <time>2020-11-15T09:06:07Z</time>
      </trkpt>
      <trkpt lat="46.72432" lon="-0.80566">
        <ele>120.9</ele>
        <time>2020-11-15T09:06:08Z</time>
      </trkpt>
      <trkpt lat="46.72428" lon="-0.80573">
        <ele>120.9</ele>
        <time>2020-11-15T09:06:10Z</time>
      </trkpt>
      <trkpt lat="46.72426" lon="-0.80577">
        <ele>120.8</ele>
        <time>2020-11-15T09:06:11Z</time>
      </trkpt>
      <trkpt lat="46.72424" lon="-0.80582">
        <ele>120.8</ele>
        <time>2020-11-15T09:06:12Z</time>
      </trkpt>
      <trkpt lat="46.7242" lon="-0.80591">
        <ele>120.8</ele>
        <time>2020-11-15T09:06:14Z</time>
      </trkpt>
      <trkpt lat="46.72415" lon="-0.80598">
        <ele>120.7</ele>
        <time>2020-11-15T09:06:16Z</time>
      </trkpt>
      <trkpt lat="46.72412" lon="-0.80603">
        <ele>120.7</ele>
        <time>2020-11-15T09:06:18Z</time>
      </trkpt>
      <trkpt lat="46.72411" lon="-0.80606">
        <ele>120.7</ele>
        <time>2020-11-15T09:06:19Z</time>
      </trkpt>
      <trkpt lat="46.7241" lon="-0.80609">
        <ele>120.6</ele>
        <time>2020-11-15T09:06:20Z</time>
      </trkpt>
      <trkpt lat="46.72409" lon="-0.80612">
        <ele>120.6</ele>
        <time>2020-11-15T09:06:21Z</time>
      </trkpt>
      <trkpt lat="46.72409" lon="-0.80617">
        <ele>120.6</ele>
        <time>2020-11-15T09:06:22Z</time>
      </trkpt>
      <trkpt lat="46.72407" lon="-0.80624">
        <ele>120.6</ele>
        <time>2020-11-15T09:06:24Z</time>
      </trkpt>
      <trkpt lat="46.72406" lon="-0.80625">
        <ele>120.6</ele>
        <time>2020-11-15T09:06:25Z</time>
      </trkpt>
      <trkpt lat="46.72404" lon="-0.80627">
        <ele>120.5</ele>
        <time>2020-11-15T09:06:26Z</time>
      </trkpt>
      <trkpt lat="46.724" lon="-0.80627">
        <ele>120.5</ele>
        <time>2020-11-15T09:06:28Z</time>
      </trkpt>
      <trkpt lat="46.72397" lon="-0.80628">
        <ele>120.5</ele>
        <time>2020-11-15T09:06:30Z</time>
      </trkpt>
      <trkpt lat="46.72394" lon="-0.80628">
        <ele>120.5</ele>
        <time>2020-11-15T09:06:32Z</time>
      </trkpt>
      <trkpt lat="46.72389" lon="-0.80628">
        <ele>120.5</ele>
        <time>2020-11-15T09:06:34Z</time>
      </trkpt>
      <trkpt lat="46.72384" lon="-0.80628">
        <ele>120.6</ele>
        <time>2020-11-15T09:06:36Z</time>
      </trkpt>
      <trkpt lat="46.72383" lon="-0.80627">
        <ele>120.6</ele>
        <time>2020-11-15T09:06:38Z</time>
      </trkpt>
      <trkpt lat="46.72354" lon="-0.80653">
        <ele>121.8</ele>
        <time>2020-11-15T09:07:39Z</time>
      </trkpt>
      <trkpt lat="46.72354" lon="-0.80656">
        <ele>121.8</ele>
        <time>2020-11-15T09:07:40Z</time>
      </trkpt>
      <trkpt lat="46.72354" lon="-0.8066">
        <ele>122.1</ele>
        <time>2020-11-15T09:07:41Z</time>
      </trkpt>
      <trkpt lat="46.72354" lon="-0.80664">
        <ele>122</ele>
        <time>2020-11-15T09:07:42Z</time>
      </trkpt>
      <trkpt lat="46.72352" lon="-0.80675">
        <ele>122.4</ele>
        <time>2020-11-15T09:07:44Z</time>
      </trkpt>
      <trkpt lat="46.72351" lon="-0.80679">
        <ele>122.5</ele>
        <time>2020-11-15T09:07:45Z</time>
      </trkpt>
      <trkpt lat="46.72351" lon="-0.80682">
        <ele>122.6</ele>
        <time>2020-11-15T09:07:46Z</time>
      </trkpt>
      <trkpt lat="46.72351" lon="-0.80685">
        <ele>122.5</ele>
        <time>2020-11-15T09:07:47Z</time>
      </trkpt>
      <trkpt lat="46.72351" lon="-0.80689">
        <ele>122.8</ele>
        <time>2020-11-15T09:07:48Z</time>
      </trkpt>
      <trkpt lat="46.7235" lon="-0.80697">
        <ele>123</ele>
        <time>2020-11-15T09:07:50Z</time>
      </trkpt>
      <trkpt lat="46.72351" lon="-0.807">
        <ele>123</ele>
        <time>2020-11-15T09:07:51Z</time>
      </trkpt>
      <trkpt lat="46.72352" lon="-0.80704">
        <ele>123</ele>
        <time>2020-11-15T09:07:52Z</time>
      </trkpt>
      <trkpt lat="46.72354" lon="-0.80711">
        <ele>123.2</ele>
        <time>2020-11-15T09:07:54Z</time>
      </trkpt>
      <trkpt lat="46.72355" lon="-0.8072">
        <ele>123.1</ele>
        <time>2020-11-15T09:07:56Z</time>
      </trkpt>
      <trkpt lat="46.72355" lon="-0.80724">
        <ele>123.1</ele>
        <time>2020-11-15T09:07:57Z</time>
      </trkpt>
      <trkpt lat="46.72356" lon="-0.80727">
        <ele>123.1</ele>
        <time>2020-11-15T09:07:58Z</time>
      </trkpt>
      <trkpt lat="46.7236" lon="-0.80733">
        <ele>122.8</ele>
        <time>2020-11-15T09:08:00Z</time>
      </trkpt>
      <trkpt lat="46.72362" lon="-0.80739">
        <ele>122.8</ele>
        <time>2020-11-15T09:08:02Z</time>
      </trkpt>
      <trkpt lat="46.72364" lon="-0.80746">
        <ele>122.7</ele>
        <time>2020-11-15T09:08:04Z</time>
      </trkpt>
      <trkpt lat="46.72365" lon="-0.80751">
        <ele>122.5</ele>
        <time>2020-11-15T09:08:05Z</time>
      </trkpt>
      <trkpt lat="46.72367" lon="-0.80754">
        <ele>122.5</ele>
        <time>2020-11-15T09:08:06Z</time>
      </trkpt>
      <trkpt lat="46.72371" lon="-0.80759">
        <ele>122.4</ele>
        <time>2020-11-15T09:08:08Z</time>
      </trkpt>
      <trkpt lat="46.72371" lon="-0.80761">
        <ele>122.2</ele>
        <time>2020-11-15T09:08:10Z</time>
      </trkpt>
      <trkpt lat="46.72339" lon="-0.80817">
        <ele>124.6</ele>
        <time>2020-11-15T09:09:05Z</time>
      </trkpt>
      <trkpt lat="46.72337" lon="-0.8082">
        <ele>124.8</ele>
        <time>2020-11-15T09:09:06Z</time>
      </trkpt>
      <trkpt lat="46.72332" lon="-0.80827">
        <ele>125.2</ele>
        <time>2020-11-15T09:09:08Z</time>
      </trkpt>
      <trkpt lat="46.7233" lon="-0.80831">
        <ele>125.2</ele>
        <time>2020-11-15T09:09:09Z</time>
      </trkpt>
      <trkpt lat="46.72328" lon="-0.80834">
        <ele>125.3</ele>
        <time>2020-11-15T09:09:10Z</time>
      </trkpt>
      <trkpt lat="46.72325" lon="-0.8084">
        <ele>125.3</ele>
        <time>2020-11-15T09:09:12Z</time>
      </trkpt>
      <trkpt lat="46.72322" lon="-0.80846">
        <ele>125.3</ele>
        <time>2020-11-15T09:09:14Z</time>
      </trkpt>
      <trkpt lat="46.72317" lon="-0.80852">
        <ele>125.4</ele>
        <time>2020-11-15T09:09:16Z</time>
      </trkpt>
      <trkpt lat="46.72313" lon="-0.80857">
        <ele>125.3</ele>
        <time>2020-11-15T09:09:18Z</time>
      </trkpt>
      <trkpt lat="46.72309" lon="-0.80863">
        <ele>125.3</ele>
        <time>2020-11-15T09:09:20Z</time>
      </trkpt>
      <trkpt lat="46.72305" lon="-0.80867">
        <ele>125.2</ele>
        <time>2020-11-15T09:09:22Z</time>
      </trkpt>
      <trkpt lat="46.72301" lon="-0.80872">
        <ele>125.1</ele>
        <time>2020-11-15T09:09:24Z</time>
      </trkpt>
      <trkpt lat="46.72299" lon="-0.80874">
        <ele>125.1</ele>
        <time>2020-11-15T09:09:26Z</time>
      </trkpt>
      <trkpt lat="46.72299" lon="-0.80874">
        <ele>125.1</ele>
        <time>2020-11-15T09:09:27Z</time>
      </trkpt>
      <trkpt lat="46.72299" lon="-0.80874">
        <ele>124.9</ele>
        <time>2020-11-15T09:09:28Z</time>
      </trkpt>
      <trkpt lat="46.72285" lon="-0.8087">
        <ele>125.3</ele>
        <time>2020-11-15T09:09:49Z</time>
      </trkpt>
      <trkpt lat="46.72284" lon="-0.80871">
        <ele>125.2</ele>
        <time>2020-11-15T09:09:50Z</time>
      </trkpt>
      <trkpt lat="46.72281" lon="-0.80873">
        <ele>125.3</ele>
        <time>2020-11-15T09:09:52Z</time>
      </trkpt>
      <trkpt lat="46.72279" lon="-0.80874">
        <ele>125</ele>
        <time>2020-11-15T09:09:53Z</time>
      </trkpt>
      <trkpt lat="46.72277" lon="-0.80876">
        <ele>125</ele>
        <time>2020-11-15T09:09:54Z</time>
      </trkpt>
      <trkpt lat="46.72275" lon="-0.80877">
        <ele>125</ele>
        <time>2020-11-15T09:09:55Z</time>
      </trkpt>
      <trkpt lat="46.72273" lon="-0.80878">
        <ele>125</ele>
        <time>2020-11-15T09:09:56Z</time>
      </trkpt>
      <trkpt lat="46.7227" lon="-0.80879">
        <ele>124.7</ele>
        <time>2020-11-15T09:09:58Z</time>
      </trkpt>
      <trkpt lat="46.72266" lon="-0.80882">
        <ele>124.7</ele>
        <time>2020-11-15T09:10:00Z</time>
      </trkpt>
      <trkpt lat="46.72261" lon="-0.80886">
        <ele>124.4</ele>
        <time>2020-11-15T09:10:02Z</time>
      </trkpt>
      <trkpt lat="46.72257" lon="-0.8089">
        <ele>124</ele>
        <time>2020-11-15T09:10:04Z</time>
      </trkpt>
      <trkpt lat="46.72253" lon="-0.80891">
        <ele>124</ele>
        <time>2020-11-15T09:10:06Z</time>
      </trkpt>
      <trkpt lat="46.72249" lon="-0.80893">
        <ele>123.6</ele>
        <time>2020-11-15T09:10:08Z</time>
      </trkpt>
      <trkpt lat="46.72246" lon="-0.80895">
        <ele>123.6</ele>
        <time>2020-11-15T09:10:09Z</time>
      </trkpt>
      <trkpt lat="46.72244" lon="-0.80896">
        <ele>123.2</ele>
        <time>2020-11-15T09:10:10Z</time>
      </trkpt>
      <trkpt lat="46.72238" lon="-0.809">
        <ele>122.9</ele>
        <time>2020-11-15T09:10:12Z</time>
      </trkpt>
      <trkpt lat="46.72235" lon="-0.80903">
        <ele>122.8</ele>
        <time>2020-11-15T09:10:13Z</time>
      </trkpt>
      <trkpt lat="46.72232" lon="-0.80905">
        <ele>122.6</ele>
        <time>2020-11-15T09:10:14Z</time>
      </trkpt>
      <trkpt lat="46.72223" lon="-0.80911">
        <ele>122.3</ele>
        <time>2020-11-15T09:10:16Z</time>
      </trkpt>
      <trkpt lat="46.72219" lon="-0.80914">
        <ele>122.1</ele>
        <time>2020-11-15T09:10:17Z</time>
      </trkpt>
      <trkpt lat="46.72215" lon="-0.80917">
        <ele>122</ele>
        <time>2020-11-15T09:10:18Z</time>
      </trkpt>
      <trkpt lat="46.72208" lon="-0.80924">
        <ele>122</ele>
        <time>2020-11-15T09:10:20Z</time>
      </trkpt>
      <trkpt lat="46.72203" lon="-0.80929">
        <ele>122</ele>
        <time>2020-11-15T09:10:22Z</time>
      </trkpt>
      <trkpt lat="46.722" lon="-0.80931">
        <ele>122</ele>
        <time>2020-11-15T09:10:24Z</time>
      </trkpt>
      <trkpt lat="46.72201" lon="-0.80934">
        <ele>122</ele>
        <time>2020-11-15T09:10:26Z</time>
      </trkpt>
      <trkpt lat="46.72202" lon="-0.80936">
        <ele>122</ele>
        <time>2020-11-15T09:10:27Z</time>
      </trkpt>
      <trkpt lat="46.72204" lon="-0.80936">
        <ele>121.9</ele>
        <time>2020-11-15T09:10:28Z</time>
      </trkpt>
      <trkpt lat="46.72209" lon="-0.80938">
        <ele>121.9</ele>
        <time>2020-11-15T09:10:30Z</time>
      </trkpt>
      <trkpt lat="46.72216" lon="-0.8094">
        <ele>121.8</ele>
        <time>2020-11-15T09:10:32Z</time>
      </trkpt>
      <trkpt lat="46.72224" lon="-0.80943">
        <ele>121.8</ele>
        <time>2020-11-15T09:10:34Z</time>
      </trkpt>
      <trkpt lat="46.72228" lon="-0.80945">
        <ele>121.7</ele>
        <time>2020-11-15T09:10:35Z</time>
      </trkpt>
      <trkpt lat="46.72231" lon="-0.80948">
        <ele>121.7</ele>
        <time>2020-11-15T09:10:36Z</time>
      </trkpt>
      <trkpt lat="46.72239" lon="-0.80951">
        <ele>121.7</ele>
        <time>2020-11-15T09:10:38Z</time>
      </trkpt>
      <trkpt lat="46.72248" lon="-0.80956">
        <ele>121.8</ele>
        <time>2020-11-15T09:10:40Z</time>
      </trkpt>
      <trkpt lat="46.72252" lon="-0.80959">
        <ele>121.8</ele>
        <time>2020-11-15T09:10:41Z</time>
      </trkpt>
      <trkpt lat="46.72257" lon="-0.8096">
        <ele>121.9</ele>
        <time>2020-11-15T09:10:42Z</time>
      </trkpt>
      <trkpt lat="46.72264" lon="-0.80966">
        <ele>122.2</ele>
        <time>2020-11-15T09:10:44Z</time>
      </trkpt>
      <trkpt lat="46.72264" lon="-0.80977">
        <ele>123.4</ele>
        <time>2020-11-15T09:10:46Z</time>
      </trkpt>
      <trkpt lat="46.72264" lon="-0.80983">
        <ele>123.9</ele>
        <time>2020-11-15T09:10:47Z</time>
      </trkpt>
      <trkpt lat="46.72265" lon="-0.80987">
        <ele>124.3</ele>
        <time>2020-11-15T09:10:48Z</time>
      </trkpt>
      <trkpt lat="46.72266" lon="-0.80991">
        <ele>124.9</ele>
        <time>2020-11-15T09:10:49Z</time>
      </trkpt>
      <trkpt lat="46.72265" lon="-0.80995">
        <ele>125.2</ele>
        <time>2020-11-15T09:10:50Z</time>
      </trkpt>
      <trkpt lat="46.72265" lon="-0.80998">
        <ele>125.2</ele>
        <time>2020-11-15T09:10:51Z</time>
      </trkpt>
      <trkpt lat="46.72266" lon="-0.81001">
        <ele>125.8</ele>
        <time>2020-11-15T09:10:52Z</time>
      </trkpt>
      <trkpt lat="46.7227" lon="-0.81005">
        <ele>126.5</ele>
        <time>2020-11-15T09:10:54Z</time>
      </trkpt>
      <trkpt lat="46.72274" lon="-0.81006">
        <ele>126.6</ele>
        <time>2020-11-15T09:10:56Z</time>
      </trkpt>
      <trkpt lat="46.72277" lon="-0.81007">
        <ele>126.8</ele>
        <time>2020-11-15T09:10:57Z</time>
      </trkpt>
      <trkpt lat="46.7228" lon="-0.81008">
        <ele>127.2</ele>
        <time>2020-11-15T09:10:58Z</time>
      </trkpt>
      <trkpt lat="46.72285" lon="-0.8101">
        <ele>127.3</ele>
        <time>2020-11-15T09:11:00Z</time>
      </trkpt>
      <trkpt lat="46.7229" lon="-0.81011">
        <ele>127.9</ele>
        <time>2020-11-15T09:11:02Z</time>
      </trkpt>
      <trkpt lat="46.72292" lon="-0.81013">
        <ele>127.9</ele>
        <time>2020-11-15T09:11:03Z</time>
      </trkpt>
      <trkpt lat="46.72295" lon="-0.81015">
        <ele>127.8</ele>
        <time>2020-11-15T09:11:04Z</time>
      </trkpt>
      <trkpt lat="46.72301" lon="-0.81019">
        <ele>128.3</ele>
        <time>2020-11-15T09:11:06Z</time>
      </trkpt>
      <trkpt lat="46.72304" lon="-0.81021">
        <ele>128.7</ele>
        <time>2020-11-15T09:11:07Z</time>
      </trkpt>
      <trkpt lat="46.72307" lon="-0.81022">
        <ele>128.6</ele>
        <time>2020-11-15T09:11:08Z</time>
      </trkpt>
      <trkpt lat="46.72313" lon="-0.81026">
        <ele>128.9</ele>
        <time>2020-11-15T09:11:10Z</time>
      </trkpt>
      <trkpt lat="46.72316" lon="-0.81029">
        <ele>129.3</ele>
        <time>2020-11-15T09:11:12Z</time>
      </trkpt>
      <trkpt lat="46.72321" lon="-0.81033">
        <ele>129.5</ele>
        <time>2020-11-15T09:11:14Z</time>
      </trkpt>
      <trkpt lat="46.72326" lon="-0.81037">
        <ele>129.3</ele>
        <time>2020-11-15T09:11:16Z</time>
      </trkpt>
      <trkpt lat="46.72328" lon="-0.81039">
        <ele>129.5</ele>
        <time>2020-11-15T09:11:17Z</time>
      </trkpt>
      <trkpt lat="46.72331" lon="-0.81041">
        <ele>129.3</ele>
        <time>2020-11-15T09:11:18Z</time>
      </trkpt>
      <trkpt lat="46.72336" lon="-0.81045">
        <ele>129.3</ele>
        <time>2020-11-15T09:11:20Z</time>
      </trkpt>
      <trkpt lat="46.7234" lon="-0.81052">
        <ele>129.1</ele>
        <time>2020-11-15T09:11:22Z</time>
      </trkpt>
      <trkpt lat="46.72342" lon="-0.81055">
        <ele>128.9</ele>
        <time>2020-11-15T09:11:23Z</time>
      </trkpt>
      <trkpt lat="46.72344" lon="-0.81058">
        <ele>128.9</ele>
        <time>2020-11-15T09:11:24Z</time>
      </trkpt>
      <trkpt lat="46.72348" lon="-0.81066">
        <ele>128.4</ele>
        <time>2020-11-15T09:11:26Z</time>
      </trkpt>
      <trkpt lat="46.72351" lon="-0.81074">
        <ele>128.1</ele>
        <time>2020-11-15T09:11:28Z</time>
      </trkpt>
      <trkpt lat="46.72353" lon="-0.81083">
        <ele>128.1</ele>
        <time>2020-11-15T09:11:30Z</time>
      </trkpt>
      <trkpt lat="46.72356" lon="-0.81093">
        <ele>127.6</ele>
        <time>2020-11-15T09:11:32Z</time>
      </trkpt>
      <trkpt lat="46.72359" lon="-0.81105">
        <ele>126.9</ele>
        <time>2020-11-15T09:11:34Z</time>
      </trkpt>
      <trkpt lat="46.72361" lon="-0.81118">
        <ele>126</ele>
        <time>2020-11-15T09:11:36Z</time>
      </trkpt>
      <trkpt lat="46.72363" lon="-0.81125">
        <ele>125.4</ele>
        <time>2020-11-15T09:11:37Z</time>
      </trkpt>
      <trkpt lat="46.72363" lon="-0.81134">
        <ele>125.2</ele>
        <time>2020-11-15T09:11:38Z</time>
      </trkpt>
      <trkpt lat="46.72364" lon="-0.81153">
        <ele>124.7</ele>
        <time>2020-11-15T09:11:40Z</time>
      </trkpt>
      <trkpt lat="46.72364" lon="-0.81171">
        <ele>123.7</ele>
        <time>2020-11-15T09:11:42Z</time>
      </trkpt>
      <trkpt lat="46.7236" lon="-0.81188">
        <ele>123.1</ele>
        <time>2020-11-15T09:11:44Z</time>
      </trkpt>
      <trkpt lat="46.72356" lon="-0.81204">
        <ele>122.8</ele>
        <time>2020-11-15T09:11:46Z</time>
      </trkpt>
      <trkpt lat="46.72354" lon="-0.81212">
        <ele>122.1</ele>
        <time>2020-11-15T09:11:47Z</time>
      </trkpt>
      <trkpt lat="46.72353" lon="-0.81219">
        <ele>121.7</ele>
        <time>2020-11-15T09:11:48Z</time>
      </trkpt>
      <trkpt lat="46.72351" lon="-0.81232">
        <ele>120.8</ele>
        <time>2020-11-15T09:11:50Z</time>
      </trkpt>
      <trkpt lat="46.72351" lon="-0.81244">
        <ele>119.9</ele>
        <time>2020-11-15T09:11:52Z</time>
      </trkpt>
      <trkpt lat="46.7235" lon="-0.81249">
        <ele>119.9</ele>
        <time>2020-11-15T09:11:53Z</time>
      </trkpt>
      <trkpt lat="46.72349" lon="-0.81256">
        <ele>119.6</ele>
        <time>2020-11-15T09:11:54Z</time>
      </trkpt>
      <trkpt lat="46.72348" lon="-0.81261">
        <ele>119.1</ele>
        <time>2020-11-15T09:11:55Z</time>
      </trkpt>
      <trkpt lat="46.72346" lon="-0.81267">
        <ele>119.1</ele>
        <time>2020-11-15T09:11:56Z</time>
      </trkpt>
      <trkpt lat="46.72344" lon="-0.81272">
        <ele>119.2</ele>
        <time>2020-11-15T09:11:57Z</time>
      </trkpt>
      <trkpt lat="46.72342" lon="-0.81278">
        <ele>119</ele>
        <time>2020-11-15T09:11:58Z</time>
      </trkpt>
      <trkpt lat="46.72338" lon="-0.81288">
        <ele>118.8</ele>
        <time>2020-11-15T09:12:00Z</time>
      </trkpt>
      <trkpt lat="46.72335" lon="-0.81299">
        <ele>118.6</ele>
        <time>2020-11-15T09:12:02Z</time>
      </trkpt>
      <trkpt lat="46.72332" lon="-0.81308">
        <ele>118.3</ele>
        <time>2020-11-15T09:12:04Z</time>
      </trkpt>
      <trkpt lat="46.72329" lon="-0.81318">
        <ele>118.3</ele>
        <time>2020-11-15T09:12:06Z</time>
      </trkpt>
      <trkpt lat="46.72329" lon="-0.81324">
        <ele>118.2</ele>
        <time>2020-11-15T09:12:07Z</time>
      </trkpt>
      <trkpt lat="46.72331" lon="-0.81329">
        <ele>117.9</ele>
        <time>2020-11-15T09:12:08Z</time>
      </trkpt>
      <trkpt lat="46.72332" lon="-0.81335">
        <ele>117.8</ele>
        <time>2020-11-15T09:12:09Z</time>
      </trkpt>
      <trkpt lat="46.72336" lon="-0.81337">
        <ele>117.3</ele>
        <time>2020-11-15T09:12:10Z</time>
      </trkpt>
      <trkpt lat="46.72343" lon="-0.81341">
        <ele>117</ele>
        <time>2020-11-15T09:12:12Z</time>
      </trkpt>
      <trkpt lat="46.72351" lon="-0.81345">
        <ele>116.9</ele>
        <time>2020-11-15T09:12:14Z</time>
      </trkpt>
      <trkpt lat="46.72355" lon="-0.81347">
        <ele>116.9</ele>
        <time>2020-11-15T09:12:15Z</time>
      </trkpt>
      <trkpt lat="46.7236" lon="-0.81348">
        <ele>117</ele>
        <time>2020-11-15T09:12:16Z</time>
      </trkpt>
      <trkpt lat="46.72364" lon="-0.81348">
        <ele>117.2</ele>
        <time>2020-11-15T09:12:17Z</time>
      </trkpt>
      <trkpt lat="46.72369" lon="-0.81348">
        <ele>117.3</ele>
        <time>2020-11-15T09:12:18Z</time>
      </trkpt>
      <trkpt lat="46.72374" lon="-0.81348">
        <ele>117.1</ele>
        <time>2020-11-15T09:12:19Z</time>
      </trkpt>
      <trkpt lat="46.72378" lon="-0.81347">
        <ele>116.7</ele>
        <time>2020-11-15T09:12:20Z</time>
      </trkpt>
      <trkpt lat="46.72383" lon="-0.81345">
        <ele>116.3</ele>
        <time>2020-11-15T09:12:21Z</time>
      </trkpt>
      <trkpt lat="46.72387" lon="-0.81342">
        <ele>116.1</ele>
        <time>2020-11-15T09:12:22Z</time>
      </trkpt>
      <trkpt lat="46.72397" lon="-0.81336">
        <ele>115.9</ele>
        <time>2020-11-15T09:12:24Z</time>
      </trkpt>
      <trkpt lat="46.72402" lon="-0.81333">
        <ele>115.9</ele>
        <time>2020-11-15T09:12:25Z</time>
      </trkpt>
      <trkpt lat="46.72406" lon="-0.81329">
        <ele>115.9</ele>
        <time>2020-11-15T09:12:26Z</time>
      </trkpt>
      <trkpt lat="46.72413" lon="-0.81323">
        <ele>115.8</ele>
        <time>2020-11-15T09:12:28Z</time>
      </trkpt>
      <trkpt lat="46.72417" lon="-0.81323">
        <ele>115.8</ele>
        <time>2020-11-15T09:12:29Z</time>
      </trkpt>
      <trkpt lat="46.72422" lon="-0.81324">
        <ele>115.8</ele>
        <time>2020-11-15T09:12:30Z</time>
      </trkpt>
      <trkpt lat="46.72429" lon="-0.81332">
        <ele>115.8</ele>
        <time>2020-11-15T09:12:32Z</time>
      </trkpt>
      <trkpt lat="46.72433" lon="-0.81337">
        <ele>115.8</ele>
        <time>2020-11-15T09:12:33Z</time>
      </trkpt>
      <trkpt lat="46.72435" lon="-0.81342">
        <ele>115.9</ele>
        <time>2020-11-15T09:12:34Z</time>
      </trkpt>
      <trkpt lat="46.7244" lon="-0.81352">
        <ele>116</ele>
        <time>2020-11-15T09:12:36Z</time>
      </trkpt>
      <trkpt lat="46.72443" lon="-0.81357">
        <ele>116</ele>
        <time>2020-11-15T09:12:37Z</time>
      </trkpt>
      <trkpt lat="46.72445" lon="-0.81361">
        <ele>116</ele>
        <time>2020-11-15T09:12:38Z</time>
      </trkpt>
      <trkpt lat="46.7245" lon="-0.81371">
        <ele>116.1</ele>
        <time>2020-11-15T09:12:40Z</time>
      </trkpt>
      <trkpt lat="46.72454" lon="-0.81383">
        <ele>116.1</ele>
        <time>2020-11-15T09:12:42Z</time>
      </trkpt>
      <trkpt lat="46.72456" lon="-0.81389">
        <ele>116.2</ele>
        <time>2020-11-15T09:12:43Z</time>
      </trkpt>
      <trkpt lat="46.72457" lon="-0.81394">
        <ele>116.2</ele>
        <time>2020-11-15T09:12:44Z</time>
      </trkpt>
      <trkpt lat="46.72459" lon="-0.81406">
        <ele>116.2</ele>
        <time>2020-11-15T09:12:46Z</time>
      </trkpt>
      <trkpt lat="46.72462" lon="-0.81415">
        <ele>116.3</ele>
        <time>2020-11-15T09:12:48Z</time>
      </trkpt>
      <trkpt lat="46.72465" lon="-0.81422">
        <ele>116.4</ele>
        <time>2020-11-15T09:12:50Z</time>
      </trkpt>
      <trkpt lat="46.72469" lon="-0.8143">
        <ele>116.5</ele>
        <time>2020-11-15T09:12:52Z</time>
      </trkpt>
      <trkpt lat="46.72475" lon="-0.81436">
        <ele>116.7</ele>
        <time>2020-11-15T09:12:54Z</time>
      </trkpt>
      <trkpt lat="46.72482" lon="-0.81436">
        <ele>116.8</ele>
        <time>2020-11-15T09:12:56Z</time>
      </trkpt>
      <trkpt lat="46.72485" lon="-0.81433">
        <ele>116.9</ele>
        <time>2020-11-15T09:12:57Z</time>
      </trkpt>
      <trkpt lat="46.72488" lon="-0.8143">
        <ele>117</ele>
        <time>2020-11-15T09:12:58Z</time>
      </trkpt>
      <trkpt lat="46.72495" lon="-0.81425">
        <ele>117.1</ele>
        <time>2020-11-15T09:13:00Z</time>
      </trkpt>
      <trkpt lat="46.72499" lon="-0.81424">
        <ele>117.1</ele>
        <time>2020-11-15T09:13:01Z</time>
      </trkpt>
      <trkpt lat="46.72502" lon="-0.81425">
        <ele>117.1</ele>
        <time>2020-11-15T09:13:02Z</time>
      </trkpt>
      <trkpt lat="46.72508" lon="-0.81429">
        <ele>117.2</ele>
        <time>2020-11-15T09:13:04Z</time>
      </trkpt>
      <trkpt lat="46.72511" lon="-0.81432">
        <ele>117.2</ele>
        <time>2020-11-15T09:13:05Z</time>
      </trkpt>
      <trkpt lat="46.72515" lon="-0.81434">
        <ele>117.2</ele>
        <time>2020-11-15T09:13:06Z</time>
      </trkpt>
      <trkpt lat="46.72522" lon="-0.8144">
        <ele>117.1</ele>
        <time>2020-11-15T09:13:08Z</time>
      </trkpt>
      <trkpt lat="46.72526" lon="-0.81442">
        <ele>117.1</ele>
        <time>2020-11-15T09:13:09Z</time>
      </trkpt>
      <trkpt lat="46.7253" lon="-0.81444">
        <ele>117.1</ele>
        <time>2020-11-15T09:13:10Z</time>
      </trkpt>
      <trkpt lat="46.72537" lon="-0.81448">
        <ele>117.1</ele>
        <time>2020-11-15T09:13:12Z</time>
      </trkpt>
      <trkpt lat="46.72541" lon="-0.8145">
        <ele>117.1</ele>
        <time>2020-11-15T09:13:13Z</time>
      </trkpt>
      <trkpt lat="46.72545" lon="-0.81452">
        <ele>117.1</ele>
        <time>2020-11-15T09:13:14Z</time>
      </trkpt>
      <trkpt lat="46.72554" lon="-0.81456">
        <ele>117.1</ele>
        <time>2020-11-15T09:13:16Z</time>
      </trkpt>
      <trkpt lat="46.72562" lon="-0.81459">
        <ele>117.1</ele>
        <time>2020-11-15T09:13:18Z</time>
      </trkpt>
      <trkpt lat="46.7257" lon="-0.81462">
        <ele>117.2</ele>
        <time>2020-11-15T09:13:20Z</time>
      </trkpt>
      <trkpt lat="46.72574" lon="-0.81464">
        <ele>117.2</ele>
        <time>2020-11-15T09:13:21Z</time>
      </trkpt>
      <trkpt lat="46.72579" lon="-0.81467">
        <ele>117.2</ele>
        <time>2020-11-15T09:13:22Z</time>
      </trkpt>
      <trkpt lat="46.72583" lon="-0.81469">
        <ele>117.2</ele>
        <time>2020-11-15T09:13:23Z</time>
      </trkpt>
      <trkpt lat="46.72587" lon="-0.81472">
        <ele>117.3</ele>
        <time>2020-11-15T09:13:24Z</time>
      </trkpt>
      <trkpt lat="46.72597" lon="-0.81478">
        <ele>117.4</ele>
        <time>2020-11-15T09:13:26Z</time>
      </trkpt>
      <trkpt lat="46.72607" lon="-0.81483">
        <ele>117.6</ele>
        <time>2020-11-15T09:13:28Z</time>
      </trkpt>
      <trkpt lat="46.72615" lon="-0.8149">
        <ele>117.7</ele>
        <time>2020-11-15T09:13:30Z</time>
      </trkpt>
      <trkpt lat="46.72619" lon="-0.81493">
        <ele>117.7</ele>
        <time>2020-11-15T09:13:31Z</time>
      </trkpt>
      <trkpt lat="46.72622" lon="-0.81496">
        <ele>117.7</ele>
        <time>2020-11-15T09:13:32Z</time>
      </trkpt>
      <trkpt lat="46.72626" lon="-0.81499">
        <ele>117.8</ele>
        <time>2020-11-15T09:13:33Z</time>
      </trkpt>
      <trkpt lat="46.7263" lon="-0.81502">
        <ele>117.8</ele>
        <time>2020-11-15T09:13:34Z</time>
      </trkpt>
      <trkpt lat="46.72637" lon="-0.81506">
        <ele>117.8</ele>
        <time>2020-11-15T09:13:36Z</time>
      </trkpt>
      <trkpt lat="46.72645" lon="-0.81512">
        <ele>118</ele>
        <time>2020-11-15T09:13:38Z</time>
      </trkpt>
      <trkpt lat="46.72652" lon="-0.81518">
        <ele>118.2</ele>
        <time>2020-11-15T09:13:40Z</time>
      </trkpt>
      <trkpt lat="46.72656" lon="-0.81521">
        <ele>118.3</ele>
        <time>2020-11-15T09:13:41Z</time>
      </trkpt>
      <trkpt lat="46.7266" lon="-0.81524">
        <ele>118.4</ele>
        <time>2020-11-15T09:13:42Z</time>
      </trkpt>
      <trkpt lat="46.72664" lon="-0.81526">
        <ele>118.5</ele>
        <time>2020-11-15T09:13:43Z</time>
      </trkpt>
      <trkpt lat="46.72667" lon="-0.81527">
        <ele>118.6</ele>
        <time>2020-11-15T09:13:44Z</time>
      </trkpt>
      <trkpt lat="46.72669" lon="-0.8153">
        <ele>118.7</ele>
        <time>2020-11-15T09:13:46Z</time>
      </trkpt>
      <trkpt lat="46.72672" lon="-0.8153">
        <ele>118.7</ele>
        <time>2020-11-15T09:13:48Z</time>
      </trkpt>
      <trkpt lat="46.72672" lon="-0.8153">
        <ele>118.7</ele>
        <time>2020-11-15T09:13:49Z</time>
      </trkpt>
      <trkpt lat="46.72678" lon="-0.81532">
        <ele>118.9</ele>
        <time>2020-11-15T09:13:57Z</time>
      </trkpt>
      <trkpt lat="46.7268" lon="-0.81532">
        <ele>118.9</ele>
        <time>2020-11-15T09:13:58Z</time>
      </trkpt>
      <trkpt lat="46.72686" lon="-0.81532">
        <ele>119.1</ele>
        <time>2020-11-15T09:14:00Z</time>
      </trkpt>
      <trkpt lat="46.72692" lon="-0.81534">
        <ele>119.4</ele>
        <time>2020-11-15T09:14:02Z</time>
      </trkpt>
      <trkpt lat="46.72693" lon="-0.81535">
        <ele>119.5</ele>
        <time>2020-11-15T09:14:03Z</time>
      </trkpt>
      <trkpt lat="46.72694" lon="-0.81537">
        <ele>119.6</ele>
        <time>2020-11-15T09:14:04Z</time>
      </trkpt>
      <trkpt lat="46.72695" lon="-0.81538">
        <ele>119.6</ele>
        <time>2020-11-15T09:14:05Z</time>
      </trkpt>
      <trkpt lat="46.72717" lon="-0.81575">
        <ele>124.1</ele>
        <time>2020-11-15T09:14:54Z</time>
      </trkpt>
      <trkpt lat="46.72718" lon="-0.81577">
        <ele>124.3</ele>
        <time>2020-11-15T09:14:55Z</time>
      </trkpt>
      <trkpt lat="46.7272" lon="-0.81579">
        <ele>124.5</ele>
        <time>2020-11-15T09:14:56Z</time>
      </trkpt>
      <trkpt lat="46.72723" lon="-0.81585">
        <ele>124.8</ele>
        <time>2020-11-15T09:14:58Z</time>
      </trkpt>
      <trkpt lat="46.72724" lon="-0.81588">
        <ele>124.9</ele>
        <time>2020-11-15T09:14:59Z</time>
      </trkpt>
      <trkpt lat="46.72726" lon="-0.81591">
        <ele>125.1</ele>
        <time>2020-11-15T09:15:00Z</time>
      </trkpt>
      <trkpt lat="46.72728" lon="-0.81598">
        <ele>125.2</ele>
        <time>2020-11-15T09:15:02Z</time>
      </trkpt>
      <trkpt lat="46.72731" lon="-0.81606">
        <ele>125.3</ele>
        <time>2020-11-15T09:15:04Z</time>
      </trkpt>
      <trkpt lat="46.72733" lon="-0.81609">
        <ele>125.4</ele>
        <time>2020-11-15T09:15:05Z</time>
      </trkpt>
      <trkpt lat="46.72735" lon="-0.81612">
        <ele>125.5</ele>
        <time>2020-11-15T09:15:06Z</time>
      </trkpt>
      <trkpt lat="46.72739" lon="-0.81619">
        <ele>125.6</ele>
        <time>2020-11-15T09:15:08Z</time>
      </trkpt>
      <trkpt lat="46.7274" lon="-0.81624">
        <ele>125.6</ele>
        <time>2020-11-15T09:15:09Z</time>
      </trkpt>
      <trkpt lat="46.72742" lon="-0.81627">
        <ele>125.7</ele>
        <time>2020-11-15T09:15:10Z</time>
      </trkpt>
      <trkpt lat="46.72744" lon="-0.81634">
        <ele>125.8</ele>
        <time>2020-11-15T09:15:12Z</time>
      </trkpt>
      <trkpt lat="46.72746" lon="-0.81638">
        <ele>125.9</ele>
        <time>2020-11-15T09:15:13Z</time>
      </trkpt>
      <trkpt lat="46.72747" lon="-0.81641">
        <ele>126</ele>
        <time>2020-11-15T09:15:14Z</time>
      </trkpt>
      <trkpt lat="46.72751" lon="-0.81648">
        <ele>126.2</ele>
        <time>2020-11-15T09:15:16Z</time>
      </trkpt>
      <trkpt lat="46.72755" lon="-0.81654">
        <ele>126.4</ele>
        <time>2020-11-15T09:15:18Z</time>
      </trkpt>
      <trkpt lat="46.7276" lon="-0.81658">
        <ele>126.5</ele>
        <time>2020-11-15T09:15:20Z</time>
      </trkpt>
      <trkpt lat="46.72764" lon="-0.81662">
        <ele>126.7</ele>
        <time>2020-11-15T09:15:22Z</time>
      </trkpt>
      <trkpt lat="46.72768" lon="-0.81668">
        <ele>126.9</ele>
        <time>2020-11-15T09:15:24Z</time>
      </trkpt>
      <trkpt lat="46.7277" lon="-0.81678">
        <ele>127.1</ele>
        <time>2020-11-15T09:15:26Z</time>
      </trkpt>
      <trkpt lat="46.72774" lon="-0.81686">
        <ele>127.4</ele>
        <time>2020-11-15T09:15:28Z</time>
      </trkpt>
      <trkpt lat="46.72779" lon="-0.81694">
        <ele>127.6</ele>
        <time>2020-11-15T09:15:30Z</time>
      </trkpt>
      <trkpt lat="46.72782" lon="-0.81704">
        <ele>127.8</ele>
        <time>2020-11-15T09:15:32Z</time>
      </trkpt>
      <trkpt lat="46.72784" lon="-0.81706">
        <ele>127.9</ele>
        <time>2020-11-15T09:15:33Z</time>
      </trkpt>
      <trkpt lat="46.72786" lon="-0.81709">
        <ele>127.9</ele>
        <time>2020-11-15T09:15:34Z</time>
      </trkpt>
      <trkpt lat="46.72789" lon="-0.8172">
        <ele>128.1</ele>
        <time>2020-11-15T09:15:36Z</time>
      </trkpt>
      <trkpt lat="46.72793" lon="-0.81728">
        <ele>128.2</ele>
        <time>2020-11-15T09:15:38Z</time>
      </trkpt>
      <trkpt lat="46.72796" lon="-0.81738">
        <ele>128.1</ele>
        <time>2020-11-15T09:15:40Z</time>
      </trkpt>
      <trkpt lat="46.72799" lon="-0.81748">
        <ele>128.1</ele>
        <time>2020-11-15T09:15:42Z</time>
      </trkpt>
      <trkpt lat="46.72801" lon="-0.81753">
        <ele>128</ele>
        <time>2020-11-15T09:15:43Z</time>
      </trkpt>
      <trkpt lat="46.72803" lon="-0.81758">
        <ele>128</ele>
        <time>2020-11-15T09:15:44Z</time>
      </trkpt>
      <trkpt lat="46.72806" lon="-0.81768">
        <ele>127.9</ele>
        <time>2020-11-15T09:15:46Z</time>
      </trkpt>
      <trkpt lat="46.7281" lon="-0.81776">
        <ele>127.7</ele>
        <time>2020-11-15T09:15:48Z</time>
      </trkpt>
      <trkpt lat="46.72812" lon="-0.81784">
        <ele>127.6</ele>
        <time>2020-11-15T09:15:50Z</time>
      </trkpt>
      <trkpt lat="46.72815" lon="-0.81794">
        <ele>127.4</ele>
        <time>2020-11-15T09:15:52Z</time>
      </trkpt>
      <trkpt lat="46.72819" lon="-0.81803">
        <ele>127.2</ele>
        <time>2020-11-15T09:15:54Z</time>
      </trkpt>
      <trkpt lat="46.72822" lon="-0.81813">
        <ele>126.9</ele>
        <time>2020-11-15T09:15:56Z</time>
      </trkpt>
      <trkpt lat="46.72826" lon="-0.81823">
        <ele>126.6</ele>
        <time>2020-11-15T09:15:58Z</time>
      </trkpt>
      <trkpt lat="46.7283" lon="-0.81834">
        <ele>126.2</ele>
        <time>2020-11-15T09:16:00Z</time>
      </trkpt>
      <trkpt lat="46.72833" lon="-0.81845">
        <ele>125.8</ele>
        <time>2020-11-15T09:16:02Z</time>
      </trkpt>
      <trkpt lat="46.72837" lon="-0.81857">
        <ele>125.2</ele>
        <time>2020-11-15T09:16:04Z</time>
      </trkpt>
      <trkpt lat="46.72842" lon="-0.81872">
        <ele>124.5</ele>
        <time>2020-11-15T09:16:06Z</time>
      </trkpt>
      <trkpt lat="46.72848" lon="-0.81888">
        <ele>123.6</ele>
        <time>2020-11-15T09:16:08Z</time>
      </trkpt>
      <trkpt lat="46.72854" lon="-0.81903">
        <ele>122.5</ele>
        <time>2020-11-15T09:16:10Z</time>
      </trkpt>
      <trkpt lat="46.72858" lon="-0.81914">
        <ele>121.7</ele>
        <time>2020-11-15T09:16:12Z</time>
      </trkpt>
      <trkpt lat="46.7286" lon="-0.81919">
        <ele>121.4</ele>
        <time>2020-11-15T09:16:13Z</time>
      </trkpt>
      <trkpt lat="46.72861" lon="-0.81925">
        <ele>120.8</ele>
        <time>2020-11-15T09:16:14Z</time>
      </trkpt>
      <trkpt lat="46.72861" lon="-0.81933">
        <ele>120</ele>
        <time>2020-11-15T09:16:15Z</time>
      </trkpt>
      <trkpt lat="46.72858" lon="-0.81944">
        <ele>119.6</ele>
        <time>2020-11-15T09:16:16Z</time>
      </trkpt>
      <trkpt lat="46.72856" lon="-0.81953">
        <ele>119.2</ele>
        <time>2020-11-15T09:16:17Z</time>
      </trkpt>
      <trkpt lat="46.72854" lon="-0.81962">
        <ele>118.9</ele>
        <time>2020-11-15T09:16:18Z</time>
      </trkpt>
      <trkpt lat="46.72854" lon="-0.8197">
        <ele>118.7</ele>
        <time>2020-11-15T09:16:19Z</time>
      </trkpt>
      <trkpt lat="46.72855" lon="-0.81978">
        <ele>118.4</ele>
        <time>2020-11-15T09:16:20Z</time>
      </trkpt>
      <trkpt lat="46.72856" lon="-0.81987">
        <ele>118.2</ele>
        <time>2020-11-15T09:16:21Z</time>
      </trkpt>
      <trkpt lat="46.72858" lon="-0.81995">
        <ele>118</ele>
        <time>2020-11-15T09:16:22Z</time>
      </trkpt>
      <trkpt lat="46.72862" lon="-0.82011">
        <ele>117.6</ele>
        <time>2020-11-15T09:16:24Z</time>
      </trkpt>
      <trkpt lat="46.72866" lon="-0.82026">
        <ele>117.3</ele>
        <time>2020-11-15T09:16:26Z</time>
      </trkpt>
      <trkpt lat="46.72869" lon="-0.82041">
        <ele>116.9</ele>
        <time>2020-11-15T09:16:28Z</time>
      </trkpt>
      <trkpt lat="46.72872" lon="-0.82056">
        <ele>116.4</ele>
        <time>2020-11-15T09:16:30Z</time>
      </trkpt>
      <trkpt lat="46.72878" lon="-0.8207">
        <ele>115.7</ele>
        <time>2020-11-15T09:16:32Z</time>
      </trkpt>
      <trkpt lat="46.72882" lon="-0.82079">
        <ele>115.3</ele>
        <time>2020-11-15T09:16:33Z</time>
      </trkpt>
      <trkpt lat="46.72887" lon="-0.82087">
        <ele>114.9</ele>
        <time>2020-11-15T09:16:34Z</time>
      </trkpt>
      <trkpt lat="46.729" lon="-0.82101">
        <ele>114.1</ele>
        <time>2020-11-15T09:16:36Z</time>
      </trkpt>
      <trkpt lat="46.72907" lon="-0.82108">
        <ele>113.9</ele>
        <time>2020-11-15T09:16:37Z</time>
      </trkpt>
      <trkpt lat="46.72914" lon="-0.82116">
        <ele>113.8</ele>
        <time>2020-11-15T09:16:38Z</time>
      </trkpt>
      <trkpt lat="46.72927" lon="-0.82133">
        <ele>113.7</ele>
        <time>2020-11-15T09:16:40Z</time>
      </trkpt>
      <trkpt lat="46.72938" lon="-0.82147">
        <ele>113.7</ele>
        <time>2020-11-15T09:16:42Z</time>
      </trkpt>
      <trkpt lat="46.72943" lon="-0.82152">
        <ele>113.7</ele>
        <time>2020-11-15T09:16:43Z</time>
      </trkpt>
      <trkpt lat="46.72948" lon="-0.82156">
        <ele>113.6</ele>
        <time>2020-11-15T09:16:44Z</time>
      </trkpt>
      <trkpt lat="46.72958" lon="-0.82165">
        <ele>113.5</ele>
        <time>2020-11-15T09:16:46Z</time>
      </trkpt>
      <trkpt lat="46.72969" lon="-0.82173">
        <ele>113.5</ele>
        <time>2020-11-15T09:16:48Z</time>
      </trkpt>
      <trkpt lat="46.7298" lon="-0.82179">
        <ele>113.5</ele>
        <time>2020-11-15T09:16:50Z</time>
      </trkpt>
      <trkpt lat="46.72985" lon="-0.82182">
        <ele>113.7</ele>
        <time>2020-11-15T09:16:51Z</time>
      </trkpt>
      <trkpt lat="46.7299" lon="-0.82183">
        <ele>113.8</ele>
        <time>2020-11-15T09:16:52Z</time>
      </trkpt>
      <trkpt lat="46.72999" lon="-0.82185">
        <ele>114.2</ele>
        <time>2020-11-15T09:16:54Z</time>
      </trkpt>
      <trkpt lat="46.73007" lon="-0.82184">
        <ele>114.7</ele>
        <time>2020-11-15T09:16:56Z</time>
      </trkpt>
      <trkpt lat="46.73014" lon="-0.82181">
        <ele>115.3</ele>
        <time>2020-11-15T09:16:58Z</time>
      </trkpt>
      <trkpt lat="46.73021" lon="-0.82176">
        <ele>115.9</ele>
        <time>2020-11-15T09:17:00Z</time>
      </trkpt>
      <trkpt lat="46.73026" lon="-0.82168">
        <ele>116.8</ele>
        <time>2020-11-15T09:17:02Z</time>
      </trkpt>
      <trkpt lat="46.73028" lon="-0.82164">
        <ele>117.3</ele>
        <time>2020-11-15T09:17:03Z</time>
      </trkpt>
      <trkpt lat="46.73031" lon="-0.82159">
        <ele>117.8</ele>
        <time>2020-11-15T09:17:04Z</time>
      </trkpt>
      <trkpt lat="46.73035" lon="-0.82155">
        <ele>118.3</ele>
        <time>2020-11-15T09:17:05Z</time>
      </trkpt>
      <trkpt lat="46.7304" lon="-0.82152">
        <ele>119.1</ele>
        <time>2020-11-15T09:17:06Z</time>
      </trkpt>
      <trkpt lat="46.73047" lon="-0.82148">
        <ele>119.8</ele>
        <time>2020-11-15T09:17:08Z</time>
      </trkpt>
      <trkpt lat="46.73054" lon="-0.82149">
        <ele>120.3</ele>
        <time>2020-11-15T09:17:10Z</time>
      </trkpt>
      <trkpt lat="46.73056" lon="-0.82152">
        <ele>120.7</ele>
        <time>2020-11-15T09:17:11Z</time>
      </trkpt>
      <trkpt lat="46.73058" lon="-0.82156">
        <ele>120.8</ele>
        <time>2020-11-15T09:17:12Z</time>
      </trkpt>
      <trkpt lat="46.73059" lon="-0.82164">
        <ele>120.4</ele>
        <time>2020-11-15T09:17:14Z</time>
      </trkpt>
      <trkpt lat="46.73059" lon="-0.82169">
        <ele>120.2</ele>
        <time>2020-11-15T09:17:15Z</time>
      </trkpt>
      <trkpt lat="46.7306" lon="-0.82174">
        <ele>120.4</ele>
        <time>2020-11-15T09:17:16Z</time>
      </trkpt>
      <trkpt lat="46.7306" lon="-0.82185">
        <ele>119.6</ele>
        <time>2020-11-15T09:17:18Z</time>
      </trkpt>
      <trkpt lat="46.73061" lon="-0.82196">
        <ele>118.9</ele>
        <time>2020-11-15T09:17:20Z</time>
      </trkpt>
      <trkpt lat="46.73063" lon="-0.82209">
        <ele>118.7</ele>
        <time>2020-11-15T09:17:22Z</time>
      </trkpt>
      <trkpt lat="46.73066" lon="-0.82221">
        <ele>118</ele>
        <time>2020-11-15T09:17:24Z</time>
      </trkpt>
      <trkpt lat="46.7307" lon="-0.82234">
        <ele>117.2</ele>
        <time>2020-11-15T09:17:26Z</time>
      </trkpt>
      <trkpt lat="46.73075" lon="-0.82246">
        <ele>116.8</ele>
        <time>2020-11-15T09:17:28Z</time>
      </trkpt>
      <trkpt lat="46.73078" lon="-0.82252">
        <ele>116.4</ele>
        <time>2020-11-15T09:17:29Z</time>
      </trkpt>
      <trkpt lat="46.73082" lon="-0.82259">
        <ele>116.3</ele>
        <time>2020-11-15T09:17:30Z</time>
      </trkpt>
      <trkpt lat="46.7309" lon="-0.82276">
        <ele>115.3</ele>
        <time>2020-11-15T09:17:32Z</time>
      </trkpt>
      <trkpt lat="46.73097" lon="-0.82297">
        <ele>114</ele>
        <time>2020-11-15T09:17:34Z</time>
      </trkpt>
      <trkpt lat="46.73101" lon="-0.82319">
        <ele>113.3</ele>
        <time>2020-11-15T09:17:36Z</time>
      </trkpt>
      <trkpt lat="46.73104" lon="-0.82327">
        <ele>113.2</ele>
        <time>2020-11-15T09:17:37Z</time>
      </trkpt>
      <trkpt lat="46.73107" lon="-0.82336">
        <ele>113.1</ele>
        <time>2020-11-15T09:17:38Z</time>
      </trkpt>
      <trkpt lat="46.73111" lon="-0.82353">
        <ele>112.6</ele>
        <time>2020-11-15T09:17:40Z</time>
      </trkpt>
      <trkpt lat="46.73112" lon="-0.8236">
        <ele>112.4</ele>
        <time>2020-11-15T09:17:41Z</time>
      </trkpt>
      <trkpt lat="46.73115" lon="-0.82369">
        <ele>112.5</ele>
        <time>2020-11-15T09:17:42Z</time>
      </trkpt>
      <trkpt lat="46.73121" lon="-0.82386">
        <ele>113.2</ele>
        <time>2020-11-15T09:17:44Z</time>
      </trkpt>
      <trkpt lat="46.73123" lon="-0.82395">
        <ele>113.8</ele>
        <time>2020-11-15T09:17:45Z</time>
      </trkpt>
      <trkpt lat="46.73125" lon="-0.82404">
        <ele>114.3</ele>
        <time>2020-11-15T09:17:46Z</time>
      </trkpt>
      <trkpt lat="46.73128" lon="-0.82422">
        <ele>114.6</ele>
        <time>2020-11-15T09:17:48Z</time>
      </trkpt>
      <trkpt lat="46.73131" lon="-0.82439">
        <ele>114.7</ele>
        <time>2020-11-15T09:17:50Z</time>
      </trkpt>
      <trkpt lat="46.73132" lon="-0.82454">
        <ele>114.8</ele>
        <time>2020-11-15T09:17:52Z</time>
      </trkpt>
      <trkpt lat="46.73133" lon="-0.82469">
        <ele>115.4</ele>
        <time>2020-11-15T09:17:54Z</time>
      </trkpt>
      <trkpt lat="46.73134" lon="-0.82479">
        <ele>115.9</ele>
        <time>2020-11-15T09:17:56Z</time>
      </trkpt>
      <trkpt lat="46.73134" lon="-0.82489">
        <ele>116.4</ele>
        <time>2020-11-15T09:17:58Z</time>
      </trkpt>
      <trkpt lat="46.73134" lon="-0.82499">
        <ele>117.1</ele>
        <time>2020-11-15T09:18:00Z</time>
      </trkpt>
      <trkpt lat="46.73133" lon="-0.82504">
        <ele>117.1</ele>
        <time>2020-11-15T09:18:01Z</time>
      </trkpt>
      <trkpt lat="46.73131" lon="-0.82509">
        <ele>117.5</ele>
        <time>2020-11-15T09:18:02Z</time>
      </trkpt>
      <trkpt lat="46.7313" lon="-0.82513">
        <ele>117.5</ele>
        <time>2020-11-15T09:18:03Z</time>
      </trkpt>
      <trkpt lat="46.73129" lon="-0.82517">
        <ele>117.9</ele>
        <time>2020-11-15T09:18:04Z</time>
      </trkpt>
      <trkpt lat="46.73129" lon="-0.8252">
        <ele>118.2</ele>
        <time>2020-11-15T09:18:05Z</time>
      </trkpt>
      <trkpt lat="46.73129" lon="-0.82523">
        <ele>118.5</ele>
        <time>2020-11-15T09:18:06Z</time>
      </trkpt>
      <trkpt lat="46.7313" lon="-0.8253">
        <ele>118.8</ele>
        <time>2020-11-15T09:18:08Z</time>
      </trkpt>
      <trkpt lat="46.7313" lon="-0.82533">
        <ele>119.4</ele>
        <time>2020-11-15T09:18:09Z</time>
      </trkpt>
      <trkpt lat="46.73131" lon="-0.82535">
        <ele>119.4</ele>
        <time>2020-11-15T09:18:10Z</time>
      </trkpt>
      <trkpt lat="46.73131" lon="-0.82539">
        <ele>119.7</ele>
        <time>2020-11-15T09:18:12Z</time>
      </trkpt>
      <trkpt lat="46.73133" lon="-0.82544">
        <ele>120.1</ele>
        <time>2020-11-15T09:18:14Z</time>
      </trkpt>
      <trkpt lat="46.73133" lon="-0.8255">
        <ele>120.6</ele>
        <time>2020-11-15T09:18:16Z</time>
      </trkpt>
      <trkpt lat="46.73134" lon="-0.82552">
        <ele>120.8</ele>
        <time>2020-11-15T09:18:17Z</time>
      </trkpt>
      <trkpt lat="46.73135" lon="-0.82555">
        <ele>120.9</ele>
        <time>2020-11-15T09:18:18Z</time>
      </trkpt>
      <trkpt lat="46.73137" lon="-0.8256">
        <ele>121.4</ele>
        <time>2020-11-15T09:18:20Z</time>
      </trkpt>
      <trkpt lat="46.7314" lon="-0.82565">
        <ele>122</ele>
        <time>2020-11-15T09:18:22Z</time>
      </trkpt>
      <trkpt lat="46.73142" lon="-0.82566">
        <ele>122.3</ele>
        <time>2020-11-15T09:18:23Z</time>
      </trkpt>
      <trkpt lat="46.73143" lon="-0.82568">
        <ele>122.7</ele>
        <time>2020-11-15T09:18:24Z</time>
      </trkpt>
      <trkpt lat="46.73147" lon="-0.82572">
        <ele>123.3</ele>
        <time>2020-11-15T09:18:26Z</time>
      </trkpt>
      <trkpt lat="46.73149" lon="-0.82574">
        <ele>123.8</ele>
        <time>2020-11-15T09:18:27Z</time>
      </trkpt>
      <trkpt lat="46.73152" lon="-0.82576">
        <ele>124.2</ele>
        <time>2020-11-15T09:18:28Z</time>
      </trkpt>
      <trkpt lat="46.73156" lon="-0.82579">
        <ele>124.6</ele>
        <time>2020-11-15T09:18:30Z</time>
      </trkpt>
      <trkpt lat="46.7316" lon="-0.82583">
        <ele>125.3</ele>
        <time>2020-11-15T09:18:32Z</time>
      </trkpt>
      <trkpt lat="46.73165" lon="-0.82587">
        <ele>125.7</ele>
        <time>2020-11-15T09:18:34Z</time>
      </trkpt>
      <trkpt lat="46.73172" lon="-0.82589">
        <ele>126.5</ele>
        <time>2020-11-15T09:18:36Z</time>
      </trkpt>
      <trkpt lat="46.73177" lon="-0.82586">
        <ele>126.8</ele>
        <time>2020-11-15T09:18:38Z</time>
      </trkpt>
      <trkpt lat="46.73181" lon="-0.82581">
        <ele>127.1</ele>
        <time>2020-11-15T09:18:40Z</time>
      </trkpt>
      <trkpt lat="46.73184" lon="-0.82577">
        <ele>127.4</ele>
        <time>2020-11-15T09:18:42Z</time>
      </trkpt>
      <trkpt lat="46.73188" lon="-0.82572">
        <ele>127.7</ele>
        <time>2020-11-15T09:18:44Z</time>
      </trkpt>
      <trkpt lat="46.73189" lon="-0.8257">
        <ele>127.9</ele>
        <time>2020-11-15T09:18:45Z</time>
      </trkpt>
      <trkpt lat="46.73191" lon="-0.82567">
        <ele>128</ele>
        <time>2020-11-15T09:18:46Z</time>
      </trkpt>
      <trkpt lat="46.73196" lon="-0.82563">
        <ele>128.4</ele>
        <time>2020-11-15T09:18:48Z</time>
      </trkpt>
      <trkpt lat="46.732" lon="-0.82559">
        <ele>128.7</ele>
        <time>2020-11-15T09:18:50Z</time>
      </trkpt>
      <trkpt lat="46.73202" lon="-0.82557">
        <ele>128.9</ele>
        <time>2020-11-15T09:18:51Z</time>
      </trkpt>
      <trkpt lat="46.73203" lon="-0.82554">
        <ele>129</ele>
        <time>2020-11-15T09:18:52Z</time>
      </trkpt>
      <trkpt lat="46.73206" lon="-0.82548">
        <ele>129.4</ele>
        <time>2020-11-15T09:18:54Z</time>
      </trkpt>
      <trkpt lat="46.7321" lon="-0.82542">
        <ele>129.7</ele>
        <time>2020-11-15T09:18:56Z</time>
      </trkpt>
      <trkpt lat="46.73212" lon="-0.8254">
        <ele>129.8</ele>
        <time>2020-11-15T09:18:57Z</time>
      </trkpt>
      <trkpt lat="46.73214" lon="-0.82537">
        <ele>130</ele>
        <time>2020-11-15T09:18:58Z</time>
      </trkpt>
      <trkpt lat="46.73217" lon="-0.82532">
        <ele>130.3</ele>
        <time>2020-11-15T09:19:00Z</time>
      </trkpt>
      <trkpt lat="46.7322" lon="-0.82526">
        <ele>130.6</ele>
        <time>2020-11-15T09:19:02Z</time>
      </trkpt>
      <trkpt lat="46.73223" lon="-0.8252">
        <ele>130.9</ele>
        <time>2020-11-15T09:19:04Z</time>
      </trkpt>
      <trkpt lat="46.73224" lon="-0.82517">
        <ele>131.1</ele>
        <time>2020-11-15T09:19:05Z</time>
      </trkpt>
      <trkpt lat="46.73225" lon="-0.82514">
        <ele>131.2</ele>
        <time>2020-11-15T09:19:06Z</time>
      </trkpt>
      <trkpt lat="46.73229" lon="-0.82507">
        <ele>131.5</ele>
        <time>2020-11-15T09:19:08Z</time>
      </trkpt>
      <trkpt lat="46.73231" lon="-0.82501">
        <ele>131.8</ele>
        <time>2020-11-15T09:19:10Z</time>
      </trkpt>
      <trkpt lat="46.73233" lon="-0.82495">
        <ele>132.1</ele>
        <time>2020-11-15T09:19:12Z</time>
      </trkpt>
      <trkpt lat="46.73234" lon="-0.82487">
        <ele>132.4</ele>
        <time>2020-11-15T09:19:14Z</time>
      </trkpt>
      <trkpt lat="46.73235" lon="-0.82481">
        <ele>132.7</ele>
        <time>2020-11-15T09:19:16Z</time>
      </trkpt>
      <trkpt lat="46.73235" lon="-0.82474">
        <ele>132.9</ele>
        <time>2020-11-15T09:19:18Z</time>
      </trkpt>
      <trkpt lat="46.73236" lon="-0.82466">
        <ele>133</ele>
        <time>2020-11-15T09:19:20Z</time>
      </trkpt>
      <trkpt lat="46.73236" lon="-0.82458">
        <ele>133.2</ele>
        <time>2020-11-15T09:19:22Z</time>
      </trkpt>
      <trkpt lat="46.73237" lon="-0.82453">
        <ele>133.3</ele>
        <time>2020-11-15T09:19:23Z</time>
      </trkpt>
      <trkpt lat="46.73237" lon="-0.82449">
        <ele>133.4</ele>
        <time>2020-11-15T09:19:24Z</time>
      </trkpt>
      <trkpt lat="46.73237" lon="-0.8244">
        <ele>133.5</ele>
        <time>2020-11-15T09:19:26Z</time>
      </trkpt>
      <trkpt lat="46.73235" lon="-0.82432">
        <ele>133.6</ele>
        <time>2020-11-15T09:19:28Z</time>
      </trkpt>
      <trkpt lat="46.73235" lon="-0.82427">
        <ele>133.7</ele>
        <time>2020-11-15T09:19:29Z</time>
      </trkpt>
      <trkpt lat="46.73234" lon="-0.82422">
        <ele>133.7</ele>
        <time>2020-11-15T09:19:30Z</time>
      </trkpt>
      <trkpt lat="46.73234" lon="-0.82413">
        <ele>133.9</ele>
        <time>2020-11-15T09:19:32Z</time>
      </trkpt>
      <trkpt lat="46.73234" lon="-0.82403">
        <ele>134.1</ele>
        <time>2020-11-15T09:19:34Z</time>
      </trkpt>
      <trkpt lat="46.73234" lon="-0.82397">
        <ele>134.2</ele>
        <time>2020-11-15T09:19:35Z</time>
      </trkpt>
      <trkpt lat="46.73235" lon="-0.82392">
        <ele>134.3</ele>
        <time>2020-11-15T09:19:36Z</time>
      </trkpt>
      <trkpt lat="46.73235" lon="-0.82381">
        <ele>134.5</ele>
        <time>2020-11-15T09:19:38Z</time>
      </trkpt>
      <trkpt lat="46.73235" lon="-0.8237">
        <ele>134.6</ele>
        <time>2020-11-15T09:19:40Z</time>
      </trkpt>
      <trkpt lat="46.73235" lon="-0.8236">
        <ele>134.7</ele>
        <time>2020-11-15T09:19:42Z</time>
      </trkpt>
      <trkpt lat="46.73235" lon="-0.82354">
        <ele>134.8</ele>
        <time>2020-11-15T09:19:43Z</time>
      </trkpt>
      <trkpt lat="46.73236" lon="-0.82349">
        <ele>134.9</ele>
        <time>2020-11-15T09:19:44Z</time>
      </trkpt>
      <trkpt lat="46.73236" lon="-0.82338">
        <ele>135</ele>
        <time>2020-11-15T09:19:46Z</time>
      </trkpt>
      <trkpt lat="46.73237" lon="-0.82327">
        <ele>135.1</ele>
        <time>2020-11-15T09:19:48Z</time>
      </trkpt>
      <trkpt lat="46.73238" lon="-0.82315">
        <ele>135.3</ele>
        <time>2020-11-15T09:19:50Z</time>
      </trkpt>
      <trkpt lat="46.73239" lon="-0.82303">
        <ele>135.4</ele>
        <time>2020-11-15T09:19:52Z</time>
      </trkpt>
      <trkpt lat="46.7324" lon="-0.82292">
        <ele>135.6</ele>
        <time>2020-11-15T09:19:54Z</time>
      </trkpt>
      <trkpt lat="46.73241" lon="-0.8228">
        <ele>135.7</ele>
        <time>2020-11-15T09:19:56Z</time>
      </trkpt>
      <trkpt lat="46.73242" lon="-0.82268">
        <ele>135.8</ele>
        <time>2020-11-15T09:19:58Z</time>
      </trkpt>
      <trkpt lat="46.73243" lon="-0.82256">
        <ele>135.9</ele>
        <time>2020-11-15T09:20:00Z</time>
      </trkpt>
      <trkpt lat="46.73244" lon="-0.82245">
        <ele>135.9</ele>
        <time>2020-11-15T09:20:02Z</time>
      </trkpt>
      <trkpt lat="46.73244" lon="-0.82233">
        <ele>135.9</ele>
        <time>2020-11-15T09:20:04Z</time>
      </trkpt>
      <trkpt lat="46.73245" lon="-0.82221">
        <ele>135.9</ele>
        <time>2020-11-15T09:20:06Z</time>
      </trkpt>
      <trkpt lat="46.73245" lon="-0.82215">
        <ele>135.8</ele>
        <time>2020-11-15T09:20:07Z</time>
      </trkpt>
      <trkpt lat="46.73246" lon="-0.82209">
        <ele>135.8</ele>
        <time>2020-11-15T09:20:08Z</time>
      </trkpt>
      <trkpt lat="46.73247" lon="-0.82197">
        <ele>135.7</ele>
        <time>2020-11-15T09:20:10Z</time>
      </trkpt>
      <trkpt lat="46.73248" lon="-0.82183">
        <ele>135.5</ele>
        <time>2020-11-15T09:20:12Z</time>
      </trkpt>
      <trkpt lat="46.73251" lon="-0.8217">
        <ele>135.4</ele>
        <time>2020-11-15T09:20:14Z</time>
      </trkpt>
      <trkpt lat="46.73253" lon="-0.82163">
        <ele>135.3</ele>
        <time>2020-11-15T09:20:15Z</time>
      </trkpt>
      <trkpt lat="46.73255" lon="-0.82157">
        <ele>135.3</ele>
        <time>2020-11-15T09:20:16Z</time>
      </trkpt>
      <trkpt lat="46.73258" lon="-0.82143">
        <ele>135.2</ele>
        <time>2020-11-15T09:20:18Z</time>
      </trkpt>
      <trkpt lat="46.73262" lon="-0.8213">
        <ele>135</ele>
        <time>2020-11-15T09:20:20Z</time>
      </trkpt>
      <trkpt lat="46.73264" lon="-0.82124">
        <ele>134.9</ele>
        <time>2020-11-15T09:20:21Z</time>
      </trkpt>
      <trkpt lat="46.73265" lon="-0.82117">
        <ele>134.8</ele>
        <time>2020-11-15T09:20:22Z</time>
      </trkpt>
      <trkpt lat="46.73267" lon="-0.82103">
        <ele>134.6</ele>
        <time>2020-11-15T09:20:24Z</time>
      </trkpt>
      <trkpt lat="46.73268" lon="-0.82081">
        <ele>134.3</ele>
        <time>2020-11-15T09:20:26Z</time>
      </trkpt>
      <trkpt lat="46.73268" lon="-0.82073">
        <ele>134.2</ele>
        <time>2020-11-15T09:20:28Z</time>
      </trkpt>
      <trkpt lat="46.73268" lon="-0.82058">
        <ele>133.9</ele>
        <time>2020-11-15T09:20:30Z</time>
      </trkpt>
      <trkpt lat="46.73267" lon="-0.82041">
        <ele>133.5</ele>
        <time>2020-11-15T09:20:32Z</time>
      </trkpt>
      <trkpt lat="46.73268" lon="-0.82025">
        <ele>133.2</ele>
        <time>2020-11-15T09:20:34Z</time>
      </trkpt>
      <trkpt lat="46.73269" lon="-0.82016">
        <ele>133.1</ele>
        <time>2020-11-15T09:20:35Z</time>
      </trkpt>
      <trkpt lat="46.7327" lon="-0.82008">
        <ele>132.9</ele>
        <time>2020-11-15T09:20:36Z</time>
      </trkpt>
      <trkpt lat="46.73274" lon="-0.81993">
        <ele>132.7</ele>
        <time>2020-11-15T09:20:37Z</time>
      </trkpt>
      <trkpt lat="46.73277" lon="-0.81985">
        <ele>132.6</ele>
        <time>2020-11-15T09:20:38Z</time>
      </trkpt>
      <trkpt lat="46.7328" lon="-0.81978">
        <ele>132.6</ele>
        <time>2020-11-15T09:20:39Z</time>
      </trkpt>
      <trkpt lat="46.7328" lon="-0.81978">
        <ele>132.6</ele>
        <time>2020-11-15T09:20:40Z</time>
      </trkpt>
      <trkpt lat="46.73285" lon="-0.81964">
        <ele>132.4</ele>
        <time>2020-11-15T09:20:42Z</time>
      </trkpt>
      <trkpt lat="46.73291" lon="-0.81949">
        <ele>132.3</ele>
        <time>2020-11-15T09:20:44Z</time>
      </trkpt>
      <trkpt lat="46.73295" lon="-0.81934">
        <ele>132.2</ele>
        <time>2020-11-15T09:20:46Z</time>
      </trkpt>
      <trkpt lat="46.73297" lon="-0.81918">
        <ele>132.1</ele>
        <time>2020-11-15T09:20:48Z</time>
      </trkpt>
      <trkpt lat="46.73298" lon="-0.81901">
        <ele>132</ele>
        <time>2020-11-15T09:20:50Z</time>
      </trkpt>
      <trkpt lat="46.73298" lon="-0.81883">
        <ele>131.9</ele>
        <time>2020-11-15T09:20:52Z</time>
      </trkpt>
      <trkpt lat="46.73297" lon="-0.81866">
        <ele>131.8</ele>
        <time>2020-11-15T09:20:54Z</time>
      </trkpt>
      <trkpt lat="46.73296" lon="-0.81849">
        <ele>131.7</ele>
        <time>2020-11-15T09:20:56Z</time>
      </trkpt>
      <trkpt lat="46.73294" lon="-0.81831">
        <ele>131.6</ele>
        <time>2020-11-15T09:20:58Z</time>
      </trkpt>
      <trkpt lat="46.73292" lon="-0.81814">
        <ele>131.6</ele>
        <time>2020-11-15T09:21:00Z</time>
      </trkpt>
      <trkpt lat="46.7329" lon="-0.81805">
        <ele>131.6</ele>
        <time>2020-11-15T09:21:01Z</time>
      </trkpt>
      <trkpt lat="46.73289" lon="-0.81797">
        <ele>131.6</ele>
        <time>2020-11-15T09:21:02Z</time>
      </trkpt>
      <trkpt lat="46.73286" lon="-0.81789">
        <ele>131.7</ele>
        <time>2020-11-15T09:21:03Z</time>
      </trkpt>
      <trkpt lat="46.73281" lon="-0.81775">
        <ele>131.9</ele>
        <time>2020-11-15T09:21:04Z</time>
      </trkpt>
      <trkpt lat="46.73275" lon="-0.81761">
        <ele>132.1</ele>
        <time>2020-11-15T09:21:06Z</time>
      </trkpt>
      <trkpt lat="46.73271" lon="-0.81749">
        <ele>132.4</ele>
        <time>2020-11-15T09:21:08Z</time>
      </trkpt>
      <trkpt lat="46.73268" lon="-0.81735">
        <ele>132.9</ele>
        <time>2020-11-15T09:21:10Z</time>
      </trkpt>
      <trkpt lat="46.73267" lon="-0.81732">
        <ele>133</ele>
        <time>2020-11-15T09:21:11Z</time>
      </trkpt>
      <trkpt lat="46.73267" lon="-0.81729">
        <ele>133.1</ele>
        <time>2020-11-15T09:21:12Z</time>
      </trkpt>
      <trkpt lat="46.73265" lon="-0.81715">
        <ele>133.7</ele>
        <time>2020-11-15T09:21:13Z</time>
      </trkpt>
      <trkpt lat="46.73266" lon="-0.81709">
        <ele>134</ele>
        <time>2020-11-15T09:21:14Z</time>
      </trkpt>
      <trkpt lat="46.73266" lon="-0.81698">
        <ele>134.5</ele>
        <time>2020-11-15T09:21:16Z</time>
      </trkpt>
      <trkpt lat="46.73268" lon="-0.81687">
        <ele>134.9</ele>
        <time>2020-11-15T09:21:18Z</time>
      </trkpt>
      <trkpt lat="46.73271" lon="-0.81677">
        <ele>135.3</ele>
        <time>2020-11-15T09:21:20Z</time>
      </trkpt>
      <trkpt lat="46.73273" lon="-0.81673">
        <ele>135.5</ele>
        <time>2020-11-15T09:21:21Z</time>
      </trkpt>
      <trkpt lat="46.73276" lon="-0.81669">
        <ele>135.8</ele>
        <time>2020-11-15T09:21:22Z</time>
      </trkpt>
      <trkpt lat="46.73281" lon="-0.81661">
        <ele>136.3</ele>
        <time>2020-11-15T09:21:24Z</time>
      </trkpt>
      <trkpt lat="46.73287" lon="-0.81653">
        <ele>136.9</ele>
        <time>2020-11-15T09:21:26Z</time>
      </trkpt>
      <trkpt lat="46.73292" lon="-0.81646">
        <ele>137.5</ele>
        <time>2020-11-15T09:21:28Z</time>
      </trkpt>
      <trkpt lat="46.73295" lon="-0.81643">
        <ele>137.8</ele>
        <time>2020-11-15T09:21:29Z</time>
      </trkpt>
      <trkpt lat="46.73298" lon="-0.81639">
        <ele>138.1</ele>
        <time>2020-11-15T09:21:30Z</time>
      </trkpt>
      <trkpt lat="46.73303" lon="-0.81632">
        <ele>138.8</ele>
        <time>2020-11-15T09:21:32Z</time>
      </trkpt>
      <trkpt lat="46.73308" lon="-0.81624">
        <ele>139.4</ele>
        <time>2020-11-15T09:21:34Z</time>
      </trkpt>
      <trkpt lat="46.73311" lon="-0.81621">
        <ele>139.7</ele>
        <time>2020-11-15T09:21:35Z</time>
      </trkpt>
      <trkpt lat="46.73314" lon="-0.81618">
        <ele>140</ele>
        <time>2020-11-15T09:21:36Z</time>
      </trkpt>
      <trkpt lat="46.73319" lon="-0.81612">
        <ele>140.7</ele>
        <time>2020-11-15T09:21:38Z</time>
      </trkpt>
      <trkpt lat="46.73324" lon="-0.81605">
        <ele>141.3</ele>
        <time>2020-11-15T09:21:40Z</time>
      </trkpt>
      <trkpt lat="46.73327" lon="-0.81601">
        <ele>141.6</ele>
        <time>2020-11-15T09:21:41Z</time>
      </trkpt>
      <trkpt lat="46.73329" lon="-0.81598">
        <ele>141.9</ele>
        <time>2020-11-15T09:21:42Z</time>
      </trkpt>
      <trkpt lat="46.73335" lon="-0.81591">
        <ele>142.6</ele>
        <time>2020-11-15T09:21:44Z</time>
      </trkpt>
      <trkpt lat="46.7334" lon="-0.81584">
        <ele>143.3</ele>
        <time>2020-11-15T09:21:46Z</time>
      </trkpt>
      <trkpt lat="46.73346" lon="-0.81577">
        <ele>143.9</ele>
        <time>2020-11-15T09:21:48Z</time>
      </trkpt>
      <trkpt lat="46.73351" lon="-0.8157">
        <ele>144.6</ele>
        <time>2020-11-15T09:21:50Z</time>
      </trkpt>
      <trkpt lat="46.73357" lon="-0.81562">
        <ele>145.3</ele>
        <time>2020-11-15T09:21:52Z</time>
      </trkpt>
      <trkpt lat="46.73362" lon="-0.81555">
        <ele>145.9</ele>
        <time>2020-11-15T09:21:54Z</time>
      </trkpt>
      <trkpt lat="46.73367" lon="-0.81548">
        <ele>146.6</ele>
        <time>2020-11-15T09:21:56Z</time>
      </trkpt>
      <trkpt lat="46.73373" lon="-0.8154">
        <ele>147.3</ele>
        <time>2020-11-15T09:21:58Z</time>
      </trkpt>
      <trkpt lat="46.73378" lon="-0.81534">
        <ele>147.9</ele>
        <time>2020-11-15T09:22:00Z</time>
      </trkpt>
      <trkpt lat="46.73385" lon="-0.8153">
        <ele>148.5</ele>
        <time>2020-11-15T09:22:02Z</time>
      </trkpt>
      <trkpt lat="46.73388" lon="-0.81529">
        <ele>149.1</ele>
        <time>2020-11-15T09:22:03Z</time>
      </trkpt>
      <trkpt lat="46.73392" lon="-0.81529">
        <ele>149.1</ele>
        <time>2020-11-15T09:22:04Z</time>
      </trkpt>
      <trkpt lat="46.73397" lon="-0.81535">
        <ele>149.2</ele>
        <time>2020-11-15T09:22:06Z</time>
      </trkpt>
      <trkpt lat="46.73401" lon="-0.81543">
        <ele>149.3</ele>
        <time>2020-11-15T09:22:08Z</time>
      </trkpt>
      <trkpt lat="46.73406" lon="-0.8155">
        <ele>149.4</ele>
        <time>2020-11-15T09:22:10Z</time>
      </trkpt>
      <trkpt lat="46.73409" lon="-0.81554">
        <ele>149.4</ele>
        <time>2020-11-15T09:22:11Z</time>
      </trkpt>
      <trkpt lat="46.73412" lon="-0.81557">
        <ele>149.5</ele>
        <time>2020-11-15T09:22:12Z</time>
      </trkpt>
      <trkpt lat="46.73419" lon="-0.81561">
        <ele>149.6</ele>
        <time>2020-11-15T09:22:14Z</time>
      </trkpt>
      <trkpt lat="46.73427" lon="-0.81563">
        <ele>149.7</ele>
        <time>2020-11-15T09:22:16Z</time>
      </trkpt>
      <trkpt lat="46.73435" lon="-0.81563">
        <ele>149.7</ele>
        <time>2020-11-15T09:22:18Z</time>
      </trkpt>
      <trkpt lat="46.73443" lon="-0.81562">
        <ele>149.7</ele>
        <time>2020-11-15T09:22:20Z</time>
      </trkpt>
      <trkpt lat="46.73447" lon="-0.81561">
        <ele>149.7</ele>
        <time>2020-11-15T09:22:21Z</time>
      </trkpt>
      <trkpt lat="46.73451" lon="-0.8156">
        <ele>149.6</ele>
        <time>2020-11-15T09:22:22Z</time>
      </trkpt>
      <trkpt lat="46.73459" lon="-0.81558">
        <ele>149.5</ele>
        <time>2020-11-15T09:22:24Z</time>
      </trkpt>
      <trkpt lat="46.73468" lon="-0.81556">
        <ele>149.3</ele>
        <time>2020-11-15T09:22:26Z</time>
      </trkpt>
      <trkpt lat="46.73472" lon="-0.81554">
        <ele>149.2</ele>
        <time>2020-11-15T09:22:27Z</time>
      </trkpt>
      <trkpt lat="46.73477" lon="-0.81553">
        <ele>149.1</ele>
        <time>2020-11-15T09:22:28Z</time>
      </trkpt>
      <trkpt lat="46.73487" lon="-0.8155">
        <ele>148.7</ele>
        <time>2020-11-15T09:22:30Z</time>
      </trkpt>
      <trkpt lat="46.73498" lon="-0.81548">
        <ele>148.2</ele>
        <time>2020-11-15T09:22:32Z</time>
      </trkpt>
      <trkpt lat="46.73511" lon="-0.81545">
        <ele>147.5</ele>
        <time>2020-11-15T09:22:34Z</time>
      </trkpt>
      <trkpt lat="46.73524" lon="-0.81542">
        <ele>146.7</ele>
        <time>2020-11-15T09:22:36Z</time>
      </trkpt>
      <trkpt lat="46.73539" lon="-0.81541">
        <ele>145.8</ele>
        <time>2020-11-15T09:22:38Z</time>
      </trkpt>
      <trkpt lat="46.73546" lon="-0.81543">
        <ele>145.4</ele>
        <time>2020-11-15T09:22:39Z</time>
      </trkpt>
      <trkpt lat="46.73554" lon="-0.81547">
        <ele>145</ele>
        <time>2020-11-15T09:22:40Z</time>
      </trkpt>
      <trkpt lat="46.73569" lon="-0.81559">
        <ele>143.9</ele>
        <time>2020-11-15T09:22:42Z</time>
      </trkpt>
      <trkpt lat="46.73584" lon="-0.81574">
        <ele>142.7</ele>
        <time>2020-11-15T09:22:44Z</time>
      </trkpt>
      <trkpt lat="46.73599" lon="-0.81591">
        <ele>141.4</ele>
        <time>2020-11-15T09:22:46Z</time>
      </trkpt>
      <trkpt lat="46.73616" lon="-0.81608">
        <ele>140.1</ele>
        <time>2020-11-15T09:22:48Z</time>
      </trkpt>
      <trkpt lat="46.73632" lon="-0.81627">
        <ele>138.6</ele>
        <time>2020-11-15T09:22:50Z</time>
      </trkpt>
      <trkpt lat="46.7364" lon="-0.81638">
        <ele>137.8</ele>
        <time>2020-11-15T09:22:51Z</time>
      </trkpt>
      <trkpt lat="46.73647" lon="-0.81649">
        <ele>137.1</ele>
        <time>2020-11-15T09:22:52Z</time>
      </trkpt>
      <trkpt lat="46.73654" lon="-0.81662">
        <ele>136.4</ele>
        <time>2020-11-15T09:22:53Z</time>
      </trkpt>
      <trkpt lat="46.7366" lon="-0.81675">
        <ele>135.8</ele>
        <time>2020-11-15T09:22:54Z</time>
      </trkpt>
      <trkpt lat="46.73671" lon="-0.81703">
        <ele>134.5</ele>
        <time>2020-11-15T09:22:56Z</time>
      </trkpt>
      <trkpt lat="46.73681" lon="-0.81732">
        <ele>133.3</ele>
        <time>2020-11-15T09:22:58Z</time>
      </trkpt>
      <trkpt lat="46.73691" lon="-0.8176">
        <ele>132.2</ele>
        <time>2020-11-15T09:23:00Z</time>
      </trkpt>
      <trkpt lat="46.73697" lon="-0.81773">
        <ele>131.7</ele>
        <time>2020-11-15T09:23:01Z</time>
      </trkpt>
      <trkpt lat="46.73703" lon="-0.81784">
        <ele>131.2</ele>
        <time>2020-11-15T09:23:02Z</time>
      </trkpt>
      <trkpt lat="46.73711" lon="-0.81791">
        <ele>130.7</ele>
        <time>2020-11-15T09:23:03Z</time>
      </trkpt>
      <trkpt lat="46.7372" lon="-0.81795">
        <ele>130.2</ele>
        <time>2020-11-15T09:23:04Z</time>
      </trkpt>
      <trkpt lat="46.7373" lon="-0.81796">
        <ele>129.6</ele>
        <time>2020-11-15T09:23:05Z</time>
      </trkpt>
      <trkpt lat="46.7374" lon="-0.81794">
        <ele>129</ele>
        <time>2020-11-15T09:23:06Z</time>
      </trkpt>
      <trkpt lat="46.7375" lon="-0.81791">
        <ele>128.3</ele>
        <time>2020-11-15T09:23:07Z</time>
      </trkpt>
      <trkpt lat="46.7376" lon="-0.81788">
        <ele>127.7</ele>
        <time>2020-11-15T09:23:08Z</time>
      </trkpt>
      <trkpt lat="46.73781" lon="-0.81784">
        <ele>126.2</ele>
        <time>2020-11-15T09:23:10Z</time>
      </trkpt>
      <trkpt lat="46.73799" lon="-0.81781">
        <ele>124.8</ele>
        <time>2020-11-15T09:23:12Z</time>
      </trkpt>
      <trkpt lat="46.73814" lon="-0.81778">
        <ele>123.6</ele>
        <time>2020-11-15T09:23:14Z</time>
      </trkpt>
      <trkpt lat="46.73827" lon="-0.81767">
        <ele>122.6</ele>
        <time>2020-11-15T09:23:16Z</time>
      </trkpt>
      <trkpt lat="46.73836" lon="-0.81748">
        <ele>121.8</ele>
        <time>2020-11-15T09:23:18Z</time>
      </trkpt>
      <trkpt lat="46.7384" lon="-0.81737">
        <ele>121.6</ele>
        <time>2020-11-15T09:23:19Z</time>
      </trkpt>
      <trkpt lat="46.73843" lon="-0.81726">
        <ele>121.3</ele>
        <time>2020-11-15T09:23:20Z</time>
      </trkpt>
      <trkpt lat="46.73845" lon="-0.81716">
        <ele>121.2</ele>
        <time>2020-11-15T09:23:21Z</time>
      </trkpt>
      <trkpt lat="46.73847" lon="-0.81706">
        <ele>121.1</ele>
        <time>2020-11-15T09:23:22Z</time>
      </trkpt>
      <trkpt lat="46.73849" lon="-0.81697">
        <ele>121.1</ele>
        <time>2020-11-15T09:23:23Z</time>
      </trkpt>
      <trkpt lat="46.7385" lon="-0.81687">
        <ele>121.1</ele>
        <time>2020-11-15T09:23:24Z</time>
      </trkpt>
      <trkpt lat="46.7385" lon="-0.81677">
        <ele>121.2</ele>
        <time>2020-11-15T09:23:25Z</time>
      </trkpt>
      <trkpt lat="46.7385" lon="-0.81668">
        <ele>121.2</ele>
        <time>2020-11-15T09:23:26Z</time>
      </trkpt>
      <trkpt lat="46.73849" lon="-0.81659">
        <ele>121.3</ele>
        <time>2020-11-15T09:23:27Z</time>
      </trkpt>
      <trkpt lat="46.73849" lon="-0.8165">
        <ele>121.4</ele>
        <time>2020-11-15T09:23:28Z</time>
      </trkpt>
      <trkpt lat="46.73849" lon="-0.81635">
        <ele>121.8</ele>
        <time>2020-11-15T09:23:30Z</time>
      </trkpt>
      <trkpt lat="46.7385" lon="-0.81628">
        <ele>122</ele>
        <time>2020-11-15T09:23:31Z</time>
      </trkpt>
      <trkpt lat="46.73852" lon="-0.81623">
        <ele>122.3</ele>
        <time>2020-11-15T09:23:32Z</time>
      </trkpt>
      <trkpt lat="46.73857" lon="-0.81616">
        <ele>122.8</ele>
        <time>2020-11-15T09:23:34Z</time>
      </trkpt>
      <trkpt lat="46.7386" lon="-0.81613">
        <ele>123.1</ele>
        <time>2020-11-15T09:23:35Z</time>
      </trkpt>
      <trkpt lat="46.73862" lon="-0.81609">
        <ele>123.4</ele>
        <time>2020-11-15T09:23:36Z</time>
      </trkpt>
      <trkpt lat="46.73868" lon="-0.81602">
        <ele>124.2</ele>
        <time>2020-11-15T09:23:38Z</time>
      </trkpt>
      <trkpt lat="46.73873" lon="-0.81597">
        <ele>125</ele>
        <time>2020-11-15T09:23:40Z</time>
      </trkpt>
      <trkpt lat="46.73875" lon="-0.81594">
        <ele>125.5</ele>
        <time>2020-11-15T09:23:41Z</time>
      </trkpt>
      <trkpt lat="46.73877" lon="-0.81591">
        <ele>125.9</ele>
        <time>2020-11-15T09:23:42Z</time>
      </trkpt>
      <trkpt lat="46.73882" lon="-0.81591">
        <ele>126.2</ele>
        <time>2020-11-15T09:23:44Z</time>
      </trkpt>
      <trkpt lat="46.73885" lon="-0.81594">
        <ele>126.2</ele>
        <time>2020-11-15T09:23:45Z</time>
      </trkpt>
      <trkpt lat="46.73887" lon="-0.81599">
        <ele>126.2</ele>
        <time>2020-11-15T09:23:46Z</time>
      </trkpt>
      <trkpt lat="46.73892" lon="-0.81611">
        <ele>126.2</ele>
        <time>2020-11-15T09:23:48Z</time>
      </trkpt>
      <trkpt lat="46.73894" lon="-0.81618">
        <ele>126.2</ele>
        <time>2020-11-15T09:23:49Z</time>
      </trkpt>
      <trkpt lat="46.73896" lon="-0.81626">
        <ele>126.1</ele>
        <time>2020-11-15T09:23:50Z</time>
      </trkpt>
      <trkpt lat="46.73897" lon="-0.81633">
        <ele>126.1</ele>
        <time>2020-11-15T09:23:51Z</time>
      </trkpt>
      <trkpt lat="46.73899" lon="-0.81637">
        <ele>126.1</ele>
        <time>2020-11-15T09:23:52Z</time>
      </trkpt>
      <trkpt lat="46.73901" lon="-0.81639">
        <ele>126.1</ele>
        <time>2020-11-15T09:23:53Z</time>
      </trkpt>
      <trkpt lat="46.73903" lon="-0.81638">
        <ele>126.1</ele>
        <time>2020-11-15T09:23:54Z</time>
      </trkpt>
      <trkpt lat="46.73907" lon="-0.81633">
        <ele>126.1</ele>
        <time>2020-11-15T09:23:56Z</time>
      </trkpt>
      <trkpt lat="46.73912" lon="-0.81628">
        <ele>126.1</ele>
        <time>2020-11-15T09:23:58Z</time>
      </trkpt>
      <trkpt lat="46.73917" lon="-0.81623">
        <ele>126.1</ele>
        <time>2020-11-15T09:24:00Z</time>
      </trkpt>
      <trkpt lat="46.7392" lon="-0.81611">
        <ele>126.1</ele>
        <time>2020-11-15T09:24:02Z</time>
      </trkpt>
      <trkpt lat="46.73922" lon="-0.81599">
        <ele>126.2</ele>
        <time>2020-11-15T09:24:04Z</time>
      </trkpt>
      <trkpt lat="46.73923" lon="-0.81593">
        <ele>126.2</ele>
        <time>2020-11-15T09:24:05Z</time>
      </trkpt>
      <trkpt lat="46.73924" lon="-0.81588">
        <ele>126.3</ele>
        <time>2020-11-15T09:24:06Z</time>
      </trkpt>
      <trkpt lat="46.73927" lon="-0.81575">
        <ele>126.4</ele>
        <time>2020-11-15T09:24:08Z</time>
      </trkpt>
      <trkpt lat="46.73928" lon="-0.8157">
        <ele>126.4</ele>
        <time>2020-11-15T09:24:09Z</time>
      </trkpt>
      <trkpt lat="46.73929" lon="-0.81567">
        <ele>126.5</ele>
        <time>2020-11-15T09:24:10Z</time>
      </trkpt>
      <trkpt lat="46.73932" lon="-0.8156">
        <ele>126.6</ele>
        <time>2020-11-15T09:24:12Z</time>
      </trkpt>
      <trkpt lat="46.73947" lon="-0.81557">
        <ele>126.6</ele>
        <time>2020-11-15T09:24:22Z</time>
      </trkpt>
      <trkpt lat="46.7395" lon="-0.81558">
        <ele>126.6</ele>
        <time>2020-11-15T09:24:23Z</time>
      </trkpt>
      <trkpt lat="46.73954" lon="-0.81558">
        <ele>126.6</ele>
        <time>2020-11-15T09:24:24Z</time>
      </trkpt>
      <trkpt lat="46.7396" lon="-0.81558">
        <ele>126.9</ele>
        <time>2020-11-15T09:24:26Z</time>
      </trkpt>
      <trkpt lat="46.73967" lon="-0.81557">
        <ele>127.1</ele>
        <time>2020-11-15T09:24:28Z</time>
      </trkpt>
      <trkpt lat="46.7397" lon="-0.81556">
        <ele>127.3</ele>
        <time>2020-11-15T09:24:29Z</time>
      </trkpt>
      <trkpt lat="46.73973" lon="-0.81556">
        <ele>127.4</ele>
        <time>2020-11-15T09:24:30Z</time>
      </trkpt>
      <trkpt lat="46.73979" lon="-0.81556">
        <ele>127.8</ele>
        <time>2020-11-15T09:24:32Z</time>
      </trkpt>
      <trkpt lat="46.73985" lon="-0.81556">
        <ele>128.3</ele>
        <time>2020-11-15T09:24:34Z</time>
      </trkpt>
      <trkpt lat="46.73987" lon="-0.81556">
        <ele>128.8</ele>
        <time>2020-11-15T09:24:35Z</time>
      </trkpt>
      <trkpt lat="46.7399" lon="-0.81555">
        <ele>129.1</ele>
        <time>2020-11-15T09:24:36Z</time>
      </trkpt>
      <trkpt lat="46.73992" lon="-0.81554">
        <ele>129.4</ele>
        <time>2020-11-15T09:24:37Z</time>
      </trkpt>
      <trkpt lat="46.73994" lon="-0.81552">
        <ele>129.4</ele>
        <time>2020-11-15T09:24:38Z</time>
      </trkpt>
      <trkpt lat="46.73995" lon="-0.8155">
        <ele>129.5</ele>
        <time>2020-11-15T09:24:39Z</time>
      </trkpt>
      <trkpt lat="46.73996" lon="-0.81546">
        <ele>129.4</ele>
        <time>2020-11-15T09:24:40Z</time>
      </trkpt>
      <trkpt lat="46.73997" lon="-0.8154">
        <ele>129.2</ele>
        <time>2020-11-15T09:24:42Z</time>
      </trkpt>
      <trkpt lat="46.73997" lon="-0.81533">
        <ele>128.9</ele>
        <time>2020-11-15T09:24:44Z</time>
      </trkpt>
      <trkpt lat="46.73997" lon="-0.81529">
        <ele>128.7</ele>
        <time>2020-11-15T09:24:45Z</time>
      </trkpt>
      <trkpt lat="46.73997" lon="-0.81525">
        <ele>128.6</ele>
        <time>2020-11-15T09:24:46Z</time>
      </trkpt>
      <trkpt lat="46.73998" lon="-0.81516">
        <ele>128.7</ele>
        <time>2020-11-15T09:24:48Z</time>
      </trkpt>
      <trkpt lat="46.73999" lon="-0.81508">
        <ele>128.4</ele>
        <time>2020-11-15T09:24:50Z</time>
      </trkpt>
      <trkpt lat="46.74001" lon="-0.81499">
        <ele>128.1</ele>
        <time>2020-11-15T09:24:52Z</time>
      </trkpt>
      <trkpt lat="46.74003" lon="-0.81489">
        <ele>128.2</ele>
        <time>2020-11-15T09:24:54Z</time>
      </trkpt>
      <trkpt lat="46.74005" lon="-0.8148">
        <ele>128.3</ele>
        <time>2020-11-15T09:24:56Z</time>
      </trkpt>
      <trkpt lat="46.74007" lon="-0.81471">
        <ele>128.4</ele>
        <time>2020-11-15T09:24:58Z</time>
      </trkpt>
      <trkpt lat="46.74009" lon="-0.81461">
        <ele>128.4</ele>
        <time>2020-11-15T09:25:00Z</time>
      </trkpt>
      <trkpt lat="46.74011" lon="-0.81453">
        <ele>128.6</ele>
        <time>2020-11-15T09:25:02Z</time>
      </trkpt>
      <trkpt lat="46.74012" lon="-0.81448">
        <ele>128.6</ele>
        <time>2020-11-15T09:25:03Z</time>
      </trkpt>
      <trkpt lat="46.74013" lon="-0.81443">
        <ele>128.8</ele>
        <time>2020-11-15T09:25:04Z</time>
      </trkpt>
      <trkpt lat="46.74015" lon="-0.81435">
        <ele>128.8</ele>
        <time>2020-11-15T09:25:06Z</time>
      </trkpt>
      <trkpt lat="46.74017" lon="-0.81426">
        <ele>129</ele>
        <time>2020-11-15T09:25:08Z</time>
      </trkpt>
      <trkpt lat="46.74018" lon="-0.81421">
        <ele>129</ele>
        <time>2020-11-15T09:25:09Z</time>
      </trkpt>
      <trkpt lat="46.74019" lon="-0.81416">
        <ele>129.2</ele>
        <time>2020-11-15T09:25:10Z</time>
      </trkpt>
      <trkpt lat="46.7402" lon="-0.81407">
        <ele>129.3</ele>
        <time>2020-11-15T09:25:12Z</time>
      </trkpt>
      <trkpt lat="46.74022" lon="-0.81397">
        <ele>129.6</ele>
        <time>2020-11-15T09:25:14Z</time>
      </trkpt>
      <trkpt lat="46.74022" lon="-0.81392">
        <ele>129.7</ele>
        <time>2020-11-15T09:25:15Z</time>
      </trkpt>
      <trkpt lat="46.74023" lon="-0.81387">
        <ele>129.8</ele>
        <time>2020-11-15T09:25:16Z</time>
      </trkpt>
      <trkpt lat="46.74026" lon="-0.81377">
        <ele>130.2</ele>
        <time>2020-11-15T09:25:18Z</time>
      </trkpt>
      <trkpt lat="46.74027" lon="-0.81369">
        <ele>130.6</ele>
        <time>2020-11-15T09:25:20Z</time>
      </trkpt>
      <trkpt lat="46.74029" lon="-0.81361">
        <ele>130.7</ele>
        <time>2020-11-15T09:25:22Z</time>
      </trkpt>
      <trkpt lat="46.74031" lon="-0.81353">
        <ele>131</ele>
        <time>2020-11-15T09:25:24Z</time>
      </trkpt>
      <trkpt lat="46.74032" lon="-0.81344">
        <ele>131</ele>
        <time>2020-11-15T09:25:26Z</time>
      </trkpt>
      <trkpt lat="46.74032" lon="-0.81339">
        <ele>131</ele>
        <time>2020-11-15T09:25:27Z</time>
      </trkpt>
      <trkpt lat="46.74032" lon="-0.81335">
        <ele>131</ele>
        <time>2020-11-15T09:25:28Z</time>
      </trkpt>
      <trkpt lat="46.74033" lon="-0.81325">
        <ele>131</ele>
        <time>2020-11-15T09:25:30Z</time>
      </trkpt>
      <trkpt lat="46.74033" lon="-0.81316">
        <ele>131</ele>
        <time>2020-11-15T09:25:32Z</time>
      </trkpt>
      <trkpt lat="46.74033" lon="-0.81311">
        <ele>131</ele>
        <time>2020-11-15T09:25:33Z</time>
      </trkpt>
      <trkpt lat="46.74034" lon="-0.81306">
        <ele>130.9</ele>
        <time>2020-11-15T09:25:34Z</time>
      </trkpt>
      <trkpt lat="46.74034" lon="-0.81297">
        <ele>130.8</ele>
        <time>2020-11-15T09:25:36Z</time>
      </trkpt>
      <trkpt lat="46.74035" lon="-0.81287">
        <ele>130.7</ele>
        <time>2020-11-15T09:25:38Z</time>
      </trkpt>
      <trkpt lat="46.74036" lon="-0.81282">
        <ele>130.6</ele>
        <time>2020-11-15T09:25:39Z</time>
      </trkpt>
      <trkpt lat="46.74036" lon="-0.81277">
        <ele>130.7</ele>
        <time>2020-11-15T09:25:40Z</time>
      </trkpt>
      <trkpt lat="46.74037" lon="-0.81268">
        <ele>130.5</ele>
        <time>2020-11-15T09:25:42Z</time>
      </trkpt>
      <trkpt lat="46.74039" lon="-0.81259">
        <ele>130.5</ele>
        <time>2020-11-15T09:25:44Z</time>
      </trkpt>
      <trkpt lat="46.74041" lon="-0.8125">
        <ele>130.3</ele>
        <time>2020-11-15T09:25:46Z</time>
      </trkpt>
      <trkpt lat="46.74044" lon="-0.81241">
        <ele>130.3</ele>
        <time>2020-11-15T09:25:48Z</time>
      </trkpt>
      <trkpt lat="46.74047" lon="-0.81232">
        <ele>130.2</ele>
        <time>2020-11-15T09:25:50Z</time>
      </trkpt>
      <trkpt lat="46.7405" lon="-0.81223">
        <ele>130.1</ele>
        <time>2020-11-15T09:25:52Z</time>
      </trkpt>
      <trkpt lat="46.74054" lon="-0.81214">
        <ele>130</ele>
        <time>2020-11-15T09:25:54Z</time>
      </trkpt>
      <trkpt lat="46.74058" lon="-0.81206">
        <ele>130</ele>
        <time>2020-11-15T09:25:56Z</time>
      </trkpt>
      <trkpt lat="46.74063" lon="-0.81198">
        <ele>129.9</ele>
        <time>2020-11-15T09:25:58Z</time>
      </trkpt>
      <trkpt lat="46.74068" lon="-0.81192">
        <ele>129.6</ele>
        <time>2020-11-15T09:26:00Z</time>
      </trkpt>
      <trkpt lat="46.7407" lon="-0.81189">
        <ele>129.7</ele>
        <time>2020-11-15T09:26:01Z</time>
      </trkpt>
      <trkpt lat="46.74072" lon="-0.81186">
        <ele>129.7</ele>
        <time>2020-11-15T09:26:02Z</time>
      </trkpt>
      <trkpt lat="46.74078" lon="-0.81179">
        <ele>129.8</ele>
        <time>2020-11-15T09:26:04Z</time>
      </trkpt>
      <trkpt lat="46.74083" lon="-0.81174">
        <ele>129.5</ele>
        <time>2020-11-15T09:26:06Z</time>
      </trkpt>
      <trkpt lat="46.74089" lon="-0.81168">
        <ele>129.7</ele>
        <time>2020-11-15T09:26:08Z</time>
      </trkpt>
      <trkpt lat="46.74096" lon="-0.81163">
        <ele>130.1</ele>
        <time>2020-11-15T09:26:10Z</time>
      </trkpt>
      <trkpt lat="46.74101" lon="-0.81157">
        <ele>130</ele>
        <time>2020-11-15T09:26:12Z</time>
      </trkpt>
      <trkpt lat="46.74107" lon="-0.81152">
        <ele>130.1</ele>
        <time>2020-11-15T09:26:14Z</time>
      </trkpt>
      <trkpt lat="46.74109" lon="-0.81149">
        <ele>130.1</ele>
        <time>2020-11-15T09:26:15Z</time>
      </trkpt>
      <trkpt lat="46.74113" lon="-0.81147">
        <ele>130</ele>
        <time>2020-11-15T09:26:16Z</time>
      </trkpt>
      <trkpt lat="46.74119" lon="-0.81141">
        <ele>130.1</ele>
        <time>2020-11-15T09:26:18Z</time>
      </trkpt>
      <trkpt lat="46.74124" lon="-0.81136">
        <ele>130</ele>
        <time>2020-11-15T09:26:20Z</time>
      </trkpt>
      <trkpt lat="46.74126" lon="-0.81133">
        <ele>130</ele>
        <time>2020-11-15T09:26:21Z</time>
      </trkpt>
      <trkpt lat="46.74128" lon="-0.8113">
        <ele>130</ele>
        <time>2020-11-15T09:26:22Z</time>
      </trkpt>
      <trkpt lat="46.74133" lon="-0.81124">
        <ele>130</ele>
        <time>2020-11-15T09:26:24Z</time>
      </trkpt>
      <trkpt lat="46.74137" lon="-0.81118">
        <ele>130</ele>
        <time>2020-11-15T09:26:26Z</time>
      </trkpt>
      <trkpt lat="46.7414" lon="-0.81113">
        <ele>130.1</ele>
        <time>2020-11-15T09:26:28Z</time>
      </trkpt>
      <trkpt lat="46.7414" lon="-0.81106">
        <ele>129.9</ele>
        <time>2020-11-15T09:26:30Z</time>
      </trkpt>
      <trkpt lat="46.7414" lon="-0.81098">
        <ele>129.9</ele>
        <time>2020-11-15T09:26:32Z</time>
      </trkpt>
      <trkpt lat="46.74139" lon="-0.81089">
        <ele>129.8</ele>
        <time>2020-11-15T09:26:34Z</time>
      </trkpt>
      <trkpt lat="46.74139" lon="-0.8108">
        <ele>129.7</ele>
        <time>2020-11-15T09:26:36Z</time>
      </trkpt>
      <trkpt lat="46.74139" lon="-0.81072">
        <ele>129.7</ele>
        <time>2020-11-15T09:26:38Z</time>
      </trkpt>
      <trkpt lat="46.7414" lon="-0.81064">
        <ele>129.7</ele>
        <time>2020-11-15T09:26:40Z</time>
      </trkpt>
      <trkpt lat="46.7414" lon="-0.81057">
        <ele>129.7</ele>
        <time>2020-11-15T09:26:42Z</time>
      </trkpt>
      <trkpt lat="46.74141" lon="-0.81048">
        <ele>129.8</ele>
        <time>2020-11-15T09:26:44Z</time>
      </trkpt>
      <trkpt lat="46.74144" lon="-0.81039">
        <ele>129.9</ele>
        <time>2020-11-15T09:26:46Z</time>
      </trkpt>
      <trkpt lat="46.74146" lon="-0.81035">
        <ele>130.1</ele>
        <time>2020-11-15T09:26:47Z</time>
      </trkpt>
      <trkpt lat="46.74148" lon="-0.81032">
        <ele>130.2</ele>
        <time>2020-11-15T09:26:48Z</time>
      </trkpt>
      <trkpt lat="46.74152" lon="-0.81023">
        <ele>130.4</ele>
        <time>2020-11-15T09:26:50Z</time>
      </trkpt>
      <trkpt lat="46.74156" lon="-0.81016">
        <ele>130.5</ele>
        <time>2020-11-15T09:26:52Z</time>
      </trkpt>
      <trkpt lat="46.74158" lon="-0.81014">
        <ele>130.6</ele>
        <time>2020-11-15T09:26:53Z</time>
      </trkpt>
      <trkpt lat="46.74161" lon="-0.81013">
        <ele>130.7</ele>
        <time>2020-11-15T09:26:54Z</time>
      </trkpt>
      <trkpt lat="46.74167" lon="-0.81013">
        <ele>131.1</ele>
        <time>2020-11-15T09:26:56Z</time>
      </trkpt>
      <trkpt lat="46.7417" lon="-0.81012">
        <ele>131.3</ele>
        <time>2020-11-15T09:26:57Z</time>
      </trkpt>
      <trkpt lat="46.74174" lon="-0.81012">
        <ele>131.6</ele>
        <time>2020-11-15T09:26:58Z</time>
      </trkpt>
      <trkpt lat="46.7418" lon="-0.8101">
        <ele>132</ele>
        <time>2020-11-15T09:27:00Z</time>
      </trkpt>
      <trkpt lat="46.74185" lon="-0.81009">
        <ele>132.4</ele>
        <time>2020-11-15T09:27:02Z</time>
      </trkpt>
      <trkpt lat="46.7419" lon="-0.81009">
        <ele>132.8</ele>
        <time>2020-11-15T09:27:04Z</time>
      </trkpt>
      <trkpt lat="46.74195" lon="-0.81009">
        <ele>133.2</ele>
        <time>2020-11-15T09:27:06Z</time>
      </trkpt>
      <trkpt lat="46.74198" lon="-0.8101">
        <ele>133.4</ele>
        <time>2020-11-15T09:27:07Z</time>
      </trkpt>
      <trkpt lat="46.74201" lon="-0.8101">
        <ele>133.6</ele>
        <time>2020-11-15T09:27:08Z</time>
      </trkpt>
      <trkpt lat="46.74207" lon="-0.81011">
        <ele>134</ele>
        <time>2020-11-15T09:27:10Z</time>
      </trkpt>
      <trkpt lat="46.74212" lon="-0.81011">
        <ele>134.4</ele>
        <time>2020-11-15T09:27:12Z</time>
      </trkpt>
      <trkpt lat="46.74214" lon="-0.81012">
        <ele>134.5</ele>
        <time>2020-11-15T09:27:13Z</time>
      </trkpt>
      <trkpt lat="46.74216" lon="-0.81012">
        <ele>134.7</ele>
        <time>2020-11-15T09:27:14Z</time>
      </trkpt>
      <trkpt lat="46.74222" lon="-0.81013">
        <ele>135</ele>
        <time>2020-11-15T09:27:16Z</time>
      </trkpt>
      <trkpt lat="46.74228" lon="-0.81015">
        <ele>135.4</ele>
        <time>2020-11-15T09:27:18Z</time>
      </trkpt>
      <trkpt lat="46.74233" lon="-0.81016">
        <ele>135.7</ele>
        <time>2020-11-15T09:27:20Z</time>
      </trkpt>
      <trkpt lat="46.74238" lon="-0.81017">
        <ele>136</ele>
        <time>2020-11-15T09:27:22Z</time>
      </trkpt>
      <trkpt lat="46.74243" lon="-0.81019">
        <ele>136.3</ele>
        <time>2020-11-15T09:27:24Z</time>
      </trkpt>
      <trkpt lat="46.74249" lon="-0.81021">
        <ele>136.7</ele>
        <time>2020-11-15T09:27:26Z</time>
      </trkpt>
      <trkpt lat="46.74255" lon="-0.81023">
        <ele>137.1</ele>
        <time>2020-11-15T09:27:28Z</time>
      </trkpt>
      <trkpt lat="46.74257" lon="-0.81024">
        <ele>137.2</ele>
        <time>2020-11-15T09:27:29Z</time>
      </trkpt>
      <trkpt lat="46.7426" lon="-0.81025">
        <ele>137.4</ele>
        <time>2020-11-15T09:27:30Z</time>
      </trkpt>
      <trkpt lat="46.74266" lon="-0.81027">
        <ele>137.8</ele>
        <time>2020-11-15T09:27:32Z</time>
      </trkpt>
      <trkpt lat="46.74272" lon="-0.81029">
        <ele>138.1</ele>
        <time>2020-11-15T09:27:34Z</time>
      </trkpt>
      <trkpt lat="46.74274" lon="-0.8103">
        <ele>138.3</ele>
        <time>2020-11-15T09:27:35Z</time>
      </trkpt>
      <trkpt lat="46.74277" lon="-0.81031">
        <ele>138.4</ele>
        <time>2020-11-15T09:27:36Z</time>
      </trkpt>
      <trkpt lat="46.74282" lon="-0.81034">
        <ele>138.7</ele>
        <time>2020-11-15T09:27:38Z</time>
      </trkpt>
      <trkpt lat="46.74287" lon="-0.81037">
        <ele>138.9</ele>
        <time>2020-11-15T09:27:40Z</time>
      </trkpt>
      <trkpt lat="46.74289" lon="-0.81039">
        <ele>139</ele>
        <time>2020-11-15T09:27:41Z</time>
      </trkpt>
      <trkpt lat="46.74292" lon="-0.81041">
        <ele>139.1</ele>
        <time>2020-11-15T09:27:42Z</time>
      </trkpt>
      <trkpt lat="46.74296" lon="-0.81043">
        <ele>139.3</ele>
        <time>2020-11-15T09:27:44Z</time>
      </trkpt>
      <trkpt lat="46.743" lon="-0.81046">
        <ele>139.5</ele>
        <time>2020-11-15T09:27:46Z</time>
      </trkpt>
      <trkpt lat="46.74306" lon="-0.81049">
        <ele>139.8</ele>
        <time>2020-11-15T09:27:48Z</time>
      </trkpt>
      <trkpt lat="46.74313" lon="-0.81051">
        <ele>140</ele>
        <time>2020-11-15T09:27:50Z</time>
      </trkpt>
      <trkpt lat="46.74319" lon="-0.81054">
        <ele>140.2</ele>
        <time>2020-11-15T09:27:52Z</time>
      </trkpt>
      <trkpt lat="46.74324" lon="-0.81056">
        <ele>140.3</ele>
        <time>2020-11-15T09:27:54Z</time>
      </trkpt>
      <trkpt lat="46.74326" lon="-0.81056">
        <ele>140.3</ele>
        <time>2020-11-15T09:27:55Z</time>
      </trkpt>
      <trkpt lat="46.74329" lon="-0.81057">
        <ele>140.4</ele>
        <time>2020-11-15T09:27:56Z</time>
      </trkpt>
      <trkpt lat="46.74336" lon="-0.81058">
        <ele>140.5</ele>
        <time>2020-11-15T09:27:58Z</time>
      </trkpt>
      <trkpt lat="46.74343" lon="-0.81058">
        <ele>140.5</ele>
        <time>2020-11-15T09:28:00Z</time>
      </trkpt>
      <trkpt lat="46.74351" lon="-0.81057">
        <ele>140.5</ele>
        <time>2020-11-15T09:28:02Z</time>
      </trkpt>
      <trkpt lat="46.74358" lon="-0.81057">
        <ele>140.5</ele>
        <time>2020-11-15T09:28:04Z</time>
      </trkpt>
      <trkpt lat="46.74361" lon="-0.81056">
        <ele>140.4</ele>
        <time>2020-11-15T09:28:05Z</time>
      </trkpt>
      <trkpt lat="46.74364" lon="-0.81055">
        <ele>140.4</ele>
        <time>2020-11-15T09:28:06Z</time>
      </trkpt>
      <trkpt lat="46.7437" lon="-0.81052">
        <ele>140.2</ele>
        <time>2020-11-15T09:28:08Z</time>
      </trkpt>
      <trkpt lat="46.74376" lon="-0.81051">
        <ele>140</ele>
        <time>2020-11-15T09:28:10Z</time>
      </trkpt>
      <trkpt lat="46.74379" lon="-0.8105">
        <ele>139.9</ele>
        <time>2020-11-15T09:28:11Z</time>
      </trkpt>
      <trkpt lat="46.74382" lon="-0.81048">
        <ele>139.8</ele>
        <time>2020-11-15T09:28:12Z</time>
      </trkpt>
      <trkpt lat="46.74389" lon="-0.81046">
        <ele>139.6</ele>
        <time>2020-11-15T09:28:14Z</time>
      </trkpt>
      <trkpt lat="46.74397" lon="-0.81044">
        <ele>139.4</ele>
        <time>2020-11-15T09:28:16Z</time>
      </trkpt>
      <trkpt lat="46.74405" lon="-0.81041">
        <ele>139.2</ele>
        <time>2020-11-15T09:28:18Z</time>
      </trkpt>
      <trkpt lat="46.74413" lon="-0.81039">
        <ele>138.9</ele>
        <time>2020-11-15T09:28:20Z</time>
      </trkpt>
      <trkpt lat="46.74417" lon="-0.81037">
        <ele>138.8</ele>
        <time>2020-11-15T09:28:21Z</time>
      </trkpt>
      <trkpt lat="46.7442" lon="-0.81035">
        <ele>138.7</ele>
        <time>2020-11-15T09:28:22Z</time>
      </trkpt>
      <trkpt lat="46.74427" lon="-0.8103">
        <ele>138.4</ele>
        <time>2020-11-15T09:28:24Z</time>
      </trkpt>
      <trkpt lat="46.74431" lon="-0.81027">
        <ele>138.3</ele>
        <time>2020-11-15T09:28:25Z</time>
      </trkpt>
      <trkpt lat="46.74435" lon="-0.81024">
        <ele>138.2</ele>
        <time>2020-11-15T09:28:26Z</time>
      </trkpt>
      <trkpt lat="46.74444" lon="-0.81017">
        <ele>138</ele>
        <time>2020-11-15T09:28:28Z</time>
      </trkpt>
      <trkpt lat="46.74452" lon="-0.81011">
        <ele>137.9</ele>
        <time>2020-11-15T09:28:30Z</time>
      </trkpt>
      <trkpt lat="46.74456" lon="-0.81008">
        <ele>137.9</ele>
        <time>2020-11-15T09:28:31Z</time>
      </trkpt>
      <trkpt lat="46.74459" lon="-0.81005">
        <ele>137.8</ele>
        <time>2020-11-15T09:28:32Z</time>
      </trkpt>
      <trkpt lat="46.74463" lon="-0.81002">
        <ele>137.8</ele>
        <time>2020-11-15T09:28:33Z</time>
      </trkpt>
      <trkpt lat="46.74467" lon="-0.81">
        <ele>137.8</ele>
        <time>2020-11-15T09:28:34Z</time>
      </trkpt>
      <trkpt lat="46.74475" lon="-0.80995">
        <ele>137.8</ele>
        <time>2020-11-15T09:28:36Z</time>
      </trkpt>
      <trkpt lat="46.74481" lon="-0.80989">
        <ele>137.7</ele>
        <time>2020-11-15T09:28:38Z</time>
      </trkpt>
      <trkpt lat="46.74484" lon="-0.80987">
        <ele>137.7</ele>
        <time>2020-11-15T09:28:39Z</time>
      </trkpt>
      <trkpt lat="46.74487" lon="-0.80984">
        <ele>137.6</ele>
        <time>2020-11-15T09:28:40Z</time>
      </trkpt>
      <trkpt lat="46.74493" lon="-0.80979">
        <ele>137.6</ele>
        <time>2020-11-15T09:28:42Z</time>
      </trkpt>
      <trkpt lat="46.74499" lon="-0.80976">
        <ele>137.6</ele>
        <time>2020-11-15T09:28:44Z</time>
      </trkpt>
      <trkpt lat="46.74505" lon="-0.80973">
        <ele>137.6</ele>
        <time>2020-11-15T09:28:46Z</time>
      </trkpt>
      <trkpt lat="46.74509" lon="-0.80971">
        <ele>137.5</ele>
        <time>2020-11-15T09:28:47Z</time>
      </trkpt>
      <trkpt lat="46.74512" lon="-0.80969">
        <ele>137.5</ele>
        <time>2020-11-15T09:28:48Z</time>
      </trkpt>
      <trkpt lat="46.7452" lon="-0.80965">
        <ele>137.6</ele>
        <time>2020-11-15T09:28:50Z</time>
      </trkpt>
      <trkpt lat="46.74527" lon="-0.80963">
        <ele>137.6</ele>
        <time>2020-11-15T09:28:52Z</time>
      </trkpt>
      <trkpt lat="46.74531" lon="-0.80962">
        <ele>137.7</ele>
        <time>2020-11-15T09:28:53Z</time>
      </trkpt>
      <trkpt lat="46.74534" lon="-0.80961">
        <ele>137.8</ele>
        <time>2020-11-15T09:28:54Z</time>
      </trkpt>
      <trkpt lat="46.74542" lon="-0.80958">
        <ele>137.9</ele>
        <time>2020-11-15T09:28:56Z</time>
      </trkpt>
      <trkpt lat="46.74549" lon="-0.80957">
        <ele>138.2</ele>
        <time>2020-11-15T09:28:58Z</time>
      </trkpt>
      <trkpt lat="46.74554" lon="-0.80957">
        <ele>138.3</ele>
        <time>2020-11-15T09:29:00Z</time>
      </trkpt>
      <trkpt lat="46.74559" lon="-0.80957">
        <ele>138.6</ele>
        <time>2020-11-15T09:29:02Z</time>
      </trkpt>
      <trkpt lat="46.74564" lon="-0.80957">
        <ele>139</ele>
        <time>2020-11-15T09:29:04Z</time>
      </trkpt>
      <trkpt lat="46.74571" lon="-0.80957">
        <ele>139.3</ele>
        <time>2020-11-15T09:29:06Z</time>
      </trkpt>
      <trkpt lat="46.74573" lon="-0.80957">
        <ele>139.4</ele>
        <time>2020-11-15T09:29:07Z</time>
      </trkpt>
      <trkpt lat="46.74575" lon="-0.80957">
        <ele>139.5</ele>
        <time>2020-11-15T09:29:08Z</time>
      </trkpt>
      <trkpt lat="46.74577" lon="-0.80957">
        <ele>139.6</ele>
        <time>2020-11-15T09:29:09Z</time>
      </trkpt>
      <trkpt lat="46.7458" lon="-0.80957">
        <ele>139.6</ele>
        <time>2020-11-15T09:29:10Z</time>
      </trkpt>
      <trkpt lat="46.74585" lon="-0.80958">
        <ele>139.9</ele>
        <time>2020-11-15T09:29:12Z</time>
      </trkpt>
      <trkpt lat="46.74591" lon="-0.8096">
        <ele>140.4</ele>
        <time>2020-11-15T09:29:14Z</time>
      </trkpt>
      <trkpt lat="46.74598" lon="-0.80963">
        <ele>140.8</ele>
        <time>2020-11-15T09:29:16Z</time>
      </trkpt>
      <trkpt lat="46.74604" lon="-0.80964">
        <ele>141.7</ele>
        <time>2020-11-15T09:29:18Z</time>
      </trkpt>
      <trkpt lat="46.74613" lon="-0.80967">
        <ele>142.7</ele>
        <time>2020-11-15T09:29:20Z</time>
      </trkpt>
      <trkpt lat="46.74623" lon="-0.8097">
        <ele>143.7</ele>
        <time>2020-11-15T09:29:22Z</time>
      </trkpt>
      <trkpt lat="46.74629" lon="-0.80972">
        <ele>144.2</ele>
        <time>2020-11-15T09:29:23Z</time>
      </trkpt>
      <trkpt lat="46.74634" lon="-0.80973">
        <ele>144.7</ele>
        <time>2020-11-15T09:29:24Z</time>
      </trkpt>
      <trkpt lat="46.74643" lon="-0.80977">
        <ele>145.5</ele>
        <time>2020-11-15T09:29:26Z</time>
      </trkpt>
      <trkpt lat="46.74652" lon="-0.80982">
        <ele>146.2</ele>
        <time>2020-11-15T09:29:28Z</time>
      </trkpt>
      <trkpt lat="46.74659" lon="-0.80987">
        <ele>146.7</ele>
        <time>2020-11-15T09:29:30Z</time>
      </trkpt>
      <trkpt lat="46.74664" lon="-0.80989">
        <ele>147.1</ele>
        <time>2020-11-15T09:29:32Z</time>
      </trkpt>
      <trkpt lat="46.74668" lon="-0.80993">
        <ele>147.4</ele>
        <time>2020-11-15T09:29:34Z</time>
      </trkpt>
      <trkpt lat="46.7467" lon="-0.80995">
        <ele>147.6</ele>
        <time>2020-11-15T09:29:35Z</time>
      </trkpt>
      <trkpt lat="46.74673" lon="-0.80997">
        <ele>147.8</ele>
        <time>2020-11-15T09:29:36Z</time>
      </trkpt>
      <trkpt lat="46.74678" lon="-0.81001">
        <ele>148.2</ele>
        <time>2020-11-15T09:29:38Z</time>
      </trkpt>
      <trkpt lat="46.74683" lon="-0.81003">
        <ele>148.5</ele>
        <time>2020-11-15T09:29:40Z</time>
      </trkpt>
      <trkpt lat="46.74688" lon="-0.81006">
        <ele>148.7</ele>
        <time>2020-11-15T09:29:42Z</time>
      </trkpt>
      <trkpt lat="46.74693" lon="-0.81008">
        <ele>149</ele>
        <time>2020-11-15T09:29:44Z</time>
      </trkpt>
      <trkpt lat="46.74698" lon="-0.8101">
        <ele>149.1</ele>
        <time>2020-11-15T09:29:46Z</time>
      </trkpt>
      <trkpt lat="46.74702" lon="-0.81011">
        <ele>149.4</ele>
        <time>2020-11-15T09:29:48Z</time>
      </trkpt>
      <trkpt lat="46.74706" lon="-0.81013">
        <ele>149.5</ele>
        <time>2020-11-15T09:29:50Z</time>
      </trkpt>
      <trkpt lat="46.74711" lon="-0.81014">
        <ele>149.7</ele>
        <time>2020-11-15T09:29:52Z</time>
      </trkpt>
      <trkpt lat="46.74716" lon="-0.81016">
        <ele>149.9</ele>
        <time>2020-11-15T09:29:54Z</time>
      </trkpt>
      <trkpt lat="46.7472" lon="-0.81018">
        <ele>150</ele>
        <time>2020-11-15T09:29:56Z</time>
      </trkpt>
      <trkpt lat="46.74722" lon="-0.81018">
        <ele>150.1</ele>
        <time>2020-11-15T09:29:57Z</time>
      </trkpt>
      <trkpt lat="46.74724" lon="-0.81019">
        <ele>150.1</ele>
        <time>2020-11-15T09:29:58Z</time>
      </trkpt>
      <trkpt lat="46.74729" lon="-0.81021">
        <ele>150.3</ele>
        <time>2020-11-15T09:30:00Z</time>
      </trkpt>
      <trkpt lat="46.74733" lon="-0.81024">
        <ele>150.3</ele>
        <time>2020-11-15T09:30:02Z</time>
      </trkpt>
      <trkpt lat="46.74736" lon="-0.81027">
        <ele>150.5</ele>
        <time>2020-11-15T09:30:04Z</time>
      </trkpt>
      <trkpt lat="46.7474" lon="-0.81028">
        <ele>150.6</ele>
        <time>2020-11-15T09:30:06Z</time>
      </trkpt>
      <trkpt lat="46.74743" lon="-0.81027">
        <ele>150.6</ele>
        <time>2020-11-15T09:30:07Z</time>
      </trkpt>
      <trkpt lat="46.74746" lon="-0.81025">
        <ele>150.6</ele>
        <time>2020-11-15T09:30:08Z</time>
      </trkpt>
      <trkpt lat="46.74752" lon="-0.81022">
        <ele>150.7</ele>
        <time>2020-11-15T09:30:10Z</time>
      </trkpt>
      <trkpt lat="46.74759" lon="-0.81019">
        <ele>150.8</ele>
        <time>2020-11-15T09:30:12Z</time>
      </trkpt>
      <trkpt lat="46.74762" lon="-0.81017">
        <ele>150.9</ele>
        <time>2020-11-15T09:30:13Z</time>
      </trkpt>
      <trkpt lat="46.74766" lon="-0.81016">
        <ele>150.9</ele>
        <time>2020-11-15T09:30:14Z</time>
      </trkpt>
      <trkpt lat="46.74773" lon="-0.81013">
        <ele>151</ele>
        <time>2020-11-15T09:30:16Z</time>
      </trkpt>
      <trkpt lat="46.7478" lon="-0.81011">
        <ele>151.1</ele>
        <time>2020-11-15T09:30:18Z</time>
      </trkpt>
      <trkpt lat="46.74788" lon="-0.81009">
        <ele>151.3</ele>
        <time>2020-11-15T09:30:20Z</time>
      </trkpt>
      <trkpt lat="46.74795" lon="-0.81007">
        <ele>151.4</ele>
        <time>2020-11-15T09:30:22Z</time>
      </trkpt>
      <trkpt lat="46.74803" lon="-0.81004">
        <ele>151.6</ele>
        <time>2020-11-15T09:30:24Z</time>
      </trkpt>
      <trkpt lat="46.74811" lon="-0.81002">
        <ele>151.8</ele>
        <time>2020-11-15T09:30:26Z</time>
      </trkpt>
      <trkpt lat="46.7482" lon="-0.81">
        <ele>152</ele>
        <time>2020-11-15T09:30:28Z</time>
      </trkpt>
      <trkpt lat="46.74827" lon="-0.80997">
        <ele>152.2</ele>
        <time>2020-11-15T09:30:30Z</time>
      </trkpt>
      <trkpt lat="46.74835" lon="-0.80995">
        <ele>152.4</ele>
        <time>2020-11-15T09:30:32Z</time>
      </trkpt>
      <trkpt lat="46.74843" lon="-0.80994">
        <ele>152.6</ele>
        <time>2020-11-15T09:30:34Z</time>
      </trkpt>
      <trkpt lat="46.74851" lon="-0.80993">
        <ele>152.9</ele>
        <time>2020-11-15T09:30:36Z</time>
      </trkpt>
      <trkpt lat="46.74859" lon="-0.80992">
        <ele>153.2</ele>
        <time>2020-11-15T09:30:38Z</time>
      </trkpt>
      <trkpt lat="46.74863" lon="-0.80992">
        <ele>153.3</ele>
        <time>2020-11-15T09:30:39Z</time>
      </trkpt>
      <trkpt lat="46.74867" lon="-0.80993">
        <ele>153.5</ele>
        <time>2020-11-15T09:30:40Z</time>
      </trkpt>
      <trkpt lat="46.74875" lon="-0.80994">
        <ele>153.8</ele>
        <time>2020-11-15T09:30:42Z</time>
      </trkpt>
      <trkpt lat="46.7488" lon="-0.80995">
        <ele>154</ele>
        <time>2020-11-15T09:30:43Z</time>
      </trkpt>
      <trkpt lat="46.74884" lon="-0.80996">
        <ele>154.1</ele>
        <time>2020-11-15T09:30:44Z</time>
      </trkpt>
      <trkpt lat="46.74892" lon="-0.80998">
        <ele>154.4</ele>
        <time>2020-11-15T09:30:46Z</time>
      </trkpt>
      <trkpt lat="46.749" lon="-0.81">
        <ele>154.7</ele>
        <time>2020-11-15T09:30:48Z</time>
      </trkpt>
      <trkpt lat="46.74904" lon="-0.81001">
        <ele>154.8</ele>
        <time>2020-11-15T09:30:49Z</time>
      </trkpt>
      <trkpt lat="46.74909" lon="-0.81003">
        <ele>154.9</ele>
        <time>2020-11-15T09:30:50Z</time>
      </trkpt>
      <trkpt lat="46.74917" lon="-0.81005">
        <ele>155.1</ele>
        <time>2020-11-15T09:30:52Z</time>
      </trkpt>
      <trkpt lat="46.74926" lon="-0.81007">
        <ele>155.4</ele>
        <time>2020-11-15T09:30:54Z</time>
      </trkpt>
      <trkpt lat="46.74934" lon="-0.81009">
        <ele>155.6</ele>
        <time>2020-11-15T09:30:56Z</time>
      </trkpt>
      <trkpt lat="46.74939" lon="-0.81007">
        <ele>155.7</ele>
        <time>2020-11-15T09:30:57Z</time>
      </trkpt>
      <trkpt lat="46.74943" lon="-0.81006">
        <ele>155.7</ele>
        <time>2020-11-15T09:30:58Z</time>
      </trkpt>
      <trkpt lat="46.7495" lon="-0.81">
        <ele>155.9</ele>
        <time>2020-11-15T09:31:00Z</time>
      </trkpt>
      <trkpt lat="46.74952" lon="-0.80997">
        <ele>155.9</ele>
        <time>2020-11-15T09:31:01Z</time>
      </trkpt>
      <trkpt lat="46.74955" lon="-0.80993">
        <ele>156</ele>
        <time>2020-11-15T09:31:02Z</time>
      </trkpt>
      <trkpt lat="46.74957" lon="-0.80982">
        <ele>156</ele>
        <time>2020-11-15T09:31:04Z</time>
      </trkpt>
      <trkpt lat="46.74957" lon="-0.8097">
        <ele>156</ele>
        <time>2020-11-15T09:31:06Z</time>
      </trkpt>
      <trkpt lat="46.74954" lon="-0.80958">
        <ele>156</ele>
        <time>2020-11-15T09:31:08Z</time>
      </trkpt>
      <trkpt lat="46.74952" lon="-0.80951">
        <ele>156</ele>
        <time>2020-11-15T09:31:09Z</time>
      </trkpt>
      <trkpt lat="46.74951" lon="-0.80945">
        <ele>155.9</ele>
        <time>2020-11-15T09:31:10Z</time>
      </trkpt>
      <trkpt lat="46.74951" lon="-0.80938">
        <ele>155.9</ele>
        <time>2020-11-15T09:31:11Z</time>
      </trkpt>
      <trkpt lat="46.74952" lon="-0.80931">
        <ele>155.9</ele>
        <time>2020-11-15T09:31:12Z</time>
      </trkpt>
      <trkpt lat="46.74953" lon="-0.80925">
        <ele>155.8</ele>
        <time>2020-11-15T09:31:13Z</time>
      </trkpt>
      <trkpt lat="46.74955" lon="-0.80919">
        <ele>155.8</ele>
        <time>2020-11-15T09:31:14Z</time>
      </trkpt>
      <trkpt lat="46.74957" lon="-0.80913">
        <ele>155.8</ele>
        <time>2020-11-15T09:31:15Z</time>
      </trkpt>
      <trkpt lat="46.74958" lon="-0.80906">
        <ele>155.7</ele>
        <time>2020-11-15T09:31:16Z</time>
      </trkpt>
      <trkpt lat="46.74958" lon="-0.809">
        <ele>155.6</ele>
        <time>2020-11-15T09:31:17Z</time>
      </trkpt>
      <trkpt lat="46.74957" lon="-0.80893">
        <ele>155.5</ele>
        <time>2020-11-15T09:31:18Z</time>
      </trkpt>
      <trkpt lat="46.74953" lon="-0.8088">
        <ele>155.4</ele>
        <time>2020-11-15T09:31:20Z</time>
      </trkpt>
      <trkpt lat="46.74951" lon="-0.80874">
        <ele>155.3</ele>
        <time>2020-11-15T09:31:21Z</time>
      </trkpt>
      <trkpt lat="46.74947" lon="-0.8087">
        <ele>155.2</ele>
        <time>2020-11-15T09:31:22Z</time>
      </trkpt>
      <trkpt lat="46.74938" lon="-0.80865">
        <ele>154.9</ele>
        <time>2020-11-15T09:31:24Z</time>
      </trkpt>
      <trkpt lat="46.74928" lon="-0.80868">
        <ele>154.7</ele>
        <time>2020-11-15T09:31:26Z</time>
      </trkpt>
      <trkpt lat="46.74919" lon="-0.80874">
        <ele>154.5</ele>
        <time>2020-11-15T09:31:28Z</time>
      </trkpt>
      <trkpt lat="46.74909" lon="-0.80879">
        <ele>154.2</ele>
        <time>2020-11-15T09:31:30Z</time>
      </trkpt>
      <trkpt lat="46.74899" lon="-0.80884">
        <ele>153.8</ele>
        <time>2020-11-15T09:31:32Z</time>
      </trkpt>
      <trkpt lat="46.74889" lon="-0.80889">
        <ele>153.4</ele>
        <time>2020-11-15T09:31:34Z</time>
      </trkpt>
      <trkpt lat="46.74878" lon="-0.80894">
        <ele>153</ele>
        <time>2020-11-15T09:31:36Z</time>
      </trkpt>
      <trkpt lat="46.74873" lon="-0.80896">
        <ele>152.8</ele>
        <time>2020-11-15T09:31:37Z</time>
      </trkpt>
      <trkpt lat="46.74867" lon="-0.80897">
        <ele>152.5</ele>
        <time>2020-11-15T09:31:38Z</time>
      </trkpt>
      <trkpt lat="46.74861" lon="-0.80898">
        <ele>152.2</ele>
        <time>2020-11-15T09:31:39Z</time>
      </trkpt>
      <trkpt lat="46.74854" lon="-0.80898">
        <ele>151.9</ele>
        <time>2020-11-15T09:31:40Z</time>
      </trkpt>
      <trkpt lat="46.74848" lon="-0.80897">
        <ele>151.6</ele>
        <time>2020-11-15T09:31:41Z</time>
      </trkpt>
      <trkpt lat="46.74841" lon="-0.80896">
        <ele>151.3</ele>
        <time>2020-11-15T09:31:42Z</time>
      </trkpt>
      <trkpt lat="46.74828" lon="-0.8089">
        <ele>150.6</ele>
        <time>2020-11-15T09:31:44Z</time>
      </trkpt>
      <trkpt lat="46.74815" lon="-0.80879">
        <ele>149.9</ele>
        <time>2020-11-15T09:31:46Z</time>
      </trkpt>
      <trkpt lat="46.74809" lon="-0.80872">
        <ele>149.6</ele>
        <time>2020-11-15T09:31:47Z</time>
      </trkpt>
      <trkpt lat="46.74803" lon="-0.80864">
        <ele>149.3</ele>
        <time>2020-11-15T09:31:48Z</time>
      </trkpt>
      <trkpt lat="46.74798" lon="-0.80855">
        <ele>149.1</ele>
        <time>2020-11-15T09:31:49Z</time>
      </trkpt>
      <trkpt lat="46.74794" lon="-0.80845">
        <ele>148.8</ele>
        <time>2020-11-15T09:31:50Z</time>
      </trkpt>
      <trkpt lat="46.7479" lon="-0.80834">
        <ele>148.6</ele>
        <time>2020-11-15T09:31:51Z</time>
      </trkpt>
      <trkpt lat="46.74787" lon="-0.80823">
        <ele>148.4</ele>
        <time>2020-11-15T09:31:52Z</time>
      </trkpt>
      <trkpt lat="46.74785" lon="-0.80812">
        <ele>148.2</ele>
        <time>2020-11-15T09:31:53Z</time>
      </trkpt>
      <trkpt lat="46.74784" lon="-0.80801">
        <ele>148.1</ele>
        <time>2020-11-15T09:31:54Z</time>
      </trkpt>
      <trkpt lat="46.74784" lon="-0.80778">
        <ele>147.9</ele>
        <time>2020-11-15T09:31:56Z</time>
      </trkpt>
      <trkpt lat="46.74785" lon="-0.80756">
        <ele>147.6</ele>
        <time>2020-11-15T09:31:58Z</time>
      </trkpt>
      <trkpt lat="46.74784" lon="-0.80735">
        <ele>147.3</ele>
        <time>2020-11-15T09:32:00Z</time>
      </trkpt>
      <trkpt lat="46.74782" lon="-0.80724">
        <ele>147.1</ele>
        <time>2020-11-15T09:32:01Z</time>
      </trkpt>
      <trkpt lat="46.74781" lon="-0.80714">
        <ele>146.8</ele>
        <time>2020-11-15T09:32:02Z</time>
      </trkpt>
      <trkpt lat="46.74778" lon="-0.80692">
        <ele>146.5</ele>
        <time>2020-11-15T09:32:04Z</time>
      </trkpt>
      <trkpt lat="46.74776" lon="-0.80681">
        <ele>146.3</ele>
        <time>2020-11-15T09:32:05Z</time>
      </trkpt>
      <trkpt lat="46.74773" lon="-0.80671">
        <ele>146.1</ele>
        <time>2020-11-15T09:32:06Z</time>
      </trkpt>
      <trkpt lat="46.74771" lon="-0.8066">
        <ele>145.9</ele>
        <time>2020-11-15T09:32:07Z</time>
      </trkpt>
      <trkpt lat="46.74769" lon="-0.80648">
        <ele>145.6</ele>
        <time>2020-11-15T09:32:08Z</time>
      </trkpt>
      <trkpt lat="46.74764" lon="-0.80625">
        <ele>145.2</ele>
        <time>2020-11-15T09:32:10Z</time>
      </trkpt>
      <trkpt lat="46.7476" lon="-0.80602">
        <ele>144.8</ele>
        <time>2020-11-15T09:32:12Z</time>
      </trkpt>
      <trkpt lat="46.74758" lon="-0.80578">
        <ele>144.3</ele>
        <time>2020-11-15T09:32:14Z</time>
      </trkpt>
      <trkpt lat="46.74758" lon="-0.80553">
        <ele>143.6</ele>
        <time>2020-11-15T09:32:16Z</time>
      </trkpt>
      <trkpt lat="46.7476" lon="-0.80529">
        <ele>142.8</ele>
        <time>2020-11-15T09:32:18Z</time>
      </trkpt>
      <trkpt lat="46.74762" lon="-0.80517">
        <ele>142.5</ele>
        <time>2020-11-15T09:32:19Z</time>
      </trkpt>
      <trkpt lat="46.74764" lon="-0.80505">
        <ele>142.2</ele>
        <time>2020-11-15T09:32:20Z</time>
      </trkpt>
      <trkpt lat="46.74769" lon="-0.80481">
        <ele>141.3</ele>
        <time>2020-11-15T09:32:22Z</time>
      </trkpt>
      <trkpt lat="46.74774" lon="-0.80458">
        <ele>140.3</ele>
        <time>2020-11-15T09:32:24Z</time>
      </trkpt>
      <trkpt lat="46.74777" lon="-0.80445">
        <ele>139.7</ele>
        <time>2020-11-15T09:32:25Z</time>
      </trkpt>
      <trkpt lat="46.7478" lon="-0.80432">
        <ele>139.1</ele>
        <time>2020-11-15T09:32:26Z</time>
      </trkpt>
      <trkpt lat="46.74786" lon="-0.80406">
        <ele>138.1</ele>
        <time>2020-11-15T09:32:28Z</time>
      </trkpt>
      <trkpt lat="46.74795" lon="-0.80382">
        <ele>137.8</ele>
        <time>2020-11-15T09:32:30Z</time>
      </trkpt>
      <trkpt lat="46.74806" lon="-0.80362">
        <ele>137.8</ele>
        <time>2020-11-15T09:32:32Z</time>
      </trkpt>
      <trkpt lat="46.74812" lon="-0.80354">
        <ele>137.8</ele>
        <time>2020-11-15T09:32:33Z</time>
      </trkpt>
      <trkpt lat="46.74817" lon="-0.8035">
        <ele>137.9</ele>
        <time>2020-11-15T09:32:34Z</time>
      </trkpt>
      <trkpt lat="46.74824" lon="-0.80343">
        <ele>138</ele>
        <time>2020-11-15T09:32:36Z</time>
      </trkpt>
      <trkpt lat="46.74826" lon="-0.80341">
        <ele>138.1</ele>
        <time>2020-11-15T09:32:37Z</time>
      </trkpt>
      <trkpt lat="46.74828" lon="-0.8034">
        <ele>138.2</ele>
        <time>2020-11-15T09:32:38Z</time>
      </trkpt>
      <trkpt lat="46.74829" lon="-0.80338">
        <ele>138.2</ele>
        <time>2020-11-15T09:32:39Z</time>
      </trkpt>
      <trkpt lat="46.74831" lon="-0.80336">
        <ele>138.3</ele>
        <time>2020-11-15T09:32:40Z</time>
      </trkpt>
      <trkpt lat="46.74835" lon="-0.8033">
        <ele>138.5</ele>
        <time>2020-11-15T09:32:42Z</time>
      </trkpt>
      <trkpt lat="46.74837" lon="-0.80327">
        <ele>138.7</ele>
        <time>2020-11-15T09:32:43Z</time>
      </trkpt>
      <trkpt lat="46.74839" lon="-0.80324">
        <ele>138.8</ele>
        <time>2020-11-15T09:32:44Z</time>
      </trkpt>
      <trkpt lat="46.74842" lon="-0.80318">
        <ele>138.9</ele>
        <time>2020-11-15T09:32:46Z</time>
      </trkpt>
      <trkpt lat="46.74844" lon="-0.80316">
        <ele>139</ele>
        <time>2020-11-15T09:32:47Z</time>
      </trkpt>
      <trkpt lat="46.74848" lon="-0.80316">
        <ele>139.1</ele>
        <time>2020-11-15T09:32:48Z</time>
      </trkpt>
      <trkpt lat="46.74854" lon="-0.80321">
        <ele>139.4</ele>
        <time>2020-11-15T09:32:50Z</time>
      </trkpt>
      <trkpt lat="46.7486" lon="-0.80328">
        <ele>139.6</ele>
        <time>2020-11-15T09:32:52Z</time>
      </trkpt>
      <trkpt lat="46.74863" lon="-0.80331">
        <ele>139.7</ele>
        <time>2020-11-15T09:32:53Z</time>
      </trkpt>
      <trkpt lat="46.74866" lon="-0.80334">
        <ele>139.8</ele>
        <time>2020-11-15T09:32:54Z</time>
      </trkpt>
      <trkpt lat="46.7487" lon="-0.80337">
        <ele>139.9</ele>
        <time>2020-11-15T09:32:56Z</time>
      </trkpt>
      <trkpt lat="46.74871" lon="-0.80339">
        <ele>139.9</ele>
        <time>2020-11-15T09:32:57Z</time>
      </trkpt>
      <trkpt lat="46.74871" lon="-0.8034">
        <ele>139.9</ele>
        <time>2020-11-15T09:32:58Z</time>
      </trkpt>
      <trkpt lat="46.74868" lon="-0.80341">
        <ele>139.8</ele>
        <time>2020-11-15T09:33:00Z</time>
      </trkpt>
      <trkpt lat="46.74865" lon="-0.80336">
        <ele>139.8</ele>
        <time>2020-11-15T09:33:02Z</time>
      </trkpt>
      <trkpt lat="46.74866" lon="-0.80332">
        <ele>139.9</ele>
        <time>2020-11-15T09:33:03Z</time>
      </trkpt>
      <trkpt lat="46.74868" lon="-0.80328">
        <ele>140.1</ele>
        <time>2020-11-15T09:33:04Z</time>
      </trkpt>
      <trkpt lat="46.74872" lon="-0.80319">
        <ele>140.2</ele>
        <time>2020-11-15T09:33:06Z</time>
      </trkpt>
      <trkpt lat="46.74874" lon="-0.8031">
        <ele>140.4</ele>
        <time>2020-11-15T09:33:08Z</time>
      </trkpt>
      <trkpt lat="46.74877" lon="-0.80301">
        <ele>140.5</ele>
        <time>2020-11-15T09:33:10Z</time>
      </trkpt>
      <trkpt lat="46.74878" lon="-0.80292">
        <ele>140.7</ele>
        <time>2020-11-15T09:33:12Z</time>
      </trkpt>
      <trkpt lat="46.74878" lon="-0.80282">
        <ele>140.8</ele>
        <time>2020-11-15T09:33:14Z</time>
      </trkpt>
      <trkpt lat="46.74878" lon="-0.80271">
        <ele>140.8</ele>
        <time>2020-11-15T09:33:16Z</time>
      </trkpt>
      <trkpt lat="46.74878" lon="-0.80263">
        <ele>140.9</ele>
        <time>2020-11-15T09:33:18Z</time>
      </trkpt>
      <trkpt lat="46.74876" lon="-0.80259">
        <ele>140.8</ele>
        <time>2020-11-15T09:33:19Z</time>
      </trkpt>
      <trkpt lat="46.74875" lon="-0.80256">
        <ele>140.8</ele>
        <time>2020-11-15T09:33:20Z</time>
      </trkpt>
      <trkpt lat="46.74871" lon="-0.8025">
        <ele>140.6</ele>
        <time>2020-11-15T09:33:22Z</time>
      </trkpt>
      <trkpt lat="46.74868" lon="-0.80248">
        <ele>140.6</ele>
        <time>2020-11-15T09:33:23Z</time>
      </trkpt>
      <trkpt lat="46.74865" lon="-0.80245">
        <ele>140.4</ele>
        <time>2020-11-15T09:33:24Z</time>
      </trkpt>
      <trkpt lat="46.74859" lon="-0.8024">
        <ele>140.2</ele>
        <time>2020-11-15T09:33:26Z</time>
      </trkpt>
      <trkpt lat="46.74856" lon="-0.80236">
        <ele>140.1</ele>
        <time>2020-11-15T09:33:27Z</time>
      </trkpt>
      <trkpt lat="46.74853" lon="-0.80232">
        <ele>140</ele>
        <time>2020-11-15T09:33:28Z</time>
      </trkpt>
      <trkpt lat="46.7485" lon="-0.80225">
        <ele>139.8</ele>
        <time>2020-11-15T09:33:29Z</time>
      </trkpt>
      <trkpt lat="46.74847" lon="-0.80216">
        <ele>139.7</ele>
        <time>2020-11-15T09:33:30Z</time>
      </trkpt>
      <trkpt lat="46.74846" lon="-0.80208">
        <ele>139.5</ele>
        <time>2020-11-15T09:33:31Z</time>
      </trkpt>
      <trkpt lat="46.74846" lon="-0.80201">
        <ele>139.5</ele>
        <time>2020-11-15T09:33:32Z</time>
      </trkpt>
      <trkpt lat="46.74846" lon="-0.80195">
        <ele>139.3</ele>
        <time>2020-11-15T09:33:33Z</time>
      </trkpt>
      <trkpt lat="46.74847" lon="-0.80188">
        <ele>139.3</ele>
        <time>2020-11-15T09:33:34Z</time>
      </trkpt>
      <trkpt lat="46.74849" lon="-0.80173">
        <ele>139.1</ele>
        <time>2020-11-15T09:33:36Z</time>
      </trkpt>
      <trkpt lat="46.7485" lon="-0.80165">
        <ele>139</ele>
        <time>2020-11-15T09:33:37Z</time>
      </trkpt>
      <trkpt lat="46.74851" lon="-0.80158">
        <ele>139</ele>
        <time>2020-11-15T09:33:38Z</time>
      </trkpt>
      <trkpt lat="46.74856" lon="-0.80147">
        <ele>138.9</ele>
        <time>2020-11-15T09:33:40Z</time>
      </trkpt>
      <trkpt lat="46.74858" lon="-0.80143">
        <ele>139</ele>
        <time>2020-11-15T09:33:41Z</time>
      </trkpt>
      <trkpt lat="46.74862" lon="-0.80139">
        <ele>139</ele>
        <time>2020-11-15T09:33:42Z</time>
      </trkpt>
      <trkpt lat="46.74871" lon="-0.80135">
        <ele>139.2</ele>
        <time>2020-11-15T09:33:44Z</time>
      </trkpt>
      <trkpt lat="46.74875" lon="-0.80133">
        <ele>139.4</ele>
        <time>2020-11-15T09:33:45Z</time>
      </trkpt>
      <trkpt lat="46.74878" lon="-0.80132">
        <ele>139.5</ele>
        <time>2020-11-15T09:33:46Z</time>
      </trkpt>
      <trkpt lat="46.74885" lon="-0.8013">
        <ele>139.8</ele>
        <time>2020-11-15T09:33:48Z</time>
      </trkpt>
      <trkpt lat="46.74889" lon="-0.80129">
        <ele>140</ele>
        <time>2020-11-15T09:33:49Z</time>
      </trkpt>
      <trkpt lat="46.74892" lon="-0.80128">
        <ele>140.4</ele>
        <time>2020-11-15T09:33:50Z</time>
      </trkpt>
      <trkpt lat="46.749" lon="-0.80126">
        <ele>140.8</ele>
        <time>2020-11-15T09:33:52Z</time>
      </trkpt>
      <trkpt lat="46.74908" lon="-0.80125">
        <ele>141.4</ele>
        <time>2020-11-15T09:33:54Z</time>
      </trkpt>
      <trkpt lat="46.74916" lon="-0.80123">
        <ele>141.9</ele>
        <time>2020-11-15T09:33:56Z</time>
      </trkpt>
      <trkpt lat="46.74921" lon="-0.80121">
        <ele>142.1</ele>
        <time>2020-11-15T09:33:58Z</time>
      </trkpt>
      <trkpt lat="46.74925" lon="-0.80121">
        <ele>142.4</ele>
        <time>2020-11-15T09:33:59Z</time>
      </trkpt>
      <trkpt lat="46.74928" lon="-0.80121">
        <ele>142.6</ele>
        <time>2020-11-15T09:34:00Z</time>
      </trkpt>
      <trkpt lat="46.74934" lon="-0.80121">
        <ele>142.8</ele>
        <time>2020-11-15T09:34:02Z</time>
      </trkpt>
      <trkpt lat="46.74939" lon="-0.80121">
        <ele>142.9</ele>
        <time>2020-11-15T09:34:04Z</time>
      </trkpt>
      <trkpt lat="46.74944" lon="-0.80122">
        <ele>143.1</ele>
        <time>2020-11-15T09:34:06Z</time>
      </trkpt>
      <trkpt lat="46.74951" lon="-0.80124">
        <ele>143.3</ele>
        <time>2020-11-15T09:34:08Z</time>
      </trkpt>
      <trkpt lat="46.74954" lon="-0.80124">
        <ele>143.4</ele>
        <time>2020-11-15T09:34:09Z</time>
      </trkpt>
      <trkpt lat="46.74956" lon="-0.80125">
        <ele>143.4</ele>
        <time>2020-11-15T09:34:10Z</time>
      </trkpt>
      <trkpt lat="46.74962" lon="-0.80126">
        <ele>143.5</ele>
        <time>2020-11-15T09:34:12Z</time>
      </trkpt>
      <trkpt lat="46.74965" lon="-0.80127">
        <ele>143.6</ele>
        <time>2020-11-15T09:34:13Z</time>
      </trkpt>
      <trkpt lat="46.74968" lon="-0.80129">
        <ele>143.8</ele>
        <time>2020-11-15T09:34:14Z</time>
      </trkpt>
      <trkpt lat="46.74974" lon="-0.80132">
        <ele>144.1</ele>
        <time>2020-11-15T09:34:16Z</time>
      </trkpt>
      <trkpt lat="46.74979" lon="-0.80134">
        <ele>144.2</ele>
        <time>2020-11-15T09:34:18Z</time>
      </trkpt>
      <trkpt lat="46.74982" lon="-0.80136">
        <ele>144.3</ele>
        <time>2020-11-15T09:34:19Z</time>
      </trkpt>
      <trkpt lat="46.74984" lon="-0.80137">
        <ele>144.4</ele>
        <time>2020-11-15T09:34:20Z</time>
      </trkpt>
      <trkpt lat="46.74989" lon="-0.80138">
        <ele>144.5</ele>
        <time>2020-11-15T09:34:22Z</time>
      </trkpt>
      <trkpt lat="46.74992" lon="-0.8014">
        <ele>144.7</ele>
        <time>2020-11-15T09:34:23Z</time>
      </trkpt>
      <trkpt lat="46.74994" lon="-0.80141">
        <ele>144.8</ele>
        <time>2020-11-15T09:34:24Z</time>
      </trkpt>
      <trkpt lat="46.74999" lon="-0.80142">
        <ele>145.1</ele>
        <time>2020-11-15T09:34:26Z</time>
      </trkpt>
      <trkpt lat="46.75004" lon="-0.80143">
        <ele>145.3</ele>
        <time>2020-11-15T09:34:28Z</time>
      </trkpt>
      <trkpt lat="46.75006" lon="-0.80143">
        <ele>145.3</ele>
        <time>2020-11-15T09:34:29Z</time>
      </trkpt>
      <trkpt lat="46.75009" lon="-0.80144">
        <ele>145.5</ele>
        <time>2020-11-15T09:34:30Z</time>
      </trkpt>
      <trkpt lat="46.75017" lon="-0.80146">
        <ele>145.8</ele>
        <time>2020-11-15T09:34:32Z</time>
      </trkpt>
      <trkpt lat="46.75021" lon="-0.80146">
        <ele>145.9</ele>
        <time>2020-11-15T09:34:33Z</time>
      </trkpt>
      <trkpt lat="46.75023" lon="-0.80146">
        <ele>146</ele>
        <time>2020-11-15T09:34:34Z</time>
      </trkpt>
      <trkpt lat="46.75028" lon="-0.80147">
        <ele>146.2</ele>
        <time>2020-11-15T09:34:36Z</time>
      </trkpt>
      <trkpt lat="46.75033" lon="-0.80151">
        <ele>146.4</ele>
        <time>2020-11-15T09:34:38Z</time>
      </trkpt>
      <trkpt lat="46.75035" lon="-0.80151">
        <ele>146.4</ele>
        <time>2020-11-15T09:34:39Z</time>
      </trkpt>
      <trkpt lat="46.75038" lon="-0.80152">
        <ele>146.5</ele>
        <time>2020-11-15T09:34:40Z</time>
      </trkpt>
      <trkpt lat="46.75039" lon="-0.80153">
        <ele>146.6</ele>
        <time>2020-11-15T09:34:42Z</time>
      </trkpt>
      <trkpt lat="46.75045" lon="-0.80156">
        <ele>146.8</ele>
        <time>2020-11-15T09:34:45Z</time>
      </trkpt>
      <trkpt lat="46.75048" lon="-0.80157">
        <ele>146.8</ele>
        <time>2020-11-15T09:34:46Z</time>
      </trkpt>
      <trkpt lat="46.75053" lon="-0.8016">
        <ele>147</ele>
        <time>2020-11-15T09:34:48Z</time>
      </trkpt>
      <trkpt lat="46.7506" lon="-0.80163">
        <ele>147.3</ele>
        <time>2020-11-15T09:34:50Z</time>
      </trkpt>
      <trkpt lat="46.75068" lon="-0.80166">
        <ele>147.5</ele>
        <time>2020-11-15T09:34:52Z</time>
      </trkpt>
      <trkpt lat="46.75074" lon="-0.8017">
        <ele>147.7</ele>
        <time>2020-11-15T09:34:54Z</time>
      </trkpt>
      <trkpt lat="46.75079" lon="-0.80174">
        <ele>147.8</ele>
        <time>2020-11-15T09:34:56Z</time>
      </trkpt>
      <trkpt lat="46.75085" lon="-0.80179">
        <ele>148</ele>
        <time>2020-11-15T09:34:58Z</time>
      </trkpt>
      <trkpt lat="46.75091" lon="-0.80183">
        <ele>148.1</ele>
        <time>2020-11-15T09:35:00Z</time>
      </trkpt>
      <trkpt lat="46.75094" lon="-0.80186">
        <ele>148.2</ele>
        <time>2020-11-15T09:35:01Z</time>
      </trkpt>
      <trkpt lat="46.75095" lon="-0.80187">
        <ele>148.2</ele>
        <time>2020-11-15T09:35:02Z</time>
      </trkpt>
      <trkpt lat="46.75097" lon="-0.80187">
        <ele>148.3</ele>
        <time>2020-11-15T09:35:03Z</time>
      </trkpt>
      <trkpt lat="46.75099" lon="-0.80189">
        <ele>148.4</ele>
        <time>2020-11-15T09:35:04Z</time>
      </trkpt>
      <trkpt lat="46.75104" lon="-0.80194">
        <ele>148.5</ele>
        <time>2020-11-15T09:35:06Z</time>
      </trkpt>
      <trkpt lat="46.75107" lon="-0.80195">
        <ele>148.6</ele>
        <time>2020-11-15T09:35:07Z</time>
      </trkpt>
      <trkpt lat="46.75109" lon="-0.80197">
        <ele>148.6</ele>
        <time>2020-11-15T09:35:08Z</time>
      </trkpt>
      <trkpt lat="46.75114" lon="-0.80201">
        <ele>148.8</ele>
        <time>2020-11-15T09:35:10Z</time>
      </trkpt>
      <trkpt lat="46.75118" lon="-0.80203">
        <ele>148.9</ele>
        <time>2020-11-15T09:35:12Z</time>
      </trkpt>
      <trkpt lat="46.75122" lon="-0.80207">
        <ele>149.1</ele>
        <time>2020-11-15T09:35:14Z</time>
      </trkpt>
      <trkpt lat="46.75128" lon="-0.80213">
        <ele>149.2</ele>
        <time>2020-11-15T09:35:16Z</time>
      </trkpt>
      <trkpt lat="46.75131" lon="-0.80216">
        <ele>149.4</ele>
        <time>2020-11-15T09:35:17Z</time>
      </trkpt>
      <trkpt lat="46.75134" lon="-0.8022">
        <ele>149.5</ele>
        <time>2020-11-15T09:35:18Z</time>
      </trkpt>
      <trkpt lat="46.75138" lon="-0.80224">
        <ele>149.7</ele>
        <time>2020-11-15T09:35:24Z</time>
      </trkpt>
      <trkpt lat="46.75141" lon="-0.80228">
        <ele>149.8</ele>
        <time>2020-11-15T09:35:25Z</time>
      </trkpt>
      <trkpt lat="46.75143" lon="-0.80232">
        <ele>150</ele>
        <time>2020-11-15T09:35:26Z</time>
      </trkpt>
      <trkpt lat="46.75147" lon="-0.8024">
        <ele>150.2</ele>
        <time>2020-11-15T09:35:28Z</time>
      </trkpt>
      <trkpt lat="46.7515" lon="-0.80249">
        <ele>150.5</ele>
        <time>2020-11-15T09:35:30Z</time>
      </trkpt>
      <trkpt lat="46.75153" lon="-0.80258">
        <ele>150.7</ele>
        <time>2020-11-15T09:35:32Z</time>
      </trkpt>
      <trkpt lat="46.75155" lon="-0.80269">
        <ele>151</ele>
        <time>2020-11-15T09:35:34Z</time>
      </trkpt>
      <trkpt lat="46.75157" lon="-0.80278">
        <ele>151.2</ele>
        <time>2020-11-15T09:35:36Z</time>
      </trkpt>
      <trkpt lat="46.7516" lon="-0.80286">
        <ele>151.4</ele>
        <time>2020-11-15T09:35:38Z</time>
      </trkpt>
      <trkpt lat="46.7516" lon="-0.80291">
        <ele>151.5</ele>
        <time>2020-11-15T09:35:39Z</time>
      </trkpt>
      <trkpt lat="46.75161" lon="-0.80295">
        <ele>151.5</ele>
        <time>2020-11-15T09:35:40Z</time>
      </trkpt>
      <trkpt lat="46.75163" lon="-0.80302">
        <ele>151.7</ele>
        <time>2020-11-15T09:35:42Z</time>
      </trkpt>
      <trkpt lat="46.75164" lon="-0.8031">
        <ele>151.8</ele>
        <time>2020-11-15T09:35:44Z</time>
      </trkpt>
      <trkpt lat="46.75165" lon="-0.80313">
        <ele>151.8</ele>
        <time>2020-11-15T09:35:45Z</time>
      </trkpt>
      <trkpt lat="46.75167" lon="-0.80315">
        <ele>151.9</ele>
        <time>2020-11-15T09:35:46Z</time>
      </trkpt>
      <trkpt lat="46.75169" lon="-0.80316">
        <ele>151.9</ele>
        <time>2020-11-15T09:35:47Z</time>
      </trkpt>
      <trkpt lat="46.75185" lon="-0.80333">
        <ele>152</ele>
        <time>2020-11-15T09:36:02Z</time>
      </trkpt>
      <trkpt lat="46.75186" lon="-0.80342">
        <ele>151.9</ele>
        <time>2020-11-15T09:36:04Z</time>
      </trkpt>
      <trkpt lat="46.75189" lon="-0.80352">
        <ele>151.9</ele>
        <time>2020-11-15T09:36:06Z</time>
      </trkpt>
      <trkpt lat="46.7519" lon="-0.80357">
        <ele>151.9</ele>
        <time>2020-11-15T09:36:07Z</time>
      </trkpt>
      <trkpt lat="46.75191" lon="-0.80362">
        <ele>151.9</ele>
        <time>2020-11-15T09:36:08Z</time>
      </trkpt>
      <trkpt lat="46.75193" lon="-0.80374">
        <ele>151.8</ele>
        <time>2020-11-15T09:36:10Z</time>
      </trkpt>
      <trkpt lat="46.75197" lon="-0.80385">
        <ele>151.8</ele>
        <time>2020-11-15T09:36:12Z</time>
      </trkpt>
      <trkpt lat="46.75199" lon="-0.80391">
        <ele>151.9</ele>
        <time>2020-11-15T09:36:13Z</time>
      </trkpt>
      <trkpt lat="46.75202" lon="-0.80396">
        <ele>151.9</ele>
        <time>2020-11-15T09:36:14Z</time>
      </trkpt>
      <trkpt lat="46.75209" lon="-0.80406">
        <ele>152.1</ele>
        <time>2020-11-15T09:36:16Z</time>
      </trkpt>
      <trkpt lat="46.75216" lon="-0.80417">
        <ele>152.4</ele>
        <time>2020-11-15T09:36:18Z</time>
      </trkpt>
      <trkpt lat="46.75223" lon="-0.80428">
        <ele>152.7</ele>
        <time>2020-11-15T09:36:20Z</time>
      </trkpt>
      <trkpt lat="46.75228" lon="-0.80438">
        <ele>152.9</ele>
        <time>2020-11-15T09:36:22Z</time>
      </trkpt>
      <trkpt lat="46.75234" lon="-0.80448">
        <ele>153.1</ele>
        <time>2020-11-15T09:36:24Z</time>
      </trkpt>
      <trkpt lat="46.75239" lon="-0.80457">
        <ele>153.2</ele>
        <time>2020-11-15T09:36:26Z</time>
      </trkpt>
      <trkpt lat="46.75243" lon="-0.80464">
        <ele>153.5</ele>
        <time>2020-11-15T09:36:28Z</time>
      </trkpt>
      <trkpt lat="46.75244" lon="-0.80475">
        <ele>153.5</ele>
        <time>2020-11-15T09:36:30Z</time>
      </trkpt>
      <trkpt lat="46.75249" lon="-0.80481">
        <ele>153.8</ele>
        <time>2020-11-15T09:36:32Z</time>
      </trkpt>
      <trkpt lat="46.75251" lon="-0.80487">
        <ele>154.1</ele>
        <time>2020-11-15T09:36:34Z</time>
      </trkpt>
      <trkpt lat="46.75255" lon="-0.80495">
        <ele>154.4</ele>
        <time>2020-11-15T09:36:36Z</time>
      </trkpt>
      <trkpt lat="46.75259" lon="-0.80503">
        <ele>154.7</ele>
        <time>2020-11-15T09:36:38Z</time>
      </trkpt>
      <trkpt lat="46.75262" lon="-0.80508">
        <ele>155.2</ele>
        <time>2020-11-15T09:36:40Z</time>
      </trkpt>
      <trkpt lat="46.75265" lon="-0.80513">
        <ele>155.5</ele>
        <time>2020-11-15T09:36:42Z</time>
      </trkpt>
      <trkpt lat="46.75268" lon="-0.80516">
        <ele>155.5</ele>
        <time>2020-11-15T09:36:44Z</time>
      </trkpt>
      <trkpt lat="46.75273" lon="-0.80516">
        <ele>155.5</ele>
        <time>2020-11-15T09:36:46Z</time>
      </trkpt>
      <trkpt lat="46.75279" lon="-0.80514">
        <ele>155.6</ele>
        <time>2020-11-15T09:36:48Z</time>
      </trkpt>
      <trkpt lat="46.75286" lon="-0.80513">
        <ele>155.6</ele>
        <time>2020-11-15T09:36:50Z</time>
      </trkpt>
      <trkpt lat="46.75294" lon="-0.80513">
        <ele>155.6</ele>
        <time>2020-11-15T09:36:52Z</time>
      </trkpt>
      <trkpt lat="46.75299" lon="-0.80512">
        <ele>155.6</ele>
        <time>2020-11-15T09:36:54Z</time>
      </trkpt>
      <trkpt lat="46.75305" lon="-0.8051">
        <ele>155.6</ele>
        <time>2020-11-15T09:36:56Z</time>
      </trkpt>
      <trkpt lat="46.75308" lon="-0.80508">
        <ele>155.6</ele>
        <time>2020-11-15T09:36:57Z</time>
      </trkpt>
      <trkpt lat="46.75312" lon="-0.80507">
        <ele>155.6</ele>
        <time>2020-11-15T09:36:58Z</time>
      </trkpt>
      <trkpt lat="46.75319" lon="-0.80505">
        <ele>155.7</ele>
        <time>2020-11-15T09:37:00Z</time>
      </trkpt>
      <trkpt lat="46.75326" lon="-0.80504">
        <ele>155.7</ele>
        <time>2020-11-15T09:37:02Z</time>
      </trkpt>
      <trkpt lat="46.75332" lon="-0.80503">
        <ele>155.7</ele>
        <time>2020-11-15T09:37:04Z</time>
      </trkpt>
      <trkpt lat="46.7534" lon="-0.80501">
        <ele>155.7</ele>
        <time>2020-11-15T09:37:06Z</time>
      </trkpt>
      <trkpt lat="46.75347" lon="-0.80501">
        <ele>155.7</ele>
        <time>2020-11-15T09:37:08Z</time>
      </trkpt>
      <trkpt lat="46.75354" lon="-0.805">
        <ele>155.7</ele>
        <time>2020-11-15T09:37:10Z</time>
      </trkpt>
      <trkpt lat="46.75361" lon="-0.805">
        <ele>155.8</ele>
        <time>2020-11-15T09:37:12Z</time>
      </trkpt>
      <trkpt lat="46.75364" lon="-0.80503">
        <ele>155.8</ele>
        <time>2020-11-15T09:37:13Z</time>
      </trkpt>
      <trkpt lat="46.75366" lon="-0.80507">
        <ele>155.8</ele>
        <time>2020-11-15T09:37:14Z</time>
      </trkpt>
      <trkpt lat="46.75369" lon="-0.80515">
        <ele>155.8</ele>
        <time>2020-11-15T09:37:16Z</time>
      </trkpt>
      <trkpt lat="46.75372" lon="-0.80525">
        <ele>155.8</ele>
        <time>2020-11-15T09:37:18Z</time>
      </trkpt>
      <trkpt lat="46.75375" lon="-0.80535">
        <ele>155.8</ele>
        <time>2020-11-15T09:37:20Z</time>
      </trkpt>
      <trkpt lat="46.75378" lon="-0.80545">
        <ele>155.8</ele>
        <time>2020-11-15T09:37:22Z</time>
      </trkpt>
      <trkpt lat="46.75381" lon="-0.80556">
        <ele>155.9</ele>
        <time>2020-11-15T09:37:24Z</time>
      </trkpt>
      <trkpt lat="46.75386" lon="-0.80568">
        <ele>155.9</ele>
        <time>2020-11-15T09:37:26Z</time>
      </trkpt>
      <trkpt lat="46.7539" lon="-0.80573">
        <ele>156.2</ele>
        <time>2020-11-15T09:37:27Z</time>
      </trkpt>
      <trkpt lat="46.75395" lon="-0.80575">
        <ele>156.4</ele>
        <time>2020-11-15T09:37:28Z</time>
      </trkpt>
      <trkpt lat="46.75404" lon="-0.80575">
        <ele>156.8</ele>
        <time>2020-11-15T09:37:30Z</time>
      </trkpt>
      <trkpt lat="46.75414" lon="-0.80573">
        <ele>157.1</ele>
        <time>2020-11-15T09:37:32Z</time>
      </trkpt>
      <trkpt lat="46.75419" lon="-0.80571">
        <ele>157.3</ele>
        <time>2020-11-15T09:37:33Z</time>
      </trkpt>
      <trkpt lat="46.75423" lon="-0.80569">
        <ele>157.5</ele>
        <time>2020-11-15T09:37:34Z</time>
      </trkpt>
      <trkpt lat="46.75428" lon="-0.80567">
        <ele>157.7</ele>
        <time>2020-11-15T09:37:35Z</time>
      </trkpt>
      <trkpt lat="46.75432" lon="-0.80565">
        <ele>157.9</ele>
        <time>2020-11-15T09:37:36Z</time>
      </trkpt>
      <trkpt lat="46.75442" lon="-0.80562">
        <ele>158.2</ele>
        <time>2020-11-15T09:37:38Z</time>
      </trkpt>
      <trkpt lat="46.75449" lon="-0.80561">
        <ele>158.4</ele>
        <time>2020-11-15T09:37:40Z</time>
      </trkpt>
      <trkpt lat="46.75457" lon="-0.80562">
        <ele>158.6</ele>
        <time>2020-11-15T09:37:42Z</time>
      </trkpt>
      <trkpt lat="46.75465" lon="-0.80565">
        <ele>158.7</ele>
        <time>2020-11-15T09:37:44Z</time>
      </trkpt>
      <trkpt lat="46.75475" lon="-0.80565">
        <ele>158.9</ele>
        <time>2020-11-15T09:37:46Z</time>
      </trkpt>
      <trkpt lat="46.7548" lon="-0.80564">
        <ele>159.1</ele>
        <time>2020-11-15T09:37:47Z</time>
      </trkpt>
      <trkpt lat="46.75484" lon="-0.80564">
        <ele>159.2</ele>
        <time>2020-11-15T09:37:48Z</time>
      </trkpt>
      <trkpt lat="46.75489" lon="-0.80565">
        <ele>159.3</ele>
        <time>2020-11-15T09:37:49Z</time>
      </trkpt>
      <trkpt lat="46.75494" lon="-0.80566">
        <ele>159.5</ele>
        <time>2020-11-15T09:37:50Z</time>
      </trkpt>
      <trkpt lat="46.75498" lon="-0.80569">
        <ele>159.6</ele>
        <time>2020-11-15T09:37:51Z</time>
      </trkpt>
      <trkpt lat="46.755" lon="-0.80573">
        <ele>159.8</ele>
        <time>2020-11-15T09:37:52Z</time>
      </trkpt>
      <trkpt lat="46.75502" lon="-0.80579">
        <ele>159.4</ele>
        <time>2020-11-15T09:37:53Z</time>
      </trkpt>
      <trkpt lat="46.75502" lon="-0.80584">
        <ele>159.1</ele>
        <time>2020-11-15T09:37:54Z</time>
      </trkpt>
      <trkpt lat="46.75502" lon="-0.80587">
        <ele>158.9</ele>
        <time>2020-11-15T09:37:55Z</time>
      </trkpt>
      <trkpt lat="46.75502" lon="-0.80589">
        <ele>158.8</ele>
        <time>2020-11-15T09:37:56Z</time>
      </trkpt>
      <trkpt lat="46.75502" lon="-0.8059">
        <ele>158.7</ele>
        <time>2020-11-15T09:37:58Z</time>
      </trkpt>
      <trkpt lat="46.75502" lon="-0.80598">
        <ele>158.1</ele>
        <time>2020-11-15T09:38:04Z</time>
      </trkpt>
      <trkpt lat="46.755" lon="-0.8061">
        <ele>157.4</ele>
        <time>2020-11-15T09:38:06Z</time>
      </trkpt>
      <trkpt lat="46.75496" lon="-0.80622">
        <ele>156.8</ele>
        <time>2020-11-15T09:38:08Z</time>
      </trkpt>
      <trkpt lat="46.75492" lon="-0.80635">
        <ele>156.3</ele>
        <time>2020-11-15T09:38:10Z</time>
      </trkpt>
      <trkpt lat="46.75488" lon="-0.80648">
        <ele>155.9</ele>
        <time>2020-11-15T09:38:12Z</time>
      </trkpt>
      <trkpt lat="46.75486" lon="-0.80655">
        <ele>155.7</ele>
        <time>2020-11-15T09:38:13Z</time>
      </trkpt>
      <trkpt lat="46.75484" lon="-0.80662">
        <ele>155.6</ele>
        <time>2020-11-15T09:38:14Z</time>
      </trkpt>
      <trkpt lat="46.7548" lon="-0.80675">
        <ele>155.3</ele>
        <time>2020-11-15T09:38:16Z</time>
      </trkpt>
      <trkpt lat="46.75477" lon="-0.80689">
        <ele>155.2</ele>
        <time>2020-11-15T09:38:18Z</time>
      </trkpt>
      <trkpt lat="46.75477" lon="-0.80696">
        <ele>155.2</ele>
        <time>2020-11-15T09:38:19Z</time>
      </trkpt>
      <trkpt lat="46.75477" lon="-0.80703">
        <ele>155.2</ele>
        <time>2020-11-15T09:38:20Z</time>
      </trkpt>
      <trkpt lat="46.75478" lon="-0.80717">
        <ele>155.4</ele>
        <time>2020-11-15T09:38:22Z</time>
      </trkpt>
      <trkpt lat="46.75479" lon="-0.80731">
        <ele>155.8</ele>
        <time>2020-11-15T09:38:24Z</time>
      </trkpt>
      <trkpt lat="46.75479" lon="-0.80737">
        <ele>156</ele>
        <time>2020-11-15T09:38:25Z</time>
      </trkpt>
      <trkpt lat="46.75479" lon="-0.80744">
        <ele>156.2</ele>
        <time>2020-11-15T09:38:26Z</time>
      </trkpt>
      <trkpt lat="46.75479" lon="-0.80757">
        <ele>156.7</ele>
        <time>2020-11-15T09:38:28Z</time>
      </trkpt>
      <trkpt lat="46.7548" lon="-0.80771">
        <ele>157.1</ele>
        <time>2020-11-15T09:38:30Z</time>
      </trkpt>
      <trkpt lat="46.7548" lon="-0.80784">
        <ele>157.6</ele>
        <time>2020-11-15T09:38:32Z</time>
      </trkpt>
      <trkpt lat="46.7548" lon="-0.80791">
        <ele>157.9</ele>
        <time>2020-11-15T09:38:33Z</time>
      </trkpt>
      <trkpt lat="46.75481" lon="-0.80797">
        <ele>158.1</ele>
        <time>2020-11-15T09:38:34Z</time>
      </trkpt>
      <trkpt lat="46.75481" lon="-0.80811">
        <ele>158.5</ele>
        <time>2020-11-15T09:38:36Z</time>
      </trkpt>
      <trkpt lat="46.75481" lon="-0.80818">
        <ele>158.8</ele>
        <time>2020-11-15T09:38:37Z</time>
      </trkpt>
      <trkpt lat="46.7548" lon="-0.80825">
        <ele>159</ele>
        <time>2020-11-15T09:38:38Z</time>
      </trkpt>
      <trkpt lat="46.7548" lon="-0.80839">
        <ele>159.4</ele>
        <time>2020-11-15T09:38:40Z</time>
      </trkpt>
      <trkpt lat="46.75478" lon="-0.80852">
        <ele>159.7</ele>
        <time>2020-11-15T09:38:42Z</time>
      </trkpt>
      <trkpt lat="46.75477" lon="-0.80859">
        <ele>159.9</ele>
        <time>2020-11-15T09:38:43Z</time>
      </trkpt>
      <trkpt lat="46.75476" lon="-0.80865">
        <ele>160.1</ele>
        <time>2020-11-15T09:38:44Z</time>
      </trkpt>
      <trkpt lat="46.75473" lon="-0.80878">
        <ele>160.5</ele>
        <time>2020-11-15T09:38:46Z</time>
      </trkpt>
      <trkpt lat="46.7547" lon="-0.8089">
        <ele>160.8</ele>
        <time>2020-11-15T09:38:48Z</time>
      </trkpt>
      <trkpt lat="46.75469" lon="-0.80896">
        <ele>160.9</ele>
        <time>2020-11-15T09:38:49Z</time>
      </trkpt>
      <trkpt lat="46.75468" lon="-0.80902">
        <ele>161</ele>
        <time>2020-11-15T09:38:50Z</time>
      </trkpt>
      <trkpt lat="46.75468" lon="-0.80909">
        <ele>161.1</ele>
        <time>2020-11-15T09:38:51Z</time>
      </trkpt>
      <trkpt lat="46.75469" lon="-0.80916">
        <ele>161.2</ele>
        <time>2020-11-15T09:38:52Z</time>
      </trkpt>
      <trkpt lat="46.7547" lon="-0.80929">
        <ele>161.3</ele>
        <time>2020-11-15T09:38:54Z</time>
      </trkpt>
      <trkpt lat="46.75473" lon="-0.80943">
        <ele>161.5</ele>
        <time>2020-11-15T09:38:56Z</time>
      </trkpt>
      <trkpt lat="46.75475" lon="-0.8095">
        <ele>161.6</ele>
        <time>2020-11-15T09:38:57Z</time>
      </trkpt>
      <trkpt lat="46.75477" lon="-0.80956">
        <ele>161.8</ele>
        <time>2020-11-15T09:38:58Z</time>
      </trkpt>
      <trkpt lat="46.75481" lon="-0.80961">
        <ele>162.2</ele>
        <time>2020-11-15T09:38:59Z</time>
      </trkpt>
      <trkpt lat="46.75485" lon="-0.80964">
        <ele>162.4</ele>
        <time>2020-11-15T09:39:00Z</time>
      </trkpt>
      <trkpt lat="46.75489" lon="-0.80965">
        <ele>162.5</ele>
        <time>2020-11-15T09:39:01Z</time>
      </trkpt>
      <trkpt lat="46.75494" lon="-0.80964">
        <ele>162.6</ele>
        <time>2020-11-15T09:39:02Z</time>
      </trkpt>
      <trkpt lat="46.75498" lon="-0.80963">
        <ele>162.7</ele>
        <time>2020-11-15T09:39:03Z</time>
      </trkpt>
      <trkpt lat="46.75503" lon="-0.8096">
        <ele>162.9</ele>
        <time>2020-11-15T09:39:04Z</time>
      </trkpt>
      <trkpt lat="46.75511" lon="-0.80954">
        <ele>163.2</ele>
        <time>2020-11-15T09:39:06Z</time>
      </trkpt>
      <trkpt lat="46.75519" lon="-0.80949">
        <ele>163.5</ele>
        <time>2020-11-15T09:39:08Z</time>
      </trkpt>
      <trkpt lat="46.75527" lon="-0.80943">
        <ele>163.7</ele>
        <time>2020-11-15T09:39:10Z</time>
      </trkpt>
      <trkpt lat="46.75534" lon="-0.80937">
        <ele>164</ele>
        <time>2020-11-15T09:39:12Z</time>
      </trkpt>
      <trkpt lat="46.75543" lon="-0.80932">
        <ele>164.4</ele>
        <time>2020-11-15T09:39:14Z</time>
      </trkpt>
      <trkpt lat="46.75552" lon="-0.80928">
        <ele>164.7</ele>
        <time>2020-11-15T09:39:16Z</time>
      </trkpt>
      <trkpt lat="46.75561" lon="-0.80924">
        <ele>165</ele>
        <time>2020-11-15T09:39:18Z</time>
      </trkpt>
      <trkpt lat="46.75568" lon="-0.8092">
        <ele>165.3</ele>
        <time>2020-11-15T09:39:20Z</time>
      </trkpt>
      <trkpt lat="46.75577" lon="-0.80916">
        <ele>165.6</ele>
        <time>2020-11-15T09:39:22Z</time>
      </trkpt>
      <trkpt lat="46.75586" lon="-0.80912">
        <ele>165.9</ele>
        <time>2020-11-15T09:39:24Z</time>
      </trkpt>
      <trkpt lat="46.75594" lon="-0.80908">
        <ele>166.3</ele>
        <time>2020-11-15T09:39:26Z</time>
      </trkpt>
      <trkpt lat="46.75602" lon="-0.80904">
        <ele>166.7</ele>
        <time>2020-11-15T09:39:28Z</time>
      </trkpt>
      <trkpt lat="46.7561" lon="-0.809">
        <ele>167.1</ele>
        <time>2020-11-15T09:39:30Z</time>
      </trkpt>
      <trkpt lat="46.75618" lon="-0.80896">
        <ele>167.5</ele>
        <time>2020-11-15T09:39:32Z</time>
      </trkpt>
      <trkpt lat="46.75626" lon="-0.80893">
        <ele>167.9</ele>
        <time>2020-11-15T09:39:34Z</time>
      </trkpt>
      <trkpt lat="46.75634" lon="-0.8089">
        <ele>168.3</ele>
        <time>2020-11-15T09:39:36Z</time>
      </trkpt>
      <trkpt lat="46.75642" lon="-0.80887">
        <ele>168.8</ele>
        <time>2020-11-15T09:39:38Z</time>
      </trkpt>
      <trkpt lat="46.75651" lon="-0.80885">
        <ele>169.3</ele>
        <time>2020-11-15T09:39:40Z</time>
      </trkpt>
      <trkpt lat="46.75659" lon="-0.80882">
        <ele>169.7</ele>
        <time>2020-11-15T09:39:42Z</time>
      </trkpt>
      <trkpt lat="46.75667" lon="-0.8088">
        <ele>170.1</ele>
        <time>2020-11-15T09:39:44Z</time>
      </trkpt>
      <trkpt lat="46.75675" lon="-0.80878">
        <ele>170.6</ele>
        <time>2020-11-15T09:39:46Z</time>
      </trkpt>
      <trkpt lat="46.75678" lon="-0.80878">
        <ele>170.8</ele>
        <time>2020-11-15T09:39:47Z</time>
      </trkpt>
      <trkpt lat="46.75682" lon="-0.80877">
        <ele>171</ele>
        <time>2020-11-15T09:39:48Z</time>
      </trkpt>
      <trkpt lat="46.75689" lon="-0.80876">
        <ele>171.5</ele>
        <time>2020-11-15T09:39:50Z</time>
      </trkpt>
      <trkpt lat="46.75695" lon="-0.80876">
        <ele>171.9</ele>
        <time>2020-11-15T09:39:52Z</time>
      </trkpt>
      <trkpt lat="46.75699" lon="-0.80875">
        <ele>172.1</ele>
        <time>2020-11-15T09:39:53Z</time>
      </trkpt>
      <trkpt lat="46.75702" lon="-0.80875">
        <ele>172.3</ele>
        <time>2020-11-15T09:39:54Z</time>
      </trkpt>
      <trkpt lat="46.7571" lon="-0.80874">
        <ele>172.9</ele>
        <time>2020-11-15T09:39:56Z</time>
      </trkpt>
      <trkpt lat="46.75718" lon="-0.80873">
        <ele>173.5</ele>
        <time>2020-11-15T09:39:58Z</time>
      </trkpt>
      <trkpt lat="46.75726" lon="-0.80872">
        <ele>174.1</ele>
        <time>2020-11-15T09:40:00Z</time>
      </trkpt>
      <trkpt lat="46.75734" lon="-0.80872">
        <ele>174.6</ele>
        <time>2020-11-15T09:40:02Z</time>
      </trkpt>
      <trkpt lat="46.75741" lon="-0.80871">
        <ele>175</ele>
        <time>2020-11-15T09:40:04Z</time>
      </trkpt>
      <trkpt lat="46.75748" lon="-0.8087">
        <ele>175.4</ele>
        <time>2020-11-15T09:40:06Z</time>
      </trkpt>
      <trkpt lat="46.75752" lon="-0.80869">
        <ele>175.7</ele>
        <time>2020-11-15T09:40:07Z</time>
      </trkpt>
      <trkpt lat="46.75756" lon="-0.80868">
        <ele>175.9</ele>
        <time>2020-11-15T09:40:08Z</time>
      </trkpt>
      <trkpt lat="46.75763" lon="-0.80867">
        <ele>176.4</ele>
        <time>2020-11-15T09:40:10Z</time>
      </trkpt>
      <trkpt lat="46.7577" lon="-0.80866">
        <ele>176.9</ele>
        <time>2020-11-15T09:40:12Z</time>
      </trkpt>
      <trkpt lat="46.75774" lon="-0.80866">
        <ele>177.1</ele>
        <time>2020-11-15T09:40:13Z</time>
      </trkpt>
      <trkpt lat="46.75778" lon="-0.80867">
        <ele>177.4</ele>
        <time>2020-11-15T09:40:14Z</time>
      </trkpt>
      <trkpt lat="46.75785" lon="-0.80866">
        <ele>177.9</ele>
        <time>2020-11-15T09:40:16Z</time>
      </trkpt>
      <trkpt lat="46.75793" lon="-0.80865">
        <ele>178.3</ele>
        <time>2020-11-15T09:40:18Z</time>
      </trkpt>
      <trkpt lat="46.75799" lon="-0.80864">
        <ele>178.7</ele>
        <time>2020-11-15T09:40:20Z</time>
      </trkpt>
      <trkpt lat="46.75806" lon="-0.80862">
        <ele>179.1</ele>
        <time>2020-11-15T09:40:22Z</time>
      </trkpt>
      <trkpt lat="46.75809" lon="-0.80862">
        <ele>179.3</ele>
        <time>2020-11-15T09:40:23Z</time>
      </trkpt>
      <trkpt lat="46.75813" lon="-0.80862">
        <ele>179.5</ele>
        <time>2020-11-15T09:40:24Z</time>
      </trkpt>
      <trkpt lat="46.75818" lon="-0.80863">
        <ele>179.8</ele>
        <time>2020-11-15T09:40:26Z</time>
      </trkpt>
      <trkpt lat="46.75821" lon="-0.80862">
        <ele>179.9</ele>
        <time>2020-11-15T09:40:27Z</time>
      </trkpt>
      <trkpt lat="46.75824" lon="-0.80862">
        <ele>180.1</ele>
        <time>2020-11-15T09:40:28Z</time>
      </trkpt>
      <trkpt lat="46.75832" lon="-0.80862">
        <ele>180.5</ele>
        <time>2020-11-15T09:40:30Z</time>
      </trkpt>
      <trkpt lat="46.75839" lon="-0.80864">
        <ele>180.8</ele>
        <time>2020-11-15T09:40:32Z</time>
      </trkpt>
      <trkpt lat="46.75845" lon="-0.80865">
        <ele>181.1</ele>
        <time>2020-11-15T09:40:34Z</time>
      </trkpt>
      <trkpt lat="46.7585" lon="-0.80866">
        <ele>181.4</ele>
        <time>2020-11-15T09:40:36Z</time>
      </trkpt>
      <trkpt lat="46.75853" lon="-0.80866">
        <ele>181.5</ele>
        <time>2020-11-15T09:40:37Z</time>
      </trkpt>
      <trkpt lat="46.75856" lon="-0.80867">
        <ele>181.5</ele>
        <time>2020-11-15T09:40:38Z</time>
      </trkpt>
      <trkpt lat="46.75861" lon="-0.80869">
        <ele>181.7</ele>
        <time>2020-11-15T09:40:40Z</time>
      </trkpt>
      <trkpt lat="46.75866" lon="-0.80871">
        <ele>181.8</ele>
        <time>2020-11-15T09:40:41Z</time>
      </trkpt>
      <trkpt lat="46.75871" lon="-0.80872">
        <ele>182</ele>
        <time>2020-11-15T09:40:42Z</time>
      </trkpt>
      <trkpt lat="46.75879" lon="-0.80873">
        <ele>182.3</ele>
        <time>2020-11-15T09:40:44Z</time>
      </trkpt>
      <trkpt lat="46.75887" lon="-0.80876">
        <ele>182.5</ele>
        <time>2020-11-15T09:40:46Z</time>
      </trkpt>
      <trkpt lat="46.7589" lon="-0.80877">
        <ele>182.7</ele>
        <time>2020-11-15T09:40:47Z</time>
      </trkpt>
      <trkpt lat="46.75893" lon="-0.80879">
        <ele>182.8</ele>
        <time>2020-11-15T09:40:48Z</time>
      </trkpt>
      <trkpt lat="46.759" lon="-0.80881">
        <ele>183.1</ele>
        <time>2020-11-15T09:40:50Z</time>
      </trkpt>
      <trkpt lat="46.75907" lon="-0.80885">
        <ele>183.5</ele>
        <time>2020-11-15T09:40:52Z</time>
      </trkpt>
      <trkpt lat="46.7591" lon="-0.80887">
        <ele>183.6</ele>
        <time>2020-11-15T09:40:53Z</time>
      </trkpt>
      <trkpt lat="46.75914" lon="-0.80888">
        <ele>183.8</ele>
        <time>2020-11-15T09:40:54Z</time>
      </trkpt>
      <trkpt lat="46.75922" lon="-0.8089">
        <ele>184</ele>
        <time>2020-11-15T09:40:56Z</time>
      </trkpt>
      <trkpt lat="46.75929" lon="-0.80895">
        <ele>184.3</ele>
        <time>2020-11-15T09:40:58Z</time>
      </trkpt>
      <trkpt lat="46.75933" lon="-0.80896">
        <ele>184.4</ele>
        <time>2020-11-15T09:40:59Z</time>
      </trkpt>
      <trkpt lat="46.75936" lon="-0.80897">
        <ele>184.5</ele>
        <time>2020-11-15T09:41:00Z</time>
      </trkpt>
      <trkpt lat="46.75943" lon="-0.80899">
        <ele>184.6</ele>
        <time>2020-11-15T09:41:02Z</time>
      </trkpt>
      <trkpt lat="46.7595" lon="-0.80903">
        <ele>184.8</ele>
        <time>2020-11-15T09:41:04Z</time>
      </trkpt>
      <trkpt lat="46.75953" lon="-0.80904">
        <ele>184.9</ele>
        <time>2020-11-15T09:41:05Z</time>
      </trkpt>
      <trkpt lat="46.75956" lon="-0.80904">
        <ele>185</ele>
        <time>2020-11-15T09:41:06Z</time>
      </trkpt>
      <trkpt lat="46.75963" lon="-0.80905">
        <ele>185.3</ele>
        <time>2020-11-15T09:41:08Z</time>
      </trkpt>
      <trkpt lat="46.75971" lon="-0.80907">
        <ele>185.5</ele>
        <time>2020-11-15T09:41:10Z</time>
      </trkpt>
      <trkpt lat="46.75978" lon="-0.80908">
        <ele>185.8</ele>
        <time>2020-11-15T09:41:12Z</time>
      </trkpt>
      <trkpt lat="46.75986" lon="-0.80909">
        <ele>186</ele>
        <time>2020-11-15T09:41:14Z</time>
      </trkpt>
      <trkpt lat="46.7599" lon="-0.8091">
        <ele>186.1</ele>
        <time>2020-11-15T09:41:15Z</time>
      </trkpt>
      <trkpt lat="46.75994" lon="-0.8091">
        <ele>186.2</ele>
        <time>2020-11-15T09:41:16Z</time>
      </trkpt>
      <trkpt lat="46.76001" lon="-0.80911">
        <ele>186.3</ele>
        <time>2020-11-15T09:41:18Z</time>
      </trkpt>
      <trkpt lat="46.76009" lon="-0.80914">
        <ele>186.4</ele>
        <time>2020-11-15T09:41:20Z</time>
      </trkpt>
      <trkpt lat="46.76014" lon="-0.80914">
        <ele>186.4</ele>
        <time>2020-11-15T09:41:21Z</time>
      </trkpt>
      <trkpt lat="46.76018" lon="-0.80915">
        <ele>186.5</ele>
        <time>2020-11-15T09:41:22Z</time>
      </trkpt>
      <trkpt lat="46.76027" lon="-0.80917">
        <ele>186.5</ele>
        <time>2020-11-15T09:41:24Z</time>
      </trkpt>
      <trkpt lat="46.76036" lon="-0.80919">
        <ele>186.5</ele>
        <time>2020-11-15T09:41:26Z</time>
      </trkpt>
      <trkpt lat="46.76041" lon="-0.80921">
        <ele>186.5</ele>
        <time>2020-11-15T09:41:27Z</time>
      </trkpt>
      <trkpt lat="46.76046" lon="-0.80922">
        <ele>186.6</ele>
        <time>2020-11-15T09:41:28Z</time>
      </trkpt>
      <trkpt lat="46.76055" lon="-0.80926">
        <ele>186.7</ele>
        <time>2020-11-15T09:41:30Z</time>
      </trkpt>
      <trkpt lat="46.76059" lon="-0.80928">
        <ele>186.7</ele>
        <time>2020-11-15T09:41:31Z</time>
      </trkpt>
      <trkpt lat="46.76063" lon="-0.80931">
        <ele>186.8</ele>
        <time>2020-11-15T09:41:32Z</time>
      </trkpt>
      <trkpt lat="46.76068" lon="-0.80934">
        <ele>186.8</ele>
        <time>2020-11-15T09:41:33Z</time>
      </trkpt>
      <trkpt lat="46.76073" lon="-0.80936">
        <ele>186.9</ele>
        <time>2020-11-15T09:41:34Z</time>
      </trkpt>
      <trkpt lat="46.76077" lon="-0.80937">
        <ele>187</ele>
        <time>2020-11-15T09:41:35Z</time>
      </trkpt>
      <trkpt lat="46.76082" lon="-0.80938">
        <ele>187.1</ele>
        <time>2020-11-15T09:41:36Z</time>
      </trkpt>
      <trkpt lat="46.7609" lon="-0.80942">
        <ele>187.3</ele>
        <time>2020-11-15T09:41:38Z</time>
      </trkpt>
      <trkpt lat="46.76094" lon="-0.80944">
        <ele>187.4</ele>
        <time>2020-11-15T09:41:39Z</time>
      </trkpt>
      <trkpt lat="46.76098" lon="-0.80946">
        <ele>187.5</ele>
        <time>2020-11-15T09:41:40Z</time>
      </trkpt>
      <trkpt lat="46.76108" lon="-0.8095">
        <ele>187.7</ele>
        <time>2020-11-15T09:41:42Z</time>
      </trkpt>
      <trkpt lat="46.76117" lon="-0.80954">
        <ele>188</ele>
        <time>2020-11-15T09:41:44Z</time>
      </trkpt>
      <trkpt lat="46.76128" lon="-0.80959">
        <ele>188.3</ele>
        <time>2020-11-15T09:41:46Z</time>
      </trkpt>
      <trkpt lat="46.76138" lon="-0.80964">
        <ele>188.5</ele>
        <time>2020-11-15T09:41:48Z</time>
      </trkpt>
      <trkpt lat="46.76143" lon="-0.80966">
        <ele>188.4</ele>
        <time>2020-11-15T09:41:49Z</time>
      </trkpt>
      <trkpt lat="46.76148" lon="-0.80968">
        <ele>188.4</ele>
        <time>2020-11-15T09:41:50Z</time>
      </trkpt>
      <trkpt lat="46.76153" lon="-0.80971">
        <ele>188.2</ele>
        <time>2020-11-15T09:41:51Z</time>
      </trkpt>
      <trkpt lat="46.76158" lon="-0.80975">
        <ele>188.1</ele>
        <time>2020-11-15T09:41:52Z</time>
      </trkpt>
      <trkpt lat="46.76169" lon="-0.80983">
        <ele>187.6</ele>
        <time>2020-11-15T09:41:54Z</time>
      </trkpt>
      <trkpt lat="46.7618" lon="-0.80992">
        <ele>187.1</ele>
        <time>2020-11-15T09:41:56Z</time>
      </trkpt>
      <trkpt lat="46.76191" lon="-0.81002">
        <ele>186.7</ele>
        <time>2020-11-15T09:41:58Z</time>
      </trkpt>
      <trkpt lat="46.76203" lon="-0.81013">
        <ele>186.2</ele>
        <time>2020-11-15T09:42:00Z</time>
      </trkpt>
      <trkpt lat="46.76214" lon="-0.81023">
        <ele>185.9</ele>
        <time>2020-11-15T09:42:02Z</time>
      </trkpt>
      <trkpt lat="46.76225" lon="-0.81032">
        <ele>185.7</ele>
        <time>2020-11-15T09:42:04Z</time>
      </trkpt>
      <trkpt lat="46.76231" lon="-0.81038">
        <ele>185.7</ele>
        <time>2020-11-15T09:42:05Z</time>
      </trkpt>
      <trkpt lat="46.76235" lon="-0.81043">
        <ele>185.7</ele>
        <time>2020-11-15T09:42:06Z</time>
      </trkpt>
      <trkpt lat="46.76244" lon="-0.81054">
        <ele>185.8</ele>
        <time>2020-11-15T09:42:08Z</time>
      </trkpt>
      <trkpt lat="46.76253" lon="-0.81064">
        <ele>186</ele>
        <time>2020-11-15T09:42:10Z</time>
      </trkpt>
      <trkpt lat="46.7626" lon="-0.81074">
        <ele>186.2</ele>
        <time>2020-11-15T09:42:12Z</time>
      </trkpt>
      <trkpt lat="46.76264" lon="-0.81079">
        <ele>186.4</ele>
        <time>2020-11-15T09:42:13Z</time>
      </trkpt>
      <trkpt lat="46.76267" lon="-0.81083">
        <ele>186.5</ele>
        <time>2020-11-15T09:42:14Z</time>
      </trkpt>
      <trkpt lat="46.76271" lon="-0.81087">
        <ele>186.6</ele>
        <time>2020-11-15T09:42:15Z</time>
      </trkpt>
      <trkpt lat="46.76274" lon="-0.81091">
        <ele>186.7</ele>
        <time>2020-11-15T09:42:16Z</time>
      </trkpt>
      <trkpt lat="46.76278" lon="-0.81095">
        <ele>186.9</ele>
        <time>2020-11-15T09:42:17Z</time>
      </trkpt>
      <trkpt lat="46.76282" lon="-0.81099">
        <ele>187</ele>
        <time>2020-11-15T09:42:18Z</time>
      </trkpt>
      <trkpt lat="46.76289" lon="-0.81106">
        <ele>187.1</ele>
        <time>2020-11-15T09:42:20Z</time>
      </trkpt>
      <trkpt lat="46.76293" lon="-0.81108">
        <ele>187.2</ele>
        <time>2020-11-15T09:42:21Z</time>
      </trkpt>
      <trkpt lat="46.76296" lon="-0.81111">
        <ele>187.2</ele>
        <time>2020-11-15T09:42:22Z</time>
      </trkpt>
      <trkpt lat="46.76302" lon="-0.81113">
        <ele>187.3</ele>
        <time>2020-11-15T09:42:24Z</time>
      </trkpt>
      <trkpt lat="46.76305" lon="-0.81112">
        <ele>187.8</ele>
        <time>2020-11-15T09:42:25Z</time>
      </trkpt>
      <trkpt lat="46.76306" lon="-0.81109">
        <ele>188</ele>
        <time>2020-11-15T09:42:26Z</time>
      </trkpt>
      <trkpt lat="46.76309" lon="-0.81104">
        <ele>188.4</ele>
        <time>2020-11-15T09:42:28Z</time>
      </trkpt>
      <trkpt lat="46.7631" lon="-0.81102">
        <ele>188.6</ele>
        <time>2020-11-15T09:42:29Z</time>
      </trkpt>
      <trkpt lat="46.76311" lon="-0.81099">
        <ele>188.8</ele>
        <time>2020-11-15T09:42:30Z</time>
      </trkpt>
      <trkpt lat="46.76314" lon="-0.81094">
        <ele>189.2</ele>
        <time>2020-11-15T09:42:32Z</time>
      </trkpt>
      <trkpt lat="46.76317" lon="-0.81087">
        <ele>189.7</ele>
        <time>2020-11-15T09:42:34Z</time>
      </trkpt>
      <trkpt lat="46.7632" lon="-0.81081">
        <ele>190.1</ele>
        <time>2020-11-15T09:42:36Z</time>
      </trkpt>
      <trkpt lat="46.76323" lon="-0.81075">
        <ele>190.6</ele>
        <time>2020-11-15T09:42:38Z</time>
      </trkpt>
      <trkpt lat="46.76326" lon="-0.81069">
        <ele>191.1</ele>
        <time>2020-11-15T09:42:40Z</time>
      </trkpt>
      <trkpt lat="46.76329" lon="-0.81063">
        <ele>191.6</ele>
        <time>2020-11-15T09:42:42Z</time>
      </trkpt>
      <trkpt lat="46.76333" lon="-0.81058">
        <ele>192.2</ele>
        <time>2020-11-15T09:42:44Z</time>
      </trkpt>
      <trkpt lat="46.76338" lon="-0.81054">
        <ele>192.9</ele>
        <time>2020-11-15T09:42:46Z</time>
      </trkpt>
      <trkpt lat="46.76342" lon="-0.81051">
        <ele>193.3</ele>
        <time>2020-11-15T09:42:48Z</time>
      </trkpt>
      <trkpt lat="46.76346" lon="-0.81049">
        <ele>193.9</ele>
        <time>2020-11-15T09:42:50Z</time>
      </trkpt>
      <trkpt lat="46.76352" lon="-0.81049">
        <ele>194.5</ele>
        <time>2020-11-15T09:42:52Z</time>
      </trkpt>
      <trkpt lat="46.76354" lon="-0.81049">
        <ele>194.7</ele>
        <time>2020-11-15T09:42:53Z</time>
      </trkpt>
      <trkpt lat="46.76357" lon="-0.8105">
        <ele>195</ele>
        <time>2020-11-15T09:42:54Z</time>
      </trkpt>
      <trkpt lat="46.76362" lon="-0.81052">
        <ele>195.6</ele>
        <time>2020-11-15T09:42:56Z</time>
      </trkpt>
      <trkpt lat="46.76367" lon="-0.81055">
        <ele>196.1</ele>
        <time>2020-11-15T09:42:58Z</time>
      </trkpt>
      <trkpt lat="46.76372" lon="-0.81057">
        <ele>196.7</ele>
        <time>2020-11-15T09:43:00Z</time>
      </trkpt>
      <trkpt lat="46.76377" lon="-0.8106">
        <ele>197.4</ele>
        <time>2020-11-15T09:43:02Z</time>
      </trkpt>
      <trkpt lat="46.76379" lon="-0.81059">
        <ele>197.6</ele>
        <time>2020-11-15T09:43:03Z</time>
      </trkpt>
      <trkpt lat="46.76381" lon="-0.81059">
        <ele>197.9</ele>
        <time>2020-11-15T09:43:04Z</time>
      </trkpt>
      <trkpt lat="46.76386" lon="-0.81055">
        <ele>198.6</ele>
        <time>2020-11-15T09:43:06Z</time>
      </trkpt>
      <trkpt lat="46.7639" lon="-0.81051">
        <ele>199.2</ele>
        <time>2020-11-15T09:43:08Z</time>
      </trkpt>
      <trkpt lat="46.76393" lon="-0.81046">
        <ele>199.9</ele>
        <time>2020-11-15T09:43:10Z</time>
      </trkpt>
      <trkpt lat="46.76395" lon="-0.81039">
        <ele>200.6</ele>
        <time>2020-11-15T09:43:12Z</time>
      </trkpt>
      <trkpt lat="46.76396" lon="-0.81036">
        <ele>201.1</ele>
        <time>2020-11-15T09:43:13Z</time>
      </trkpt>
      <trkpt lat="46.76397" lon="-0.81032">
        <ele>201.5</ele>
        <time>2020-11-15T09:43:14Z</time>
      </trkpt>
      <trkpt lat="46.76397" lon="-0.81024">
        <ele>202.2</ele>
        <time>2020-11-15T09:43:16Z</time>
      </trkpt>
      <trkpt lat="46.76397" lon="-0.81017">
        <ele>202.9</ele>
        <time>2020-11-15T09:43:18Z</time>
      </trkpt>
      <trkpt lat="46.76397" lon="-0.81013">
        <ele>203.3</ele>
        <time>2020-11-15T09:43:19Z</time>
      </trkpt>
      <trkpt lat="46.76397" lon="-0.8101">
        <ele>203.7</ele>
        <time>2020-11-15T09:43:20Z</time>
      </trkpt>
      <trkpt lat="46.76397" lon="-0.81003">
        <ele>204.4</ele>
        <time>2020-11-15T09:43:22Z</time>
      </trkpt>
      <trkpt lat="46.76396" lon="-0.80997">
        <ele>205.1</ele>
        <time>2020-11-15T09:43:24Z</time>
      </trkpt>
      <trkpt lat="46.76396" lon="-0.80993">
        <ele>205.4</ele>
        <time>2020-11-15T09:43:25Z</time>
      </trkpt>
      <trkpt lat="46.76396" lon="-0.8099">
        <ele>205.8</ele>
        <time>2020-11-15T09:43:26Z</time>
      </trkpt>
      <trkpt lat="46.76397" lon="-0.80983">
        <ele>206.5</ele>
        <time>2020-11-15T09:43:28Z</time>
      </trkpt>
      <trkpt lat="46.76398" lon="-0.80981">
        <ele>206.9</ele>
        <time>2020-11-15T09:43:29Z</time>
      </trkpt>
      <trkpt lat="46.764" lon="-0.80978">
        <ele>207.3</ele>
        <time>2020-11-15T09:43:30Z</time>
      </trkpt>
      <trkpt lat="46.76404" lon="-0.80976">
        <ele>207.9</ele>
        <time>2020-11-15T09:43:32Z</time>
      </trkpt>
      <trkpt lat="46.76409" lon="-0.80975">
        <ele>208.6</ele>
        <time>2020-11-15T09:43:34Z</time>
      </trkpt>
      <trkpt lat="46.76411" lon="-0.80975">
        <ele>209</ele>
        <time>2020-11-15T09:43:35Z</time>
      </trkpt>
      <trkpt lat="46.76414" lon="-0.80974">
        <ele>209.4</ele>
        <time>2020-11-15T09:43:36Z</time>
      </trkpt>
      <trkpt lat="46.76419" lon="-0.80973">
        <ele>210.1</ele>
        <time>2020-11-15T09:43:38Z</time>
      </trkpt>
      <trkpt lat="46.76424" lon="-0.8097">
        <ele>210.8</ele>
        <time>2020-11-15T09:43:40Z</time>
      </trkpt>
      <trkpt lat="46.76429" lon="-0.80968">
        <ele>211.4</ele>
        <time>2020-11-15T09:43:42Z</time>
      </trkpt>
      <trkpt lat="46.76434" lon="-0.80967">
        <ele>212</ele>
        <time>2020-11-15T09:43:44Z</time>
      </trkpt>
      <trkpt lat="46.76439" lon="-0.80966">
        <ele>212.7</ele>
        <time>2020-11-15T09:43:46Z</time>
      </trkpt>
      <trkpt lat="46.76444" lon="-0.80965">
        <ele>213.3</ele>
        <time>2020-11-15T09:43:48Z</time>
      </trkpt>
      <trkpt lat="46.76446" lon="-0.80964">
        <ele>213.6</ele>
        <time>2020-11-15T09:43:49Z</time>
      </trkpt>
      <trkpt lat="46.76449" lon="-0.80963">
        <ele>213.9</ele>
        <time>2020-11-15T09:43:50Z</time>
      </trkpt>
      <trkpt lat="46.76454" lon="-0.80962">
        <ele>214.5</ele>
        <time>2020-11-15T09:43:52Z</time>
      </trkpt>
      <trkpt lat="46.76459" lon="-0.8096">
        <ele>215.1</ele>
        <time>2020-11-15T09:43:54Z</time>
      </trkpt>
      <trkpt lat="46.76461" lon="-0.8096">
        <ele>215.4</ele>
        <time>2020-11-15T09:43:55Z</time>
      </trkpt>
      <trkpt lat="46.76464" lon="-0.80959">
        <ele>215.7</ele>
        <time>2020-11-15T09:43:56Z</time>
      </trkpt>
      <trkpt lat="46.76468" lon="-0.80958">
        <ele>216.2</ele>
        <time>2020-11-15T09:43:58Z</time>
      </trkpt>
      <trkpt lat="46.76474" lon="-0.80957">
        <ele>216.7</ele>
        <time>2020-11-15T09:44:00Z</time>
      </trkpt>
      <trkpt lat="46.76479" lon="-0.80955">
        <ele>217.2</ele>
        <time>2020-11-15T09:44:02Z</time>
      </trkpt>
      <trkpt lat="46.76484" lon="-0.80954">
        <ele>217.7</ele>
        <time>2020-11-15T09:44:04Z</time>
      </trkpt>
      <trkpt lat="46.76488" lon="-0.80952">
        <ele>218</ele>
        <time>2020-11-15T09:44:06Z</time>
      </trkpt>
      <trkpt lat="46.7649" lon="-0.80952">
        <ele>218.3</ele>
        <time>2020-11-15T09:44:07Z</time>
      </trkpt>
      <trkpt lat="46.76493" lon="-0.80951">
        <ele>218.5</ele>
        <time>2020-11-15T09:44:08Z</time>
      </trkpt>
      <trkpt lat="46.76498" lon="-0.80949">
        <ele>218.9</ele>
        <time>2020-11-15T09:44:10Z</time>
      </trkpt>
      <trkpt lat="46.76503" lon="-0.80948">
        <ele>219.3</ele>
        <time>2020-11-15T09:44:12Z</time>
      </trkpt>
      <trkpt lat="46.76508" lon="-0.80946">
        <ele>219.7</ele>
        <time>2020-11-15T09:44:14Z</time>
      </trkpt>
      <trkpt lat="46.76511" lon="-0.80946">
        <ele>219.8</ele>
        <time>2020-11-15T09:44:15Z</time>
      </trkpt>
      <trkpt lat="46.76513" lon="-0.80945">
        <ele>220</ele>
        <time>2020-11-15T09:44:16Z</time>
      </trkpt>
      <trkpt lat="46.76518" lon="-0.80941">
        <ele>220.3</ele>
        <time>2020-11-15T09:44:18Z</time>
      </trkpt>
      <trkpt lat="46.76521" lon="-0.80935">
        <ele>220.6</ele>
        <time>2020-11-15T09:44:20Z</time>
      </trkpt>
      <trkpt lat="46.76521" lon="-0.80929">
        <ele>221</ele>
        <time>2020-11-15T09:44:22Z</time>
      </trkpt>
      <trkpt lat="46.7652" lon="-0.80924">
        <ele>221.2</ele>
        <time>2020-11-15T09:44:24Z</time>
      </trkpt>
      <trkpt lat="46.76518" lon="-0.80921">
        <ele>221.4</ele>
        <time>2020-11-15T09:44:26Z</time>
      </trkpt>
      <trkpt lat="46.76516" lon="-0.8092">
        <ele>221.5</ele>
        <time>2020-11-15T09:44:27Z</time>
      </trkpt>
      <trkpt lat="46.76514" lon="-0.80919">
        <ele>221.6</ele>
        <time>2020-11-15T09:44:28Z</time>
      </trkpt>
      <trkpt lat="46.76512" lon="-0.80918">
        <ele>221.7</ele>
        <time>2020-11-15T09:44:29Z</time>
      </trkpt>
      <trkpt lat="46.7651" lon="-0.80916">
        <ele>221.8</ele>
        <time>2020-11-15T09:44:30Z</time>
      </trkpt>
      <trkpt lat="46.76507" lon="-0.80913">
        <ele>222.1</ele>
        <time>2020-11-15T09:44:32Z</time>
      </trkpt>
      <trkpt lat="46.76503" lon="-0.8091">
        <ele>222.3</ele>
        <time>2020-11-15T09:44:34Z</time>
      </trkpt>
      <trkpt lat="46.765" lon="-0.80906">
        <ele>222.6</ele>
        <time>2020-11-15T09:44:36Z</time>
      </trkpt>
      <trkpt lat="46.76498" lon="-0.80902">
        <ele>222.8</ele>
        <time>2020-11-15T09:44:38Z</time>
      </trkpt>
      <trkpt lat="46.76494" lon="-0.80898">
        <ele>223.1</ele>
        <time>2020-11-15T09:44:40Z</time>
      </trkpt>
      <trkpt lat="46.76491" lon="-0.80894">
        <ele>223.5</ele>
        <time>2020-11-15T09:44:42Z</time>
      </trkpt>
      <trkpt lat="46.76487" lon="-0.80888">
        <ele>223.9</ele>
        <time>2020-11-15T09:44:44Z</time>
      </trkpt>
      <trkpt lat="46.76483" lon="-0.80883">
        <ele>224.3</ele>
        <time>2020-11-15T09:44:46Z</time>
      </trkpt>
      <trkpt lat="46.7648" lon="-0.80879">
        <ele>224.7</ele>
        <time>2020-11-15T09:44:48Z</time>
      </trkpt>
      <trkpt lat="46.76476" lon="-0.80874">
        <ele>225.2</ele>
        <time>2020-11-15T09:44:50Z</time>
      </trkpt>
      <trkpt lat="46.76474" lon="-0.80871">
        <ele>225.6</ele>
        <time>2020-11-15T09:44:51Z</time>
      </trkpt>
      <trkpt lat="46.76472" lon="-0.80868">
        <ele>225.9</ele>
        <time>2020-11-15T09:44:52Z</time>
      </trkpt>
      <trkpt lat="46.76469" lon="-0.80862">
        <ele>226.6</ele>
        <time>2020-11-15T09:44:54Z</time>
      </trkpt>
      <trkpt lat="46.76467" lon="-0.80855">
        <ele>227.3</ele>
        <time>2020-11-15T09:44:56Z</time>
      </trkpt>
      <trkpt lat="46.76464" lon="-0.80848">
        <ele>228.1</ele>
        <time>2020-11-15T09:44:58Z</time>
      </trkpt>
      <trkpt lat="46.76463" lon="-0.80841">
        <ele>228.8</ele>
        <time>2020-11-15T09:45:00Z</time>
      </trkpt>
      <trkpt lat="46.76462" lon="-0.80837">
        <ele>229.3</ele>
        <time>2020-11-15T09:45:01Z</time>
      </trkpt>
      <trkpt lat="46.76461" lon="-0.80833">
        <ele>229.7</ele>
        <time>2020-11-15T09:45:02Z</time>
      </trkpt>
      <trkpt lat="46.7646" lon="-0.80826">
        <ele>230.5</ele>
        <time>2020-11-15T09:45:04Z</time>
      </trkpt>
      <trkpt lat="46.7646" lon="-0.80819">
        <ele>231.3</ele>
        <time>2020-11-15T09:45:06Z</time>
      </trkpt>
      <trkpt lat="46.76458" lon="-0.80813">
        <ele>231.8</ele>
        <time>2020-11-15T09:45:08Z</time>
      </trkpt>
      <trkpt lat="46.76458" lon="-0.80807">
        <ele>232.3</ele>
        <time>2020-11-15T09:45:10Z</time>
      </trkpt>
      <trkpt lat="46.76458" lon="-0.80804">
        <ele>232.5</ele>
        <time>2020-11-15T09:45:11Z</time>
      </trkpt>
      <trkpt lat="46.76457" lon="-0.80801">
        <ele>232.7</ele>
        <time>2020-11-15T09:45:12Z</time>
      </trkpt>
      <trkpt lat="46.76457" lon="-0.80793">
        <ele>233.2</ele>
        <time>2020-11-15T09:45:14Z</time>
      </trkpt>
      <trkpt lat="46.76457" lon="-0.80786">
        <ele>233.5</ele>
        <time>2020-11-15T09:45:16Z</time>
      </trkpt>
      <trkpt lat="46.76456" lon="-0.8078">
        <ele>233.8</ele>
        <time>2020-11-15T09:45:18Z</time>
      </trkpt>
      <trkpt lat="46.76456" lon="-0.80777">
        <ele>233.9</ele>
        <time>2020-11-15T09:45:19Z</time>
      </trkpt>
      <trkpt lat="46.76456" lon="-0.80773">
        <ele>234</ele>
        <time>2020-11-15T09:45:20Z</time>
      </trkpt>
      <trkpt lat="46.76455" lon="-0.80765">
        <ele>234.3</ele>
        <time>2020-11-15T09:45:22Z</time>
      </trkpt>
      <trkpt lat="46.76453" lon="-0.80761">
        <ele>234.4</ele>
        <time>2020-11-15T09:45:23Z</time>
      </trkpt>
      <trkpt lat="46.76451" lon="-0.80757">
        <ele>234.6</ele>
        <time>2020-11-15T09:45:24Z</time>
      </trkpt>
      <trkpt lat="46.76449" lon="-0.80748">
        <ele>234.9</ele>
        <time>2020-11-15T09:45:26Z</time>
      </trkpt>
      <trkpt lat="46.76448" lon="-0.80744">
        <ele>235.1</ele>
        <time>2020-11-15T09:45:27Z</time>
      </trkpt>
      <trkpt lat="46.76447" lon="-0.8074">
        <ele>235.2</ele>
        <time>2020-11-15T09:45:28Z</time>
      </trkpt>
      <trkpt lat="46.76446" lon="-0.80732">
        <ele>235.5</ele>
        <time>2020-11-15T09:45:30Z</time>
      </trkpt>
      <trkpt lat="46.76444" lon="-0.80725">
        <ele>235.8</ele>
        <time>2020-11-15T09:45:32Z</time>
      </trkpt>
      <trkpt lat="46.76444" lon="-0.80723">
        <ele>235.9</ele>
        <time>2020-11-15T09:45:33Z</time>
      </trkpt>
      <trkpt lat="46.76444" lon="-0.8072">
        <ele>236</ele>
        <time>2020-11-15T09:45:34Z</time>
      </trkpt>
      <trkpt lat="46.76443" lon="-0.80714">
        <ele>236.3</ele>
        <time>2020-11-15T09:45:36Z</time>
      </trkpt>
      <trkpt lat="46.76443" lon="-0.80711">
        <ele>236.5</ele>
        <time>2020-11-15T09:45:37Z</time>
      </trkpt>
      <trkpt lat="46.76442" lon="-0.80707">
        <ele>236.6</ele>
        <time>2020-11-15T09:45:38Z</time>
      </trkpt>
      <trkpt lat="46.7644" lon="-0.807">
        <ele>237</ele>
        <time>2020-11-15T09:45:40Z</time>
      </trkpt>
      <trkpt lat="46.76439" lon="-0.80693">
        <ele>237.3</ele>
        <time>2020-11-15T09:45:42Z</time>
      </trkpt>
      <trkpt lat="46.76438" lon="-0.80689">
        <ele>237.5</ele>
        <time>2020-11-15T09:45:43Z</time>
      </trkpt>
      <trkpt lat="46.76438" lon="-0.80686">
        <ele>237.7</ele>
        <time>2020-11-15T09:45:44Z</time>
      </trkpt>
      <trkpt lat="46.76437" lon="-0.80678">
        <ele>238</ele>
        <time>2020-11-15T09:45:46Z</time>
      </trkpt>
      <trkpt lat="46.76436" lon="-0.80671">
        <ele>238.4</ele>
        <time>2020-11-15T09:45:48Z</time>
      </trkpt>
      <trkpt lat="46.76436" lon="-0.80668">
        <ele>238.6</ele>
        <time>2020-11-15T09:45:49Z</time>
      </trkpt>
      <trkpt lat="46.76436" lon="-0.80664">
        <ele>238.8</ele>
        <time>2020-11-15T09:45:50Z</time>
      </trkpt>
      <trkpt lat="46.76436" lon="-0.80656">
        <ele>239.1</ele>
        <time>2020-11-15T09:45:52Z</time>
      </trkpt>
      <trkpt lat="46.76435" lon="-0.80653">
        <ele>239.2</ele>
        <time>2020-11-15T09:45:53Z</time>
      </trkpt>
      <trkpt lat="46.76435" lon="-0.8065">
        <ele>239.4</ele>
        <time>2020-11-15T09:45:54Z</time>
      </trkpt>
      <trkpt lat="46.76433" lon="-0.80643">
        <ele>239.6</ele>
        <time>2020-11-15T09:45:56Z</time>
      </trkpt>
      <trkpt lat="46.76433" lon="-0.80637">
        <ele>239.8</ele>
        <time>2020-11-15T09:45:58Z</time>
      </trkpt>
      <trkpt lat="46.76433" lon="-0.8063">
        <ele>240</ele>
        <time>2020-11-15T09:46:00Z</time>
      </trkpt>
      <trkpt lat="46.76432" lon="-0.80623">
        <ele>240.2</ele>
        <time>2020-11-15T09:46:02Z</time>
      </trkpt>
      <trkpt lat="46.76432" lon="-0.8062">
        <ele>240.3</ele>
        <time>2020-11-15T09:46:03Z</time>
      </trkpt>
      <trkpt lat="46.76432" lon="-0.80616">
        <ele>240.3</ele>
        <time>2020-11-15T09:46:04Z</time>
      </trkpt>
      <trkpt lat="46.7643" lon="-0.80609">
        <ele>240.4</ele>
        <time>2020-11-15T09:46:06Z</time>
      </trkpt>
      <trkpt lat="46.76428" lon="-0.80602">
        <ele>240.5</ele>
        <time>2020-11-15T09:46:08Z</time>
      </trkpt>
      <trkpt lat="46.76428" lon="-0.80598">
        <ele>240.6</ele>
        <time>2020-11-15T09:46:09Z</time>
      </trkpt>
      <trkpt lat="46.76427" lon="-0.80594">
        <ele>240.6</ele>
        <time>2020-11-15T09:46:10Z</time>
      </trkpt>
      <trkpt lat="46.76428" lon="-0.80587">
        <ele>240.6</ele>
        <time>2020-11-15T09:46:12Z</time>
      </trkpt>
      <trkpt lat="46.76429" lon="-0.80581">
        <ele>240.6</ele>
        <time>2020-11-15T09:46:14Z</time>
      </trkpt>
      <trkpt lat="46.76429" lon="-0.80576">
        <ele>240.5</ele>
        <time>2020-11-15T09:46:16Z</time>
      </trkpt>
      <trkpt lat="46.7643" lon="-0.80572">
        <ele>240.5</ele>
        <time>2020-11-15T09:46:18Z</time>
      </trkpt>
      <trkpt lat="46.7643" lon="-0.8057">
        <ele>240.5</ele>
        <time>2020-11-15T09:46:20Z</time>
      </trkpt>
      <trkpt lat="46.76433" lon="-0.80558">
        <ele>240.1</ele>
        <time>2020-11-15T09:47:20Z</time>
      </trkpt>
      <trkpt lat="46.76432" lon="-0.80554">
        <ele>240</ele>
        <time>2020-11-15T09:47:21Z</time>
      </trkpt>
      <trkpt lat="46.76432" lon="-0.8055">
        <ele>239.8</ele>
        <time>2020-11-15T09:47:22Z</time>
      </trkpt>
      <trkpt lat="46.76431" lon="-0.80547">
        <ele>239.6</ele>
        <time>2020-11-15T09:47:23Z</time>
      </trkpt>
      <trkpt lat="46.76432" lon="-0.80543">
        <ele>239.4</ele>
        <time>2020-11-15T09:47:24Z</time>
      </trkpt>
      <trkpt lat="46.76433" lon="-0.80538">
        <ele>239.1</ele>
        <time>2020-11-15T09:47:25Z</time>
      </trkpt>
      <trkpt lat="46.76434" lon="-0.80533">
        <ele>238.8</ele>
        <time>2020-11-15T09:47:26Z</time>
      </trkpt>
      <trkpt lat="46.76436" lon="-0.80522">
        <ele>238.1</ele>
        <time>2020-11-15T09:47:28Z</time>
      </trkpt>
      <trkpt lat="46.76436" lon="-0.80517">
        <ele>237.8</ele>
        <time>2020-11-15T09:47:29Z</time>
      </trkpt>
      <trkpt lat="46.76437" lon="-0.80512">
        <ele>237.5</ele>
        <time>2020-11-15T09:47:30Z</time>
      </trkpt>
      <trkpt lat="46.76435" lon="-0.80501">
        <ele>236.9</ele>
        <time>2020-11-15T09:47:32Z</time>
      </trkpt>
      <trkpt lat="46.76435" lon="-0.80494">
        <ele>236.5</ele>
        <time>2020-11-15T09:47:33Z</time>
      </trkpt>
      <trkpt lat="46.76435" lon="-0.80487">
        <ele>236.2</ele>
        <time>2020-11-15T09:47:34Z</time>
      </trkpt>
      <trkpt lat="46.76433" lon="-0.80473">
        <ele>235.6</ele>
        <time>2020-11-15T09:47:36Z</time>
      </trkpt>
      <trkpt lat="46.76429" lon="-0.80457">
        <ele>235.1</ele>
        <time>2020-11-15T09:47:38Z</time>
      </trkpt>
      <trkpt lat="46.76424" lon="-0.80447">
        <ele>234.8</ele>
        <time>2020-11-15T09:47:40Z</time>
      </trkpt>
      <trkpt lat="46.76422" lon="-0.80442">
        <ele>234.7</ele>
        <time>2020-11-15T09:47:41Z</time>
      </trkpt>
      <trkpt lat="46.76421" lon="-0.80437">
        <ele>234.7</ele>
        <time>2020-11-15T09:47:42Z</time>
      </trkpt>
      <trkpt lat="46.76419" lon="-0.80432">
        <ele>234.6</ele>
        <time>2020-11-15T09:47:43Z</time>
      </trkpt>
      <trkpt lat="46.76417" lon="-0.80427">
        <ele>234.5</ele>
        <time>2020-11-15T09:47:44Z</time>
      </trkpt>
      <trkpt lat="46.76415" lon="-0.80417">
        <ele>234.4</ele>
        <time>2020-11-15T09:47:46Z</time>
      </trkpt>
      <trkpt lat="46.76413" lon="-0.80411">
        <ele>234.3</ele>
        <time>2020-11-15T09:47:47Z</time>
      </trkpt>
      <trkpt lat="46.7641" lon="-0.80406">
        <ele>234.3</ele>
        <time>2020-11-15T09:47:48Z</time>
      </trkpt>
      <trkpt lat="46.76406" lon="-0.80395">
        <ele>234.2</ele>
        <time>2020-11-15T09:47:50Z</time>
      </trkpt>
      <trkpt lat="46.76403" lon="-0.80385">
        <ele>234.1</ele>
        <time>2020-11-15T09:47:52Z</time>
      </trkpt>
      <trkpt lat="46.76398" lon="-0.80374">
        <ele>234</ele>
        <time>2020-11-15T09:47:54Z</time>
      </trkpt>
      <trkpt lat="46.76392" lon="-0.80365">
        <ele>233.9</ele>
        <time>2020-11-15T09:47:56Z</time>
      </trkpt>
      <trkpt lat="46.76389" lon="-0.80356">
        <ele>233.9</ele>
        <time>2020-11-15T09:47:58Z</time>
      </trkpt>
      <trkpt lat="46.76386" lon="-0.8035">
        <ele>233.8</ele>
        <time>2020-11-15T09:47:59Z</time>
      </trkpt>
      <trkpt lat="46.76382" lon="-0.80344">
        <ele>233.8</ele>
        <time>2020-11-15T09:48:00Z</time>
      </trkpt>
      <trkpt lat="46.76377" lon="-0.80331">
        <ele>233.8</ele>
        <time>2020-11-15T09:48:02Z</time>
      </trkpt>
      <trkpt lat="46.76374" lon="-0.80324">
        <ele>233.8</ele>
        <time>2020-11-15T09:48:03Z</time>
      </trkpt>
      <trkpt lat="46.76371" lon="-0.80319">
        <ele>233.8</ele>
        <time>2020-11-15T09:48:04Z</time>
      </trkpt>
      <trkpt lat="46.76369" lon="-0.80313">
        <ele>233.9</ele>
        <time>2020-11-15T09:48:05Z</time>
      </trkpt>
      <trkpt lat="46.76367" lon="-0.80308">
        <ele>233.9</ele>
        <time>2020-11-15T09:48:06Z</time>
      </trkpt>
      <trkpt lat="46.76363" lon="-0.80297">
        <ele>233.8</ele>
        <time>2020-11-15T09:48:08Z</time>
      </trkpt>
      <trkpt lat="46.76358" lon="-0.80286">
        <ele>233.8</ele>
        <time>2020-11-15T09:48:10Z</time>
      </trkpt>
      <trkpt lat="46.76353" lon="-0.80273">
        <ele>233.8</ele>
        <time>2020-11-15T09:48:12Z</time>
      </trkpt>
      <trkpt lat="46.76351" lon="-0.80267">
        <ele>233.8</ele>
        <time>2020-11-15T09:48:13Z</time>
      </trkpt>
      <trkpt lat="46.76348" lon="-0.80261">
        <ele>233.9</ele>
        <time>2020-11-15T09:48:14Z</time>
      </trkpt>
      <trkpt lat="46.76344" lon="-0.80249">
        <ele>234</ele>
        <time>2020-11-15T09:48:16Z</time>
      </trkpt>
      <trkpt lat="46.76339" lon="-0.80238">
        <ele>234.1</ele>
        <time>2020-11-15T09:48:18Z</time>
      </trkpt>
      <trkpt lat="46.76336" lon="-0.80227">
        <ele>234.2</ele>
        <time>2020-11-15T09:48:20Z</time>
      </trkpt>
      <trkpt lat="46.76333" lon="-0.80216">
        <ele>234.4</ele>
        <time>2020-11-15T09:48:22Z</time>
      </trkpt>
      <trkpt lat="46.76332" lon="-0.80211">
        <ele>234.5</ele>
        <time>2020-11-15T09:48:23Z</time>
      </trkpt>
      <trkpt lat="46.7633" lon="-0.80205">
        <ele>234.6</ele>
        <time>2020-11-15T09:48:24Z</time>
      </trkpt>
      <trkpt lat="46.76328" lon="-0.80193">
        <ele>234.9</ele>
        <time>2020-11-15T09:48:26Z</time>
      </trkpt>
      <trkpt lat="46.76327" lon="-0.80184">
        <ele>235.2</ele>
        <time>2020-11-15T09:48:28Z</time>
      </trkpt>
      <trkpt lat="46.76328" lon="-0.80179">
        <ele>235.4</ele>
        <time>2020-11-15T09:48:30Z</time>
      </trkpt>
      <trkpt lat="46.76328" lon="-0.80174">
        <ele>235.6</ele>
        <time>2020-11-15T09:48:32Z</time>
      </trkpt>
      <trkpt lat="46.76328" lon="-0.80171">
        <ele>235.7</ele>
        <time>2020-11-15T09:48:33Z</time>
      </trkpt>
      <trkpt lat="46.76327" lon="-0.80169">
        <ele>235.8</ele>
        <time>2020-11-15T09:48:34Z</time>
      </trkpt>
      <trkpt lat="46.76327" lon="-0.80165">
        <ele>236</ele>
        <time>2020-11-15T09:48:35Z</time>
      </trkpt>
      <trkpt lat="46.76328" lon="-0.80162">
        <ele>236.2</ele>
        <time>2020-11-15T09:48:36Z</time>
      </trkpt>
      <trkpt lat="46.76328" lon="-0.80157">
        <ele>236.4</ele>
        <time>2020-11-15T09:48:37Z</time>
      </trkpt>
      <trkpt lat="46.76328" lon="-0.80154">
        <ele>236.6</ele>
        <time>2020-11-15T09:48:38Z</time>
      </trkpt>
      <trkpt lat="46.76328" lon="-0.8015">
        <ele>236.8</ele>
        <time>2020-11-15T09:48:39Z</time>
      </trkpt>
      <trkpt lat="46.76327" lon="-0.80146">
        <ele>237</ele>
        <time>2020-11-15T09:48:40Z</time>
      </trkpt>
      <trkpt lat="46.76328" lon="-0.80144">
        <ele>237.1</ele>
        <time>2020-11-15T09:48:41Z</time>
      </trkpt>
      <trkpt lat="46.76327" lon="-0.8014">
        <ele>237.3</ele>
        <time>2020-11-15T09:48:42Z</time>
      </trkpt>
      <trkpt lat="46.76327" lon="-0.80137">
        <ele>237.5</ele>
        <time>2020-11-15T09:48:43Z</time>
      </trkpt>
      <trkpt lat="46.76327" lon="-0.80134">
        <ele>237.6</ele>
        <time>2020-11-15T09:48:44Z</time>
      </trkpt>
      <trkpt lat="46.76327" lon="-0.8013">
        <ele>237.8</ele>
        <time>2020-11-15T09:48:45Z</time>
      </trkpt>
      <trkpt lat="46.76327" lon="-0.80127">
        <ele>238</ele>
        <time>2020-11-15T09:48:46Z</time>
      </trkpt>
      <trkpt lat="46.76328" lon="-0.8012">
        <ele>238.2</ele>
        <time>2020-11-15T09:48:48Z</time>
      </trkpt>
      <trkpt lat="46.76328" lon="-0.80113">
        <ele>238.5</ele>
        <time>2020-11-15T09:48:50Z</time>
      </trkpt>
      <trkpt lat="46.76328" lon="-0.80107">
        <ele>238.8</ele>
        <time>2020-11-15T09:48:52Z</time>
      </trkpt>
      <trkpt lat="46.76328" lon="-0.80103">
        <ele>238.9</ele>
        <time>2020-11-15T09:48:53Z</time>
      </trkpt>
      <trkpt lat="46.76327" lon="-0.80099">
        <ele>239.1</ele>
        <time>2020-11-15T09:48:54Z</time>
      </trkpt>
      <trkpt lat="46.76326" lon="-0.80095">
        <ele>239.3</ele>
        <time>2020-11-15T09:48:55Z</time>
      </trkpt>
      <trkpt lat="46.76326" lon="-0.80091">
        <ele>239.4</ele>
        <time>2020-11-15T09:48:56Z</time>
      </trkpt>
      <trkpt lat="46.76323" lon="-0.80083">
        <ele>239.8</ele>
        <time>2020-11-15T09:48:58Z</time>
      </trkpt>
      <trkpt lat="46.76321" lon="-0.80074">
        <ele>240.1</ele>
        <time>2020-11-15T09:49:00Z</time>
      </trkpt>
      <trkpt lat="46.76319" lon="-0.80066">
        <ele>240.4</ele>
        <time>2020-11-15T09:49:02Z</time>
      </trkpt>
      <trkpt lat="46.76317" lon="-0.80058">
        <ele>240.7</ele>
        <time>2020-11-15T09:49:04Z</time>
      </trkpt>
      <trkpt lat="46.76316" lon="-0.80054">
        <ele>240.8</ele>
        <time>2020-11-15T09:49:05Z</time>
      </trkpt>
      <trkpt lat="46.76315" lon="-0.8005">
        <ele>240.9</ele>
        <time>2020-11-15T09:49:06Z</time>
      </trkpt>
      <trkpt lat="46.76316" lon="-0.8004">
        <ele>241.1</ele>
        <time>2020-11-15T09:49:08Z</time>
      </trkpt>
      <trkpt lat="46.76316" lon="-0.80035">
        <ele>241.2</ele>
        <time>2020-11-15T09:49:09Z</time>
      </trkpt>
      <trkpt lat="46.76317" lon="-0.80031">
        <ele>241.3</ele>
        <time>2020-11-15T09:49:10Z</time>
      </trkpt>
      <trkpt lat="46.76317" lon="-0.80027">
        <ele>241.4</ele>
        <time>2020-11-15T09:49:11Z</time>
      </trkpt>
      <trkpt lat="46.76316" lon="-0.80021">
        <ele>241.5</ele>
        <time>2020-11-15T09:49:12Z</time>
      </trkpt>
      <trkpt lat="46.76314" lon="-0.80008">
        <ele>241.6</ele>
        <time>2020-11-15T09:49:14Z</time>
      </trkpt>
      <trkpt lat="46.76314" lon="-0.79997">
        <ele>241.7</ele>
        <time>2020-11-15T09:49:16Z</time>
      </trkpt>
      <trkpt lat="46.76311" lon="-0.79986">
        <ele>241.9</ele>
        <time>2020-11-15T09:49:18Z</time>
      </trkpt>
      <trkpt lat="46.7631" lon="-0.79974">
        <ele>242</ele>
        <time>2020-11-15T09:49:20Z</time>
      </trkpt>
      <trkpt lat="46.76308" lon="-0.79963">
        <ele>242</ele>
        <time>2020-11-15T09:49:22Z</time>
      </trkpt>
      <trkpt lat="46.76308" lon="-0.79952">
        <ele>242.1</ele>
        <time>2020-11-15T09:49:24Z</time>
      </trkpt>
      <trkpt lat="46.76307" lon="-0.79946">
        <ele>242.1</ele>
        <time>2020-11-15T09:49:25Z</time>
      </trkpt>
      <trkpt lat="46.76307" lon="-0.7994">
        <ele>242.1</ele>
        <time>2020-11-15T09:49:26Z</time>
      </trkpt>
      <trkpt lat="46.76307" lon="-0.79928">
        <ele>242.1</ele>
        <time>2020-11-15T09:49:28Z</time>
      </trkpt>
      <trkpt lat="46.76306" lon="-0.79917">
        <ele>242</ele>
        <time>2020-11-15T09:49:30Z</time>
      </trkpt>
      <trkpt lat="46.76305" lon="-0.79906">
        <ele>242</ele>
        <time>2020-11-15T09:49:32Z</time>
      </trkpt>
      <trkpt lat="46.76305" lon="-0.79894">
        <ele>241.9</ele>
        <time>2020-11-15T09:49:34Z</time>
      </trkpt>
      <trkpt lat="46.76305" lon="-0.79889">
        <ele>241.9</ele>
        <time>2020-11-15T09:49:35Z</time>
      </trkpt>
      <trkpt lat="46.76304" lon="-0.79883">
        <ele>241.9</ele>
        <time>2020-11-15T09:49:36Z</time>
      </trkpt>
      <trkpt lat="46.76304" lon="-0.79871">
        <ele>241.8</ele>
        <time>2020-11-15T09:49:38Z</time>
      </trkpt>
      <trkpt lat="46.76303" lon="-0.79866">
        <ele>241.8</ele>
        <time>2020-11-15T09:49:39Z</time>
      </trkpt>
      <trkpt lat="46.76302" lon="-0.79861">
        <ele>241.7</ele>
        <time>2020-11-15T09:49:40Z</time>
      </trkpt>
      <trkpt lat="46.76301" lon="-0.7985">
        <ele>241.6</ele>
        <time>2020-11-15T09:49:42Z</time>
      </trkpt>
      <trkpt lat="46.763" lon="-0.79839">
        <ele>241.4</ele>
        <time>2020-11-15T09:49:44Z</time>
      </trkpt>
      <trkpt lat="46.763" lon="-0.79833">
        <ele>241.4</ele>
        <time>2020-11-15T09:49:45Z</time>
      </trkpt>
      <trkpt lat="46.76299" lon="-0.79827">
        <ele>241.3</ele>
        <time>2020-11-15T09:49:46Z</time>
      </trkpt>
      <trkpt lat="46.76298" lon="-0.79815">
        <ele>241</ele>
        <time>2020-11-15T09:49:48Z</time>
      </trkpt>
      <trkpt lat="46.76296" lon="-0.79802">
        <ele>240.8</ele>
        <time>2020-11-15T09:49:50Z</time>
      </trkpt>
      <trkpt lat="46.76294" lon="-0.79788">
        <ele>240.5</ele>
        <time>2020-11-15T09:49:52Z</time>
      </trkpt>
      <trkpt lat="46.76293" lon="-0.79774">
        <ele>240.2</ele>
        <time>2020-11-15T09:49:54Z</time>
      </trkpt>
      <trkpt lat="46.76292" lon="-0.79758">
        <ele>239.9</ele>
        <time>2020-11-15T09:49:56Z</time>
      </trkpt>
      <trkpt lat="46.76292" lon="-0.79751">
        <ele>239.8</ele>
        <time>2020-11-15T09:49:57Z</time>
      </trkpt>
      <trkpt lat="46.76293" lon="-0.79744">
        <ele>239.6</ele>
        <time>2020-11-15T09:49:58Z</time>
      </trkpt>
      <trkpt lat="46.76295" lon="-0.79729">
        <ele>239.1</ele>
        <time>2020-11-15T09:50:00Z</time>
      </trkpt>
      <trkpt lat="46.76296" lon="-0.79722">
        <ele>238.8</ele>
        <time>2020-11-15T09:50:01Z</time>
      </trkpt>
      <trkpt lat="46.76296" lon="-0.79714">
        <ele>238.5</ele>
        <time>2020-11-15T09:50:02Z</time>
      </trkpt>
      <trkpt lat="46.76297" lon="-0.79707">
        <ele>238.1</ele>
        <time>2020-11-15T09:50:03Z</time>
      </trkpt>
      <trkpt lat="46.76298" lon="-0.79699">
        <ele>237.7</ele>
        <time>2020-11-15T09:50:04Z</time>
      </trkpt>
      <trkpt lat="46.763" lon="-0.79681">
        <ele>236.8</ele>
        <time>2020-11-15T09:50:06Z</time>
      </trkpt>
      <trkpt lat="46.76303" lon="-0.79662">
        <ele>235.6</ele>
        <time>2020-11-15T09:50:08Z</time>
      </trkpt>
      <trkpt lat="46.76306" lon="-0.79643">
        <ele>234.9</ele>
        <time>2020-11-15T09:50:10Z</time>
      </trkpt>
      <trkpt lat="46.76308" lon="-0.79623">
        <ele>234.7</ele>
        <time>2020-11-15T09:50:12Z</time>
      </trkpt>
      <trkpt lat="46.76309" lon="-0.79605">
        <ele>234.5</ele>
        <time>2020-11-15T09:50:14Z</time>
      </trkpt>
      <trkpt lat="46.76307" lon="-0.79588">
        <ele>234.3</ele>
        <time>2020-11-15T09:50:16Z</time>
      </trkpt>
      <trkpt lat="46.76306" lon="-0.7958">
        <ele>234.2</ele>
        <time>2020-11-15T09:50:17Z</time>
      </trkpt>
      <trkpt lat="46.76305" lon="-0.79572">
        <ele>234.1</ele>
        <time>2020-11-15T09:50:18Z</time>
      </trkpt>
      <trkpt lat="46.76301" lon="-0.79556">
        <ele>234.1</ele>
        <time>2020-11-15T09:50:20Z</time>
      </trkpt>
      <trkpt lat="46.763" lon="-0.7955">
        <ele>234.1</ele>
        <time>2020-11-15T09:50:21Z</time>
      </trkpt>
      <trkpt lat="46.763" lon="-0.79543">
        <ele>234.1</ele>
        <time>2020-11-15T09:50:22Z</time>
      </trkpt>
      <trkpt lat="46.763" lon="-0.7953">
        <ele>234.1</ele>
        <time>2020-11-15T09:50:24Z</time>
      </trkpt>
      <trkpt lat="46.763" lon="-0.79523">
        <ele>234.1</ele>
        <time>2020-11-15T09:50:25Z</time>
      </trkpt>
      <trkpt lat="46.763" lon="-0.79517">
        <ele>234.2</ele>
        <time>2020-11-15T09:50:26Z</time>
      </trkpt>
      <trkpt lat="46.76302" lon="-0.7951">
        <ele>234.3</ele>
        <time>2020-11-15T09:50:27Z</time>
      </trkpt>
      <trkpt lat="46.76304" lon="-0.79504">
        <ele>234.5</ele>
        <time>2020-11-15T09:50:28Z</time>
      </trkpt>
      <trkpt lat="46.76307" lon="-0.79495">
        <ele>235</ele>
        <time>2020-11-15T09:50:30Z</time>
      </trkpt>
      <trkpt lat="46.7631" lon="-0.7949">
        <ele>235.2</ele>
        <time>2020-11-15T09:50:32Z</time>
      </trkpt>
      <trkpt lat="46.76314" lon="-0.79486">
        <ele>235.5</ele>
        <time>2020-11-15T09:50:34Z</time>
      </trkpt>
      <trkpt lat="46.76319" lon="-0.79483">
        <ele>235.6</ele>
        <time>2020-11-15T09:50:36Z</time>
      </trkpt>
      <trkpt lat="46.76325" lon="-0.7948">
        <ele>235.8</ele>
        <time>2020-11-15T09:50:38Z</time>
      </trkpt>
      <trkpt lat="46.7633" lon="-0.79474">
        <ele>236</ele>
        <time>2020-11-15T09:50:40Z</time>
      </trkpt>
      <trkpt lat="46.76335" lon="-0.79468">
        <ele>236.2</ele>
        <time>2020-11-15T09:50:42Z</time>
      </trkpt>
      <trkpt lat="46.76342" lon="-0.79461">
        <ele>236.4</ele>
        <time>2020-11-15T09:50:44Z</time>
      </trkpt>
      <trkpt lat="46.76348" lon="-0.79454">
        <ele>236.6</ele>
        <time>2020-11-15T09:50:46Z</time>
      </trkpt>
      <trkpt lat="46.76355" lon="-0.79448">
        <ele>236.9</ele>
        <time>2020-11-15T09:50:48Z</time>
      </trkpt>
      <trkpt lat="46.76361" lon="-0.79443">
        <ele>237.1</ele>
        <time>2020-11-15T09:50:50Z</time>
      </trkpt>
      <trkpt lat="46.76364" lon="-0.79441">
        <ele>237.3</ele>
        <time>2020-11-15T09:50:51Z</time>
      </trkpt>
      <trkpt lat="46.76367" lon="-0.79438">
        <ele>237.4</ele>
        <time>2020-11-15T09:50:52Z</time>
      </trkpt>
      <trkpt lat="46.76372" lon="-0.79433">
        <ele>237.7</ele>
        <time>2020-11-15T09:50:54Z</time>
      </trkpt>
      <trkpt lat="46.76378" lon="-0.79427">
        <ele>238</ele>
        <time>2020-11-15T09:50:56Z</time>
      </trkpt>
      <trkpt lat="46.76383" lon="-0.7942">
        <ele>238.4</ele>
        <time>2020-11-15T09:50:58Z</time>
      </trkpt>
      <trkpt lat="46.76388" lon="-0.79413">
        <ele>238.8</ele>
        <time>2020-11-15T09:51:00Z</time>
      </trkpt>
      <trkpt lat="46.76393" lon="-0.79405">
        <ele>239.2</ele>
        <time>2020-11-15T09:51:02Z</time>
      </trkpt>
      <trkpt lat="46.76395" lon="-0.79401">
        <ele>239.5</ele>
        <time>2020-11-15T09:51:03Z</time>
      </trkpt>
      <trkpt lat="46.76398" lon="-0.79397">
        <ele>239.7</ele>
        <time>2020-11-15T09:51:04Z</time>
      </trkpt>
      <trkpt lat="46.76403" lon="-0.79389">
        <ele>240.2</ele>
        <time>2020-11-15T09:51:06Z</time>
      </trkpt>
      <trkpt lat="46.76407" lon="-0.79378">
        <ele>240.7</ele>
        <time>2020-11-15T09:51:08Z</time>
      </trkpt>
      <trkpt lat="46.7641" lon="-0.79368">
        <ele>241.2</ele>
        <time>2020-11-15T09:51:10Z</time>
      </trkpt>
      <trkpt lat="46.76414" lon="-0.79358">
        <ele>241.6</ele>
        <time>2020-11-15T09:51:12Z</time>
      </trkpt>
      <trkpt lat="46.76417" lon="-0.79348">
        <ele>242.1</ele>
        <time>2020-11-15T09:51:14Z</time>
      </trkpt>
      <trkpt lat="46.7642" lon="-0.79337">
        <ele>242.6</ele>
        <time>2020-11-15T09:51:16Z</time>
      </trkpt>
      <trkpt lat="46.76422" lon="-0.79328">
        <ele>243</ele>
        <time>2020-11-15T09:51:18Z</time>
      </trkpt>
      <trkpt lat="46.76425" lon="-0.79318">
        <ele>243.5</ele>
        <time>2020-11-15T09:51:20Z</time>
      </trkpt>
      <trkpt lat="46.76428" lon="-0.79309">
        <ele>243.9</ele>
        <time>2020-11-15T09:51:22Z</time>
      </trkpt>
      <trkpt lat="46.76429" lon="-0.79297">
        <ele>244.4</ele>
        <time>2020-11-15T09:51:24Z</time>
      </trkpt>
      <trkpt lat="46.7643" lon="-0.79286">
        <ele>244.8</ele>
        <time>2020-11-15T09:51:26Z</time>
      </trkpt>
      <trkpt lat="46.7643" lon="-0.79275">
        <ele>244.9</ele>
        <time>2020-11-15T09:51:28Z</time>
      </trkpt>
      <trkpt lat="46.76429" lon="-0.79269">
        <ele>245</ele>
        <time>2020-11-15T09:51:29Z</time>
      </trkpt>
      <trkpt lat="46.76429" lon="-0.79262">
        <ele>245.1</ele>
        <time>2020-11-15T09:51:30Z</time>
      </trkpt>
      <trkpt lat="46.76428" lon="-0.79256">
        <ele>245.1</ele>
        <time>2020-11-15T09:51:31Z</time>
      </trkpt>
      <trkpt lat="46.76427" lon="-0.7925">
        <ele>245.1</ele>
        <time>2020-11-15T09:51:32Z</time>
      </trkpt>
      <trkpt lat="46.76425" lon="-0.79236">
        <ele>245</ele>
        <time>2020-11-15T09:51:34Z</time>
      </trkpt>
      <trkpt lat="46.76423" lon="-0.79223">
        <ele>244.9</ele>
        <time>2020-11-15T09:51:36Z</time>
      </trkpt>
      <trkpt lat="46.76422" lon="-0.79209">
        <ele>244.8</ele>
        <time>2020-11-15T09:51:38Z</time>
      </trkpt>
      <trkpt lat="46.76421" lon="-0.79195">
        <ele>244.7</ele>
        <time>2020-11-15T09:51:40Z</time>
      </trkpt>
      <trkpt lat="46.76419" lon="-0.79182">
        <ele>244.9</ele>
        <time>2020-11-15T09:51:42Z</time>
      </trkpt>
      <trkpt lat="46.76417" lon="-0.79172">
        <ele>245</ele>
        <time>2020-11-15T09:51:44Z</time>
      </trkpt>
      <trkpt lat="46.76416" lon="-0.79161">
        <ele>245.2</ele>
        <time>2020-11-15T09:51:46Z</time>
      </trkpt>
      <trkpt lat="46.76415" lon="-0.79156">
        <ele>245.3</ele>
        <time>2020-11-15T09:51:47Z</time>
      </trkpt>
      <trkpt lat="46.76414" lon="-0.7915">
        <ele>245.4</ele>
        <time>2020-11-15T09:51:48Z</time>
      </trkpt>
      <trkpt lat="46.76413" lon="-0.79139">
        <ele>245.6</ele>
        <time>2020-11-15T09:51:50Z</time>
      </trkpt>
      <trkpt lat="46.76412" lon="-0.79128">
        <ele>245.7</ele>
        <time>2020-11-15T09:51:52Z</time>
      </trkpt>
      <trkpt lat="46.7641" lon="-0.79118">
        <ele>245.9</ele>
        <time>2020-11-15T09:51:54Z</time>
      </trkpt>
      <trkpt lat="46.76409" lon="-0.79112">
        <ele>246</ele>
        <time>2020-11-15T09:51:55Z</time>
      </trkpt>
      <trkpt lat="46.76408" lon="-0.79107">
        <ele>246.1</ele>
        <time>2020-11-15T09:51:56Z</time>
      </trkpt>
      <trkpt lat="46.76407" lon="-0.79096">
        <ele>246.3</ele>
        <time>2020-11-15T09:51:58Z</time>
      </trkpt>
      <trkpt lat="46.76405" lon="-0.79084">
        <ele>246.6</ele>
        <time>2020-11-15T09:52:00Z</time>
      </trkpt>
      <trkpt lat="46.76403" lon="-0.79074">
        <ele>246.8</ele>
        <time>2020-11-15T09:52:02Z</time>
      </trkpt>
      <trkpt lat="46.764" lon="-0.79063">
        <ele>247</ele>
        <time>2020-11-15T09:52:04Z</time>
      </trkpt>
      <trkpt lat="46.76397" lon="-0.79053">
        <ele>247.2</ele>
        <time>2020-11-15T09:52:06Z</time>
      </trkpt>
      <trkpt lat="46.76393" lon="-0.79043">
        <ele>247.4</ele>
        <time>2020-11-15T09:52:08Z</time>
      </trkpt>
      <trkpt lat="46.76391" lon="-0.79033">
        <ele>247.5</ele>
        <time>2020-11-15T09:52:10Z</time>
      </trkpt>
      <trkpt lat="46.76389" lon="-0.79028">
        <ele>247.6</ele>
        <time>2020-11-15T09:52:11Z</time>
      </trkpt>
      <trkpt lat="46.76387" lon="-0.79024">
        <ele>247.6</ele>
        <time>2020-11-15T09:52:12Z</time>
      </trkpt>
      <trkpt lat="46.76384" lon="-0.79019">
        <ele>247.7</ele>
        <time>2020-11-15T09:52:13Z</time>
      </trkpt>
      <trkpt lat="46.76383" lon="-0.79014">
        <ele>247.7</ele>
        <time>2020-11-15T09:52:14Z</time>
      </trkpt>
      <trkpt lat="46.76381" lon="-0.79002">
        <ele>247.6</ele>
        <time>2020-11-15T09:52:16Z</time>
      </trkpt>
      <trkpt lat="46.7638" lon="-0.78997">
        <ele>247.6</ele>
        <time>2020-11-15T09:52:17Z</time>
      </trkpt>
      <trkpt lat="46.7638" lon="-0.78991">
        <ele>247.5</ele>
        <time>2020-11-15T09:52:18Z</time>
      </trkpt>
      <trkpt lat="46.76378" lon="-0.78979">
        <ele>247.5</ele>
        <time>2020-11-15T09:52:20Z</time>
      </trkpt>
      <trkpt lat="46.76377" lon="-0.78967">
        <ele>247.4</ele>
        <time>2020-11-15T09:52:22Z</time>
      </trkpt>
      <trkpt lat="46.76376" lon="-0.78955">
        <ele>247.3</ele>
        <time>2020-11-15T09:52:24Z</time>
      </trkpt>
      <trkpt lat="46.76376" lon="-0.78942">
        <ele>247.2</ele>
        <time>2020-11-15T09:52:26Z</time>
      </trkpt>
      <trkpt lat="46.76376" lon="-0.78929">
        <ele>247</ele>
        <time>2020-11-15T09:52:28Z</time>
      </trkpt>
      <trkpt lat="46.76375" lon="-0.78922">
        <ele>246.8</ele>
        <time>2020-11-15T09:52:29Z</time>
      </trkpt>
      <trkpt lat="46.76376" lon="-0.78915">
        <ele>246.7</ele>
        <time>2020-11-15T09:52:30Z</time>
      </trkpt>
      <trkpt lat="46.76375" lon="-0.78908">
        <ele>246.5</ele>
        <time>2020-11-15T09:52:31Z</time>
      </trkpt>
      <trkpt lat="46.76375" lon="-0.78901">
        <ele>246.3</ele>
        <time>2020-11-15T09:52:32Z</time>
      </trkpt>
      <trkpt lat="46.76377" lon="-0.78885">
        <ele>245.7</ele>
        <time>2020-11-15T09:52:34Z</time>
      </trkpt>
      <trkpt lat="46.76378" lon="-0.78879">
        <ele>245.5</ele>
        <time>2020-11-15T09:52:35Z</time>
      </trkpt>
      <trkpt lat="46.76379" lon="-0.78873">
        <ele>245.3</ele>
        <time>2020-11-15T09:52:36Z</time>
      </trkpt>
      <trkpt lat="46.76381" lon="-0.78864">
        <ele>244.9</ele>
        <time>2020-11-15T09:52:38Z</time>
      </trkpt>
      <trkpt lat="46.76384" lon="-0.78856">
        <ele>244.5</ele>
        <time>2020-11-15T09:52:40Z</time>
      </trkpt>
      <trkpt lat="46.76386" lon="-0.78851">
        <ele>244.2</ele>
        <time>2020-11-15T09:52:41Z</time>
      </trkpt>
      <trkpt lat="46.76388" lon="-0.78845">
        <ele>243.9</ele>
        <time>2020-11-15T09:52:42Z</time>
      </trkpt>
      <trkpt lat="46.76391" lon="-0.78834">
        <ele>243.3</ele>
        <time>2020-11-15T09:52:44Z</time>
      </trkpt>
      <trkpt lat="46.76392" lon="-0.78828">
        <ele>243</ele>
        <time>2020-11-15T09:52:45Z</time>
      </trkpt>
      <trkpt lat="46.76394" lon="-0.78823">
        <ele>242.7</ele>
        <time>2020-11-15T09:52:46Z</time>
      </trkpt>
      <trkpt lat="46.76395" lon="-0.78816">
        <ele>242.4</ele>
        <time>2020-11-15T09:52:47Z</time>
      </trkpt>
      <trkpt lat="46.76397" lon="-0.7881">
        <ele>242.1</ele>
        <time>2020-11-15T09:52:48Z</time>
      </trkpt>
      <trkpt lat="46.76402" lon="-0.78796">
        <ele>241.6</ele>
        <time>2020-11-15T09:52:50Z</time>
      </trkpt>
      <trkpt lat="46.76407" lon="-0.78781">
        <ele>240.9</ele>
        <time>2020-11-15T09:52:52Z</time>
      </trkpt>
      <trkpt lat="46.76413" lon="-0.78766">
        <ele>239.8</ele>
        <time>2020-11-15T09:52:54Z</time>
      </trkpt>
      <trkpt lat="46.76421" lon="-0.78751">
        <ele>239.2</ele>
        <time>2020-11-15T09:52:56Z</time>
      </trkpt>
      <trkpt lat="46.76429" lon="-0.78737">
        <ele>238.4</ele>
        <time>2020-11-15T09:52:58Z</time>
      </trkpt>
      <trkpt lat="46.76439" lon="-0.78724">
        <ele>237.8</ele>
        <time>2020-11-15T09:53:00Z</time>
      </trkpt>
      <trkpt lat="46.76448" lon="-0.78713">
        <ele>237</ele>
        <time>2020-11-15T09:53:02Z</time>
      </trkpt>
      <trkpt lat="46.76459" lon="-0.78704">
        <ele>236.5</ele>
        <time>2020-11-15T09:53:04Z</time>
      </trkpt>
      <trkpt lat="46.76464" lon="-0.787">
        <ele>236.2</ele>
        <time>2020-11-15T09:53:05Z</time>
      </trkpt>
      <trkpt lat="46.76469" lon="-0.78696">
        <ele>235.9</ele>
        <time>2020-11-15T09:53:06Z</time>
      </trkpt>
      <trkpt lat="46.7648" lon="-0.7869">
        <ele>235.5</ele>
        <time>2020-11-15T09:53:08Z</time>
      </trkpt>
      <trkpt lat="46.7649" lon="-0.78684">
        <ele>235</ele>
        <time>2020-11-15T09:53:10Z</time>
      </trkpt>
      <trkpt lat="46.765" lon="-0.7868">
        <ele>234.6</ele>
        <time>2020-11-15T09:53:12Z</time>
      </trkpt>
      <trkpt lat="46.76509" lon="-0.78674">
        <ele>234.3</ele>
        <time>2020-11-15T09:53:14Z</time>
      </trkpt>
      <trkpt lat="46.76517" lon="-0.78668">
        <ele>234</ele>
        <time>2020-11-15T09:53:16Z</time>
      </trkpt>
      <trkpt lat="46.76525" lon="-0.78662">
        <ele>233.9</ele>
        <time>2020-11-15T09:53:18Z</time>
      </trkpt>
      <trkpt lat="46.76533" lon="-0.78656">
        <ele>233.8</ele>
        <time>2020-11-15T09:53:20Z</time>
      </trkpt>
      <trkpt lat="46.7654" lon="-0.7865">
        <ele>233.8</ele>
        <time>2020-11-15T09:53:22Z</time>
      </trkpt>
      <trkpt lat="46.76549" lon="-0.78646">
        <ele>233.7</ele>
        <time>2020-11-15T09:53:24Z</time>
      </trkpt>
      <trkpt lat="46.76556" lon="-0.78641">
        <ele>233.6</ele>
        <time>2020-11-15T09:53:26Z</time>
      </trkpt>
      <trkpt lat="46.76564" lon="-0.78636">
        <ele>233.5</ele>
        <time>2020-11-15T09:53:28Z</time>
      </trkpt>
      <trkpt lat="46.7657" lon="-0.7863">
        <ele>233.5</ele>
        <time>2020-11-15T09:53:30Z</time>
      </trkpt>
      <trkpt lat="46.76575" lon="-0.78621">
        <ele>233.6</ele>
        <time>2020-11-15T09:53:32Z</time>
      </trkpt>
      <trkpt lat="46.76577" lon="-0.78617">
        <ele>233.6</ele>
        <time>2020-11-15T09:53:33Z</time>
      </trkpt>
      <trkpt lat="46.76579" lon="-0.78611">
        <ele>233.8</ele>
        <time>2020-11-15T09:53:34Z</time>
      </trkpt>
      <trkpt lat="46.76582" lon="-0.786">
        <ele>233.8</ele>
        <time>2020-11-15T09:53:36Z</time>
      </trkpt>
      <trkpt lat="46.76586" lon="-0.78587">
        <ele>233.7</ele>
        <time>2020-11-15T09:53:38Z</time>
      </trkpt>
      <trkpt lat="46.76589" lon="-0.78581">
        <ele>233.5</ele>
        <time>2020-11-15T09:53:39Z</time>
      </trkpt>
      <trkpt lat="46.7659" lon="-0.78575">
        <ele>233.6</ele>
        <time>2020-11-15T09:53:40Z</time>
      </trkpt>
      <trkpt lat="46.76593" lon="-0.78561">
        <ele>233.4</ele>
        <time>2020-11-15T09:53:42Z</time>
      </trkpt>
      <trkpt lat="46.76595" lon="-0.78554">
        <ele>233.2</ele>
        <time>2020-11-15T09:53:43Z</time>
      </trkpt>
      <trkpt lat="46.76596" lon="-0.78547">
        <ele>233.2</ele>
        <time>2020-11-15T09:53:44Z</time>
      </trkpt>
      <trkpt lat="46.76596" lon="-0.78534">
        <ele>233.1</ele>
        <time>2020-11-15T09:53:46Z</time>
      </trkpt>
      <trkpt lat="46.76595" lon="-0.78528">
        <ele>233.1</ele>
        <time>2020-11-15T09:53:47Z</time>
      </trkpt>
      <trkpt lat="46.76593" lon="-0.78521">
        <ele>233.3</ele>
        <time>2020-11-15T09:53:48Z</time>
      </trkpt>
      <trkpt lat="46.7659" lon="-0.78509">
        <ele>233.8</ele>
        <time>2020-11-15T09:53:50Z</time>
      </trkpt>
      <trkpt lat="46.76588" lon="-0.78496">
        <ele>234.5</ele>
        <time>2020-11-15T09:53:52Z</time>
      </trkpt>
      <trkpt lat="46.76582" lon="-0.78483">
        <ele>234.9</ele>
        <time>2020-11-15T09:53:54Z</time>
      </trkpt>
      <trkpt lat="46.7658" lon="-0.78477">
        <ele>235</ele>
        <time>2020-11-15T09:53:55Z</time>
      </trkpt>
      <trkpt lat="46.76579" lon="-0.78469">
        <ele>235</ele>
        <time>2020-11-15T09:53:56Z</time>
      </trkpt>
      <trkpt lat="46.76577" lon="-0.78462">
        <ele>235</ele>
        <time>2020-11-15T09:53:57Z</time>
      </trkpt>
      <trkpt lat="46.76576" lon="-0.78453">
        <ele>235</ele>
        <time>2020-11-15T09:53:58Z</time>
      </trkpt>
      <trkpt lat="46.76577" lon="-0.78444">
        <ele>235</ele>
        <time>2020-11-15T09:53:59Z</time>
      </trkpt>
      <trkpt lat="46.76579" lon="-0.78433">
        <ele>234.9</ele>
        <time>2020-11-15T09:54:00Z</time>
      </trkpt>
      <trkpt lat="46.76582" lon="-0.78421">
        <ele>234.8</ele>
        <time>2020-11-15T09:54:01Z</time>
      </trkpt>
      <trkpt lat="46.76585" lon="-0.7841">
        <ele>234.5</ele>
        <time>2020-11-15T09:54:02Z</time>
      </trkpt>
      <trkpt lat="46.76589" lon="-0.784">
        <ele>234.1</ele>
        <time>2020-11-15T09:54:03Z</time>
      </trkpt>
      <trkpt lat="46.76594" lon="-0.7839">
        <ele>233.8</ele>
        <time>2020-11-15T09:54:04Z</time>
      </trkpt>
      <trkpt lat="46.76599" lon="-0.78381">
        <ele>233.5</ele>
        <time>2020-11-15T09:54:05Z</time>
      </trkpt>
      <trkpt lat="46.76603" lon="-0.78371">
        <ele>233.1</ele>
        <time>2020-11-15T09:54:06Z</time>
      </trkpt>
      <trkpt lat="46.76612" lon="-0.78353">
        <ele>232.2</ele>
        <time>2020-11-15T09:54:08Z</time>
      </trkpt>
      <trkpt lat="46.76616" lon="-0.78345">
        <ele>231.6</ele>
        <time>2020-11-15T09:54:09Z</time>
      </trkpt>
      <trkpt lat="46.76622" lon="-0.78337">
        <ele>231</ele>
        <time>2020-11-15T09:54:10Z</time>
      </trkpt>
      <trkpt lat="46.76631" lon="-0.78326">
        <ele>230.2</ele>
        <time>2020-11-15T09:54:12Z</time>
      </trkpt>
      <trkpt lat="46.76635" lon="-0.78324">
        <ele>230</ele>
        <time>2020-11-15T09:54:13Z</time>
      </trkpt>
      <trkpt lat="46.7664" lon="-0.78323">
        <ele>229.7</ele>
        <time>2020-11-15T09:54:14Z</time>
      </trkpt>
      <trkpt lat="46.76659" lon="-0.7832">
        <ele>228.7</ele>
        <time>2020-11-15T09:54:16Z</time>
      </trkpt>
      <trkpt lat="46.76674" lon="-0.78318">
        <ele>226.9</ele>
        <time>2020-11-15T09:54:18Z</time>
      </trkpt>
      <trkpt lat="46.76681" lon="-0.78315">
        <ele>226.2</ele>
        <time>2020-11-15T09:54:19Z</time>
      </trkpt>
      <trkpt lat="46.76687" lon="-0.7831">
        <ele>225.4</ele>
        <time>2020-11-15T09:54:20Z</time>
      </trkpt>
      <trkpt lat="46.76698" lon="-0.78298">
        <ele>224.2</ele>
        <time>2020-11-15T09:54:22Z</time>
      </trkpt>
      <trkpt lat="46.76708" lon="-0.78287">
        <ele>223.6</ele>
        <time>2020-11-15T09:54:24Z</time>
      </trkpt>
      <trkpt lat="46.76713" lon="-0.78281">
        <ele>223.6</ele>
        <time>2020-11-15T09:54:25Z</time>
      </trkpt>
      <trkpt lat="46.76718" lon="-0.78275">
        <ele>223.3</ele>
        <time>2020-11-15T09:54:26Z</time>
      </trkpt>
      <trkpt lat="46.76722" lon="-0.78269">
        <ele>223.8</ele>
        <time>2020-11-15T09:54:27Z</time>
      </trkpt>
      <trkpt lat="46.76727" lon="-0.78262">
        <ele>223.7</ele>
        <time>2020-11-15T09:54:28Z</time>
      </trkpt>
      <trkpt lat="46.76732" lon="-0.78257">
        <ele>223.9</ele>
        <time>2020-11-15T09:54:29Z</time>
      </trkpt>
      <trkpt lat="46.76737" lon="-0.78252">
        <ele>223.9</ele>
        <time>2020-11-15T09:54:30Z</time>
      </trkpt>
      <trkpt lat="46.76749" lon="-0.78245">
        <ele>224</ele>
        <time>2020-11-15T09:54:32Z</time>
      </trkpt>
      <trkpt lat="46.76755" lon="-0.78242">
        <ele>224</ele>
        <time>2020-11-15T09:54:33Z</time>
      </trkpt>
      <trkpt lat="46.7676" lon="-0.78239">
        <ele>224.1</ele>
        <time>2020-11-15T09:54:34Z</time>
      </trkpt>
      <trkpt lat="46.76771" lon="-0.78234">
        <ele>223.8</ele>
        <time>2020-11-15T09:54:36Z</time>
      </trkpt>
      <trkpt lat="46.76776" lon="-0.78233">
        <ele>223.7</ele>
        <time>2020-11-15T09:54:37Z</time>
      </trkpt>
      <trkpt lat="46.76782" lon="-0.78231">
        <ele>223.3</ele>
        <time>2020-11-15T09:54:38Z</time>
      </trkpt>
      <trkpt lat="46.76792" lon="-0.78228">
        <ele>223.1</ele>
        <time>2020-11-15T09:54:40Z</time>
      </trkpt>
      <trkpt lat="46.76802" lon="-0.78224">
        <ele>223</ele>
        <time>2020-11-15T09:54:42Z</time>
      </trkpt>
      <trkpt lat="46.76811" lon="-0.78219">
        <ele>222.8</ele>
        <time>2020-11-15T09:54:44Z</time>
      </trkpt>
      <trkpt lat="46.76818" lon="-0.78216">
        <ele>222.7</ele>
        <time>2020-11-15T09:54:46Z</time>
      </trkpt>
      <trkpt lat="46.76822" lon="-0.78214">
        <ele>222.7</ele>
        <time>2020-11-15T09:54:47Z</time>
      </trkpt>
      <trkpt lat="46.76827" lon="-0.78214">
        <ele>222.5</ele>
        <time>2020-11-15T09:54:48Z</time>
      </trkpt>
      <trkpt lat="46.76831" lon="-0.78214">
        <ele>222.4</ele>
        <time>2020-11-15T09:54:49Z</time>
      </trkpt>
      <trkpt lat="46.76836" lon="-0.78214">
        <ele>222.3</ele>
        <time>2020-11-15T09:54:50Z</time>
      </trkpt>
      <trkpt lat="46.76841" lon="-0.78215">
        <ele>222.2</ele>
        <time>2020-11-15T09:54:51Z</time>
      </trkpt>
      <trkpt lat="46.76846" lon="-0.78218">
        <ele>222.1</ele>
        <time>2020-11-15T09:54:52Z</time>
      </trkpt>
      <trkpt lat="46.76849" lon="-0.78222">
        <ele>222.1</ele>
        <time>2020-11-15T09:54:53Z</time>
      </trkpt>
      <trkpt lat="46.76849" lon="-0.78228">
        <ele>222</ele>
        <time>2020-11-15T09:54:54Z</time>
      </trkpt>
      <trkpt lat="46.76848" lon="-0.78234">
        <ele>221.8</ele>
        <time>2020-11-15T09:54:55Z</time>
      </trkpt>
      <trkpt lat="46.76846" lon="-0.78241">
        <ele>221.4</ele>
        <time>2020-11-15T09:54:56Z</time>
      </trkpt>
      <trkpt lat="46.76844" lon="-0.78248">
        <ele>221.1</ele>
        <time>2020-11-15T09:54:57Z</time>
      </trkpt>
      <trkpt lat="46.76841" lon="-0.78255">
        <ele>220.7</ele>
        <time>2020-11-15T09:54:58Z</time>
      </trkpt>
      <trkpt lat="46.76835" lon="-0.78271">
        <ele>219.7</ele>
        <time>2020-11-15T09:55:00Z</time>
      </trkpt>
      <trkpt lat="46.76829" lon="-0.78288">
        <ele>218.5</ele>
        <time>2020-11-15T09:55:02Z</time>
      </trkpt>
      <trkpt lat="46.76825" lon="-0.78297">
        <ele>217.7</ele>
        <time>2020-11-15T09:55:03Z</time>
      </trkpt>
      <trkpt lat="46.76821" lon="-0.78307">
        <ele>216.8</ele>
        <time>2020-11-15T09:55:04Z</time>
      </trkpt>
      <trkpt lat="46.76812" lon="-0.78329">
        <ele>214.8</ele>
        <time>2020-11-15T09:55:06Z</time>
      </trkpt>
      <trkpt lat="46.76809" lon="-0.78342">
        <ele>213.8</ele>
        <time>2020-11-15T09:55:07Z</time>
      </trkpt>
      <trkpt lat="46.76808" lon="-0.78357">
        <ele>212.9</ele>
        <time>2020-11-15T09:55:08Z</time>
      </trkpt>
      <trkpt lat="46.76809" lon="-0.78386">
        <ele>211.8</ele>
        <time>2020-11-15T09:55:10Z</time>
      </trkpt>
      <trkpt lat="46.76816" lon="-0.78414">
        <ele>211.8</ele>
        <time>2020-11-15T09:55:12Z</time>
      </trkpt>
      <trkpt lat="46.76819" lon="-0.78427">
        <ele>212.1</ele>
        <time>2020-11-15T09:55:13Z</time>
      </trkpt>
      <trkpt lat="46.7682" lon="-0.78441">
        <ele>212.5</ele>
        <time>2020-11-15T09:55:14Z</time>
      </trkpt>
      <trkpt lat="46.76822" lon="-0.78464">
        <ele>213.5</ele>
        <time>2020-11-15T09:55:16Z</time>
      </trkpt>
      <trkpt lat="46.76825" lon="-0.78474">
        <ele>214</ele>
        <time>2020-11-15T09:55:17Z</time>
      </trkpt>
      <trkpt lat="46.7683" lon="-0.7848">
        <ele>214.6</ele>
        <time>2020-11-15T09:55:18Z</time>
      </trkpt>
      <trkpt lat="46.76837" lon="-0.78485">
        <ele>215.1</ele>
        <time>2020-11-15T09:55:19Z</time>
      </trkpt>
      <trkpt lat="46.76842" lon="-0.78488">
        <ele>215.7</ele>
        <time>2020-11-15T09:55:20Z</time>
      </trkpt>
      <trkpt lat="46.76853" lon="-0.78492">
        <ele>216.6</ele>
        <time>2020-11-15T09:55:22Z</time>
      </trkpt>
      <trkpt lat="46.76864" lon="-0.78496">
        <ele>217.4</ele>
        <time>2020-11-15T09:55:24Z</time>
      </trkpt>
      <trkpt lat="46.76872" lon="-0.78494">
        <ele>217.8</ele>
        <time>2020-11-15T09:55:26Z</time>
      </trkpt>
      <trkpt lat="46.76877" lon="-0.78494">
        <ele>217.8</ele>
        <time>2020-11-15T09:55:27Z</time>
      </trkpt>
      <trkpt lat="46.76882" lon="-0.78494">
        <ele>217.8</ele>
        <time>2020-11-15T09:55:28Z</time>
      </trkpt>
      <trkpt lat="46.76892" lon="-0.78494">
        <ele>217.5</ele>
        <time>2020-11-15T09:55:30Z</time>
      </trkpt>
      <trkpt lat="46.76903" lon="-0.78495">
        <ele>217.2</ele>
        <time>2020-11-15T09:55:32Z</time>
      </trkpt>
      <trkpt lat="46.76914" lon="-0.78496">
        <ele>216.8</ele>
        <time>2020-11-15T09:55:34Z</time>
      </trkpt>
      <trkpt lat="46.76926" lon="-0.78497">
        <ele>216.4</ele>
        <time>2020-11-15T09:55:36Z</time>
      </trkpt>
      <trkpt lat="46.76938" lon="-0.78499">
        <ele>216</ele>
        <time>2020-11-15T09:55:38Z</time>
      </trkpt>
      <trkpt lat="46.76945" lon="-0.785">
        <ele>215.7</ele>
        <time>2020-11-15T09:55:39Z</time>
      </trkpt>
      <trkpt lat="46.76951" lon="-0.785">
        <ele>215.4</ele>
        <time>2020-11-15T09:55:40Z</time>
      </trkpt>
      <trkpt lat="46.76965" lon="-0.78503">
        <ele>214.8</ele>
        <time>2020-11-15T09:55:42Z</time>
      </trkpt>
      <trkpt lat="46.7698" lon="-0.78508">
        <ele>214</ele>
        <time>2020-11-15T09:55:44Z</time>
      </trkpt>
      <trkpt lat="46.76994" lon="-0.78515">
        <ele>213.2</ele>
        <time>2020-11-15T09:55:46Z</time>
      </trkpt>
      <trkpt lat="46.77008" lon="-0.78524">
        <ele>212.7</ele>
        <time>2020-11-15T09:55:48Z</time>
      </trkpt>
      <trkpt lat="46.77014" lon="-0.78531">
        <ele>212.4</ele>
        <time>2020-11-15T09:55:49Z</time>
      </trkpt>
      <trkpt lat="46.77021" lon="-0.78538">
        <ele>212.2</ele>
        <time>2020-11-15T09:55:50Z</time>
      </trkpt>
      <trkpt lat="46.77035" lon="-0.78553">
        <ele>211.9</ele>
        <time>2020-11-15T09:55:52Z</time>
      </trkpt>
      <trkpt lat="46.77047" lon="-0.78569">
        <ele>211.9</ele>
        <time>2020-11-15T09:55:54Z</time>
      </trkpt>
      <trkpt lat="46.77059" lon="-0.78586">
        <ele>212.4</ele>
        <time>2020-11-15T09:55:56Z</time>
      </trkpt>
      <trkpt lat="46.7707" lon="-0.78601">
        <ele>213.2</ele>
        <time>2020-11-15T09:55:58Z</time>
      </trkpt>
      <trkpt lat="46.77075" lon="-0.78607">
        <ele>213.6</ele>
        <time>2020-11-15T09:55:59Z</time>
      </trkpt>
      <trkpt lat="46.77079" lon="-0.78614">
        <ele>214</ele>
        <time>2020-11-15T09:56:00Z</time>
      </trkpt>
      <trkpt lat="46.77087" lon="-0.78624">
        <ele>214.8</ele>
        <time>2020-11-15T09:56:02Z</time>
      </trkpt>
      <trkpt lat="46.77093" lon="-0.78632">
        <ele>215.5</ele>
        <time>2020-11-15T09:56:04Z</time>
      </trkpt>
      <trkpt lat="46.77099" lon="-0.78639">
        <ele>216.2</ele>
        <time>2020-11-15T09:56:06Z</time>
      </trkpt>
      <trkpt lat="46.77104" lon="-0.78644">
        <ele>216.9</ele>
        <time>2020-11-15T09:56:08Z</time>
      </trkpt>
      <trkpt lat="46.7711" lon="-0.78649">
        <ele>217.6</ele>
        <time>2020-11-15T09:56:10Z</time>
      </trkpt>
      <trkpt lat="46.77114" lon="-0.78651">
        <ele>218</ele>
        <time>2020-11-15T09:56:11Z</time>
      </trkpt>
      <trkpt lat="46.77117" lon="-0.78652">
        <ele>218.3</ele>
        <time>2020-11-15T09:56:12Z</time>
      </trkpt>
      <trkpt lat="46.77123" lon="-0.78655">
        <ele>219</ele>
        <time>2020-11-15T09:56:14Z</time>
      </trkpt>
      <trkpt lat="46.77129" lon="-0.78657">
        <ele>219.6</ele>
        <time>2020-11-15T09:56:16Z</time>
      </trkpt>
      <trkpt lat="46.77133" lon="-0.78657">
        <ele>219.9</ele>
        <time>2020-11-15T09:56:17Z</time>
      </trkpt>
      <trkpt lat="46.77136" lon="-0.78658">
        <ele>220.2</ele>
        <time>2020-11-15T09:56:18Z</time>
      </trkpt>
      <trkpt lat="46.77142" lon="-0.78659">
        <ele>220.7</ele>
        <time>2020-11-15T09:56:20Z</time>
      </trkpt>
      <trkpt lat="46.7715" lon="-0.78661">
        <ele>221.2</ele>
        <time>2020-11-15T09:56:22Z</time>
      </trkpt>
      <trkpt lat="46.77157" lon="-0.78662">
        <ele>221.6</ele>
        <time>2020-11-15T09:56:24Z</time>
      </trkpt>
      <trkpt lat="46.77164" lon="-0.78662">
        <ele>222</ele>
        <time>2020-11-15T09:56:26Z</time>
      </trkpt>
      <trkpt lat="46.77168" lon="-0.78663">
        <ele>222.1</ele>
        <time>2020-11-15T09:56:27Z</time>
      </trkpt>
      <trkpt lat="46.77172" lon="-0.78664">
        <ele>222.3</ele>
        <time>2020-11-15T09:56:28Z</time>
      </trkpt>
      <trkpt lat="46.77177" lon="-0.78665">
        <ele>222.4</ele>
        <time>2020-11-15T09:56:30Z</time>
      </trkpt>
      <trkpt lat="46.77179" lon="-0.78666">
        <ele>222.4</ele>
        <time>2020-11-15T09:56:31Z</time>
      </trkpt>
      <trkpt lat="46.77181" lon="-0.78666">
        <ele>222.4</ele>
        <time>2020-11-15T09:56:32Z</time>
      </trkpt>
      <trkpt lat="46.77189" lon="-0.78667">
        <ele>222.3</ele>
        <time>2020-11-15T09:56:34Z</time>
      </trkpt>
      <trkpt lat="46.77194" lon="-0.78667">
        <ele>222.2</ele>
        <time>2020-11-15T09:56:35Z</time>
      </trkpt>
      <trkpt lat="46.77199" lon="-0.78667">
        <ele>221.9</ele>
        <time>2020-11-15T09:56:36Z</time>
      </trkpt>
      <trkpt lat="46.77204" lon="-0.78668">
        <ele>221.5</ele>
        <time>2020-11-15T09:56:37Z</time>
      </trkpt>
      <trkpt lat="46.77211" lon="-0.78669">
        <ele>221</ele>
        <time>2020-11-15T09:56:38Z</time>
      </trkpt>
      <trkpt lat="46.77224" lon="-0.7867">
        <ele>219.6</ele>
        <time>2020-11-15T09:56:40Z</time>
      </trkpt>
      <trkpt lat="46.7724" lon="-0.78671">
        <ele>217.8</ele>
        <time>2020-11-15T09:56:42Z</time>
      </trkpt>
      <trkpt lat="46.7726" lon="-0.78673">
        <ele>215.8</ele>
        <time>2020-11-15T09:56:44Z</time>
      </trkpt>
      <trkpt lat="46.7728" lon="-0.78676">
        <ele>213.9</ele>
        <time>2020-11-15T09:56:46Z</time>
      </trkpt>
      <trkpt lat="46.7729" lon="-0.78677">
        <ele>213</ele>
        <time>2020-11-15T09:56:47Z</time>
      </trkpt>
      <trkpt lat="46.77301" lon="-0.78678">
        <ele>212.3</ele>
        <time>2020-11-15T09:56:48Z</time>
      </trkpt>
      <trkpt lat="46.7732" lon="-0.7868">
        <ele>211.8</ele>
        <time>2020-11-15T09:56:50Z</time>
      </trkpt>
      <trkpt lat="46.77336" lon="-0.78679">
        <ele>211.7</ele>
        <time>2020-11-15T09:56:52Z</time>
      </trkpt>
      <trkpt lat="46.77346" lon="-0.78671">
        <ele>211.6</ele>
        <time>2020-11-15T09:56:54Z</time>
      </trkpt>
      <trkpt lat="46.7735" lon="-0.78656">
        <ele>211</ele>
        <time>2020-11-15T09:56:56Z</time>
      </trkpt>
      <trkpt lat="46.77351" lon="-0.78649">
        <ele>210.9</ele>
        <time>2020-11-15T09:56:57Z</time>
      </trkpt>
      <trkpt lat="46.77352" lon="-0.78641">
        <ele>210.8</ele>
        <time>2020-11-15T09:56:58Z</time>
      </trkpt>
      <trkpt lat="46.77354" lon="-0.78627">
        <ele>210.8</ele>
        <time>2020-11-15T09:57:00Z</time>
      </trkpt>
      <trkpt lat="46.77356" lon="-0.78613">
        <ele>210.8</ele>
        <time>2020-11-15T09:57:02Z</time>
      </trkpt>
      <trkpt lat="46.77359" lon="-0.786">
        <ele>210.8</ele>
        <time>2020-11-15T09:57:04Z</time>
      </trkpt>
      <trkpt lat="46.77361" lon="-0.78587">
        <ele>210.9</ele>
        <time>2020-11-15T09:57:06Z</time>
      </trkpt>
      <trkpt lat="46.77361" lon="-0.78581">
        <ele>210.9</ele>
        <time>2020-11-15T09:57:07Z</time>
      </trkpt>
      <trkpt lat="46.77361" lon="-0.78576">
        <ele>211</ele>
        <time>2020-11-15T09:57:08Z</time>
      </trkpt>
      <trkpt lat="46.77363" lon="-0.78565">
        <ele>211.1</ele>
        <time>2020-11-15T09:57:10Z</time>
      </trkpt>
      <trkpt lat="46.77366" lon="-0.78559">
        <ele>211.1</ele>
        <time>2020-11-15T09:57:11Z</time>
      </trkpt>
      <trkpt lat="46.77366" lon="-0.78552">
        <ele>211.1</ele>
        <time>2020-11-15T09:57:12Z</time>
      </trkpt>
      <trkpt lat="46.77367" lon="-0.78544">
        <ele>211</ele>
        <time>2020-11-15T09:57:14Z</time>
      </trkpt>
      <trkpt lat="46.77366" lon="-0.78541">
        <ele>210.9</ele>
        <time>2020-11-15T09:57:15Z</time>
      </trkpt>
      <trkpt lat="46.77364" lon="-0.78538">
        <ele>210.8</ele>
        <time>2020-11-15T09:57:16Z</time>
      </trkpt>
      <trkpt lat="46.7736" lon="-0.78532">
        <ele>210.6</ele>
        <time>2020-11-15T09:57:18Z</time>
      </trkpt>
      <trkpt lat="46.77356" lon="-0.78525">
        <ele>210.1</ele>
        <time>2020-11-15T09:57:20Z</time>
      </trkpt>
      <trkpt lat="46.77351" lon="-0.78515">
        <ele>209.5</ele>
        <time>2020-11-15T09:57:22Z</time>
      </trkpt>
      <trkpt lat="46.77344" lon="-0.78501">
        <ele>208.7</ele>
        <time>2020-11-15T09:57:24Z</time>
      </trkpt>
      <trkpt lat="46.77337" lon="-0.78486">
        <ele>208.2</ele>
        <time>2020-11-15T09:57:26Z</time>
      </trkpt>
      <trkpt lat="46.77333" lon="-0.78479">
        <ele>208.1</ele>
        <time>2020-11-15T09:57:27Z</time>
      </trkpt>
      <trkpt lat="46.7733" lon="-0.78472">
        <ele>208.1</ele>
        <time>2020-11-15T09:57:28Z</time>
      </trkpt>
      <trkpt lat="46.77325" lon="-0.78461">
        <ele>208.1</ele>
        <time>2020-11-15T09:57:30Z</time>
      </trkpt>
      <trkpt lat="46.77324" lon="-0.78457">
        <ele>208.2</ele>
        <time>2020-11-15T09:57:31Z</time>
      </trkpt>
      <trkpt lat="46.77323" lon="-0.78452">
        <ele>208.2</ele>
        <time>2020-11-15T09:57:32Z</time>
      </trkpt>
      <trkpt lat="46.77321" lon="-0.78447">
        <ele>208.3</ele>
        <time>2020-11-15T09:57:34Z</time>
      </trkpt>
      <trkpt lat="46.7732" lon="-0.7844">
        <ele>208.4</ele>
        <time>2020-11-15T09:57:36Z</time>
      </trkpt>
      <trkpt lat="46.7732" lon="-0.78437">
        <ele>208.5</ele>
        <time>2020-11-15T09:57:37Z</time>
      </trkpt>
      <trkpt lat="46.77318" lon="-0.78434">
        <ele>208.5</ele>
        <time>2020-11-15T09:57:38Z</time>
      </trkpt>
      <trkpt lat="46.77316" lon="-0.78428">
        <ele>208.6</ele>
        <time>2020-11-15T09:57:40Z</time>
      </trkpt>
      <trkpt lat="46.77313" lon="-0.7842">
        <ele>208.7</ele>
        <time>2020-11-15T09:57:42Z</time>
      </trkpt>
      <trkpt lat="46.77311" lon="-0.78417">
        <ele>208.7</ele>
        <time>2020-11-15T09:57:43Z</time>
      </trkpt>
      <trkpt lat="46.7731" lon="-0.78413">
        <ele>208.8</ele>
        <time>2020-11-15T09:57:44Z</time>
      </trkpt>
      <trkpt lat="46.77305" lon="-0.78406">
        <ele>208.8</ele>
        <time>2020-11-15T09:57:45Z</time>
      </trkpt>
      <trkpt lat="46.77304" lon="-0.78403">
        <ele>208.8</ele>
        <time>2020-11-15T09:57:46Z</time>
      </trkpt>
      <trkpt lat="46.77298" lon="-0.78394">
        <ele>208.8</ele>
        <time>2020-11-15T09:57:48Z</time>
      </trkpt>
      <trkpt lat="46.77285" lon="-0.78378">
        <ele>208.6</ele>
        <time>2020-11-15T09:57:50Z</time>
      </trkpt>
      <trkpt lat="46.77272" lon="-0.78364">
        <ele>208.3</ele>
        <time>2020-11-15T09:57:52Z</time>
      </trkpt>
      <trkpt lat="46.77262" lon="-0.78351">
        <ele>208</ele>
        <time>2020-11-15T09:57:54Z</time>
      </trkpt>
      <trkpt lat="46.77251" lon="-0.78336">
        <ele>207.7</ele>
        <time>2020-11-15T09:57:56Z</time>
      </trkpt>
      <trkpt lat="46.7724" lon="-0.78323">
        <ele>207.5</ele>
        <time>2020-11-15T09:57:58Z</time>
      </trkpt>
      <trkpt lat="46.77232" lon="-0.78311">
        <ele>207.3</ele>
        <time>2020-11-15T09:58:00Z</time>
      </trkpt>
      <trkpt lat="46.77228" lon="-0.78302">
        <ele>207.2</ele>
        <time>2020-11-15T09:58:02Z</time>
      </trkpt>
      <trkpt lat="46.77225" lon="-0.78296">
        <ele>207.1</ele>
        <time>2020-11-15T09:58:03Z</time>
      </trkpt>
      <trkpt lat="46.77222" lon="-0.78293">
        <ele>207.1</ele>
        <time>2020-11-15T09:58:04Z</time>
      </trkpt>
      <trkpt lat="46.77217" lon="-0.78282">
        <ele>207</ele>
        <time>2020-11-15T09:58:06Z</time>
      </trkpt>
      <trkpt lat="46.77213" lon="-0.78276">
        <ele>207</ele>
        <time>2020-11-15T09:58:07Z</time>
      </trkpt>
      <trkpt lat="46.77211" lon="-0.78271">
        <ele>207</ele>
        <time>2020-11-15T09:58:08Z</time>
      </trkpt>
      <trkpt lat="46.77203" lon="-0.78257">
        <ele>207</ele>
        <time>2020-11-15T09:58:10Z</time>
      </trkpt>
      <trkpt lat="46.77195" lon="-0.78245">
        <ele>206.9</ele>
        <time>2020-11-15T09:58:12Z</time>
      </trkpt>
      <trkpt lat="46.77184" lon="-0.78227">
        <ele>206.7</ele>
        <time>2020-11-15T09:58:14Z</time>
      </trkpt>
      <trkpt lat="46.7718" lon="-0.78219">
        <ele>206.5</ele>
        <time>2020-11-15T09:58:15Z</time>
      </trkpt>
      <trkpt lat="46.77176" lon="-0.78212">
        <ele>206.4</ele>
        <time>2020-11-15T09:58:16Z</time>
      </trkpt>
      <trkpt lat="46.77171" lon="-0.78204">
        <ele>206.2</ele>
        <time>2020-11-15T09:58:17Z</time>
      </trkpt>
      <trkpt lat="46.77168" lon="-0.78197">
        <ele>206</ele>
        <time>2020-11-15T09:58:18Z</time>
      </trkpt>
      <trkpt lat="46.77163" lon="-0.78184">
        <ele>205.9</ele>
        <time>2020-11-15T09:58:20Z</time>
      </trkpt>
      <trkpt lat="46.77162" lon="-0.78179">
        <ele>205.9</ele>
        <time>2020-11-15T09:58:21Z</time>
      </trkpt>
      <trkpt lat="46.77159" lon="-0.78172">
        <ele>206</ele>
        <time>2020-11-15T09:58:22Z</time>
      </trkpt>
      <trkpt lat="46.77157" lon="-0.78162">
        <ele>206.2</ele>
        <time>2020-11-15T09:58:24Z</time>
      </trkpt>
      <trkpt lat="46.77156" lon="-0.78158">
        <ele>206.3</ele>
        <time>2020-11-15T09:58:25Z</time>
      </trkpt>
      <trkpt lat="46.77156" lon="-0.78153">
        <ele>206.4</ele>
        <time>2020-11-15T09:58:26Z</time>
      </trkpt>
      <trkpt lat="46.77151" lon="-0.78143">
        <ele>206.7</ele>
        <time>2020-11-15T09:58:28Z</time>
      </trkpt>
      <trkpt lat="46.77146" lon="-0.78132">
        <ele>207.2</ele>
        <time>2020-11-15T09:58:30Z</time>
      </trkpt>
      <trkpt lat="46.77141" lon="-0.78121">
        <ele>207.8</ele>
        <time>2020-11-15T09:58:32Z</time>
      </trkpt>
      <trkpt lat="46.77138" lon="-0.78112">
        <ele>208.4</ele>
        <time>2020-11-15T09:58:34Z</time>
      </trkpt>
      <trkpt lat="46.77137" lon="-0.78108">
        <ele>208.7</ele>
        <time>2020-11-15T09:58:35Z</time>
      </trkpt>
      <trkpt lat="46.77136" lon="-0.78104">
        <ele>209</ele>
        <time>2020-11-15T09:58:36Z</time>
      </trkpt>
      <trkpt lat="46.77135" lon="-0.78094">
        <ele>209.7</ele>
        <time>2020-11-15T09:58:38Z</time>
      </trkpt>
      <trkpt lat="46.77132" lon="-0.78088">
        <ele>210.3</ele>
        <time>2020-11-15T09:58:39Z</time>
      </trkpt>
      <trkpt lat="46.7713" lon="-0.78081">
        <ele>210.8</ele>
        <time>2020-11-15T09:58:40Z</time>
      </trkpt>
      <trkpt lat="46.77128" lon="-0.78076">
        <ele>211.3</ele>
        <time>2020-11-15T09:58:41Z</time>
      </trkpt>
      <trkpt lat="46.77126" lon="-0.78071">
        <ele>211.6</ele>
        <time>2020-11-15T09:58:42Z</time>
      </trkpt>
      <trkpt lat="46.77124" lon="-0.78067">
        <ele>212</ele>
        <time>2020-11-15T09:58:43Z</time>
      </trkpt>
      <trkpt lat="46.77122" lon="-0.78062">
        <ele>212.4</ele>
        <time>2020-11-15T09:58:44Z</time>
      </trkpt>
      <trkpt lat="46.77119" lon="-0.78053">
        <ele>212.9</ele>
        <time>2020-11-15T09:58:46Z</time>
      </trkpt>
      <trkpt lat="46.77117" lon="-0.78049">
        <ele>213.2</ele>
        <time>2020-11-15T09:58:47Z</time>
      </trkpt>
      <trkpt lat="46.77116" lon="-0.78044">
        <ele>213.5</ele>
        <time>2020-11-15T09:58:48Z</time>
      </trkpt>
      <trkpt lat="46.77114" lon="-0.78035">
        <ele>213.9</ele>
        <time>2020-11-15T09:58:50Z</time>
      </trkpt>
      <trkpt lat="46.77114" lon="-0.78025">
        <ele>214.4</ele>
        <time>2020-11-15T09:58:52Z</time>
      </trkpt>
      <trkpt lat="46.77115" lon="-0.78016">
        <ele>214.7</ele>
        <time>2020-11-15T09:58:54Z</time>
      </trkpt>
      <trkpt lat="46.77115" lon="-0.78007">
        <ele>215</ele>
        <time>2020-11-15T09:58:56Z</time>
      </trkpt>
      <trkpt lat="46.77114" lon="-0.77997">
        <ele>215.2</ele>
        <time>2020-11-15T09:58:58Z</time>
      </trkpt>
      <trkpt lat="46.77114" lon="-0.77991">
        <ele>215.3</ele>
        <time>2020-11-15T09:58:59Z</time>
      </trkpt>
      <trkpt lat="46.77113" lon="-0.77986">
        <ele>215.3</ele>
        <time>2020-11-15T09:59:00Z</time>
      </trkpt>
      <trkpt lat="46.77112" lon="-0.77975">
        <ele>215.4</ele>
        <time>2020-11-15T09:59:02Z</time>
      </trkpt>
      <trkpt lat="46.77111" lon="-0.77963">
        <ele>215.5</ele>
        <time>2020-11-15T09:59:04Z</time>
      </trkpt>
      <trkpt lat="46.77111" lon="-0.77952">
        <ele>215.5</ele>
        <time>2020-11-15T09:59:06Z</time>
      </trkpt>
      <trkpt lat="46.7711" lon="-0.77942">
        <ele>215.6</ele>
        <time>2020-11-15T09:59:08Z</time>
      </trkpt>
      <trkpt lat="46.77108" lon="-0.77932">
        <ele>215.6</ele>
        <time>2020-11-15T09:59:10Z</time>
      </trkpt>
      <trkpt lat="46.77107" lon="-0.77922">
        <ele>215.6</ele>
        <time>2020-11-15T09:59:12Z</time>
      </trkpt>
      <trkpt lat="46.77106" lon="-0.77912">
        <ele>215.6</ele>
        <time>2020-11-15T09:59:14Z</time>
      </trkpt>
      <trkpt lat="46.77106" lon="-0.77907">
        <ele>215.6</ele>
        <time>2020-11-15T09:59:15Z</time>
      </trkpt>
      <trkpt lat="46.77106" lon="-0.77903">
        <ele>215.5</ele>
        <time>2020-11-15T09:59:16Z</time>
      </trkpt>
      <trkpt lat="46.77109" lon="-0.77895">
        <ele>215.3</ele>
        <time>2020-11-15T09:59:18Z</time>
      </trkpt>
      <trkpt lat="46.77111" lon="-0.77884">
        <ele>215</ele>
        <time>2020-11-15T09:59:20Z</time>
      </trkpt>
      <trkpt lat="46.77113" lon="-0.77878">
        <ele>214.8</ele>
        <time>2020-11-15T09:59:21Z</time>
      </trkpt>
      <trkpt lat="46.77116" lon="-0.77871">
        <ele>214.5</ele>
        <time>2020-11-15T09:59:22Z</time>
      </trkpt>
      <trkpt lat="46.77121" lon="-0.77858">
        <ele>213.9</ele>
        <time>2020-11-15T09:59:24Z</time>
      </trkpt>
      <trkpt lat="46.77122" lon="-0.77851">
        <ele>213.7</ele>
        <time>2020-11-15T09:59:25Z</time>
      </trkpt>
      <trkpt lat="46.77122" lon="-0.77844">
        <ele>213.4</ele>
        <time>2020-11-15T09:59:26Z</time>
      </trkpt>
      <trkpt lat="46.77122" lon="-0.77832">
        <ele>213</ele>
        <time>2020-11-15T09:59:28Z</time>
      </trkpt>
      <trkpt lat="46.77123" lon="-0.77826">
        <ele>212.9</ele>
        <time>2020-11-15T09:59:29Z</time>
      </trkpt>
      <trkpt lat="46.77125" lon="-0.7782">
        <ele>212.7</ele>
        <time>2020-11-15T09:59:30Z</time>
      </trkpt>
      <trkpt lat="46.77125" lon="-0.77811">
        <ele>212.4</ele>
        <time>2020-11-15T09:59:31Z</time>
      </trkpt>
      <trkpt lat="46.77124" lon="-0.77801">
        <ele>212</ele>
        <time>2020-11-15T09:59:32Z</time>
      </trkpt>
      <trkpt lat="46.77122" lon="-0.77781">
        <ele>211.1</ele>
        <time>2020-11-15T09:59:34Z</time>
      </trkpt>
      <trkpt lat="46.77122" lon="-0.7777">
        <ele>210.6</ele>
        <time>2020-11-15T09:59:35Z</time>
      </trkpt>
      <trkpt lat="46.77122" lon="-0.77759">
        <ele>210</ele>
        <time>2020-11-15T09:59:36Z</time>
      </trkpt>
      <trkpt lat="46.77121" lon="-0.77748">
        <ele>209.5</ele>
        <time>2020-11-15T09:59:37Z</time>
      </trkpt>
      <trkpt lat="46.7712" lon="-0.77736">
        <ele>208.9</ele>
        <time>2020-11-15T09:59:38Z</time>
      </trkpt>
      <trkpt lat="46.7712" lon="-0.77725">
        <ele>208.4</ele>
        <time>2020-11-15T09:59:39Z</time>
      </trkpt>
      <trkpt lat="46.77119" lon="-0.77714">
        <ele>208</ele>
        <time>2020-11-15T09:59:40Z</time>
      </trkpt>
      <trkpt lat="46.77118" lon="-0.77694">
        <ele>207.3</ele>
        <time>2020-11-15T09:59:42Z</time>
      </trkpt>
      <trkpt lat="46.77116" lon="-0.77685">
        <ele>207.1</ele>
        <time>2020-11-15T09:59:43Z</time>
      </trkpt>
      <trkpt lat="46.77114" lon="-0.77676">
        <ele>206.8</ele>
        <time>2020-11-15T09:59:44Z</time>
      </trkpt>
      <trkpt lat="46.77107" lon="-0.77659">
        <ele>206.1</ele>
        <time>2020-11-15T09:59:46Z</time>
      </trkpt>
      <trkpt lat="46.77103" lon="-0.7765">
        <ele>205.6</ele>
        <time>2020-11-15T09:59:47Z</time>
      </trkpt>
      <trkpt lat="46.77099" lon="-0.77643">
        <ele>205</ele>
        <time>2020-11-15T09:59:48Z</time>
      </trkpt>
      <trkpt lat="46.77096" lon="-0.77635">
        <ele>204.4</ele>
        <time>2020-11-15T09:59:49Z</time>
      </trkpt>
      <trkpt lat="46.77092" lon="-0.77629">
        <ele>203.9</ele>
        <time>2020-11-15T09:59:50Z</time>
      </trkpt>
      <trkpt lat="46.77087" lon="-0.77624">
        <ele>203.3</ele>
        <time>2020-11-15T09:59:51Z</time>
      </trkpt>
      <trkpt lat="46.77083" lon="-0.77619">
        <ele>202.7</ele>
        <time>2020-11-15T09:59:52Z</time>
      </trkpt>
      <trkpt lat="46.77073" lon="-0.77608">
        <ele>201.4</ele>
        <time>2020-11-15T09:59:54Z</time>
      </trkpt>
      <trkpt lat="46.77069" lon="-0.77603">
        <ele>200.7</ele>
        <time>2020-11-15T09:59:55Z</time>
      </trkpt>
      <trkpt lat="46.77066" lon="-0.77595">
        <ele>200</ele>
        <time>2020-11-15T09:59:56Z</time>
      </trkpt>
      <trkpt lat="46.77059" lon="-0.77577">
        <ele>198.3</ele>
        <time>2020-11-15T09:59:58Z</time>
      </trkpt>
      <trkpt lat="46.77055" lon="-0.77568">
        <ele>197.6</ele>
        <time>2020-11-15T09:59:59Z</time>
      </trkpt>
      <trkpt lat="46.77052" lon="-0.77559">
        <ele>197.1</ele>
        <time>2020-11-15T10:00:00Z</time>
      </trkpt>
      <trkpt lat="46.77052" lon="-0.77542">
        <ele>196.4</ele>
        <time>2020-11-15T10:00:02Z</time>
      </trkpt>
      <trkpt lat="46.77051" lon="-0.77533">
        <ele>196.1</ele>
        <time>2020-11-15T10:00:03Z</time>
      </trkpt>
      <trkpt lat="46.77051" lon="-0.77524">
        <ele>195.8</ele>
        <time>2020-11-15T10:00:04Z</time>
      </trkpt>
      <trkpt lat="46.77051" lon="-0.77513">
        <ele>195.5</ele>
        <time>2020-11-15T10:00:05Z</time>
      </trkpt>
      <trkpt lat="46.77052" lon="-0.77504">
        <ele>195.5</ele>
        <time>2020-11-15T10:00:06Z</time>
      </trkpt>
      <trkpt lat="46.77052" lon="-0.77491">
        <ele>195.5</ele>
        <time>2020-11-15T10:00:08Z</time>
      </trkpt>
      <trkpt lat="46.77053" lon="-0.77486">
        <ele>195.6</ele>
        <time>2020-11-15T10:00:09Z</time>
      </trkpt>
      <trkpt lat="46.77053" lon="-0.77481">
        <ele>195.7</ele>
        <time>2020-11-15T10:00:10Z</time>
      </trkpt>
      <trkpt lat="46.77056" lon="-0.77468">
        <ele>195.8</ele>
        <time>2020-11-15T10:00:12Z</time>
      </trkpt>
      <trkpt lat="46.77058" lon="-0.77455">
        <ele>196</ele>
        <time>2020-11-15T10:00:14Z</time>
      </trkpt>
      <trkpt lat="46.77061" lon="-0.77442">
        <ele>196.3</ele>
        <time>2020-11-15T10:00:16Z</time>
      </trkpt>
      <trkpt lat="46.77066" lon="-0.77432">
        <ele>196.5</ele>
        <time>2020-11-15T10:00:18Z</time>
      </trkpt>
      <trkpt lat="46.77068" lon="-0.77428">
        <ele>196.6</ele>
        <time>2020-11-15T10:00:19Z</time>
      </trkpt>
      <trkpt lat="46.77071" lon="-0.77424">
        <ele>196.7</ele>
        <time>2020-11-15T10:00:20Z</time>
      </trkpt>
      <trkpt lat="46.77072" lon="-0.7742">
        <ele>196.8</ele>
        <time>2020-11-15T10:00:21Z</time>
      </trkpt>
      <trkpt lat="46.77073" lon="-0.77416">
        <ele>196.9</ele>
        <time>2020-11-15T10:00:22Z</time>
      </trkpt>
      <trkpt lat="46.77077" lon="-0.77407">
        <ele>197.1</ele>
        <time>2020-11-15T10:00:24Z</time>
      </trkpt>
      <trkpt lat="46.77079" lon="-0.77401">
        <ele>197.2</ele>
        <time>2020-11-15T10:00:25Z</time>
      </trkpt>
      <trkpt lat="46.77081" lon="-0.77395">
        <ele>197.4</ele>
        <time>2020-11-15T10:00:26Z</time>
      </trkpt>
      <trkpt lat="46.77086" lon="-0.77383">
        <ele>197.6</ele>
        <time>2020-11-15T10:00:28Z</time>
      </trkpt>
      <trkpt lat="46.77092" lon="-0.77375">
        <ele>197.8</ele>
        <time>2020-11-15T10:00:30Z</time>
      </trkpt>
      <trkpt lat="46.77096" lon="-0.77371">
        <ele>197.9</ele>
        <time>2020-11-15T10:00:31Z</time>
      </trkpt>
      <trkpt lat="46.77101" lon="-0.77369">
        <ele>198</ele>
        <time>2020-11-15T10:00:32Z</time>
      </trkpt>
      <trkpt lat="46.77107" lon="-0.77365">
        <ele>198.2</ele>
        <time>2020-11-15T10:00:34Z</time>
      </trkpt>
      <trkpt lat="46.77113" lon="-0.77363">
        <ele>198.3</ele>
        <time>2020-11-15T10:00:36Z</time>
      </trkpt>
      <trkpt lat="46.77119" lon="-0.77359">
        <ele>198.4</ele>
        <time>2020-11-15T10:00:38Z</time>
      </trkpt>
      <trkpt lat="46.77125" lon="-0.77356">
        <ele>198.5</ele>
        <time>2020-11-15T10:00:40Z</time>
      </trkpt>
      <trkpt lat="46.77138" lon="-0.77351">
        <ele>198.6</ele>
        <time>2020-11-15T10:00:42Z</time>
      </trkpt>
      <trkpt lat="46.7715" lon="-0.77345">
        <ele>198.3</ele>
        <time>2020-11-15T10:00:44Z</time>
      </trkpt>
      <trkpt lat="46.77163" lon="-0.77341">
        <ele>198</ele>
        <time>2020-11-15T10:00:46Z</time>
      </trkpt>
      <trkpt lat="46.77175" lon="-0.77337">
        <ele>197.8</ele>
        <time>2020-11-15T10:00:48Z</time>
      </trkpt>
      <trkpt lat="46.77187" lon="-0.77334">
        <ele>197.7</ele>
        <time>2020-11-15T10:00:50Z</time>
      </trkpt>
      <trkpt lat="46.772" lon="-0.77331">
        <ele>197.6</ele>
        <time>2020-11-15T10:00:52Z</time>
      </trkpt>
      <trkpt lat="46.77214" lon="-0.77326">
        <ele>197.6</ele>
        <time>2020-11-15T10:00:54Z</time>
      </trkpt>
      <trkpt lat="46.77227" lon="-0.77321">
        <ele>197.6</ele>
        <time>2020-11-15T10:00:56Z</time>
      </trkpt>
      <trkpt lat="46.77233" lon="-0.77318">
        <ele>197.6</ele>
        <time>2020-11-15T10:00:57Z</time>
      </trkpt>
      <trkpt lat="46.77239" lon="-0.77315">
        <ele>197.6</ele>
        <time>2020-11-15T10:00:58Z</time>
      </trkpt>
      <trkpt lat="46.77245" lon="-0.77313">
        <ele>197.6</ele>
        <time>2020-11-15T10:00:59Z</time>
      </trkpt>
      <trkpt lat="46.77251" lon="-0.77312">
        <ele>197.5</ele>
        <time>2020-11-15T10:01:00Z</time>
      </trkpt>
      <trkpt lat="46.77264" lon="-0.77308">
        <ele>197.4</ele>
        <time>2020-11-15T10:01:02Z</time>
      </trkpt>
      <trkpt lat="46.77277" lon="-0.77307">
        <ele>197.3</ele>
        <time>2020-11-15T10:01:04Z</time>
      </trkpt>
      <trkpt lat="46.7729" lon="-0.77307">
        <ele>197.2</ele>
        <time>2020-11-15T10:01:06Z</time>
      </trkpt>
      <trkpt lat="46.77296" lon="-0.77306">
        <ele>197.2</ele>
        <time>2020-11-15T10:01:07Z</time>
      </trkpt>
      <trkpt lat="46.77303" lon="-0.77307">
        <ele>197.2</ele>
        <time>2020-11-15T10:01:08Z</time>
      </trkpt>
      <trkpt lat="46.77315" lon="-0.77306">
        <ele>197.2</ele>
        <time>2020-11-15T10:01:10Z</time>
      </trkpt>
      <trkpt lat="46.77321" lon="-0.77304">
        <ele>197.2</ele>
        <time>2020-11-15T10:01:11Z</time>
      </trkpt>
      <trkpt lat="46.77327" lon="-0.77302">
        <ele>197.2</ele>
        <time>2020-11-15T10:01:12Z</time>
      </trkpt>
      <trkpt lat="46.77332" lon="-0.773">
        <ele>197.2</ele>
        <time>2020-11-15T10:01:13Z</time>
      </trkpt>
      <trkpt lat="46.77338" lon="-0.77296">
        <ele>197.2</ele>
        <time>2020-11-15T10:01:14Z</time>
      </trkpt>
      <trkpt lat="46.77344" lon="-0.77291">
        <ele>197.2</ele>
        <time>2020-11-15T10:01:15Z</time>
      </trkpt>
      <trkpt lat="46.77348" lon="-0.77284">
        <ele>197.3</ele>
        <time>2020-11-15T10:01:16Z</time>
      </trkpt>
      <trkpt lat="46.77355" lon="-0.77271">
        <ele>197.4</ele>
        <time>2020-11-15T10:01:18Z</time>
      </trkpt>
      <trkpt lat="46.77362" lon="-0.7726">
        <ele>197.6</ele>
        <time>2020-11-15T10:01:20Z</time>
      </trkpt>
      <trkpt lat="46.7737" lon="-0.7725">
        <ele>197.9</ele>
        <time>2020-11-15T10:01:22Z</time>
      </trkpt>
      <trkpt lat="46.77377" lon="-0.77242">
        <ele>198.3</ele>
        <time>2020-11-15T10:01:24Z</time>
      </trkpt>
      <trkpt lat="46.77385" lon="-0.77234">
        <ele>198.7</ele>
        <time>2020-11-15T10:01:26Z</time>
      </trkpt>
      <trkpt lat="46.7739" lon="-0.77227">
        <ele>199.2</ele>
        <time>2020-11-15T10:01:28Z</time>
      </trkpt>
      <trkpt lat="46.77394" lon="-0.7722">
        <ele>199.6</ele>
        <time>2020-11-15T10:01:30Z</time>
      </trkpt>
      <trkpt lat="46.77397" lon="-0.77212">
        <ele>200</ele>
        <time>2020-11-15T10:01:32Z</time>
      </trkpt>
      <trkpt lat="46.774" lon="-0.77204">
        <ele>200.5</ele>
        <time>2020-11-15T10:01:34Z</time>
      </trkpt>
      <trkpt lat="46.77402" lon="-0.77195">
        <ele>201</ele>
        <time>2020-11-15T10:01:36Z</time>
      </trkpt>
      <trkpt lat="46.77403" lon="-0.77191">
        <ele>201.1</ele>
        <time>2020-11-15T10:01:37Z</time>
      </trkpt>
      <trkpt lat="46.77404" lon="-0.77187">
        <ele>201.3</ele>
        <time>2020-11-15T10:01:38Z</time>
      </trkpt>
      <trkpt lat="46.77406" lon="-0.77183">
        <ele>201.5</ele>
        <time>2020-11-15T10:01:39Z</time>
      </trkpt>
      <trkpt lat="46.77409" lon="-0.7718">
        <ele>201.6</ele>
        <time>2020-11-15T10:01:40Z</time>
      </trkpt>
      <trkpt lat="46.77411" lon="-0.77172">
        <ele>201.9</ele>
        <time>2020-11-15T10:01:42Z</time>
      </trkpt>
      <trkpt lat="46.77412" lon="-0.77168">
        <ele>202</ele>
        <time>2020-11-15T10:01:43Z</time>
      </trkpt>
      <trkpt lat="46.77412" lon="-0.77163">
        <ele>202.1</ele>
        <time>2020-11-15T10:01:44Z</time>
      </trkpt>
      <trkpt lat="46.77411" lon="-0.77157">
        <ele>202.2</ele>
        <time>2020-11-15T10:01:45Z</time>
      </trkpt>
      <trkpt lat="46.77411" lon="-0.77151">
        <ele>202.3</ele>
        <time>2020-11-15T10:01:46Z</time>
      </trkpt>
      <trkpt lat="46.77411" lon="-0.77145">
        <ele>202.4</ele>
        <time>2020-11-15T10:01:47Z</time>
      </trkpt>
      <trkpt lat="46.77412" lon="-0.77139">
        <ele>202.5</ele>
        <time>2020-11-15T10:01:48Z</time>
      </trkpt>
      <trkpt lat="46.77413" lon="-0.77128">
        <ele>202.6</ele>
        <time>2020-11-15T10:01:50Z</time>
      </trkpt>
      <trkpt lat="46.77413" lon="-0.77123">
        <ele>202.7</ele>
        <time>2020-11-15T10:01:51Z</time>
      </trkpt>
      <trkpt lat="46.77414" lon="-0.77118">
        <ele>202.7</ele>
        <time>2020-11-15T10:01:52Z</time>
      </trkpt>
      <trkpt lat="46.77417" lon="-0.77108">
        <ele>202.9</ele>
        <time>2020-11-15T10:01:54Z</time>
      </trkpt>
      <trkpt lat="46.7742" lon="-0.77098">
        <ele>203.1</ele>
        <time>2020-11-15T10:01:56Z</time>
      </trkpt>
      <trkpt lat="46.77425" lon="-0.77089">
        <ele>203.2</ele>
        <time>2020-11-15T10:01:58Z</time>
      </trkpt>
      <trkpt lat="46.77428" lon="-0.77086">
        <ele>203.3</ele>
        <time>2020-11-15T10:01:59Z</time>
      </trkpt>
      <trkpt lat="46.7743" lon="-0.77082">
        <ele>203.4</ele>
        <time>2020-11-15T10:02:00Z</time>
      </trkpt>
      <trkpt lat="46.77434" lon="-0.77072">
        <ele>203.5</ele>
        <time>2020-11-15T10:02:02Z</time>
      </trkpt>
      <trkpt lat="46.77436" lon="-0.77067">
        <ele>203.6</ele>
        <time>2020-11-15T10:02:03Z</time>
      </trkpt>
      <trkpt lat="46.77439" lon="-0.77061">
        <ele>203.6</ele>
        <time>2020-11-15T10:02:04Z</time>
      </trkpt>
      <trkpt lat="46.77445" lon="-0.77051">
        <ele>203.7</ele>
        <time>2020-11-15T10:02:06Z</time>
      </trkpt>
      <trkpt lat="46.7745" lon="-0.77039">
        <ele>203.8</ele>
        <time>2020-11-15T10:02:08Z</time>
      </trkpt>
      <trkpt lat="46.77456" lon="-0.77029">
        <ele>204</ele>
        <time>2020-11-15T10:02:10Z</time>
      </trkpt>
      <trkpt lat="46.77459" lon="-0.77023">
        <ele>204</ele>
        <time>2020-11-15T10:02:11Z</time>
      </trkpt>
      <trkpt lat="46.77461" lon="-0.77018">
        <ele>204.1</ele>
        <time>2020-11-15T10:02:12Z</time>
      </trkpt>
      <trkpt lat="46.77465" lon="-0.77007">
        <ele>204.2</ele>
        <time>2020-11-15T10:02:14Z</time>
      </trkpt>
      <trkpt lat="46.77467" lon="-0.77001">
        <ele>204.3</ele>
        <time>2020-11-15T10:02:15Z</time>
      </trkpt>
      <trkpt lat="46.77469" lon="-0.76996">
        <ele>204.3</ele>
        <time>2020-11-15T10:02:16Z</time>
      </trkpt>
      <trkpt lat="46.77473" lon="-0.76985">
        <ele>204.5</ele>
        <time>2020-11-15T10:02:18Z</time>
      </trkpt>
      <trkpt lat="46.77477" lon="-0.76975">
        <ele>204.6</ele>
        <time>2020-11-15T10:02:20Z</time>
      </trkpt>
      <trkpt lat="46.7748" lon="-0.7697">
        <ele>204.7</ele>
        <time>2020-11-15T10:02:21Z</time>
      </trkpt>
      <trkpt lat="46.77482" lon="-0.76965">
        <ele>204.7</ele>
        <time>2020-11-15T10:02:22Z</time>
      </trkpt>
      <trkpt lat="46.77488" lon="-0.76957">
        <ele>204.9</ele>
        <time>2020-11-15T10:02:24Z</time>
      </trkpt>
      <trkpt lat="46.77494" lon="-0.76949">
        <ele>205.1</ele>
        <time>2020-11-15T10:02:26Z</time>
      </trkpt>
      <trkpt lat="46.775" lon="-0.76941">
        <ele>205.3</ele>
        <time>2020-11-15T10:02:28Z</time>
      </trkpt>
      <trkpt lat="46.77502" lon="-0.76937">
        <ele>205.4</ele>
        <time>2020-11-15T10:02:29Z</time>
      </trkpt>
      <trkpt lat="46.77505" lon="-0.76933">
        <ele>205.5</ele>
        <time>2020-11-15T10:02:30Z</time>
      </trkpt>
      <trkpt lat="46.77511" lon="-0.76925">
        <ele>205.7</ele>
        <time>2020-11-15T10:02:32Z</time>
      </trkpt>
      <trkpt lat="46.77516" lon="-0.76916">
        <ele>205.8</ele>
        <time>2020-11-15T10:02:34Z</time>
      </trkpt>
      <trkpt lat="46.77523" lon="-0.76911">
        <ele>206</ele>
        <time>2020-11-15T10:02:36Z</time>
      </trkpt>
      <trkpt lat="46.7753" lon="-0.76911">
        <ele>206</ele>
        <time>2020-11-15T10:02:38Z</time>
      </trkpt>
      <trkpt lat="46.77537" lon="-0.76912">
        <ele>206.1</ele>
        <time>2020-11-15T10:02:40Z</time>
      </trkpt>
      <trkpt lat="46.77542" lon="-0.76913">
        <ele>206.2</ele>
        <time>2020-11-15T10:02:42Z</time>
      </trkpt>
      <trkpt lat="46.77548" lon="-0.76913">
        <ele>206.3</ele>
        <time>2020-11-15T10:02:44Z</time>
      </trkpt>
      <trkpt lat="46.77551" lon="-0.76913">
        <ele>206.4</ele>
        <time>2020-11-15T10:02:45Z</time>
      </trkpt>
      <trkpt lat="46.77555" lon="-0.76913">
        <ele>206.5</ele>
        <time>2020-11-15T10:02:46Z</time>
      </trkpt>
      <trkpt lat="46.77562" lon="-0.76912">
        <ele>206.7</ele>
        <time>2020-11-15T10:02:48Z</time>
      </trkpt>
      <trkpt lat="46.77569" lon="-0.76911">
        <ele>206.9</ele>
        <time>2020-11-15T10:02:50Z</time>
      </trkpt>
      <trkpt lat="46.77577" lon="-0.7691">
        <ele>207.1</ele>
        <time>2020-11-15T10:02:52Z</time>
      </trkpt>
      <trkpt lat="46.77584" lon="-0.76909">
        <ele>207.3</ele>
        <time>2020-11-15T10:02:54Z</time>
      </trkpt>
      <trkpt lat="46.77591" lon="-0.76909">
        <ele>207.5</ele>
        <time>2020-11-15T10:02:56Z</time>
      </trkpt>
      <trkpt lat="46.77598" lon="-0.76909">
        <ele>207.8</ele>
        <time>2020-11-15T10:02:58Z</time>
      </trkpt>
      <trkpt lat="46.77605" lon="-0.76908">
        <ele>208</ele>
        <time>2020-11-15T10:03:00Z</time>
      </trkpt>
      <trkpt lat="46.77611" lon="-0.76907">
        <ele>208.3</ele>
        <time>2020-11-15T10:03:02Z</time>
      </trkpt>
      <trkpt lat="46.77618" lon="-0.76906">
        <ele>208.5</ele>
        <time>2020-11-15T10:03:04Z</time>
      </trkpt>
      <trkpt lat="46.77624" lon="-0.76905">
        <ele>208.8</ele>
        <time>2020-11-15T10:03:06Z</time>
      </trkpt>
      <trkpt lat="46.77631" lon="-0.76904">
        <ele>209.1</ele>
        <time>2020-11-15T10:03:08Z</time>
      </trkpt>
      <trkpt lat="46.77636" lon="-0.76903">
        <ele>209.4</ele>
        <time>2020-11-15T10:03:10Z</time>
      </trkpt>
      <trkpt lat="46.7764" lon="-0.76904">
        <ele>209.6</ele>
        <time>2020-11-15T10:03:12Z</time>
      </trkpt>
      <trkpt lat="46.77645" lon="-0.76905">
        <ele>209.8</ele>
        <time>2020-11-15T10:03:14Z</time>
      </trkpt>
      <trkpt lat="46.7765" lon="-0.76904">
        <ele>210.1</ele>
        <time>2020-11-15T10:03:16Z</time>
      </trkpt>
      <trkpt lat="46.77656" lon="-0.76903">
        <ele>210.5</ele>
        <time>2020-11-15T10:03:18Z</time>
      </trkpt>
      <trkpt lat="46.77663" lon="-0.76903">
        <ele>210.9</ele>
        <time>2020-11-15T10:03:20Z</time>
      </trkpt>
      <trkpt lat="46.77669" lon="-0.76901">
        <ele>211.3</ele>
        <time>2020-11-15T10:03:22Z</time>
      </trkpt>
      <trkpt lat="46.77674" lon="-0.76899">
        <ele>211.7</ele>
        <time>2020-11-15T10:03:24Z</time>
      </trkpt>
      <trkpt lat="46.77677" lon="-0.76898">
        <ele>211.9</ele>
        <time>2020-11-15T10:03:25Z</time>
      </trkpt>
      <trkpt lat="46.7768" lon="-0.76898">
        <ele>212.1</ele>
        <time>2020-11-15T10:03:26Z</time>
      </trkpt>
      <trkpt lat="46.77685" lon="-0.76898">
        <ele>212.4</ele>
        <time>2020-11-15T10:03:28Z</time>
      </trkpt>
      <trkpt lat="46.7769" lon="-0.76898">
        <ele>212.8</ele>
        <time>2020-11-15T10:03:30Z</time>
      </trkpt>
      <trkpt lat="46.77693" lon="-0.76897">
        <ele>213</ele>
        <time>2020-11-15T10:03:31Z</time>
      </trkpt>
      <trkpt lat="46.77697" lon="-0.76897">
        <ele>213.3</ele>
        <time>2020-11-15T10:03:32Z</time>
      </trkpt>
      <trkpt lat="46.77704" lon="-0.76897">
        <ele>213.7</ele>
        <time>2020-11-15T10:03:34Z</time>
      </trkpt>
      <trkpt lat="46.7771" lon="-0.76897">
        <ele>214.1</ele>
        <time>2020-11-15T10:03:36Z</time>
      </trkpt>
      <trkpt lat="46.77716" lon="-0.76897">
        <ele>214.5</ele>
        <time>2020-11-15T10:03:38Z</time>
      </trkpt>
      <trkpt lat="46.77722" lon="-0.76898">
        <ele>214.8</ele>
        <time>2020-11-15T10:03:40Z</time>
      </trkpt>
      <trkpt lat="46.77728" lon="-0.76899">
        <ele>215.1</ele>
        <time>2020-11-15T10:03:42Z</time>
      </trkpt>
      <trkpt lat="46.77735" lon="-0.769">
        <ele>215.3</ele>
        <time>2020-11-15T10:03:44Z</time>
      </trkpt>
      <trkpt lat="46.7774" lon="-0.76902">
        <ele>215.5</ele>
        <time>2020-11-15T10:03:46Z</time>
      </trkpt>
      <trkpt lat="46.77746" lon="-0.76904">
        <ele>215.5</ele>
        <time>2020-11-15T10:03:48Z</time>
      </trkpt>
      <trkpt lat="46.77752" lon="-0.76907">
        <ele>215.6</ele>
        <time>2020-11-15T10:03:50Z</time>
      </trkpt>
      <trkpt lat="46.77755" lon="-0.76908">
        <ele>215.5</ele>
        <time>2020-11-15T10:03:51Z</time>
      </trkpt>
      <trkpt lat="46.77758" lon="-0.76909">
        <ele>215.5</ele>
        <time>2020-11-15T10:03:52Z</time>
      </trkpt>
      <trkpt lat="46.77763" lon="-0.76915">
        <ele>215.2</ele>
        <time>2020-11-15T10:03:54Z</time>
      </trkpt>
      <trkpt lat="46.7777" lon="-0.76924">
        <ele>214.9</ele>
        <time>2020-11-15T10:03:56Z</time>
      </trkpt>
      <trkpt lat="46.77776" lon="-0.76933">
        <ele>214.4</ele>
        <time>2020-11-15T10:03:58Z</time>
      </trkpt>
      <trkpt lat="46.77781" lon="-0.76943">
        <ele>214</ele>
        <time>2020-11-15T10:04:00Z</time>
      </trkpt>
      <trkpt lat="46.77784" lon="-0.76946">
        <ele>213.8</ele>
        <time>2020-11-15T10:04:01Z</time>
      </trkpt>
      <trkpt lat="46.77786" lon="-0.76949">
        <ele>213.6</ele>
        <time>2020-11-15T10:04:02Z</time>
      </trkpt>
      <trkpt lat="46.77793" lon="-0.7695">
        <ele>213.6</ele>
        <time>2020-11-15T10:04:04Z</time>
      </trkpt>
      <trkpt lat="46.77796" lon="-0.76948">
        <ele>213.6</ele>
        <time>2020-11-15T10:04:05Z</time>
      </trkpt>
      <trkpt lat="46.778" lon="-0.76944">
        <ele>213.7</ele>
        <time>2020-11-15T10:04:06Z</time>
      </trkpt>
      <trkpt lat="46.77805" lon="-0.76937">
        <ele>213.8</ele>
        <time>2020-11-15T10:04:08Z</time>
      </trkpt>
      <trkpt lat="46.77808" lon="-0.76935">
        <ele>213.9</ele>
        <time>2020-11-15T10:04:09Z</time>
      </trkpt>
      <trkpt lat="46.7781" lon="-0.76932">
        <ele>213.9</ele>
        <time>2020-11-15T10:04:10Z</time>
      </trkpt>
      <trkpt lat="46.77812" lon="-0.7693">
        <ele>213.9</ele>
        <time>2020-11-15T10:04:12Z</time>
      </trkpt>
      <trkpt lat="46.77812" lon="-0.7693">
        <ele>213.9</ele>
        <time>2020-11-15T10:04:13Z</time>
      </trkpt>
      <trkpt lat="46.77813" lon="-0.76931">
        <ele>213.9</ele>
        <time>2020-11-15T10:04:18Z</time>
      </trkpt>
      <trkpt lat="46.77814" lon="-0.76931">
        <ele>213.9</ele>
        <time>2020-11-15T10:04:20Z</time>
      </trkpt>
      <trkpt lat="46.77815" lon="-0.76932">
        <ele>213.9</ele>
        <time>2020-11-15T10:04:21Z</time>
      </trkpt>
      <trkpt lat="46.77816" lon="-0.76932">
        <ele>213.9</ele>
        <time>2020-11-15T10:04:22Z</time>
      </trkpt>
      <trkpt lat="46.77818" lon="-0.76933">
        <ele>213.9</ele>
        <time>2020-11-15T10:04:24Z</time>
      </trkpt>
      <trkpt lat="46.77819" lon="-0.76934">
        <ele>213.9</ele>
        <time>2020-11-15T10:04:25Z</time>
      </trkpt>
      <trkpt lat="46.77819" lon="-0.76936">
        <ele>213.9</ele>
        <time>2020-11-15T10:04:26Z</time>
      </trkpt>
      <trkpt lat="46.77822" lon="-0.76937">
        <ele>214</ele>
        <time>2020-11-15T10:04:28Z</time>
      </trkpt>
      <trkpt lat="46.77825" lon="-0.76937">
        <ele>214</ele>
        <time>2020-11-15T10:04:30Z</time>
      </trkpt>
      <trkpt lat="46.7783" lon="-0.76934">
        <ele>214</ele>
        <time>2020-11-15T10:04:32Z</time>
      </trkpt>
      <trkpt lat="46.77833" lon="-0.7693">
        <ele>214</ele>
        <time>2020-11-15T10:04:34Z</time>
      </trkpt>
      <trkpt lat="46.77836" lon="-0.76926">
        <ele>214</ele>
        <time>2020-11-15T10:04:36Z</time>
      </trkpt>
      <trkpt lat="46.7784" lon="-0.76921">
        <ele>213.9</ele>
        <time>2020-11-15T10:04:38Z</time>
      </trkpt>
      <trkpt lat="46.77843" lon="-0.76918">
        <ele>213.9</ele>
        <time>2020-11-15T10:04:39Z</time>
      </trkpt>
      <trkpt lat="46.77845" lon="-0.76916">
        <ele>213.9</ele>
        <time>2020-11-15T10:04:40Z</time>
      </trkpt>
      <trkpt lat="46.7785" lon="-0.76912">
        <ele>214</ele>
        <time>2020-11-15T10:04:42Z</time>
      </trkpt>
      <trkpt lat="46.77854" lon="-0.76907">
        <ele>214</ele>
        <time>2020-11-15T10:04:44Z</time>
      </trkpt>
      <trkpt lat="46.77856" lon="-0.76905">
        <ele>214</ele>
        <time>2020-11-15T10:04:45Z</time>
      </trkpt>
      <trkpt lat="46.77858" lon="-0.76903">
        <ele>214.1</ele>
        <time>2020-11-15T10:04:46Z</time>
      </trkpt>
      <trkpt lat="46.77863" lon="-0.76899">
        <ele>214.1</ele>
        <time>2020-11-15T10:04:48Z</time>
      </trkpt>
      <trkpt lat="46.77866" lon="-0.76896">
        <ele>214.2</ele>
        <time>2020-11-15T10:04:50Z</time>
      </trkpt>
      <trkpt lat="46.7787" lon="-0.76893">
        <ele>214.2</ele>
        <time>2020-11-15T10:04:52Z</time>
      </trkpt>
      <trkpt lat="46.77875" lon="-0.76889">
        <ele>214.3</ele>
        <time>2020-11-15T10:04:54Z</time>
      </trkpt>
      <trkpt lat="46.77877" lon="-0.76888">
        <ele>214.3</ele>
        <time>2020-11-15T10:04:55Z</time>
      </trkpt>
      <trkpt lat="46.7788" lon="-0.76887">
        <ele>214.3</ele>
        <time>2020-11-15T10:04:56Z</time>
      </trkpt>
      <trkpt lat="46.77885" lon="-0.76885">
        <ele>214.4</ele>
        <time>2020-11-15T10:04:58Z</time>
      </trkpt>
      <trkpt lat="46.77889" lon="-0.76885">
        <ele>214.4</ele>
        <time>2020-11-15T10:04:59Z</time>
      </trkpt>
      <trkpt lat="46.77891" lon="-0.76886">
        <ele>214.5</ele>
        <time>2020-11-15T10:05:00Z</time>
      </trkpt>
      <trkpt lat="46.77897" lon="-0.76887">
        <ele>214.6</ele>
        <time>2020-11-15T10:05:02Z</time>
      </trkpt>
      <trkpt lat="46.77902" lon="-0.76889">
        <ele>214.7</ele>
        <time>2020-11-15T10:05:04Z</time>
      </trkpt>
      <trkpt lat="46.77904" lon="-0.76889">
        <ele>214.7</ele>
        <time>2020-11-15T10:05:05Z</time>
      </trkpt>
      <trkpt lat="46.77906" lon="-0.7689">
        <ele>214.8</ele>
        <time>2020-11-15T10:05:06Z</time>
      </trkpt>
      <trkpt lat="46.7791" lon="-0.76891">
        <ele>214.9</ele>
        <time>2020-11-15T10:05:08Z</time>
      </trkpt>
      <trkpt lat="46.77915" lon="-0.76893">
        <ele>215</ele>
        <time>2020-11-15T10:05:10Z</time>
      </trkpt>
      <trkpt lat="46.7792" lon="-0.76895">
        <ele>215.1</ele>
        <time>2020-11-15T10:05:12Z</time>
      </trkpt>
      <trkpt lat="46.77924" lon="-0.76898">
        <ele>215.2</ele>
        <time>2020-11-15T10:05:14Z</time>
      </trkpt>
      <trkpt lat="46.77929" lon="-0.769">
        <ele>215.3</ele>
        <time>2020-11-15T10:05:16Z</time>
      </trkpt>
      <trkpt lat="46.77934" lon="-0.76902">
        <ele>215.4</ele>
        <time>2020-11-15T10:05:18Z</time>
      </trkpt>
      <trkpt lat="46.77939" lon="-0.76905">
        <ele>215.5</ele>
        <time>2020-11-15T10:05:20Z</time>
      </trkpt>
      <trkpt lat="46.77944" lon="-0.76907">
        <ele>215.6</ele>
        <time>2020-11-15T10:05:22Z</time>
      </trkpt>
      <trkpt lat="46.77949" lon="-0.7691">
        <ele>215.7</ele>
        <time>2020-11-15T10:05:24Z</time>
      </trkpt>
      <trkpt lat="46.77952" lon="-0.76911">
        <ele>215.8</ele>
        <time>2020-11-15T10:05:25Z</time>
      </trkpt>
      <trkpt lat="46.77955" lon="-0.76912">
        <ele>215.9</ele>
        <time>2020-11-15T10:05:26Z</time>
      </trkpt>
      <trkpt lat="46.7796" lon="-0.76914">
        <ele>216</ele>
        <time>2020-11-15T10:05:28Z</time>
      </trkpt>
      <trkpt lat="46.77965" lon="-0.76916">
        <ele>216.2</ele>
        <time>2020-11-15T10:05:30Z</time>
      </trkpt>
      <trkpt lat="46.77967" lon="-0.76917">
        <ele>216.2</ele>
        <time>2020-11-15T10:05:31Z</time>
      </trkpt>
      <trkpt lat="46.7797" lon="-0.76918">
        <ele>216.3</ele>
        <time>2020-11-15T10:05:32Z</time>
      </trkpt>
      <trkpt lat="46.77975" lon="-0.76921">
        <ele>216.5</ele>
        <time>2020-11-15T10:05:34Z</time>
      </trkpt>
      <trkpt lat="46.77981" lon="-0.76923">
        <ele>216.7</ele>
        <time>2020-11-15T10:05:36Z</time>
      </trkpt>
      <trkpt lat="46.77986" lon="-0.76925">
        <ele>217</ele>
        <time>2020-11-15T10:05:38Z</time>
      </trkpt>
      <trkpt lat="46.77992" lon="-0.76927">
        <ele>217.2</ele>
        <time>2020-11-15T10:05:40Z</time>
      </trkpt>
      <trkpt lat="46.77997" lon="-0.76928">
        <ele>217.4</ele>
        <time>2020-11-15T10:05:42Z</time>
      </trkpt>
      <trkpt lat="46.78" lon="-0.76929">
        <ele>217.6</ele>
        <time>2020-11-15T10:05:43Z</time>
      </trkpt>
      <trkpt lat="46.78003" lon="-0.7693">
        <ele>217.7</ele>
        <time>2020-11-15T10:05:44Z</time>
      </trkpt>
      <trkpt lat="46.78008" lon="-0.76932">
        <ele>218</ele>
        <time>2020-11-15T10:05:46Z</time>
      </trkpt>
      <trkpt lat="46.78013" lon="-0.76934">
        <ele>218.2</ele>
        <time>2020-11-15T10:05:48Z</time>
      </trkpt>
      <trkpt lat="46.78018" lon="-0.76936">
        <ele>218.6</ele>
        <time>2020-11-15T10:05:50Z</time>
      </trkpt>
      <trkpt lat="46.78023" lon="-0.76939">
        <ele>218.9</ele>
        <time>2020-11-15T10:05:52Z</time>
      </trkpt>
      <trkpt lat="46.78028" lon="-0.76941">
        <ele>219.2</ele>
        <time>2020-11-15T10:05:54Z</time>
      </trkpt>
      <trkpt lat="46.78033" lon="-0.76943">
        <ele>219.4</ele>
        <time>2020-11-15T10:05:56Z</time>
      </trkpt>
      <trkpt lat="46.78036" lon="-0.76944">
        <ele>219.6</ele>
        <time>2020-11-15T10:05:57Z</time>
      </trkpt>
      <trkpt lat="46.78039" lon="-0.76946">
        <ele>219.8</ele>
        <time>2020-11-15T10:05:58Z</time>
      </trkpt>
      <trkpt lat="46.78043" lon="-0.76947">
        <ele>220.1</ele>
        <time>2020-11-15T10:06:00Z</time>
      </trkpt>
      <trkpt lat="46.78047" lon="-0.76948">
        <ele>220.4</ele>
        <time>2020-11-15T10:06:02Z</time>
      </trkpt>
      <trkpt lat="46.78048" lon="-0.76948">
        <ele>220.5</ele>
        <time>2020-11-15T10:06:04Z</time>
      </trkpt>
      <trkpt lat="46.7806" lon="-0.76947">
        <ele>221.3</ele>
        <time>2020-11-15T10:06:42Z</time>
      </trkpt>
      <trkpt lat="46.78066" lon="-0.76948">
        <ele>221.6</ele>
        <time>2020-11-15T10:06:44Z</time>
      </trkpt>
      <trkpt lat="46.78073" lon="-0.7695">
        <ele>221.8</ele>
        <time>2020-11-15T10:06:46Z</time>
      </trkpt>
      <trkpt lat="46.78079" lon="-0.76952">
        <ele>222.1</ele>
        <time>2020-11-15T10:06:48Z</time>
      </trkpt>
      <trkpt lat="46.78086" lon="-0.76954">
        <ele>222.3</ele>
        <time>2020-11-15T10:06:50Z</time>
      </trkpt>
      <trkpt lat="46.78092" lon="-0.76955">
        <ele>222.5</ele>
        <time>2020-11-15T10:06:52Z</time>
      </trkpt>
      <trkpt lat="46.78095" lon="-0.76955">
        <ele>222.6</ele>
        <time>2020-11-15T10:06:53Z</time>
      </trkpt>
      <trkpt lat="46.78098" lon="-0.76955">
        <ele>222.7</ele>
        <time>2020-11-15T10:06:54Z</time>
      </trkpt>
      <trkpt lat="46.78104" lon="-0.76957">
        <ele>222.9</ele>
        <time>2020-11-15T10:06:56Z</time>
      </trkpt>
      <trkpt lat="46.78111" lon="-0.76958">
        <ele>223</ele>
        <time>2020-11-15T10:06:58Z</time>
      </trkpt>
      <trkpt lat="46.78117" lon="-0.76959">
        <ele>223.2</ele>
        <time>2020-11-15T10:07:00Z</time>
      </trkpt>
      <trkpt lat="46.78122" lon="-0.7696">
        <ele>223.3</ele>
        <time>2020-11-15T10:07:02Z</time>
      </trkpt>
      <trkpt lat="46.78126" lon="-0.76961">
        <ele>223.4</ele>
        <time>2020-11-15T10:07:04Z</time>
      </trkpt>
      <trkpt lat="46.78128" lon="-0.7696">
        <ele>223.4</ele>
        <time>2020-11-15T10:07:05Z</time>
      </trkpt>
      <trkpt lat="46.78129" lon="-0.76958">
        <ele>223.5</ele>
        <time>2020-11-15T10:07:06Z</time>
      </trkpt>
      <trkpt lat="46.7813" lon="-0.76956">
        <ele>223.5</ele>
        <time>2020-11-15T10:07:07Z</time>
      </trkpt>
      <trkpt lat="46.78135" lon="-0.76937">
        <ele>223.6</ele>
        <time>2020-11-15T10:07:15Z</time>
      </trkpt>
      <trkpt lat="46.78136" lon="-0.76933">
        <ele>223.6</ele>
        <time>2020-11-15T10:07:16Z</time>
      </trkpt>
      <trkpt lat="46.78137" lon="-0.7693">
        <ele>223.6</ele>
        <time>2020-11-15T10:07:17Z</time>
      </trkpt>
      <trkpt lat="46.78138" lon="-0.76926">
        <ele>223.6</ele>
        <time>2020-11-15T10:07:18Z</time>
      </trkpt>
      <trkpt lat="46.7814" lon="-0.76921">
        <ele>223.6</ele>
        <time>2020-11-15T10:07:20Z</time>
      </trkpt>
      <trkpt lat="46.7814" lon="-0.76919">
        <ele>223.6</ele>
        <time>2020-11-15T10:07:21Z</time>
      </trkpt>
      <trkpt lat="46.7814" lon="-0.76917">
        <ele>223.6</ele>
        <time>2020-11-15T10:07:22Z</time>
      </trkpt>
      <trkpt lat="46.7814" lon="-0.76909">
        <ele>223.6</ele>
        <time>2020-11-15T10:07:24Z</time>
      </trkpt>
      <trkpt lat="46.78141" lon="-0.76906">
        <ele>223.6</ele>
        <time>2020-11-15T10:07:25Z</time>
      </trkpt>
      <trkpt lat="46.78141" lon="-0.76903">
        <ele>223.6</ele>
        <time>2020-11-15T10:07:26Z</time>
      </trkpt>
      <trkpt lat="46.78143" lon="-0.76898">
        <ele>223.6</ele>
        <time>2020-11-15T10:07:28Z</time>
      </trkpt>
      <trkpt lat="46.78144" lon="-0.76895">
        <ele>223.6</ele>
        <time>2020-11-15T10:07:29Z</time>
      </trkpt>
      <trkpt lat="46.78145" lon="-0.76888">
        <ele>223.6</ele>
        <time>2020-11-15T10:07:30Z</time>
      </trkpt>
      <trkpt lat="46.78147" lon="-0.76879">
        <ele>223.5</ele>
        <time>2020-11-15T10:07:32Z</time>
      </trkpt>
      <trkpt lat="46.78149" lon="-0.76871">
        <ele>223.3</ele>
        <time>2020-11-15T10:07:34Z</time>
      </trkpt>
      <trkpt lat="46.78149" lon="-0.76863">
        <ele>223.2</ele>
        <time>2020-11-15T10:07:36Z</time>
      </trkpt>
      <trkpt lat="46.78148" lon="-0.7686">
        <ele>223.1</ele>
        <time>2020-11-15T10:07:37Z</time>
      </trkpt>
      <trkpt lat="46.78148" lon="-0.7685">
        <ele>222.9</ele>
        <time>2020-11-15T10:07:40Z</time>
      </trkpt>
      <trkpt lat="46.78147" lon="-0.76842">
        <ele>222.7</ele>
        <time>2020-11-15T10:07:42Z</time>
      </trkpt>
      <trkpt lat="46.78147" lon="-0.76833">
        <ele>222.4</ele>
        <time>2020-11-15T10:07:44Z</time>
      </trkpt>
      <trkpt lat="46.78147" lon="-0.76824">
        <ele>222.1</ele>
        <time>2020-11-15T10:07:46Z</time>
      </trkpt>
      <trkpt lat="46.78146" lon="-0.76815">
        <ele>221.7</ele>
        <time>2020-11-15T10:07:48Z</time>
      </trkpt>
      <trkpt lat="46.78145" lon="-0.76805">
        <ele>221.3</ele>
        <time>2020-11-15T10:07:50Z</time>
      </trkpt>
      <trkpt lat="46.78145" lon="-0.76801">
        <ele>221.1</ele>
        <time>2020-11-15T10:07:51Z</time>
      </trkpt>
      <trkpt lat="46.78146" lon="-0.76795">
        <ele>220.9</ele>
        <time>2020-11-15T10:07:52Z</time>
      </trkpt>
      <trkpt lat="46.78147" lon="-0.76785">
        <ele>220.4</ele>
        <time>2020-11-15T10:07:54Z</time>
      </trkpt>
      <trkpt lat="46.78147" lon="-0.76773">
        <ele>219.8</ele>
        <time>2020-11-15T10:07:56Z</time>
      </trkpt>
      <trkpt lat="46.78148" lon="-0.76767">
        <ele>219.5</ele>
        <time>2020-11-15T10:07:57Z</time>
      </trkpt>
      <trkpt lat="46.7815" lon="-0.76761">
        <ele>219.3</ele>
        <time>2020-11-15T10:07:58Z</time>
      </trkpt>
      <trkpt lat="46.78153" lon="-0.76752">
        <ele>218.8</ele>
        <time>2020-11-15T10:08:00Z</time>
      </trkpt>
      <trkpt lat="46.78155" lon="-0.76747">
        <ele>218.5</ele>
        <time>2020-11-15T10:08:02Z</time>
      </trkpt>
      <trkpt lat="46.78158" lon="-0.76742">
        <ele>218.3</ele>
        <time>2020-11-15T10:08:04Z</time>
      </trkpt>
      <trkpt lat="46.78161" lon="-0.76739">
        <ele>218.1</ele>
        <time>2020-11-15T10:08:06Z</time>
      </trkpt>
      <trkpt lat="46.78163" lon="-0.76737">
        <ele>218</ele>
        <time>2020-11-15T10:08:07Z</time>
      </trkpt>
      <trkpt lat="46.78163" lon="-0.76735">
        <ele>217.9</ele>
        <time>2020-11-15T10:08:08Z</time>
      </trkpt>
      <trkpt lat="46.78165" lon="-0.76732">
        <ele>217.7</ele>
        <time>2020-11-15T10:08:10Z</time>
      </trkpt>
      <trkpt lat="46.78167" lon="-0.76729">
        <ele>217.6</ele>
        <time>2020-11-15T10:08:11Z</time>
      </trkpt>
      <trkpt lat="46.78168" lon="-0.76727">
        <ele>217.5</ele>
        <time>2020-11-15T10:08:12Z</time>
      </trkpt>
      <trkpt lat="46.78175" lon="-0.7672">
        <ele>217.1</ele>
        <time>2020-11-15T10:08:14Z</time>
      </trkpt>
      <trkpt lat="46.7818" lon="-0.76712">
        <ele>216.9</ele>
        <time>2020-11-15T10:08:16Z</time>
      </trkpt>
      <trkpt lat="46.78187" lon="-0.76704">
        <ele>216.5</ele>
        <time>2020-11-15T10:08:18Z</time>
      </trkpt>
      <trkpt lat="46.78191" lon="-0.76699">
        <ele>216.4</ele>
        <time>2020-11-15T10:08:19Z</time>
      </trkpt>
      <trkpt lat="46.78194" lon="-0.76693">
        <ele>216.2</ele>
        <time>2020-11-15T10:08:20Z</time>
      </trkpt>
      <trkpt lat="46.782" lon="-0.76684">
        <ele>216</ele>
        <time>2020-11-15T10:08:22Z</time>
      </trkpt>
      <trkpt lat="46.78206" lon="-0.76674">
        <ele>215.7</ele>
        <time>2020-11-15T10:08:24Z</time>
      </trkpt>
      <trkpt lat="46.78213" lon="-0.76665">
        <ele>215.5</ele>
        <time>2020-11-15T10:08:26Z</time>
      </trkpt>
      <trkpt lat="46.78221" lon="-0.76654">
        <ele>215.3</ele>
        <time>2020-11-15T10:08:28Z</time>
      </trkpt>
      <trkpt lat="46.78229" lon="-0.76643">
        <ele>215</ele>
        <time>2020-11-15T10:08:30Z</time>
      </trkpt>
      <trkpt lat="46.78232" lon="-0.76638">
        <ele>214.9</ele>
        <time>2020-11-15T10:08:31Z</time>
      </trkpt>
      <trkpt lat="46.78235" lon="-0.76632">
        <ele>214.8</ele>
        <time>2020-11-15T10:08:32Z</time>
      </trkpt>
      <trkpt lat="46.78241" lon="-0.76622">
        <ele>214.6</ele>
        <time>2020-11-15T10:08:34Z</time>
      </trkpt>
      <trkpt lat="46.78249" lon="-0.76613">
        <ele>214.4</ele>
        <time>2020-11-15T10:08:36Z</time>
      </trkpt>
      <trkpt lat="46.78258" lon="-0.76604">
        <ele>214.1</ele>
        <time>2020-11-15T10:08:38Z</time>
      </trkpt>
      <trkpt lat="46.78266" lon="-0.76596">
        <ele>213.8</ele>
        <time>2020-11-15T10:08:40Z</time>
      </trkpt>
      <trkpt lat="46.78273" lon="-0.76588">
        <ele>213.5</ele>
        <time>2020-11-15T10:08:42Z</time>
      </trkpt>
      <trkpt lat="46.78274" lon="-0.76579">
        <ele>213.2</ele>
        <time>2020-11-15T10:08:44Z</time>
      </trkpt>
      <trkpt lat="46.78278" lon="-0.7657">
        <ele>212.9</ele>
        <time>2020-11-15T10:08:46Z</time>
      </trkpt>
      <trkpt lat="46.78281" lon="-0.76566">
        <ele>212.8</ele>
        <time>2020-11-15T10:08:47Z</time>
      </trkpt>
      <trkpt lat="46.78285" lon="-0.76562">
        <ele>212.6</ele>
        <time>2020-11-15T10:08:48Z</time>
      </trkpt>
      <trkpt lat="46.78293" lon="-0.76554">
        <ele>212.4</ele>
        <time>2020-11-15T10:08:50Z</time>
      </trkpt>
      <trkpt lat="46.78297" lon="-0.7655">
        <ele>212.3</ele>
        <time>2020-11-15T10:08:51Z</time>
      </trkpt>
      <trkpt lat="46.78301" lon="-0.76546">
        <ele>212.3</ele>
        <time>2020-11-15T10:08:52Z</time>
      </trkpt>
      <trkpt lat="46.78308" lon="-0.76539">
        <ele>212.3</ele>
        <time>2020-11-15T10:08:54Z</time>
      </trkpt>
      <trkpt lat="46.78312" lon="-0.76534">
        <ele>212.4</ele>
        <time>2020-11-15T10:08:56Z</time>
      </trkpt>
      <trkpt lat="46.78315" lon="-0.76531">
        <ele>212.4</ele>
        <time>2020-11-15T10:08:58Z</time>
      </trkpt>
      <trkpt lat="46.78322" lon="-0.76528">
        <ele>212.6</ele>
        <time>2020-11-15T10:09:00Z</time>
      </trkpt>
      <trkpt lat="46.78329" lon="-0.76523">
        <ele>212.9</ele>
        <time>2020-11-15T10:09:02Z</time>
      </trkpt>
      <trkpt lat="46.78335" lon="-0.7652">
        <ele>213.2</ele>
        <time>2020-11-15T10:09:04Z</time>
      </trkpt>
      <trkpt lat="46.78341" lon="-0.76515">
        <ele>213.5</ele>
        <time>2020-11-15T10:09:06Z</time>
      </trkpt>
      <trkpt lat="46.78346" lon="-0.76509">
        <ele>213.8</ele>
        <time>2020-11-15T10:09:08Z</time>
      </trkpt>
      <trkpt lat="46.78352" lon="-0.76502">
        <ele>214.2</ele>
        <time>2020-11-15T10:09:10Z</time>
      </trkpt>
      <trkpt lat="46.78356" lon="-0.765">
        <ele>214.4</ele>
        <time>2020-11-15T10:09:11Z</time>
      </trkpt>
      <trkpt lat="46.78359" lon="-0.76498">
        <ele>214.5</ele>
        <time>2020-11-15T10:09:12Z</time>
      </trkpt>
      <trkpt lat="46.78361" lon="-0.76496">
        <ele>214.6</ele>
        <time>2020-11-15T10:09:13Z</time>
      </trkpt>
      <trkpt lat="46.78363" lon="-0.76494">
        <ele>214.7</ele>
        <time>2020-11-15T10:09:14Z</time>
      </trkpt>
      <trkpt lat="46.78366" lon="-0.76489">
        <ele>214.8</ele>
        <time>2020-11-15T10:09:16Z</time>
      </trkpt>
      <trkpt lat="46.78368" lon="-0.76487">
        <ele>214.8</ele>
        <time>2020-11-15T10:09:17Z</time>
      </trkpt>
      <trkpt lat="46.78371" lon="-0.76483">
        <ele>214.9</ele>
        <time>2020-11-15T10:09:18Z</time>
      </trkpt>
      <trkpt lat="46.78376" lon="-0.76478">
        <ele>214.9</ele>
        <time>2020-11-15T10:09:20Z</time>
      </trkpt>
      <trkpt lat="46.78382" lon="-0.76471">
        <ele>214.8</ele>
        <time>2020-11-15T10:09:22Z</time>
      </trkpt>
      <trkpt lat="46.78388" lon="-0.76469">
        <ele>214.7</ele>
        <time>2020-11-15T10:09:23Z</time>
      </trkpt>
      <trkpt lat="46.78392" lon="-0.76466">
        <ele>214.7</ele>
        <time>2020-11-15T10:09:24Z</time>
      </trkpt>
      <trkpt lat="46.78399" lon="-0.76459">
        <ele>214.6</ele>
        <time>2020-11-15T10:09:26Z</time>
      </trkpt>
      <trkpt lat="46.78407" lon="-0.76452">
        <ele>214.4</ele>
        <time>2020-11-15T10:09:28Z</time>
      </trkpt>
      <trkpt lat="46.78416" lon="-0.76444">
        <ele>214.3</ele>
        <time>2020-11-15T10:09:30Z</time>
      </trkpt>
      <trkpt lat="46.78424" lon="-0.76437">
        <ele>214.1</ele>
        <time>2020-11-15T10:09:32Z</time>
      </trkpt>
      <trkpt lat="46.78433" lon="-0.76429">
        <ele>213.8</ele>
        <time>2020-11-15T10:09:34Z</time>
      </trkpt>
      <trkpt lat="46.78443" lon="-0.76424">
        <ele>213.3</ele>
        <time>2020-11-15T10:09:36Z</time>
      </trkpt>
      <trkpt lat="46.78452" lon="-0.7642">
        <ele>212.9</ele>
        <time>2020-11-15T10:09:38Z</time>
      </trkpt>
      <trkpt lat="46.78458" lon="-0.76418">
        <ele>212.7</ele>
        <time>2020-11-15T10:09:39Z</time>
      </trkpt>
      <trkpt lat="46.78463" lon="-0.76417">
        <ele>212.5</ele>
        <time>2020-11-15T10:09:40Z</time>
      </trkpt>
      <trkpt lat="46.78468" lon="-0.76415">
        <ele>212.2</ele>
        <time>2020-11-15T10:09:41Z</time>
      </trkpt>
      <trkpt lat="46.78473" lon="-0.76412">
        <ele>212</ele>
        <time>2020-11-15T10:09:42Z</time>
      </trkpt>
      <trkpt lat="46.78482" lon="-0.76405">
        <ele>211.6</ele>
        <time>2020-11-15T10:09:44Z</time>
      </trkpt>
      <trkpt lat="46.78491" lon="-0.764">
        <ele>211.2</ele>
        <time>2020-11-15T10:09:46Z</time>
      </trkpt>
      <trkpt lat="46.78501" lon="-0.76392">
        <ele>210.8</ele>
        <time>2020-11-15T10:09:48Z</time>
      </trkpt>
      <trkpt lat="46.78513" lon="-0.76384">
        <ele>210.4</ele>
        <time>2020-11-15T10:09:50Z</time>
      </trkpt>
      <trkpt lat="46.7852" lon="-0.7638">
        <ele>210.2</ele>
        <time>2020-11-15T10:09:51Z</time>
      </trkpt>
      <trkpt lat="46.78527" lon="-0.76376">
        <ele>210</ele>
        <time>2020-11-15T10:09:52Z</time>
      </trkpt>
      <trkpt lat="46.78537" lon="-0.76368">
        <ele>209.8</ele>
        <time>2020-11-15T10:09:54Z</time>
      </trkpt>
      <trkpt lat="46.78549" lon="-0.76361">
        <ele>209.5</ele>
        <time>2020-11-15T10:09:56Z</time>
      </trkpt>
      <trkpt lat="46.78562" lon="-0.76356">
        <ele>209.3</ele>
        <time>2020-11-15T10:09:58Z</time>
      </trkpt>
      <trkpt lat="46.78575" lon="-0.7635">
        <ele>209.1</ele>
        <time>2020-11-15T10:10:00Z</time>
      </trkpt>
      <trkpt lat="46.78587" lon="-0.76344">
        <ele>208.9</ele>
        <time>2020-11-15T10:10:02Z</time>
      </trkpt>
      <trkpt lat="46.78599" lon="-0.7634">
        <ele>208.8</ele>
        <time>2020-11-15T10:10:04Z</time>
      </trkpt>
      <trkpt lat="46.78612" lon="-0.76335">
        <ele>208.5</ele>
        <time>2020-11-15T10:10:06Z</time>
      </trkpt>
      <trkpt lat="46.78618" lon="-0.76332">
        <ele>208.4</ele>
        <time>2020-11-15T10:10:07Z</time>
      </trkpt>
      <trkpt lat="46.78623" lon="-0.76328">
        <ele>208.3</ele>
        <time>2020-11-15T10:10:08Z</time>
      </trkpt>
      <trkpt lat="46.78628" lon="-0.76324">
        <ele>208.2</ele>
        <time>2020-11-15T10:10:09Z</time>
      </trkpt>
      <trkpt lat="46.78634" lon="-0.7632">
        <ele>208</ele>
        <time>2020-11-15T10:10:10Z</time>
      </trkpt>
      <trkpt lat="46.78646" lon="-0.76313">
        <ele>207.8</ele>
        <time>2020-11-15T10:10:12Z</time>
      </trkpt>
      <trkpt lat="46.78657" lon="-0.76305">
        <ele>207.7</ele>
        <time>2020-11-15T10:10:14Z</time>
      </trkpt>
      <trkpt lat="46.78669" lon="-0.76297">
        <ele>207.5</ele>
        <time>2020-11-15T10:10:16Z</time>
      </trkpt>
      <trkpt lat="46.78679" lon="-0.76289">
        <ele>207.5</ele>
        <time>2020-11-15T10:10:18Z</time>
      </trkpt>
      <trkpt lat="46.7869" lon="-0.76282">
        <ele>207.6</ele>
        <time>2020-11-15T10:10:20Z</time>
      </trkpt>
      <trkpt lat="46.78695" lon="-0.7628">
        <ele>207.6</ele>
        <time>2020-11-15T10:10:21Z</time>
      </trkpt>
      <trkpt lat="46.787" lon="-0.76278">
        <ele>207.6</ele>
        <time>2020-11-15T10:10:22Z</time>
      </trkpt>
      <trkpt lat="46.78704" lon="-0.76274">
        <ele>207.6</ele>
        <time>2020-11-15T10:10:23Z</time>
      </trkpt>
      <trkpt lat="46.78707" lon="-0.7627">
        <ele>207.5</ele>
        <time>2020-11-15T10:10:24Z</time>
      </trkpt>
      <trkpt lat="46.78709" lon="-0.76265">
        <ele>207.5</ele>
        <time>2020-11-15T10:10:25Z</time>
      </trkpt>
      <trkpt lat="46.7871" lon="-0.7626">
        <ele>207.5</ele>
        <time>2020-11-15T10:10:26Z</time>
      </trkpt>
      <trkpt lat="46.78713" lon="-0.7625">
        <ele>207.4</ele>
        <time>2020-11-15T10:10:28Z</time>
      </trkpt>
      <trkpt lat="46.78716" lon="-0.76241">
        <ele>207.4</ele>
        <time>2020-11-15T10:10:30Z</time>
      </trkpt>
      <trkpt lat="46.78719" lon="-0.76237">
        <ele>207.4</ele>
        <time>2020-11-15T10:10:31Z</time>
      </trkpt>
      <trkpt lat="46.78721" lon="-0.76233">
        <ele>207.4</ele>
        <time>2020-11-15T10:10:32Z</time>
      </trkpt>
      <trkpt lat="46.78725" lon="-0.76226">
        <ele>207.5</ele>
        <time>2020-11-15T10:10:34Z</time>
      </trkpt>
      <trkpt lat="46.78728" lon="-0.76223">
        <ele>207.5</ele>
        <time>2020-11-15T10:10:35Z</time>
      </trkpt>
      <trkpt lat="46.78731" lon="-0.76219">
        <ele>207.6</ele>
        <time>2020-11-15T10:10:36Z</time>
      </trkpt>
      <trkpt lat="46.78737" lon="-0.76211">
        <ele>207.8</ele>
        <time>2020-11-15T10:10:38Z</time>
      </trkpt>
      <trkpt lat="46.78743" lon="-0.76204">
        <ele>208.1</ele>
        <time>2020-11-15T10:10:40Z</time>
      </trkpt>
      <trkpt lat="46.78745" lon="-0.76199">
        <ele>208.3</ele>
        <time>2020-11-15T10:10:41Z</time>
      </trkpt>
      <trkpt lat="46.78747" lon="-0.76193">
        <ele>208.5</ele>
        <time>2020-11-15T10:10:42Z</time>
      </trkpt>
      <trkpt lat="46.78751" lon="-0.76183">
        <ele>208.8</ele>
        <time>2020-11-15T10:10:44Z</time>
      </trkpt>
      <trkpt lat="46.78753" lon="-0.76178">
        <ele>209</ele>
        <time>2020-11-15T10:10:45Z</time>
      </trkpt>
      <trkpt lat="46.78755" lon="-0.76172">
        <ele>209.2</ele>
        <time>2020-11-15T10:10:46Z</time>
      </trkpt>
      <trkpt lat="46.78756" lon="-0.76166">
        <ele>209.3</ele>
        <time>2020-11-15T10:10:47Z</time>
      </trkpt>
      <trkpt lat="46.78756" lon="-0.76159">
        <ele>209.5</ele>
        <time>2020-11-15T10:10:48Z</time>
      </trkpt>
      <trkpt lat="46.78758" lon="-0.76153">
        <ele>209.6</ele>
        <time>2020-11-15T10:10:49Z</time>
      </trkpt>
      <trkpt lat="46.78758" lon="-0.76147">
        <ele>209.7</ele>
        <time>2020-11-15T10:10:50Z</time>
      </trkpt>
      <trkpt lat="46.78759" lon="-0.76136">
        <ele>209.6</ele>
        <time>2020-11-15T10:10:52Z</time>
      </trkpt>
      <trkpt lat="46.78759" lon="-0.7613">
        <ele>209.5</ele>
        <time>2020-11-15T10:10:53Z</time>
      </trkpt>
      <trkpt lat="46.78759" lon="-0.76124">
        <ele>209.4</ele>
        <time>2020-11-15T10:10:54Z</time>
      </trkpt>
      <trkpt lat="46.7876" lon="-0.76111">
        <ele>208.9</ele>
        <time>2020-11-15T10:10:56Z</time>
      </trkpt>
      <trkpt lat="46.7876" lon="-0.761">
        <ele>208.4</ele>
        <time>2020-11-15T10:10:58Z</time>
      </trkpt>
      <trkpt lat="46.78761" lon="-0.76089">
        <ele>207.9</ele>
        <time>2020-11-15T10:11:00Z</time>
      </trkpt>
      <trkpt lat="46.78763" lon="-0.76081">
        <ele>207.5</ele>
        <time>2020-11-15T10:11:01Z</time>
      </trkpt>
      <trkpt lat="46.78764" lon="-0.76073">
        <ele>207.2</ele>
        <time>2020-11-15T10:11:02Z</time>
      </trkpt>
      <trkpt lat="46.78766" lon="-0.76065">
        <ele>206.8</ele>
        <time>2020-11-15T10:11:03Z</time>
      </trkpt>
      <trkpt lat="46.78768" lon="-0.76056">
        <ele>206.5</ele>
        <time>2020-11-15T10:11:04Z</time>
      </trkpt>
      <trkpt lat="46.78771" lon="-0.76043">
        <ele>206</ele>
        <time>2020-11-15T10:11:06Z</time>
      </trkpt>
      <trkpt lat="46.78775" lon="-0.76026">
        <ele>205.5</ele>
        <time>2020-11-15T10:11:08Z</time>
      </trkpt>
      <trkpt lat="46.78777" lon="-0.76017">
        <ele>205.3</ele>
        <time>2020-11-15T10:11:09Z</time>
      </trkpt>
      <trkpt lat="46.78779" lon="-0.76008">
        <ele>205.1</ele>
        <time>2020-11-15T10:11:10Z</time>
      </trkpt>
      <trkpt lat="46.78781" lon="-0.75999">
        <ele>204.9</ele>
        <time>2020-11-15T10:11:11Z</time>
      </trkpt>
      <trkpt lat="46.78784" lon="-0.75991">
        <ele>204.7</ele>
        <time>2020-11-15T10:11:12Z</time>
      </trkpt>
      <trkpt lat="46.78789" lon="-0.75973">
        <ele>204.3</ele>
        <time>2020-11-15T10:11:14Z</time>
      </trkpt>
      <trkpt lat="46.78797" lon="-0.75957">
        <ele>204</ele>
        <time>2020-11-15T10:11:16Z</time>
      </trkpt>
      <trkpt lat="46.78801" lon="-0.75948">
        <ele>203.9</ele>
        <time>2020-11-15T10:11:17Z</time>
      </trkpt>
      <trkpt lat="46.78804" lon="-0.75939">
        <ele>203.9</ele>
        <time>2020-11-15T10:11:18Z</time>
      </trkpt>
      <trkpt lat="46.78808" lon="-0.75922">
        <ele>203.9</ele>
        <time>2020-11-15T10:11:20Z</time>
      </trkpt>
      <trkpt lat="46.78809" lon="-0.75914">
        <ele>203.9</ele>
        <time>2020-11-15T10:11:21Z</time>
      </trkpt>
      <trkpt lat="46.78811" lon="-0.75905">
        <ele>203.9</ele>
        <time>2020-11-15T10:11:22Z</time>
      </trkpt>
      <trkpt lat="46.78812" lon="-0.75896">
        <ele>203.9</ele>
        <time>2020-11-15T10:11:23Z</time>
      </trkpt>
      <trkpt lat="46.78814" lon="-0.75888">
        <ele>204</ele>
        <time>2020-11-15T10:11:24Z</time>
      </trkpt>
      <trkpt lat="46.78818" lon="-0.7587">
        <ele>204.1</ele>
        <time>2020-11-15T10:11:26Z</time>
      </trkpt>
      <trkpt lat="46.78821" lon="-0.75853">
        <ele>204.2</ele>
        <time>2020-11-15T10:11:28Z</time>
      </trkpt>
      <trkpt lat="46.78822" lon="-0.75832">
        <ele>204.2</ele>
        <time>2020-11-15T10:11:30Z</time>
      </trkpt>
      <trkpt lat="46.78822" lon="-0.75822">
        <ele>204.2</ele>
        <time>2020-11-15T10:11:31Z</time>
      </trkpt>
      <trkpt lat="46.78822" lon="-0.75811">
        <ele>204.1</ele>
        <time>2020-11-15T10:11:32Z</time>
      </trkpt>
      <trkpt lat="46.78826" lon="-0.75791">
        <ele>203.9</ele>
        <time>2020-11-15T10:11:34Z</time>
      </trkpt>
      <trkpt lat="46.7883" lon="-0.75782">
        <ele>203.8</ele>
        <time>2020-11-15T10:11:35Z</time>
      </trkpt>
      <trkpt lat="46.78834" lon="-0.75774">
        <ele>203.6</ele>
        <time>2020-11-15T10:11:36Z</time>
      </trkpt>
      <trkpt lat="46.78844" lon="-0.75756">
        <ele>203.4</ele>
        <time>2020-11-15T10:11:38Z</time>
      </trkpt>
      <trkpt lat="46.78849" lon="-0.75749">
        <ele>203.4</ele>
        <time>2020-11-15T10:11:39Z</time>
      </trkpt>
      <trkpt lat="46.78855" lon="-0.75742">
        <ele>203.5</ele>
        <time>2020-11-15T10:11:40Z</time>
      </trkpt>
      <trkpt lat="46.78861" lon="-0.75737">
        <ele>203.6</ele>
        <time>2020-11-15T10:11:41Z</time>
      </trkpt>
      <trkpt lat="46.78868" lon="-0.75735">
        <ele>203.6</ele>
        <time>2020-11-15T10:11:42Z</time>
      </trkpt>
      <trkpt lat="46.78875" lon="-0.75733">
        <ele>203.6</ele>
        <time>2020-11-15T10:11:43Z</time>
      </trkpt>
      <trkpt lat="46.78882" lon="-0.75733">
        <ele>203.5</ele>
        <time>2020-11-15T10:11:44Z</time>
      </trkpt>
      <trkpt lat="46.78893" lon="-0.75733">
        <ele>203.3</ele>
        <time>2020-11-15T10:11:46Z</time>
      </trkpt>
      <trkpt lat="46.789" lon="-0.75732">
        <ele>203.2</ele>
        <time>2020-11-15T10:11:47Z</time>
      </trkpt>
      <trkpt lat="46.78906" lon="-0.7573">
        <ele>203.2</ele>
        <time>2020-11-15T10:11:48Z</time>
      </trkpt>
      <trkpt lat="46.7892" lon="-0.75725">
        <ele>203.2</ele>
        <time>2020-11-15T10:11:50Z</time>
      </trkpt>
      <trkpt lat="46.78926" lon="-0.75722">
        <ele>203.3</ele>
        <time>2020-11-15T10:11:51Z</time>
      </trkpt>
      <trkpt lat="46.78932" lon="-0.75718">
        <ele>203.3</ele>
        <time>2020-11-15T10:11:52Z</time>
      </trkpt>
      <trkpt lat="46.78937" lon="-0.75714">
        <ele>203.4</ele>
        <time>2020-11-15T10:11:53Z</time>
      </trkpt>
      <trkpt lat="46.78943" lon="-0.75709">
        <ele>203.6</ele>
        <time>2020-11-15T10:11:54Z</time>
      </trkpt>
      <trkpt lat="46.78948" lon="-0.75704">
        <ele>203.8</ele>
        <time>2020-11-15T10:11:55Z</time>
      </trkpt>
      <trkpt lat="46.78952" lon="-0.75699">
        <ele>204</ele>
        <time>2020-11-15T10:11:56Z</time>
      </trkpt>
      <trkpt lat="46.78961" lon="-0.75689">
        <ele>204.4</ele>
        <time>2020-11-15T10:11:58Z</time>
      </trkpt>
      <trkpt lat="46.78968" lon="-0.7568">
        <ele>204.7</ele>
        <time>2020-11-15T10:12:00Z</time>
      </trkpt>
      <trkpt lat="46.78975" lon="-0.75672">
        <ele>205</ele>
        <time>2020-11-15T10:12:02Z</time>
      </trkpt>
      <trkpt lat="46.78981" lon="-0.75666">
        <ele>205.3</ele>
        <time>2020-11-15T10:12:04Z</time>
      </trkpt>
      <trkpt lat="46.78988" lon="-0.7566">
        <ele>205.7</ele>
        <time>2020-11-15T10:12:06Z</time>
      </trkpt>
      <trkpt lat="46.78994" lon="-0.75655">
        <ele>206.2</ele>
        <time>2020-11-15T10:12:08Z</time>
      </trkpt>
      <trkpt lat="46.79" lon="-0.75652">
        <ele>206.6</ele>
        <time>2020-11-15T10:12:10Z</time>
      </trkpt>
      <trkpt lat="46.79004" lon="-0.75648">
        <ele>207.5</ele>
        <time>2020-11-15T10:12:12Z</time>
      </trkpt>
      <trkpt lat="46.79005" lon="-0.75646">
        <ele>207.6</ele>
        <time>2020-11-15T10:12:13Z</time>
      </trkpt>
      <trkpt lat="46.79006" lon="-0.75644">
        <ele>207.6</ele>
        <time>2020-11-15T10:12:14Z</time>
      </trkpt>
      <trkpt lat="46.79007" lon="-0.7564">
        <ele>207.6</ele>
        <time>2020-11-15T10:12:16Z</time>
      </trkpt>
      <trkpt lat="46.79005" lon="-0.75636">
        <ele>207.7</ele>
        <time>2020-11-15T10:12:18Z</time>
      </trkpt>
      <trkpt lat="46.79" lon="-0.75633">
        <ele>207.8</ele>
        <time>2020-11-15T10:12:20Z</time>
      </trkpt>
      <trkpt lat="46.78996" lon="-0.75631">
        <ele>207.8</ele>
        <time>2020-11-15T10:12:22Z</time>
      </trkpt>
      <trkpt lat="46.78992" lon="-0.75628">
        <ele>207.9</ele>
        <time>2020-11-15T10:12:24Z</time>
      </trkpt>
      <trkpt lat="46.78988" lon="-0.75625">
        <ele>207.9</ele>
        <time>2020-11-15T10:12:26Z</time>
      </trkpt>
      <trkpt lat="46.78985" lon="-0.75621">
        <ele>207.9</ele>
        <time>2020-11-15T10:12:28Z</time>
      </trkpt>
      <trkpt lat="46.78985" lon="-0.75619">
        <ele>207.9</ele>
        <time>2020-11-15T10:12:29Z</time>
      </trkpt>
      <trkpt lat="46.78984" lon="-0.75616">
        <ele>208</ele>
        <time>2020-11-15T10:12:30Z</time>
      </trkpt>
      <trkpt lat="46.78982" lon="-0.75613">
        <ele>208</ele>
        <time>2020-11-15T10:12:31Z</time>
      </trkpt>
      <trkpt lat="46.7898" lon="-0.75611">
        <ele>208</ele>
        <time>2020-11-15T10:12:32Z</time>
      </trkpt>
      <trkpt lat="46.78975" lon="-0.75605">
        <ele>208.1</ele>
        <time>2020-11-15T10:12:34Z</time>
      </trkpt>
      <trkpt lat="46.78969" lon="-0.75598">
        <ele>208.1</ele>
        <time>2020-11-15T10:12:36Z</time>
      </trkpt>
      <trkpt lat="46.78966" lon="-0.75594">
        <ele>208.1</ele>
        <time>2020-11-15T10:12:37Z</time>
      </trkpt>
      <trkpt lat="46.78963" lon="-0.7559">
        <ele>208.1</ele>
        <time>2020-11-15T10:12:38Z</time>
      </trkpt>
      <trkpt lat="46.78957" lon="-0.75581">
        <ele>208.1</ele>
        <time>2020-11-15T10:12:40Z</time>
      </trkpt>
      <trkpt lat="46.7895" lon="-0.75573">
        <ele>208</ele>
        <time>2020-11-15T10:12:42Z</time>
      </trkpt>
      <trkpt lat="46.78947" lon="-0.75569">
        <ele>207.9</ele>
        <time>2020-11-15T10:12:43Z</time>
      </trkpt>
      <trkpt lat="46.78944" lon="-0.75565">
        <ele>207.8</ele>
        <time>2020-11-15T10:12:44Z</time>
      </trkpt>
      <trkpt lat="46.7894" lon="-0.75561">
        <ele>207.7</ele>
        <time>2020-11-15T10:12:45Z</time>
      </trkpt>
      <trkpt lat="46.78936" lon="-0.75558">
        <ele>207.5</ele>
        <time>2020-11-15T10:12:46Z</time>
      </trkpt>
      <trkpt lat="46.78928" lon="-0.75555">
        <ele>207.3</ele>
        <time>2020-11-15T10:12:48Z</time>
      </trkpt>
      <trkpt lat="46.78923" lon="-0.75554">
        <ele>207.2</ele>
        <time>2020-11-15T10:12:49Z</time>
      </trkpt>
      <trkpt lat="46.78919" lon="-0.75554">
        <ele>207.1</ele>
        <time>2020-11-15T10:12:50Z</time>
      </trkpt>
      <trkpt lat="46.7891" lon="-0.75556">
        <ele>206.8</ele>
        <time>2020-11-15T10:12:52Z</time>
      </trkpt>
      <trkpt lat="46.78905" lon="-0.75556">
        <ele>206.7</ele>
        <time>2020-11-15T10:12:53Z</time>
      </trkpt>
      <trkpt lat="46.78901" lon="-0.75556">
        <ele>206.6</ele>
        <time>2020-11-15T10:12:54Z</time>
      </trkpt>
      <trkpt lat="46.78897" lon="-0.75556">
        <ele>206.5</ele>
        <time>2020-11-15T10:12:55Z</time>
      </trkpt>
      <trkpt lat="46.78892" lon="-0.75556">
        <ele>206.4</ele>
        <time>2020-11-15T10:12:56Z</time>
      </trkpt>
      <trkpt lat="46.78888" lon="-0.75555">
        <ele>206.2</ele>
        <time>2020-11-15T10:12:57Z</time>
      </trkpt>
      <trkpt lat="46.78884" lon="-0.75554">
        <ele>206.1</ele>
        <time>2020-11-15T10:12:58Z</time>
      </trkpt>
      <trkpt lat="46.78875" lon="-0.75553">
        <ele>205.7</ele>
        <time>2020-11-15T10:13:00Z</time>
      </trkpt>
      <trkpt lat="46.78871" lon="-0.75552">
        <ele>205.5</ele>
        <time>2020-11-15T10:13:01Z</time>
      </trkpt>
      <trkpt lat="46.78866" lon="-0.7555">
        <ele>205.4</ele>
        <time>2020-11-15T10:13:02Z</time>
      </trkpt>
      <trkpt lat="46.78858" lon="-0.75545">
        <ele>205</ele>
        <time>2020-11-15T10:13:04Z</time>
      </trkpt>
      <trkpt lat="46.78849" lon="-0.7554">
        <ele>204.6</ele>
        <time>2020-11-15T10:13:06Z</time>
      </trkpt>
      <trkpt lat="46.7884" lon="-0.75534">
        <ele>204.1</ele>
        <time>2020-11-15T10:13:08Z</time>
      </trkpt>
      <trkpt lat="46.78836" lon="-0.7553">
        <ele>203.9</ele>
        <time>2020-11-15T10:13:09Z</time>
      </trkpt>
      <trkpt lat="46.78831" lon="-0.75527">
        <ele>203.6</ele>
        <time>2020-11-15T10:13:10Z</time>
      </trkpt>
      <trkpt lat="46.78822" lon="-0.75519">
        <ele>203.2</ele>
        <time>2020-11-15T10:13:12Z</time>
      </trkpt>
      <trkpt lat="46.78813" lon="-0.7551">
        <ele>202.7</ele>
        <time>2020-11-15T10:13:14Z</time>
      </trkpt>
      <trkpt lat="46.78809" lon="-0.75505">
        <ele>202.5</ele>
        <time>2020-11-15T10:13:15Z</time>
      </trkpt>
      <trkpt lat="46.78805" lon="-0.755">
        <ele>202.4</ele>
        <time>2020-11-15T10:13:16Z</time>
      </trkpt>
      <trkpt lat="46.78797" lon="-0.75489">
        <ele>202</ele>
        <time>2020-11-15T10:13:18Z</time>
      </trkpt>
      <trkpt lat="46.78791" lon="-0.75478">
        <ele>201.8</ele>
        <time>2020-11-15T10:13:20Z</time>
      </trkpt>
      <trkpt lat="46.78788" lon="-0.75472">
        <ele>201.8</ele>
        <time>2020-11-15T10:13:21Z</time>
      </trkpt>
      <trkpt lat="46.78785" lon="-0.75466">
        <ele>201.7</ele>
        <time>2020-11-15T10:13:22Z</time>
      </trkpt>
      <trkpt lat="46.7878" lon="-0.75453">
        <ele>201.7</ele>
        <time>2020-11-15T10:13:24Z</time>
      </trkpt>
      <trkpt lat="46.78775" lon="-0.7544">
        <ele>201.7</ele>
        <time>2020-11-15T10:13:26Z</time>
      </trkpt>
      <trkpt lat="46.78771" lon="-0.75426">
        <ele>201.7</ele>
        <time>2020-11-15T10:13:28Z</time>
      </trkpt>
      <trkpt lat="46.78767" lon="-0.75413">
        <ele>201.7</ele>
        <time>2020-11-15T10:13:30Z</time>
      </trkpt>
      <trkpt lat="46.78764" lon="-0.754">
        <ele>201.8</ele>
        <time>2020-11-15T10:13:32Z</time>
      </trkpt>
      <trkpt lat="46.78761" lon="-0.7539">
        <ele>201.9</ele>
        <time>2020-11-15T10:13:34Z</time>
      </trkpt>
      <trkpt lat="46.78756" lon="-0.7538">
        <ele>202</ele>
        <time>2020-11-15T10:13:36Z</time>
      </trkpt>
      <trkpt lat="46.78752" lon="-0.75369">
        <ele>201.9</ele>
        <time>2020-11-15T10:13:38Z</time>
      </trkpt>
      <trkpt lat="46.78749" lon="-0.75358">
        <ele>201.7</ele>
        <time>2020-11-15T10:13:40Z</time>
      </trkpt>
      <trkpt lat="46.78745" lon="-0.75345">
        <ele>201.4</ele>
        <time>2020-11-15T10:13:42Z</time>
      </trkpt>
      <trkpt lat="46.78741" lon="-0.75333">
        <ele>201</ele>
        <time>2020-11-15T10:13:44Z</time>
      </trkpt>
      <trkpt lat="46.78736" lon="-0.7532">
        <ele>200.4</ele>
        <time>2020-11-15T10:13:46Z</time>
      </trkpt>
      <trkpt lat="46.78734" lon="-0.75314">
        <ele>200.1</ele>
        <time>2020-11-15T10:13:47Z</time>
      </trkpt>
      <trkpt lat="46.78731" lon="-0.75307">
        <ele>199.8</ele>
        <time>2020-11-15T10:13:48Z</time>
      </trkpt>
      <trkpt lat="46.78727" lon="-0.75292">
        <ele>199.3</ele>
        <time>2020-11-15T10:13:50Z</time>
      </trkpt>
      <trkpt lat="46.78723" lon="-0.75276">
        <ele>198.7</ele>
        <time>2020-11-15T10:13:52Z</time>
      </trkpt>
      <trkpt lat="46.7872" lon="-0.75268">
        <ele>198.5</ele>
        <time>2020-11-15T10:13:53Z</time>
      </trkpt>
      <trkpt lat="46.78718" lon="-0.7526">
        <ele>198.2</ele>
        <time>2020-11-15T10:13:54Z</time>
      </trkpt>
      <trkpt lat="46.78714" lon="-0.75243">
        <ele>197.8</ele>
        <time>2020-11-15T10:13:56Z</time>
      </trkpt>
      <trkpt lat="46.78709" lon="-0.75226">
        <ele>197.5</ele>
        <time>2020-11-15T10:13:58Z</time>
      </trkpt>
      <trkpt lat="46.78705" lon="-0.75209">
        <ele>197.2</ele>
        <time>2020-11-15T10:14:00Z</time>
      </trkpt>
      <trkpt lat="46.78701" lon="-0.75192">
        <ele>196.8</ele>
        <time>2020-11-15T10:14:02Z</time>
      </trkpt>
      <trkpt lat="46.78696" lon="-0.75174">
        <ele>196.4</ele>
        <time>2020-11-15T10:14:04Z</time>
      </trkpt>
      <trkpt lat="46.78691" lon="-0.75158">
        <ele>196.1</ele>
        <time>2020-11-15T10:14:06Z</time>
      </trkpt>
      <trkpt lat="46.78687" lon="-0.7515">
        <ele>196</ele>
        <time>2020-11-15T10:14:07Z</time>
      </trkpt>
      <trkpt lat="46.78684" lon="-0.75143">
        <ele>195.8</ele>
        <time>2020-11-15T10:14:08Z</time>
      </trkpt>
      <trkpt lat="46.7868" lon="-0.75135">
        <ele>195.7</ele>
        <time>2020-11-15T10:14:09Z</time>
      </trkpt>
      <trkpt lat="46.78676" lon="-0.75128">
        <ele>195.6</ele>
        <time>2020-11-15T10:14:10Z</time>
      </trkpt>
      <trkpt lat="46.78672" lon="-0.75122">
        <ele>195.5</ele>
        <time>2020-11-15T10:14:11Z</time>
      </trkpt>
      <trkpt lat="46.78668" lon="-0.75116">
        <ele>195.4</ele>
        <time>2020-11-15T10:14:12Z</time>
      </trkpt>
      <trkpt lat="46.78665" lon="-0.7511">
        <ele>195.3</ele>
        <time>2020-11-15T10:14:13Z</time>
      </trkpt>
      <trkpt lat="46.78663" lon="-0.75103">
        <ele>195.1</ele>
        <time>2020-11-15T10:14:14Z</time>
      </trkpt>
      <trkpt lat="46.78663" lon="-0.75096">
        <ele>194.9</ele>
        <time>2020-11-15T10:14:15Z</time>
      </trkpt>
      <trkpt lat="46.78664" lon="-0.7509">
        <ele>194.7</ele>
        <time>2020-11-15T10:14:16Z</time>
      </trkpt>
      <trkpt lat="46.78665" lon="-0.75083">
        <ele>194.5</ele>
        <time>2020-11-15T10:14:17Z</time>
      </trkpt>
      <trkpt lat="46.78667" lon="-0.75077">
        <ele>194.3</ele>
        <time>2020-11-15T10:14:18Z</time>
      </trkpt>
      <trkpt lat="46.78669" lon="-0.75071">
        <ele>194.1</ele>
        <time>2020-11-15T10:14:19Z</time>
      </trkpt>
      <trkpt lat="46.78672" lon="-0.75065">
        <ele>193.9</ele>
        <time>2020-11-15T10:14:20Z</time>
      </trkpt>
      <trkpt lat="46.78677" lon="-0.7505">
        <ele>193.3</ele>
        <time>2020-11-15T10:14:22Z</time>
      </trkpt>
      <trkpt lat="46.7868" lon="-0.75032">
        <ele>192.6</ele>
        <time>2020-11-15T10:14:24Z</time>
      </trkpt>
      <trkpt lat="46.78685" lon="-0.75013">
        <ele>191.8</ele>
        <time>2020-11-15T10:14:26Z</time>
      </trkpt>
      <trkpt lat="46.7869" lon="-0.74996">
        <ele>191.1</ele>
        <time>2020-11-15T10:14:28Z</time>
      </trkpt>
      <trkpt lat="46.78693" lon="-0.74979">
        <ele>190.5</ele>
        <time>2020-11-15T10:14:30Z</time>
      </trkpt>
      <trkpt lat="46.78694" lon="-0.74966">
        <ele>189.8</ele>
        <time>2020-11-15T10:14:32Z</time>
      </trkpt>
      <trkpt lat="46.78695" lon="-0.74962">
        <ele>189.6</ele>
        <time>2020-11-15T10:14:33Z</time>
      </trkpt>
      <trkpt lat="46.78697" lon="-0.74959">
        <ele>189.3</ele>
        <time>2020-11-15T10:14:34Z</time>
      </trkpt>
      <trkpt lat="46.78703" lon="-0.74947">
        <ele>188</ele>
        <time>2020-11-15T10:14:36Z</time>
      </trkpt>
      <trkpt lat="46.78712" lon="-0.74929">
        <ele>186.2</ele>
        <time>2020-11-15T10:14:38Z</time>
      </trkpt>
      <trkpt lat="46.78721" lon="-0.74909">
        <ele>184.6</ele>
        <time>2020-11-15T10:14:40Z</time>
      </trkpt>
      <trkpt lat="46.7873" lon="-0.7489">
        <ele>183.5</ele>
        <time>2020-11-15T10:14:42Z</time>
      </trkpt>
      <trkpt lat="46.78734" lon="-0.74879">
        <ele>183</ele>
        <time>2020-11-15T10:14:43Z</time>
      </trkpt>
      <trkpt lat="46.78737" lon="-0.74867">
        <ele>182.4</ele>
        <time>2020-11-15T10:14:44Z</time>
      </trkpt>
      <trkpt lat="46.78744" lon="-0.74842">
        <ele>181.4</ele>
        <time>2020-11-15T10:14:46Z</time>
      </trkpt>
      <trkpt lat="46.78751" lon="-0.74819">
        <ele>180.4</ele>
        <time>2020-11-15T10:14:48Z</time>
      </trkpt>
      <trkpt lat="46.78759" lon="-0.74797">
        <ele>179.6</ele>
        <time>2020-11-15T10:14:50Z</time>
      </trkpt>
      <trkpt lat="46.78767" lon="-0.74777">
        <ele>178.8</ele>
        <time>2020-11-15T10:14:52Z</time>
      </trkpt>
      <trkpt lat="46.78775" lon="-0.74758">
        <ele>178.1</ele>
        <time>2020-11-15T10:14:54Z</time>
      </trkpt>
      <trkpt lat="46.78782" lon="-0.7474">
        <ele>177.5</ele>
        <time>2020-11-15T10:14:56Z</time>
      </trkpt>
      <trkpt lat="46.78789" lon="-0.74721">
        <ele>176.9</ele>
        <time>2020-11-15T10:14:58Z</time>
      </trkpt>
      <trkpt lat="46.78796" lon="-0.74702">
        <ele>176.3</ele>
        <time>2020-11-15T10:15:00Z</time>
      </trkpt>
      <trkpt lat="46.78801" lon="-0.74683">
        <ele>175.9</ele>
        <time>2020-11-15T10:15:02Z</time>
      </trkpt>
      <trkpt lat="46.78806" lon="-0.74662">
        <ele>175.6</ele>
        <time>2020-11-15T10:15:04Z</time>
      </trkpt>
      <trkpt lat="46.78809" lon="-0.74653">
        <ele>175.4</ele>
        <time>2020-11-15T10:15:05Z</time>
      </trkpt>
      <trkpt lat="46.78812" lon="-0.74643">
        <ele>175.2</ele>
        <time>2020-11-15T10:15:06Z</time>
      </trkpt>
      <trkpt lat="46.78814" lon="-0.74634">
        <ele>175</ele>
        <time>2020-11-15T10:15:07Z</time>
      </trkpt>
      <trkpt lat="46.78816" lon="-0.74624">
        <ele>174.8</ele>
        <time>2020-11-15T10:15:08Z</time>
      </trkpt>
      <trkpt lat="46.78817" lon="-0.74614">
        <ele>174.5</ele>
        <time>2020-11-15T10:15:09Z</time>
      </trkpt>
      <trkpt lat="46.78818" lon="-0.74604">
        <ele>174.3</ele>
        <time>2020-11-15T10:15:10Z</time>
      </trkpt>
      <trkpt lat="46.78822" lon="-0.74582">
        <ele>173.9</ele>
        <time>2020-11-15T10:15:12Z</time>
      </trkpt>
      <trkpt lat="46.78825" lon="-0.74571">
        <ele>173.7</ele>
        <time>2020-11-15T10:15:13Z</time>
      </trkpt>
      <trkpt lat="46.78828" lon="-0.74559">
        <ele>173.4</ele>
        <time>2020-11-15T10:15:14Z</time>
      </trkpt>
      <trkpt lat="46.78832" lon="-0.74537">
        <ele>173.1</ele>
        <time>2020-11-15T10:15:16Z</time>
      </trkpt>
      <trkpt lat="46.78837" lon="-0.74517">
        <ele>172.7</ele>
        <time>2020-11-15T10:15:18Z</time>
      </trkpt>
      <trkpt lat="46.78839" lon="-0.74507">
        <ele>172.6</ele>
        <time>2020-11-15T10:15:19Z</time>
      </trkpt>
      <trkpt lat="46.78841" lon="-0.74497">
        <ele>172.4</ele>
        <time>2020-11-15T10:15:20Z</time>
      </trkpt>
      <trkpt lat="46.78845" lon="-0.74476">
        <ele>172.1</ele>
        <time>2020-11-15T10:15:22Z</time>
      </trkpt>
      <trkpt lat="46.7885" lon="-0.74456">
        <ele>171.8</ele>
        <time>2020-11-15T10:15:24Z</time>
      </trkpt>
      <trkpt lat="46.78852" lon="-0.74435">
        <ele>171.5</ele>
        <time>2020-11-15T10:15:26Z</time>
      </trkpt>
      <trkpt lat="46.78852" lon="-0.74414">
        <ele>171.2</ele>
        <time>2020-11-15T10:15:28Z</time>
      </trkpt>
      <trkpt lat="46.78851" lon="-0.74394">
        <ele>170.8</ele>
        <time>2020-11-15T10:15:30Z</time>
      </trkpt>
      <trkpt lat="46.78851" lon="-0.74385">
        <ele>170.6</ele>
        <time>2020-11-15T10:15:31Z</time>
      </trkpt>
      <trkpt lat="46.7885" lon="-0.74378">
        <ele>170.5</ele>
        <time>2020-11-15T10:15:32Z</time>
      </trkpt>
      <trkpt lat="46.78846" lon="-0.74368">
        <ele>170.2</ele>
        <time>2020-11-15T10:15:34Z</time>
      </trkpt>
      <trkpt lat="46.78845" lon="-0.74363">
        <ele>170.1</ele>
        <time>2020-11-15T10:15:35Z</time>
      </trkpt>
      <trkpt lat="46.78844" lon="-0.74358">
        <ele>169.9</ele>
        <time>2020-11-15T10:15:36Z</time>
      </trkpt>
      <trkpt lat="46.78842" lon="-0.74353">
        <ele>169.8</ele>
        <time>2020-11-15T10:15:37Z</time>
      </trkpt>
      <trkpt lat="46.7884" lon="-0.74349">
        <ele>169.6</ele>
        <time>2020-11-15T10:15:38Z</time>
      </trkpt>
      <trkpt lat="46.78838" lon="-0.74346">
        <ele>169.5</ele>
        <time>2020-11-15T10:15:39Z</time>
      </trkpt>
      <trkpt lat="46.78835" lon="-0.74345">
        <ele>169.4</ele>
        <time>2020-11-15T10:15:40Z</time>
      </trkpt>
      <trkpt lat="46.78831" lon="-0.74345">
        <ele>169.5</ele>
        <time>2020-11-15T10:15:41Z</time>
      </trkpt>
      <trkpt lat="46.78828" lon="-0.74347">
        <ele>169.7</ele>
        <time>2020-11-15T10:15:42Z</time>
      </trkpt>
      <trkpt lat="46.78823" lon="-0.74351">
        <ele>169.9</ele>
        <time>2020-11-15T10:15:44Z</time>
      </trkpt>
      <trkpt lat="46.78821" lon="-0.74353">
        <ele>170.1</ele>
        <time>2020-11-15T10:15:45Z</time>
      </trkpt>
      <trkpt lat="46.78818" lon="-0.74355">
        <ele>170.2</ele>
        <time>2020-11-15T10:15:46Z</time>
      </trkpt>
      <trkpt lat="46.78813" lon="-0.74359">
        <ele>170.5</ele>
        <time>2020-11-15T10:15:48Z</time>
      </trkpt>
      <trkpt lat="46.78807" lon="-0.74362">
        <ele>170.8</ele>
        <time>2020-11-15T10:15:50Z</time>
      </trkpt>
      <trkpt lat="46.78803" lon="-0.74363">
        <ele>171</ele>
        <time>2020-11-15T10:15:51Z</time>
      </trkpt>
      <trkpt lat="46.788" lon="-0.74365">
        <ele>171.2</ele>
        <time>2020-11-15T10:15:52Z</time>
      </trkpt>
      <trkpt lat="46.78794" lon="-0.74369">
        <ele>171.4</ele>
        <time>2020-11-15T10:15:54Z</time>
      </trkpt>
      <trkpt lat="46.78788" lon="-0.74372">
        <ele>171.7</ele>
        <time>2020-11-15T10:15:56Z</time>
      </trkpt>
      <trkpt lat="46.78785" lon="-0.74374">
        <ele>171.8</ele>
        <time>2020-11-15T10:15:57Z</time>
      </trkpt>
      <trkpt lat="46.78782" lon="-0.74376">
        <ele>171.9</ele>
        <time>2020-11-15T10:15:58Z</time>
      </trkpt>
      <trkpt lat="46.78777" lon="-0.7438">
        <ele>172</ele>
        <time>2020-11-15T10:16:00Z</time>
      </trkpt>
      <trkpt lat="46.78771" lon="-0.74385">
        <ele>172</ele>
        <time>2020-11-15T10:16:02Z</time>
      </trkpt>
      <trkpt lat="46.78768" lon="-0.74387">
        <ele>172</ele>
        <time>2020-11-15T10:16:03Z</time>
      </trkpt>
      <trkpt lat="46.78765" lon="-0.74389">
        <ele>172</ele>
        <time>2020-11-15T10:16:04Z</time>
      </trkpt>
      <trkpt lat="46.78758" lon="-0.74394">
        <ele>171.9</ele>
        <time>2020-11-15T10:16:06Z</time>
      </trkpt>
      <trkpt lat="46.78751" lon="-0.74399">
        <ele>171.7</ele>
        <time>2020-11-15T10:16:08Z</time>
      </trkpt>
      <trkpt lat="46.78744" lon="-0.74404">
        <ele>171.4</ele>
        <time>2020-11-15T10:16:10Z</time>
      </trkpt>
      <trkpt lat="46.78737" lon="-0.7441">
        <ele>171.1</ele>
        <time>2020-11-15T10:16:12Z</time>
      </trkpt>
      <trkpt lat="46.78729" lon="-0.74416">
        <ele>170.8</ele>
        <time>2020-11-15T10:16:14Z</time>
      </trkpt>
      <trkpt lat="46.78721" lon="-0.7442">
        <ele>170.5</ele>
        <time>2020-11-15T10:16:16Z</time>
      </trkpt>
      <trkpt lat="46.78717" lon="-0.74423">
        <ele>170.4</ele>
        <time>2020-11-15T10:16:17Z</time>
      </trkpt>
      <trkpt lat="46.78712" lon="-0.74426">
        <ele>170.2</ele>
        <time>2020-11-15T10:16:18Z</time>
      </trkpt>
      <trkpt lat="46.78703" lon="-0.74433">
        <ele>169.9</ele>
        <time>2020-11-15T10:16:20Z</time>
      </trkpt>
      <trkpt lat="46.78693" lon="-0.7444">
        <ele>169.6</ele>
        <time>2020-11-15T10:16:22Z</time>
      </trkpt>
      <trkpt lat="46.78682" lon="-0.74447">
        <ele>169.4</ele>
        <time>2020-11-15T10:16:24Z</time>
      </trkpt>
      <trkpt lat="46.78672" lon="-0.74454">
        <ele>169.3</ele>
        <time>2020-11-15T10:16:26Z</time>
      </trkpt>
      <trkpt lat="46.78661" lon="-0.74462">
        <ele>169.3</ele>
        <time>2020-11-15T10:16:28Z</time>
      </trkpt>
      <trkpt lat="46.78651" lon="-0.74468">
        <ele>169.4</ele>
        <time>2020-11-15T10:16:30Z</time>
      </trkpt>
      <trkpt lat="46.78641" lon="-0.74475">
        <ele>169.6</ele>
        <time>2020-11-15T10:16:32Z</time>
      </trkpt>
      <trkpt lat="46.78631" lon="-0.74481">
        <ele>169.7</ele>
        <time>2020-11-15T10:16:34Z</time>
      </trkpt>
      <trkpt lat="46.78626" lon="-0.74484">
        <ele>169.8</ele>
        <time>2020-11-15T10:16:35Z</time>
      </trkpt>
      <trkpt lat="46.78621" lon="-0.74486">
        <ele>169.9</ele>
        <time>2020-11-15T10:16:36Z</time>
      </trkpt>
      <trkpt lat="46.78612" lon="-0.74492">
        <ele>170.1</ele>
        <time>2020-11-15T10:16:38Z</time>
      </trkpt>
      <trkpt lat="46.78607" lon="-0.74494">
        <ele>170.2</ele>
        <time>2020-11-15T10:16:39Z</time>
      </trkpt>
      <trkpt lat="46.78602" lon="-0.74496">
        <ele>170.3</ele>
        <time>2020-11-15T10:16:40Z</time>
      </trkpt>
      <trkpt lat="46.78593" lon="-0.74501">
        <ele>170.6</ele>
        <time>2020-11-15T10:16:42Z</time>
      </trkpt>
      <trkpt lat="46.78589" lon="-0.74504">
        <ele>170.8</ele>
        <time>2020-11-15T10:16:43Z</time>
      </trkpt>
      <trkpt lat="46.78584" lon="-0.74506">
        <ele>171</ele>
        <time>2020-11-15T10:16:44Z</time>
      </trkpt>
      <trkpt lat="46.78574" lon="-0.7451">
        <ele>171.4</ele>
        <time>2020-11-15T10:16:46Z</time>
      </trkpt>
      <trkpt lat="46.78564" lon="-0.74514">
        <ele>171.9</ele>
        <time>2020-11-15T10:16:48Z</time>
      </trkpt>
      <trkpt lat="46.78559" lon="-0.74516">
        <ele>172.2</ele>
        <time>2020-11-15T10:16:49Z</time>
      </trkpt>
      <trkpt lat="46.78554" lon="-0.74518">
        <ele>172.5</ele>
        <time>2020-11-15T10:16:50Z</time>
      </trkpt>
      <trkpt lat="46.78545" lon="-0.74521">
        <ele>173</ele>
        <time>2020-11-15T10:16:52Z</time>
      </trkpt>
      <trkpt lat="46.78537" lon="-0.74524">
        <ele>173.4</ele>
        <time>2020-11-15T10:16:54Z</time>
      </trkpt>
      <trkpt lat="46.7853" lon="-0.74527">
        <ele>173.9</ele>
        <time>2020-11-15T10:16:56Z</time>
      </trkpt>
      <trkpt lat="46.78523" lon="-0.7453">
        <ele>174.4</ele>
        <time>2020-11-15T10:16:58Z</time>
      </trkpt>
      <trkpt lat="46.7852" lon="-0.74531">
        <ele>174.6</ele>
        <time>2020-11-15T10:16:59Z</time>
      </trkpt>
      <trkpt lat="46.78517" lon="-0.74532">
        <ele>174.8</ele>
        <time>2020-11-15T10:17:00Z</time>
      </trkpt>
      <trkpt lat="46.78512" lon="-0.74535">
        <ele>175.2</ele>
        <time>2020-11-15T10:17:02Z</time>
      </trkpt>
      <trkpt lat="46.78509" lon="-0.74537">
        <ele>175.4</ele>
        <time>2020-11-15T10:17:03Z</time>
      </trkpt>
      <trkpt lat="46.78505" lon="-0.74539">
        <ele>175.7</ele>
        <time>2020-11-15T10:17:04Z</time>
      </trkpt>
      <trkpt lat="46.78498" lon="-0.74542">
        <ele>176.1</ele>
        <time>2020-11-15T10:17:06Z</time>
      </trkpt>
      <trkpt lat="46.7849" lon="-0.74544">
        <ele>176.5</ele>
        <time>2020-11-15T10:17:08Z</time>
      </trkpt>
      <trkpt lat="46.78482" lon="-0.74547">
        <ele>176.9</ele>
        <time>2020-11-15T10:17:10Z</time>
      </trkpt>
      <trkpt lat="46.78474" lon="-0.74551">
        <ele>177.2</ele>
        <time>2020-11-15T10:17:12Z</time>
      </trkpt>
      <trkpt lat="46.7847" lon="-0.74552">
        <ele>177.3</ele>
        <time>2020-11-15T10:17:13Z</time>
      </trkpt>
      <trkpt lat="46.78467" lon="-0.74554">
        <ele>177.5</ele>
        <time>2020-11-15T10:17:14Z</time>
      </trkpt>
      <trkpt lat="46.7846" lon="-0.74558">
        <ele>177.7</ele>
        <time>2020-11-15T10:17:16Z</time>
      </trkpt>
      <trkpt lat="46.78454" lon="-0.74561">
        <ele>177.8</ele>
        <time>2020-11-15T10:17:18Z</time>
      </trkpt>
      <trkpt lat="46.78451" lon="-0.74563">
        <ele>177.9</ele>
        <time>2020-11-15T10:17:19Z</time>
      </trkpt>
      <trkpt lat="46.78448" lon="-0.74566">
        <ele>177.9</ele>
        <time>2020-11-15T10:17:20Z</time>
      </trkpt>
      <trkpt lat="46.78442" lon="-0.7457">
        <ele>178</ele>
        <time>2020-11-15T10:17:22Z</time>
      </trkpt>
      <trkpt lat="46.78439" lon="-0.7457">
        <ele>178</ele>
        <time>2020-11-15T10:17:23Z</time>
      </trkpt>
      <trkpt lat="46.78435" lon="-0.7457">
        <ele>178</ele>
        <time>2020-11-15T10:17:24Z</time>
      </trkpt>
      <trkpt lat="46.78428" lon="-0.74568">
        <ele>177.8</ele>
        <time>2020-11-15T10:17:26Z</time>
      </trkpt>
      <trkpt lat="46.78423" lon="-0.74566">
        <ele>177.5</ele>
        <time>2020-11-15T10:17:27Z</time>
      </trkpt>
      <trkpt lat="46.7842" lon="-0.74562">
        <ele>177.3</ele>
        <time>2020-11-15T10:17:28Z</time>
      </trkpt>
      <trkpt lat="46.78417" lon="-0.74557">
        <ele>177.1</ele>
        <time>2020-11-15T10:17:29Z</time>
      </trkpt>
      <trkpt lat="46.78414" lon="-0.7455">
        <ele>176.9</ele>
        <time>2020-11-15T10:17:30Z</time>
      </trkpt>
      <trkpt lat="46.7841" lon="-0.74537">
        <ele>176.6</ele>
        <time>2020-11-15T10:17:32Z</time>
      </trkpt>
      <trkpt lat="46.78408" lon="-0.74531">
        <ele>176.4</ele>
        <time>2020-11-15T10:17:33Z</time>
      </trkpt>
      <trkpt lat="46.78407" lon="-0.74525">
        <ele>176.3</ele>
        <time>2020-11-15T10:17:34Z</time>
      </trkpt>
      <trkpt lat="46.78403" lon="-0.74512">
        <ele>176</ele>
        <time>2020-11-15T10:17:36Z</time>
      </trkpt>
      <trkpt lat="46.78399" lon="-0.74498">
        <ele>175.8</ele>
        <time>2020-11-15T10:17:38Z</time>
      </trkpt>
      <trkpt lat="46.78395" lon="-0.74485">
        <ele>175.7</ele>
        <time>2020-11-15T10:17:40Z</time>
      </trkpt>
      <trkpt lat="46.78391" lon="-0.74473">
        <ele>175.6</ele>
        <time>2020-11-15T10:17:42Z</time>
      </trkpt>
      <trkpt lat="46.78386" lon="-0.7446">
        <ele>175.5</ele>
        <time>2020-11-15T10:17:44Z</time>
      </trkpt>
      <trkpt lat="46.78382" lon="-0.74449">
        <ele>175.7</ele>
        <time>2020-11-15T10:17:46Z</time>
      </trkpt>
      <trkpt lat="46.78376" lon="-0.74441">
        <ele>175.7</ele>
        <time>2020-11-15T10:17:48Z</time>
      </trkpt>
      <trkpt lat="46.78369" lon="-0.74432">
        <ele>175.7</ele>
        <time>2020-11-15T10:17:50Z</time>
      </trkpt>
      <trkpt lat="46.78364" lon="-0.74423">
        <ele>175.5</ele>
        <time>2020-11-15T10:17:52Z</time>
      </trkpt>
      <trkpt lat="46.78358" lon="-0.74414">
        <ele>175.2</ele>
        <time>2020-11-15T10:17:54Z</time>
      </trkpt>
      <trkpt lat="46.78354" lon="-0.74409">
        <ele>175</ele>
        <time>2020-11-15T10:17:55Z</time>
      </trkpt>
      <trkpt lat="46.7835" lon="-0.74406">
        <ele>174.8</ele>
        <time>2020-11-15T10:17:56Z</time>
      </trkpt>
      <trkpt lat="46.78346" lon="-0.74404">
        <ele>174.6</ele>
        <time>2020-11-15T10:17:57Z</time>
      </trkpt>
      <trkpt lat="46.78341" lon="-0.74405">
        <ele>174.3</ele>
        <time>2020-11-15T10:17:58Z</time>
      </trkpt>
      <trkpt lat="46.78336" lon="-0.74407">
        <ele>174</ele>
        <time>2020-11-15T10:17:59Z</time>
      </trkpt>
      <trkpt lat="46.7833" lon="-0.74411">
        <ele>173.6</ele>
        <time>2020-11-15T10:18:00Z</time>
      </trkpt>
      <trkpt lat="46.7832" lon="-0.7442">
        <ele>172.6</ele>
        <time>2020-11-15T10:18:02Z</time>
      </trkpt>
      <trkpt lat="46.78308" lon="-0.7443">
        <ele>171.6</ele>
        <time>2020-11-15T10:18:04Z</time>
      </trkpt>
      <trkpt lat="46.78302" lon="-0.74434">
        <ele>171.1</ele>
        <time>2020-11-15T10:18:05Z</time>
      </trkpt>
      <trkpt lat="46.78295" lon="-0.74437">
        <ele>170.7</ele>
        <time>2020-11-15T10:18:06Z</time>
      </trkpt>
      <trkpt lat="46.78282" lon="-0.74441">
        <ele>169.6</ele>
        <time>2020-11-15T10:18:08Z</time>
      </trkpt>
      <trkpt lat="46.78275" lon="-0.74442">
        <ele>169.2</ele>
        <time>2020-11-15T10:18:09Z</time>
      </trkpt>
      <trkpt lat="46.78269" lon="-0.74444">
        <ele>168.9</ele>
        <time>2020-11-15T10:18:10Z</time>
      </trkpt>
      <trkpt lat="46.78255" lon="-0.7445">
        <ele>168.5</ele>
        <time>2020-11-15T10:18:12Z</time>
      </trkpt>
      <trkpt lat="46.7824" lon="-0.74455">
        <ele>168.4</ele>
        <time>2020-11-15T10:18:14Z</time>
      </trkpt>
      <trkpt lat="46.78234" lon="-0.74457">
        <ele>168.4</ele>
        <time>2020-11-15T10:18:15Z</time>
      </trkpt>
      <trkpt lat="46.78227" lon="-0.74458">
        <ele>168.6</ele>
        <time>2020-11-15T10:18:16Z</time>
      </trkpt>
      <trkpt lat="46.78221" lon="-0.74459">
        <ele>168.8</ele>
        <time>2020-11-15T10:18:17Z</time>
      </trkpt>
      <trkpt lat="46.78215" lon="-0.74461">
        <ele>169</ele>
        <time>2020-11-15T10:18:18Z</time>
      </trkpt>
      <trkpt lat="46.7821" lon="-0.74464">
        <ele>169.2</ele>
        <time>2020-11-15T10:18:19Z</time>
      </trkpt>
      <trkpt lat="46.78205" lon="-0.74467">
        <ele>169.5</ele>
        <time>2020-11-15T10:18:20Z</time>
      </trkpt>
      <trkpt lat="46.78201" lon="-0.74471">
        <ele>169.7</ele>
        <time>2020-11-15T10:18:21Z</time>
      </trkpt>
      <trkpt lat="46.78198" lon="-0.74475">
        <ele>169.9</ele>
        <time>2020-11-15T10:18:22Z</time>
      </trkpt>
      <trkpt lat="46.78195" lon="-0.74486">
        <ele>170.5</ele>
        <time>2020-11-15T10:18:24Z</time>
      </trkpt>
      <trkpt lat="46.78193" lon="-0.74496">
        <ele>171</ele>
        <time>2020-11-15T10:18:26Z</time>
      </trkpt>
      <trkpt lat="46.78189" lon="-0.74505">
        <ele>171.4</ele>
        <time>2020-11-15T10:18:28Z</time>
      </trkpt>
      <trkpt lat="46.78184" lon="-0.74514">
        <ele>171.8</ele>
        <time>2020-11-15T10:18:30Z</time>
      </trkpt>
      <trkpt lat="46.78178" lon="-0.74522">
        <ele>172.1</ele>
        <time>2020-11-15T10:18:32Z</time>
      </trkpt>
      <trkpt lat="46.78172" lon="-0.74528">
        <ele>172.3</ele>
        <time>2020-11-15T10:18:34Z</time>
      </trkpt>
      <trkpt lat="46.78165" lon="-0.74536">
        <ele>172.5</ele>
        <time>2020-11-15T10:18:36Z</time>
      </trkpt>
      <trkpt lat="46.78158" lon="-0.74544">
        <ele>172.7</ele>
        <time>2020-11-15T10:18:38Z</time>
      </trkpt>
      <trkpt lat="46.78151" lon="-0.74552">
        <ele>172.8</ele>
        <time>2020-11-15T10:18:40Z</time>
      </trkpt>
      <trkpt lat="46.78147" lon="-0.74556">
        <ele>172.9</ele>
        <time>2020-11-15T10:18:41Z</time>
      </trkpt>
      <trkpt lat="46.78143" lon="-0.74559">
        <ele>173</ele>
        <time>2020-11-15T10:18:42Z</time>
      </trkpt>
      <trkpt lat="46.78135" lon="-0.74564">
        <ele>173.1</ele>
        <time>2020-11-15T10:18:44Z</time>
      </trkpt>
      <trkpt lat="46.78129" lon="-0.74567">
        <ele>173.1</ele>
        <time>2020-11-15T10:18:46Z</time>
      </trkpt>
      <trkpt lat="46.7812" lon="-0.7457">
        <ele>173.1</ele>
        <time>2020-11-15T10:18:48Z</time>
      </trkpt>
      <trkpt lat="46.78116" lon="-0.74571">
        <ele>173.1</ele>
        <time>2020-11-15T10:18:49Z</time>
      </trkpt>
      <trkpt lat="46.78111" lon="-0.74572">
        <ele>173</ele>
        <time>2020-11-15T10:18:50Z</time>
      </trkpt>
      <trkpt lat="46.78106" lon="-0.74573">
        <ele>172.9</ele>
        <time>2020-11-15T10:18:51Z</time>
      </trkpt>
      <trkpt lat="46.78101" lon="-0.74574">
        <ele>172.8</ele>
        <time>2020-11-15T10:18:52Z</time>
      </trkpt>
      <trkpt lat="46.78096" lon="-0.74573">
        <ele>172.7</ele>
        <time>2020-11-15T10:18:53Z</time>
      </trkpt>
      <trkpt lat="46.78091" lon="-0.74572">
        <ele>172.7</ele>
        <time>2020-11-15T10:18:54Z</time>
      </trkpt>
      <trkpt lat="46.78088" lon="-0.7457">
        <ele>172.6</ele>
        <time>2020-11-15T10:18:55Z</time>
      </trkpt>
      <trkpt lat="46.78085" lon="-0.74566">
        <ele>172.5</ele>
        <time>2020-11-15T10:18:56Z</time>
      </trkpt>
      <trkpt lat="46.78076" lon="-0.74554">
        <ele>172.3</ele>
        <time>2020-11-15T10:18:58Z</time>
      </trkpt>
      <trkpt lat="46.78071" lon="-0.74547">
        <ele>172.2</ele>
        <time>2020-11-15T10:18:59Z</time>
      </trkpt>
      <trkpt lat="46.78066" lon="-0.74539">
        <ele>172.2</ele>
        <time>2020-11-15T10:19:00Z</time>
      </trkpt>
      <trkpt lat="46.78061" lon="-0.74534">
        <ele>172.2</ele>
        <time>2020-11-15T10:19:01Z</time>
      </trkpt>
      <trkpt lat="46.78057" lon="-0.74531">
        <ele>172.2</ele>
        <time>2020-11-15T10:19:02Z</time>
      </trkpt>
      <trkpt lat="46.78053" lon="-0.74527">
        <ele>172.2</ele>
        <time>2020-11-15T10:19:04Z</time>
      </trkpt>
      <trkpt lat="46.78052" lon="-0.74524">
        <ele>172.2</ele>
        <time>2020-11-15T10:19:05Z</time>
      </trkpt>
      <trkpt lat="46.7805" lon="-0.7452">
        <ele>172.2</ele>
        <time>2020-11-15T10:19:06Z</time>
      </trkpt>
      <trkpt lat="46.78048" lon="-0.74515">
        <ele>172.2</ele>
        <time>2020-11-15T10:19:08Z</time>
      </trkpt>
      <trkpt lat="46.78048" lon="-0.74513">
        <ele>172.2</ele>
        <time>2020-11-15T10:19:09Z</time>
      </trkpt>
      <trkpt lat="46.78045" lon="-0.74507">
        <ele>172.2</ele>
        <time>2020-11-15T10:19:11Z</time>
      </trkpt>
      <trkpt lat="46.78044" lon="-0.74504">
        <ele>172.2</ele>
        <time>2020-11-15T10:19:12Z</time>
      </trkpt>
      <trkpt lat="46.78043" lon="-0.74498">
        <ele>172.2</ele>
        <time>2020-11-15T10:19:14Z</time>
      </trkpt>
      <trkpt lat="46.78043" lon="-0.74493">
        <ele>172.2</ele>
        <time>2020-11-15T10:19:16Z</time>
      </trkpt>
      <trkpt lat="46.78045" lon="-0.74485">
        <ele>171.9</ele>
        <time>2020-11-15T10:19:18Z</time>
      </trkpt>
      <trkpt lat="46.78044" lon="-0.74477">
        <ele>171.7</ele>
        <time>2020-11-15T10:19:20Z</time>
      </trkpt>
      <trkpt lat="46.78043" lon="-0.74473">
        <ele>171.4</ele>
        <time>2020-11-15T10:19:21Z</time>
      </trkpt>
      <trkpt lat="46.78044" lon="-0.7447">
        <ele>171</ele>
        <time>2020-11-15T10:19:22Z</time>
      </trkpt>
      <trkpt lat="46.78044" lon="-0.74466">
        <ele>170.7</ele>
        <time>2020-11-15T10:19:23Z</time>
      </trkpt>
      <trkpt lat="46.78044" lon="-0.74463">
        <ele>170.2</ele>
        <time>2020-11-15T10:19:24Z</time>
      </trkpt>
      <trkpt lat="46.78044" lon="-0.7446">
        <ele>169.8</ele>
        <time>2020-11-15T10:19:25Z</time>
      </trkpt>
      <trkpt lat="46.78043" lon="-0.74456">
        <ele>169.5</ele>
        <time>2020-11-15T10:19:26Z</time>
      </trkpt>
      <trkpt lat="46.78044" lon="-0.7445">
        <ele>169.1</ele>
        <time>2020-11-15T10:19:28Z</time>
      </trkpt>
      <trkpt lat="46.78045" lon="-0.74447">
        <ele>168.8</ele>
        <time>2020-11-15T10:19:30Z</time>
      </trkpt>
      <trkpt lat="46.78043" lon="-0.74438">
        <ele>168.6</ele>
        <time>2020-11-15T10:19:34Z</time>
      </trkpt>
      <trkpt lat="46.78041" lon="-0.74432">
        <ele>168.3</ele>
        <time>2020-11-15T10:19:36Z</time>
      </trkpt>
      <trkpt lat="46.7804" lon="-0.74429">
        <ele>168.5</ele>
        <time>2020-11-15T10:19:37Z</time>
      </trkpt>
      <trkpt lat="46.78038" lon="-0.74426">
        <ele>168.6</ele>
        <time>2020-11-15T10:19:38Z</time>
      </trkpt>
      <trkpt lat="46.78037" lon="-0.74421">
        <ele>168.9</ele>
        <time>2020-11-15T10:19:40Z</time>
      </trkpt>
      <trkpt lat="46.78036" lon="-0.74418">
        <ele>169.1</ele>
        <time>2020-11-15T10:19:41Z</time>
      </trkpt>
      <trkpt lat="46.78035" lon="-0.74415">
        <ele>169.3</ele>
        <time>2020-11-15T10:19:42Z</time>
      </trkpt>
      <trkpt lat="46.78033" lon="-0.74409">
        <ele>169.6</ele>
        <time>2020-11-15T10:19:44Z</time>
      </trkpt>
      <trkpt lat="46.78031" lon="-0.74407">
        <ele>169.9</ele>
        <time>2020-11-15T10:19:45Z</time>
      </trkpt>
      <trkpt lat="46.7803" lon="-0.74404">
        <ele>170</ele>
        <time>2020-11-15T10:19:46Z</time>
      </trkpt>
      <trkpt lat="46.78028" lon="-0.744">
        <ele>170.3</ele>
        <time>2020-11-15T10:19:48Z</time>
      </trkpt>
      <trkpt lat="46.78026" lon="-0.74395">
        <ele>170.6</ele>
        <time>2020-11-15T10:19:50Z</time>
      </trkpt>
      <trkpt lat="46.78023" lon="-0.74389">
        <ele>171</ele>
        <time>2020-11-15T10:19:52Z</time>
      </trkpt>
      <trkpt lat="46.78022" lon="-0.74387">
        <ele>171.2</ele>
        <time>2020-11-15T10:19:53Z</time>
      </trkpt>
      <trkpt lat="46.78021" lon="-0.74385">
        <ele>171.3</ele>
        <time>2020-11-15T10:19:54Z</time>
      </trkpt>
      <trkpt lat="46.78019" lon="-0.74379">
        <ele>171.7</ele>
        <time>2020-11-15T10:19:56Z</time>
      </trkpt>
      <trkpt lat="46.78018" lon="-0.74375">
        <ele>171.9</ele>
        <time>2020-11-15T10:19:58Z</time>
      </trkpt>
      <trkpt lat="46.78017" lon="-0.74373">
        <ele>172</ele>
        <time>2020-11-15T10:19:59Z</time>
      </trkpt>
      <trkpt lat="46.78001" lon="-0.74342">
        <ele>174</ele>
        <time>2020-11-15T10:20:11Z</time>
      </trkpt>
      <trkpt lat="46.77999" lon="-0.74339">
        <ele>174.1</ele>
        <time>2020-11-15T10:20:12Z</time>
      </trkpt>
      <trkpt lat="46.77998" lon="-0.74332">
        <ele>174.3</ele>
        <time>2020-11-15T10:20:14Z</time>
      </trkpt>
      <trkpt lat="46.77995" lon="-0.74327">
        <ele>174.4</ele>
        <time>2020-11-15T10:20:16Z</time>
      </trkpt>
      <trkpt lat="46.77993" lon="-0.74318">
        <ele>174.6</ele>
        <time>2020-11-15T10:20:18Z</time>
      </trkpt>
      <trkpt lat="46.77989" lon="-0.7431">
        <ele>174.8</ele>
        <time>2020-11-15T10:20:20Z</time>
      </trkpt>
      <trkpt lat="46.77988" lon="-0.74302">
        <ele>174.9</ele>
        <time>2020-11-15T10:20:22Z</time>
      </trkpt>
      <trkpt lat="46.77986" lon="-0.74297">
        <ele>175</ele>
        <time>2020-11-15T10:20:23Z</time>
      </trkpt>
      <trkpt lat="46.77984" lon="-0.74293">
        <ele>175.1</ele>
        <time>2020-11-15T10:20:24Z</time>
      </trkpt>
      <trkpt lat="46.77984" lon="-0.74289">
        <ele>175.2</ele>
        <time>2020-11-15T10:20:25Z</time>
      </trkpt>
      <trkpt lat="46.77982" lon="-0.74285">
        <ele>175.2</ele>
        <time>2020-11-15T10:20:26Z</time>
      </trkpt>
      <trkpt lat="46.77981" lon="-0.74282">
        <ele>175.3</ele>
        <time>2020-11-15T10:20:27Z</time>
      </trkpt>
      <trkpt lat="46.7798" lon="-0.74278">
        <ele>175.4</ele>
        <time>2020-11-15T10:20:28Z</time>
      </trkpt>
      <trkpt lat="46.77979" lon="-0.7427">
        <ele>175.5</ele>
        <time>2020-11-15T10:20:30Z</time>
      </trkpt>
      <trkpt lat="46.77978" lon="-0.74266">
        <ele>175.6</ele>
        <time>2020-11-15T10:20:31Z</time>
      </trkpt>
      <trkpt lat="46.77977" lon="-0.74262">
        <ele>175.6</ele>
        <time>2020-11-15T10:20:32Z</time>
      </trkpt>
      <trkpt lat="46.77974" lon="-0.74254">
        <ele>175.7</ele>
        <time>2020-11-15T10:20:34Z</time>
      </trkpt>
      <trkpt lat="46.77971" lon="-0.74246">
        <ele>175.7</ele>
        <time>2020-11-15T10:20:36Z</time>
      </trkpt>
      <trkpt lat="46.7797" lon="-0.74239">
        <ele>175.7</ele>
        <time>2020-11-15T10:20:38Z</time>
      </trkpt>
      <trkpt lat="46.77967" lon="-0.74231">
        <ele>175.7</ele>
        <time>2020-11-15T10:20:40Z</time>
      </trkpt>
      <trkpt lat="46.77965" lon="-0.74225">
        <ele>175.7</ele>
        <time>2020-11-15T10:20:41Z</time>
      </trkpt>
      <trkpt lat="46.77962" lon="-0.74222">
        <ele>175.6</ele>
        <time>2020-11-15T10:20:42Z</time>
      </trkpt>
      <trkpt lat="46.7796" lon="-0.74221">
        <ele>175.6</ele>
        <time>2020-11-15T10:20:43Z</time>
      </trkpt>
      <trkpt lat="46.77958" lon="-0.74221">
        <ele>175.6</ele>
        <time>2020-11-15T10:20:44Z</time>
      </trkpt>
      <trkpt lat="46.77957" lon="-0.74223">
        <ele>175.6</ele>
        <time>2020-11-15T10:20:45Z</time>
      </trkpt>
      <trkpt lat="46.77956" lon="-0.74224">
        <ele>175.6</ele>
        <time>2020-11-15T10:20:46Z</time>
      </trkpt>
      <trkpt lat="46.77954" lon="-0.74224">
        <ele>175.6</ele>
        <time>2020-11-15T10:20:47Z</time>
      </trkpt>
      <trkpt lat="46.77949" lon="-0.74223">
        <ele>175.6</ele>
        <time>2020-11-15T10:20:48Z</time>
      </trkpt>
      <trkpt lat="46.77941" lon="-0.7422">
        <ele>175.7</ele>
        <time>2020-11-15T10:20:50Z</time>
      </trkpt>
      <trkpt lat="46.77939" lon="-0.7422">
        <ele>175.7</ele>
        <time>2020-11-15T10:20:51Z</time>
      </trkpt>
      <trkpt lat="46.77936" lon="-0.74218">
        <ele>175.7</ele>
        <time>2020-11-15T10:20:52Z</time>
      </trkpt>
      <trkpt lat="46.77933" lon="-0.74216">
        <ele>175.8</ele>
        <time>2020-11-15T10:20:53Z</time>
      </trkpt>
      <trkpt lat="46.77932" lon="-0.74214">
        <ele>175.8</ele>
        <time>2020-11-15T10:20:54Z</time>
      </trkpt>
      <trkpt lat="46.77932" lon="-0.74212">
        <ele>175.8</ele>
        <time>2020-11-15T10:20:55Z</time>
      </trkpt>
      <trkpt lat="46.7793" lon="-0.74207">
        <ele>175.8</ele>
        <time>2020-11-15T10:20:56Z</time>
      </trkpt>
      <trkpt lat="46.77926" lon="-0.74198">
        <ele>175.8</ele>
        <time>2020-11-15T10:20:58Z</time>
      </trkpt>
      <trkpt lat="46.77924" lon="-0.74194">
        <ele>175.8</ele>
        <time>2020-11-15T10:20:59Z</time>
      </trkpt>
      <trkpt lat="46.77923" lon="-0.74191">
        <ele>175.8</ele>
        <time>2020-11-15T10:21:00Z</time>
      </trkpt>
      <trkpt lat="46.77919" lon="-0.74183">
        <ele>175.8</ele>
        <time>2020-11-15T10:21:02Z</time>
      </trkpt>
      <trkpt lat="46.77917" lon="-0.74176">
        <ele>175.9</ele>
        <time>2020-11-15T10:21:04Z</time>
      </trkpt>
      <trkpt lat="46.77912" lon="-0.7417">
        <ele>175.9</ele>
        <time>2020-11-15T10:21:06Z</time>
      </trkpt>
      <trkpt lat="46.77911" lon="-0.74166">
        <ele>176</ele>
        <time>2020-11-15T10:21:07Z</time>
      </trkpt>
      <trkpt lat="46.77911" lon="-0.74162">
        <ele>176</ele>
        <time>2020-11-15T10:21:08Z</time>
      </trkpt>
      <trkpt lat="46.7791" lon="-0.74158">
        <ele>176.1</ele>
        <time>2020-11-15T10:21:09Z</time>
      </trkpt>
      <trkpt lat="46.77909" lon="-0.74155">
        <ele>176.2</ele>
        <time>2020-11-15T10:21:10Z</time>
      </trkpt>
      <trkpt lat="46.77905" lon="-0.74149">
        <ele>176.4</ele>
        <time>2020-11-15T10:21:12Z</time>
      </trkpt>
      <trkpt lat="46.77903" lon="-0.74146">
        <ele>176.4</ele>
        <time>2020-11-15T10:21:13Z</time>
      </trkpt>
      <trkpt lat="46.77901" lon="-0.74143">
        <ele>176.5</ele>
        <time>2020-11-15T10:21:14Z</time>
      </trkpt>
      <trkpt lat="46.77899" lon="-0.74134">
        <ele>176.7</ele>
        <time>2020-11-15T10:21:16Z</time>
      </trkpt>
      <trkpt lat="46.77896" lon="-0.74124">
        <ele>176.8</ele>
        <time>2020-11-15T10:21:18Z</time>
      </trkpt>
      <trkpt lat="46.77893" lon="-0.74114">
        <ele>176.8</ele>
        <time>2020-11-15T10:21:20Z</time>
      </trkpt>
      <trkpt lat="46.77892" lon="-0.74111">
        <ele>176.8</ele>
        <time>2020-11-15T10:21:21Z</time>
      </trkpt>
      <trkpt lat="46.7789" lon="-0.74106">
        <ele>176.8</ele>
        <time>2020-11-15T10:21:22Z</time>
      </trkpt>
      <trkpt lat="46.77884" lon="-0.74098">
        <ele>176.9</ele>
        <time>2020-11-15T10:21:24Z</time>
      </trkpt>
      <trkpt lat="46.77882" lon="-0.74095">
        <ele>176.9</ele>
        <time>2020-11-15T10:21:25Z</time>
      </trkpt>
      <trkpt lat="46.77881" lon="-0.74091">
        <ele>177</ele>
        <time>2020-11-15T10:21:26Z</time>
      </trkpt>
      <trkpt lat="46.77877" lon="-0.74084">
        <ele>177.2</ele>
        <time>2020-11-15T10:21:28Z</time>
      </trkpt>
      <trkpt lat="46.77875" lon="-0.74081">
        <ele>177.2</ele>
        <time>2020-11-15T10:21:29Z</time>
      </trkpt>
      <trkpt lat="46.77874" lon="-0.74078">
        <ele>177.3</ele>
        <time>2020-11-15T10:21:30Z</time>
      </trkpt>
      <trkpt lat="46.77868" lon="-0.74071">
        <ele>177.6</ele>
        <time>2020-11-15T10:21:32Z</time>
      </trkpt>
      <trkpt lat="46.77863" lon="-0.74063">
        <ele>177.9</ele>
        <time>2020-11-15T10:21:34Z</time>
      </trkpt>
      <trkpt lat="46.7786" lon="-0.74061">
        <ele>178.1</ele>
        <time>2020-11-15T10:21:35Z</time>
      </trkpt>
      <trkpt lat="46.77859" lon="-0.74058">
        <ele>178.2</ele>
        <time>2020-11-15T10:21:36Z</time>
      </trkpt>
      <trkpt lat="46.77855" lon="-0.74052">
        <ele>178.5</ele>
        <time>2020-11-15T10:21:38Z</time>
      </trkpt>
      <trkpt lat="46.77852" lon="-0.74049">
        <ele>178.8</ele>
        <time>2020-11-15T10:21:39Z</time>
      </trkpt>
      <trkpt lat="46.7785" lon="-0.74046">
        <ele>179</ele>
        <time>2020-11-15T10:21:40Z</time>
      </trkpt>
      <trkpt lat="46.77848" lon="-0.74041">
        <ele>179.2</ele>
        <time>2020-11-15T10:21:42Z</time>
      </trkpt>
      <trkpt lat="46.77846" lon="-0.74038">
        <ele>179.4</ele>
        <time>2020-11-15T10:21:44Z</time>
      </trkpt>
      <trkpt lat="46.77841" lon="-0.74032">
        <ele>179.8</ele>
        <time>2020-11-15T10:21:46Z</time>
      </trkpt>
      <trkpt lat="46.77841" lon="-0.7403">
        <ele>179.8</ele>
        <time>2020-11-15T10:21:47Z</time>
      </trkpt>
      <trkpt lat="46.77837" lon="-0.74023">
        <ele>180.2</ele>
        <time>2020-11-15T10:21:50Z</time>
      </trkpt>
      <trkpt lat="46.77834" lon="-0.74019">
        <ele>180.4</ele>
        <time>2020-11-15T10:21:52Z</time>
      </trkpt>
      <trkpt lat="46.77832" lon="-0.74015">
        <ele>180.7</ele>
        <time>2020-11-15T10:21:54Z</time>
      </trkpt>
      <trkpt lat="46.77829" lon="-0.74011">
        <ele>180.9</ele>
        <time>2020-11-15T10:21:56Z</time>
      </trkpt>
      <trkpt lat="46.77827" lon="-0.7401">
        <ele>181</ele>
        <time>2020-11-15T10:21:57Z</time>
      </trkpt>
      <trkpt lat="46.77825" lon="-0.74008">
        <ele>181.2</ele>
        <time>2020-11-15T10:21:58Z</time>
      </trkpt>
      <trkpt lat="46.77823" lon="-0.74005">
        <ele>181.4</ele>
        <time>2020-11-15T10:22:00Z</time>
      </trkpt>
      <trkpt lat="46.77821" lon="-0.74003">
        <ele>181.6</ele>
        <time>2020-11-15T10:22:01Z</time>
      </trkpt>
      <trkpt lat="46.7782" lon="-0.74002">
        <ele>181.8</ele>
        <time>2020-11-15T10:22:02Z</time>
      </trkpt>
      <trkpt lat="46.7782" lon="-0.74002">
        <ele>181.8</ele>
        <time>2020-11-15T10:22:03Z</time>
      </trkpt>
      <trkpt lat="46.77814" lon="-0.73993">
        <ele>182.6</ele>
        <time>2020-11-15T10:22:07Z</time>
      </trkpt>
      <trkpt lat="46.77812" lon="-0.7399">
        <ele>183</ele>
        <time>2020-11-15T10:22:08Z</time>
      </trkpt>
      <trkpt lat="46.77805" lon="-0.73984">
        <ele>184.1</ele>
        <time>2020-11-15T10:22:10Z</time>
      </trkpt>
      <trkpt lat="46.77799" lon="-0.7398">
        <ele>185</ele>
        <time>2020-11-15T10:22:12Z</time>
      </trkpt>
      <trkpt lat="46.77794" lon="-0.73976">
        <ele>185.7</ele>
        <time>2020-11-15T10:22:14Z</time>
      </trkpt>
      <trkpt lat="46.77794" lon="-0.73976">
        <ele>185.7</ele>
        <time>2020-11-15T10:22:15Z</time>
      </trkpt>
      <trkpt lat="46.77789" lon="-0.73971">
        <ele>186.4</ele>
        <time>2020-11-15T10:22:17Z</time>
      </trkpt>
      <trkpt lat="46.77787" lon="-0.73968">
        <ele>186.8</ele>
        <time>2020-11-15T10:22:18Z</time>
      </trkpt>
      <trkpt lat="46.77783" lon="-0.73965">
        <ele>187.3</ele>
        <time>2020-11-15T10:22:20Z</time>
      </trkpt>
      <trkpt lat="46.77775" lon="-0.7396">
        <ele>188.2</ele>
        <time>2020-11-15T10:22:22Z</time>
      </trkpt>
      <trkpt lat="46.77773" lon="-0.73957">
        <ele>188.5</ele>
        <time>2020-11-15T10:22:23Z</time>
      </trkpt>
      <trkpt lat="46.7777" lon="-0.73954">
        <ele>188.9</ele>
        <time>2020-11-15T10:22:24Z</time>
      </trkpt>
      <trkpt lat="46.77764" lon="-0.7395">
        <ele>189.5</ele>
        <time>2020-11-15T10:22:26Z</time>
      </trkpt>
      <trkpt lat="46.77762" lon="-0.73947">
        <ele>189.8</ele>
        <time>2020-11-15T10:22:27Z</time>
      </trkpt>
      <trkpt lat="46.7776" lon="-0.73945">
        <ele>190.1</ele>
        <time>2020-11-15T10:22:28Z</time>
      </trkpt>
      <trkpt lat="46.77758" lon="-0.73941">
        <ele>190.3</ele>
        <time>2020-11-15T10:22:30Z</time>
      </trkpt>
      <trkpt lat="46.77756" lon="-0.73939">
        <ele>190.5</ele>
        <time>2020-11-15T10:22:31Z</time>
      </trkpt>
      <trkpt lat="46.77755" lon="-0.73938">
        <ele>190.6</ele>
        <time>2020-11-15T10:22:32Z</time>
      </trkpt>
      <trkpt lat="46.77751" lon="-0.73935">
        <ele>190.8</ele>
        <time>2020-11-15T10:22:34Z</time>
      </trkpt>
      <trkpt lat="46.77748" lon="-0.73933">
        <ele>190.9</ele>
        <time>2020-11-15T10:22:36Z</time>
      </trkpt>
      <trkpt lat="46.77746" lon="-0.73931">
        <ele>191</ele>
        <time>2020-11-15T10:22:38Z</time>
      </trkpt>
      <trkpt lat="46.77745" lon="-0.73929">
        <ele>191.1</ele>
        <time>2020-11-15T10:22:40Z</time>
      </trkpt>
      <trkpt lat="46.77736" lon="-0.7392">
        <ele>191.2</ele>
        <time>2020-11-15T10:24:56Z</time>
      </trkpt>
      <trkpt lat="46.77733" lon="-0.73918">
        <ele>191.2</ele>
        <time>2020-11-15T10:24:57Z</time>
      </trkpt>
      <trkpt lat="46.7773" lon="-0.73917">
        <ele>191.2</ele>
        <time>2020-11-15T10:24:58Z</time>
      </trkpt>
      <trkpt lat="46.77725" lon="-0.73913">
        <ele>191.1</ele>
        <time>2020-11-15T10:25:00Z</time>
      </trkpt>
      <trkpt lat="46.77719" lon="-0.73909">
        <ele>190.8</ele>
        <time>2020-11-15T10:25:02Z</time>
      </trkpt>
      <trkpt lat="46.77715" lon="-0.73905">
        <ele>190.6</ele>
        <time>2020-11-15T10:25:03Z</time>
      </trkpt>
      <trkpt lat="46.77712" lon="-0.73902">
        <ele>190.5</ele>
        <time>2020-11-15T10:25:04Z</time>
      </trkpt>
      <trkpt lat="46.77706" lon="-0.73894">
        <ele>190.2</ele>
        <time>2020-11-15T10:25:06Z</time>
      </trkpt>
      <trkpt lat="46.777" lon="-0.73884">
        <ele>189.9</ele>
        <time>2020-11-15T10:25:08Z</time>
      </trkpt>
      <trkpt lat="46.77697" lon="-0.73878">
        <ele>189.8</ele>
        <time>2020-11-15T10:25:09Z</time>
      </trkpt>
      <trkpt lat="46.77694" lon="-0.73872">
        <ele>189.6</ele>
        <time>2020-11-15T10:25:10Z</time>
      </trkpt>
      <trkpt lat="46.7769" lon="-0.73858">
        <ele>189.2</ele>
        <time>2020-11-15T10:25:12Z</time>
      </trkpt>
      <trkpt lat="46.77686" lon="-0.73845">
        <ele>188.8</ele>
        <time>2020-11-15T10:25:14Z</time>
      </trkpt>
      <trkpt lat="46.77682" lon="-0.7383">
        <ele>188.4</ele>
        <time>2020-11-15T10:25:16Z</time>
      </trkpt>
      <trkpt lat="46.77678" lon="-0.73815">
        <ele>188.1</ele>
        <time>2020-11-15T10:25:18Z</time>
      </trkpt>
      <trkpt lat="46.77674" lon="-0.73799">
        <ele>187.8</ele>
        <time>2020-11-15T10:25:20Z</time>
      </trkpt>
      <trkpt lat="46.77669" lon="-0.73784">
        <ele>187.6</ele>
        <time>2020-11-15T10:25:22Z</time>
      </trkpt>
      <trkpt lat="46.77664" lon="-0.73769">
        <ele>187.3</ele>
        <time>2020-11-15T10:25:24Z</time>
      </trkpt>
      <trkpt lat="46.77659" lon="-0.73755">
        <ele>186.9</ele>
        <time>2020-11-15T10:25:26Z</time>
      </trkpt>
      <trkpt lat="46.77656" lon="-0.73747">
        <ele>186.7</ele>
        <time>2020-11-15T10:25:27Z</time>
      </trkpt>
      <trkpt lat="46.77654" lon="-0.73739">
        <ele>186.5</ele>
        <time>2020-11-15T10:25:28Z</time>
      </trkpt>
      <trkpt lat="46.77649" lon="-0.73723">
        <ele>186.1</ele>
        <time>2020-11-15T10:25:30Z</time>
      </trkpt>
      <trkpt lat="46.77643" lon="-0.73705">
        <ele>185.3</ele>
        <time>2020-11-15T10:25:32Z</time>
      </trkpt>
      <trkpt lat="46.77637" lon="-0.73686">
        <ele>184.4</ele>
        <time>2020-11-15T10:25:34Z</time>
      </trkpt>
      <trkpt lat="46.77632" lon="-0.73665">
        <ele>183.6</ele>
        <time>2020-11-15T10:25:36Z</time>
      </trkpt>
      <trkpt lat="46.77627" lon="-0.73643">
        <ele>182.8</ele>
        <time>2020-11-15T10:25:38Z</time>
      </trkpt>
      <trkpt lat="46.77624" lon="-0.73631">
        <ele>182.6</ele>
        <time>2020-11-15T10:25:39Z</time>
      </trkpt>
      <trkpt lat="46.77621" lon="-0.7362">
        <ele>182.4</ele>
        <time>2020-11-15T10:25:40Z</time>
      </trkpt>
      <trkpt lat="46.77617" lon="-0.73602">
        <ele>182.2</ele>
        <time>2020-11-15T10:25:42Z</time>
      </trkpt>
      <trkpt lat="46.77615" lon="-0.73596">
        <ele>182.2</ele>
        <time>2020-11-15T10:25:43Z</time>
      </trkpt>
      <trkpt lat="46.77614" lon="-0.73591">
        <ele>182.3</ele>
        <time>2020-11-15T10:25:44Z</time>
      </trkpt>
      <trkpt lat="46.77612" lon="-0.73587">
        <ele>182.3</ele>
        <time>2020-11-15T10:25:45Z</time>
      </trkpt>
      <trkpt lat="46.77609" lon="-0.73584">
        <ele>182.3</ele>
        <time>2020-11-15T10:25:46Z</time>
      </trkpt>
      <trkpt lat="46.77604" lon="-0.73582">
        <ele>182.4</ele>
        <time>2020-11-15T10:25:47Z</time>
      </trkpt>
      <trkpt lat="46.77599" lon="-0.73582">
        <ele>182.4</ele>
        <time>2020-11-15T10:25:48Z</time>
      </trkpt>
      <trkpt lat="46.77591" lon="-0.7358">
        <ele>182.5</ele>
        <time>2020-11-15T10:25:50Z</time>
      </trkpt>
      <trkpt lat="46.77588" lon="-0.73577">
        <ele>182.6</ele>
        <time>2020-11-15T10:25:51Z</time>
      </trkpt>
      <trkpt lat="46.77586" lon="-0.73573">
        <ele>181.9</ele>
        <time>2020-11-15T10:25:52Z</time>
      </trkpt>
      <trkpt lat="46.77585" lon="-0.73561">
        <ele>181.3</ele>
        <time>2020-11-15T10:25:54Z</time>
      </trkpt>
      <trkpt lat="46.77587" lon="-0.73544">
        <ele>180.5</ele>
        <time>2020-11-15T10:25:56Z</time>
      </trkpt>
      <trkpt lat="46.77587" lon="-0.73527">
        <ele>179.8</ele>
        <time>2020-11-15T10:25:58Z</time>
      </trkpt>
      <trkpt lat="46.77588" lon="-0.73519">
        <ele>179.5</ele>
        <time>2020-11-15T10:25:59Z</time>
      </trkpt>
      <trkpt lat="46.77588" lon="-0.73511">
        <ele>179.3</ele>
        <time>2020-11-15T10:26:00Z</time>
      </trkpt>
      <trkpt lat="46.77588" lon="-0.73494">
        <ele>179.1</ele>
        <time>2020-11-15T10:26:02Z</time>
      </trkpt>
      <trkpt lat="46.77589" lon="-0.73477">
        <ele>178.9</ele>
        <time>2020-11-15T10:26:04Z</time>
      </trkpt>
      <trkpt lat="46.77589" lon="-0.73458">
        <ele>178.5</ele>
        <time>2020-11-15T10:26:06Z</time>
      </trkpt>
      <trkpt lat="46.77589" lon="-0.7344">
        <ele>178.1</ele>
        <time>2020-11-15T10:26:08Z</time>
      </trkpt>
      <trkpt lat="46.77591" lon="-0.73421">
        <ele>177.8</ele>
        <time>2020-11-15T10:26:10Z</time>
      </trkpt>
      <trkpt lat="46.77592" lon="-0.73402">
        <ele>177.6</ele>
        <time>2020-11-15T10:26:12Z</time>
      </trkpt>
      <trkpt lat="46.77594" lon="-0.73382">
        <ele>177.4</ele>
        <time>2020-11-15T10:26:14Z</time>
      </trkpt>
      <trkpt lat="46.77595" lon="-0.73362">
        <ele>177.2</ele>
        <time>2020-11-15T10:26:16Z</time>
      </trkpt>
      <trkpt lat="46.77597" lon="-0.7334">
        <ele>176.9</ele>
        <time>2020-11-15T10:26:18Z</time>
      </trkpt>
      <trkpt lat="46.776" lon="-0.73318">
        <ele>176.7</ele>
        <time>2020-11-15T10:26:20Z</time>
      </trkpt>
      <trkpt lat="46.77601" lon="-0.73297">
        <ele>176.5</ele>
        <time>2020-11-15T10:26:22Z</time>
      </trkpt>
      <trkpt lat="46.77602" lon="-0.73286">
        <ele>176.4</ele>
        <time>2020-11-15T10:26:23Z</time>
      </trkpt>
      <trkpt lat="46.77602" lon="-0.73275">
        <ele>176.3</ele>
        <time>2020-11-15T10:26:24Z</time>
      </trkpt>
      <trkpt lat="46.77601" lon="-0.73264">
        <ele>176.1</ele>
        <time>2020-11-15T10:26:25Z</time>
      </trkpt>
      <trkpt lat="46.776" lon="-0.73253">
        <ele>176</ele>
        <time>2020-11-15T10:26:26Z</time>
      </trkpt>
      <trkpt lat="46.77597" lon="-0.73243">
        <ele>175.8</ele>
        <time>2020-11-15T10:26:27Z</time>
      </trkpt>
      <trkpt lat="46.77595" lon="-0.73232">
        <ele>175.7</ele>
        <time>2020-11-15T10:26:28Z</time>
      </trkpt>
      <trkpt lat="46.77589" lon="-0.73212">
        <ele>175.6</ele>
        <time>2020-11-15T10:26:30Z</time>
      </trkpt>
      <trkpt lat="46.77585" lon="-0.73192">
        <ele>175.6</ele>
        <time>2020-11-15T10:26:32Z</time>
      </trkpt>
      <trkpt lat="46.7758" lon="-0.73172">
        <ele>175.4</ele>
        <time>2020-11-15T10:26:34Z</time>
      </trkpt>
      <trkpt lat="46.77576" lon="-0.73152">
        <ele>175</ele>
        <time>2020-11-15T10:26:36Z</time>
      </trkpt>
      <trkpt lat="46.77573" lon="-0.73142">
        <ele>174.8</ele>
        <time>2020-11-15T10:26:37Z</time>
      </trkpt>
      <trkpt lat="46.7757" lon="-0.73133">
        <ele>174.6</ele>
        <time>2020-11-15T10:26:38Z</time>
      </trkpt>
      <trkpt lat="46.77564" lon="-0.73115">
        <ele>174.2</ele>
        <time>2020-11-15T10:26:40Z</time>
      </trkpt>
      <trkpt lat="46.77563" lon="-0.73105">
        <ele>174</ele>
        <time>2020-11-15T10:26:41Z</time>
      </trkpt>
      <trkpt lat="46.77564" lon="-0.73095">
        <ele>173.8</ele>
        <time>2020-11-15T10:26:42Z</time>
      </trkpt>
      <trkpt lat="46.7757" lon="-0.73076">
        <ele>173.4</ele>
        <time>2020-11-15T10:26:44Z</time>
      </trkpt>
      <trkpt lat="46.77576" lon="-0.73057">
        <ele>173.1</ele>
        <time>2020-11-15T10:26:46Z</time>
      </trkpt>
      <trkpt lat="46.77578" lon="-0.73047">
        <ele>172.9</ele>
        <time>2020-11-15T10:26:47Z</time>
      </trkpt>
      <trkpt lat="46.7758" lon="-0.73036">
        <ele>172.7</ele>
        <time>2020-11-15T10:26:48Z</time>
      </trkpt>
      <trkpt lat="46.7758" lon="-0.73025">
        <ele>172.5</ele>
        <time>2020-11-15T10:26:49Z</time>
      </trkpt>
      <trkpt lat="46.77578" lon="-0.73015">
        <ele>172.3</ele>
        <time>2020-11-15T10:26:50Z</time>
      </trkpt>
      <trkpt lat="46.77577" lon="-0.73005">
        <ele>172.1</ele>
        <time>2020-11-15T10:26:51Z</time>
      </trkpt>
      <trkpt lat="46.77574" lon="-0.72995">
        <ele>171.9</ele>
        <time>2020-11-15T10:26:52Z</time>
      </trkpt>
      <trkpt lat="46.77572" lon="-0.72985">
        <ele>171.8</ele>
        <time>2020-11-15T10:26:53Z</time>
      </trkpt>
      <trkpt lat="46.7757" lon="-0.72976">
        <ele>171.6</ele>
        <time>2020-11-15T10:26:54Z</time>
      </trkpt>
      <trkpt lat="46.77565" lon="-0.72957">
        <ele>171.4</ele>
        <time>2020-11-15T10:26:56Z</time>
      </trkpt>
      <trkpt lat="46.7756" lon="-0.72938">
        <ele>171.2</ele>
        <time>2020-11-15T10:26:58Z</time>
      </trkpt>
      <trkpt lat="46.77558" lon="-0.7293">
        <ele>171.2</ele>
        <time>2020-11-15T10:26:59Z</time>
      </trkpt>
      <trkpt lat="46.77557" lon="-0.72922">
        <ele>171.2</ele>
        <time>2020-11-15T10:27:00Z</time>
      </trkpt>
      <trkpt lat="46.77554" lon="-0.72905">
        <ele>171.1</ele>
        <time>2020-11-15T10:27:02Z</time>
      </trkpt>
      <trkpt lat="46.7755" lon="-0.72888">
        <ele>171</ele>
        <time>2020-11-15T10:27:04Z</time>
      </trkpt>
      <trkpt lat="46.77545" lon="-0.72871">
        <ele>170.8</ele>
        <time>2020-11-15T10:27:06Z</time>
      </trkpt>
      <trkpt lat="46.77538" lon="-0.72856">
        <ele>170.7</ele>
        <time>2020-11-15T10:27:08Z</time>
      </trkpt>
      <trkpt lat="46.7753" lon="-0.72846">
        <ele>170.5</ele>
        <time>2020-11-15T10:27:10Z</time>
      </trkpt>
      <trkpt lat="46.77521" lon="-0.72837">
        <ele>170.3</ele>
        <time>2020-11-15T10:27:12Z</time>
      </trkpt>
      <trkpt lat="46.77517" lon="-0.72833">
        <ele>170.2</ele>
        <time>2020-11-15T10:27:13Z</time>
      </trkpt>
      <trkpt lat="46.77513" lon="-0.72829">
        <ele>170.2</ele>
        <time>2020-11-15T10:27:14Z</time>
      </trkpt>
      <trkpt lat="46.77504" lon="-0.72821">
        <ele>170.1</ele>
        <time>2020-11-15T10:27:16Z</time>
      </trkpt>
      <trkpt lat="46.77496" lon="-0.72812">
        <ele>170</ele>
        <time>2020-11-15T10:27:18Z</time>
      </trkpt>
      <trkpt lat="46.77488" lon="-0.72804">
        <ele>169.9</ele>
        <time>2020-11-15T10:27:20Z</time>
      </trkpt>
      <trkpt lat="46.7748" lon="-0.72794">
        <ele>169.7</ele>
        <time>2020-11-15T10:27:22Z</time>
      </trkpt>
      <trkpt lat="46.77477" lon="-0.72789">
        <ele>169.7</ele>
        <time>2020-11-15T10:27:23Z</time>
      </trkpt>
      <trkpt lat="46.77474" lon="-0.72783">
        <ele>169.6</ele>
        <time>2020-11-15T10:27:24Z</time>
      </trkpt>
      <trkpt lat="46.77471" lon="-0.72775">
        <ele>169.4</ele>
        <time>2020-11-15T10:27:25Z</time>
      </trkpt>
      <trkpt lat="46.7747" lon="-0.72767">
        <ele>169.2</ele>
        <time>2020-11-15T10:27:26Z</time>
      </trkpt>
      <trkpt lat="46.77469" lon="-0.72759">
        <ele>168.9</ele>
        <time>2020-11-15T10:27:27Z</time>
      </trkpt>
      <trkpt lat="46.77468" lon="-0.72751">
        <ele>168.7</ele>
        <time>2020-11-15T10:27:28Z</time>
      </trkpt>
      <trkpt lat="46.77469" lon="-0.72736">
        <ele>168.3</ele>
        <time>2020-11-15T10:27:30Z</time>
      </trkpt>
      <trkpt lat="46.77471" lon="-0.7272">
        <ele>167.7</ele>
        <time>2020-11-15T10:27:32Z</time>
      </trkpt>
      <trkpt lat="46.77472" lon="-0.72704">
        <ele>167.1</ele>
        <time>2020-11-15T10:27:34Z</time>
      </trkpt>
      <trkpt lat="46.77473" lon="-0.72687">
        <ele>166.6</ele>
        <time>2020-11-15T10:27:36Z</time>
      </trkpt>
      <trkpt lat="46.77474" lon="-0.72668">
        <ele>166.2</ele>
        <time>2020-11-15T10:27:38Z</time>
      </trkpt>
      <trkpt lat="46.77475" lon="-0.72659">
        <ele>166</ele>
        <time>2020-11-15T10:27:39Z</time>
      </trkpt>
      <trkpt lat="46.77475" lon="-0.7265">
        <ele>165.8</ele>
        <time>2020-11-15T10:27:40Z</time>
      </trkpt>
      <trkpt lat="46.77476" lon="-0.72636">
        <ele>165.6</ele>
        <time>2020-11-15T10:27:42Z</time>
      </trkpt>
      <trkpt lat="46.77477" lon="-0.72626">
        <ele>165.5</ele>
        <time>2020-11-15T10:27:44Z</time>
      </trkpt>
      <trkpt lat="46.77476" lon="-0.72623">
        <ele>165.5</ele>
        <time>2020-11-15T10:27:45Z</time>
      </trkpt>
      <trkpt lat="46.77475" lon="-0.7262">
        <ele>165.5</ele>
        <time>2020-11-15T10:27:46Z</time>
      </trkpt>
      <trkpt lat="46.77474" lon="-0.72614">
        <ele>165.5</ele>
        <time>2020-11-15T10:27:48Z</time>
      </trkpt>
      <trkpt lat="46.77473" lon="-0.72611">
        <ele>165.5</ele>
        <time>2020-11-15T10:27:49Z</time>
      </trkpt>
      <trkpt lat="46.77472" lon="-0.72608">
        <ele>165.4</ele>
        <time>2020-11-15T10:27:50Z</time>
      </trkpt>
      <trkpt lat="46.7747" lon="-0.72601">
        <ele>165.5</ele>
        <time>2020-11-15T10:27:52Z</time>
      </trkpt>
      <trkpt lat="46.77468" lon="-0.72597">
        <ele>165.6</ele>
        <time>2020-11-15T10:27:53Z</time>
      </trkpt>
      <trkpt lat="46.77465" lon="-0.72592">
        <ele>165.7</ele>
        <time>2020-11-15T10:27:54Z</time>
      </trkpt>
      <trkpt lat="46.77461" lon="-0.72584">
        <ele>166</ele>
        <time>2020-11-15T10:27:56Z</time>
      </trkpt>
      <trkpt lat="46.77458" lon="-0.72574">
        <ele>166.4</ele>
        <time>2020-11-15T10:27:58Z</time>
      </trkpt>
      <trkpt lat="46.77455" lon="-0.72567">
        <ele>166.8</ele>
        <time>2020-11-15T10:28:00Z</time>
      </trkpt>
      <trkpt lat="46.77453" lon="-0.72559">
        <ele>167.2</ele>
        <time>2020-11-15T10:28:02Z</time>
      </trkpt>
      <trkpt lat="46.77451" lon="-0.72552">
        <ele>167.7</ele>
        <time>2020-11-15T10:28:04Z</time>
      </trkpt>
      <trkpt lat="46.77448" lon="-0.72546">
        <ele>168.1</ele>
        <time>2020-11-15T10:28:06Z</time>
      </trkpt>
      <trkpt lat="46.77448" lon="-0.72543">
        <ele>168.3</ele>
        <time>2020-11-15T10:28:07Z</time>
      </trkpt>
      <trkpt lat="46.77447" lon="-0.7254">
        <ele>168.5</ele>
        <time>2020-11-15T10:28:08Z</time>
      </trkpt>
      <trkpt lat="46.77445" lon="-0.72534">
        <ele>169</ele>
        <time>2020-11-15T10:28:10Z</time>
      </trkpt>
      <trkpt lat="46.77442" lon="-0.72527">
        <ele>169.6</ele>
        <time>2020-11-15T10:28:12Z</time>
      </trkpt>
      <trkpt lat="46.7744" lon="-0.72521">
        <ele>170.1</ele>
        <time>2020-11-15T10:28:14Z</time>
      </trkpt>
      <trkpt lat="46.77439" lon="-0.72518">
        <ele>170.3</ele>
        <time>2020-11-15T10:28:15Z</time>
      </trkpt>
      <trkpt lat="46.77438" lon="-0.72515">
        <ele>170.6</ele>
        <time>2020-11-15T10:28:16Z</time>
      </trkpt>
      <trkpt lat="46.77435" lon="-0.72509">
        <ele>171.2</ele>
        <time>2020-11-15T10:28:18Z</time>
      </trkpt>
      <trkpt lat="46.77432" lon="-0.72502">
        <ele>171.8</ele>
        <time>2020-11-15T10:28:20Z</time>
      </trkpt>
      <trkpt lat="46.7743" lon="-0.72496">
        <ele>172.3</ele>
        <time>2020-11-15T10:28:22Z</time>
      </trkpt>
      <trkpt lat="46.77429" lon="-0.72494">
        <ele>172.6</ele>
        <time>2020-11-15T10:28:23Z</time>
      </trkpt>
      <trkpt lat="46.77428" lon="-0.72491">
        <ele>172.8</ele>
        <time>2020-11-15T10:28:24Z</time>
      </trkpt>
      <trkpt lat="46.77426" lon="-0.72485">
        <ele>173.3</ele>
        <time>2020-11-15T10:28:26Z</time>
      </trkpt>
      <trkpt lat="46.77424" lon="-0.72479">
        <ele>173.8</ele>
        <time>2020-11-15T10:28:28Z</time>
      </trkpt>
      <trkpt lat="46.77423" lon="-0.72476">
        <ele>174.1</ele>
        <time>2020-11-15T10:28:29Z</time>
      </trkpt>
      <trkpt lat="46.77422" lon="-0.72473">
        <ele>174.3</ele>
        <time>2020-11-15T10:28:30Z</time>
      </trkpt>
      <trkpt lat="46.7742" lon="-0.72467">
        <ele>174.8</ele>
        <time>2020-11-15T10:28:32Z</time>
      </trkpt>
      <trkpt lat="46.77418" lon="-0.72461">
        <ele>175.2</ele>
        <time>2020-11-15T10:28:34Z</time>
      </trkpt>
      <trkpt lat="46.77416" lon="-0.72454">
        <ele>175.7</ele>
        <time>2020-11-15T10:28:36Z</time>
      </trkpt>
      <trkpt lat="46.77414" lon="-0.72447">
        <ele>176.1</ele>
        <time>2020-11-15T10:28:38Z</time>
      </trkpt>
      <trkpt lat="46.77412" lon="-0.7244">
        <ele>176.5</ele>
        <time>2020-11-15T10:28:40Z</time>
      </trkpt>
      <trkpt lat="46.7741" lon="-0.72433">
        <ele>176.8</ele>
        <time>2020-11-15T10:28:42Z</time>
      </trkpt>
      <trkpt lat="46.77408" lon="-0.72426">
        <ele>177</ele>
        <time>2020-11-15T10:28:44Z</time>
      </trkpt>
      <trkpt lat="46.77406" lon="-0.7242">
        <ele>177.2</ele>
        <time>2020-11-15T10:28:46Z</time>
      </trkpt>
      <trkpt lat="46.77406" lon="-0.72417">
        <ele>177.2</ele>
        <time>2020-11-15T10:28:47Z</time>
      </trkpt>
      <trkpt lat="46.77405" lon="-0.72413">
        <ele>177.3</ele>
        <time>2020-11-15T10:28:48Z</time>
      </trkpt>
      <trkpt lat="46.77403" lon="-0.72406">
        <ele>177.4</ele>
        <time>2020-11-15T10:28:50Z</time>
      </trkpt>
      <trkpt lat="46.77402" lon="-0.72398">
        <ele>177.5</ele>
        <time>2020-11-15T10:28:52Z</time>
      </trkpt>
      <trkpt lat="46.774" lon="-0.72391">
        <ele>177.5</ele>
        <time>2020-11-15T10:28:54Z</time>
      </trkpt>
      <trkpt lat="46.774" lon="-0.72383">
        <ele>177.5</ele>
        <time>2020-11-15T10:28:56Z</time>
      </trkpt>
      <trkpt lat="46.77398" lon="-0.72376">
        <ele>177.5</ele>
        <time>2020-11-15T10:28:58Z</time>
      </trkpt>
      <trkpt lat="46.77398" lon="-0.72372">
        <ele>177.4</ele>
        <time>2020-11-15T10:28:59Z</time>
      </trkpt>
      <trkpt lat="46.77397" lon="-0.72368">
        <ele>177.3</ele>
        <time>2020-11-15T10:29:00Z</time>
      </trkpt>
      <trkpt lat="46.77396" lon="-0.72363">
        <ele>177.2</ele>
        <time>2020-11-15T10:29:01Z</time>
      </trkpt>
      <trkpt lat="46.77394" lon="-0.72358">
        <ele>177</ele>
        <time>2020-11-15T10:29:02Z</time>
      </trkpt>
      <trkpt lat="46.77391" lon="-0.72348">
        <ele>176.7</ele>
        <time>2020-11-15T10:29:04Z</time>
      </trkpt>
      <trkpt lat="46.77389" lon="-0.72336">
        <ele>176.4</ele>
        <time>2020-11-15T10:29:06Z</time>
      </trkpt>
      <trkpt lat="46.77387" lon="-0.72331">
        <ele>176.2</ele>
        <time>2020-11-15T10:29:07Z</time>
      </trkpt>
      <trkpt lat="46.77386" lon="-0.72326">
        <ele>176.1</ele>
        <time>2020-11-15T10:29:08Z</time>
      </trkpt>
      <trkpt lat="46.77382" lon="-0.72314">
        <ele>175.7</ele>
        <time>2020-11-15T10:29:10Z</time>
      </trkpt>
      <trkpt lat="46.77378" lon="-0.72303">
        <ele>175.5</ele>
        <time>2020-11-15T10:29:12Z</time>
      </trkpt>
      <trkpt lat="46.77376" lon="-0.72297">
        <ele>175.3</ele>
        <time>2020-11-15T10:29:13Z</time>
      </trkpt>
      <trkpt lat="46.77374" lon="-0.72291">
        <ele>175.2</ele>
        <time>2020-11-15T10:29:14Z</time>
      </trkpt>
      <trkpt lat="46.77369" lon="-0.72279">
        <ele>175.1</ele>
        <time>2020-11-15T10:29:16Z</time>
      </trkpt>
      <trkpt lat="46.77364" lon="-0.72269">
        <ele>174.9</ele>
        <time>2020-11-15T10:29:18Z</time>
      </trkpt>
      <trkpt lat="46.77361" lon="-0.72264">
        <ele>174.8</ele>
        <time>2020-11-15T10:29:19Z</time>
      </trkpt>
      <trkpt lat="46.77359" lon="-0.7226">
        <ele>174.8</ele>
        <time>2020-11-15T10:29:20Z</time>
      </trkpt>
      <trkpt lat="46.77355" lon="-0.72253">
        <ele>174.6</ele>
        <time>2020-11-15T10:29:22Z</time>
      </trkpt>
      <trkpt lat="46.77351" lon="-0.72244">
        <ele>174.5</ele>
        <time>2020-11-15T10:29:24Z</time>
      </trkpt>
      <trkpt lat="46.77351" lon="-0.72239">
        <ele>174.5</ele>
        <time>2020-11-15T10:29:25Z</time>
      </trkpt>
      <trkpt lat="46.77352" lon="-0.72233">
        <ele>174.4</ele>
        <time>2020-11-15T10:29:26Z</time>
      </trkpt>
      <trkpt lat="46.77354" lon="-0.72227">
        <ele>174.4</ele>
        <time>2020-11-15T10:29:27Z</time>
      </trkpt>
      <trkpt lat="46.77357" lon="-0.72223">
        <ele>174.3</ele>
        <time>2020-11-15T10:29:28Z</time>
      </trkpt>
      <trkpt lat="46.77364" lon="-0.72216">
        <ele>174.3</ele>
        <time>2020-11-15T10:29:30Z</time>
      </trkpt>
      <trkpt lat="46.77372" lon="-0.72208">
        <ele>174.3</ele>
        <time>2020-11-15T10:29:32Z</time>
      </trkpt>
      <trkpt lat="46.7738" lon="-0.72199">
        <ele>174.3</ele>
        <time>2020-11-15T10:29:34Z</time>
      </trkpt>
      <trkpt lat="46.77384" lon="-0.72194">
        <ele>174.3</ele>
        <time>2020-11-15T10:29:35Z</time>
      </trkpt>
      <trkpt lat="46.77387" lon="-0.72188">
        <ele>174.3</ele>
        <time>2020-11-15T10:29:36Z</time>
      </trkpt>
      <trkpt lat="46.7739" lon="-0.72182">
        <ele>174.3</ele>
        <time>2020-11-15T10:29:37Z</time>
      </trkpt>
      <trkpt lat="46.77391" lon="-0.72176">
        <ele>174.3</ele>
        <time>2020-11-15T10:29:38Z</time>
      </trkpt>
      <trkpt lat="46.77391" lon="-0.7217">
        <ele>174.3</ele>
        <time>2020-11-15T10:29:39Z</time>
      </trkpt>
      <trkpt lat="46.7739" lon="-0.72165">
        <ele>174.3</ele>
        <time>2020-11-15T10:29:40Z</time>
      </trkpt>
      <trkpt lat="46.77389" lon="-0.7216">
        <ele>174.3</ele>
        <time>2020-11-15T10:29:41Z</time>
      </trkpt>
      <trkpt lat="46.77387" lon="-0.72156">
        <ele>174.3</ele>
        <time>2020-11-15T10:29:42Z</time>
      </trkpt>
      <trkpt lat="46.77384" lon="-0.72148">
        <ele>174.2</ele>
        <time>2020-11-15T10:29:44Z</time>
      </trkpt>
      <trkpt lat="46.77379" lon="-0.7214">
        <ele>174.2</ele>
        <time>2020-11-15T10:29:46Z</time>
      </trkpt>
      <trkpt lat="46.77375" lon="-0.72132">
        <ele>174.2</ele>
        <time>2020-11-15T10:29:48Z</time>
      </trkpt>
      <trkpt lat="46.77373" lon="-0.72124">
        <ele>174.2</ele>
        <time>2020-11-15T10:29:50Z</time>
      </trkpt>
      <trkpt lat="46.77371" lon="-0.72115">
        <ele>174.2</ele>
        <time>2020-11-15T10:29:52Z</time>
      </trkpt>
      <trkpt lat="46.77371" lon="-0.72111">
        <ele>174.2</ele>
        <time>2020-11-15T10:29:53Z</time>
      </trkpt>
      <trkpt lat="46.77371" lon="-0.72107">
        <ele>174.2</ele>
        <time>2020-11-15T10:29:54Z</time>
      </trkpt>
      <trkpt lat="46.77369" lon="-0.72095">
        <ele>174.2</ele>
        <time>2020-11-15T10:29:56Z</time>
      </trkpt>
      <trkpt lat="46.77368" lon="-0.7209">
        <ele>174.2</ele>
        <time>2020-11-15T10:29:57Z</time>
      </trkpt>
      <trkpt lat="46.77368" lon="-0.72084">
        <ele>174.2</ele>
        <time>2020-11-15T10:29:58Z</time>
      </trkpt>
      <trkpt lat="46.7737" lon="-0.72071">
        <ele>174.2</ele>
        <time>2020-11-15T10:30:00Z</time>
      </trkpt>
      <trkpt lat="46.7737" lon="-0.72064">
        <ele>174.2</ele>
        <time>2020-11-15T10:30:01Z</time>
      </trkpt>
      <trkpt lat="46.7737" lon="-0.72058">
        <ele>174.2</ele>
        <time>2020-11-15T10:30:02Z</time>
      </trkpt>
      <trkpt lat="46.77371" lon="-0.72045">
        <ele>174.1</ele>
        <time>2020-11-15T10:30:04Z</time>
      </trkpt>
      <trkpt lat="46.77374" lon="-0.72034">
        <ele>174.1</ele>
        <time>2020-11-15T10:30:06Z</time>
      </trkpt>
      <trkpt lat="46.77377" lon="-0.72023">
        <ele>174.1</ele>
        <time>2020-11-15T10:30:08Z</time>
      </trkpt>
      <trkpt lat="46.7738" lon="-0.72012">
        <ele>174.1</ele>
        <time>2020-11-15T10:30:10Z</time>
      </trkpt>
      <trkpt lat="46.77383" lon="-0.72006">
        <ele>174.1</ele>
        <time>2020-11-15T10:30:11Z</time>
      </trkpt>
      <trkpt lat="46.77386" lon="-0.72001">
        <ele>174.1</ele>
        <time>2020-11-15T10:30:12Z</time>
      </trkpt>
      <trkpt lat="46.77389" lon="-0.71987">
        <ele>174.1</ele>
        <time>2020-11-15T10:30:14Z</time>
      </trkpt>
      <trkpt lat="46.77391" lon="-0.71981">
        <ele>174.1</ele>
        <time>2020-11-15T10:30:15Z</time>
      </trkpt>
      <trkpt lat="46.77394" lon="-0.71975">
        <ele>174.1</ele>
        <time>2020-11-15T10:30:16Z</time>
      </trkpt>
      <trkpt lat="46.774" lon="-0.71964">
        <ele>174</ele>
        <time>2020-11-15T10:30:18Z</time>
      </trkpt>
      <trkpt lat="46.77406" lon="-0.71954">
        <ele>174</ele>
        <time>2020-11-15T10:30:20Z</time>
      </trkpt>
      <trkpt lat="46.77409" lon="-0.71948">
        <ele>174</ele>
        <time>2020-11-15T10:30:21Z</time>
      </trkpt>
      <trkpt lat="46.77412" lon="-0.71941">
        <ele>174</ele>
        <time>2020-11-15T10:30:22Z</time>
      </trkpt>
      <trkpt lat="46.77416" lon="-0.71928">
        <ele>174</ele>
        <time>2020-11-15T10:30:24Z</time>
      </trkpt>
      <trkpt lat="46.77418" lon="-0.71914">
        <ele>174</ele>
        <time>2020-11-15T10:30:26Z</time>
      </trkpt>
      <trkpt lat="46.77418" lon="-0.71898">
        <ele>174</ele>
        <time>2020-11-15T10:30:28Z</time>
      </trkpt>
      <trkpt lat="46.77417" lon="-0.71883">
        <ele>174</ele>
        <time>2020-11-15T10:30:30Z</time>
      </trkpt>
      <trkpt lat="46.77417" lon="-0.71875">
        <ele>173.9</ele>
        <time>2020-11-15T10:30:31Z</time>
      </trkpt>
      <trkpt lat="46.77417" lon="-0.71866">
        <ele>173.9</ele>
        <time>2020-11-15T10:30:32Z</time>
      </trkpt>
      <trkpt lat="46.77418" lon="-0.71849">
        <ele>173.9</ele>
        <time>2020-11-15T10:30:34Z</time>
      </trkpt>
      <trkpt lat="46.77419" lon="-0.71839">
        <ele>173.9</ele>
        <time>2020-11-15T10:30:35Z</time>
      </trkpt>
      <trkpt lat="46.77421" lon="-0.7183">
        <ele>173.9</ele>
        <time>2020-11-15T10:30:36Z</time>
      </trkpt>
      <trkpt lat="46.77424" lon="-0.71811">
        <ele>173.9</ele>
        <time>2020-11-15T10:30:38Z</time>
      </trkpt>
      <trkpt lat="46.77428" lon="-0.71793">
        <ele>173.9</ele>
        <time>2020-11-15T10:30:40Z</time>
      </trkpt>
      <trkpt lat="46.7743" lon="-0.71784">
        <ele>173.9</ele>
        <time>2020-11-15T10:30:41Z</time>
      </trkpt>
      <trkpt lat="46.77432" lon="-0.71776">
        <ele>173.8</ele>
        <time>2020-11-15T10:30:42Z</time>
      </trkpt>
      <trkpt lat="46.77434" lon="-0.71767">
        <ele>173.8</ele>
        <time>2020-11-15T10:30:43Z</time>
      </trkpt>
      <trkpt lat="46.77436" lon="-0.7176">
        <ele>173.8</ele>
        <time>2020-11-15T10:30:44Z</time>
      </trkpt>
      <trkpt lat="46.77439" lon="-0.71751">
        <ele>173.8</ele>
        <time>2020-11-15T10:30:45Z</time>
      </trkpt>
      <trkpt lat="46.7744" lon="-0.71743">
        <ele>173.8</ele>
        <time>2020-11-15T10:30:46Z</time>
      </trkpt>
      <trkpt lat="46.77442" lon="-0.71735">
        <ele>173.8</ele>
        <time>2020-11-15T10:30:47Z</time>
      </trkpt>
      <trkpt lat="46.77443" lon="-0.71728">
        <ele>173.8</ele>
        <time>2020-11-15T10:30:48Z</time>
      </trkpt>
      <trkpt lat="46.77444" lon="-0.71721">
        <ele>173.8</ele>
        <time>2020-11-15T10:30:49Z</time>
      </trkpt>
      <trkpt lat="46.77446" lon="-0.71715">
        <ele>173.8</ele>
        <time>2020-11-15T10:30:50Z</time>
      </trkpt>
      <trkpt lat="46.77449" lon="-0.71708">
        <ele>173.8</ele>
        <time>2020-11-15T10:30:51Z</time>
      </trkpt>
      <trkpt lat="46.77452" lon="-0.71702">
        <ele>173.8</ele>
        <time>2020-11-15T10:30:52Z</time>
      </trkpt>
      <trkpt lat="46.77453" lon="-0.71695">
        <ele>173.8</ele>
        <time>2020-11-15T10:30:53Z</time>
      </trkpt>
      <trkpt lat="46.77453" lon="-0.71688">
        <ele>173.8</ele>
        <time>2020-11-15T10:30:54Z</time>
      </trkpt>
      <trkpt lat="46.77451" lon="-0.71682">
        <ele>173.7</ele>
        <time>2020-11-15T10:30:55Z</time>
      </trkpt>
      <trkpt lat="46.77449" lon="-0.71678">
        <ele>173.7</ele>
        <time>2020-11-15T10:30:56Z</time>
      </trkpt>
      <trkpt lat="46.77445" lon="-0.71673">
        <ele>173.8</ele>
        <time>2020-11-15T10:30:57Z</time>
      </trkpt>
      <trkpt lat="46.77441" lon="-0.71669">
        <ele>173.8</ele>
        <time>2020-11-15T10:30:58Z</time>
      </trkpt>
      <trkpt lat="46.77432" lon="-0.7166">
        <ele>174</ele>
        <time>2020-11-15T10:31:00Z</time>
      </trkpt>
      <trkpt lat="46.77424" lon="-0.71652">
        <ele>174.3</ele>
        <time>2020-11-15T10:31:02Z</time>
      </trkpt>
      <trkpt lat="46.77416" lon="-0.71644">
        <ele>174.6</ele>
        <time>2020-11-15T10:31:04Z</time>
      </trkpt>
      <trkpt lat="46.77408" lon="-0.71636">
        <ele>174.9</ele>
        <time>2020-11-15T10:31:06Z</time>
      </trkpt>
      <trkpt lat="46.77401" lon="-0.71629">
        <ele>175.2</ele>
        <time>2020-11-15T10:31:08Z</time>
      </trkpt>
      <trkpt lat="46.77397" lon="-0.71625">
        <ele>175.4</ele>
        <time>2020-11-15T10:31:09Z</time>
      </trkpt>
      <trkpt lat="46.77393" lon="-0.71622">
        <ele>175.6</ele>
        <time>2020-11-15T10:31:10Z</time>
      </trkpt>
      <trkpt lat="46.77387" lon="-0.71615">
        <ele>176</ele>
        <time>2020-11-15T10:31:12Z</time>
      </trkpt>
      <trkpt lat="46.77382" lon="-0.71608">
        <ele>176.3</ele>
        <time>2020-11-15T10:31:14Z</time>
      </trkpt>
      <trkpt lat="46.77376" lon="-0.71601">
        <ele>176.6</ele>
        <time>2020-11-15T10:31:16Z</time>
      </trkpt>
      <trkpt lat="46.7737" lon="-0.71593">
        <ele>176.9</ele>
        <time>2020-11-15T10:31:18Z</time>
      </trkpt>
      <trkpt lat="46.77363" lon="-0.71587">
        <ele>177.2</ele>
        <time>2020-11-15T10:31:20Z</time>
      </trkpt>
      <trkpt lat="46.77357" lon="-0.7158">
        <ele>177.4</ele>
        <time>2020-11-15T10:31:22Z</time>
      </trkpt>
      <trkpt lat="46.7735" lon="-0.71574">
        <ele>177.7</ele>
        <time>2020-11-15T10:31:24Z</time>
      </trkpt>
      <trkpt lat="46.77344" lon="-0.71566">
        <ele>177.9</ele>
        <time>2020-11-15T10:31:26Z</time>
      </trkpt>
      <trkpt lat="46.77341" lon="-0.71562">
        <ele>178</ele>
        <time>2020-11-15T10:31:27Z</time>
      </trkpt>
      <trkpt lat="46.77338" lon="-0.71558">
        <ele>178.1</ele>
        <time>2020-11-15T10:31:28Z</time>
      </trkpt>
      <trkpt lat="46.77332" lon="-0.7155">
        <ele>178.2</ele>
        <time>2020-11-15T10:31:30Z</time>
      </trkpt>
      <trkpt lat="46.77326" lon="-0.71542">
        <ele>178.3</ele>
        <time>2020-11-15T10:31:32Z</time>
      </trkpt>
      <trkpt lat="46.77321" lon="-0.71534">
        <ele>178.4</ele>
        <time>2020-11-15T10:31:34Z</time>
      </trkpt>
      <trkpt lat="46.77318" lon="-0.7153">
        <ele>178.5</ele>
        <time>2020-11-15T10:31:35Z</time>
      </trkpt>
      <trkpt lat="46.77316" lon="-0.71526">
        <ele>178.5</ele>
        <time>2020-11-15T10:31:36Z</time>
      </trkpt>
      <trkpt lat="46.7731" lon="-0.7152">
        <ele>178.6</ele>
        <time>2020-11-15T10:31:38Z</time>
      </trkpt>
      <trkpt lat="46.77307" lon="-0.7152">
        <ele>178.5</ele>
        <time>2020-11-15T10:31:39Z</time>
      </trkpt>
      <trkpt lat="46.77304" lon="-0.71523">
        <ele>178.5</ele>
        <time>2020-11-15T10:31:40Z</time>
      </trkpt>
      <trkpt lat="46.77298" lon="-0.7153">
        <ele>178.4</ele>
        <time>2020-11-15T10:31:42Z</time>
      </trkpt>
      <trkpt lat="46.77292" lon="-0.71536">
        <ele>178.4</ele>
        <time>2020-11-15T10:31:44Z</time>
      </trkpt>
      <trkpt lat="46.77285" lon="-0.7154">
        <ele>178.4</ele>
        <time>2020-11-15T10:31:46Z</time>
      </trkpt>
      <trkpt lat="46.77278" lon="-0.71539">
        <ele>178.3</ele>
        <time>2020-11-15T10:31:48Z</time>
      </trkpt>
      <trkpt lat="46.77271" lon="-0.71537">
        <ele>178.3</ele>
        <time>2020-11-15T10:31:50Z</time>
      </trkpt>
      <trkpt lat="46.77264" lon="-0.71533">
        <ele>178.2</ele>
        <time>2020-11-15T10:31:52Z</time>
      </trkpt>
      <trkpt lat="46.77258" lon="-0.71529">
        <ele>178.2</ele>
        <time>2020-11-15T10:31:54Z</time>
      </trkpt>
      <trkpt lat="46.7725" lon="-0.71524">
        <ele>178.2</ele>
        <time>2020-11-15T10:31:56Z</time>
      </trkpt>
      <trkpt lat="46.77242" lon="-0.71521">
        <ele>178.3</ele>
        <time>2020-11-15T10:31:58Z</time>
      </trkpt>
      <trkpt lat="46.77235" lon="-0.71518">
        <ele>178.4</ele>
        <time>2020-11-15T10:32:00Z</time>
      </trkpt>
      <trkpt lat="46.77227" lon="-0.71517">
        <ele>178.4</ele>
        <time>2020-11-15T10:32:02Z</time>
      </trkpt>
      <trkpt lat="46.77219" lon="-0.71518">
        <ele>178.4</ele>
        <time>2020-11-15T10:32:04Z</time>
      </trkpt>
      <trkpt lat="46.77211" lon="-0.7152">
        <ele>178.4</ele>
        <time>2020-11-15T10:32:06Z</time>
      </trkpt>
      <trkpt lat="46.77203" lon="-0.71523">
        <ele>178.4</ele>
        <time>2020-11-15T10:32:08Z</time>
      </trkpt>
      <trkpt lat="46.772" lon="-0.71525">
        <ele>178.4</ele>
        <time>2020-11-15T10:32:09Z</time>
      </trkpt>
      <trkpt lat="46.77197" lon="-0.71527">
        <ele>178.4</ele>
        <time>2020-11-15T10:32:10Z</time>
      </trkpt>
      <trkpt lat="46.7719" lon="-0.7153">
        <ele>178.5</ele>
        <time>2020-11-15T10:32:12Z</time>
      </trkpt>
      <trkpt lat="46.77182" lon="-0.71534">
        <ele>178.6</ele>
        <time>2020-11-15T10:32:14Z</time>
      </trkpt>
      <trkpt lat="46.77175" lon="-0.71538">
        <ele>178.8</ele>
        <time>2020-11-15T10:32:16Z</time>
      </trkpt>
      <trkpt lat="46.77168" lon="-0.71541">
        <ele>179</ele>
        <time>2020-11-15T10:32:18Z</time>
      </trkpt>
      <trkpt lat="46.77161" lon="-0.71544">
        <ele>179.1</ele>
        <time>2020-11-15T10:32:20Z</time>
      </trkpt>
      <trkpt lat="46.77154" lon="-0.71545">
        <ele>179.3</ele>
        <time>2020-11-15T10:32:22Z</time>
      </trkpt>
      <trkpt lat="46.77148" lon="-0.71544">
        <ele>179.5</ele>
        <time>2020-11-15T10:32:24Z</time>
      </trkpt>
      <trkpt lat="46.7714" lon="-0.71544">
        <ele>179.8</ele>
        <time>2020-11-15T10:32:26Z</time>
      </trkpt>
      <trkpt lat="46.77137" lon="-0.71543">
        <ele>179.9</ele>
        <time>2020-11-15T10:32:27Z</time>
      </trkpt>
      <trkpt lat="46.77133" lon="-0.71543">
        <ele>180.1</ele>
        <time>2020-11-15T10:32:28Z</time>
      </trkpt>
      <trkpt lat="46.77127" lon="-0.71542">
        <ele>180.4</ele>
        <time>2020-11-15T10:32:30Z</time>
      </trkpt>
      <trkpt lat="46.77121" lon="-0.7154">
        <ele>180.8</ele>
        <time>2020-11-15T10:32:32Z</time>
      </trkpt>
      <trkpt lat="46.77115" lon="-0.71538">
        <ele>181.1</ele>
        <time>2020-11-15T10:32:34Z</time>
      </trkpt>
      <trkpt lat="46.77112" lon="-0.71538">
        <ele>181.3</ele>
        <time>2020-11-15T10:32:35Z</time>
      </trkpt>
      <trkpt lat="46.77109" lon="-0.71536">
        <ele>181.5</ele>
        <time>2020-11-15T10:32:36Z</time>
      </trkpt>
      <trkpt lat="46.77103" lon="-0.71534">
        <ele>181.9</ele>
        <time>2020-11-15T10:32:38Z</time>
      </trkpt>
      <trkpt lat="46.77097" lon="-0.71532">
        <ele>182.3</ele>
        <time>2020-11-15T10:32:40Z</time>
      </trkpt>
      <trkpt lat="46.77094" lon="-0.71531">
        <ele>182.5</ele>
        <time>2020-11-15T10:32:41Z</time>
      </trkpt>
      <trkpt lat="46.77091" lon="-0.7153">
        <ele>182.7</ele>
        <time>2020-11-15T10:32:42Z</time>
      </trkpt>
      <trkpt lat="46.77085" lon="-0.71528">
        <ele>183.2</ele>
        <time>2020-11-15T10:32:44Z</time>
      </trkpt>
      <trkpt lat="46.77079" lon="-0.71527">
        <ele>183.7</ele>
        <time>2020-11-15T10:32:46Z</time>
      </trkpt>
      <trkpt lat="46.77076" lon="-0.71527">
        <ele>184</ele>
        <time>2020-11-15T10:32:47Z</time>
      </trkpt>
      <trkpt lat="46.77074" lon="-0.71527">
        <ele>184.1</ele>
        <time>2020-11-15T10:32:48Z</time>
      </trkpt>
      <trkpt lat="46.77072" lon="-0.71523">
        <ele>184.6</ele>
        <time>2020-11-15T10:32:50Z</time>
      </trkpt>
      <trkpt lat="46.77071" lon="-0.71516">
        <ele>184.6</ele>
        <time>2020-11-15T10:32:52Z</time>
      </trkpt>
      <trkpt lat="46.77072" lon="-0.71513">
        <ele>184.6</ele>
        <time>2020-11-15T10:32:53Z</time>
      </trkpt>
      <trkpt lat="46.77072" lon="-0.71509">
        <ele>184.6</ele>
        <time>2020-11-15T10:32:54Z</time>
      </trkpt>
      <trkpt lat="46.77075" lon="-0.71501">
        <ele>184.6</ele>
        <time>2020-11-15T10:32:56Z</time>
      </trkpt>
      <trkpt lat="46.77076" lon="-0.71497">
        <ele>184.6</ele>
        <time>2020-11-15T10:32:57Z</time>
      </trkpt>
      <trkpt lat="46.77077" lon="-0.71492">
        <ele>184.6</ele>
        <time>2020-11-15T10:32:58Z</time>
      </trkpt>
      <trkpt lat="46.77078" lon="-0.71482">
        <ele>184.5</ele>
        <time>2020-11-15T10:33:00Z</time>
      </trkpt>
      <trkpt lat="46.77079" lon="-0.71477">
        <ele>184.5</ele>
        <time>2020-11-15T10:33:01Z</time>
      </trkpt>
      <trkpt lat="46.7708" lon="-0.71473">
        <ele>184.4</ele>
        <time>2020-11-15T10:33:02Z</time>
      </trkpt>
      <trkpt lat="46.77083" lon="-0.71463">
        <ele>184.4</ele>
        <time>2020-11-15T10:33:04Z</time>
      </trkpt>
      <trkpt lat="46.77086" lon="-0.71453">
        <ele>184.3</ele>
        <time>2020-11-15T10:33:06Z</time>
      </trkpt>
      <trkpt lat="46.77088" lon="-0.71447">
        <ele>184.2</ele>
        <time>2020-11-15T10:33:07Z</time>
      </trkpt>
      <trkpt lat="46.7709" lon="-0.71443">
        <ele>184.2</ele>
        <time>2020-11-15T10:33:08Z</time>
      </trkpt>
      <trkpt lat="46.77094" lon="-0.71433">
        <ele>184.1</ele>
        <time>2020-11-15T10:33:10Z</time>
      </trkpt>
      <trkpt lat="46.77098" lon="-0.71422">
        <ele>184.1</ele>
        <time>2020-11-15T10:33:12Z</time>
      </trkpt>
      <trkpt lat="46.77101" lon="-0.71412">
        <ele>184</ele>
        <time>2020-11-15T10:33:14Z</time>
      </trkpt>
      <trkpt lat="46.77105" lon="-0.71401">
        <ele>184</ele>
        <time>2020-11-15T10:33:16Z</time>
      </trkpt>
      <trkpt lat="46.77108" lon="-0.7139">
        <ele>184</ele>
        <time>2020-11-15T10:33:18Z</time>
      </trkpt>
      <trkpt lat="46.77111" lon="-0.71379">
        <ele>184</ele>
        <time>2020-11-15T10:33:20Z</time>
      </trkpt>
      <trkpt lat="46.77113" lon="-0.71374">
        <ele>183.9</ele>
        <time>2020-11-15T10:33:21Z</time>
      </trkpt>
      <trkpt lat="46.77117" lon="-0.71368">
        <ele>183.8</ele>
        <time>2020-11-15T10:33:22Z</time>
      </trkpt>
      <trkpt lat="46.77125" lon="-0.71359">
        <ele>183.6</ele>
        <time>2020-11-15T10:33:24Z</time>
      </trkpt>
      <trkpt lat="46.77131" lon="-0.71349">
        <ele>183.3</ele>
        <time>2020-11-15T10:33:26Z</time>
      </trkpt>
      <trkpt lat="46.77134" lon="-0.71343">
        <ele>183.2</ele>
        <time>2020-11-15T10:33:27Z</time>
      </trkpt>
      <trkpt lat="46.77137" lon="-0.71337">
        <ele>183.1</ele>
        <time>2020-11-15T10:33:28Z</time>
      </trkpt>
      <trkpt lat="46.77145" lon="-0.71325">
        <ele>182.7</ele>
        <time>2020-11-15T10:33:30Z</time>
      </trkpt>
      <trkpt lat="46.77148" lon="-0.71319">
        <ele>182.6</ele>
        <time>2020-11-15T10:33:31Z</time>
      </trkpt>
      <trkpt lat="46.7715" lon="-0.71313">
        <ele>182.4</ele>
        <time>2020-11-15T10:33:32Z</time>
      </trkpt>
      <trkpt lat="46.77152" lon="-0.71301">
        <ele>182.2</ele>
        <time>2020-11-15T10:33:34Z</time>
      </trkpt>
      <trkpt lat="46.77156" lon="-0.71289">
        <ele>181.8</ele>
        <time>2020-11-15T10:33:36Z</time>
      </trkpt>
      <trkpt lat="46.77159" lon="-0.71282">
        <ele>181.6</ele>
        <time>2020-11-15T10:33:37Z</time>
      </trkpt>
      <trkpt lat="46.77162" lon="-0.71275">
        <ele>181.3</ele>
        <time>2020-11-15T10:33:38Z</time>
      </trkpt>
      <trkpt lat="46.7717" lon="-0.71261">
        <ele>180.7</ele>
        <time>2020-11-15T10:33:40Z</time>
      </trkpt>
      <trkpt lat="46.77179" lon="-0.71247">
        <ele>180.2</ele>
        <time>2020-11-15T10:33:42Z</time>
      </trkpt>
      <trkpt lat="46.77183" lon="-0.71235">
        <ele>179.9</ele>
        <time>2020-11-15T10:33:44Z</time>
      </trkpt>
      <trkpt lat="46.77183" lon="-0.71228">
        <ele>179.8</ele>
        <time>2020-11-15T10:33:45Z</time>
      </trkpt>
      <trkpt lat="46.77185" lon="-0.71222">
        <ele>179.7</ele>
        <time>2020-11-15T10:33:46Z</time>
      </trkpt>
      <trkpt lat="46.77184" lon="-0.71218">
        <ele>179.6</ele>
        <time>2020-11-15T10:33:47Z</time>
      </trkpt>
      <trkpt lat="46.77185" lon="-0.71214">
        <ele>179.6</ele>
        <time>2020-11-15T10:33:48Z</time>
      </trkpt>
      <trkpt lat="46.77186" lon="-0.71209">
        <ele>179.9</ele>
        <time>2020-11-15T10:33:50Z</time>
      </trkpt>
      <trkpt lat="46.77183" lon="-0.71205">
        <ele>180</ele>
        <time>2020-11-15T10:33:52Z</time>
      </trkpt>
      <trkpt lat="46.77177" lon="-0.71199">
        <ele>180.1</ele>
        <time>2020-11-15T10:33:54Z</time>
      </trkpt>
      <trkpt lat="46.77172" lon="-0.71196">
        <ele>180.3</ele>
        <time>2020-11-15T10:33:56Z</time>
      </trkpt>
      <trkpt lat="46.77166" lon="-0.71193">
        <ele>180.4</ele>
        <time>2020-11-15T10:33:58Z</time>
      </trkpt>
      <trkpt lat="46.77158" lon="-0.71189">
        <ele>180.6</ele>
        <time>2020-11-15T10:34:00Z</time>
      </trkpt>
      <trkpt lat="46.77154" lon="-0.71188">
        <ele>180.6</ele>
        <time>2020-11-15T10:34:01Z</time>
      </trkpt>
      <trkpt lat="46.7715" lon="-0.71186">
        <ele>180.7</ele>
        <time>2020-11-15T10:34:02Z</time>
      </trkpt>
      <trkpt lat="46.77143" lon="-0.71183">
        <ele>180.8</ele>
        <time>2020-11-15T10:34:04Z</time>
      </trkpt>
      <trkpt lat="46.7714" lon="-0.71182">
        <ele>180.8</ele>
        <time>2020-11-15T10:34:05Z</time>
      </trkpt>
      <trkpt lat="46.77137" lon="-0.71182">
        <ele>180.9</ele>
        <time>2020-11-15T10:34:06Z</time>
      </trkpt>
      <trkpt lat="46.77128" lon="-0.71181">
        <ele>181.1</ele>
        <time>2020-11-15T10:34:08Z</time>
      </trkpt>
      <trkpt lat="46.77121" lon="-0.7118">
        <ele>181.3</ele>
        <time>2020-11-15T10:34:10Z</time>
      </trkpt>
      <trkpt lat="46.77114" lon="-0.71178">
        <ele>181.5</ele>
        <time>2020-11-15T10:34:12Z</time>
      </trkpt>
      <trkpt lat="46.77107" lon="-0.71176">
        <ele>181.7</ele>
        <time>2020-11-15T10:34:14Z</time>
      </trkpt>
      <trkpt lat="46.77099" lon="-0.71174">
        <ele>181.9</ele>
        <time>2020-11-15T10:34:16Z</time>
      </trkpt>
      <trkpt lat="46.77091" lon="-0.71174">
        <ele>182.3</ele>
        <time>2020-11-15T10:34:18Z</time>
      </trkpt>
      <trkpt lat="46.77083" lon="-0.71174">
        <ele>182.7</ele>
        <time>2020-11-15T10:34:20Z</time>
      </trkpt>
      <trkpt lat="46.77075" lon="-0.71177">
        <ele>183</ele>
        <time>2020-11-15T10:34:22Z</time>
      </trkpt>
      <trkpt lat="46.77072" lon="-0.71178">
        <ele>183.1</ele>
        <time>2020-11-15T10:34:23Z</time>
      </trkpt>
      <trkpt lat="46.7707" lon="-0.71178">
        <ele>183.2</ele>
        <time>2020-11-15T10:34:24Z</time>
      </trkpt>
      <trkpt lat="46.77063" lon="-0.71179">
        <ele>183.3</ele>
        <time>2020-11-15T10:34:26Z</time>
      </trkpt>
      <trkpt lat="46.77059" lon="-0.71179">
        <ele>183.4</ele>
        <time>2020-11-15T10:34:27Z</time>
      </trkpt>
      <trkpt lat="46.77054" lon="-0.71179">
        <ele>183.4</ele>
        <time>2020-11-15T10:34:28Z</time>
      </trkpt>
      <trkpt lat="46.77045" lon="-0.71179">
        <ele>183.4</ele>
        <time>2020-11-15T10:34:30Z</time>
      </trkpt>
      <trkpt lat="46.77036" lon="-0.7118">
        <ele>183.3</ele>
        <time>2020-11-15T10:34:32Z</time>
      </trkpt>
      <trkpt lat="46.77033" lon="-0.7118">
        <ele>183.3</ele>
        <time>2020-11-15T10:34:33Z</time>
      </trkpt>
      <trkpt lat="46.77029" lon="-0.71178">
        <ele>183.2</ele>
        <time>2020-11-15T10:34:34Z</time>
      </trkpt>
      <trkpt lat="46.77024" lon="-0.71177">
        <ele>183.1</ele>
        <time>2020-11-15T10:34:35Z</time>
      </trkpt>
      <trkpt lat="46.7702" lon="-0.71177">
        <ele>183</ele>
        <time>2020-11-15T10:34:36Z</time>
      </trkpt>
      <trkpt lat="46.77011" lon="-0.71174">
        <ele>182.7</ele>
        <time>2020-11-15T10:34:38Z</time>
      </trkpt>
      <trkpt lat="46.77005" lon="-0.71172">
        <ele>182.6</ele>
        <time>2020-11-15T10:34:39Z</time>
      </trkpt>
      <trkpt lat="46.77001" lon="-0.71171">
        <ele>182.6</ele>
        <time>2020-11-15T10:34:40Z</time>
      </trkpt>
      <trkpt lat="46.76993" lon="-0.71167">
        <ele>182.4</ele>
        <time>2020-11-15T10:34:42Z</time>
      </trkpt>
      <trkpt lat="46.76985" lon="-0.71164">
        <ele>182.3</ele>
        <time>2020-11-15T10:34:44Z</time>
      </trkpt>
      <trkpt lat="46.76981" lon="-0.71162">
        <ele>182.3</ele>
        <time>2020-11-15T10:34:46Z</time>
      </trkpt>
      <trkpt lat="46.76974" lon="-0.71156">
        <ele>182.2</ele>
        <time>2020-11-15T10:34:48Z</time>
      </trkpt>
      <trkpt lat="46.76966" lon="-0.71148">
        <ele>182.1</ele>
        <time>2020-11-15T10:34:50Z</time>
      </trkpt>
      <trkpt lat="46.76959" lon="-0.7114">
        <ele>182.1</ele>
        <time>2020-11-15T10:34:52Z</time>
      </trkpt>
      <trkpt lat="46.76956" lon="-0.71136">
        <ele>182.1</ele>
        <time>2020-11-15T10:34:53Z</time>
      </trkpt>
      <trkpt lat="46.76953" lon="-0.71132">
        <ele>182.1</ele>
        <time>2020-11-15T10:34:54Z</time>
      </trkpt>
      <trkpt lat="46.76947" lon="-0.71125">
        <ele>182.1</ele>
        <time>2020-11-15T10:34:56Z</time>
      </trkpt>
      <trkpt lat="46.76942" lon="-0.7112">
        <ele>182.2</ele>
        <time>2020-11-15T10:34:57Z</time>
      </trkpt>
      <trkpt lat="46.76939" lon="-0.71116">
        <ele>182.3</ele>
        <time>2020-11-15T10:34:58Z</time>
      </trkpt>
      <trkpt lat="46.76932" lon="-0.71109">
        <ele>182.4</ele>
        <time>2020-11-15T10:35:00Z</time>
      </trkpt>
      <trkpt lat="46.76929" lon="-0.71103">
        <ele>182.5</ele>
        <time>2020-11-15T10:35:02Z</time>
      </trkpt>
      <trkpt lat="46.76927" lon="-0.71097">
        <ele>182.6</ele>
        <time>2020-11-15T10:35:04Z</time>
      </trkpt>
      <trkpt lat="46.76923" lon="-0.71091">
        <ele>182.8</ele>
        <time>2020-11-15T10:35:06Z</time>
      </trkpt>
      <trkpt lat="46.76916" lon="-0.71081">
        <ele>183.1</ele>
        <time>2020-11-15T10:35:08Z</time>
      </trkpt>
      <trkpt lat="46.76909" lon="-0.71074">
        <ele>183.3</ele>
        <time>2020-11-15T10:35:10Z</time>
      </trkpt>
      <trkpt lat="46.76907" lon="-0.71071">
        <ele>183.4</ele>
        <time>2020-11-15T10:35:11Z</time>
      </trkpt>
      <trkpt lat="46.76905" lon="-0.71068">
        <ele>183.5</ele>
        <time>2020-11-15T10:35:12Z</time>
      </trkpt>
      <trkpt lat="46.769" lon="-0.71062">
        <ele>183.6</ele>
        <time>2020-11-15T10:35:14Z</time>
      </trkpt>
      <trkpt lat="46.76897" lon="-0.71058">
        <ele>183.7</ele>
        <time>2020-11-15T10:35:15Z</time>
      </trkpt>
      <trkpt lat="46.76895" lon="-0.71055">
        <ele>183.8</ele>
        <time>2020-11-15T10:35:16Z</time>
      </trkpt>
      <trkpt lat="46.7689" lon="-0.71048">
        <ele>184</ele>
        <time>2020-11-15T10:35:18Z</time>
      </trkpt>
      <trkpt lat="46.76888" lon="-0.71045">
        <ele>184.1</ele>
        <time>2020-11-15T10:35:19Z</time>
      </trkpt>
      <trkpt lat="46.76884" lon="-0.71042">
        <ele>184.2</ele>
        <time>2020-11-15T10:35:20Z</time>
      </trkpt>
      <trkpt lat="46.76878" lon="-0.71034">
        <ele>184.5</ele>
        <time>2020-11-15T10:35:22Z</time>
      </trkpt>
      <trkpt lat="46.7687" lon="-0.71024">
        <ele>184.9</ele>
        <time>2020-11-15T10:35:24Z</time>
      </trkpt>
      <trkpt lat="46.76864" lon="-0.71016">
        <ele>185.2</ele>
        <time>2020-11-15T10:35:26Z</time>
      </trkpt>
      <trkpt lat="46.76857" lon="-0.71008">
        <ele>185.5</ele>
        <time>2020-11-15T10:35:28Z</time>
      </trkpt>
      <trkpt lat="46.76853" lon="-0.71003">
        <ele>185.7</ele>
        <time>2020-11-15T10:35:30Z</time>
      </trkpt>
      <trkpt lat="46.76849" lon="-0.70997">
        <ele>185.9</ele>
        <time>2020-11-15T10:35:32Z</time>
      </trkpt>
      <trkpt lat="46.76843" lon="-0.70989">
        <ele>186.1</ele>
        <time>2020-11-15T10:35:34Z</time>
      </trkpt>
      <trkpt lat="46.76839" lon="-0.70986">
        <ele>186.3</ele>
        <time>2020-11-15T10:35:35Z</time>
      </trkpt>
      <trkpt lat="46.76837" lon="-0.70983">
        <ele>186.4</ele>
        <time>2020-11-15T10:35:36Z</time>
      </trkpt>
      <trkpt lat="46.76834" lon="-0.70977">
        <ele>186.6</ele>
        <time>2020-11-15T10:35:38Z</time>
      </trkpt>
      <trkpt lat="46.76832" lon="-0.70975">
        <ele>186.7</ele>
        <time>2020-11-15T10:35:39Z</time>
      </trkpt>
      <trkpt lat="46.76827" lon="-0.70965">
        <ele>186.9</ele>
        <time>2020-11-15T10:35:43Z</time>
      </trkpt>
      <trkpt lat="46.76825" lon="-0.70963">
        <ele>187</ele>
        <time>2020-11-15T10:35:44Z</time>
      </trkpt>
      <trkpt lat="46.76822" lon="-0.70958">
        <ele>187.2</ele>
        <time>2020-11-15T10:35:46Z</time>
      </trkpt>
      <trkpt lat="46.7682" lon="-0.70955">
        <ele>187.3</ele>
        <time>2020-11-15T10:35:47Z</time>
      </trkpt>
      <trkpt lat="46.76818" lon="-0.70953">
        <ele>187.4</ele>
        <time>2020-11-15T10:35:48Z</time>
      </trkpt>
      <trkpt lat="46.76813" lon="-0.70947">
        <ele>187.7</ele>
        <time>2020-11-15T10:35:50Z</time>
      </trkpt>
      <trkpt lat="46.76809" lon="-0.70944">
        <ele>187.9</ele>
        <time>2020-11-15T10:35:51Z</time>
      </trkpt>
      <trkpt lat="46.76805" lon="-0.7094">
        <ele>188</ele>
        <time>2020-11-15T10:35:52Z</time>
      </trkpt>
      <trkpt lat="46.76797" lon="-0.70936">
        <ele>188.3</ele>
        <time>2020-11-15T10:35:54Z</time>
      </trkpt>
      <trkpt lat="46.76791" lon="-0.70935">
        <ele>188.5</ele>
        <time>2020-11-15T10:35:56Z</time>
      </trkpt>
      <trkpt lat="46.76782" lon="-0.70931">
        <ele>188.9</ele>
        <time>2020-11-15T10:35:58Z</time>
      </trkpt>
      <trkpt lat="46.76776" lon="-0.70929">
        <ele>189.1</ele>
        <time>2020-11-15T10:36:00Z</time>
      </trkpt>
      <trkpt lat="46.76772" lon="-0.70928">
        <ele>189.2</ele>
        <time>2020-11-15T10:36:01Z</time>
      </trkpt>
      <trkpt lat="46.76769" lon="-0.70927">
        <ele>189.4</ele>
        <time>2020-11-15T10:36:02Z</time>
      </trkpt>
      <trkpt lat="46.76764" lon="-0.70926">
        <ele>189.5</ele>
        <time>2020-11-15T10:36:04Z</time>
      </trkpt>
      <trkpt lat="46.76759" lon="-0.70925">
        <ele>189.7</ele>
        <time>2020-11-15T10:36:06Z</time>
      </trkpt>
      <trkpt lat="46.76752" lon="-0.70923">
        <ele>189.9</ele>
        <time>2020-11-15T10:36:08Z</time>
      </trkpt>
      <trkpt lat="46.76745" lon="-0.70922">
        <ele>190.2</ele>
        <time>2020-11-15T10:36:10Z</time>
      </trkpt>
      <trkpt lat="46.76737" lon="-0.70922">
        <ele>190.5</ele>
        <time>2020-11-15T10:36:12Z</time>
      </trkpt>
      <trkpt lat="46.76732" lon="-0.70921">
        <ele>190.8</ele>
        <time>2020-11-15T10:36:14Z</time>
      </trkpt>
      <trkpt lat="46.76726" lon="-0.7092">
        <ele>191.1</ele>
        <time>2020-11-15T10:36:16Z</time>
      </trkpt>
      <trkpt lat="46.76719" lon="-0.70919">
        <ele>191.6</ele>
        <time>2020-11-15T10:36:18Z</time>
      </trkpt>
      <trkpt lat="46.76712" lon="-0.70917">
        <ele>192.1</ele>
        <time>2020-11-15T10:36:20Z</time>
      </trkpt>
      <trkpt lat="46.7671" lon="-0.70917">
        <ele>192.3</ele>
        <time>2020-11-15T10:36:21Z</time>
      </trkpt>
      <trkpt lat="46.76707" lon="-0.70917">
        <ele>192.4</ele>
        <time>2020-11-15T10:36:22Z</time>
      </trkpt>
      <trkpt lat="46.76702" lon="-0.70915">
        <ele>192.9</ele>
        <time>2020-11-15T10:36:24Z</time>
      </trkpt>
      <trkpt lat="46.76699" lon="-0.70915">
        <ele>193.1</ele>
        <time>2020-11-15T10:36:25Z</time>
      </trkpt>
      <trkpt lat="46.76696" lon="-0.70915">
        <ele>193.4</ele>
        <time>2020-11-15T10:36:26Z</time>
      </trkpt>
      <trkpt lat="46.76691" lon="-0.70914">
        <ele>193.8</ele>
        <time>2020-11-15T10:36:28Z</time>
      </trkpt>
      <trkpt lat="46.76689" lon="-0.70914">
        <ele>194</ele>
        <time>2020-11-15T10:36:29Z</time>
      </trkpt>
      <trkpt lat="46.76687" lon="-0.70915">
        <ele>194.1</ele>
        <time>2020-11-15T10:36:30Z</time>
      </trkpt>
      <trkpt lat="46.76684" lon="-0.70916">
        <ele>194.4</ele>
        <time>2020-11-15T10:36:32Z</time>
      </trkpt>
      <trkpt lat="46.76682" lon="-0.70918">
        <ele>194.5</ele>
        <time>2020-11-15T10:36:34Z</time>
      </trkpt>
      <trkpt lat="46.76681" lon="-0.70918">
        <ele>194.6</ele>
        <time>2020-11-15T10:36:35Z</time>
      </trkpt>
      <trkpt lat="46.76636" lon="-0.70944">
        <ele>198.5</ele>
        <time>2020-11-15T10:36:57Z</time>
      </trkpt>
      <trkpt lat="46.76633" lon="-0.70946">
        <ele>198.7</ele>
        <time>2020-11-15T10:36:58Z</time>
      </trkpt>
      <trkpt lat="46.76629" lon="-0.70949">
        <ele>199.1</ele>
        <time>2020-11-15T10:37:00Z</time>
      </trkpt>
      <trkpt lat="46.76626" lon="-0.70953">
        <ele>199.3</ele>
        <time>2020-11-15T10:37:02Z</time>
      </trkpt>
      <trkpt lat="46.7662" lon="-0.70956">
        <ele>199.6</ele>
        <time>2020-11-15T10:37:04Z</time>
      </trkpt>
      <trkpt lat="46.76614" lon="-0.70958">
        <ele>199.9</ele>
        <time>2020-11-15T10:37:06Z</time>
      </trkpt>
      <trkpt lat="46.76609" lon="-0.7096">
        <ele>200</ele>
        <time>2020-11-15T10:37:08Z</time>
      </trkpt>
      <trkpt lat="46.76604" lon="-0.70963">
        <ele>200.1</ele>
        <time>2020-11-15T10:37:10Z</time>
      </trkpt>
      <trkpt lat="46.766" lon="-0.70963">
        <ele>200.3</ele>
        <time>2020-11-15T10:37:12Z</time>
      </trkpt>
      <trkpt lat="46.76595" lon="-0.70964">
        <ele>200.4</ele>
        <time>2020-11-15T10:37:14Z</time>
      </trkpt>
      <trkpt lat="46.7659" lon="-0.70964">
        <ele>200.5</ele>
        <time>2020-11-15T10:37:16Z</time>
      </trkpt>
      <trkpt lat="46.76585" lon="-0.70965">
        <ele>200.6</ele>
        <time>2020-11-15T10:37:17Z</time>
      </trkpt>
      <trkpt lat="46.76581" lon="-0.70966">
        <ele>200.7</ele>
        <time>2020-11-15T10:37:18Z</time>
      </trkpt>
      <trkpt lat="46.76575" lon="-0.70966">
        <ele>200.8</ele>
        <time>2020-11-15T10:37:20Z</time>
      </trkpt>
      <trkpt lat="46.76571" lon="-0.70965">
        <ele>200.9</ele>
        <time>2020-11-15T10:37:21Z</time>
      </trkpt>
      <trkpt lat="46.76567" lon="-0.70967">
        <ele>200.9</ele>
        <time>2020-11-15T10:37:22Z</time>
      </trkpt>
      <trkpt lat="46.76559" lon="-0.70968">
        <ele>201.1</ele>
        <time>2020-11-15T10:37:24Z</time>
      </trkpt>
      <trkpt lat="46.76553" lon="-0.70969">
        <ele>201.3</ele>
        <time>2020-11-15T10:37:26Z</time>
      </trkpt>
      <trkpt lat="46.7655" lon="-0.7097">
        <ele>201.3</ele>
        <time>2020-11-15T10:37:27Z</time>
      </trkpt>
      <trkpt lat="46.76548" lon="-0.7097">
        <ele>201.3</ele>
        <time>2020-11-15T10:37:28Z</time>
      </trkpt>
      <trkpt lat="46.76542" lon="-0.70969">
        <ele>201.4</ele>
        <time>2020-11-15T10:37:30Z</time>
      </trkpt>
      <trkpt lat="46.7654" lon="-0.7097">
        <ele>201.4</ele>
        <time>2020-11-15T10:37:31Z</time>
      </trkpt>
      <trkpt lat="46.76538" lon="-0.70971">
        <ele>201.5</ele>
        <time>2020-11-15T10:37:32Z</time>
      </trkpt>
      <trkpt lat="46.7653" lon="-0.7097">
        <ele>201.5</ele>
        <time>2020-11-15T10:37:34Z</time>
      </trkpt>
      <trkpt lat="46.76527" lon="-0.7097">
        <ele>201.6</ele>
        <time>2020-11-15T10:37:35Z</time>
      </trkpt>
      <trkpt lat="46.76524" lon="-0.7097">
        <ele>201.6</ele>
        <time>2020-11-15T10:37:36Z</time>
      </trkpt>
      <trkpt lat="46.76518" lon="-0.70971">
        <ele>201.8</ele>
        <time>2020-11-15T10:37:38Z</time>
      </trkpt>
      <trkpt lat="46.76515" lon="-0.70972">
        <ele>201.8</ele>
        <time>2020-11-15T10:37:39Z</time>
      </trkpt>
      <trkpt lat="46.76513" lon="-0.70973">
        <ele>201.9</ele>
        <time>2020-11-15T10:37:40Z</time>
      </trkpt>
      <trkpt lat="46.76508" lon="-0.70974">
        <ele>202</ele>
        <time>2020-11-15T10:37:42Z</time>
      </trkpt>
      <trkpt lat="46.76501" lon="-0.70973">
        <ele>202.2</ele>
        <time>2020-11-15T10:37:44Z</time>
      </trkpt>
      <trkpt lat="46.76494" lon="-0.70973">
        <ele>202.4</ele>
        <time>2020-11-15T10:37:46Z</time>
      </trkpt>
      <trkpt lat="46.76486" lon="-0.70972">
        <ele>202.6</ele>
        <time>2020-11-15T10:37:48Z</time>
      </trkpt>
      <trkpt lat="46.76479" lon="-0.70972">
        <ele>202.8</ele>
        <time>2020-11-15T10:37:50Z</time>
      </trkpt>
      <trkpt lat="46.76475" lon="-0.70971">
        <ele>202.9</ele>
        <time>2020-11-15T10:37:51Z</time>
      </trkpt>
      <trkpt lat="46.76472" lon="-0.70971">
        <ele>203</ele>
        <time>2020-11-15T10:37:52Z</time>
      </trkpt>
      <trkpt lat="46.76465" lon="-0.70971">
        <ele>203</ele>
        <time>2020-11-15T10:37:54Z</time>
      </trkpt>
      <trkpt lat="46.76463" lon="-0.70971">
        <ele>203.1</ele>
        <time>2020-11-15T10:37:55Z</time>
      </trkpt>
      <trkpt lat="46.76461" lon="-0.70971">
        <ele>203.1</ele>
        <time>2020-11-15T10:37:56Z</time>
      </trkpt>
      <trkpt lat="46.76459" lon="-0.70971">
        <ele>203.1</ele>
        <time>2020-11-15T10:37:57Z</time>
      </trkpt>
      <trkpt lat="46.76456" lon="-0.70971">
        <ele>203.1</ele>
        <time>2020-11-15T10:37:58Z</time>
      </trkpt>
      <trkpt lat="46.76453" lon="-0.70971">
        <ele>203.1</ele>
        <time>2020-11-15T10:37:59Z</time>
      </trkpt>
      <trkpt lat="46.7645" lon="-0.7097">
        <ele>203.2</ele>
        <time>2020-11-15T10:38:00Z</time>
      </trkpt>
      <trkpt lat="46.76449" lon="-0.70969">
        <ele>203.2</ele>
        <time>2020-11-15T10:38:01Z</time>
      </trkpt>
      <trkpt lat="46.76431" lon="-0.70964">
        <ele>203.5</ele>
        <time>2020-11-15T10:39:02Z</time>
      </trkpt>
      <trkpt lat="46.76427" lon="-0.70964">
        <ele>203.5</ele>
        <time>2020-11-15T10:39:04Z</time>
      </trkpt>
      <trkpt lat="46.76424" lon="-0.70963">
        <ele>203.6</ele>
        <time>2020-11-15T10:39:05Z</time>
      </trkpt>
      <trkpt lat="46.76422" lon="-0.70962">
        <ele>203.6</ele>
        <time>2020-11-15T10:39:06Z</time>
      </trkpt>
      <trkpt lat="46.76417" lon="-0.70962">
        <ele>203.6</ele>
        <time>2020-11-15T10:39:08Z</time>
      </trkpt>
      <trkpt lat="46.76412" lon="-0.70962">
        <ele>203.6</ele>
        <time>2020-11-15T10:39:10Z</time>
      </trkpt>
      <trkpt lat="46.76408" lon="-0.70962">
        <ele>203.6</ele>
        <time>2020-11-15T10:39:12Z</time>
      </trkpt>
      <trkpt lat="46.76404" lon="-0.70963">
        <ele>203.6</ele>
        <time>2020-11-15T10:39:13Z</time>
      </trkpt>
      <trkpt lat="46.76402" lon="-0.70964">
        <ele>203.5</ele>
        <time>2020-11-15T10:39:14Z</time>
      </trkpt>
      <trkpt lat="46.76392" lon="-0.70963">
        <ele>203.4</ele>
        <time>2020-11-15T10:39:16Z</time>
      </trkpt>
      <trkpt lat="46.76384" lon="-0.70963">
        <ele>203.4</ele>
        <time>2020-11-15T10:39:18Z</time>
      </trkpt>
      <trkpt lat="46.76377" lon="-0.70964">
        <ele>203.3</ele>
        <time>2020-11-15T10:39:20Z</time>
      </trkpt>
      <trkpt lat="46.76369" lon="-0.70963">
        <ele>203.3</ele>
        <time>2020-11-15T10:39:22Z</time>
      </trkpt>
      <trkpt lat="46.76363" lon="-0.70964">
        <ele>203.2</ele>
        <time>2020-11-15T10:39:24Z</time>
      </trkpt>
      <trkpt lat="46.76356" lon="-0.70968">
        <ele>203.3</ele>
        <time>2020-11-15T10:39:26Z</time>
      </trkpt>
      <trkpt lat="46.76353" lon="-0.70969">
        <ele>203.4</ele>
        <time>2020-11-15T10:39:27Z</time>
      </trkpt>
      <trkpt lat="46.7635" lon="-0.7097">
        <ele>203.4</ele>
        <time>2020-11-15T10:39:28Z</time>
      </trkpt>
      <trkpt lat="46.76347" lon="-0.7097">
        <ele>203.5</ele>
        <time>2020-11-15T10:39:29Z</time>
      </trkpt>
      <trkpt lat="46.76344" lon="-0.70972">
        <ele>203.6</ele>
        <time>2020-11-15T10:39:30Z</time>
      </trkpt>
      <trkpt lat="46.76336" lon="-0.70975">
        <ele>203.8</ele>
        <time>2020-11-15T10:39:32Z</time>
      </trkpt>
      <trkpt lat="46.7633" lon="-0.70978">
        <ele>204</ele>
        <time>2020-11-15T10:39:34Z</time>
      </trkpt>
      <trkpt lat="46.76327" lon="-0.7098">
        <ele>204.1</ele>
        <time>2020-11-15T10:39:35Z</time>
      </trkpt>
      <trkpt lat="46.76324" lon="-0.70982">
        <ele>204.2</ele>
        <time>2020-11-15T10:39:36Z</time>
      </trkpt>
      <trkpt lat="46.76318" lon="-0.70986">
        <ele>204.4</ele>
        <time>2020-11-15T10:39:38Z</time>
      </trkpt>
      <trkpt lat="46.76312" lon="-0.70988">
        <ele>204.6</ele>
        <time>2020-11-15T10:39:40Z</time>
      </trkpt>
      <trkpt lat="46.76306" lon="-0.70991">
        <ele>205</ele>
        <time>2020-11-15T10:39:42Z</time>
      </trkpt>
      <trkpt lat="46.763" lon="-0.70993">
        <ele>205.3</ele>
        <time>2020-11-15T10:39:44Z</time>
      </trkpt>
      <trkpt lat="46.76295" lon="-0.70997">
        <ele>205.6</ele>
        <time>2020-11-15T10:39:46Z</time>
      </trkpt>
      <trkpt lat="46.76292" lon="-0.70998">
        <ele>205.7</ele>
        <time>2020-11-15T10:39:47Z</time>
      </trkpt>
      <trkpt lat="46.7629" lon="-0.71">
        <ele>205.7</ele>
        <time>2020-11-15T10:39:48Z</time>
      </trkpt>
      <trkpt lat="46.76287" lon="-0.71002">
        <ele>205.9</ele>
        <time>2020-11-15T10:39:49Z</time>
      </trkpt>
      <trkpt lat="46.76285" lon="-0.71003">
        <ele>206</ele>
        <time>2020-11-15T10:39:50Z</time>
      </trkpt>
      <trkpt lat="46.76279" lon="-0.71006">
        <ele>206.2</ele>
        <time>2020-11-15T10:39:52Z</time>
      </trkpt>
      <trkpt lat="46.76275" lon="-0.71008">
        <ele>206.4</ele>
        <time>2020-11-15T10:39:54Z</time>
      </trkpt>
      <trkpt lat="46.7627" lon="-0.7101">
        <ele>206.6</ele>
        <time>2020-11-15T10:39:56Z</time>
      </trkpt>
      <trkpt lat="46.76267" lon="-0.7101">
        <ele>206.7</ele>
        <time>2020-11-15T10:39:57Z</time>
      </trkpt>
      <trkpt lat="46.76263" lon="-0.71011">
        <ele>206.8</ele>
        <time>2020-11-15T10:39:58Z</time>
      </trkpt>
      <trkpt lat="46.76257" lon="-0.71012">
        <ele>207.1</ele>
        <time>2020-11-15T10:40:00Z</time>
      </trkpt>
      <trkpt lat="46.76253" lon="-0.71012">
        <ele>207.2</ele>
        <time>2020-11-15T10:40:01Z</time>
      </trkpt>
      <trkpt lat="46.76248" lon="-0.71012">
        <ele>207.3</ele>
        <time>2020-11-15T10:40:02Z</time>
      </trkpt>
      <trkpt lat="46.76243" lon="-0.71015">
        <ele>207.4</ele>
        <time>2020-11-15T10:40:04Z</time>
      </trkpt>
      <trkpt lat="46.76241" lon="-0.71015">
        <ele>207.4</ele>
        <time>2020-11-15T10:40:05Z</time>
      </trkpt>
      <trkpt lat="46.76239" lon="-0.71017">
        <ele>207.4</ele>
        <time>2020-11-15T10:40:06Z</time>
      </trkpt>
      <trkpt lat="46.76233" lon="-0.7102">
        <ele>207.4</ele>
        <time>2020-11-15T10:40:08Z</time>
      </trkpt>
      <trkpt lat="46.76231" lon="-0.71021">
        <ele>207.3</ele>
        <time>2020-11-15T10:40:09Z</time>
      </trkpt>
      <trkpt lat="46.76229" lon="-0.71022">
        <ele>207.3</ele>
        <time>2020-11-15T10:40:10Z</time>
      </trkpt>
      <trkpt lat="46.76223" lon="-0.71024">
        <ele>207.1</ele>
        <time>2020-11-15T10:40:12Z</time>
      </trkpt>
      <trkpt lat="46.76221" lon="-0.71026">
        <ele>207</ele>
        <time>2020-11-15T10:40:13Z</time>
      </trkpt>
      <trkpt lat="46.76218" lon="-0.71027">
        <ele>206.9</ele>
        <time>2020-11-15T10:40:14Z</time>
      </trkpt>
      <trkpt lat="46.76213" lon="-0.71029">
        <ele>206.8</ele>
        <time>2020-11-15T10:40:16Z</time>
      </trkpt>
      <trkpt lat="46.76209" lon="-0.71031">
        <ele>206.8</ele>
        <time>2020-11-15T10:40:17Z</time>
      </trkpt>
      <trkpt lat="46.76205" lon="-0.71033">
        <ele>206.7</ele>
        <time>2020-11-15T10:40:18Z</time>
      </trkpt>
      <trkpt lat="46.76199" lon="-0.71037">
        <ele>206.6</ele>
        <time>2020-11-15T10:40:20Z</time>
      </trkpt>
      <trkpt lat="46.76193" lon="-0.7104">
        <ele>206.5</ele>
        <time>2020-11-15T10:40:22Z</time>
      </trkpt>
      <trkpt lat="46.76191" lon="-0.71041">
        <ele>206.5</ele>
        <time>2020-11-15T10:40:23Z</time>
      </trkpt>
      <trkpt lat="46.76189" lon="-0.71042">
        <ele>206.5</ele>
        <time>2020-11-15T10:40:24Z</time>
      </trkpt>
      <trkpt lat="46.76185" lon="-0.71042">
        <ele>206.4</ele>
        <time>2020-11-15T10:40:26Z</time>
      </trkpt>
      <trkpt lat="46.76181" lon="-0.71042">
        <ele>206.4</ele>
        <time>2020-11-15T10:40:28Z</time>
      </trkpt>
      <trkpt lat="46.7618" lon="-0.71041">
        <ele>206.3</ele>
        <time>2020-11-15T10:40:29Z</time>
      </trkpt>
      <trkpt lat="46.76179" lon="-0.7104">
        <ele>206.3</ele>
        <time>2020-11-15T10:40:30Z</time>
      </trkpt>
      <trkpt lat="46.76177" lon="-0.71043">
        <ele>206.1</ele>
        <time>2020-11-15T10:40:48Z</time>
      </trkpt>
      <trkpt lat="46.76175" lon="-0.71045">
        <ele>206</ele>
        <time>2020-11-15T10:40:49Z</time>
      </trkpt>
      <trkpt lat="46.76171" lon="-0.71047">
        <ele>205.8</ele>
        <time>2020-11-15T10:40:50Z</time>
      </trkpt>
      <trkpt lat="46.76166" lon="-0.71049">
        <ele>205.6</ele>
        <time>2020-11-15T10:40:52Z</time>
      </trkpt>
      <trkpt lat="46.7616" lon="-0.7105">
        <ele>205.5</ele>
        <time>2020-11-15T10:40:54Z</time>
      </trkpt>
      <trkpt lat="46.76153" lon="-0.71053">
        <ele>205.3</ele>
        <time>2020-11-15T10:40:56Z</time>
      </trkpt>
      <trkpt lat="46.76148" lon="-0.71054">
        <ele>205.2</ele>
        <time>2020-11-15T10:40:57Z</time>
      </trkpt>
      <trkpt lat="46.76144" lon="-0.71055">
        <ele>205.1</ele>
        <time>2020-11-15T10:40:58Z</time>
      </trkpt>
      <trkpt lat="46.76135" lon="-0.71057">
        <ele>205.1</ele>
        <time>2020-11-15T10:41:00Z</time>
      </trkpt>
      <trkpt lat="46.76127" lon="-0.71058">
        <ele>205.1</ele>
        <time>2020-11-15T10:41:02Z</time>
      </trkpt>
      <trkpt lat="46.76122" lon="-0.71057">
        <ele>205.1</ele>
        <time>2020-11-15T10:41:03Z</time>
      </trkpt>
      <trkpt lat="46.76118" lon="-0.71055">
        <ele>205.1</ele>
        <time>2020-11-15T10:41:04Z</time>
      </trkpt>
      <trkpt lat="46.76112" lon="-0.71054">
        <ele>205.1</ele>
        <time>2020-11-15T10:41:06Z</time>
      </trkpt>
      <trkpt lat="46.76103" lon="-0.71051">
        <ele>205.2</ele>
        <time>2020-11-15T10:41:08Z</time>
      </trkpt>
      <trkpt lat="46.76094" lon="-0.71048">
        <ele>205.3</ele>
        <time>2020-11-15T10:41:10Z</time>
      </trkpt>
      <trkpt lat="46.76086" lon="-0.71044">
        <ele>205.5</ele>
        <time>2020-11-15T10:41:12Z</time>
      </trkpt>
      <trkpt lat="46.7608" lon="-0.71039">
        <ele>205.6</ele>
        <time>2020-11-15T10:41:14Z</time>
      </trkpt>
      <trkpt lat="46.76074" lon="-0.71034">
        <ele>205.8</ele>
        <time>2020-11-15T10:41:16Z</time>
      </trkpt>
      <trkpt lat="46.7607" lon="-0.71032">
        <ele>205.9</ele>
        <time>2020-11-15T10:41:17Z</time>
      </trkpt>
      <trkpt lat="46.76067" lon="-0.71029">
        <ele>206</ele>
        <time>2020-11-15T10:41:18Z</time>
      </trkpt>
      <trkpt lat="46.76062" lon="-0.71026">
        <ele>206.1</ele>
        <time>2020-11-15T10:41:20Z</time>
      </trkpt>
      <trkpt lat="46.76058" lon="-0.71022">
        <ele>206.2</ele>
        <time>2020-11-15T10:41:21Z</time>
      </trkpt>
      <trkpt lat="46.76055" lon="-0.71018">
        <ele>206.3</ele>
        <time>2020-11-15T10:41:22Z</time>
      </trkpt>
      <trkpt lat="46.76052" lon="-0.71016">
        <ele>206.3</ele>
        <time>2020-11-15T10:41:23Z</time>
      </trkpt>
      <trkpt lat="46.76049" lon="-0.71014">
        <ele>206.3</ele>
        <time>2020-11-15T10:41:24Z</time>
      </trkpt>
      <trkpt lat="46.76046" lon="-0.71012">
        <ele>206.4</ele>
        <time>2020-11-15T10:41:25Z</time>
      </trkpt>
      <trkpt lat="46.76044" lon="-0.71009">
        <ele>206.4</ele>
        <time>2020-11-15T10:41:26Z</time>
      </trkpt>
      <trkpt lat="46.76037" lon="-0.71005">
        <ele>206.5</ele>
        <time>2020-11-15T10:41:28Z</time>
      </trkpt>
      <trkpt lat="46.7603" lon="-0.70999">
        <ele>206.6</ele>
        <time>2020-11-15T10:41:30Z</time>
      </trkpt>
      <trkpt lat="46.76022" lon="-0.70994">
        <ele>206.7</ele>
        <time>2020-11-15T10:41:32Z</time>
      </trkpt>
      <trkpt lat="46.76014" lon="-0.70991">
        <ele>206.7</ele>
        <time>2020-11-15T10:41:34Z</time>
      </trkpt>
      <trkpt lat="46.76006" lon="-0.70987">
        <ele>206.7</ele>
        <time>2020-11-15T10:41:36Z</time>
      </trkpt>
      <trkpt lat="46.76002" lon="-0.70985">
        <ele>206.6</ele>
        <time>2020-11-15T10:41:37Z</time>
      </trkpt>
      <trkpt lat="46.75997" lon="-0.70983">
        <ele>206.5</ele>
        <time>2020-11-15T10:41:38Z</time>
      </trkpt>
      <trkpt lat="46.7599" lon="-0.70978">
        <ele>206.3</ele>
        <time>2020-11-15T10:41:40Z</time>
      </trkpt>
      <trkpt lat="46.75986" lon="-0.70976">
        <ele>206.2</ele>
        <time>2020-11-15T10:41:41Z</time>
      </trkpt>
      <trkpt lat="46.75981" lon="-0.70974">
        <ele>206</ele>
        <time>2020-11-15T10:41:42Z</time>
      </trkpt>
      <trkpt lat="46.75972" lon="-0.7097">
        <ele>205.6</ele>
        <time>2020-11-15T10:41:44Z</time>
      </trkpt>
      <trkpt lat="46.75967" lon="-0.70968">
        <ele>205.3</ele>
        <time>2020-11-15T10:41:45Z</time>
      </trkpt>
      <trkpt lat="46.75962" lon="-0.70966">
        <ele>205.1</ele>
        <time>2020-11-15T10:41:46Z</time>
      </trkpt>
      <trkpt lat="46.75955" lon="-0.70963">
        <ele>204.7</ele>
        <time>2020-11-15T10:41:48Z</time>
      </trkpt>
      <trkpt lat="46.7595" lon="-0.7096">
        <ele>204.4</ele>
        <time>2020-11-15T10:41:49Z</time>
      </trkpt>
      <trkpt lat="46.75945" lon="-0.70957">
        <ele>204.1</ele>
        <time>2020-11-15T10:41:50Z</time>
      </trkpt>
      <trkpt lat="46.75937" lon="-0.70954">
        <ele>203.6</ele>
        <time>2020-11-15T10:41:52Z</time>
      </trkpt>
      <trkpt lat="46.75933" lon="-0.70953">
        <ele>203.4</ele>
        <time>2020-11-15T10:41:53Z</time>
      </trkpt>
      <trkpt lat="46.7593" lon="-0.70951">
        <ele>203.2</ele>
        <time>2020-11-15T10:41:54Z</time>
      </trkpt>
      <trkpt lat="46.75923" lon="-0.7095">
        <ele>202.9</ele>
        <time>2020-11-15T10:41:56Z</time>
      </trkpt>
      <trkpt lat="46.75914" lon="-0.70949">
        <ele>202.4</ele>
        <time>2020-11-15T10:41:58Z</time>
      </trkpt>
      <trkpt lat="46.75904" lon="-0.70948">
        <ele>202</ele>
        <time>2020-11-15T10:42:00Z</time>
      </trkpt>
      <trkpt lat="46.759" lon="-0.70949">
        <ele>201.8</ele>
        <time>2020-11-15T10:42:01Z</time>
      </trkpt>
      <trkpt lat="46.75894" lon="-0.70951">
        <ele>201.6</ele>
        <time>2020-11-15T10:42:02Z</time>
      </trkpt>
      <trkpt lat="46.75885" lon="-0.70956">
        <ele>201.2</ele>
        <time>2020-11-15T10:42:04Z</time>
      </trkpt>
      <trkpt lat="46.75875" lon="-0.70959">
        <ele>200.9</ele>
        <time>2020-11-15T10:42:06Z</time>
      </trkpt>
      <trkpt lat="46.75868" lon="-0.70961">
        <ele>200.6</ele>
        <time>2020-11-15T10:42:08Z</time>
      </trkpt>
      <trkpt lat="46.75859" lon="-0.70962">
        <ele>200.3</ele>
        <time>2020-11-15T10:42:10Z</time>
      </trkpt>
      <trkpt lat="46.75849" lon="-0.70964">
        <ele>200</ele>
        <time>2020-11-15T10:42:12Z</time>
      </trkpt>
      <trkpt lat="46.75838" lon="-0.70966">
        <ele>199.6</ele>
        <time>2020-11-15T10:42:14Z</time>
      </trkpt>
      <trkpt lat="46.75829" lon="-0.70968">
        <ele>199.3</ele>
        <time>2020-11-15T10:42:16Z</time>
      </trkpt>
      <trkpt lat="46.7582" lon="-0.7097">
        <ele>199.1</ele>
        <time>2020-11-15T10:42:18Z</time>
      </trkpt>
      <trkpt lat="46.75808" lon="-0.70966">
        <ele>198.8</ele>
        <time>2020-11-15T10:42:20Z</time>
      </trkpt>
      <trkpt lat="46.75797" lon="-0.70966">
        <ele>198.6</ele>
        <time>2020-11-15T10:42:22Z</time>
      </trkpt>
      <trkpt lat="46.75788" lon="-0.70967">
        <ele>198.5</ele>
        <time>2020-11-15T10:42:24Z</time>
      </trkpt>
      <trkpt lat="46.75778" lon="-0.70969">
        <ele>198.3</ele>
        <time>2020-11-15T10:42:26Z</time>
      </trkpt>
      <trkpt lat="46.75768" lon="-0.70969">
        <ele>198.2</ele>
        <time>2020-11-15T10:42:28Z</time>
      </trkpt>
      <trkpt lat="46.7576" lon="-0.70969">
        <ele>198.2</ele>
        <time>2020-11-15T10:42:30Z</time>
      </trkpt>
      <trkpt lat="46.75749" lon="-0.70969">
        <ele>198.3</ele>
        <time>2020-11-15T10:42:32Z</time>
      </trkpt>
      <trkpt lat="46.7574" lon="-0.7097">
        <ele>198.6</ele>
        <time>2020-11-15T10:42:34Z</time>
      </trkpt>
      <trkpt lat="46.75729" lon="-0.70967">
        <ele>199.2</ele>
        <time>2020-11-15T10:42:36Z</time>
      </trkpt>
      <trkpt lat="46.75726" lon="-0.70966">
        <ele>199.4</ele>
        <time>2020-11-15T10:42:37Z</time>
      </trkpt>
      <trkpt lat="46.75724" lon="-0.70964">
        <ele>199.6</ele>
        <time>2020-11-15T10:42:38Z</time>
      </trkpt>
      <trkpt lat="46.75721" lon="-0.70959">
        <ele>199.8</ele>
        <time>2020-11-15T10:42:40Z</time>
      </trkpt>
      <trkpt lat="46.7572" lon="-0.70957">
        <ele>199.9</ele>
        <time>2020-11-15T10:42:41Z</time>
      </trkpt>
      <trkpt lat="46.75719" lon="-0.70954">
        <ele>200</ele>
        <time>2020-11-15T10:42:42Z</time>
      </trkpt>
      <trkpt lat="46.75717" lon="-0.70949">
        <ele>200.2</ele>
        <time>2020-11-15T10:42:44Z</time>
      </trkpt>
      <trkpt lat="46.75717" lon="-0.70946">
        <ele>200.3</ele>
        <time>2020-11-15T10:42:46Z</time>
      </trkpt>
      <trkpt lat="46.75715" lon="-0.7094">
        <ele>200.4</ele>
        <time>2020-11-15T10:42:48Z</time>
      </trkpt>
      <trkpt lat="46.75714" lon="-0.70935">
        <ele>200.5</ele>
        <time>2020-11-15T10:42:50Z</time>
      </trkpt>
      <trkpt lat="46.75713" lon="-0.70929">
        <ele>200.7</ele>
        <time>2020-11-15T10:42:52Z</time>
      </trkpt>
      <trkpt lat="46.7571" lon="-0.70928">
        <ele>200.7</ele>
        <time>2020-11-15T10:42:53Z</time>
      </trkpt>
      <trkpt lat="46.75708" lon="-0.70931">
        <ele>200.7</ele>
        <time>2020-11-15T10:42:54Z</time>
      </trkpt>
      <trkpt lat="46.75706" lon="-0.70937">
        <ele>200.7</ele>
        <time>2020-11-15T10:42:56Z</time>
      </trkpt>
      <trkpt lat="46.75703" lon="-0.70941">
        <ele>200.7</ele>
        <time>2020-11-15T10:42:58Z</time>
      </trkpt>
      <trkpt lat="46.75701" lon="-0.70944">
        <ele>200.7</ele>
        <time>2020-11-15T10:43:00Z</time>
      </trkpt>
      <trkpt lat="46.75698" lon="-0.70945">
        <ele>200.7</ele>
        <time>2020-11-15T10:43:02Z</time>
      </trkpt>
      <trkpt lat="46.75695" lon="-0.70947">
        <ele>200.7</ele>
        <time>2020-11-15T10:43:04Z</time>
      </trkpt>
      <trkpt lat="46.75691" lon="-0.70951">
        <ele>200.6</ele>
        <time>2020-11-15T10:43:06Z</time>
      </trkpt>
      <trkpt lat="46.75689" lon="-0.70954">
        <ele>200.6</ele>
        <time>2020-11-15T10:43:07Z</time>
      </trkpt>
      <trkpt lat="46.75687" lon="-0.70957">
        <ele>200.6</ele>
        <time>2020-11-15T10:43:08Z</time>
      </trkpt>
      <trkpt lat="46.75682" lon="-0.7096">
        <ele>200.6</ele>
        <time>2020-11-15T10:43:10Z</time>
      </trkpt>
      <trkpt lat="46.75678" lon="-0.70964">
        <ele>200.6</ele>
        <time>2020-11-15T10:43:12Z</time>
      </trkpt>
      <trkpt lat="46.75674" lon="-0.70967">
        <ele>200.6</ele>
        <time>2020-11-15T10:43:14Z</time>
      </trkpt>
      <trkpt lat="46.75667" lon="-0.7097">
        <ele>200.5</ele>
        <time>2020-11-15T10:43:16Z</time>
      </trkpt>
      <trkpt lat="46.75664" lon="-0.70971">
        <ele>200.5</ele>
        <time>2020-11-15T10:43:17Z</time>
      </trkpt>
      <trkpt lat="46.75661" lon="-0.70973">
        <ele>200.5</ele>
        <time>2020-11-15T10:43:18Z</time>
      </trkpt>
      <trkpt lat="46.75654" lon="-0.70976">
        <ele>200.4</ele>
        <time>2020-11-15T10:43:20Z</time>
      </trkpt>
      <trkpt lat="46.75647" lon="-0.7098">
        <ele>200.3</ele>
        <time>2020-11-15T10:43:22Z</time>
      </trkpt>
      <trkpt lat="46.7564" lon="-0.70984">
        <ele>200.1</ele>
        <time>2020-11-15T10:43:24Z</time>
      </trkpt>
      <trkpt lat="46.75633" lon="-0.70987">
        <ele>199.9</ele>
        <time>2020-11-15T10:43:26Z</time>
      </trkpt>
      <trkpt lat="46.75627" lon="-0.70991">
        <ele>199.8</ele>
        <time>2020-11-15T10:43:28Z</time>
      </trkpt>
      <trkpt lat="46.7562" lon="-0.70994">
        <ele>199.6</ele>
        <time>2020-11-15T10:43:30Z</time>
      </trkpt>
      <trkpt lat="46.75613" lon="-0.70998">
        <ele>199.4</ele>
        <time>2020-11-15T10:43:32Z</time>
      </trkpt>
      <trkpt lat="46.75606" lon="-0.71001">
        <ele>199.2</ele>
        <time>2020-11-15T10:43:34Z</time>
      </trkpt>
      <trkpt lat="46.75599" lon="-0.71005">
        <ele>199</ele>
        <time>2020-11-15T10:43:36Z</time>
      </trkpt>
      <trkpt lat="46.75593" lon="-0.71008">
        <ele>198.8</ele>
        <time>2020-11-15T10:43:38Z</time>
      </trkpt>
      <trkpt lat="46.7559" lon="-0.71009">
        <ele>198.7</ele>
        <time>2020-11-15T10:43:39Z</time>
      </trkpt>
      <trkpt lat="46.75587" lon="-0.71011">
        <ele>198.6</ele>
        <time>2020-11-15T10:43:40Z</time>
      </trkpt>
      <trkpt lat="46.75579" lon="-0.71014">
        <ele>198.2</ele>
        <time>2020-11-15T10:43:42Z</time>
      </trkpt>
      <trkpt lat="46.75569" lon="-0.71018">
        <ele>197.7</ele>
        <time>2020-11-15T10:43:44Z</time>
      </trkpt>
      <trkpt lat="46.7556" lon="-0.71022">
        <ele>197.2</ele>
        <time>2020-11-15T10:43:46Z</time>
      </trkpt>
      <trkpt lat="46.7555" lon="-0.71026">
        <ele>196.6</ele>
        <time>2020-11-15T10:43:48Z</time>
      </trkpt>
      <trkpt lat="46.75545" lon="-0.71028">
        <ele>196.3</ele>
        <time>2020-11-15T10:43:49Z</time>
      </trkpt>
      <trkpt lat="46.7554" lon="-0.7103">
        <ele>196</ele>
        <time>2020-11-15T10:43:50Z</time>
      </trkpt>
      <trkpt lat="46.75529" lon="-0.71034">
        <ele>195.4</ele>
        <time>2020-11-15T10:43:52Z</time>
      </trkpt>
      <trkpt lat="46.75519" lon="-0.71037">
        <ele>194.8</ele>
        <time>2020-11-15T10:43:54Z</time>
      </trkpt>
      <trkpt lat="46.75514" lon="-0.71039">
        <ele>194.5</ele>
        <time>2020-11-15T10:43:55Z</time>
      </trkpt>
      <trkpt lat="46.75508" lon="-0.7104">
        <ele>194.2</ele>
        <time>2020-11-15T10:43:56Z</time>
      </trkpt>
      <trkpt lat="46.75495" lon="-0.71044">
        <ele>193.5</ele>
        <time>2020-11-15T10:43:58Z</time>
      </trkpt>
      <trkpt lat="46.75482" lon="-0.71047">
        <ele>192.7</ele>
        <time>2020-11-15T10:44:00Z</time>
      </trkpt>
      <trkpt lat="46.75468" lon="-0.7105">
        <ele>192</ele>
        <time>2020-11-15T10:44:02Z</time>
      </trkpt>
      <trkpt lat="46.75456" lon="-0.71055">
        <ele>191.3</ele>
        <time>2020-11-15T10:44:04Z</time>
      </trkpt>
      <trkpt lat="46.7545" lon="-0.71057">
        <ele>191</ele>
        <time>2020-11-15T10:44:05Z</time>
      </trkpt>
      <trkpt lat="46.75444" lon="-0.71059">
        <ele>190.8</ele>
        <time>2020-11-15T10:44:06Z</time>
      </trkpt>
      <trkpt lat="46.75439" lon="-0.71062">
        <ele>190.5</ele>
        <time>2020-11-15T10:44:07Z</time>
      </trkpt>
      <trkpt lat="46.75433" lon="-0.71064">
        <ele>190.2</ele>
        <time>2020-11-15T10:44:08Z</time>
      </trkpt>
      <trkpt lat="46.75428" lon="-0.71066">
        <ele>190</ele>
        <time>2020-11-15T10:44:09Z</time>
      </trkpt>
      <trkpt lat="46.75422" lon="-0.71067">
        <ele>189.7</ele>
        <time>2020-11-15T10:44:10Z</time>
      </trkpt>
      <trkpt lat="46.7541" lon="-0.71071">
        <ele>189.2</ele>
        <time>2020-11-15T10:44:12Z</time>
      </trkpt>
      <trkpt lat="46.75398" lon="-0.71075">
        <ele>188.7</ele>
        <time>2020-11-15T10:44:14Z</time>
      </trkpt>
      <trkpt lat="46.75385" lon="-0.71079">
        <ele>188.1</ele>
        <time>2020-11-15T10:44:16Z</time>
      </trkpt>
      <trkpt lat="46.75372" lon="-0.71083">
        <ele>187.5</ele>
        <time>2020-11-15T10:44:18Z</time>
      </trkpt>
      <trkpt lat="46.75358" lon="-0.71086">
        <ele>187</ele>
        <time>2020-11-15T10:44:20Z</time>
      </trkpt>
      <trkpt lat="46.75344" lon="-0.71088">
        <ele>186.4</ele>
        <time>2020-11-15T10:44:22Z</time>
      </trkpt>
      <trkpt lat="46.75331" lon="-0.71089">
        <ele>185.8</ele>
        <time>2020-11-15T10:44:24Z</time>
      </trkpt>
      <trkpt lat="46.75318" lon="-0.71086">
        <ele>185.3</ele>
        <time>2020-11-15T10:44:26Z</time>
      </trkpt>
      <trkpt lat="46.75311" lon="-0.71085">
        <ele>185</ele>
        <time>2020-11-15T10:44:27Z</time>
      </trkpt>
      <trkpt lat="46.75304" lon="-0.71084">
        <ele>184.7</ele>
        <time>2020-11-15T10:44:28Z</time>
      </trkpt>
      <trkpt lat="46.75291" lon="-0.7108">
        <ele>184.1</ele>
        <time>2020-11-15T10:44:30Z</time>
      </trkpt>
      <trkpt lat="46.75278" lon="-0.71076">
        <ele>183.6</ele>
        <time>2020-11-15T10:44:32Z</time>
      </trkpt>
      <trkpt lat="46.75264" lon="-0.71072">
        <ele>182.9</ele>
        <time>2020-11-15T10:44:34Z</time>
      </trkpt>
      <trkpt lat="46.7525" lon="-0.7107">
        <ele>182.2</ele>
        <time>2020-11-15T10:44:36Z</time>
      </trkpt>
      <trkpt lat="46.75243" lon="-0.71071">
        <ele>181.8</ele>
        <time>2020-11-15T10:44:37Z</time>
      </trkpt>
      <trkpt lat="46.75237" lon="-0.71073">
        <ele>181.5</ele>
        <time>2020-11-15T10:44:38Z</time>
      </trkpt>
      <trkpt lat="46.75226" lon="-0.71074">
        <ele>180.9</ele>
        <time>2020-11-15T10:44:40Z</time>
      </trkpt>
      <trkpt lat="46.75218" lon="-0.71063">
        <ele>180.6</ele>
        <time>2020-11-15T10:44:42Z</time>
      </trkpt>
      <trkpt lat="46.75217" lon="-0.71045">
        <ele>180.5</ele>
        <time>2020-11-15T10:44:44Z</time>
      </trkpt>
      <trkpt lat="46.75217" lon="-0.71037">
        <ele>180.5</ele>
        <time>2020-11-15T10:44:45Z</time>
      </trkpt>
      <trkpt lat="46.75217" lon="-0.71029">
        <ele>180.6</ele>
        <time>2020-11-15T10:44:46Z</time>
      </trkpt>
      <trkpt lat="46.75221" lon="-0.71013">
        <ele>180.7</ele>
        <time>2020-11-15T10:44:48Z</time>
      </trkpt>
      <trkpt lat="46.75224" lon="-0.71006">
        <ele>180.8</ele>
        <time>2020-11-15T10:44:49Z</time>
      </trkpt>
      <trkpt lat="46.7523" lon="-0.70992">
        <ele>181</ele>
        <time>2020-11-15T10:44:51Z</time>
      </trkpt>
      <trkpt lat="46.75237" lon="-0.70979">
        <ele>181.1</ele>
        <time>2020-11-15T10:44:53Z</time>
      </trkpt>
      <trkpt lat="46.7524" lon="-0.70972">
        <ele>181.3</ele>
        <time>2020-11-15T10:44:54Z</time>
      </trkpt>
      <trkpt lat="46.75244" lon="-0.70955">
        <ele>181.9</ele>
        <time>2020-11-15T10:44:56Z</time>
      </trkpt>
      <trkpt lat="46.75244" lon="-0.70946">
        <ele>182.3</ele>
        <time>2020-11-15T10:44:57Z</time>
      </trkpt>
      <trkpt lat="46.75243" lon="-0.70936">
        <ele>182.7</ele>
        <time>2020-11-15T10:44:58Z</time>
      </trkpt>
      <trkpt lat="46.75242" lon="-0.70927">
        <ele>183</ele>
        <time>2020-11-15T10:44:59Z</time>
      </trkpt>
      <trkpt lat="46.7524" lon="-0.70918">
        <ele>183.4</ele>
        <time>2020-11-15T10:45:00Z</time>
      </trkpt>
      <trkpt lat="46.75238" lon="-0.70909">
        <ele>183.7</ele>
        <time>2020-11-15T10:45:01Z</time>
      </trkpt>
      <trkpt lat="46.75237" lon="-0.70899">
        <ele>184</ele>
        <time>2020-11-15T10:45:02Z</time>
      </trkpt>
      <trkpt lat="46.75234" lon="-0.70881">
        <ele>184.3</ele>
        <time>2020-11-15T10:45:04Z</time>
      </trkpt>
      <trkpt lat="46.75231" lon="-0.70865">
        <ele>184.4</ele>
        <time>2020-11-15T10:45:06Z</time>
      </trkpt>
      <trkpt lat="46.75228" lon="-0.70849">
        <ele>184.3</ele>
        <time>2020-11-15T10:45:08Z</time>
      </trkpt>
      <trkpt lat="46.75226" lon="-0.70833">
        <ele>184.3</ele>
        <time>2020-11-15T10:45:10Z</time>
      </trkpt>
      <trkpt lat="46.75224" lon="-0.70818">
        <ele>184.2</ele>
        <time>2020-11-15T10:45:12Z</time>
      </trkpt>
      <trkpt lat="46.75221" lon="-0.70803">
        <ele>184.2</ele>
        <time>2020-11-15T10:45:14Z</time>
      </trkpt>
      <trkpt lat="46.75219" lon="-0.70794">
        <ele>184.2</ele>
        <time>2020-11-15T10:45:15Z</time>
      </trkpt>
      <trkpt lat="46.75218" lon="-0.70786">
        <ele>184.2</ele>
        <time>2020-11-15T10:45:16Z</time>
      </trkpt>
      <trkpt lat="46.75215" lon="-0.7077">
        <ele>184.1</ele>
        <time>2020-11-15T10:45:18Z</time>
      </trkpt>
      <trkpt lat="46.75211" lon="-0.70754">
        <ele>184</ele>
        <time>2020-11-15T10:45:20Z</time>
      </trkpt>
      <trkpt lat="46.75209" lon="-0.70746">
        <ele>184</ele>
        <time>2020-11-15T10:45:21Z</time>
      </trkpt>
      <trkpt lat="46.75208" lon="-0.70738">
        <ele>184.1</ele>
        <time>2020-11-15T10:45:22Z</time>
      </trkpt>
      <trkpt lat="46.75207" lon="-0.70731">
        <ele>184.1</ele>
        <time>2020-11-15T10:45:23Z</time>
      </trkpt>
      <trkpt lat="46.75207" lon="-0.70724">
        <ele>184.2</ele>
        <time>2020-11-15T10:45:24Z</time>
      </trkpt>
      <trkpt lat="46.75208" lon="-0.70717">
        <ele>184.2</ele>
        <time>2020-11-15T10:45:25Z</time>
      </trkpt>
      <trkpt lat="46.75208" lon="-0.70709">
        <ele>184.2</ele>
        <time>2020-11-15T10:45:26Z</time>
      </trkpt>
      <trkpt lat="46.75209" lon="-0.70694">
        <ele>184.2</ele>
        <time>2020-11-15T10:45:28Z</time>
      </trkpt>
      <trkpt lat="46.7521" lon="-0.70686">
        <ele>184.1</ele>
        <time>2020-11-15T10:45:29Z</time>
      </trkpt>
      <trkpt lat="46.75211" lon="-0.7068">
        <ele>184</ele>
        <time>2020-11-15T10:45:30Z</time>
      </trkpt>
      <trkpt lat="46.75212" lon="-0.70665">
        <ele>183.8</ele>
        <time>2020-11-15T10:45:32Z</time>
      </trkpt>
      <trkpt lat="46.75209" lon="-0.70651">
        <ele>183.4</ele>
        <time>2020-11-15T10:45:34Z</time>
      </trkpt>
      <trkpt lat="46.75207" lon="-0.70637">
        <ele>183.1</ele>
        <time>2020-11-15T10:45:36Z</time>
      </trkpt>
      <trkpt lat="46.75203" lon="-0.70624">
        <ele>182.7</ele>
        <time>2020-11-15T10:45:38Z</time>
      </trkpt>
      <trkpt lat="46.75201" lon="-0.70618">
        <ele>182.7</ele>
        <time>2020-11-15T10:45:39Z</time>
      </trkpt>
      <trkpt lat="46.75198" lon="-0.70612">
        <ele>182.6</ele>
        <time>2020-11-15T10:45:40Z</time>
      </trkpt>
      <trkpt lat="46.75196" lon="-0.70606">
        <ele>182.6</ele>
        <time>2020-11-15T10:45:41Z</time>
      </trkpt>
      <trkpt lat="46.75193" lon="-0.70601">
        <ele>182.6</ele>
        <time>2020-11-15T10:45:42Z</time>
      </trkpt>
      <trkpt lat="46.75189" lon="-0.70599">
        <ele>182.5</ele>
        <time>2020-11-15T10:45:43Z</time>
      </trkpt>
      <trkpt lat="46.75185" lon="-0.706">
        <ele>182.5</ele>
        <time>2020-11-15T10:45:44Z</time>
      </trkpt>
      <trkpt lat="46.75178" lon="-0.70605">
        <ele>182.4</ele>
        <time>2020-11-15T10:45:46Z</time>
      </trkpt>
      <trkpt lat="46.75169" lon="-0.70611">
        <ele>182.3</ele>
        <time>2020-11-15T10:45:48Z</time>
      </trkpt>
      <trkpt lat="46.75161" lon="-0.70617">
        <ele>182.2</ele>
        <time>2020-11-15T10:45:50Z</time>
      </trkpt>
      <trkpt lat="46.75157" lon="-0.7062">
        <ele>181.9</ele>
        <time>2020-11-15T10:45:51Z</time>
      </trkpt>
      <trkpt lat="46.75152" lon="-0.70622">
        <ele>181.4</ele>
        <time>2020-11-15T10:45:52Z</time>
      </trkpt>
      <trkpt lat="46.75145" lon="-0.70623">
        <ele>180.9</ele>
        <time>2020-11-15T10:45:54Z</time>
      </trkpt>
      <trkpt lat="46.75143" lon="-0.70624">
        <ele>180.5</ele>
        <time>2020-11-15T10:45:55Z</time>
      </trkpt>
      <trkpt lat="46.7514" lon="-0.70626">
        <ele>180.2</ele>
        <time>2020-11-15T10:45:56Z</time>
      </trkpt>
      <trkpt lat="46.75135" lon="-0.70631">
        <ele>179.6</ele>
        <time>2020-11-15T10:45:58Z</time>
      </trkpt>
      <trkpt lat="46.75128" lon="-0.70638">
        <ele>179</ele>
        <time>2020-11-15T10:46:00Z</time>
      </trkpt>
      <trkpt lat="46.75122" lon="-0.70645">
        <ele>178.3</ele>
        <time>2020-11-15T10:46:02Z</time>
      </trkpt>
      <trkpt lat="46.75116" lon="-0.70652">
        <ele>177.7</ele>
        <time>2020-11-15T10:46:04Z</time>
      </trkpt>
      <trkpt lat="46.7511" lon="-0.70658">
        <ele>177</ele>
        <time>2020-11-15T10:46:06Z</time>
      </trkpt>
      <trkpt lat="46.75103" lon="-0.70663">
        <ele>176.3</ele>
        <time>2020-11-15T10:46:08Z</time>
      </trkpt>
      <trkpt lat="46.75096" lon="-0.7067">
        <ele>175.9</ele>
        <time>2020-11-15T10:46:10Z</time>
      </trkpt>
      <trkpt lat="46.75089" lon="-0.70677">
        <ele>175.3</ele>
        <time>2020-11-15T10:46:12Z</time>
      </trkpt>
      <trkpt lat="46.75087" lon="-0.70681">
        <ele>175</ele>
        <time>2020-11-15T10:46:13Z</time>
      </trkpt>
      <trkpt lat="46.75085" lon="-0.70687">
        <ele>174.6</ele>
        <time>2020-11-15T10:46:14Z</time>
      </trkpt>
      <trkpt lat="46.75084" lon="-0.70699">
        <ele>174.4</ele>
        <time>2020-11-15T10:46:16Z</time>
      </trkpt>
      <trkpt lat="46.75083" lon="-0.70712">
        <ele>173.9</ele>
        <time>2020-11-15T10:46:18Z</time>
      </trkpt>
      <trkpt lat="46.75081" lon="-0.70724">
        <ele>173.7</ele>
        <time>2020-11-15T10:46:20Z</time>
      </trkpt>
      <trkpt lat="46.7508" lon="-0.7073">
        <ele>173.3</ele>
        <time>2020-11-15T10:46:21Z</time>
      </trkpt>
      <trkpt lat="46.75078" lon="-0.70735">
        <ele>173.1</ele>
        <time>2020-11-15T10:46:22Z</time>
      </trkpt>
      <trkpt lat="46.75076" lon="-0.7074">
        <ele>172.8</ele>
        <time>2020-11-15T10:46:23Z</time>
      </trkpt>
      <trkpt lat="46.75074" lon="-0.70745">
        <ele>172.5</ele>
        <time>2020-11-15T10:46:24Z</time>
      </trkpt>
      <trkpt lat="46.7507" lon="-0.70756">
        <ele>172.3</ele>
        <time>2020-11-15T10:46:26Z</time>
      </trkpt>
      <trkpt lat="46.75066" lon="-0.70767">
        <ele>172</ele>
        <time>2020-11-15T10:46:28Z</time>
      </trkpt>
      <trkpt lat="46.75063" lon="-0.70774">
        <ele>171.7</ele>
        <time>2020-11-15T10:46:30Z</time>
      </trkpt>
      <trkpt lat="46.75059" lon="-0.70786">
        <ele>171.4</ele>
        <time>2020-11-15T10:46:32Z</time>
      </trkpt>
      <trkpt lat="46.75055" lon="-0.70798">
        <ele>171.1</ele>
        <time>2020-11-15T10:46:34Z</time>
      </trkpt>
      <trkpt lat="46.75052" lon="-0.70809">
        <ele>170.9</ele>
        <time>2020-11-15T10:46:36Z</time>
      </trkpt>
      <trkpt lat="46.75048" lon="-0.70821">
        <ele>170.9</ele>
        <time>2020-11-15T10:46:38Z</time>
      </trkpt>
      <trkpt lat="46.75043" lon="-0.70831">
        <ele>170.7</ele>
        <time>2020-11-15T10:46:40Z</time>
      </trkpt>
      <trkpt lat="46.7504" lon="-0.70841">
        <ele>170.8</ele>
        <time>2020-11-15T10:46:42Z</time>
      </trkpt>
      <trkpt lat="46.75038" lon="-0.70846">
        <ele>170.7</ele>
        <time>2020-11-15T10:46:43Z</time>
      </trkpt>
      <trkpt lat="46.75036" lon="-0.70851">
        <ele>170.7</ele>
        <time>2020-11-15T10:46:44Z</time>
      </trkpt>
      <trkpt lat="46.75034" lon="-0.70862">
        <ele>170.7</ele>
        <time>2020-11-15T10:46:46Z</time>
      </trkpt>
      <trkpt lat="46.75033" lon="-0.70867">
        <ele>170.7</ele>
        <time>2020-11-15T10:46:47Z</time>
      </trkpt>
      <trkpt lat="46.75031" lon="-0.70872">
        <ele>170.7</ele>
        <time>2020-11-15T10:46:48Z</time>
      </trkpt>
      <trkpt lat="46.75029" lon="-0.70883">
        <ele>170.6</ele>
        <time>2020-11-15T10:46:50Z</time>
      </trkpt>
      <trkpt lat="46.75028" lon="-0.70888">
        <ele>170.6</ele>
        <time>2020-11-15T10:46:51Z</time>
      </trkpt>
      <trkpt lat="46.75026" lon="-0.70892">
        <ele>170.5</ele>
        <time>2020-11-15T10:46:52Z</time>
      </trkpt>
      <trkpt lat="46.75024" lon="-0.70902">
        <ele>170.3</ele>
        <time>2020-11-15T10:46:54Z</time>
      </trkpt>
      <trkpt lat="46.75022" lon="-0.70907">
        <ele>170.2</ele>
        <time>2020-11-15T10:46:55Z</time>
      </trkpt>
      <trkpt lat="46.7502" lon="-0.70912">
        <ele>169.9</ele>
        <time>2020-11-15T10:46:56Z</time>
      </trkpt>
      <trkpt lat="46.75017" lon="-0.70923">
        <ele>169.7</ele>
        <time>2020-11-15T10:46:58Z</time>
      </trkpt>
      <trkpt lat="46.75012" lon="-0.70932">
        <ele>169.4</ele>
        <time>2020-11-15T10:47:00Z</time>
      </trkpt>
      <trkpt lat="46.75007" lon="-0.70935">
        <ele>168.7</ele>
        <time>2020-11-15T10:47:02Z</time>
      </trkpt>
      <trkpt lat="46.75004" lon="-0.70933">
        <ele>168.7</ele>
        <time>2020-11-15T10:47:03Z</time>
      </trkpt>
      <trkpt lat="46.75001" lon="-0.7093">
        <ele>168.7</ele>
        <time>2020-11-15T10:47:04Z</time>
      </trkpt>
      <trkpt lat="46.74997" lon="-0.70922">
        <ele>168.7</ele>
        <time>2020-11-15T10:47:06Z</time>
      </trkpt>
      <trkpt lat="46.74992" lon="-0.70914">
        <ele>168.7</ele>
        <time>2020-11-15T10:47:08Z</time>
      </trkpt>
      <trkpt lat="46.74987" lon="-0.70906">
        <ele>168.7</ele>
        <time>2020-11-15T10:47:10Z</time>
      </trkpt>
      <trkpt lat="46.7498" lon="-0.70899">
        <ele>168.8</ele>
        <time>2020-11-15T10:47:12Z</time>
      </trkpt>
      <trkpt lat="46.74973" lon="-0.70893">
        <ele>168.9</ele>
        <time>2020-11-15T10:47:14Z</time>
      </trkpt>
      <trkpt lat="46.74967" lon="-0.70887">
        <ele>169</ele>
        <time>2020-11-15T10:47:16Z</time>
      </trkpt>
      <trkpt lat="46.74961" lon="-0.70882">
        <ele>169.2</ele>
        <time>2020-11-15T10:47:18Z</time>
      </trkpt>
      <trkpt lat="46.74954" lon="-0.70878">
        <ele>169.4</ele>
        <time>2020-11-15T10:47:20Z</time>
      </trkpt>
      <trkpt lat="46.74947" lon="-0.70874">
        <ele>169.6</ele>
        <time>2020-11-15T10:47:22Z</time>
      </trkpt>
      <trkpt lat="46.74941" lon="-0.70869">
        <ele>169.9</ele>
        <time>2020-11-15T10:47:24Z</time>
      </trkpt>
      <trkpt lat="46.74934" lon="-0.70863">
        <ele>170.2</ele>
        <time>2020-11-15T10:47:26Z</time>
      </trkpt>
      <trkpt lat="46.74927" lon="-0.70859">
        <ele>170.6</ele>
        <time>2020-11-15T10:47:28Z</time>
      </trkpt>
      <trkpt lat="46.7492" lon="-0.70855">
        <ele>171.1</ele>
        <time>2020-11-15T10:47:30Z</time>
      </trkpt>
      <trkpt lat="46.74913" lon="-0.70851">
        <ele>171.6</ele>
        <time>2020-11-15T10:47:32Z</time>
      </trkpt>
      <trkpt lat="46.7491" lon="-0.70849">
        <ele>171.9</ele>
        <time>2020-11-15T10:47:33Z</time>
      </trkpt>
      <trkpt lat="46.74906" lon="-0.70846">
        <ele>172.2</ele>
        <time>2020-11-15T10:47:34Z</time>
      </trkpt>
      <trkpt lat="46.74898" lon="-0.70841">
        <ele>172.8</ele>
        <time>2020-11-15T10:47:36Z</time>
      </trkpt>
      <trkpt lat="46.7489" lon="-0.70836">
        <ele>173.3</ele>
        <time>2020-11-15T10:47:38Z</time>
      </trkpt>
      <trkpt lat="46.74886" lon="-0.70834">
        <ele>173.6</ele>
        <time>2020-11-15T10:47:39Z</time>
      </trkpt>
      <trkpt lat="46.74883" lon="-0.70831">
        <ele>173.8</ele>
        <time>2020-11-15T10:47:40Z</time>
      </trkpt>
      <trkpt lat="46.74876" lon="-0.70827">
        <ele>174.2</ele>
        <time>2020-11-15T10:47:42Z</time>
      </trkpt>
      <trkpt lat="46.74869" lon="-0.70823">
        <ele>174.6</ele>
        <time>2020-11-15T10:47:44Z</time>
      </trkpt>
      <trkpt lat="46.74862" lon="-0.70819">
        <ele>174.9</ele>
        <time>2020-11-15T10:47:46Z</time>
      </trkpt>
      <trkpt lat="46.74859" lon="-0.70817">
        <ele>175.1</ele>
        <time>2020-11-15T10:47:47Z</time>
      </trkpt>
      <trkpt lat="46.74856" lon="-0.70815">
        <ele>175.2</ele>
        <time>2020-11-15T10:47:48Z</time>
      </trkpt>
      <trkpt lat="46.74849" lon="-0.70812">
        <ele>175.4</ele>
        <time>2020-11-15T10:47:50Z</time>
      </trkpt>
      <trkpt lat="46.74842" lon="-0.7081">
        <ele>175.7</ele>
        <time>2020-11-15T10:47:52Z</time>
      </trkpt>
      <trkpt lat="46.74835" lon="-0.70807">
        <ele>175.8</ele>
        <time>2020-11-15T10:47:54Z</time>
      </trkpt>
      <trkpt lat="46.74827" lon="-0.70806">
        <ele>175.9</ele>
        <time>2020-11-15T10:47:56Z</time>
      </trkpt>
      <trkpt lat="46.74819" lon="-0.70805">
        <ele>176</ele>
        <time>2020-11-15T10:47:58Z</time>
      </trkpt>
      <trkpt lat="46.74816" lon="-0.70802">
        <ele>175.9</ele>
        <time>2020-11-15T10:47:59Z</time>
      </trkpt>
      <trkpt lat="46.74813" lon="-0.70799">
        <ele>175.7</ele>
        <time>2020-11-15T10:48:00Z</time>
      </trkpt>
      <trkpt lat="46.74808" lon="-0.70795">
        <ele>175.4</ele>
        <time>2020-11-15T10:48:02Z</time>
      </trkpt>
      <trkpt lat="46.74802" lon="-0.70786">
        <ele>175</ele>
        <time>2020-11-15T10:48:04Z</time>
      </trkpt>
      <trkpt lat="46.74794" lon="-0.70776">
        <ele>174.6</ele>
        <time>2020-11-15T10:48:06Z</time>
      </trkpt>
      <trkpt lat="46.74785" lon="-0.70766">
        <ele>174</ele>
        <time>2020-11-15T10:48:08Z</time>
      </trkpt>
      <trkpt lat="46.74775" lon="-0.70756">
        <ele>173.5</ele>
        <time>2020-11-15T10:48:10Z</time>
      </trkpt>
      <trkpt lat="46.74766" lon="-0.70744">
        <ele>173.3</ele>
        <time>2020-11-15T10:48:12Z</time>
      </trkpt>
      <trkpt lat="46.74756" lon="-0.70731">
        <ele>173.3</ele>
        <time>2020-11-15T10:48:14Z</time>
      </trkpt>
      <trkpt lat="46.74745" lon="-0.70717">
        <ele>173.3</ele>
        <time>2020-11-15T10:48:16Z</time>
      </trkpt>
      <trkpt lat="46.74735" lon="-0.70703">
        <ele>173.3</ele>
        <time>2020-11-15T10:48:18Z</time>
      </trkpt>
      <trkpt lat="46.74725" lon="-0.70689">
        <ele>173.3</ele>
        <time>2020-11-15T10:48:20Z</time>
      </trkpt>
      <trkpt lat="46.74714" lon="-0.70674">
        <ele>173.3</ele>
        <time>2020-11-15T10:48:22Z</time>
      </trkpt>
      <trkpt lat="46.74701" lon="-0.7066">
        <ele>173.3</ele>
        <time>2020-11-15T10:48:24Z</time>
      </trkpt>
      <trkpt lat="46.74688" lon="-0.70646">
        <ele>173.3</ele>
        <time>2020-11-15T10:48:26Z</time>
      </trkpt>
      <trkpt lat="46.74675" lon="-0.70634">
        <ele>173.3</ele>
        <time>2020-11-15T10:48:28Z</time>
      </trkpt>
      <trkpt lat="46.74663" lon="-0.70629">
        <ele>173.3</ele>
        <time>2020-11-15T10:48:30Z</time>
      </trkpt>
      <trkpt lat="46.74656" lon="-0.70629">
        <ele>173.3</ele>
        <time>2020-11-15T10:48:31Z</time>
      </trkpt>
      <trkpt lat="46.74649" lon="-0.70631">
        <ele>173.3</ele>
        <time>2020-11-15T10:48:32Z</time>
      </trkpt>
      <trkpt lat="46.74639" lon="-0.70637">
        <ele>173.4</ele>
        <time>2020-11-15T10:48:34Z</time>
      </trkpt>
      <trkpt lat="46.74634" lon="-0.7064">
        <ele>173.4</ele>
        <time>2020-11-15T10:48:35Z</time>
      </trkpt>
      <trkpt lat="46.74629" lon="-0.70644">
        <ele>173.4</ele>
        <time>2020-11-15T10:48:36Z</time>
      </trkpt>
      <trkpt lat="46.7462" lon="-0.70649">
        <ele>173.4</ele>
        <time>2020-11-15T10:48:38Z</time>
      </trkpt>
      <trkpt lat="46.74613" lon="-0.70653">
        <ele>173.4</ele>
        <time>2020-11-15T10:48:40Z</time>
      </trkpt>
      <trkpt lat="46.74609" lon="-0.70655">
        <ele>173.4</ele>
        <time>2020-11-15T10:48:41Z</time>
      </trkpt>
      <trkpt lat="46.74604" lon="-0.70659">
        <ele>173.4</ele>
        <time>2020-11-15T10:48:42Z</time>
      </trkpt>
      <trkpt lat="46.74597" lon="-0.70665">
        <ele>173.4</ele>
        <time>2020-11-15T10:48:44Z</time>
      </trkpt>
      <trkpt lat="46.74589" lon="-0.70673">
        <ele>173.4</ele>
        <time>2020-11-15T10:48:46Z</time>
      </trkpt>
      <trkpt lat="46.74585" lon="-0.70677">
        <ele>173.4</ele>
        <time>2020-11-15T10:48:47Z</time>
      </trkpt>
      <trkpt lat="46.74581" lon="-0.70682">
        <ele>173.4</ele>
        <time>2020-11-15T10:48:48Z</time>
      </trkpt>
      <trkpt lat="46.74574" lon="-0.70688">
        <ele>173.4</ele>
        <time>2020-11-15T10:48:50Z</time>
      </trkpt>
      <trkpt lat="46.74566" lon="-0.70693">
        <ele>173.4</ele>
        <time>2020-11-15T10:48:52Z</time>
      </trkpt>
      <trkpt lat="46.74562" lon="-0.70694">
        <ele>173.4</ele>
        <time>2020-11-15T10:48:53Z</time>
      </trkpt>
      <trkpt lat="46.74557" lon="-0.70694">
        <ele>173.4</ele>
        <time>2020-11-15T10:48:54Z</time>
      </trkpt>
      <trkpt lat="46.74548" lon="-0.70692">
        <ele>173.4</ele>
        <time>2020-11-15T10:48:56Z</time>
      </trkpt>
      <trkpt lat="46.74543" lon="-0.7069">
        <ele>173.4</ele>
        <time>2020-11-15T10:48:57Z</time>
      </trkpt>
      <trkpt lat="46.74538" lon="-0.70686">
        <ele>173.4</ele>
        <time>2020-11-15T10:48:58Z</time>
      </trkpt>
      <trkpt lat="46.74534" lon="-0.70682">
        <ele>173.4</ele>
        <time>2020-11-15T10:48:59Z</time>
      </trkpt>
      <trkpt lat="46.74531" lon="-0.70678">
        <ele>173.4</ele>
        <time>2020-11-15T10:49:00Z</time>
      </trkpt>
      <trkpt lat="46.74524" lon="-0.70669">
        <ele>173.4</ele>
        <time>2020-11-15T10:49:02Z</time>
      </trkpt>
      <trkpt lat="46.74517" lon="-0.70658">
        <ele>173.4</ele>
        <time>2020-11-15T10:49:04Z</time>
      </trkpt>
      <trkpt lat="46.7451" lon="-0.70648">
        <ele>173.4</ele>
        <time>2020-11-15T10:49:06Z</time>
      </trkpt>
      <trkpt lat="46.74503" lon="-0.70639">
        <ele>173.4</ele>
        <time>2020-11-15T10:49:08Z</time>
      </trkpt>
      <trkpt lat="46.74496" lon="-0.7063">
        <ele>173.5</ele>
        <time>2020-11-15T10:49:10Z</time>
      </trkpt>
      <trkpt lat="46.7449" lon="-0.70621">
        <ele>173.5</ele>
        <time>2020-11-15T10:49:12Z</time>
      </trkpt>
      <trkpt lat="46.74486" lon="-0.70616">
        <ele>173.5</ele>
        <time>2020-11-15T10:49:13Z</time>
      </trkpt>
      <trkpt lat="46.74484" lon="-0.70612">
        <ele>173.5</ele>
        <time>2020-11-15T10:49:14Z</time>
      </trkpt>
      <trkpt lat="46.74478" lon="-0.70603">
        <ele>173.5</ele>
        <time>2020-11-15T10:49:16Z</time>
      </trkpt>
      <trkpt lat="46.74472" lon="-0.70594">
        <ele>173.5</ele>
        <time>2020-11-15T10:49:18Z</time>
      </trkpt>
      <trkpt lat="46.74466" lon="-0.70584">
        <ele>173.5</ele>
        <time>2020-11-15T10:49:20Z</time>
      </trkpt>
      <trkpt lat="46.7446" lon="-0.70573">
        <ele>173.5</ele>
        <time>2020-11-15T10:49:22Z</time>
      </trkpt>
      <trkpt lat="46.74457" lon="-0.70567">
        <ele>173.5</ele>
        <time>2020-11-15T10:49:23Z</time>
      </trkpt>
      <trkpt lat="46.74454" lon="-0.70561">
        <ele>173.5</ele>
        <time>2020-11-15T10:49:24Z</time>
      </trkpt>
      <trkpt lat="46.74446" lon="-0.70552">
        <ele>173.5</ele>
        <time>2020-11-15T10:49:26Z</time>
      </trkpt>
      <trkpt lat="46.74438" lon="-0.70545">
        <ele>173.5</ele>
        <time>2020-11-15T10:49:28Z</time>
      </trkpt>
      <trkpt lat="46.74429" lon="-0.70543">
        <ele>173.5</ele>
        <time>2020-11-15T10:49:30Z</time>
      </trkpt>
      <trkpt lat="46.74425" lon="-0.70543">
        <ele>173.5</ele>
        <time>2020-11-15T10:49:31Z</time>
      </trkpt>
      <trkpt lat="46.74421" lon="-0.70543">
        <ele>173.5</ele>
        <time>2020-11-15T10:49:32Z</time>
      </trkpt>
      <trkpt lat="46.74412" lon="-0.70546">
        <ele>173.5</ele>
        <time>2020-11-15T10:49:34Z</time>
      </trkpt>
      <trkpt lat="46.74404" lon="-0.70548">
        <ele>173.5</ele>
        <time>2020-11-15T10:49:36Z</time>
      </trkpt>
      <trkpt lat="46.74397" lon="-0.7055">
        <ele>173.5</ele>
        <time>2020-11-15T10:49:38Z</time>
      </trkpt>
      <trkpt lat="46.7439" lon="-0.70554">
        <ele>173.5</ele>
        <time>2020-11-15T10:49:40Z</time>
      </trkpt>
      <trkpt lat="46.74386" lon="-0.70556">
        <ele>173.5</ele>
        <time>2020-11-15T10:49:41Z</time>
      </trkpt>
      <trkpt lat="46.74381" lon="-0.70557">
        <ele>173.5</ele>
        <time>2020-11-15T10:49:42Z</time>
      </trkpt>
      <trkpt lat="46.74373" lon="-0.70561">
        <ele>173.5</ele>
        <time>2020-11-15T10:49:44Z</time>
      </trkpt>
      <trkpt lat="46.74365" lon="-0.70564">
        <ele>173.6</ele>
        <time>2020-11-15T10:49:46Z</time>
      </trkpt>
      <trkpt lat="46.74358" lon="-0.70567">
        <ele>173.6</ele>
        <time>2020-11-15T10:49:48Z</time>
      </trkpt>
      <trkpt lat="46.74355" lon="-0.70568">
        <ele>173.6</ele>
        <time>2020-11-15T10:49:49Z</time>
      </trkpt>
      <trkpt lat="46.74352" lon="-0.7057">
        <ele>173.6</ele>
        <time>2020-11-15T10:49:50Z</time>
      </trkpt>
      <trkpt lat="46.74346" lon="-0.70572">
        <ele>173.6</ele>
        <time>2020-11-15T10:49:52Z</time>
      </trkpt>
      <trkpt lat="46.74338" lon="-0.70575">
        <ele>173.6</ele>
        <time>2020-11-15T10:49:54Z</time>
      </trkpt>
      <trkpt lat="46.74335" lon="-0.70576">
        <ele>173.6</ele>
        <time>2020-11-15T10:49:55Z</time>
      </trkpt>
      <trkpt lat="46.74331" lon="-0.70577">
        <ele>173.6</ele>
        <time>2020-11-15T10:49:56Z</time>
      </trkpt>
      <trkpt lat="46.74324" lon="-0.7058">
        <ele>173.6</ele>
        <time>2020-11-15T10:49:58Z</time>
      </trkpt>
      <trkpt lat="46.74316" lon="-0.70583">
        <ele>173.6</ele>
        <time>2020-11-15T10:50:00Z</time>
      </trkpt>
      <trkpt lat="46.74308" lon="-0.70587">
        <ele>173.6</ele>
        <time>2020-11-15T10:50:02Z</time>
      </trkpt>
      <trkpt lat="46.743" lon="-0.70588">
        <ele>173.6</ele>
        <time>2020-11-15T10:50:04Z</time>
      </trkpt>
      <trkpt lat="46.74292" lon="-0.70591">
        <ele>173.6</ele>
        <time>2020-11-15T10:50:06Z</time>
      </trkpt>
      <trkpt lat="46.74284" lon="-0.70594">
        <ele>173.6</ele>
        <time>2020-11-15T10:50:08Z</time>
      </trkpt>
      <trkpt lat="46.7428" lon="-0.70596">
        <ele>173.6</ele>
        <time>2020-11-15T10:50:09Z</time>
      </trkpt>
      <trkpt lat="46.74275" lon="-0.70597">
        <ele>173.6</ele>
        <time>2020-11-15T10:50:10Z</time>
      </trkpt>
      <trkpt lat="46.74268" lon="-0.706">
        <ele>173.6</ele>
        <time>2020-11-15T10:50:12Z</time>
      </trkpt>
      <trkpt lat="46.74261" lon="-0.70603">
        <ele>173.6</ele>
        <time>2020-11-15T10:50:14Z</time>
      </trkpt>
      <trkpt lat="46.74253" lon="-0.70605">
        <ele>173.6</ele>
        <time>2020-11-15T10:50:16Z</time>
      </trkpt>
      <trkpt lat="46.74243" lon="-0.70606">
        <ele>173.6</ele>
        <time>2020-11-15T10:50:18Z</time>
      </trkpt>
      <trkpt lat="46.74238" lon="-0.70608">
        <ele>173.6</ele>
        <time>2020-11-15T10:50:19Z</time>
      </trkpt>
      <trkpt lat="46.74234" lon="-0.7061">
        <ele>173.6</ele>
        <time>2020-11-15T10:50:20Z</time>
      </trkpt>
      <trkpt lat="46.74226" lon="-0.70614">
        <ele>173.6</ele>
        <time>2020-11-15T10:50:22Z</time>
      </trkpt>
      <trkpt lat="46.74218" lon="-0.70617">
        <ele>173.6</ele>
        <time>2020-11-15T10:50:24Z</time>
      </trkpt>
      <trkpt lat="46.74214" lon="-0.70619">
        <ele>173.6</ele>
        <time>2020-11-15T10:50:25Z</time>
      </trkpt>
      <trkpt lat="46.7421" lon="-0.70621">
        <ele>173.7</ele>
        <time>2020-11-15T10:50:26Z</time>
      </trkpt>
      <trkpt lat="46.74201" lon="-0.70624">
        <ele>173.7</ele>
        <time>2020-11-15T10:50:28Z</time>
      </trkpt>
      <trkpt lat="46.74193" lon="-0.70626">
        <ele>173.7</ele>
        <time>2020-11-15T10:50:30Z</time>
      </trkpt>
      <trkpt lat="46.74188" lon="-0.70627">
        <ele>173.7</ele>
        <time>2020-11-15T10:50:31Z</time>
      </trkpt>
      <trkpt lat="46.74184" lon="-0.70628">
        <ele>173.7</ele>
        <time>2020-11-15T10:50:32Z</time>
      </trkpt>
      <trkpt lat="46.74179" lon="-0.70629">
        <ele>173.7</ele>
        <time>2020-11-15T10:50:33Z</time>
      </trkpt>
      <trkpt lat="46.74175" lon="-0.70631">
        <ele>173.8</ele>
        <time>2020-11-15T10:50:34Z</time>
      </trkpt>
      <trkpt lat="46.74169" lon="-0.70635">
        <ele>174</ele>
        <time>2020-11-15T10:50:36Z</time>
      </trkpt>
      <trkpt lat="46.74166" lon="-0.70639">
        <ele>174.1</ele>
        <time>2020-11-15T10:50:37Z</time>
      </trkpt>
      <trkpt lat="46.74164" lon="-0.70643">
        <ele>173.8</ele>
        <time>2020-11-15T10:50:38Z</time>
      </trkpt>
      <trkpt lat="46.74164" lon="-0.70654">
        <ele>173.6</ele>
        <time>2020-11-15T10:50:40Z</time>
      </trkpt>
      <trkpt lat="46.74164" lon="-0.70664">
        <ele>173.4</ele>
        <time>2020-11-15T10:50:42Z</time>
      </trkpt>
      <trkpt lat="46.74163" lon="-0.70672">
        <ele>173.2</ele>
        <time>2020-11-15T10:50:44Z</time>
      </trkpt>
      <trkpt lat="46.74163" lon="-0.70676">
        <ele>173.1</ele>
        <time>2020-11-15T10:50:45Z</time>
      </trkpt>
      <trkpt lat="46.74161" lon="-0.70681">
        <ele>173.2</ele>
        <time>2020-11-15T10:50:46Z</time>
      </trkpt>
      <trkpt lat="46.74159" lon="-0.70692">
        <ele>173</ele>
        <time>2020-11-15T10:50:48Z</time>
      </trkpt>
      <trkpt lat="46.74158" lon="-0.70703">
        <ele>172.8</ele>
        <time>2020-11-15T10:50:50Z</time>
      </trkpt>
      <trkpt lat="46.74157" lon="-0.70708">
        <ele>172.7</ele>
        <time>2020-11-15T10:50:51Z</time>
      </trkpt>
      <trkpt lat="46.74156" lon="-0.70715">
        <ele>172.7</ele>
        <time>2020-11-15T10:50:52Z</time>
      </trkpt>
      <trkpt lat="46.74154" lon="-0.70728">
        <ele>172.6</ele>
        <time>2020-11-15T10:50:54Z</time>
      </trkpt>
      <trkpt lat="46.74153" lon="-0.70734">
        <ele>172.6</ele>
        <time>2020-11-15T10:50:55Z</time>
      </trkpt>
      <trkpt lat="46.74152" lon="-0.70742">
        <ele>172.6</ele>
        <time>2020-11-15T10:50:56Z</time>
      </trkpt>
      <trkpt lat="46.74151" lon="-0.70754">
        <ele>172.6</ele>
        <time>2020-11-15T10:50:58Z</time>
      </trkpt>
      <trkpt lat="46.7415" lon="-0.70762">
        <ele>172.7</ele>
        <time>2020-11-15T10:51:00Z</time>
      </trkpt>
      <trkpt lat="46.7415" lon="-0.70771">
        <ele>172.7</ele>
        <time>2020-11-15T10:51:02Z</time>
      </trkpt>
      <trkpt lat="46.74149" lon="-0.70776">
        <ele>172.8</ele>
        <time>2020-11-15T10:51:03Z</time>
      </trkpt>
      <trkpt lat="46.74148" lon="-0.7078">
        <ele>172.8</ele>
        <time>2020-11-15T10:51:04Z</time>
      </trkpt>
      <trkpt lat="46.74146" lon="-0.70789">
        <ele>173</ele>
        <time>2020-11-15T10:51:06Z</time>
      </trkpt>
      <trkpt lat="46.74145" lon="-0.70793">
        <ele>173.1</ele>
        <time>2020-11-15T10:51:07Z</time>
      </trkpt>
      <trkpt lat="46.74144" lon="-0.70797">
        <ele>173.2</ele>
        <time>2020-11-15T10:51:08Z</time>
      </trkpt>
      <trkpt lat="46.74141" lon="-0.70805">
        <ele>173.5</ele>
        <time>2020-11-15T10:51:10Z</time>
      </trkpt>
      <trkpt lat="46.7414" lon="-0.70808">
        <ele>173.5</ele>
        <time>2020-11-15T10:51:11Z</time>
      </trkpt>
      <trkpt lat="46.74138" lon="-0.70811">
        <ele>173.8</ele>
        <time>2020-11-15T10:51:12Z</time>
      </trkpt>
      <trkpt lat="46.74135" lon="-0.70821">
        <ele>174</ele>
        <time>2020-11-15T10:51:14Z</time>
      </trkpt>
      <trkpt lat="46.74132" lon="-0.70829">
        <ele>174.3</ele>
        <time>2020-11-15T10:51:16Z</time>
      </trkpt>
      <trkpt lat="46.74129" lon="-0.70838">
        <ele>174.5</ele>
        <time>2020-11-15T10:51:18Z</time>
      </trkpt>
      <trkpt lat="46.74128" lon="-0.70843">
        <ele>174.5</ele>
        <time>2020-11-15T10:51:19Z</time>
      </trkpt>
      <trkpt lat="46.74127" lon="-0.70847">
        <ele>174.7</ele>
        <time>2020-11-15T10:51:20Z</time>
      </trkpt>
      <trkpt lat="46.74126" lon="-0.70857">
        <ele>174.8</ele>
        <time>2020-11-15T10:51:22Z</time>
      </trkpt>
      <trkpt lat="46.74124" lon="-0.70867">
        <ele>175.2</ele>
        <time>2020-11-15T10:51:24Z</time>
      </trkpt>
      <trkpt lat="46.74124" lon="-0.70872">
        <ele>175.3</ele>
        <time>2020-11-15T10:51:25Z</time>
      </trkpt>
      <trkpt lat="46.74124" lon="-0.70876">
        <ele>175.3</ele>
        <time>2020-11-15T10:51:26Z</time>
      </trkpt>
      <trkpt lat="46.74124" lon="-0.70886">
        <ele>175.3</ele>
        <time>2020-11-15T10:51:28Z</time>
      </trkpt>
      <trkpt lat="46.74125" lon="-0.7089">
        <ele>175.3</ele>
        <time>2020-11-15T10:51:29Z</time>
      </trkpt>
      <trkpt lat="46.74125" lon="-0.70894">
        <ele>175.4</ele>
        <time>2020-11-15T10:51:30Z</time>
      </trkpt>
      <trkpt lat="46.74126" lon="-0.70905">
        <ele>175.4</ele>
        <time>2020-11-15T10:51:32Z</time>
      </trkpt>
      <trkpt lat="46.74125" lon="-0.70913">
        <ele>175.6</ele>
        <time>2020-11-15T10:51:34Z</time>
      </trkpt>
      <trkpt lat="46.74126" lon="-0.70921">
        <ele>175.6</ele>
        <time>2020-11-15T10:51:36Z</time>
      </trkpt>
      <trkpt lat="46.74128" lon="-0.70929">
        <ele>175.6</ele>
        <time>2020-11-15T10:51:38Z</time>
      </trkpt>
      <trkpt lat="46.74129" lon="-0.70933">
        <ele>175.7</ele>
        <time>2020-11-15T10:51:39Z</time>
      </trkpt>
      <trkpt lat="46.7413" lon="-0.70935">
        <ele>175.8</ele>
        <time>2020-11-15T10:51:40Z</time>
      </trkpt>
      <trkpt lat="46.74133" lon="-0.70943">
        <ele>175.7</ele>
        <time>2020-11-15T10:51:42Z</time>
      </trkpt>
      <trkpt lat="46.74134" lon="-0.70947">
        <ele>175.7</ele>
        <time>2020-11-15T10:51:43Z</time>
      </trkpt>
      <trkpt lat="46.74137" lon="-0.70952">
        <ele>175.7</ele>
        <time>2020-11-15T10:51:44Z</time>
      </trkpt>
      <trkpt lat="46.74141" lon="-0.70962">
        <ele>175.7</ele>
        <time>2020-11-15T10:51:46Z</time>
      </trkpt>
      <trkpt lat="46.74143" lon="-0.70973">
        <ele>175.7</ele>
        <time>2020-11-15T10:51:48Z</time>
      </trkpt>
      <trkpt lat="46.74144" lon="-0.70982">
        <ele>175.7</ele>
        <time>2020-11-15T10:51:50Z</time>
      </trkpt>
      <trkpt lat="46.74144" lon="-0.70992">
        <ele>175.7</ele>
        <time>2020-11-15T10:51:52Z</time>
      </trkpt>
      <trkpt lat="46.74145" lon="-0.70997">
        <ele>175.6</ele>
        <time>2020-11-15T10:51:53Z</time>
      </trkpt>
      <trkpt lat="46.74144" lon="-0.71002">
        <ele>175.5</ele>
        <time>2020-11-15T10:51:54Z</time>
      </trkpt>
      <trkpt lat="46.74144" lon="-0.71013">
        <ele>175.3</ele>
        <time>2020-11-15T10:51:56Z</time>
      </trkpt>
      <trkpt lat="46.74143" lon="-0.71018">
        <ele>175.3</ele>
        <time>2020-11-15T10:51:57Z</time>
      </trkpt>
      <trkpt lat="46.74143" lon="-0.71023">
        <ele>175.2</ele>
        <time>2020-11-15T10:51:58Z</time>
      </trkpt>
      <trkpt lat="46.74143" lon="-0.71032">
        <ele>175</ele>
        <time>2020-11-15T10:52:00Z</time>
      </trkpt>
      <trkpt lat="46.74142" lon="-0.71039">
        <ele>174.9</ele>
        <time>2020-11-15T10:52:02Z</time>
      </trkpt>
      <trkpt lat="46.7414" lon="-0.71049">
        <ele>174.8</ele>
        <time>2020-11-15T10:52:04Z</time>
      </trkpt>
      <trkpt lat="46.74138" lon="-0.71059">
        <ele>174.8</ele>
        <time>2020-11-15T10:52:06Z</time>
      </trkpt>
      <trkpt lat="46.74135" lon="-0.71068">
        <ele>174.7</ele>
        <time>2020-11-15T10:52:08Z</time>
      </trkpt>
      <trkpt lat="46.74131" lon="-0.71077">
        <ele>174.6</ele>
        <time>2020-11-15T10:52:10Z</time>
      </trkpt>
      <trkpt lat="46.7413" lon="-0.71081">
        <ele>174.7</ele>
        <time>2020-11-15T10:52:11Z</time>
      </trkpt>
      <trkpt lat="46.74129" lon="-0.71084">
        <ele>174.6</ele>
        <time>2020-11-15T10:52:12Z</time>
      </trkpt>
      <trkpt lat="46.74125" lon="-0.71091">
        <ele>174.6</ele>
        <time>2020-11-15T10:52:14Z</time>
      </trkpt>
      <trkpt lat="46.74121" lon="-0.71098">
        <ele>174.7</ele>
        <time>2020-11-15T10:52:16Z</time>
      </trkpt>
      <trkpt lat="46.7412" lon="-0.71102">
        <ele>174.7</ele>
        <time>2020-11-15T10:52:17Z</time>
      </trkpt>
      <trkpt lat="46.74118" lon="-0.71106">
        <ele>174.8</ele>
        <time>2020-11-15T10:52:18Z</time>
      </trkpt>
      <trkpt lat="46.74114" lon="-0.71114">
        <ele>174.9</ele>
        <time>2020-11-15T10:52:20Z</time>
      </trkpt>
      <trkpt lat="46.74109" lon="-0.71122">
        <ele>175</ele>
        <time>2020-11-15T10:52:22Z</time>
      </trkpt>
      <trkpt lat="46.74104" lon="-0.71128">
        <ele>175.1</ele>
        <time>2020-11-15T10:52:24Z</time>
      </trkpt>
      <trkpt lat="46.74098" lon="-0.71132">
        <ele>175.2</ele>
        <time>2020-11-15T10:52:26Z</time>
      </trkpt>
      <trkpt lat="46.74093" lon="-0.71137">
        <ele>175.4</ele>
        <time>2020-11-15T10:52:28Z</time>
      </trkpt>
      <trkpt lat="46.74087" lon="-0.71142">
        <ele>175.6</ele>
        <time>2020-11-15T10:52:30Z</time>
      </trkpt>
      <trkpt lat="46.74081" lon="-0.71146">
        <ele>175.7</ele>
        <time>2020-11-15T10:52:32Z</time>
      </trkpt>
      <trkpt lat="46.74074" lon="-0.7115">
        <ele>175.9</ele>
        <time>2020-11-15T10:52:34Z</time>
      </trkpt>
      <trkpt lat="46.74068" lon="-0.71155">
        <ele>176</ele>
        <time>2020-11-15T10:52:36Z</time>
      </trkpt>
      <trkpt lat="46.74066" lon="-0.71157">
        <ele>176</ele>
        <time>2020-11-15T10:52:37Z</time>
      </trkpt>
      <trkpt lat="46.74062" lon="-0.7116">
        <ele>176.1</ele>
        <time>2020-11-15T10:52:38Z</time>
      </trkpt>
      <trkpt lat="46.74055" lon="-0.71164">
        <ele>176.1</ele>
        <time>2020-11-15T10:52:40Z</time>
      </trkpt>
      <trkpt lat="46.74048" lon="-0.71169">
        <ele>176.2</ele>
        <time>2020-11-15T10:52:42Z</time>
      </trkpt>
      <trkpt lat="46.74042" lon="-0.71172">
        <ele>176.2</ele>
        <time>2020-11-15T10:52:44Z</time>
      </trkpt>
      <trkpt lat="46.74036" lon="-0.71174">
        <ele>176.3</ele>
        <time>2020-11-15T10:52:46Z</time>
      </trkpt>
      <trkpt lat="46.74029" lon="-0.71176">
        <ele>176.3</ele>
        <time>2020-11-15T10:52:48Z</time>
      </trkpt>
      <trkpt lat="46.74024" lon="-0.71178">
        <ele>176.4</ele>
        <time>2020-11-15T10:52:50Z</time>
      </trkpt>
      <trkpt lat="46.7402" lon="-0.71178">
        <ele>176.5</ele>
        <time>2020-11-15T10:52:52Z</time>
      </trkpt>
      <trkpt lat="46.74017" lon="-0.71179">
        <ele>176.5</ele>
        <time>2020-11-15T10:52:54Z</time>
      </trkpt>
      <trkpt lat="46.74016" lon="-0.7118">
        <ele>176.5</ele>
        <time>2020-11-15T10:52:56Z</time>
      </trkpt>
      <trkpt lat="46.74018" lon="-0.71188">
        <ele>176.5</ele>
        <time>2020-11-15T10:53:04Z</time>
      </trkpt>
      <trkpt lat="46.74019" lon="-0.71195">
        <ele>176.4</ele>
        <time>2020-11-15T10:53:06Z</time>
      </trkpt>
      <trkpt lat="46.7402" lon="-0.71199">
        <ele>176.4</ele>
        <time>2020-11-15T10:53:07Z</time>
      </trkpt>
      <trkpt lat="46.7402" lon="-0.71204">
        <ele>176.4</ele>
        <time>2020-11-15T10:53:08Z</time>
      </trkpt>
      <trkpt lat="46.74021" lon="-0.71213">
        <ele>176.4</ele>
        <time>2020-11-15T10:53:10Z</time>
      </trkpt>
      <trkpt lat="46.74022" lon="-0.71222">
        <ele>176.4</ele>
        <time>2020-11-15T10:53:12Z</time>
      </trkpt>
      <trkpt lat="46.74023" lon="-0.71226">
        <ele>176.4</ele>
        <time>2020-11-15T10:53:13Z</time>
      </trkpt>
      <trkpt lat="46.74023" lon="-0.71231">
        <ele>176.4</ele>
        <time>2020-11-15T10:53:14Z</time>
      </trkpt>
      <trkpt lat="46.74026" lon="-0.71241">
        <ele>176.4</ele>
        <time>2020-11-15T10:53:16Z</time>
      </trkpt>
      <trkpt lat="46.74027" lon="-0.71249">
        <ele>176.4</ele>
        <time>2020-11-15T10:53:18Z</time>
      </trkpt>
      <trkpt lat="46.74029" lon="-0.71258">
        <ele>176.5</ele>
        <time>2020-11-15T10:53:20Z</time>
      </trkpt>
      <trkpt lat="46.7403" lon="-0.71262">
        <ele>176.5</ele>
        <time>2020-11-15T10:53:21Z</time>
      </trkpt>
      <trkpt lat="46.7403" lon="-0.71267">
        <ele>176.6</ele>
        <time>2020-11-15T10:53:22Z</time>
      </trkpt>
      <trkpt lat="46.74028" lon="-0.71275">
        <ele>176.7</ele>
        <time>2020-11-15T10:53:24Z</time>
      </trkpt>
      <trkpt lat="46.74024" lon="-0.71277">
        <ele>176.7</ele>
        <time>2020-11-15T10:53:25Z</time>
      </trkpt>
      <trkpt lat="46.7402" lon="-0.71279">
        <ele>176.6</ele>
        <time>2020-11-15T10:53:26Z</time>
      </trkpt>
      <trkpt lat="46.74014" lon="-0.71285">
        <ele>176.6</ele>
        <time>2020-11-15T10:53:28Z</time>
      </trkpt>
      <trkpt lat="46.74008" lon="-0.71289">
        <ele>176.6</ele>
        <time>2020-11-15T10:53:30Z</time>
      </trkpt>
      <trkpt lat="46.74005" lon="-0.71291">
        <ele>176.6</ele>
        <time>2020-11-15T10:53:31Z</time>
      </trkpt>
      <trkpt lat="46.74002" lon="-0.71293">
        <ele>176.6</ele>
        <time>2020-11-15T10:53:32Z</time>
      </trkpt>
      <trkpt lat="46.73996" lon="-0.71297">
        <ele>176.7</ele>
        <time>2020-11-15T10:53:34Z</time>
      </trkpt>
      <trkpt lat="46.7399" lon="-0.713">
        <ele>176.7</ele>
        <time>2020-11-15T10:53:36Z</time>
      </trkpt>
      <trkpt lat="46.73987" lon="-0.71301">
        <ele>176.7</ele>
        <time>2020-11-15T10:53:37Z</time>
      </trkpt>
      <trkpt lat="46.73983" lon="-0.71302">
        <ele>176.8</ele>
        <time>2020-11-15T10:53:38Z</time>
      </trkpt>
      <trkpt lat="46.73976" lon="-0.71304">
        <ele>176.9</ele>
        <time>2020-11-15T10:53:40Z</time>
      </trkpt>
      <trkpt lat="46.73969" lon="-0.71304">
        <ele>177</ele>
        <time>2020-11-15T10:53:42Z</time>
      </trkpt>
      <trkpt lat="46.73962" lon="-0.71303">
        <ele>177.1</ele>
        <time>2020-11-15T10:53:44Z</time>
      </trkpt>
      <trkpt lat="46.73956" lon="-0.71299">
        <ele>177.1</ele>
        <time>2020-11-15T10:53:46Z</time>
      </trkpt>
      <trkpt lat="46.73949" lon="-0.71296">
        <ele>177.2</ele>
        <time>2020-11-15T10:53:48Z</time>
      </trkpt>
      <trkpt lat="46.73944" lon="-0.71292">
        <ele>177.3</ele>
        <time>2020-11-15T10:53:50Z</time>
      </trkpt>
      <trkpt lat="46.73941" lon="-0.7129">
        <ele>177.3</ele>
        <time>2020-11-15T10:53:51Z</time>
      </trkpt>
      <trkpt lat="46.73939" lon="-0.71289">
        <ele>177.4</ele>
        <time>2020-11-15T10:53:52Z</time>
      </trkpt>
      <trkpt lat="46.73933" lon="-0.71286">
        <ele>177.5</ele>
        <time>2020-11-15T10:53:54Z</time>
      </trkpt>
      <trkpt lat="46.73927" lon="-0.71283">
        <ele>177.6</ele>
        <time>2020-11-15T10:53:56Z</time>
      </trkpt>
      <trkpt lat="46.73917" lon="-0.71286">
        <ele>180</ele>
        <time>2019-12-30T15:53:13Z</time>
      </trkpt>
      <trkpt lat="46.73899" lon="-0.71288">
        <ele>181</ele>
        <time>2019-12-30T15:53:37Z</time>
      </trkpt>
      <trkpt lat="46.7388" lon="-0.71304">
        <ele>181</ele>
        <time>2019-12-30T15:54:06Z</time>
      </trkpt>
      <trkpt lat="46.73862" lon="-0.71324">
        <ele>181</ele>
        <time>2019-12-30T15:54:36Z</time>
      </trkpt>
      <trkpt lat="46.73856" lon="-0.71333">
        <ele>180</ele>
        <time>2019-12-30T15:54:48Z</time>
      </trkpt>
      <trkpt lat="46.73857" lon="-0.71364">
        <ele>180</ele>
        <time>2019-12-30T15:55:16Z</time>
      </trkpt>
      <trkpt lat="46.7386" lon="-0.71386">
        <ele>180</ele>
        <time>2019-12-30T15:55:37Z</time>
      </trkpt>
      <trkpt lat="46.73872" lon="-0.71414">
        <ele>180</ele>
        <time>2019-12-30T15:56:07Z</time>
      </trkpt>
      <trkpt lat="46.73878" lon="-0.71442">
        <ele>180</ele>
        <time>2019-12-30T15:56:34Z</time>
      </trkpt>
      <trkpt lat="46.73871" lon="-0.71453">
        <ele>180</ele>
        <time>2019-12-30T15:56:48Z</time>
      </trkpt>
      <trkpt lat="46.73781" lon="-0.71544">
        <ele>184</ele>
        <time>2019-12-30T15:59:14Z</time>
      </trkpt>
      <trkpt lat="46.73753" lon="-0.71567">
        <ele>185</ele>
        <time>2019-12-30T15:59:57Z</time>
      </trkpt>
      <trkpt lat="46.73744" lon="-0.71578">
        <ele>186</ele>
        <time>2019-12-30T16:00:12Z</time>
      </trkpt>
      <trkpt lat="46.73708" lon="-0.71606">
        <ele>187</ele>
        <time>2019-12-30T16:01:07Z</time>
      </trkpt>
      <trkpt lat="46.73692" lon="-0.71626">
        <ele>187</ele>
        <time>2019-12-30T16:01:35Z</time>
      </trkpt>
      <trkpt lat="46.73667" lon="-0.71643">
        <ele>188</ele>
        <time>2019-12-30T16:02:12Z</time>
      </trkpt>
      <trkpt lat="46.73655" lon="-0.71641">
        <ele>188</ele>
        <time>2019-12-30T16:02:28Z</time>
      </trkpt>
      <trkpt lat="46.73648" lon="-0.7163">
        <ele>188</ele>
        <time>2019-12-30T16:02:41Z</time>
      </trkpt>
      <trkpt lat="46.73623" lon="-0.71529">
        <ele>186</ele>
        <time>2019-12-30T16:04:20Z</time>
      </trkpt>
      <trkpt lat="46.73613" lon="-0.71518">
        <ele>186</ele>
        <time>2019-12-30T16:04:36Z</time>
      </trkpt>
      <trkpt lat="46.73601" lon="-0.71517">
        <ele>186</ele>
        <time>2019-12-30T16:04:52Z</time>
      </trkpt>
      <trkpt lat="46.73565" lon="-0.71536">
        <ele>187</ele>
        <time>2019-12-30T16:05:43Z</time>
      </trkpt>
      <trkpt lat="46.73555" lon="-0.71546">
        <ele>187</ele>
        <time>2019-12-30T16:06:00Z</time>
      </trkpt>
      <trkpt lat="46.73541" lon="-0.71574">
        <ele>188</ele>
        <time>2019-12-30T16:06:31Z</time>
      </trkpt>
      <trkpt lat="46.73515" lon="-0.71605">
        <ele>188</ele>
        <time>2019-12-30T16:07:16Z</time>
      </trkpt>
      <trkpt lat="46.73504" lon="-0.71611">
        <ele>189</ele>
        <time>2019-12-30T16:07:32Z</time>
      </trkpt>
      <trkpt lat="46.73483" lon="-0.71628">
        <ele>190</ele>
        <time>2019-12-30T16:08:04Z</time>
      </trkpt>
      <trkpt lat="46.73468" lon="-0.71636">
        <ele>191</ele>
        <time>2019-12-30T16:08:25Z</time>
      </trkpt>
      <trkpt lat="46.73454" lon="-0.71636">
        <ele>192</ele>
        <time>2019-12-30T16:08:44Z</time>
      </trkpt>
      <trkpt lat="46.73441" lon="-0.71639">
        <ele>192</ele>
        <time>2019-12-30T16:09:01Z</time>
      </trkpt>
      <trkpt lat="46.73419" lon="-0.7165">
        <ele>194</ele>
        <time>2019-12-30T16:09:32Z</time>
      </trkpt>
      <trkpt lat="46.73384" lon="-0.71657">
        <ele>196</ele>
        <time>2019-12-30T16:10:20Z</time>
      </trkpt>
      <trkpt lat="46.73375" lon="-0.71644">
        <ele>196</ele>
        <time>2019-12-30T16:10:36Z</time>
      </trkpt>
      <trkpt lat="46.73369" lon="-0.71612">
        <ele>195</ele>
        <time>2019-12-30T16:11:07Z</time>
      </trkpt>
      <trkpt lat="46.7335" lon="-0.71571">
        <ele>194</ele>
        <time>2019-12-30T16:11:52Z</time>
      </trkpt>
      <trkpt lat="46.73347" lon="-0.71559">
        <ele>194</ele>
        <time>2019-12-30T16:12:04Z</time>
      </trkpt>
      <trkpt lat="46.7332" lon="-0.7152">
        <ele>194</ele>
        <time>2019-12-30T16:12:54Z</time>
      </trkpt>
      <trkpt lat="46.73312" lon="-0.71521">
        <ele>195</ele>
        <time>2019-12-30T16:13:05Z</time>
      </trkpt>
      <trkpt lat="46.73304" lon="-0.71528">
        <ele>196</ele>
        <time>2019-12-30T16:13:18Z</time>
      </trkpt>
      <trkpt lat="46.73297" lon="-0.71539">
        <ele>197</ele>
        <time>2019-12-30T16:13:31Z</time>
      </trkpt>
      <trkpt lat="46.73286" lon="-0.71543">
        <ele>198</ele>
        <time>2019-12-30T16:13:46Z</time>
      </trkpt>
      <trkpt lat="46.73235" lon="-0.71582">
        <ele>204</ele>
        <time>2019-12-30T16:15:03Z</time>
      </trkpt>
      <trkpt lat="46.73211" lon="-0.71595">
        <ele>204</ele>
        <time>2019-12-30T16:15:37Z</time>
      </trkpt>
      <trkpt lat="46.73169" lon="-0.71604">
        <ele>206</ele>
        <time>2019-12-30T16:16:34Z</time>
      </trkpt>
    </trkseg>
  </trk>
</gpx>